<?xml version="1.0" encoding="UTF-8" standalone="no" ?>
<gpx xmlns="http://www.topografix.com/GPX/1/1" xmlns:xsi="http://www.w3.org/2001/XMLSchema-instance" xsi:schemaLocation="http://www.topografix.com/GPX/1/1 http://www.topografix.com/GPX/1/1/gpx.xsd" version="1.1" creator="VisuGPX - https://www.visugpx.com">
  <metadata>
    <name>22-01-02</name>
    <desc><![CDATA[Àguila]]></desc>
  </metadata>
  <trk>
    <name><![CDATA[22-01-02]]></name>
    <trkseg>
      <trkpt lat="45.61834" lon="6.27709">
        <ele>423.39999389648</ele>
        <time>2022-01-02T08:49:09.000Z</time>
      </trkpt>
      <trkpt lat="45.61836" lon="6.27708">
        <ele>423.79998779297</ele>
        <time>2022-01-02T08:49:28.000Z</time>
      </trkpt>
      <trkpt lat="45.61838" lon="6.27702">
        <ele>424</ele>
        <time>2022-01-02T08:49:30.000Z</time>
      </trkpt>
      <trkpt lat="45.61838" lon="6.27697">
        <ele>424</ele>
        <time>2022-01-02T08:49:32.000Z</time>
      </trkpt>
      <trkpt lat="45.61839" lon="6.27692">
        <ele>424.39999389648</ele>
        <time>2022-01-02T08:49:34.000Z</time>
      </trkpt>
      <trkpt lat="45.61839" lon="6.2769">
        <ele>424.60000610352</ele>
        <time>2022-01-02T08:49:35.000Z</time>
      </trkpt>
      <trkpt lat="45.61836" lon="6.27686">
        <ele>425.39999389648</ele>
        <time>2022-01-02T08:49:39.000Z</time>
      </trkpt>
      <trkpt lat="45.61836" lon="6.27686">
        <ele>425.39999389648</ele>
        <time>2022-01-02T08:49:40.000Z</time>
      </trkpt>
      <trkpt lat="45.61838" lon="6.27685">
        <ele>426.20001220703</ele>
        <time>2022-01-02T08:49:44.000Z</time>
      </trkpt>
      <trkpt lat="45.61831" lon="6.27684">
        <ele>426.39999389648</ele>
        <time>2022-01-02T08:49:48.000Z</time>
      </trkpt>
      <trkpt lat="45.61828" lon="6.27686">
        <ele>426.39999389648</ele>
        <time>2022-01-02T08:49:49.000Z</time>
      </trkpt>
      <trkpt lat="45.61814" lon="6.27692">
        <ele>426.39999389648</ele>
        <time>2022-01-02T08:49:53.000Z</time>
      </trkpt>
      <trkpt lat="45.61809" lon="6.27693">
        <ele>426</ele>
        <time>2022-01-02T08:49:56.000Z</time>
      </trkpt>
      <trkpt lat="45.61793" lon="6.27698">
        <ele>425.20001220703</ele>
        <time>2022-01-02T08:50:01.000Z</time>
      </trkpt>
      <trkpt lat="45.6179" lon="6.277">
        <ele>425.20001220703</ele>
        <time>2022-01-02T08:50:02.000Z</time>
      </trkpt>
      <trkpt lat="45.61781" lon="6.27703">
        <ele>424.79998779297</ele>
        <time>2022-01-02T08:50:04.000Z</time>
      </trkpt>
      <trkpt lat="45.61773" lon="6.27706">
        <ele>424.60000610352</ele>
        <time>2022-01-02T08:50:05.000Z</time>
      </trkpt>
      <trkpt lat="45.61773" lon="6.27706">
        <ele>424.39999389648</ele>
        <time>2022-01-02T08:50:06.000Z</time>
      </trkpt>
      <trkpt lat="45.61769" lon="6.27711">
        <ele>423.60000610352</ele>
        <time>2022-01-02T08:50:07.000Z</time>
      </trkpt>
      <trkpt lat="45.61763" lon="6.27726">
        <ele>423.20001220703</ele>
        <time>2022-01-02T08:50:08.000Z</time>
      </trkpt>
      <trkpt lat="45.61762" lon="6.27731">
        <ele>422.79998779297</ele>
        <time>2022-01-02T08:50:09.000Z</time>
      </trkpt>
      <trkpt lat="45.6176" lon="6.27738">
        <ele>422</ele>
        <time>2022-01-02T08:50:10.000Z</time>
      </trkpt>
      <trkpt lat="45.61753" lon="6.27764">
        <ele>420.39999389648</ele>
        <time>2022-01-02T08:50:14.000Z</time>
      </trkpt>
      <trkpt lat="45.61751" lon="6.27772">
        <ele>420</ele>
        <time>2022-01-02T08:50:15.000Z</time>
      </trkpt>
      <trkpt lat="45.61751" lon="6.27772">
        <ele>418.79998779297</ele>
        <time>2022-01-02T08:50:16.000Z</time>
      </trkpt>
      <trkpt lat="45.61746" lon="6.27787">
        <ele>418</ele>
        <time>2022-01-02T08:50:18.000Z</time>
      </trkpt>
      <trkpt lat="45.61742" lon="6.27794">
        <ele>417.39999389648</ele>
        <time>2022-01-02T08:50:19.000Z</time>
      </trkpt>
      <trkpt lat="45.61736" lon="6.27809">
        <ele>416.20001220703</ele>
        <time>2022-01-02T08:50:21.000Z</time>
      </trkpt>
      <trkpt lat="45.61732" lon="6.27816">
        <ele>415.60000610352</ele>
        <time>2022-01-02T08:50:22.000Z</time>
      </trkpt>
      <trkpt lat="45.61721" lon="6.27834">
        <ele>415</ele>
        <time>2022-01-02T08:50:24.000Z</time>
      </trkpt>
      <trkpt lat="45.61713" lon="6.27844">
        <ele>414.20001220703</ele>
        <time>2022-01-02T08:50:26.000Z</time>
      </trkpt>
      <trkpt lat="45.61708" lon="6.27848">
        <ele>413.79998779297</ele>
        <time>2022-01-02T08:50:28.000Z</time>
      </trkpt>
      <trkpt lat="45.61683" lon="6.27862">
        <ele>413.39999389648</ele>
        <time>2022-01-02T08:50:32.000Z</time>
      </trkpt>
      <trkpt lat="45.61674" lon="6.27864">
        <ele>413.39999389648</ele>
        <time>2022-01-02T08:50:34.000Z</time>
      </trkpt>
      <trkpt lat="45.6167" lon="6.27861">
        <ele>413</ele>
        <time>2022-01-02T08:50:35.000Z</time>
      </trkpt>
      <trkpt lat="45.61669" lon="6.27856">
        <ele>412.79998779297</ele>
        <time>2022-01-02T08:50:37.000Z</time>
      </trkpt>
      <trkpt lat="45.61667" lon="6.27833">
        <ele>412.60000610352</ele>
        <time>2022-01-02T08:50:39.000Z</time>
      </trkpt>
      <trkpt lat="45.61665" lon="6.27825">
        <ele>412.60000610352</ele>
        <time>2022-01-02T08:50:40.000Z</time>
      </trkpt>
      <trkpt lat="45.61663" lon="6.27817">
        <ele>412.39999389648</ele>
        <time>2022-01-02T08:50:42.000Z</time>
      </trkpt>
      <trkpt lat="45.61654" lon="6.27804">
        <ele>412.20001220703</ele>
        <time>2022-01-02T08:50:43.000Z</time>
      </trkpt>
      <trkpt lat="45.61649" lon="6.27799">
        <ele>412.20001220703</ele>
        <time>2022-01-02T08:50:44.000Z</time>
      </trkpt>
      <trkpt lat="45.61628" lon="6.27785">
        <ele>411.60000610352</ele>
        <time>2022-01-02T08:50:47.000Z</time>
      </trkpt>
      <trkpt lat="45.61621" lon="6.27781">
        <ele>411</ele>
        <time>2022-01-02T08:50:48.000Z</time>
      </trkpt>
      <trkpt lat="45.61614" lon="6.27776">
        <ele>410.20001220703</ele>
        <time>2022-01-02T08:50:50.000Z</time>
      </trkpt>
      <trkpt lat="45.616" lon="6.27767">
        <ele>410</ele>
        <time>2022-01-02T08:50:51.000Z</time>
      </trkpt>
      <trkpt lat="45.61592" lon="6.27762">
        <ele>409</ele>
        <time>2022-01-02T08:50:53.000Z</time>
      </trkpt>
      <trkpt lat="45.61569" lon="6.27746">
        <ele>408</ele>
        <time>2022-01-02T08:50:55.000Z</time>
      </trkpt>
      <trkpt lat="45.61552" lon="6.27736">
        <ele>407</ele>
        <time>2022-01-02T08:50:57.000Z</time>
      </trkpt>
      <trkpt lat="45.61552" lon="6.27736">
        <ele>406.60000610352</ele>
        <time>2022-01-02T08:50:58.000Z</time>
      </trkpt>
      <trkpt lat="45.61535" lon="6.27725">
        <ele>406.20001220703</ele>
        <time>2022-01-02T08:50:59.000Z</time>
      </trkpt>
      <trkpt lat="45.61526" lon="6.27719">
        <ele>405.79998779297</ele>
        <time>2022-01-02T08:51:00.000Z</time>
      </trkpt>
      <trkpt lat="45.61501" lon="6.27701">
        <ele>404.60000610352</ele>
        <time>2022-01-02T08:51:03.000Z</time>
      </trkpt>
      <trkpt lat="45.61492" lon="6.27695">
        <ele>403.39999389648</ele>
        <time>2022-01-02T08:51:05.000Z</time>
      </trkpt>
      <trkpt lat="45.61484" lon="6.27689">
        <ele>402.60000610352</ele>
        <time>2022-01-02T08:51:06.000Z</time>
      </trkpt>
      <trkpt lat="45.61475" lon="6.27684">
        <ele>401.60000610352</ele>
        <time>2022-01-02T08:51:07.000Z</time>
      </trkpt>
      <trkpt lat="45.61458" lon="6.27672">
        <ele>400.79998779297</ele>
        <time>2022-01-02T08:51:09.000Z</time>
      </trkpt>
      <trkpt lat="45.61449" lon="6.27667">
        <ele>400.60000610352</ele>
        <time>2022-01-02T08:51:10.000Z</time>
      </trkpt>
      <trkpt lat="45.61432" lon="6.27656">
        <ele>399.39999389648</ele>
        <time>2022-01-02T08:51:12.000Z</time>
      </trkpt>
      <trkpt lat="45.61399" lon="6.27634">
        <ele>398.20001220703</ele>
        <time>2022-01-02T08:51:16.000Z</time>
      </trkpt>
      <trkpt lat="45.61383" lon="6.27623">
        <ele>397.79998779297</ele>
        <time>2022-01-02T08:51:17.000Z</time>
      </trkpt>
      <trkpt lat="45.61375" lon="6.27618">
        <ele>397.39999389648</ele>
        <time>2022-01-02T08:51:18.000Z</time>
      </trkpt>
      <trkpt lat="45.61375" lon="6.27618">
        <ele>396.79998779297</ele>
        <time>2022-01-02T08:51:19.000Z</time>
      </trkpt>
      <trkpt lat="45.61352" lon="6.27603">
        <ele>395.60000610352</ele>
        <time>2022-01-02T08:51:22.000Z</time>
      </trkpt>
      <trkpt lat="45.6133" lon="6.27588">
        <ele>393.79998779297</ele>
        <time>2022-01-02T08:51:24.000Z</time>
      </trkpt>
      <trkpt lat="45.6131" lon="6.27569">
        <ele>392.39999389648</ele>
        <time>2022-01-02T08:51:27.000Z</time>
      </trkpt>
      <trkpt lat="45.6131" lon="6.27569">
        <ele>391.79998779297</ele>
        <time>2022-01-02T08:51:28.000Z</time>
      </trkpt>
      <trkpt lat="45.61296" lon="6.27556">
        <ele>391.60000610352</ele>
        <time>2022-01-02T08:51:29.000Z</time>
      </trkpt>
      <trkpt lat="45.61296" lon="6.27556">
        <ele>391</ele>
        <time>2022-01-02T08:51:30.000Z</time>
      </trkpt>
      <trkpt lat="45.61284" lon="6.27542">
        <ele>390.60000610352</ele>
        <time>2022-01-02T08:51:31.000Z</time>
      </trkpt>
      <trkpt lat="45.61272" lon="6.27526">
        <ele>390.20001220703</ele>
        <time>2022-01-02T08:51:33.000Z</time>
      </trkpt>
      <trkpt lat="45.61272" lon="6.27526">
        <ele>389.79998779297</ele>
        <time>2022-01-02T08:51:34.000Z</time>
      </trkpt>
      <trkpt lat="45.61249" lon="6.27498">
        <ele>389.20001220703</ele>
        <time>2022-01-02T08:51:37.000Z</time>
      </trkpt>
      <trkpt lat="45.61237" lon="6.27487">
        <ele>389.20001220703</ele>
        <time>2022-01-02T08:51:39.000Z</time>
      </trkpt>
      <trkpt lat="45.61199" lon="6.27452">
        <ele>389</ele>
        <time>2022-01-02T08:51:46.000Z</time>
      </trkpt>
      <trkpt lat="45.6119" lon="6.27442">
        <ele>389.39999389648</ele>
        <time>2022-01-02T08:51:48.000Z</time>
      </trkpt>
      <trkpt lat="45.61178" lon="6.27426">
        <ele>390</ele>
        <time>2022-01-02T08:51:52.000Z</time>
      </trkpt>
      <trkpt lat="45.6116" lon="6.27398">
        <ele>390.79998779297</ele>
        <time>2022-01-02T08:51:57.000Z</time>
      </trkpt>
      <trkpt lat="45.61157" lon="6.27394">
        <ele>391</ele>
        <time>2022-01-02T08:51:58.000Z</time>
      </trkpt>
      <trkpt lat="45.61155" lon="6.27391">
        <ele>391</ele>
        <time>2022-01-02T08:51:59.000Z</time>
      </trkpt>
      <trkpt lat="45.61139" lon="6.27365">
        <ele>392</ele>
        <time>2022-01-02T08:52:06.000Z</time>
      </trkpt>
      <trkpt lat="45.61127" lon="6.27346">
        <ele>392.79998779297</ele>
        <time>2022-01-02T08:52:09.000Z</time>
      </trkpt>
      <trkpt lat="45.61127" lon="6.27346">
        <ele>392.79998779297</ele>
        <time>2022-01-02T08:52:10.000Z</time>
      </trkpt>
      <trkpt lat="45.61125" lon="6.27342">
        <ele>393</ele>
        <time>2022-01-02T08:52:11.000Z</time>
      </trkpt>
      <trkpt lat="45.61115" lon="6.27323">
        <ele>393.60000610352</ele>
        <time>2022-01-02T08:52:14.000Z</time>
      </trkpt>
      <trkpt lat="45.61106" lon="6.273">
        <ele>394.20001220703</ele>
        <time>2022-01-02T08:52:18.000Z</time>
      </trkpt>
      <trkpt lat="45.61104" lon="6.27295">
        <ele>394.39999389648</ele>
        <time>2022-01-02T08:52:19.000Z</time>
      </trkpt>
      <trkpt lat="45.61081" lon="6.27223">
        <ele>395</ele>
        <time>2022-01-02T08:52:31.000Z</time>
      </trkpt>
      <trkpt lat="45.61079" lon="6.27218">
        <ele>395</ele>
        <time>2022-01-02T08:52:32.000Z</time>
      </trkpt>
      <trkpt lat="45.61074" lon="6.272">
        <ele>395.20001220703</ele>
        <time>2022-01-02T08:52:35.000Z</time>
      </trkpt>
      <trkpt lat="45.61068" lon="6.27179">
        <ele>395.79998779297</ele>
        <time>2022-01-02T08:52:39.000Z</time>
      </trkpt>
      <trkpt lat="45.61065" lon="6.27168">
        <ele>396.20001220703</ele>
        <time>2022-01-02T08:52:41.000Z</time>
      </trkpt>
      <trkpt lat="45.61063" lon="6.27163">
        <ele>396.20001220703</ele>
        <time>2022-01-02T08:52:42.000Z</time>
      </trkpt>
      <trkpt lat="45.61059" lon="6.27153">
        <ele>396.39999389648</ele>
        <time>2022-01-02T08:52:44.000Z</time>
      </trkpt>
      <trkpt lat="45.61057" lon="6.27148">
        <ele>396.60000610352</ele>
        <time>2022-01-02T08:52:45.000Z</time>
      </trkpt>
      <trkpt lat="45.61055" lon="6.27143">
        <ele>397</ele>
        <time>2022-01-02T08:52:46.000Z</time>
      </trkpt>
      <trkpt lat="45.61052" lon="6.27132">
        <ele>397.39999389648</ele>
        <time>2022-01-02T08:52:48.000Z</time>
      </trkpt>
      <trkpt lat="45.61042" lon="6.27102">
        <ele>398.39999389648</ele>
        <time>2022-01-02T08:52:54.000Z</time>
      </trkpt>
      <trkpt lat="45.61041" lon="6.27098">
        <ele>398.60000610352</ele>
        <time>2022-01-02T08:52:55.000Z</time>
      </trkpt>
      <trkpt lat="45.61035" lon="6.27085">
        <ele>399.20001220703</ele>
        <time>2022-01-02T08:52:58.000Z</time>
      </trkpt>
      <trkpt lat="45.61032" lon="6.27076">
        <ele>399.39999389648</ele>
        <time>2022-01-02T08:53:00.000Z</time>
      </trkpt>
      <trkpt lat="45.6103" lon="6.27071">
        <ele>399.79998779297</ele>
        <time>2022-01-02T08:53:01.000Z</time>
      </trkpt>
      <trkpt lat="45.6102" lon="6.27048">
        <ele>400.60000610352</ele>
        <time>2022-01-02T08:53:05.000Z</time>
      </trkpt>
      <trkpt lat="45.61018" lon="6.27042">
        <ele>400.79998779297</ele>
        <time>2022-01-02T08:53:06.000Z</time>
      </trkpt>
      <trkpt lat="45.60996" lon="6.26997">
        <ele>401</ele>
        <time>2022-01-02T08:53:15.000Z</time>
      </trkpt>
      <trkpt lat="45.60975" lon="6.2694">
        <ele>400.79998779297</ele>
        <time>2022-01-02T08:53:23.000Z</time>
      </trkpt>
      <trkpt lat="45.60967" lon="6.26915">
        <ele>400.79998779297</ele>
        <time>2022-01-02T08:53:27.000Z</time>
      </trkpt>
      <trkpt lat="45.60963" lon="6.26903">
        <ele>400.79998779297</ele>
        <time>2022-01-02T08:53:29.000Z</time>
      </trkpt>
      <trkpt lat="45.60955" lon="6.2688">
        <ele>401</ele>
        <time>2022-01-02T08:53:33.000Z</time>
      </trkpt>
      <trkpt lat="45.60948" lon="6.26863">
        <ele>401.20001220703</ele>
        <time>2022-01-02T08:53:36.000Z</time>
      </trkpt>
      <trkpt lat="45.60938" lon="6.26839">
        <ele>401.60000610352</ele>
        <time>2022-01-02T08:53:41.000Z</time>
      </trkpt>
      <trkpt lat="45.60926" lon="6.26814">
        <ele>402.20001220703</ele>
        <time>2022-01-02T08:53:46.000Z</time>
      </trkpt>
      <trkpt lat="45.60923" lon="6.2681">
        <ele>402.60000610352</ele>
        <time>2022-01-02T08:53:47.000Z</time>
      </trkpt>
      <trkpt lat="45.60908" lon="6.26782">
        <ele>403.60000610352</ele>
        <time>2022-01-02T08:53:53.000Z</time>
      </trkpt>
      <trkpt lat="45.60903" lon="6.26773">
        <ele>404</ele>
        <time>2022-01-02T08:53:55.000Z</time>
      </trkpt>
      <trkpt lat="45.60891" lon="6.26751">
        <ele>404.60000610352</ele>
        <time>2022-01-02T08:54:00.000Z</time>
      </trkpt>
      <trkpt lat="45.60874" lon="6.2672">
        <ele>405.60000610352</ele>
        <time>2022-01-02T08:54:07.000Z</time>
      </trkpt>
      <trkpt lat="45.60871" lon="6.26715">
        <ele>405.79998779297</ele>
        <time>2022-01-02T08:54:08.000Z</time>
      </trkpt>
      <trkpt lat="45.60857" lon="6.26686">
        <ele>406.60000610352</ele>
        <time>2022-01-02T08:54:14.000Z</time>
      </trkpt>
      <trkpt lat="45.60852" lon="6.26678">
        <ele>407</ele>
        <time>2022-01-02T08:54:16.000Z</time>
      </trkpt>
      <trkpt lat="45.60846" lon="6.26663">
        <ele>407.39999389648</ele>
        <time>2022-01-02T08:54:19.000Z</time>
      </trkpt>
      <trkpt lat="45.60838" lon="6.26643">
        <ele>408.20001220703</ele>
        <time>2022-01-02T08:54:23.000Z</time>
      </trkpt>
      <trkpt lat="45.60828" lon="6.26617">
        <ele>409.20001220703</ele>
        <time>2022-01-02T08:54:29.000Z</time>
      </trkpt>
      <trkpt lat="45.60811" lon="6.26576">
        <ele>410.20001220703</ele>
        <time>2022-01-02T08:54:36.000Z</time>
      </trkpt>
      <trkpt lat="45.60806" lon="6.26567">
        <ele>410.60000610352</ele>
        <time>2022-01-02T08:54:38.000Z</time>
      </trkpt>
      <trkpt lat="45.60804" lon="6.26562">
        <ele>410.79998779297</ele>
        <time>2022-01-02T08:54:39.000Z</time>
      </trkpt>
      <trkpt lat="45.60799" lon="6.26549">
        <ele>411.39999389648</ele>
        <time>2022-01-02T08:54:42.000Z</time>
      </trkpt>
      <trkpt lat="45.60796" lon="6.26539">
        <ele>411.79998779297</ele>
        <time>2022-01-02T08:54:44.000Z</time>
      </trkpt>
      <trkpt lat="45.6079" lon="6.26526">
        <ele>412.39999389648</ele>
        <time>2022-01-02T08:54:47.000Z</time>
      </trkpt>
      <trkpt lat="45.60783" lon="6.26514">
        <ele>413.39999389648</ele>
        <time>2022-01-02T08:54:50.000Z</time>
      </trkpt>
      <trkpt lat="45.60781" lon="6.2651">
        <ele>413.60000610352</ele>
        <time>2022-01-02T08:54:51.000Z</time>
      </trkpt>
      <trkpt lat="45.60773" lon="6.26499">
        <ele>414.39999389648</ele>
        <time>2022-01-02T08:54:54.000Z</time>
      </trkpt>
      <trkpt lat="45.60761" lon="6.26479">
        <ele>415.60000610352</ele>
        <time>2022-01-02T08:54:59.000Z</time>
      </trkpt>
      <trkpt lat="45.60757" lon="6.2647">
        <ele>416.20001220703</ele>
        <time>2022-01-02T08:55:02.000Z</time>
      </trkpt>
      <trkpt lat="45.60754" lon="6.26463">
        <ele>416.60000610352</ele>
        <time>2022-01-02T08:55:05.000Z</time>
      </trkpt>
      <trkpt lat="45.60754" lon="6.26463">
        <ele>416.79998779297</ele>
        <time>2022-01-02T08:55:07.000Z</time>
      </trkpt>
      <trkpt lat="45.60754" lon="6.26463">
        <ele>416.79998779297</ele>
        <time>2022-01-02T08:55:11.000Z</time>
      </trkpt>
      <trkpt lat="45.60754" lon="6.26463">
        <ele>416.20001220703</ele>
        <time>2022-01-02T08:55:26.000Z</time>
      </trkpt>
      <trkpt lat="45.60754" lon="6.26463">
        <ele>415.79998779297</ele>
        <time>2022-01-02T08:56:22.000Z</time>
      </trkpt>
      <trkpt lat="45.60754" lon="6.26463">
        <ele>415.79998779297</ele>
        <time>2022-01-02T08:56:23.000Z</time>
      </trkpt>
      <trkpt lat="45.6075" lon="6.26459">
        <ele>416</ele>
        <time>2022-01-02T08:56:25.000Z</time>
      </trkpt>
      <trkpt lat="45.60739" lon="6.26437">
        <ele>416</ele>
        <time>2022-01-02T08:56:30.000Z</time>
      </trkpt>
      <trkpt lat="45.60721" lon="6.26408">
        <ele>416.20001220703</ele>
        <time>2022-01-02T08:56:36.000Z</time>
      </trkpt>
      <trkpt lat="45.60691" lon="6.26352">
        <ele>415.39999389648</ele>
        <time>2022-01-02T08:56:43.000Z</time>
      </trkpt>
      <trkpt lat="45.60687" lon="6.26344">
        <ele>415.20001220703</ele>
        <time>2022-01-02T08:56:44.000Z</time>
      </trkpt>
      <trkpt lat="45.60674" lon="6.2631">
        <ele>414</ele>
        <time>2022-01-02T08:56:48.000Z</time>
      </trkpt>
      <trkpt lat="45.60666" lon="6.26293">
        <ele>413.20001220703</ele>
        <time>2022-01-02T08:56:51.000Z</time>
      </trkpt>
      <trkpt lat="45.60663" lon="6.26285">
        <ele>412.60000610352</ele>
        <time>2022-01-02T08:56:52.000Z</time>
      </trkpt>
      <trkpt lat="45.60642" lon="6.26236">
        <ele>411.39999389648</ele>
        <time>2022-01-02T08:56:56.000Z</time>
      </trkpt>
      <trkpt lat="45.60637" lon="6.26226">
        <ele>411.20001220703</ele>
        <time>2022-01-02T08:56:57.000Z</time>
      </trkpt>
      <trkpt lat="45.60624" lon="6.26194">
        <ele>410.39999389648</ele>
        <time>2022-01-02T08:57:00.000Z</time>
      </trkpt>
      <trkpt lat="45.60613" lon="6.26171">
        <ele>409</ele>
        <time>2022-01-02T08:57:02.000Z</time>
      </trkpt>
      <trkpt lat="45.60602" lon="6.26149">
        <ele>407.39999389648</ele>
        <time>2022-01-02T08:57:04.000Z</time>
      </trkpt>
      <trkpt lat="45.60591" lon="6.26128">
        <ele>406.20001220703</ele>
        <time>2022-01-02T08:57:06.000Z</time>
      </trkpt>
      <trkpt lat="45.60574" lon="6.26094">
        <ele>404.60000610352</ele>
        <time>2022-01-02T08:57:09.000Z</time>
      </trkpt>
      <trkpt lat="45.60559" lon="6.26072">
        <ele>403.39999389648</ele>
        <time>2022-01-02T08:57:11.000Z</time>
      </trkpt>
      <trkpt lat="45.60545" lon="6.26052">
        <ele>402</ele>
        <time>2022-01-02T08:57:13.000Z</time>
      </trkpt>
      <trkpt lat="45.60532" lon="6.2603">
        <ele>400.60000610352</ele>
        <time>2022-01-02T08:57:15.000Z</time>
      </trkpt>
      <trkpt lat="45.60526" lon="6.26019">
        <ele>399.39999389648</ele>
        <time>2022-01-02T08:57:16.000Z</time>
      </trkpt>
      <trkpt lat="45.60521" lon="6.26008">
        <ele>398.20001220703</ele>
        <time>2022-01-02T08:57:17.000Z</time>
      </trkpt>
      <trkpt lat="45.60511" lon="6.25986">
        <ele>396.79998779297</ele>
        <time>2022-01-02T08:57:19.000Z</time>
      </trkpt>
      <trkpt lat="45.60507" lon="6.25976">
        <ele>396.39999389648</ele>
        <time>2022-01-02T08:57:20.000Z</time>
      </trkpt>
      <trkpt lat="45.60504" lon="6.25965">
        <ele>395.39999389648</ele>
        <time>2022-01-02T08:57:21.000Z</time>
      </trkpt>
      <trkpt lat="45.60503" lon="6.25954">
        <ele>394.79998779297</ele>
        <time>2022-01-02T08:57:22.000Z</time>
      </trkpt>
      <trkpt lat="45.60504" lon="6.25944">
        <ele>393.79998779297</ele>
        <time>2022-01-02T08:57:23.000Z</time>
      </trkpt>
      <trkpt lat="45.60504" lon="6.25944">
        <ele>392.79998779297</ele>
        <time>2022-01-02T08:57:24.000Z</time>
      </trkpt>
      <trkpt lat="45.60507" lon="6.25926">
        <ele>392.20001220703</ele>
        <time>2022-01-02T08:57:25.000Z</time>
      </trkpt>
      <trkpt lat="45.60508" lon="6.25916">
        <ele>391.39999389648</ele>
        <time>2022-01-02T08:57:26.000Z</time>
      </trkpt>
      <trkpt lat="45.60507" lon="6.25906">
        <ele>391</ele>
        <time>2022-01-02T08:57:27.000Z</time>
      </trkpt>
      <trkpt lat="45.60503" lon="6.25896">
        <ele>390.20001220703</ele>
        <time>2022-01-02T08:57:28.000Z</time>
      </trkpt>
      <trkpt lat="45.60499" lon="6.25887">
        <ele>389.60000610352</ele>
        <time>2022-01-02T08:57:29.000Z</time>
      </trkpt>
      <trkpt lat="45.60494" lon="6.25877">
        <ele>389.39999389648</ele>
        <time>2022-01-02T08:57:30.000Z</time>
      </trkpt>
      <trkpt lat="45.6048" lon="6.25846">
        <ele>388</ele>
        <time>2022-01-02T08:57:33.000Z</time>
      </trkpt>
      <trkpt lat="45.60471" lon="6.25822">
        <ele>387</ele>
        <time>2022-01-02T08:57:35.000Z</time>
      </trkpt>
      <trkpt lat="45.60466" lon="6.2581">
        <ele>386.39999389648</ele>
        <time>2022-01-02T08:57:36.000Z</time>
      </trkpt>
      <trkpt lat="45.60452" lon="6.25787">
        <ele>385</ele>
        <time>2022-01-02T08:57:38.000Z</time>
      </trkpt>
      <trkpt lat="45.60446" lon="6.2578">
        <ele>384.20001220703</ele>
        <time>2022-01-02T08:57:39.000Z</time>
      </trkpt>
      <trkpt lat="45.60438" lon="6.25772">
        <ele>383.79998779297</ele>
        <time>2022-01-02T08:57:40.000Z</time>
      </trkpt>
      <trkpt lat="45.60419" lon="6.25762">
        <ele>382.39999389648</ele>
        <time>2022-01-02T08:57:42.000Z</time>
      </trkpt>
      <trkpt lat="45.60409" lon="6.25758">
        <ele>381.39999389648</ele>
        <time>2022-01-02T08:57:43.000Z</time>
      </trkpt>
      <trkpt lat="45.6039" lon="6.25749">
        <ele>379.79998779297</ele>
        <time>2022-01-02T08:57:45.000Z</time>
      </trkpt>
      <trkpt lat="45.6038" lon="6.25744">
        <ele>378.60000610352</ele>
        <time>2022-01-02T08:57:46.000Z</time>
      </trkpt>
      <trkpt lat="45.60371" lon="6.25738">
        <ele>378</ele>
        <time>2022-01-02T08:57:47.000Z</time>
      </trkpt>
      <trkpt lat="45.60363" lon="6.25732">
        <ele>376.79998779297</ele>
        <time>2022-01-02T08:57:48.000Z</time>
      </trkpt>
      <trkpt lat="45.60348" lon="6.2572">
        <ele>375.60000610352</ele>
        <time>2022-01-02T08:57:50.000Z</time>
      </trkpt>
      <trkpt lat="45.60341" lon="6.25714">
        <ele>374.39999389648</ele>
        <time>2022-01-02T08:57:51.000Z</time>
      </trkpt>
      <trkpt lat="45.6033" lon="6.25699">
        <ele>372.60000610352</ele>
        <time>2022-01-02T08:57:53.000Z</time>
      </trkpt>
      <trkpt lat="45.60327" lon="6.2569">
        <ele>371.79998779297</ele>
        <time>2022-01-02T08:57:54.000Z</time>
      </trkpt>
      <trkpt lat="45.60326" lon="6.25681">
        <ele>371</ele>
        <time>2022-01-02T08:57:55.000Z</time>
      </trkpt>
      <trkpt lat="45.60326" lon="6.25681">
        <ele>369.79998779297</ele>
        <time>2022-01-02T08:57:56.000Z</time>
      </trkpt>
      <trkpt lat="45.60327" lon="6.25661">
        <ele>369.39999389648</ele>
        <time>2022-01-02T08:57:57.000Z</time>
      </trkpt>
      <trkpt lat="45.60326" lon="6.2565">
        <ele>368.39999389648</ele>
        <time>2022-01-02T08:57:58.000Z</time>
      </trkpt>
      <trkpt lat="45.60324" lon="6.25639">
        <ele>367.39999389648</ele>
        <time>2022-01-02T08:57:59.000Z</time>
      </trkpt>
      <trkpt lat="45.60322" lon="6.25628">
        <ele>367</ele>
        <time>2022-01-02T08:58:00.000Z</time>
      </trkpt>
      <trkpt lat="45.60313" lon="6.25592">
        <ele>365.39999389648</ele>
        <time>2022-01-02T08:58:03.000Z</time>
      </trkpt>
      <trkpt lat="45.60308" lon="6.2558">
        <ele>364.79998779297</ele>
        <time>2022-01-02T08:58:04.000Z</time>
      </trkpt>
      <trkpt lat="45.603" lon="6.25557">
        <ele>363.60000610352</ele>
        <time>2022-01-02T08:58:06.000Z</time>
      </trkpt>
      <trkpt lat="45.60292" lon="6.25535">
        <ele>361.79998779297</ele>
        <time>2022-01-02T08:58:08.000Z</time>
      </trkpt>
      <trkpt lat="45.60288" lon="6.25525">
        <ele>360.79998779297</ele>
        <time>2022-01-02T08:58:09.000Z</time>
      </trkpt>
      <trkpt lat="45.60284" lon="6.25518">
        <ele>360.39999389648</ele>
        <time>2022-01-02T08:58:10.000Z</time>
      </trkpt>
      <trkpt lat="45.60279" lon="6.25511">
        <ele>359.60000610352</ele>
        <time>2022-01-02T08:58:11.000Z</time>
      </trkpt>
      <trkpt lat="45.60273" lon="6.25506">
        <ele>358.79998779297</ele>
        <time>2022-01-02T08:58:12.000Z</time>
      </trkpt>
      <trkpt lat="45.60267" lon="6.25501">
        <ele>357.79998779297</ele>
        <time>2022-01-02T08:58:13.000Z</time>
      </trkpt>
      <trkpt lat="45.60257" lon="6.25498">
        <ele>356.79998779297</ele>
        <time>2022-01-02T08:58:14.000Z</time>
      </trkpt>
      <trkpt lat="45.60251" lon="6.25496">
        <ele>356.39999389648</ele>
        <time>2022-01-02T08:58:15.000Z</time>
      </trkpt>
      <trkpt lat="45.60243" lon="6.25492">
        <ele>355.60000610352</ele>
        <time>2022-01-02T08:58:16.000Z</time>
      </trkpt>
      <trkpt lat="45.60229" lon="6.25485">
        <ele>354</ele>
        <time>2022-01-02T08:58:18.000Z</time>
      </trkpt>
      <trkpt lat="45.60216" lon="6.25472">
        <ele>352.60000610352</ele>
        <time>2022-01-02T08:58:20.000Z</time>
      </trkpt>
      <trkpt lat="45.60203" lon="6.25455">
        <ele>351.60000610352</ele>
        <time>2022-01-02T08:58:22.000Z</time>
      </trkpt>
      <trkpt lat="45.60191" lon="6.25438">
        <ele>349.79998779297</ele>
        <time>2022-01-02T08:58:24.000Z</time>
      </trkpt>
      <trkpt lat="45.60186" lon="6.25429">
        <ele>349.60000610352</ele>
        <time>2022-01-02T08:58:25.000Z</time>
      </trkpt>
      <trkpt lat="45.6018" lon="6.2542">
        <ele>348.79998779297</ele>
        <time>2022-01-02T08:58:26.000Z</time>
      </trkpt>
      <trkpt lat="45.60169" lon="6.25402">
        <ele>347.39999389648</ele>
        <time>2022-01-02T08:58:28.000Z</time>
      </trkpt>
      <trkpt lat="45.60164" lon="6.25396">
        <ele>346</ele>
        <time>2022-01-02T08:58:29.000Z</time>
      </trkpt>
      <trkpt lat="45.60151" lon="6.25389">
        <ele>344.39999389648</ele>
        <time>2022-01-02T08:58:31.000Z</time>
      </trkpt>
      <trkpt lat="45.60145" lon="6.25387">
        <ele>344.20001220703</ele>
        <time>2022-01-02T08:58:32.000Z</time>
      </trkpt>
      <trkpt lat="45.60139" lon="6.25384">
        <ele>343.20001220703</ele>
        <time>2022-01-02T08:58:33.000Z</time>
      </trkpt>
      <trkpt lat="45.60128" lon="6.25378">
        <ele>342.20001220703</ele>
        <time>2022-01-02T08:58:35.000Z</time>
      </trkpt>
      <trkpt lat="45.60124" lon="6.25373">
        <ele>341.79998779297</ele>
        <time>2022-01-02T08:58:36.000Z</time>
      </trkpt>
      <trkpt lat="45.6012" lon="6.25365">
        <ele>341.39999389648</ele>
        <time>2022-01-02T08:58:37.000Z</time>
      </trkpt>
      <trkpt lat="45.60116" lon="6.25356">
        <ele>340.79998779297</ele>
        <time>2022-01-02T08:58:38.000Z</time>
      </trkpt>
      <trkpt lat="45.60112" lon="6.2535">
        <ele>340.20001220703</ele>
        <time>2022-01-02T08:58:39.000Z</time>
      </trkpt>
      <trkpt lat="45.60108" lon="6.25342">
        <ele>339.79998779297</ele>
        <time>2022-01-02T08:58:40.000Z</time>
      </trkpt>
      <trkpt lat="45.60098" lon="6.25328">
        <ele>338.79998779297</ele>
        <time>2022-01-02T08:58:42.000Z</time>
      </trkpt>
      <trkpt lat="45.60095" lon="6.25324">
        <ele>338.39999389648</ele>
        <time>2022-01-02T08:58:43.000Z</time>
      </trkpt>
      <trkpt lat="45.60089" lon="6.25318">
        <ele>337.60000610352</ele>
        <time>2022-01-02T08:58:44.000Z</time>
      </trkpt>
      <trkpt lat="45.60083" lon="6.25309">
        <ele>337.20001220703</ele>
        <time>2022-01-02T08:58:45.000Z</time>
      </trkpt>
      <trkpt lat="45.6008" lon="6.25298">
        <ele>336.60000610352</ele>
        <time>2022-01-02T08:58:46.000Z</time>
      </trkpt>
      <trkpt lat="45.60077" lon="6.25288">
        <ele>336.39999389648</ele>
        <time>2022-01-02T08:58:47.000Z</time>
      </trkpt>
      <trkpt lat="45.60073" lon="6.25264">
        <ele>335.20001220703</ele>
        <time>2022-01-02T08:58:49.000Z</time>
      </trkpt>
      <trkpt lat="45.60067" lon="6.25233">
        <ele>334.20001220703</ele>
        <time>2022-01-02T08:58:52.000Z</time>
      </trkpt>
      <trkpt lat="45.60065" lon="6.25222">
        <ele>333.60000610352</ele>
        <time>2022-01-02T08:58:53.000Z</time>
      </trkpt>
      <trkpt lat="45.60055" lon="6.25166">
        <ele>331.79998779297</ele>
        <time>2022-01-02T08:58:58.000Z</time>
      </trkpt>
      <trkpt lat="45.60048" lon="6.2513">
        <ele>330.60000610352</ele>
        <time>2022-01-02T08:59:01.000Z</time>
      </trkpt>
      <trkpt lat="45.60038" lon="6.25082">
        <ele>329.39999389648</ele>
        <time>2022-01-02T08:59:05.000Z</time>
      </trkpt>
      <trkpt lat="45.6003" lon="6.25049">
        <ele>328.20001220703</ele>
        <time>2022-01-02T08:59:08.000Z</time>
      </trkpt>
      <trkpt lat="45.60026" lon="6.25038">
        <ele>328</ele>
        <time>2022-01-02T08:59:09.000Z</time>
      </trkpt>
      <trkpt lat="45.60022" lon="6.25028">
        <ele>327.79998779297</ele>
        <time>2022-01-02T08:59:10.000Z</time>
      </trkpt>
      <trkpt lat="45.60008" lon="6.24989">
        <ele>327</ele>
        <time>2022-01-02T08:59:14.000Z</time>
      </trkpt>
      <trkpt lat="45.60004" lon="6.2498">
        <ele>327</ele>
        <time>2022-01-02T08:59:15.000Z</time>
      </trkpt>
      <trkpt lat="45.59982" lon="6.24924">
        <ele>326.39999389648</ele>
        <time>2022-01-02T08:59:21.000Z</time>
      </trkpt>
      <trkpt lat="45.59971" lon="6.24897">
        <ele>326.20001220703</ele>
        <time>2022-01-02T08:59:24.000Z</time>
      </trkpt>
      <trkpt lat="45.59961" lon="6.24869">
        <ele>326.20001220703</ele>
        <time>2022-01-02T08:59:27.000Z</time>
      </trkpt>
      <trkpt lat="45.5995" lon="6.24842">
        <ele>325.79998779297</ele>
        <time>2022-01-02T08:59:30.000Z</time>
      </trkpt>
      <trkpt lat="45.59939" lon="6.24816">
        <ele>325.60000610352</ele>
        <time>2022-01-02T08:59:33.000Z</time>
      </trkpt>
      <trkpt lat="45.59932" lon="6.24798">
        <ele>325.60000610352</ele>
        <time>2022-01-02T08:59:35.000Z</time>
      </trkpt>
      <trkpt lat="45.599" lon="6.2473">
        <ele>325.20001220703</ele>
        <time>2022-01-02T08:59:43.000Z</time>
      </trkpt>
      <trkpt lat="45.59896" lon="6.24722">
        <ele>325.20001220703</ele>
        <time>2022-01-02T08:59:44.000Z</time>
      </trkpt>
      <trkpt lat="45.59867" lon="6.24674">
        <ele>324.79998779297</ele>
        <time>2022-01-02T08:59:50.000Z</time>
      </trkpt>
      <trkpt lat="45.59862" lon="6.24665">
        <ele>324.60000610352</ele>
        <time>2022-01-02T08:59:51.000Z</time>
      </trkpt>
      <trkpt lat="45.59843" lon="6.24617">
        <ele>323.39999389648</ele>
        <time>2022-01-02T08:59:56.000Z</time>
      </trkpt>
      <trkpt lat="45.59839" lon="6.24608">
        <ele>323.39999389648</ele>
        <time>2022-01-02T08:59:57.000Z</time>
      </trkpt>
      <trkpt lat="45.59825" lon="6.24566">
        <ele>322.20001220703</ele>
        <time>2022-01-02T09:00:01.000Z</time>
      </trkpt>
      <trkpt lat="45.59812" lon="6.24533">
        <ele>321.20001220703</ele>
        <time>2022-01-02T09:00:04.000Z</time>
      </trkpt>
      <trkpt lat="45.59807" lon="6.24522">
        <ele>320.79998779297</ele>
        <time>2022-01-02T09:00:05.000Z</time>
      </trkpt>
      <trkpt lat="45.59792" lon="6.24494">
        <ele>319.60000610352</ele>
        <time>2022-01-02T09:00:08.000Z</time>
      </trkpt>
      <trkpt lat="45.59786" lon="6.24485">
        <ele>319.20001220703</ele>
        <time>2022-01-02T09:00:09.000Z</time>
      </trkpt>
      <trkpt lat="45.59774" lon="6.24467">
        <ele>318.20001220703</ele>
        <time>2022-01-02T09:00:11.000Z</time>
      </trkpt>
      <trkpt lat="45.59755" lon="6.2444">
        <ele>317.20001220703</ele>
        <time>2022-01-02T09:00:14.000Z</time>
      </trkpt>
      <trkpt lat="45.59742" lon="6.24423">
        <ele>316</ele>
        <time>2022-01-02T09:00:16.000Z</time>
      </trkpt>
      <trkpt lat="45.59737" lon="6.24416">
        <ele>315.79998779297</ele>
        <time>2022-01-02T09:00:17.000Z</time>
      </trkpt>
      <trkpt lat="45.59719" lon="6.2439">
        <ele>314.79998779297</ele>
        <time>2022-01-02T09:00:20.000Z</time>
      </trkpt>
      <trkpt lat="45.59709" lon="6.24373">
        <ele>314</ele>
        <time>2022-01-02T09:00:22.000Z</time>
      </trkpt>
      <trkpt lat="45.59696" lon="6.24347">
        <ele>313.60000610352</ele>
        <time>2022-01-02T09:00:25.000Z</time>
      </trkpt>
      <trkpt lat="45.59692" lon="6.24337">
        <ele>313.39999389648</ele>
        <time>2022-01-02T09:00:26.000Z</time>
      </trkpt>
      <trkpt lat="45.59688" lon="6.24327">
        <ele>313.20001220703</ele>
        <time>2022-01-02T09:00:27.000Z</time>
      </trkpt>
      <trkpt lat="45.59671" lon="6.24279">
        <ele>312.39999389648</ele>
        <time>2022-01-02T09:00:31.000Z</time>
      </trkpt>
      <trkpt lat="45.59658" lon="6.24228">
        <ele>310.79998779297</ele>
        <time>2022-01-02T09:00:35.000Z</time>
      </trkpt>
      <trkpt lat="45.59647" lon="6.2419">
        <ele>309.39999389648</ele>
        <time>2022-01-02T09:00:38.000Z</time>
      </trkpt>
      <trkpt lat="45.5964" lon="6.24164">
        <ele>308.60000610352</ele>
        <time>2022-01-02T09:00:40.000Z</time>
      </trkpt>
      <trkpt lat="45.59636" lon="6.24151">
        <ele>307.79998779297</ele>
        <time>2022-01-02T09:00:41.000Z</time>
      </trkpt>
      <trkpt lat="45.59628" lon="6.24125">
        <ele>306.79998779297</ele>
        <time>2022-01-02T09:00:43.000Z</time>
      </trkpt>
      <trkpt lat="45.59617" lon="6.24086">
        <ele>305.20001220703</ele>
        <time>2022-01-02T09:00:46.000Z</time>
      </trkpt>
      <trkpt lat="45.59613" lon="6.24073">
        <ele>305</ele>
        <time>2022-01-02T09:00:47.000Z</time>
      </trkpt>
      <trkpt lat="45.5961" lon="6.2406">
        <ele>304.20001220703</ele>
        <time>2022-01-02T09:00:48.000Z</time>
      </trkpt>
      <trkpt lat="45.59598" lon="6.24024">
        <ele>302.60000610352</ele>
        <time>2022-01-02T09:00:51.000Z</time>
      </trkpt>
      <trkpt lat="45.59594" lon="6.24012">
        <ele>302</ele>
        <time>2022-01-02T09:00:52.000Z</time>
      </trkpt>
      <trkpt lat="45.59589" lon="6.24002">
        <ele>301.60000610352</ele>
        <time>2022-01-02T09:00:53.000Z</time>
      </trkpt>
      <trkpt lat="45.59579" lon="6.23972">
        <ele>300.20001220703</ele>
        <time>2022-01-02T09:00:56.000Z</time>
      </trkpt>
      <trkpt lat="45.59575" lon="6.23962">
        <ele>300</ele>
        <time>2022-01-02T09:00:57.000Z</time>
      </trkpt>
      <trkpt lat="45.5956" lon="6.23935">
        <ele>298.79998779297</ele>
        <time>2022-01-02T09:01:00.000Z</time>
      </trkpt>
      <trkpt lat="45.59549" lon="6.23918">
        <ele>298.39999389648</ele>
        <time>2022-01-02T09:01:02.000Z</time>
      </trkpt>
      <trkpt lat="45.59544" lon="6.23909">
        <ele>298</ele>
        <time>2022-01-02T09:01:03.000Z</time>
      </trkpt>
      <trkpt lat="45.59539" lon="6.23899">
        <ele>297.60000610352</ele>
        <time>2022-01-02T09:01:04.000Z</time>
      </trkpt>
      <trkpt lat="45.59531" lon="6.23878">
        <ele>296.79998779297</ele>
        <time>2022-01-02T09:01:06.000Z</time>
      </trkpt>
      <trkpt lat="45.5952" lon="6.23849">
        <ele>296.39999389648</ele>
        <time>2022-01-02T09:01:09.000Z</time>
      </trkpt>
      <trkpt lat="45.59511" lon="6.23829">
        <ele>295.79998779297</ele>
        <time>2022-01-02T09:01:11.000Z</time>
      </trkpt>
      <trkpt lat="45.59499" lon="6.238">
        <ele>295.20001220703</ele>
        <time>2022-01-02T09:01:14.000Z</time>
      </trkpt>
      <trkpt lat="45.59478" lon="6.23755">
        <ele>294.60000610352</ele>
        <time>2022-01-02T09:01:19.000Z</time>
      </trkpt>
      <trkpt lat="45.59447" lon="6.23684">
        <ele>294.39999389648</ele>
        <time>2022-01-02T09:01:28.000Z</time>
      </trkpt>
      <trkpt lat="45.59429" lon="6.2364">
        <ele>295.20001220703</ele>
        <time>2022-01-02T09:01:34.000Z</time>
      </trkpt>
      <trkpt lat="45.59411" lon="6.23596">
        <ele>296.20001220703</ele>
        <time>2022-01-02T09:01:40.000Z</time>
      </trkpt>
      <trkpt lat="45.5938" lon="6.23528">
        <ele>297</ele>
        <time>2022-01-02T09:01:50.000Z</time>
      </trkpt>
      <trkpt lat="45.59374" lon="6.23516">
        <ele>297.20001220703</ele>
        <time>2022-01-02T09:01:52.000Z</time>
      </trkpt>
      <trkpt lat="45.59371" lon="6.23509">
        <ele>297.39999389648</ele>
        <time>2022-01-02T09:01:53.000Z</time>
      </trkpt>
      <trkpt lat="45.59349" lon="6.23465">
        <ele>298.39999389648</ele>
        <time>2022-01-02T09:02:00.000Z</time>
      </trkpt>
      <trkpt lat="45.59343" lon="6.23453">
        <ele>298.60000610352</ele>
        <time>2022-01-02T09:02:02.000Z</time>
      </trkpt>
      <trkpt lat="45.59317" lon="6.23391">
        <ele>299.39999389648</ele>
        <time>2022-01-02T09:02:11.000Z</time>
      </trkpt>
      <trkpt lat="45.59314" lon="6.23385">
        <ele>299.39999389648</ele>
        <time>2022-01-02T09:02:12.000Z</time>
      </trkpt>
      <trkpt lat="45.593" lon="6.2335">
        <ele>300.60000610352</ele>
        <time>2022-01-02T09:02:18.000Z</time>
      </trkpt>
      <trkpt lat="45.59285" lon="6.23312">
        <ele>301.60000610352</ele>
        <time>2022-01-02T09:02:24.000Z</time>
      </trkpt>
      <trkpt lat="45.59279" lon="6.23296">
        <ele>302</ele>
        <time>2022-01-02T09:02:26.000Z</time>
      </trkpt>
      <trkpt lat="45.59259" lon="6.23249">
        <ele>301.79998779297</ele>
        <time>2022-01-02T09:02:32.000Z</time>
      </trkpt>
      <trkpt lat="45.59228" lon="6.23178">
        <ele>300.60000610352</ele>
        <time>2022-01-02T09:02:41.000Z</time>
      </trkpt>
      <trkpt lat="45.59225" lon="6.23171">
        <ele>300.39999389648</ele>
        <time>2022-01-02T09:02:42.000Z</time>
      </trkpt>
      <trkpt lat="45.59195" lon="6.231">
        <ele>300.39999389648</ele>
        <time>2022-01-02T09:02:52.000Z</time>
      </trkpt>
      <trkpt lat="45.59176" lon="6.23053">
        <ele>300.39999389648</ele>
        <time>2022-01-02T09:02:58.000Z</time>
      </trkpt>
      <trkpt lat="45.59154" lon="6.22997">
        <ele>299.20001220703</ele>
        <time>2022-01-02T09:03:04.000Z</time>
      </trkpt>
      <trkpt lat="45.5915" lon="6.22987">
        <ele>299</ele>
        <time>2022-01-02T09:03:05.000Z</time>
      </trkpt>
      <trkpt lat="45.59143" lon="6.22969">
        <ele>298</ele>
        <time>2022-01-02T09:03:08.000Z</time>
      </trkpt>
      <trkpt lat="45.59123" lon="6.22923">
        <ele>297</ele>
        <time>2022-01-02T09:03:12.000Z</time>
      </trkpt>
      <trkpt lat="45.59118" lon="6.22914">
        <ele>296.60000610352</ele>
        <time>2022-01-02T09:03:13.000Z</time>
      </trkpt>
      <trkpt lat="45.59104" lon="6.22886">
        <ele>295.79998779297</ele>
        <time>2022-01-02T09:03:16.000Z</time>
      </trkpt>
      <trkpt lat="45.59089" lon="6.22856">
        <ele>294.60000610352</ele>
        <time>2022-01-02T09:03:19.000Z</time>
      </trkpt>
      <trkpt lat="45.59075" lon="6.22825">
        <ele>293.79998779297</ele>
        <time>2022-01-02T09:03:22.000Z</time>
      </trkpt>
      <trkpt lat="45.5907" lon="6.22814">
        <ele>293.20001220703</ele>
        <time>2022-01-02T09:03:23.000Z</time>
      </trkpt>
      <trkpt lat="45.59052" lon="6.22772">
        <ele>292.20001220703</ele>
        <time>2022-01-02T09:03:27.000Z</time>
      </trkpt>
      <trkpt lat="45.59044" lon="6.22752">
        <ele>290.60000610352</ele>
        <time>2022-01-02T09:03:29.000Z</time>
      </trkpt>
      <trkpt lat="45.59032" lon="6.22722">
        <ele>289.79998779297</ele>
        <time>2022-01-02T09:03:32.000Z</time>
      </trkpt>
      <trkpt lat="45.59027" lon="6.22712">
        <ele>289.60000610352</ele>
        <time>2022-01-02T09:03:33.000Z</time>
      </trkpt>
      <trkpt lat="45.59005" lon="6.22662">
        <ele>288.20001220703</ele>
        <time>2022-01-02T09:03:38.000Z</time>
      </trkpt>
      <trkpt lat="45.58989" lon="6.22634">
        <ele>287.20001220703</ele>
        <time>2022-01-02T09:03:41.000Z</time>
      </trkpt>
      <trkpt lat="45.58984" lon="6.22625">
        <ele>287.20001220703</ele>
        <time>2022-01-02T09:03:42.000Z</time>
      </trkpt>
      <trkpt lat="45.58974" lon="6.22606">
        <ele>286</ele>
        <time>2022-01-02T09:03:44.000Z</time>
      </trkpt>
      <trkpt lat="45.58962" lon="6.22576">
        <ele>285.20001220703</ele>
        <time>2022-01-02T09:03:47.000Z</time>
      </trkpt>
      <trkpt lat="45.58955" lon="6.22556">
        <ele>284.79998779297</ele>
        <time>2022-01-02T09:03:49.000Z</time>
      </trkpt>
      <trkpt lat="45.58945" lon="6.22515">
        <ele>284.39999389648</ele>
        <time>2022-01-02T09:03:53.000Z</time>
      </trkpt>
      <trkpt lat="45.58942" lon="6.22505">
        <ele>284.20001220703</ele>
        <time>2022-01-02T09:03:54.000Z</time>
      </trkpt>
      <trkpt lat="45.58932" lon="6.22459">
        <ele>283.60000610352</ele>
        <time>2022-01-02T09:03:58.000Z</time>
      </trkpt>
      <trkpt lat="45.58929" lon="6.22436">
        <ele>283.39999389648</ele>
        <time>2022-01-02T09:04:00.000Z</time>
      </trkpt>
      <trkpt lat="45.58924" lon="6.22403">
        <ele>282</ele>
        <time>2022-01-02T09:04:03.000Z</time>
      </trkpt>
      <trkpt lat="45.58917" lon="6.22371">
        <ele>281.39999389648</ele>
        <time>2022-01-02T09:04:06.000Z</time>
      </trkpt>
      <trkpt lat="45.58909" lon="6.22339">
        <ele>280.79998779297</ele>
        <time>2022-01-02T09:04:09.000Z</time>
      </trkpt>
      <trkpt lat="45.58893" lon="6.22274">
        <ele>279.79998779297</ele>
        <time>2022-01-02T09:04:15.000Z</time>
      </trkpt>
      <trkpt lat="45.58889" lon="6.22264">
        <ele>279.39999389648</ele>
        <time>2022-01-02T09:04:16.000Z</time>
      </trkpt>
      <trkpt lat="45.5888" lon="6.22246">
        <ele>278.60000610352</ele>
        <time>2022-01-02T09:04:18.000Z</time>
      </trkpt>
      <trkpt lat="45.58871" lon="6.22229">
        <ele>278.39999389648</ele>
        <time>2022-01-02T09:04:20.000Z</time>
      </trkpt>
      <trkpt lat="45.58833" lon="6.22166">
        <ele>277.79998779297</ele>
        <time>2022-01-02T09:04:28.000Z</time>
      </trkpt>
      <trkpt lat="45.58805" lon="6.22118">
        <ele>277.79998779297</ele>
        <time>2022-01-02T09:04:35.000Z</time>
      </trkpt>
      <trkpt lat="45.58783" lon="6.2208">
        <ele>278.60000610352</ele>
        <time>2022-01-02T09:04:42.000Z</time>
      </trkpt>
      <trkpt lat="45.5877" lon="6.2206">
        <ele>279.60000610352</ele>
        <time>2022-01-02T09:04:47.000Z</time>
      </trkpt>
      <trkpt lat="45.58765" lon="6.22052">
        <ele>280</ele>
        <time>2022-01-02T09:04:49.000Z</time>
      </trkpt>
      <trkpt lat="45.58759" lon="6.2204">
        <ele>280.60000610352</ele>
        <time>2022-01-02T09:04:52.000Z</time>
      </trkpt>
      <trkpt lat="45.58755" lon="6.22032">
        <ele>281</ele>
        <time>2022-01-02T09:04:54.000Z</time>
      </trkpt>
      <trkpt lat="45.58748" lon="6.22019">
        <ele>281.60000610352</ele>
        <time>2022-01-02T09:04:57.000Z</time>
      </trkpt>
      <trkpt lat="45.58746" lon="6.22015">
        <ele>282</ele>
        <time>2022-01-02T09:04:58.000Z</time>
      </trkpt>
      <trkpt lat="45.5874" lon="6.22002">
        <ele>282.79998779297</ele>
        <time>2022-01-02T09:05:01.000Z</time>
      </trkpt>
      <trkpt lat="45.58737" lon="6.21998">
        <ele>283</ele>
        <time>2022-01-02T09:05:02.000Z</time>
      </trkpt>
      <trkpt lat="45.58723" lon="6.21975">
        <ele>284.20001220703</ele>
        <time>2022-01-02T09:05:07.000Z</time>
      </trkpt>
      <trkpt lat="45.58712" lon="6.21956">
        <ele>285</ele>
        <time>2022-01-02T09:05:11.000Z</time>
      </trkpt>
      <trkpt lat="45.5871" lon="6.21952">
        <ele>285.20001220703</ele>
        <time>2022-01-02T09:05:12.000Z</time>
      </trkpt>
      <trkpt lat="45.587" lon="6.21933">
        <ele>286.39999389648</ele>
        <time>2022-01-02T09:05:16.000Z</time>
      </trkpt>
      <trkpt lat="45.58696" lon="6.21924">
        <ele>286.79998779297</ele>
        <time>2022-01-02T09:05:18.000Z</time>
      </trkpt>
      <trkpt lat="45.58688" lon="6.21909">
        <ele>287.60000610352</ele>
        <time>2022-01-02T09:05:21.000Z</time>
      </trkpt>
      <trkpt lat="45.58681" lon="6.21895">
        <ele>288.39999389648</ele>
        <time>2022-01-02T09:05:24.000Z</time>
      </trkpt>
      <trkpt lat="45.58678" lon="6.21889">
        <ele>288.39999389648</ele>
        <time>2022-01-02T09:05:25.000Z</time>
      </trkpt>
      <trkpt lat="45.58676" lon="6.21884">
        <ele>288.79998779297</ele>
        <time>2022-01-02T09:05:26.000Z</time>
      </trkpt>
      <trkpt lat="45.58667" lon="6.21864">
        <ele>289.60000610352</ele>
        <time>2022-01-02T09:05:30.000Z</time>
      </trkpt>
      <trkpt lat="45.58664" lon="6.21859">
        <ele>289.79998779297</ele>
        <time>2022-01-02T09:05:31.000Z</time>
      </trkpt>
      <trkpt lat="45.58654" lon="6.21847">
        <ele>290.60000610352</ele>
        <time>2022-01-02T09:05:34.000Z</time>
      </trkpt>
      <trkpt lat="45.58651" lon="6.21843">
        <ele>290.79998779297</ele>
        <time>2022-01-02T09:05:35.000Z</time>
      </trkpt>
      <trkpt lat="45.58647" lon="6.21839">
        <ele>291.20001220703</ele>
        <time>2022-01-02T09:05:36.000Z</time>
      </trkpt>
      <trkpt lat="45.5864" lon="6.21831">
        <ele>291.60000610352</ele>
        <time>2022-01-02T09:05:38.000Z</time>
      </trkpt>
      <trkpt lat="45.58629" lon="6.21816">
        <ele>291.79998779297</ele>
        <time>2022-01-02T09:05:41.000Z</time>
      </trkpt>
      <trkpt lat="45.58606" lon="6.21781">
        <ele>292</ele>
        <time>2022-01-02T09:05:47.000Z</time>
      </trkpt>
      <trkpt lat="45.58579" lon="6.21733">
        <ele>291.39999389648</ele>
        <time>2022-01-02T09:05:54.000Z</time>
      </trkpt>
      <trkpt lat="45.58555" lon="6.21685">
        <ele>290</ele>
        <time>2022-01-02T09:06:00.000Z</time>
      </trkpt>
      <trkpt lat="45.58547" lon="6.21668">
        <ele>289.60000610352</ele>
        <time>2022-01-02T09:06:02.000Z</time>
      </trkpt>
      <trkpt lat="45.58539" lon="6.2165">
        <ele>289</ele>
        <time>2022-01-02T09:06:04.000Z</time>
      </trkpt>
      <trkpt lat="45.58519" lon="6.21599">
        <ele>287.60000610352</ele>
        <time>2022-01-02T09:06:10.000Z</time>
      </trkpt>
      <trkpt lat="45.58513" lon="6.21583">
        <ele>287.39999389648</ele>
        <time>2022-01-02T09:06:12.000Z</time>
      </trkpt>
      <trkpt lat="45.5849" lon="6.21515">
        <ele>286.60000610352</ele>
        <time>2022-01-02T09:06:20.000Z</time>
      </trkpt>
      <trkpt lat="45.58484" lon="6.21498">
        <ele>286.39999389648</ele>
        <time>2022-01-02T09:06:22.000Z</time>
      </trkpt>
      <trkpt lat="45.58464" lon="6.21438">
        <ele>285.60000610352</ele>
        <time>2022-01-02T09:06:29.000Z</time>
      </trkpt>
      <trkpt lat="45.58439" lon="6.21374">
        <ele>285</ele>
        <time>2022-01-02T09:06:37.000Z</time>
      </trkpt>
      <trkpt lat="45.58431" lon="6.21359">
        <ele>284.60000610352</ele>
        <time>2022-01-02T09:06:39.000Z</time>
      </trkpt>
      <trkpt lat="45.58412" lon="6.2132">
        <ele>284.60000610352</ele>
        <time>2022-01-02T09:06:44.000Z</time>
      </trkpt>
      <trkpt lat="45.58409" lon="6.21311">
        <ele>284.39999389648</ele>
        <time>2022-01-02T09:06:45.000Z</time>
      </trkpt>
      <trkpt lat="45.58406" lon="6.21302">
        <ele>284.39999389648</ele>
        <time>2022-01-02T09:06:46.000Z</time>
      </trkpt>
      <trkpt lat="45.58401" lon="6.21275">
        <ele>283.79998779297</ele>
        <time>2022-01-02T09:06:49.000Z</time>
      </trkpt>
      <trkpt lat="45.58397" lon="6.21247">
        <ele>283.20001220703</ele>
        <time>2022-01-02T09:06:52.000Z</time>
      </trkpt>
      <trkpt lat="45.58393" lon="6.2122">
        <ele>282.39999389648</ele>
        <time>2022-01-02T09:06:55.000Z</time>
      </trkpt>
      <trkpt lat="45.58389" lon="6.21201">
        <ele>282.20001220703</ele>
        <time>2022-01-02T09:06:57.000Z</time>
      </trkpt>
      <trkpt lat="45.58388" lon="6.21192">
        <ele>282</ele>
        <time>2022-01-02T09:06:58.000Z</time>
      </trkpt>
      <trkpt lat="45.58385" lon="6.21172">
        <ele>281.79998779297</ele>
        <time>2022-01-02T09:07:00.000Z</time>
      </trkpt>
      <trkpt lat="45.58378" lon="6.21142">
        <ele>281</ele>
        <time>2022-01-02T09:07:03.000Z</time>
      </trkpt>
      <trkpt lat="45.5837" lon="6.211">
        <ele>279.39999389648</ele>
        <time>2022-01-02T09:07:07.000Z</time>
      </trkpt>
      <trkpt lat="45.58364" lon="6.21055">
        <ele>278.39999389648</ele>
        <time>2022-01-02T09:07:11.000Z</time>
      </trkpt>
      <trkpt lat="45.58364" lon="6.21046">
        <ele>278</ele>
        <time>2022-01-02T09:07:12.000Z</time>
      </trkpt>
      <trkpt lat="45.58364" lon="6.21032">
        <ele>277.39999389648</ele>
        <time>2022-01-02T09:07:13.000Z</time>
      </trkpt>
      <trkpt lat="45.58368" lon="6.21012">
        <ele>277</ele>
        <time>2022-01-02T09:07:15.000Z</time>
      </trkpt>
      <trkpt lat="45.58371" lon="6.21003">
        <ele>276.60000610352</ele>
        <time>2022-01-02T09:07:16.000Z</time>
      </trkpt>
      <trkpt lat="45.58376" lon="6.20986">
        <ele>275.79998779297</ele>
        <time>2022-01-02T09:07:18.000Z</time>
      </trkpt>
      <trkpt lat="45.58387" lon="6.20951">
        <ele>275.60000610352</ele>
        <time>2022-01-02T09:07:22.000Z</time>
      </trkpt>
      <trkpt lat="45.58389" lon="6.20942">
        <ele>275.60000610352</ele>
        <time>2022-01-02T09:07:23.000Z</time>
      </trkpt>
      <trkpt lat="45.58389" lon="6.20932">
        <ele>275.39999389648</ele>
        <time>2022-01-02T09:07:24.000Z</time>
      </trkpt>
      <trkpt lat="45.58388" lon="6.20901">
        <ele>275.39999389648</ele>
        <time>2022-01-02T09:07:27.000Z</time>
      </trkpt>
      <trkpt lat="45.58391" lon="6.20849">
        <ele>274.79998779297</ele>
        <time>2022-01-02T09:07:32.000Z</time>
      </trkpt>
      <trkpt lat="45.58392" lon="6.20839">
        <ele>274.39999389648</ele>
        <time>2022-01-02T09:07:33.000Z</time>
      </trkpt>
      <trkpt lat="45.58396" lon="6.20808">
        <ele>273.79998779297</ele>
        <time>2022-01-02T09:07:36.000Z</time>
      </trkpt>
      <trkpt lat="45.58398" lon="6.20798">
        <ele>273.60000610352</ele>
        <time>2022-01-02T09:07:37.000Z</time>
      </trkpt>
      <trkpt lat="45.58401" lon="6.20788">
        <ele>273.39999389648</ele>
        <time>2022-01-02T09:07:38.000Z</time>
      </trkpt>
      <trkpt lat="45.58403" lon="6.20781">
        <ele>273.39999389648</ele>
        <time>2022-01-02T09:07:39.000Z</time>
      </trkpt>
      <trkpt lat="45.58416" lon="6.20741">
        <ele>273.20001220703</ele>
        <time>2022-01-02T09:07:44.000Z</time>
      </trkpt>
      <trkpt lat="45.58421" lon="6.20708">
        <ele>273.39999389648</ele>
        <time>2022-01-02T09:07:48.000Z</time>
      </trkpt>
      <trkpt lat="45.58422" lon="6.20701">
        <ele>273.60000610352</ele>
        <time>2022-01-02T09:07:49.000Z</time>
      </trkpt>
      <trkpt lat="45.58422" lon="6.20676">
        <ele>274.60000610352</ele>
        <time>2022-01-02T09:07:53.000Z</time>
      </trkpt>
      <trkpt lat="45.58423" lon="6.20656">
        <ele>275.39999389648</ele>
        <time>2022-01-02T09:07:56.000Z</time>
      </trkpt>
      <trkpt lat="45.58423" lon="6.20645">
        <ele>275.79998779297</ele>
        <time>2022-01-02T09:07:58.000Z</time>
      </trkpt>
      <trkpt lat="45.58425" lon="6.20625">
        <ele>276.79998779297</ele>
        <time>2022-01-02T09:08:02.000Z</time>
      </trkpt>
      <trkpt lat="45.58427" lon="6.20621">
        <ele>277</ele>
        <time>2022-01-02T09:08:03.000Z</time>
      </trkpt>
      <trkpt lat="45.58431" lon="6.20598">
        <ele>278</ele>
        <time>2022-01-02T09:08:08.000Z</time>
      </trkpt>
      <trkpt lat="45.58432" lon="6.20594">
        <ele>278</ele>
        <time>2022-01-02T09:08:09.000Z</time>
      </trkpt>
      <trkpt lat="45.58434" lon="6.2058">
        <ele>279</ele>
        <time>2022-01-02T09:08:12.000Z</time>
      </trkpt>
      <trkpt lat="45.58434" lon="6.20568">
        <ele>279.79998779297</ele>
        <time>2022-01-02T09:08:15.000Z</time>
      </trkpt>
      <trkpt lat="45.58435" lon="6.20562">
        <ele>280.20001220703</ele>
        <time>2022-01-02T09:08:16.000Z</time>
      </trkpt>
      <trkpt lat="45.58434" lon="6.20546">
        <ele>281.39999389648</ele>
        <time>2022-01-02T09:08:20.000Z</time>
      </trkpt>
      <trkpt lat="45.58433" lon="6.20541">
        <ele>281.79998779297</ele>
        <time>2022-01-02T09:08:21.000Z</time>
      </trkpt>
      <trkpt lat="45.58429" lon="6.2053">
        <ele>282.60000610352</ele>
        <time>2022-01-02T09:08:24.000Z</time>
      </trkpt>
      <trkpt lat="45.58421" lon="6.20512">
        <ele>283.79998779297</ele>
        <time>2022-01-02T09:08:29.000Z</time>
      </trkpt>
      <trkpt lat="45.58413" lon="6.20503">
        <ele>285</ele>
        <time>2022-01-02T09:08:32.000Z</time>
      </trkpt>
      <trkpt lat="45.58406" lon="6.20495">
        <ele>285.79998779297</ele>
        <time>2022-01-02T09:08:35.000Z</time>
      </trkpt>
      <trkpt lat="45.58403" lon="6.20491">
        <ele>286.20001220703</ele>
        <time>2022-01-02T09:08:36.000Z</time>
      </trkpt>
      <trkpt lat="45.58389" lon="6.20476">
        <ele>287.39999389648</ele>
        <time>2022-01-02T09:08:41.000Z</time>
      </trkpt>
      <trkpt lat="45.58384" lon="6.2047">
        <ele>287.39999389648</ele>
        <time>2022-01-02T09:08:43.000Z</time>
      </trkpt>
      <trkpt lat="45.58377" lon="6.20461">
        <ele>288.20001220703</ele>
        <time>2022-01-02T09:08:46.000Z</time>
      </trkpt>
      <trkpt lat="45.58365" lon="6.20446">
        <ele>289.39999389648</ele>
        <time>2022-01-02T09:08:51.000Z</time>
      </trkpt>
      <trkpt lat="45.58351" lon="6.20433">
        <ele>290.60000610352</ele>
        <time>2022-01-02T09:08:56.000Z</time>
      </trkpt>
      <trkpt lat="45.58348" lon="6.2043">
        <ele>290.60000610352</ele>
        <time>2022-01-02T09:08:57.000Z</time>
      </trkpt>
      <trkpt lat="45.58333" lon="6.20418">
        <ele>291.60000610352</ele>
        <time>2022-01-02T09:09:02.000Z</time>
      </trkpt>
      <trkpt lat="45.58322" lon="6.20407">
        <ele>292.39999389648</ele>
        <time>2022-01-02T09:09:06.000Z</time>
      </trkpt>
      <trkpt lat="45.58316" lon="6.20401">
        <ele>292.60000610352</ele>
        <time>2022-01-02T09:09:08.000Z</time>
      </trkpt>
      <trkpt lat="45.58303" lon="6.20385">
        <ele>293.60000610352</ele>
        <time>2022-01-02T09:09:13.000Z</time>
      </trkpt>
      <trkpt lat="45.58298" lon="6.20379">
        <ele>294</ele>
        <time>2022-01-02T09:09:15.000Z</time>
      </trkpt>
      <trkpt lat="45.5829" lon="6.20369">
        <ele>294.79998779297</ele>
        <time>2022-01-02T09:09:18.000Z</time>
      </trkpt>
      <trkpt lat="45.5828" lon="6.20351">
        <ele>295.79998779297</ele>
        <time>2022-01-02T09:09:23.000Z</time>
      </trkpt>
      <trkpt lat="45.58274" lon="6.2034">
        <ele>296.39999389648</ele>
        <time>2022-01-02T09:09:26.000Z</time>
      </trkpt>
      <trkpt lat="45.58268" lon="6.20329">
        <ele>297.39999389648</ele>
        <time>2022-01-02T09:09:29.000Z</time>
      </trkpt>
      <trkpt lat="45.58262" lon="6.20318">
        <ele>298.60000610352</ele>
        <time>2022-01-02T09:09:32.000Z</time>
      </trkpt>
      <trkpt lat="45.5826" lon="6.20314">
        <ele>298.60000610352</ele>
        <time>2022-01-02T09:09:33.000Z</time>
      </trkpt>
      <trkpt lat="45.58255" lon="6.20304">
        <ele>299.60000610352</ele>
        <time>2022-01-02T09:09:36.000Z</time>
      </trkpt>
      <trkpt lat="45.58248" lon="6.20292">
        <ele>300.79998779297</ele>
        <time>2022-01-02T09:09:39.000Z</time>
      </trkpt>
      <trkpt lat="45.58244" lon="6.20284">
        <ele>301.20001220703</ele>
        <time>2022-01-02T09:09:41.000Z</time>
      </trkpt>
      <trkpt lat="45.58236" lon="6.20271">
        <ele>302</ele>
        <time>2022-01-02T09:09:44.000Z</time>
      </trkpt>
      <trkpt lat="45.58222" lon="6.20251">
        <ele>302.39999389648</ele>
        <time>2022-01-02T09:09:49.000Z</time>
      </trkpt>
      <trkpt lat="45.58198" lon="6.20219">
        <ele>303</ele>
        <time>2022-01-02T09:09:57.000Z</time>
      </trkpt>
      <trkpt lat="45.58189" lon="6.20206">
        <ele>303.20001220703</ele>
        <time>2022-01-02T09:10:00.000Z</time>
      </trkpt>
      <trkpt lat="45.58163" lon="6.20166">
        <ele>303.39999389648</ele>
        <time>2022-01-02T09:10:09.000Z</time>
      </trkpt>
      <trkpt lat="45.58139" lon="6.2012">
        <ele>303.79998779297</ele>
        <time>2022-01-02T09:10:18.000Z</time>
      </trkpt>
      <trkpt lat="45.58131" lon="6.20098">
        <ele>303.79998779297</ele>
        <time>2022-01-02T09:10:22.000Z</time>
      </trkpt>
      <trkpt lat="45.58126" lon="6.20082">
        <ele>304</ele>
        <time>2022-01-02T09:10:25.000Z</time>
      </trkpt>
      <trkpt lat="45.58117" lon="6.20043">
        <ele>305</ele>
        <time>2022-01-02T09:10:32.000Z</time>
      </trkpt>
      <trkpt lat="45.58115" lon="6.20037">
        <ele>305</ele>
        <time>2022-01-02T09:10:33.000Z</time>
      </trkpt>
      <trkpt lat="45.58108" lon="6.20005">
        <ele>306.20001220703</ele>
        <time>2022-01-02T09:10:39.000Z</time>
      </trkpt>
      <trkpt lat="45.58105" lon="6.19989">
        <ele>307</ele>
        <time>2022-01-02T09:10:42.000Z</time>
      </trkpt>
      <trkpt lat="45.58104" lon="6.1998">
        <ele>307.39999389648</ele>
        <time>2022-01-02T09:10:44.000Z</time>
      </trkpt>
      <trkpt lat="45.58098" lon="6.19953">
        <ele>308.39999389648</ele>
        <time>2022-01-02T09:10:49.000Z</time>
      </trkpt>
      <trkpt lat="45.58093" lon="6.19929">
        <ele>309.60000610352</ele>
        <time>2022-01-02T09:10:54.000Z</time>
      </trkpt>
      <trkpt lat="45.58088" lon="6.19904">
        <ele>310.60000610352</ele>
        <time>2022-01-02T09:10:59.000Z</time>
      </trkpt>
      <trkpt lat="45.58087" lon="6.19899">
        <ele>310.60000610352</ele>
        <time>2022-01-02T09:11:00.000Z</time>
      </trkpt>
      <trkpt lat="45.58082" lon="6.19877">
        <ele>311.60000610352</ele>
        <time>2022-01-02T09:11:04.000Z</time>
      </trkpt>
      <trkpt lat="45.58075" lon="6.19849">
        <ele>312.20001220703</ele>
        <time>2022-01-02T09:11:09.000Z</time>
      </trkpt>
      <trkpt lat="45.58074" lon="6.19844">
        <ele>312.60000610352</ele>
        <time>2022-01-02T09:11:10.000Z</time>
      </trkpt>
      <trkpt lat="45.58068" lon="6.19813">
        <ele>313.60000610352</ele>
        <time>2022-01-02T09:11:16.000Z</time>
      </trkpt>
      <trkpt lat="45.58064" lon="6.19802">
        <ele>314</ele>
        <time>2022-01-02T09:11:18.000Z</time>
      </trkpt>
      <trkpt lat="45.58062" lon="6.19793">
        <ele>314.60000610352</ele>
        <time>2022-01-02T09:11:20.000Z</time>
      </trkpt>
      <trkpt lat="45.58054" lon="6.19767">
        <ele>315.60000610352</ele>
        <time>2022-01-02T09:11:25.000Z</time>
      </trkpt>
      <trkpt lat="45.58051" lon="6.19761">
        <ele>315.79998779297</ele>
        <time>2022-01-02T09:11:26.000Z</time>
      </trkpt>
      <trkpt lat="45.58039" lon="6.1973">
        <ele>317</ele>
        <time>2022-01-02T09:11:32.000Z</time>
      </trkpt>
      <trkpt lat="45.58035" lon="6.19721">
        <ele>317.39999389648</ele>
        <time>2022-01-02T09:11:34.000Z</time>
      </trkpt>
      <trkpt lat="45.58028" lon="6.19706">
        <ele>318</ele>
        <time>2022-01-02T09:11:37.000Z</time>
      </trkpt>
      <trkpt lat="45.58016" lon="6.19689">
        <ele>318.60000610352</ele>
        <time>2022-01-02T09:11:41.000Z</time>
      </trkpt>
      <trkpt lat="45.58005" lon="6.19673">
        <ele>319</ele>
        <time>2022-01-02T09:11:45.000Z</time>
      </trkpt>
      <trkpt lat="45.57988" lon="6.19652">
        <ele>319.79998779297</ele>
        <time>2022-01-02T09:11:51.000Z</time>
      </trkpt>
      <trkpt lat="45.57985" lon="6.19649">
        <ele>320.20001220703</ele>
        <time>2022-01-02T09:11:52.000Z</time>
      </trkpt>
      <trkpt lat="45.57973" lon="6.19634">
        <ele>321</ele>
        <time>2022-01-02T09:11:56.000Z</time>
      </trkpt>
      <trkpt lat="45.57967" lon="6.19626">
        <ele>321.60000610352</ele>
        <time>2022-01-02T09:11:58.000Z</time>
      </trkpt>
      <trkpt lat="45.57943" lon="6.19593">
        <ele>322.60000610352</ele>
        <time>2022-01-02T09:12:05.000Z</time>
      </trkpt>
      <trkpt lat="45.57911" lon="6.19547">
        <ele>322.60000610352</ele>
        <time>2022-01-02T09:12:14.000Z</time>
      </trkpt>
      <trkpt lat="45.57902" lon="6.1953">
        <ele>322.60000610352</ele>
        <time>2022-01-02T09:12:17.000Z</time>
      </trkpt>
      <trkpt lat="45.57891" lon="6.19506">
        <ele>322.79998779297</ele>
        <time>2022-01-02T09:12:21.000Z</time>
      </trkpt>
      <trkpt lat="45.57876" lon="6.19464">
        <ele>323.39999389648</ele>
        <time>2022-01-02T09:12:28.000Z</time>
      </trkpt>
      <trkpt lat="45.57875" lon="6.19458">
        <ele>323.60000610352</ele>
        <time>2022-01-02T09:12:29.000Z</time>
      </trkpt>
      <trkpt lat="45.57865" lon="6.19423">
        <ele>324.20001220703</ele>
        <time>2022-01-02T09:12:35.000Z</time>
      </trkpt>
      <trkpt lat="45.57862" lon="6.1941">
        <ele>324.60000610352</ele>
        <time>2022-01-02T09:12:37.000Z</time>
      </trkpt>
      <trkpt lat="45.57854" lon="6.19378">
        <ele>325.79998779297</ele>
        <time>2022-01-02T09:12:43.000Z</time>
      </trkpt>
      <trkpt lat="45.57852" lon="6.19373">
        <ele>326</ele>
        <time>2022-01-02T09:12:44.000Z</time>
      </trkpt>
      <trkpt lat="45.57849" lon="6.19362">
        <ele>326.79998779297</ele>
        <time>2022-01-02T09:12:46.000Z</time>
      </trkpt>
      <trkpt lat="45.57843" lon="6.19341">
        <ele>328</ele>
        <time>2022-01-02T09:12:50.000Z</time>
      </trkpt>
      <trkpt lat="45.5784" lon="6.19332">
        <ele>328.79998779297</ele>
        <time>2022-01-02T09:12:52.000Z</time>
      </trkpt>
      <trkpt lat="45.57839" lon="6.19327">
        <ele>329.20001220703</ele>
        <time>2022-01-02T09:12:53.000Z</time>
      </trkpt>
      <trkpt lat="45.57832" lon="6.19306">
        <ele>330.20001220703</ele>
        <time>2022-01-02T09:12:57.000Z</time>
      </trkpt>
      <trkpt lat="45.57828" lon="6.19294">
        <ele>331</ele>
        <time>2022-01-02T09:12:59.000Z</time>
      </trkpt>
      <trkpt lat="45.57825" lon="6.19284">
        <ele>331.39999389648</ele>
        <time>2022-01-02T09:13:01.000Z</time>
      </trkpt>
      <trkpt lat="45.57811" lon="6.19245">
        <ele>332.39999389648</ele>
        <time>2022-01-02T09:13:08.000Z</time>
      </trkpt>
      <trkpt lat="45.57806" lon="6.19234">
        <ele>332.60000610352</ele>
        <time>2022-01-02T09:13:10.000Z</time>
      </trkpt>
      <trkpt lat="45.57793" lon="6.19189">
        <ele>332.79998779297</ele>
        <time>2022-01-02T09:13:17.000Z</time>
      </trkpt>
      <trkpt lat="45.57783" lon="6.19135">
        <ele>333.20001220703</ele>
        <time>2022-01-02T09:13:25.000Z</time>
      </trkpt>
      <trkpt lat="45.57781" lon="6.19127">
        <ele>333.39999389648</ele>
        <time>2022-01-02T09:13:26.000Z</time>
      </trkpt>
      <trkpt lat="45.57767" lon="6.1908">
        <ele>333.60000610352</ele>
        <time>2022-01-02T09:13:32.000Z</time>
      </trkpt>
      <trkpt lat="45.57753" lon="6.19031">
        <ele>333</ele>
        <time>2022-01-02T09:13:38.000Z</time>
      </trkpt>
      <trkpt lat="45.5775" lon="6.19022">
        <ele>332.79998779297</ele>
        <time>2022-01-02T09:13:39.000Z</time>
      </trkpt>
      <trkpt lat="45.57743" lon="6.18995">
        <ele>332.39999389648</ele>
        <time>2022-01-02T09:13:42.000Z</time>
      </trkpt>
      <trkpt lat="45.57742" lon="6.18988">
        <ele>332.20001220703</ele>
        <time>2022-01-02T09:13:43.000Z</time>
      </trkpt>
      <trkpt lat="45.57739" lon="6.18967">
        <ele>331.79998779297</ele>
        <time>2022-01-02T09:13:45.000Z</time>
      </trkpt>
      <trkpt lat="45.5774" lon="6.18947">
        <ele>331.60000610352</ele>
        <time>2022-01-02T09:13:47.000Z</time>
      </trkpt>
      <trkpt lat="45.57741" lon="6.18939">
        <ele>331</ele>
        <time>2022-01-02T09:13:48.000Z</time>
      </trkpt>
      <trkpt lat="45.57747" lon="6.18886">
        <ele>330</ele>
        <time>2022-01-02T09:13:53.000Z</time>
      </trkpt>
      <trkpt lat="45.5775" lon="6.18868">
        <ele>329.79998779297</ele>
        <time>2022-01-02T09:13:55.000Z</time>
      </trkpt>
      <trkpt lat="45.57755" lon="6.18824">
        <ele>329</ele>
        <time>2022-01-02T09:13:59.000Z</time>
      </trkpt>
      <trkpt lat="45.57759" lon="6.18783">
        <ele>327.79998779297</ele>
        <time>2022-01-02T09:14:03.000Z</time>
      </trkpt>
      <trkpt lat="45.57761" lon="6.18773">
        <ele>327.39999389648</ele>
        <time>2022-01-02T09:14:04.000Z</time>
      </trkpt>
      <trkpt lat="45.57765" lon="6.18747">
        <ele>327</ele>
        <time>2022-01-02T09:14:07.000Z</time>
      </trkpt>
      <trkpt lat="45.57766" lon="6.18734">
        <ele>326.60000610352</ele>
        <time>2022-01-02T09:14:08.000Z</time>
      </trkpt>
      <trkpt lat="45.57766" lon="6.18724">
        <ele>326.39999389648</ele>
        <time>2022-01-02T09:14:09.000Z</time>
      </trkpt>
      <trkpt lat="45.57767" lon="6.18705">
        <ele>325.79998779297</ele>
        <time>2022-01-02T09:14:11.000Z</time>
      </trkpt>
      <trkpt lat="45.57765" lon="6.18694">
        <ele>325.79998779297</ele>
        <time>2022-01-02T09:14:12.000Z</time>
      </trkpt>
      <trkpt lat="45.57762" lon="6.18682">
        <ele>325.39999389648</ele>
        <time>2022-01-02T09:14:13.000Z</time>
      </trkpt>
      <trkpt lat="45.57758" lon="6.18671">
        <ele>324.60000610352</ele>
        <time>2022-01-02T09:14:14.000Z</time>
      </trkpt>
      <trkpt lat="45.57751" lon="6.18651">
        <ele>323.79998779297</ele>
        <time>2022-01-02T09:14:16.000Z</time>
      </trkpt>
      <trkpt lat="45.57743" lon="6.18631">
        <ele>323.20001220703</ele>
        <time>2022-01-02T09:14:18.000Z</time>
      </trkpt>
      <trkpt lat="45.57734" lon="6.18609">
        <ele>322.79998779297</ele>
        <time>2022-01-02T09:14:20.000Z</time>
      </trkpt>
      <trkpt lat="45.57728" lon="6.18598">
        <ele>322.39999389648</ele>
        <time>2022-01-02T09:14:21.000Z</time>
      </trkpt>
      <trkpt lat="45.57714" lon="6.1857">
        <ele>321.60000610352</ele>
        <time>2022-01-02T09:14:24.000Z</time>
      </trkpt>
      <trkpt lat="45.57702" lon="6.18541">
        <ele>320.39999389648</ele>
        <time>2022-01-02T09:14:27.000Z</time>
      </trkpt>
      <trkpt lat="45.57679" lon="6.18499">
        <ele>319.39999389648</ele>
        <time>2022-01-02T09:14:32.000Z</time>
      </trkpt>
      <trkpt lat="45.57671" lon="6.18489">
        <ele>319.60000610352</ele>
        <time>2022-01-02T09:14:34.000Z</time>
      </trkpt>
      <trkpt lat="45.57664" lon="6.18485">
        <ele>319.60000610352</ele>
        <time>2022-01-02T09:14:35.000Z</time>
      </trkpt>
      <trkpt lat="45.57637" lon="6.18478">
        <ele>320.39999389648</ele>
        <time>2022-01-02T09:14:40.000Z</time>
      </trkpt>
      <trkpt lat="45.57622" lon="6.18477">
        <ele>321.60000610352</ele>
        <time>2022-01-02T09:14:43.000Z</time>
      </trkpt>
      <trkpt lat="45.57613" lon="6.18478">
        <ele>322.20001220703</ele>
        <time>2022-01-02T09:14:45.000Z</time>
      </trkpt>
      <trkpt lat="45.57602" lon="6.18478">
        <ele>322.39999389648</ele>
        <time>2022-01-02T09:14:47.000Z</time>
      </trkpt>
      <trkpt lat="45.57597" lon="6.18478">
        <ele>322.79998779297</ele>
        <time>2022-01-02T09:14:48.000Z</time>
      </trkpt>
      <trkpt lat="45.57581" lon="6.18474">
        <ele>323.39999389648</ele>
        <time>2022-01-02T09:14:51.000Z</time>
      </trkpt>
      <trkpt lat="45.57575" lon="6.18472">
        <ele>323.60000610352</ele>
        <time>2022-01-02T09:14:52.000Z</time>
      </trkpt>
      <trkpt lat="45.57563" lon="6.18463">
        <ele>323.60000610352</ele>
        <time>2022-01-02T09:14:54.000Z</time>
      </trkpt>
      <trkpt lat="45.57557" lon="6.18457">
        <ele>323.60000610352</ele>
        <time>2022-01-02T09:14:55.000Z</time>
      </trkpt>
      <trkpt lat="45.57553" lon="6.18449">
        <ele>323.39999389648</ele>
        <time>2022-01-02T09:14:56.000Z</time>
      </trkpt>
      <trkpt lat="45.57547" lon="6.18432">
        <ele>323.20001220703</ele>
        <time>2022-01-02T09:14:58.000Z</time>
      </trkpt>
      <trkpt lat="45.57534" lon="6.18384">
        <ele>321.39999389648</ele>
        <time>2022-01-02T09:15:03.000Z</time>
      </trkpt>
      <trkpt lat="45.57529" lon="6.18365">
        <ele>320.79998779297</ele>
        <time>2022-01-02T09:15:05.000Z</time>
      </trkpt>
      <trkpt lat="45.57524" lon="6.18345">
        <ele>320.20001220703</ele>
        <time>2022-01-02T09:15:07.000Z</time>
      </trkpt>
      <trkpt lat="45.57513" lon="6.18304">
        <ele>319</ele>
        <time>2022-01-02T09:15:11.000Z</time>
      </trkpt>
      <trkpt lat="45.57505" lon="6.18272">
        <ele>318.20001220703</ele>
        <time>2022-01-02T09:15:14.000Z</time>
      </trkpt>
      <trkpt lat="45.575" lon="6.18254">
        <ele>317.60000610352</ele>
        <time>2022-01-02T09:15:16.000Z</time>
      </trkpt>
      <trkpt lat="45.57489" lon="6.18218">
        <ele>317</ele>
        <time>2022-01-02T09:15:20.000Z</time>
      </trkpt>
      <trkpt lat="45.57469" lon="6.18162">
        <ele>317.60000610352</ele>
        <time>2022-01-02T09:15:28.000Z</time>
      </trkpt>
      <trkpt lat="45.57454" lon="6.18121">
        <ele>318.60000610352</ele>
        <time>2022-01-02T09:15:34.000Z</time>
      </trkpt>
      <trkpt lat="45.5745" lon="6.18108">
        <ele>319.20001220703</ele>
        <time>2022-01-02T09:15:36.000Z</time>
      </trkpt>
      <trkpt lat="45.57442" lon="6.18091">
        <ele>319.79998779297</ele>
        <time>2022-01-02T09:15:39.000Z</time>
      </trkpt>
      <trkpt lat="45.57433" lon="6.1807">
        <ele>321</ele>
        <time>2022-01-02T09:15:43.000Z</time>
      </trkpt>
      <trkpt lat="45.5743" lon="6.18064">
        <ele>321.20001220703</ele>
        <time>2022-01-02T09:15:44.000Z</time>
      </trkpt>
      <trkpt lat="45.57418" lon="6.18039">
        <ele>322.20001220703</ele>
        <time>2022-01-02T09:15:49.000Z</time>
      </trkpt>
      <trkpt lat="45.57409" lon="6.18026">
        <ele>322.79998779297</ele>
        <time>2022-01-02T09:15:52.000Z</time>
      </trkpt>
      <trkpt lat="45.57402" lon="6.18019">
        <ele>323.20001220703</ele>
        <time>2022-01-02T09:15:54.000Z</time>
      </trkpt>
      <trkpt lat="45.5738" lon="6.18">
        <ele>324.39999389648</ele>
        <time>2022-01-02T09:16:00.000Z</time>
      </trkpt>
      <trkpt lat="45.57376" lon="6.17998">
        <ele>324.60000610352</ele>
        <time>2022-01-02T09:16:01.000Z</time>
      </trkpt>
      <trkpt lat="45.57359" lon="6.17982">
        <ele>325.39999389648</ele>
        <time>2022-01-02T09:16:06.000Z</time>
      </trkpt>
      <trkpt lat="45.5734" lon="6.17962">
        <ele>326.79998779297</ele>
        <time>2022-01-02T09:16:12.000Z</time>
      </trkpt>
      <trkpt lat="45.57337" lon="6.17959">
        <ele>327</ele>
        <time>2022-01-02T09:16:13.000Z</time>
      </trkpt>
      <trkpt lat="45.57329" lon="6.1795">
        <ele>327.60000610352</ele>
        <time>2022-01-02T09:16:16.000Z</time>
      </trkpt>
      <trkpt lat="45.5732" lon="6.17935">
        <ele>328.60000610352</ele>
        <time>2022-01-02T09:16:20.000Z</time>
      </trkpt>
      <trkpt lat="45.57319" lon="6.17931">
        <ele>329</ele>
        <time>2022-01-02T09:16:21.000Z</time>
      </trkpt>
      <trkpt lat="45.57312" lon="6.17916">
        <ele>330</ele>
        <time>2022-01-02T09:16:25.000Z</time>
      </trkpt>
      <trkpt lat="45.57307" lon="6.17903">
        <ele>330.60000610352</ele>
        <time>2022-01-02T09:16:28.000Z</time>
      </trkpt>
      <trkpt lat="45.57306" lon="6.17899">
        <ele>331.20001220703</ele>
        <time>2022-01-02T09:16:29.000Z</time>
      </trkpt>
      <trkpt lat="45.57302" lon="6.17872">
        <ele>332.39999389648</ele>
        <time>2022-01-02T09:16:35.000Z</time>
      </trkpt>
      <trkpt lat="45.57302" lon="6.17853">
        <ele>333.79998779297</ele>
        <time>2022-01-02T09:16:39.000Z</time>
      </trkpt>
      <trkpt lat="45.57302" lon="6.17831">
        <ele>335.20001220703</ele>
        <time>2022-01-02T09:16:44.000Z</time>
      </trkpt>
      <trkpt lat="45.57303" lon="6.17808">
        <ele>336.39999389648</ele>
        <time>2022-01-02T09:16:49.000Z</time>
      </trkpt>
      <trkpt lat="45.57304" lon="6.17797">
        <ele>337</ele>
        <time>2022-01-02T09:16:51.000Z</time>
      </trkpt>
      <trkpt lat="45.57304" lon="6.17793">
        <ele>337.39999389648</ele>
        <time>2022-01-02T09:16:52.000Z</time>
      </trkpt>
      <trkpt lat="45.57303" lon="6.17769">
        <ele>338.79998779297</ele>
        <time>2022-01-02T09:16:57.000Z</time>
      </trkpt>
      <trkpt lat="45.57303" lon="6.17765">
        <ele>338.79998779297</ele>
        <time>2022-01-02T09:16:58.000Z</time>
      </trkpt>
      <trkpt lat="45.57301" lon="6.17746">
        <ele>340</ele>
        <time>2022-01-02T09:17:02.000Z</time>
      </trkpt>
      <trkpt lat="45.57298" lon="6.17724">
        <ele>341.20001220703</ele>
        <time>2022-01-02T09:17:06.000Z</time>
      </trkpt>
      <trkpt lat="45.57294" lon="6.17703">
        <ele>342.39999389648</ele>
        <time>2022-01-02T09:17:10.000Z</time>
      </trkpt>
      <trkpt lat="45.57286" lon="6.17675">
        <ele>342.79998779297</ele>
        <time>2022-01-02T09:17:15.000Z</time>
      </trkpt>
      <trkpt lat="45.57284" lon="6.17669">
        <ele>342.79998779297</ele>
        <time>2022-01-02T09:17:16.000Z</time>
      </trkpt>
      <trkpt lat="45.57273" lon="6.17646">
        <ele>343</ele>
        <time>2022-01-02T09:17:20.000Z</time>
      </trkpt>
      <trkpt lat="45.57259" lon="6.17619">
        <ele>343.20001220703</ele>
        <time>2022-01-02T09:17:25.000Z</time>
      </trkpt>
      <trkpt lat="45.57254" lon="6.1761">
        <ele>343.20001220703</ele>
        <time>2022-01-02T09:17:27.000Z</time>
      </trkpt>
      <trkpt lat="45.57241" lon="6.17579">
        <ele>343.39999389648</ele>
        <time>2022-01-02T09:17:32.000Z</time>
      </trkpt>
      <trkpt lat="45.57238" lon="6.17574">
        <ele>343.39999389648</ele>
        <time>2022-01-02T09:17:33.000Z</time>
      </trkpt>
      <trkpt lat="45.5723" lon="6.17559">
        <ele>343.39999389648</ele>
        <time>2022-01-02T09:17:35.000Z</time>
      </trkpt>
      <trkpt lat="45.57221" lon="6.17544">
        <ele>343.20001220703</ele>
        <time>2022-01-02T09:17:37.000Z</time>
      </trkpt>
      <trkpt lat="45.57216" lon="6.17538">
        <ele>343.20001220703</ele>
        <time>2022-01-02T09:17:38.000Z</time>
      </trkpt>
      <trkpt lat="45.57211" lon="6.17532">
        <ele>342.79998779297</ele>
        <time>2022-01-02T09:17:39.000Z</time>
      </trkpt>
      <trkpt lat="45.57198" lon="6.17521">
        <ele>342.39999389648</ele>
        <time>2022-01-02T09:17:41.000Z</time>
      </trkpt>
      <trkpt lat="45.57192" lon="6.17514">
        <ele>342.20001220703</ele>
        <time>2022-01-02T09:17:42.000Z</time>
      </trkpt>
      <trkpt lat="45.57186" lon="6.17506">
        <ele>342.20001220703</ele>
        <time>2022-01-02T09:17:43.000Z</time>
      </trkpt>
      <trkpt lat="45.57181" lon="6.17498">
        <ele>341.60000610352</ele>
        <time>2022-01-02T09:17:44.000Z</time>
      </trkpt>
      <trkpt lat="45.57177" lon="6.17489">
        <ele>341.20001220703</ele>
        <time>2022-01-02T09:17:45.000Z</time>
      </trkpt>
      <trkpt lat="45.57173" lon="6.1748">
        <ele>340.79998779297</ele>
        <time>2022-01-02T09:17:46.000Z</time>
      </trkpt>
      <trkpt lat="45.57169" lon="6.17473">
        <ele>340.60000610352</ele>
        <time>2022-01-02T09:17:47.000Z</time>
      </trkpt>
      <trkpt lat="45.57155" lon="6.17446">
        <ele>340.39999389648</ele>
        <time>2022-01-02T09:17:51.000Z</time>
      </trkpt>
      <trkpt lat="45.57139" lon="6.17417">
        <ele>341.60000610352</ele>
        <time>2022-01-02T09:17:57.000Z</time>
      </trkpt>
      <trkpt lat="45.57128" lon="6.17397">
        <ele>343</ele>
        <time>2022-01-02T09:18:02.000Z</time>
      </trkpt>
      <trkpt lat="45.57127" lon="6.17393">
        <ele>343.20001220703</ele>
        <time>2022-01-02T09:18:03.000Z</time>
      </trkpt>
      <trkpt lat="45.57121" lon="6.17376">
        <ele>344.20001220703</ele>
        <time>2022-01-02T09:18:07.000Z</time>
      </trkpt>
      <trkpt lat="45.57115" lon="6.17363">
        <ele>345</ele>
        <time>2022-01-02T09:18:10.000Z</time>
      </trkpt>
      <trkpt lat="45.57112" lon="6.17355">
        <ele>345.60000610352</ele>
        <time>2022-01-02T09:18:12.000Z</time>
      </trkpt>
      <trkpt lat="45.57108" lon="6.17336">
        <ele>346.39999389648</ele>
        <time>2022-01-02T09:18:16.000Z</time>
      </trkpt>
      <trkpt lat="45.57107" lon="6.17331">
        <ele>346.79998779297</ele>
        <time>2022-01-02T09:18:17.000Z</time>
      </trkpt>
      <trkpt lat="45.57102" lon="6.17308">
        <ele>348.20001220703</ele>
        <time>2022-01-02T09:18:22.000Z</time>
      </trkpt>
      <trkpt lat="45.57101" lon="6.17303">
        <ele>348.39999389648</ele>
        <time>2022-01-02T09:18:23.000Z</time>
      </trkpt>
      <trkpt lat="45.57097" lon="6.17289">
        <ele>349.39999389648</ele>
        <time>2022-01-02T09:18:26.000Z</time>
      </trkpt>
      <trkpt lat="45.57092" lon="6.17272">
        <ele>350.60000610352</ele>
        <time>2022-01-02T09:18:30.000Z</time>
      </trkpt>
      <trkpt lat="45.57088" lon="6.17254">
        <ele>351.79998779297</ele>
        <time>2022-01-02T09:18:34.000Z</time>
      </trkpt>
      <trkpt lat="45.57082" lon="6.17237">
        <ele>353</ele>
        <time>2022-01-02T09:18:38.000Z</time>
      </trkpt>
      <trkpt lat="45.57077" lon="6.17219">
        <ele>354</ele>
        <time>2022-01-02T09:18:42.000Z</time>
      </trkpt>
      <trkpt lat="45.57072" lon="6.17202">
        <ele>355.20001220703</ele>
        <time>2022-01-02T09:18:46.000Z</time>
      </trkpt>
      <trkpt lat="45.57071" lon="6.17198">
        <ele>355.60000610352</ele>
        <time>2022-01-02T09:18:47.000Z</time>
      </trkpt>
      <trkpt lat="45.57066" lon="6.17185">
        <ele>356.39999389648</ele>
        <time>2022-01-02T09:18:50.000Z</time>
      </trkpt>
      <trkpt lat="45.57059" lon="6.17156">
        <ele>357.39999389648</ele>
        <time>2022-01-02T09:18:56.000Z</time>
      </trkpt>
      <trkpt lat="45.57052" lon="6.17129">
        <ele>358.39999389648</ele>
        <time>2022-01-02T09:19:01.000Z</time>
      </trkpt>
      <trkpt lat="45.57047" lon="6.17103">
        <ele>359.20001220703</ele>
        <time>2022-01-02T09:19:06.000Z</time>
      </trkpt>
      <trkpt lat="45.57038" lon="6.17056">
        <ele>365.60000610352</ele>
        <time>2022-01-02T09:19:14.000Z</time>
      </trkpt>
      <trkpt lat="45.57037" lon="6.1705">
        <ele>359.60000610352</ele>
        <time>2022-01-02T09:19:15.000Z</time>
      </trkpt>
      <trkpt lat="45.57028" lon="6.1699">
        <ele>360</ele>
        <time>2022-01-02T09:19:24.000Z</time>
      </trkpt>
      <trkpt lat="45.57021" lon="6.16928">
        <ele>360</ele>
        <time>2022-01-02T09:19:33.000Z</time>
      </trkpt>
      <trkpt lat="45.57015" lon="6.16876">
        <ele>360.20001220703</ele>
        <time>2022-01-02T09:19:41.000Z</time>
      </trkpt>
      <trkpt lat="45.57012" lon="6.16851">
        <ele>360.60000610352</ele>
        <time>2022-01-02T09:19:45.000Z</time>
      </trkpt>
      <trkpt lat="45.57008" lon="6.16814">
        <ele>361</ele>
        <time>2022-01-02T09:19:51.000Z</time>
      </trkpt>
      <trkpt lat="45.57004" lon="6.16766">
        <ele>361.60000610352</ele>
        <time>2022-01-02T09:19:59.000Z</time>
      </trkpt>
      <trkpt lat="45.56998" lon="6.1671">
        <ele>362.60000610352</ele>
        <time>2022-01-02T09:20:08.000Z</time>
      </trkpt>
      <trkpt lat="45.56997" lon="6.16704">
        <ele>362.79998779297</ele>
        <time>2022-01-02T09:20:09.000Z</time>
      </trkpt>
      <trkpt lat="45.56991" lon="6.16643">
        <ele>363.39999389648</ele>
        <time>2022-01-02T09:20:19.000Z</time>
      </trkpt>
      <trkpt lat="45.56989" lon="6.16625">
        <ele>363.79998779297</ele>
        <time>2022-01-02T09:20:22.000Z</time>
      </trkpt>
      <trkpt lat="45.56984" lon="6.16583">
        <ele>365</ele>
        <time>2022-01-02T09:20:29.000Z</time>
      </trkpt>
      <trkpt lat="45.56984" lon="6.16577">
        <ele>365.20001220703</ele>
        <time>2022-01-02T09:20:30.000Z</time>
      </trkpt>
      <trkpt lat="45.5698" lon="6.16535">
        <ele>366.20001220703</ele>
        <time>2022-01-02T09:20:37.000Z</time>
      </trkpt>
      <trkpt lat="45.56979" lon="6.16523">
        <ele>366.39999389648</ele>
        <time>2022-01-02T09:20:39.000Z</time>
      </trkpt>
      <trkpt lat="45.56976" lon="6.16493">
        <ele>367.20001220703</ele>
        <time>2022-01-02T09:20:44.000Z</time>
      </trkpt>
      <trkpt lat="45.56972" lon="6.16463">
        <ele>367.79998779297</ele>
        <time>2022-01-02T09:20:49.000Z</time>
      </trkpt>
      <trkpt lat="45.5697" lon="6.16446">
        <ele>368.39999389648</ele>
        <time>2022-01-02T09:20:52.000Z</time>
      </trkpt>
      <trkpt lat="45.56967" lon="6.16417">
        <ele>369.39999389648</ele>
        <time>2022-01-02T09:20:57.000Z</time>
      </trkpt>
      <trkpt lat="45.56966" lon="6.16411">
        <ele>369.39999389648</ele>
        <time>2022-01-02T09:20:58.000Z</time>
      </trkpt>
      <trkpt lat="45.56965" lon="6.16394">
        <ele>369.79998779297</ele>
        <time>2022-01-02T09:21:01.000Z</time>
      </trkpt>
      <trkpt lat="45.56962" lon="6.16376">
        <ele>370.20001220703</ele>
        <time>2022-01-02T09:21:04.000Z</time>
      </trkpt>
      <trkpt lat="45.56961" lon="6.16365">
        <ele>370.60000610352</ele>
        <time>2022-01-02T09:21:06.000Z</time>
      </trkpt>
      <trkpt lat="45.56959" lon="6.16348">
        <ele>371.39999389648</ele>
        <time>2022-01-02T09:21:09.000Z</time>
      </trkpt>
      <trkpt lat="45.56958" lon="6.1633">
        <ele>372</ele>
        <time>2022-01-02T09:21:12.000Z</time>
      </trkpt>
      <trkpt lat="45.56956" lon="6.16318">
        <ele>372.39999389648</ele>
        <time>2022-01-02T09:21:14.000Z</time>
      </trkpt>
      <trkpt lat="45.56954" lon="6.16295">
        <ele>373.39999389648</ele>
        <time>2022-01-02T09:21:18.000Z</time>
      </trkpt>
      <trkpt lat="45.56952" lon="6.16272">
        <ele>374.39999389648</ele>
        <time>2022-01-02T09:21:22.000Z</time>
      </trkpt>
      <trkpt lat="45.56948" lon="6.16249">
        <ele>375.20001220703</ele>
        <time>2022-01-02T09:21:26.000Z</time>
      </trkpt>
      <trkpt lat="45.56947" lon="6.16242">
        <ele>375.60000610352</ele>
        <time>2022-01-02T09:21:27.000Z</time>
      </trkpt>
      <trkpt lat="45.56944" lon="6.16213">
        <ele>376.60000610352</ele>
        <time>2022-01-02T09:21:32.000Z</time>
      </trkpt>
      <trkpt lat="45.56943" lon="6.16202">
        <ele>377</ele>
        <time>2022-01-02T09:21:34.000Z</time>
      </trkpt>
      <trkpt lat="45.56941" lon="6.16177">
        <ele>377.60000610352</ele>
        <time>2022-01-02T09:21:38.000Z</time>
      </trkpt>
      <trkpt lat="45.5694" lon="6.16165">
        <ele>378</ele>
        <time>2022-01-02T09:21:40.000Z</time>
      </trkpt>
      <trkpt lat="45.5694" lon="6.16159">
        <ele>378.20001220703</ele>
        <time>2022-01-02T09:21:41.000Z</time>
      </trkpt>
      <trkpt lat="45.5694" lon="6.16148">
        <ele>378.79998779297</ele>
        <time>2022-01-02T09:21:43.000Z</time>
      </trkpt>
      <trkpt lat="45.5694" lon="6.16119">
        <ele>379.79998779297</ele>
        <time>2022-01-02T09:21:48.000Z</time>
      </trkpt>
      <trkpt lat="45.5694" lon="6.16113">
        <ele>380</ele>
        <time>2022-01-02T09:21:49.000Z</time>
      </trkpt>
      <trkpt lat="45.5694" lon="6.16077">
        <ele>381</ele>
        <time>2022-01-02T09:21:55.000Z</time>
      </trkpt>
      <trkpt lat="45.5694" lon="6.16071">
        <ele>381</ele>
        <time>2022-01-02T09:21:56.000Z</time>
      </trkpt>
      <trkpt lat="45.5694" lon="6.16046">
        <ele>382</ele>
        <time>2022-01-02T09:22:00.000Z</time>
      </trkpt>
      <trkpt lat="45.56938" lon="6.16022">
        <ele>382.60000610352</ele>
        <time>2022-01-02T09:22:04.000Z</time>
      </trkpt>
      <trkpt lat="45.56937" lon="6.16005">
        <ele>383</ele>
        <time>2022-01-02T09:22:07.000Z</time>
      </trkpt>
      <trkpt lat="45.56934" lon="6.15968">
        <ele>383.79998779297</ele>
        <time>2022-01-02T09:22:13.000Z</time>
      </trkpt>
      <trkpt lat="45.56934" lon="6.15958">
        <ele>384</ele>
        <time>2022-01-02T09:22:15.000Z</time>
      </trkpt>
      <trkpt lat="45.56931" lon="6.1592">
        <ele>384.39999389648</ele>
        <time>2022-01-02T09:22:21.000Z</time>
      </trkpt>
      <trkpt lat="45.56925" lon="6.15871">
        <ele>385</ele>
        <time>2022-01-02T09:22:29.000Z</time>
      </trkpt>
      <trkpt lat="45.5692" lon="6.15827">
        <ele>385.60000610352</ele>
        <time>2022-01-02T09:22:36.000Z</time>
      </trkpt>
      <trkpt lat="45.56919" lon="6.15801">
        <ele>386.20001220703</ele>
        <time>2022-01-02T09:22:40.000Z</time>
      </trkpt>
      <trkpt lat="45.56917" lon="6.15783">
        <ele>386.39999389648</ele>
        <time>2022-01-02T09:22:43.000Z</time>
      </trkpt>
      <trkpt lat="45.56911" lon="6.15758">
        <ele>386.79998779297</ele>
        <time>2022-01-02T09:22:47.000Z</time>
      </trkpt>
      <trkpt lat="45.56908" lon="6.15753">
        <ele>386.79998779297</ele>
        <time>2022-01-02T09:22:48.000Z</time>
      </trkpt>
      <trkpt lat="45.56903" lon="6.15751">
        <ele>387</ele>
        <time>2022-01-02T09:22:49.000Z</time>
      </trkpt>
      <trkpt lat="45.56894" lon="6.15751">
        <ele>387</ele>
        <time>2022-01-02T09:22:51.000Z</time>
      </trkpt>
      <trkpt lat="45.56884" lon="6.15757">
        <ele>387</ele>
        <time>2022-01-02T09:22:53.000Z</time>
      </trkpt>
      <trkpt lat="45.5688" lon="6.15763">
        <ele>387</ele>
        <time>2022-01-02T09:22:54.000Z</time>
      </trkpt>
      <trkpt lat="45.56877" lon="6.1577">
        <ele>386.79998779297</ele>
        <time>2022-01-02T09:22:55.000Z</time>
      </trkpt>
      <trkpt lat="45.56864" lon="6.15804">
        <ele>386</ele>
        <time>2022-01-02T09:22:59.000Z</time>
      </trkpt>
      <trkpt lat="45.56853" lon="6.15834">
        <ele>384.79998779297</ele>
        <time>2022-01-02T09:23:02.000Z</time>
      </trkpt>
      <trkpt lat="45.56845" lon="6.15856">
        <ele>384</ele>
        <time>2022-01-02T09:23:04.000Z</time>
      </trkpt>
      <trkpt lat="45.56839" lon="6.15866">
        <ele>383.20001220703</ele>
        <time>2022-01-02T09:23:05.000Z</time>
      </trkpt>
      <trkpt lat="45.56825" lon="6.15883">
        <ele>382.20001220703</ele>
        <time>2022-01-02T09:23:07.000Z</time>
      </trkpt>
      <trkpt lat="45.56817" lon="6.1589">
        <ele>381.79998779297</ele>
        <time>2022-01-02T09:23:08.000Z</time>
      </trkpt>
      <trkpt lat="45.56808" lon="6.15892">
        <ele>380.60000610352</ele>
        <time>2022-01-02T09:23:09.000Z</time>
      </trkpt>
      <trkpt lat="45.5679" lon="6.15884">
        <ele>379.20001220703</ele>
        <time>2022-01-02T09:23:11.000Z</time>
      </trkpt>
      <trkpt lat="45.56776" lon="6.15868">
        <ele>378</ele>
        <time>2022-01-02T09:23:13.000Z</time>
      </trkpt>
      <trkpt lat="45.56771" lon="6.15859">
        <ele>377.20001220703</ele>
        <time>2022-01-02T09:23:14.000Z</time>
      </trkpt>
      <trkpt lat="45.56766" lon="6.1585">
        <ele>376.20001220703</ele>
        <time>2022-01-02T09:23:15.000Z</time>
      </trkpt>
      <trkpt lat="45.56761" lon="6.1583">
        <ele>375</ele>
        <time>2022-01-02T09:23:17.000Z</time>
      </trkpt>
      <trkpt lat="45.5675" lon="6.15816">
        <ele>373.60000610352</ele>
        <time>2022-01-02T09:23:19.000Z</time>
      </trkpt>
      <trkpt lat="45.56736" lon="6.15802">
        <ele>372.39999389648</ele>
        <time>2022-01-02T09:23:21.000Z</time>
      </trkpt>
      <trkpt lat="45.56732" lon="6.15792">
        <ele>372</ele>
        <time>2022-01-02T09:23:22.000Z</time>
      </trkpt>
      <trkpt lat="45.56721" lon="6.15773">
        <ele>371</ele>
        <time>2022-01-02T09:23:24.000Z</time>
      </trkpt>
      <trkpt lat="45.56704" lon="6.15743">
        <ele>369.39999389648</ele>
        <time>2022-01-02T09:23:27.000Z</time>
      </trkpt>
      <trkpt lat="45.56691" lon="6.15722">
        <ele>368.20001220703</ele>
        <time>2022-01-02T09:23:29.000Z</time>
      </trkpt>
      <trkpt lat="45.56685" lon="6.15712">
        <ele>367</ele>
        <time>2022-01-02T09:23:30.000Z</time>
      </trkpt>
      <trkpt lat="45.56673" lon="6.15689">
        <ele>365.79998779297</ele>
        <time>2022-01-02T09:23:32.000Z</time>
      </trkpt>
      <trkpt lat="45.5666" lon="6.15666">
        <ele>364.79998779297</ele>
        <time>2022-01-02T09:23:34.000Z</time>
      </trkpt>
      <trkpt lat="45.56654" lon="6.15655">
        <ele>364</ele>
        <time>2022-01-02T09:23:35.000Z</time>
      </trkpt>
      <trkpt lat="45.56647" lon="6.15644">
        <ele>363.60000610352</ele>
        <time>2022-01-02T09:23:36.000Z</time>
      </trkpt>
      <trkpt lat="45.5664" lon="6.15632">
        <ele>362.20001220703</ele>
        <time>2022-01-02T09:23:37.000Z</time>
      </trkpt>
      <trkpt lat="45.56627" lon="6.15609">
        <ele>360.60000610352</ele>
        <time>2022-01-02T09:23:39.000Z</time>
      </trkpt>
      <trkpt lat="45.56613" lon="6.15587">
        <ele>359.39999389648</ele>
        <time>2022-01-02T09:23:41.000Z</time>
      </trkpt>
      <trkpt lat="45.566" lon="6.15567">
        <ele>358.20001220703</ele>
        <time>2022-01-02T09:23:43.000Z</time>
      </trkpt>
      <trkpt lat="45.56585" lon="6.15546">
        <ele>356.60000610352</ele>
        <time>2022-01-02T09:23:45.000Z</time>
      </trkpt>
      <trkpt lat="45.56567" lon="6.15524">
        <ele>355.39999389648</ele>
        <time>2022-01-02T09:23:47.000Z</time>
      </trkpt>
      <trkpt lat="45.5655" lon="6.15504">
        <ele>353.60000610352</ele>
        <time>2022-01-02T09:23:49.000Z</time>
      </trkpt>
      <trkpt lat="45.56543" lon="6.15496">
        <ele>352.39999389648</ele>
        <time>2022-01-02T09:23:50.000Z</time>
      </trkpt>
      <trkpt lat="45.56524" lon="6.15476">
        <ele>351.20001220703</ele>
        <time>2022-01-02T09:23:52.000Z</time>
      </trkpt>
      <trkpt lat="45.56508" lon="6.15459">
        <ele>349.60000610352</ele>
        <time>2022-01-02T09:23:54.000Z</time>
      </trkpt>
      <trkpt lat="45.56501" lon="6.15451">
        <ele>348.20001220703</ele>
        <time>2022-01-02T09:23:55.000Z</time>
      </trkpt>
      <trkpt lat="45.56488" lon="6.15436">
        <ele>346.79998779297</ele>
        <time>2022-01-02T09:23:57.000Z</time>
      </trkpt>
      <trkpt lat="45.56473" lon="6.15425">
        <ele>345.20001220703</ele>
        <time>2022-01-02T09:23:59.000Z</time>
      </trkpt>
      <trkpt lat="45.56466" lon="6.1542">
        <ele>344.20001220703</ele>
        <time>2022-01-02T09:24:00.000Z</time>
      </trkpt>
      <trkpt lat="45.5646" lon="6.15405">
        <ele>342.79998779297</ele>
        <time>2022-01-02T09:24:02.000Z</time>
      </trkpt>
      <trkpt lat="45.5646" lon="6.15386">
        <ele>341.60000610352</ele>
        <time>2022-01-02T09:24:04.000Z</time>
      </trkpt>
      <trkpt lat="45.56459" lon="6.15377">
        <ele>340.79998779297</ele>
        <time>2022-01-02T09:24:05.000Z</time>
      </trkpt>
      <trkpt lat="45.56457" lon="6.15368">
        <ele>340.60000610352</ele>
        <time>2022-01-02T09:24:06.000Z</time>
      </trkpt>
      <trkpt lat="45.56456" lon="6.15359">
        <ele>340.39999389648</ele>
        <time>2022-01-02T09:24:07.000Z</time>
      </trkpt>
      <trkpt lat="45.56454" lon="6.15341">
        <ele>340</ele>
        <time>2022-01-02T09:24:09.000Z</time>
      </trkpt>
      <trkpt lat="45.56453" lon="6.15332">
        <ele>339.79998779297</ele>
        <time>2022-01-02T09:24:10.000Z</time>
      </trkpt>
      <trkpt lat="45.56452" lon="6.15314">
        <ele>339.39999389648</ele>
        <time>2022-01-02T09:24:12.000Z</time>
      </trkpt>
      <trkpt lat="45.56447" lon="6.15249">
        <ele>338.39999389648</ele>
        <time>2022-01-02T09:24:19.000Z</time>
      </trkpt>
      <trkpt lat="45.56446" lon="6.15239">
        <ele>338.20001220703</ele>
        <time>2022-01-02T09:24:20.000Z</time>
      </trkpt>
      <trkpt lat="45.56442" lon="6.15189">
        <ele>337.20001220703</ele>
        <time>2022-01-02T09:24:25.000Z</time>
      </trkpt>
      <trkpt lat="45.5644" lon="6.15148">
        <ele>336.60000610352</ele>
        <time>2022-01-02T09:24:29.000Z</time>
      </trkpt>
      <trkpt lat="45.56439" lon="6.15137">
        <ele>336.20001220703</ele>
        <time>2022-01-02T09:24:30.000Z</time>
      </trkpt>
      <trkpt lat="45.56437" lon="6.15084">
        <ele>334.79998779297</ele>
        <time>2022-01-02T09:24:35.000Z</time>
      </trkpt>
      <trkpt lat="45.56436" lon="6.15051">
        <ele>334</ele>
        <time>2022-01-02T09:24:38.000Z</time>
      </trkpt>
      <trkpt lat="45.56435" lon="6.15039">
        <ele>333.60000610352</ele>
        <time>2022-01-02T09:24:39.000Z</time>
      </trkpt>
      <trkpt lat="45.56429" lon="6.14981">
        <ele>332.60000610352</ele>
        <time>2022-01-02T09:24:44.000Z</time>
      </trkpt>
      <trkpt lat="45.56422" lon="6.14945">
        <ele>331</ele>
        <time>2022-01-02T09:24:47.000Z</time>
      </trkpt>
      <trkpt lat="45.56412" lon="6.14906">
        <ele>329.39999389648</ele>
        <time>2022-01-02T09:24:50.000Z</time>
      </trkpt>
      <trkpt lat="45.56409" lon="6.14893">
        <ele>329.20001220703</ele>
        <time>2022-01-02T09:24:51.000Z</time>
      </trkpt>
      <trkpt lat="45.56406" lon="6.1488">
        <ele>328.39999389648</ele>
        <time>2022-01-02T09:24:52.000Z</time>
      </trkpt>
      <trkpt lat="45.564" lon="6.14852">
        <ele>327.20001220703</ele>
        <time>2022-01-02T09:24:54.000Z</time>
      </trkpt>
      <trkpt lat="45.56394" lon="6.14824">
        <ele>326</ele>
        <time>2022-01-02T09:24:56.000Z</time>
      </trkpt>
      <trkpt lat="45.56391" lon="6.1481">
        <ele>325</ele>
        <time>2022-01-02T09:24:57.000Z</time>
      </trkpt>
      <trkpt lat="45.56389" lon="6.14796">
        <ele>324.60000610352</ele>
        <time>2022-01-02T09:24:58.000Z</time>
      </trkpt>
      <trkpt lat="45.56386" lon="6.14767">
        <ele>322.79998779297</ele>
        <time>2022-01-02T09:25:00.000Z</time>
      </trkpt>
      <trkpt lat="45.56384" lon="6.14739">
        <ele>321.79998779297</ele>
        <time>2022-01-02T09:25:02.000Z</time>
      </trkpt>
      <trkpt lat="45.56384" lon="6.14726">
        <ele>321.39999389648</ele>
        <time>2022-01-02T09:25:03.000Z</time>
      </trkpt>
      <trkpt lat="45.56384" lon="6.14713">
        <ele>320.20001220703</ele>
        <time>2022-01-02T09:25:04.000Z</time>
      </trkpt>
      <trkpt lat="45.56386" lon="6.14687">
        <ele>319.20001220703</ele>
        <time>2022-01-02T09:25:06.000Z</time>
      </trkpt>
      <trkpt lat="45.56389" lon="6.14661">
        <ele>318</ele>
        <time>2022-01-02T09:25:08.000Z</time>
      </trkpt>
      <trkpt lat="45.5639" lon="6.14648">
        <ele>317.39999389648</ele>
        <time>2022-01-02T09:25:09.000Z</time>
      </trkpt>
      <trkpt lat="45.56397" lon="6.14614">
        <ele>316</ele>
        <time>2022-01-02T09:25:12.000Z</time>
      </trkpt>
      <trkpt lat="45.564" lon="6.14603">
        <ele>315.60000610352</ele>
        <time>2022-01-02T09:25:13.000Z</time>
      </trkpt>
      <trkpt lat="45.56408" lon="6.14574">
        <ele>314.79998779297</ele>
        <time>2022-01-02T09:25:16.000Z</time>
      </trkpt>
      <trkpt lat="45.56409" lon="6.14565">
        <ele>314.60000610352</ele>
        <time>2022-01-02T09:25:17.000Z</time>
      </trkpt>
      <trkpt lat="45.5641" lon="6.14556">
        <ele>314.39999389648</ele>
        <time>2022-01-02T09:25:18.000Z</time>
      </trkpt>
      <trkpt lat="45.5641" lon="6.14547">
        <ele>314.20001220703</ele>
        <time>2022-01-02T09:25:19.000Z</time>
      </trkpt>
      <trkpt lat="45.56409" lon="6.14528">
        <ele>314.20001220703</ele>
        <time>2022-01-02T09:25:21.000Z</time>
      </trkpt>
      <trkpt lat="45.56409" lon="6.14518">
        <ele>314</ele>
        <time>2022-01-02T09:25:22.000Z</time>
      </trkpt>
      <trkpt lat="45.56408" lon="6.14497">
        <ele>314</ele>
        <time>2022-01-02T09:25:24.000Z</time>
      </trkpt>
      <trkpt lat="45.56404" lon="6.14476">
        <ele>313.79998779297</ele>
        <time>2022-01-02T09:25:26.000Z</time>
      </trkpt>
      <trkpt lat="45.5639" lon="6.14446">
        <ele>312.60000610352</ele>
        <time>2022-01-02T09:25:29.000Z</time>
      </trkpt>
      <trkpt lat="45.56385" lon="6.14435">
        <ele>312.20001220703</ele>
        <time>2022-01-02T09:25:30.000Z</time>
      </trkpt>
      <trkpt lat="45.56376" lon="6.14414">
        <ele>311.20001220703</ele>
        <time>2022-01-02T09:25:32.000Z</time>
      </trkpt>
      <trkpt lat="45.56363" lon="6.14382">
        <ele>309.79998779297</ele>
        <time>2022-01-02T09:25:35.000Z</time>
      </trkpt>
      <trkpt lat="45.56354" lon="6.1436">
        <ele>308.79998779297</ele>
        <time>2022-01-02T09:25:37.000Z</time>
      </trkpt>
      <trkpt lat="45.5635" lon="6.1435">
        <ele>308.60000610352</ele>
        <time>2022-01-02T09:25:38.000Z</time>
      </trkpt>
      <trkpt lat="45.56346" lon="6.14339">
        <ele>308</ele>
        <time>2022-01-02T09:25:39.000Z</time>
      </trkpt>
      <trkpt lat="45.56333" lon="6.14309">
        <ele>307.20001220703</ele>
        <time>2022-01-02T09:25:42.000Z</time>
      </trkpt>
      <trkpt lat="45.56329" lon="6.14298">
        <ele>307</ele>
        <time>2022-01-02T09:25:43.000Z</time>
      </trkpt>
      <trkpt lat="45.56317" lon="6.14267">
        <ele>305.79998779297</ele>
        <time>2022-01-02T09:25:46.000Z</time>
      </trkpt>
      <trkpt lat="45.56305" lon="6.14234">
        <ele>304.60000610352</ele>
        <time>2022-01-02T09:25:49.000Z</time>
      </trkpt>
      <trkpt lat="45.56301" lon="6.14223">
        <ele>304.39999389648</ele>
        <time>2022-01-02T09:25:50.000Z</time>
      </trkpt>
      <trkpt lat="45.56291" lon="6.14189">
        <ele>303.60000610352</ele>
        <time>2022-01-02T09:25:53.000Z</time>
      </trkpt>
      <trkpt lat="45.56283" lon="6.14153">
        <ele>302.20001220703</ele>
        <time>2022-01-02T09:25:56.000Z</time>
      </trkpt>
      <trkpt lat="45.56275" lon="6.14118">
        <ele>300.79998779297</ele>
        <time>2022-01-02T09:25:59.000Z</time>
      </trkpt>
      <trkpt lat="45.5627" lon="6.14096">
        <ele>300</ele>
        <time>2022-01-02T09:26:01.000Z</time>
      </trkpt>
      <trkpt lat="45.56267" lon="6.14085">
        <ele>299.60000610352</ele>
        <time>2022-01-02T09:26:02.000Z</time>
      </trkpt>
      <trkpt lat="45.56254" lon="6.14034">
        <ele>299</ele>
        <time>2022-01-02T09:26:07.000Z</time>
      </trkpt>
      <trkpt lat="45.56251" lon="6.14025">
        <ele>298.79998779297</ele>
        <time>2022-01-02T09:26:08.000Z</time>
      </trkpt>
      <trkpt lat="45.56245" lon="6.14007">
        <ele>298.60000610352</ele>
        <time>2022-01-02T09:26:10.000Z</time>
      </trkpt>
      <trkpt lat="45.56237" lon="6.13982">
        <ele>298.60000610352</ele>
        <time>2022-01-02T09:26:13.000Z</time>
      </trkpt>
      <trkpt lat="45.56232" lon="6.13964">
        <ele>298.60000610352</ele>
        <time>2022-01-02T09:26:15.000Z</time>
      </trkpt>
      <trkpt lat="45.5623" lon="6.13945">
        <ele>298.60000610352</ele>
        <time>2022-01-02T09:26:17.000Z</time>
      </trkpt>
      <trkpt lat="45.5623" lon="6.13926">
        <ele>298.60000610352</ele>
        <time>2022-01-02T09:26:19.000Z</time>
      </trkpt>
      <trkpt lat="45.56228" lon="6.13864">
        <ele>298</ele>
        <time>2022-01-02T09:26:25.000Z</time>
      </trkpt>
      <trkpt lat="45.56225" lon="6.13853">
        <ele>297.60000610352</ele>
        <time>2022-01-02T09:26:26.000Z</time>
      </trkpt>
      <trkpt lat="45.56214" lon="6.13819">
        <ele>296.20001220703</ele>
        <time>2022-01-02T09:26:29.000Z</time>
      </trkpt>
      <trkpt lat="45.5621" lon="6.13808">
        <ele>296</ele>
        <time>2022-01-02T09:26:30.000Z</time>
      </trkpt>
      <trkpt lat="45.562" lon="6.13786">
        <ele>295</ele>
        <time>2022-01-02T09:26:32.000Z</time>
      </trkpt>
      <trkpt lat="45.56185" lon="6.13756">
        <ele>294.20001220703</ele>
        <time>2022-01-02T09:26:35.000Z</time>
      </trkpt>
      <trkpt lat="45.56179" lon="6.13745">
        <ele>293.39999389648</ele>
        <time>2022-01-02T09:26:36.000Z</time>
      </trkpt>
      <trkpt lat="45.56175" lon="6.13736">
        <ele>292.79998779297</ele>
        <time>2022-01-02T09:26:37.000Z</time>
      </trkpt>
      <trkpt lat="45.56167" lon="6.13709">
        <ele>291.79998779297</ele>
        <time>2022-01-02T09:26:39.000Z</time>
      </trkpt>
      <trkpt lat="45.56162" lon="6.13671">
        <ele>290.60000610352</ele>
        <time>2022-01-02T09:26:42.000Z</time>
      </trkpt>
      <trkpt lat="45.56159" lon="6.13659">
        <ele>290.39999389648</ele>
        <time>2022-01-02T09:26:43.000Z</time>
      </trkpt>
      <trkpt lat="45.56154" lon="6.13647">
        <ele>290</ele>
        <time>2022-01-02T09:26:44.000Z</time>
      </trkpt>
      <trkpt lat="45.56143" lon="6.13626">
        <ele>289</ele>
        <time>2022-01-02T09:26:46.000Z</time>
      </trkpt>
      <trkpt lat="45.56131" lon="6.13606">
        <ele>288.20001220703</ele>
        <time>2022-01-02T09:26:48.000Z</time>
      </trkpt>
      <trkpt lat="45.56124" lon="6.13596">
        <ele>287.39999389648</ele>
        <time>2022-01-02T09:26:49.000Z</time>
      </trkpt>
      <trkpt lat="45.56103" lon="6.13574">
        <ele>286</ele>
        <time>2022-01-02T09:26:52.000Z</time>
      </trkpt>
      <trkpt lat="45.56079" lon="6.13547">
        <ele>285</ele>
        <time>2022-01-02T09:26:56.000Z</time>
      </trkpt>
      <trkpt lat="45.56067" lon="6.13531">
        <ele>284.60000610352</ele>
        <time>2022-01-02T09:26:58.000Z</time>
      </trkpt>
      <trkpt lat="45.56044" lon="6.13486">
        <ele>284.39999389648</ele>
        <time>2022-01-02T09:27:04.000Z</time>
      </trkpt>
      <trkpt lat="45.5603" lon="6.1346">
        <ele>285</ele>
        <time>2022-01-02T09:27:08.000Z</time>
      </trkpt>
      <trkpt lat="45.56024" lon="6.1345">
        <ele>285.20001220703</ele>
        <time>2022-01-02T09:27:10.000Z</time>
      </trkpt>
      <trkpt lat="45.56009" lon="6.13426">
        <ele>286</ele>
        <time>2022-01-02T09:27:14.000Z</time>
      </trkpt>
      <trkpt lat="45.55999" lon="6.1341">
        <ele>286.60000610352</ele>
        <time>2022-01-02T09:27:17.000Z</time>
      </trkpt>
      <trkpt lat="45.55987" lon="6.13392">
        <ele>287.20001220703</ele>
        <time>2022-01-02T09:27:20.000Z</time>
      </trkpt>
      <trkpt lat="45.55968" lon="6.13363">
        <ele>287.79998779297</ele>
        <time>2022-01-02T09:27:25.000Z</time>
      </trkpt>
      <trkpt lat="45.55961" lon="6.13354">
        <ele>288.20001220703</ele>
        <time>2022-01-02T09:27:27.000Z</time>
      </trkpt>
      <trkpt lat="45.55957" lon="6.13349">
        <ele>288.20001220703</ele>
        <time>2022-01-02T09:27:28.000Z</time>
      </trkpt>
      <trkpt lat="45.55943" lon="6.13338">
        <ele>288.60000610352</ele>
        <time>2022-01-02T09:27:31.000Z</time>
      </trkpt>
      <trkpt lat="45.55917" lon="6.13323">
        <ele>289.20001220703</ele>
        <time>2022-01-02T09:27:36.000Z</time>
      </trkpt>
      <trkpt lat="45.55906" lon="6.13315">
        <ele>289.39999389648</ele>
        <time>2022-01-02T09:27:38.000Z</time>
      </trkpt>
      <trkpt lat="45.55897" lon="6.13308">
        <ele>289.60000610352</ele>
        <time>2022-01-02T09:27:40.000Z</time>
      </trkpt>
      <trkpt lat="45.55878" lon="6.13288">
        <ele>290</ele>
        <time>2022-01-02T09:27:44.000Z</time>
      </trkpt>
      <trkpt lat="45.55853" lon="6.13252">
        <ele>290.20001220703</ele>
        <time>2022-01-02T09:27:50.000Z</time>
      </trkpt>
      <trkpt lat="45.55845" lon="6.1324">
        <ele>290.39999389648</ele>
        <time>2022-01-02T09:27:52.000Z</time>
      </trkpt>
      <trkpt lat="45.55811" lon="6.13187">
        <ele>291.20001220703</ele>
        <time>2022-01-02T09:28:01.000Z</time>
      </trkpt>
      <trkpt lat="45.5578" lon="6.13146">
        <ele>291.39999389648</ele>
        <time>2022-01-02T09:28:08.000Z</time>
      </trkpt>
      <trkpt lat="45.55741" lon="6.13104">
        <ele>291</ele>
        <time>2022-01-02T09:28:15.000Z</time>
      </trkpt>
      <trkpt lat="45.55719" lon="6.13078">
        <ele>289.79998779297</ele>
        <time>2022-01-02T09:28:19.000Z</time>
      </trkpt>
      <trkpt lat="45.55709" lon="6.13064">
        <ele>289.39999389648</ele>
        <time>2022-01-02T09:28:21.000Z</time>
      </trkpt>
      <trkpt lat="45.55694" lon="6.13032">
        <ele>288.79998779297</ele>
        <time>2022-01-02T09:28:25.000Z</time>
      </trkpt>
      <trkpt lat="45.55678" lon="6.12998">
        <ele>288.39999389648</ele>
        <time>2022-01-02T09:28:29.000Z</time>
      </trkpt>
      <trkpt lat="45.55647" lon="6.12927">
        <ele>287.39999389648</ele>
        <time>2022-01-02T09:28:37.000Z</time>
      </trkpt>
      <trkpt lat="45.55643" lon="6.12918">
        <ele>287.20001220703</ele>
        <time>2022-01-02T09:28:38.000Z</time>
      </trkpt>
      <trkpt lat="45.55627" lon="6.12883">
        <ele>286.20001220703</ele>
        <time>2022-01-02T09:28:42.000Z</time>
      </trkpt>
      <trkpt lat="45.55609" lon="6.12841">
        <ele>285.79998779297</ele>
        <time>2022-01-02T09:28:47.000Z</time>
      </trkpt>
      <trkpt lat="45.55605" lon="6.12832">
        <ele>285.79998779297</ele>
        <time>2022-01-02T09:28:48.000Z</time>
      </trkpt>
      <trkpt lat="45.55578" lon="6.1277">
        <ele>285.39999389648</ele>
        <time>2022-01-02T09:28:55.000Z</time>
      </trkpt>
      <trkpt lat="45.5557" lon="6.12751">
        <ele>285</ele>
        <time>2022-01-02T09:28:57.000Z</time>
      </trkpt>
      <trkpt lat="45.55562" lon="6.12733">
        <ele>284.39999389648</ele>
        <time>2022-01-02T09:28:59.000Z</time>
      </trkpt>
      <trkpt lat="45.55556" lon="6.12726">
        <ele>284.39999389648</ele>
        <time>2022-01-02T09:29:00.000Z</time>
      </trkpt>
      <trkpt lat="45.5555" lon="6.1272">
        <ele>284</ele>
        <time>2022-01-02T09:29:01.000Z</time>
      </trkpt>
      <trkpt lat="45.55545" lon="6.12714">
        <ele>284</ele>
        <time>2022-01-02T09:29:02.000Z</time>
      </trkpt>
      <trkpt lat="45.55539" lon="6.12707">
        <ele>283.79998779297</ele>
        <time>2022-01-02T09:29:03.000Z</time>
      </trkpt>
      <trkpt lat="45.55534" lon="6.127">
        <ele>283.79998779297</ele>
        <time>2022-01-02T09:29:04.000Z</time>
      </trkpt>
      <trkpt lat="45.55518" lon="6.12681">
        <ele>282.60000610352</ele>
        <time>2022-01-02T09:29:07.000Z</time>
      </trkpt>
      <trkpt lat="45.55514" lon="6.12677">
        <ele>282.39999389648</ele>
        <time>2022-01-02T09:29:08.000Z</time>
      </trkpt>
      <trkpt lat="45.55509" lon="6.12673">
        <ele>281.79998779297</ele>
        <time>2022-01-02T09:29:09.000Z</time>
      </trkpt>
      <trkpt lat="45.555" lon="6.12669">
        <ele>281.39999389648</ele>
        <time>2022-01-02T09:29:11.000Z</time>
      </trkpt>
      <trkpt lat="45.55482" lon="6.12662">
        <ele>281</ele>
        <time>2022-01-02T09:29:14.000Z</time>
      </trkpt>
      <trkpt lat="45.55471" lon="6.12655">
        <ele>280.79998779297</ele>
        <time>2022-01-02T09:29:16.000Z</time>
      </trkpt>
      <trkpt lat="45.55453" lon="6.12648">
        <ele>280.39999389648</ele>
        <time>2022-01-02T09:29:19.000Z</time>
      </trkpt>
      <trkpt lat="45.55448" lon="6.12646">
        <ele>280.20001220703</ele>
        <time>2022-01-02T09:29:20.000Z</time>
      </trkpt>
      <trkpt lat="45.55432" lon="6.12634">
        <ele>279.20001220703</ele>
        <time>2022-01-02T09:29:23.000Z</time>
      </trkpt>
      <trkpt lat="45.55405" lon="6.12596">
        <ele>278.20001220703</ele>
        <time>2022-01-02T09:29:29.000Z</time>
      </trkpt>
      <trkpt lat="45.55401" lon="6.1259">
        <ele>278.20001220703</ele>
        <time>2022-01-02T09:29:30.000Z</time>
      </trkpt>
      <trkpt lat="45.55386" lon="6.12562">
        <ele>278</ele>
        <time>2022-01-02T09:29:34.000Z</time>
      </trkpt>
      <trkpt lat="45.55368" lon="6.1252">
        <ele>278.20001220703</ele>
        <time>2022-01-02T09:29:40.000Z</time>
      </trkpt>
      <trkpt lat="45.55355" lon="6.12491">
        <ele>278.20001220703</ele>
        <time>2022-01-02T09:29:44.000Z</time>
      </trkpt>
      <trkpt lat="45.55345" lon="6.12469">
        <ele>277.79998779297</ele>
        <time>2022-01-02T09:29:47.000Z</time>
      </trkpt>
      <trkpt lat="45.55332" lon="6.12439">
        <ele>277.60000610352</ele>
        <time>2022-01-02T09:29:51.000Z</time>
      </trkpt>
      <trkpt lat="45.55329" lon="6.12432">
        <ele>277.39999389648</ele>
        <time>2022-01-02T09:29:52.000Z</time>
      </trkpt>
      <trkpt lat="45.55302" lon="6.1237">
        <ele>277</ele>
        <time>2022-01-02T09:30:00.000Z</time>
      </trkpt>
      <trkpt lat="45.55298" lon="6.12363">
        <ele>277</ele>
        <time>2022-01-02T09:30:01.000Z</time>
      </trkpt>
      <trkpt lat="45.55279" lon="6.12338">
        <ele>277</ele>
        <time>2022-01-02T09:30:05.000Z</time>
      </trkpt>
      <trkpt lat="45.55252" lon="6.12307">
        <ele>277.20001220703</ele>
        <time>2022-01-02T09:30:11.000Z</time>
      </trkpt>
      <trkpt lat="45.55231" lon="6.12284">
        <ele>278</ele>
        <time>2022-01-02T09:30:17.000Z</time>
      </trkpt>
      <trkpt lat="45.55218" lon="6.12268">
        <ele>279</ele>
        <time>2022-01-02T09:30:22.000Z</time>
      </trkpt>
      <trkpt lat="45.55215" lon="6.12265">
        <ele>279</ele>
        <time>2022-01-02T09:30:23.000Z</time>
      </trkpt>
      <trkpt lat="45.55201" lon="6.12246">
        <ele>280.20001220703</ele>
        <time>2022-01-02T09:30:28.000Z</time>
      </trkpt>
      <trkpt lat="45.55195" lon="6.12239">
        <ele>280.60000610352</ele>
        <time>2022-01-02T09:30:30.000Z</time>
      </trkpt>
      <trkpt lat="45.55189" lon="6.12232">
        <ele>281.20001220703</ele>
        <time>2022-01-02T09:30:32.000Z</time>
      </trkpt>
      <trkpt lat="45.55174" lon="6.12217">
        <ele>282.39999389648</ele>
        <time>2022-01-02T09:30:37.000Z</time>
      </trkpt>
      <trkpt lat="45.55163" lon="6.12205">
        <ele>283.20001220703</ele>
        <time>2022-01-02T09:30:41.000Z</time>
      </trkpt>
      <trkpt lat="45.55161" lon="6.12202">
        <ele>283.20001220703</ele>
        <time>2022-01-02T09:30:42.000Z</time>
      </trkpt>
      <trkpt lat="45.5515" lon="6.12189">
        <ele>284.20001220703</ele>
        <time>2022-01-02T09:30:46.000Z</time>
      </trkpt>
      <trkpt lat="45.55142" lon="6.12182">
        <ele>285.20001220703</ele>
        <time>2022-01-02T09:30:49.000Z</time>
      </trkpt>
      <trkpt lat="45.55137" lon="6.12177">
        <ele>285.60000610352</ele>
        <time>2022-01-02T09:30:51.000Z</time>
      </trkpt>
      <trkpt lat="45.55126" lon="6.12165">
        <ele>286.60000610352</ele>
        <time>2022-01-02T09:30:55.000Z</time>
      </trkpt>
      <trkpt lat="45.55121" lon="6.12159">
        <ele>287.20001220703</ele>
        <time>2022-01-02T09:30:57.000Z</time>
      </trkpt>
      <trkpt lat="45.55115" lon="6.12153">
        <ele>287.60000610352</ele>
        <time>2022-01-02T09:30:59.000Z</time>
      </trkpt>
      <trkpt lat="45.55102" lon="6.12139">
        <ele>288.79998779297</ele>
        <time>2022-01-02T09:31:04.000Z</time>
      </trkpt>
      <trkpt lat="45.55099" lon="6.12135">
        <ele>289</ele>
        <time>2022-01-02T09:31:05.000Z</time>
      </trkpt>
      <trkpt lat="45.55087" lon="6.12119">
        <ele>289.79998779297</ele>
        <time>2022-01-02T09:31:10.000Z</time>
      </trkpt>
      <trkpt lat="45.55078" lon="6.12106">
        <ele>291</ele>
        <time>2022-01-02T09:31:14.000Z</time>
      </trkpt>
      <trkpt lat="45.55072" lon="6.121">
        <ele>291.39999389648</ele>
        <time>2022-01-02T09:31:16.000Z</time>
      </trkpt>
      <trkpt lat="45.55063" lon="6.12091">
        <ele>292</ele>
        <time>2022-01-02T09:31:19.000Z</time>
      </trkpt>
      <trkpt lat="45.55048" lon="6.12075">
        <ele>293.20001220703</ele>
        <time>2022-01-02T09:31:24.000Z</time>
      </trkpt>
      <trkpt lat="45.55046" lon="6.12071">
        <ele>293.39999389648</ele>
        <time>2022-01-02T09:31:25.000Z</time>
      </trkpt>
      <trkpt lat="45.55032" lon="6.12056">
        <ele>294.20001220703</ele>
        <time>2022-01-02T09:31:30.000Z</time>
      </trkpt>
      <trkpt lat="45.55019" lon="6.12041">
        <ele>295.20001220703</ele>
        <time>2022-01-02T09:31:35.000Z</time>
      </trkpt>
      <trkpt lat="45.55016" lon="6.12038">
        <ele>295.60000610352</ele>
        <time>2022-01-02T09:31:36.000Z</time>
      </trkpt>
      <trkpt lat="45.55005" lon="6.12025">
        <ele>296.60000610352</ele>
        <time>2022-01-02T09:31:40.000Z</time>
      </trkpt>
      <trkpt lat="45.54995" lon="6.12012">
        <ele>297.79998779297</ele>
        <time>2022-01-02T09:31:44.000Z</time>
      </trkpt>
      <trkpt lat="45.54989" lon="6.12005">
        <ele>298.20001220703</ele>
        <time>2022-01-02T09:31:46.000Z</time>
      </trkpt>
      <trkpt lat="45.54978" lon="6.11993">
        <ele>298.79998779297</ele>
        <time>2022-01-02T09:31:50.000Z</time>
      </trkpt>
      <trkpt lat="45.54962" lon="6.11974">
        <ele>299.79998779297</ele>
        <time>2022-01-02T09:31:56.000Z</time>
      </trkpt>
      <trkpt lat="45.54959" lon="6.11971">
        <ele>300</ele>
        <time>2022-01-02T09:31:57.000Z</time>
      </trkpt>
      <trkpt lat="45.54941" lon="6.11949">
        <ele>301.39999389648</ele>
        <time>2022-01-02T09:32:04.000Z</time>
      </trkpt>
      <trkpt lat="45.54935" lon="6.11944">
        <ele>301.60000610352</ele>
        <time>2022-01-02T09:32:06.000Z</time>
      </trkpt>
      <trkpt lat="45.54928" lon="6.11936">
        <ele>302.39999389648</ele>
        <time>2022-01-02T09:32:09.000Z</time>
      </trkpt>
      <trkpt lat="45.54918" lon="6.11927">
        <ele>303</ele>
        <time>2022-01-02T09:32:13.000Z</time>
      </trkpt>
      <trkpt lat="45.5491" lon="6.1192">
        <ele>303.60000610352</ele>
        <time>2022-01-02T09:32:16.000Z</time>
      </trkpt>
      <trkpt lat="45.54895" lon="6.11905">
        <ele>304.39999389648</ele>
        <time>2022-01-02T09:32:22.000Z</time>
      </trkpt>
      <trkpt lat="45.54889" lon="6.11898">
        <ele>304.79998779297</ele>
        <time>2022-01-02T09:32:24.000Z</time>
      </trkpt>
      <trkpt lat="45.54872" lon="6.11881">
        <ele>305.79998779297</ele>
        <time>2022-01-02T09:32:29.000Z</time>
      </trkpt>
      <trkpt lat="45.54869" lon="6.11878">
        <ele>306</ele>
        <time>2022-01-02T09:32:30.000Z</time>
      </trkpt>
      <trkpt lat="45.54857" lon="6.11866">
        <ele>307</ele>
        <time>2022-01-02T09:32:34.000Z</time>
      </trkpt>
      <trkpt lat="45.54842" lon="6.11852">
        <ele>308.20001220703</ele>
        <time>2022-01-02T09:32:39.000Z</time>
      </trkpt>
      <trkpt lat="45.54826" lon="6.11836">
        <ele>309</ele>
        <time>2022-01-02T09:32:45.000Z</time>
      </trkpt>
      <trkpt lat="45.54824" lon="6.11834">
        <ele>309.20001220703</ele>
        <time>2022-01-02T09:32:46.000Z</time>
      </trkpt>
      <trkpt lat="45.54815" lon="6.11826">
        <ele>310.20001220703</ele>
        <time>2022-01-02T09:32:49.000Z</time>
      </trkpt>
      <trkpt lat="45.54804" lon="6.11815">
        <ele>311.39999389648</ele>
        <time>2022-01-02T09:32:53.000Z</time>
      </trkpt>
      <trkpt lat="45.54799" lon="6.11809">
        <ele>311.79998779297</ele>
        <time>2022-01-02T09:32:55.000Z</time>
      </trkpt>
      <trkpt lat="45.54792" lon="6.11802">
        <ele>312.39999389648</ele>
        <time>2022-01-02T09:32:58.000Z</time>
      </trkpt>
      <trkpt lat="45.54777" lon="6.11786">
        <ele>313.60000610352</ele>
        <time>2022-01-02T09:33:04.000Z</time>
      </trkpt>
      <trkpt lat="45.5477" lon="6.11778">
        <ele>314.39999389648</ele>
        <time>2022-01-02T09:33:07.000Z</time>
      </trkpt>
      <trkpt lat="45.54767" lon="6.11775">
        <ele>314.79998779297</ele>
        <time>2022-01-02T09:33:08.000Z</time>
      </trkpt>
      <trkpt lat="45.54756" lon="6.11761">
        <ele>316</ele>
        <time>2022-01-02T09:33:13.000Z</time>
      </trkpt>
      <trkpt lat="45.54753" lon="6.11759">
        <ele>316.39999389648</ele>
        <time>2022-01-02T09:33:14.000Z</time>
      </trkpt>
      <trkpt lat="45.54748" lon="6.11754">
        <ele>317</ele>
        <time>2022-01-02T09:33:16.000Z</time>
      </trkpt>
      <trkpt lat="45.54746" lon="6.11752">
        <ele>317.20001220703</ele>
        <time>2022-01-02T09:33:17.000Z</time>
      </trkpt>
      <trkpt lat="45.54739" lon="6.11744">
        <ele>318.20001220703</ele>
        <time>2022-01-02T09:33:20.000Z</time>
      </trkpt>
      <trkpt lat="45.54728" lon="6.11734">
        <ele>319.39999389648</ele>
        <time>2022-01-02T09:33:24.000Z</time>
      </trkpt>
      <trkpt lat="45.54722" lon="6.11729">
        <ele>320</ele>
        <time>2022-01-02T09:33:26.000Z</time>
      </trkpt>
      <trkpt lat="45.54716" lon="6.11724">
        <ele>320.60000610352</ele>
        <time>2022-01-02T09:33:28.000Z</time>
      </trkpt>
      <trkpt lat="45.54706" lon="6.11713">
        <ele>321.79998779297</ele>
        <time>2022-01-02T09:33:32.000Z</time>
      </trkpt>
      <trkpt lat="45.54698" lon="6.11707">
        <ele>322.20001220703</ele>
        <time>2022-01-02T09:33:35.000Z</time>
      </trkpt>
      <trkpt lat="45.54689" lon="6.11698">
        <ele>323.20001220703</ele>
        <time>2022-01-02T09:33:38.000Z</time>
      </trkpt>
      <trkpt lat="45.5468" lon="6.11691">
        <ele>323.79998779297</ele>
        <time>2022-01-02T09:33:41.000Z</time>
      </trkpt>
      <trkpt lat="45.54674" lon="6.11685">
        <ele>324</ele>
        <time>2022-01-02T09:33:43.000Z</time>
      </trkpt>
      <trkpt lat="45.54666" lon="6.11678">
        <ele>325</ele>
        <time>2022-01-02T09:33:46.000Z</time>
      </trkpt>
      <trkpt lat="45.54661" lon="6.11673">
        <ele>325.60000610352</ele>
        <time>2022-01-02T09:33:48.000Z</time>
      </trkpt>
      <trkpt lat="45.54658" lon="6.11671">
        <ele>326.20001220703</ele>
        <time>2022-01-02T09:33:49.000Z</time>
      </trkpt>
      <trkpt lat="45.54648" lon="6.11661">
        <ele>327.39999389648</ele>
        <time>2022-01-02T09:33:53.000Z</time>
      </trkpt>
      <trkpt lat="45.54634" lon="6.11648">
        <ele>328.60000610352</ele>
        <time>2022-01-02T09:33:58.000Z</time>
      </trkpt>
      <trkpt lat="45.54625" lon="6.11641">
        <ele>329.20001220703</ele>
        <time>2022-01-02T09:34:01.000Z</time>
      </trkpt>
      <trkpt lat="45.54619" lon="6.11635">
        <ele>329.60000610352</ele>
        <time>2022-01-02T09:34:03.000Z</time>
      </trkpt>
      <trkpt lat="45.54605" lon="6.11622">
        <ele>331</ele>
        <time>2022-01-02T09:34:08.000Z</time>
      </trkpt>
      <trkpt lat="45.54597" lon="6.11612">
        <ele>331.60000610352</ele>
        <time>2022-01-02T09:34:11.000Z</time>
      </trkpt>
      <trkpt lat="45.54589" lon="6.11603">
        <ele>332</ele>
        <time>2022-01-02T09:34:14.000Z</time>
      </trkpt>
      <trkpt lat="45.54572" lon="6.11582">
        <ele>332.79998779297</ele>
        <time>2022-01-02T09:34:20.000Z</time>
      </trkpt>
      <trkpt lat="45.5455" lon="6.11558">
        <ele>332.79998779297</ele>
        <time>2022-01-02T09:34:26.000Z</time>
      </trkpt>
      <trkpt lat="45.54524" lon="6.11528">
        <ele>332.20001220703</ele>
        <time>2022-01-02T09:34:32.000Z</time>
      </trkpt>
      <trkpt lat="45.54489" lon="6.11489">
        <ele>330.79998779297</ele>
        <time>2022-01-02T09:34:38.000Z</time>
      </trkpt>
      <trkpt lat="45.54483" lon="6.11482">
        <ele>330.79998779297</ele>
        <time>2022-01-02T09:34:39.000Z</time>
      </trkpt>
      <trkpt lat="45.54457" lon="6.11454">
        <ele>329.60000610352</ele>
        <time>2022-01-02T09:34:43.000Z</time>
      </trkpt>
      <trkpt lat="45.54438" lon="6.11434">
        <ele>328.20001220703</ele>
        <time>2022-01-02T09:34:46.000Z</time>
      </trkpt>
      <trkpt lat="45.54407" lon="6.11401">
        <ele>327.20001220703</ele>
        <time>2022-01-02T09:34:51.000Z</time>
      </trkpt>
      <trkpt lat="45.54389" lon="6.11382">
        <ele>327</ele>
        <time>2022-01-02T09:34:54.000Z</time>
      </trkpt>
      <trkpt lat="45.54378" lon="6.1137">
        <ele>326.79998779297</ele>
        <time>2022-01-02T09:34:56.000Z</time>
      </trkpt>
      <trkpt lat="45.54345" lon="6.11334">
        <ele>326.39999389648</ele>
        <time>2022-01-02T09:35:02.000Z</time>
      </trkpt>
      <trkpt lat="45.54339" lon="6.11328">
        <ele>326.39999389648</ele>
        <time>2022-01-02T09:35:03.000Z</time>
      </trkpt>
      <trkpt lat="45.54292" lon="6.11278">
        <ele>326.20001220703</ele>
        <time>2022-01-02T09:35:12.000Z</time>
      </trkpt>
      <trkpt lat="45.54248" lon="6.1123">
        <ele>326.79998779297</ele>
        <time>2022-01-02T09:35:21.000Z</time>
      </trkpt>
      <trkpt lat="45.54205" lon="6.11185">
        <ele>327.39999389648</ele>
        <time>2022-01-02T09:35:30.000Z</time>
      </trkpt>
      <trkpt lat="45.54195" lon="6.11174">
        <ele>327.60000610352</ele>
        <time>2022-01-02T09:35:32.000Z</time>
      </trkpt>
      <trkpt lat="45.54161" lon="6.11139">
        <ele>328</ele>
        <time>2022-01-02T09:35:39.000Z</time>
      </trkpt>
      <trkpt lat="45.54132" lon="6.11109">
        <ele>328.39999389648</ele>
        <time>2022-01-02T09:35:45.000Z</time>
      </trkpt>
      <trkpt lat="45.54124" lon="6.11101">
        <ele>328.60000610352</ele>
        <time>2022-01-02T09:35:47.000Z</time>
      </trkpt>
      <trkpt lat="45.54104" lon="6.11079">
        <ele>329.39999389648</ele>
        <time>2022-01-02T09:35:52.000Z</time>
      </trkpt>
      <trkpt lat="45.54095" lon="6.11071">
        <ele>329.79998779297</ele>
        <time>2022-01-02T09:35:54.000Z</time>
      </trkpt>
      <trkpt lat="45.5408" lon="6.11055">
        <ele>330.79998779297</ele>
        <time>2022-01-02T09:35:58.000Z</time>
      </trkpt>
      <trkpt lat="45.54065" lon="6.11039">
        <ele>331.60000610352</ele>
        <time>2022-01-02T09:36:02.000Z</time>
      </trkpt>
      <trkpt lat="45.54061" lon="6.11035">
        <ele>331.79998779297</ele>
        <time>2022-01-02T09:36:03.000Z</time>
      </trkpt>
      <trkpt lat="45.54046" lon="6.1102">
        <ele>333</ele>
        <time>2022-01-02T09:36:07.000Z</time>
      </trkpt>
      <trkpt lat="45.54035" lon="6.11009">
        <ele>334.20001220703</ele>
        <time>2022-01-02T09:36:10.000Z</time>
      </trkpt>
      <trkpt lat="45.54031" lon="6.11005">
        <ele>334.39999389648</ele>
        <time>2022-01-02T09:36:11.000Z</time>
      </trkpt>
      <trkpt lat="45.54014" lon="6.10985">
        <ele>335.39999389648</ele>
        <time>2022-01-02T09:36:16.000Z</time>
      </trkpt>
      <trkpt lat="45.54006" lon="6.10978">
        <ele>336</ele>
        <time>2022-01-02T09:36:18.000Z</time>
      </trkpt>
      <trkpt lat="45.54003" lon="6.10975">
        <ele>336.39999389648</ele>
        <time>2022-01-02T09:36:19.000Z</time>
      </trkpt>
      <trkpt lat="45.54" lon="6.10973">
        <ele>336.79998779297</ele>
        <time>2022-01-02T09:36:20.000Z</time>
      </trkpt>
      <trkpt lat="45.53991" lon="6.10968">
        <ele>337.39999389648</ele>
        <time>2022-01-02T09:36:22.000Z</time>
      </trkpt>
      <trkpt lat="45.53988" lon="6.10965">
        <ele>337.60000610352</ele>
        <time>2022-01-02T09:36:23.000Z</time>
      </trkpt>
      <trkpt lat="45.53982" lon="6.10958">
        <ele>338</ele>
        <time>2022-01-02T09:36:25.000Z</time>
      </trkpt>
      <trkpt lat="45.53971" lon="6.10944">
        <ele>338.79998779297</ele>
        <time>2022-01-02T09:36:28.000Z</time>
      </trkpt>
      <trkpt lat="45.53957" lon="6.10928">
        <ele>340</ele>
        <time>2022-01-02T09:36:32.000Z</time>
      </trkpt>
      <trkpt lat="45.53943" lon="6.10913">
        <ele>341.20001220703</ele>
        <time>2022-01-02T09:36:36.000Z</time>
      </trkpt>
      <trkpt lat="45.53928" lon="6.10897">
        <ele>342.20001220703</ele>
        <time>2022-01-02T09:36:40.000Z</time>
      </trkpt>
      <trkpt lat="45.53924" lon="6.10893">
        <ele>342.20001220703</ele>
        <time>2022-01-02T09:36:41.000Z</time>
      </trkpt>
      <trkpt lat="45.53892" lon="6.10855">
        <ele>343</ele>
        <time>2022-01-02T09:36:49.000Z</time>
      </trkpt>
      <trkpt lat="45.53863" lon="6.10822">
        <ele>342.79998779297</ele>
        <time>2022-01-02T09:36:55.000Z</time>
      </trkpt>
      <trkpt lat="45.53825" lon="6.10781">
        <ele>342</ele>
        <time>2022-01-02T09:37:03.000Z</time>
      </trkpt>
      <trkpt lat="45.53812" lon="6.10767">
        <ele>341.79998779297</ele>
        <time>2022-01-02T09:37:06.000Z</time>
      </trkpt>
      <trkpt lat="45.53804" lon="6.10756">
        <ele>341.79998779297</ele>
        <time>2022-01-02T09:37:08.000Z</time>
      </trkpt>
      <trkpt lat="45.53787" lon="6.10727">
        <ele>341.60000610352</ele>
        <time>2022-01-02T09:37:12.000Z</time>
      </trkpt>
      <trkpt lat="45.53769" lon="6.10693">
        <ele>341.20001220703</ele>
        <time>2022-01-02T09:37:17.000Z</time>
      </trkpt>
      <trkpt lat="45.53763" lon="6.10681">
        <ele>341</ele>
        <time>2022-01-02T09:37:19.000Z</time>
      </trkpt>
      <trkpt lat="45.53754" lon="6.10666">
        <ele>341</ele>
        <time>2022-01-02T09:37:21.000Z</time>
      </trkpt>
      <trkpt lat="45.53746" lon="6.10653">
        <ele>340.79998779297</ele>
        <time>2022-01-02T09:37:23.000Z</time>
      </trkpt>
      <trkpt lat="45.53717" lon="6.10605">
        <ele>340.60000610352</ele>
        <time>2022-01-02T09:37:30.000Z</time>
      </trkpt>
      <trkpt lat="45.53679" lon="6.10549">
        <ele>340.60000610352</ele>
        <time>2022-01-02T09:37:39.000Z</time>
      </trkpt>
      <trkpt lat="45.53675" lon="6.10544">
        <ele>340.60000610352</ele>
        <time>2022-01-02T09:37:40.000Z</time>
      </trkpt>
      <trkpt lat="45.5366" lon="6.10531">
        <ele>340.79998779297</ele>
        <time>2022-01-02T09:37:43.000Z</time>
      </trkpt>
      <trkpt lat="45.53655" lon="6.10527">
        <ele>341</ele>
        <time>2022-01-02T09:37:44.000Z</time>
      </trkpt>
      <trkpt lat="45.53631" lon="6.10507">
        <ele>341.79998779297</ele>
        <time>2022-01-02T09:37:49.000Z</time>
      </trkpt>
      <trkpt lat="45.53621" lon="6.10499">
        <ele>342.20001220703</ele>
        <time>2022-01-02T09:37:51.000Z</time>
      </trkpt>
      <trkpt lat="45.53616" lon="6.10495">
        <ele>342.39999389648</ele>
        <time>2022-01-02T09:37:52.000Z</time>
      </trkpt>
      <trkpt lat="45.53591" lon="6.10473">
        <ele>343.39999389648</ele>
        <time>2022-01-02T09:37:57.000Z</time>
      </trkpt>
      <trkpt lat="45.53575" lon="6.10459">
        <ele>343.79998779297</ele>
        <time>2022-01-02T09:38:00.000Z</time>
      </trkpt>
      <trkpt lat="45.53548" lon="6.10438">
        <ele>344.39999389648</ele>
        <time>2022-01-02T09:38:05.000Z</time>
      </trkpt>
      <trkpt lat="45.53533" lon="6.10425">
        <ele>344.60000610352</ele>
        <time>2022-01-02T09:38:08.000Z</time>
      </trkpt>
      <trkpt lat="45.53498" lon="6.10392">
        <ele>344.60000610352</ele>
        <time>2022-01-02T09:38:15.000Z</time>
      </trkpt>
      <trkpt lat="45.53449" lon="6.10348">
        <ele>344.79998779297</ele>
        <time>2022-01-02T09:38:25.000Z</time>
      </trkpt>
      <trkpt lat="45.53445" lon="6.10344">
        <ele>344.79998779297</ele>
        <time>2022-01-02T09:38:26.000Z</time>
      </trkpt>
      <trkpt lat="45.53419" lon="6.10323">
        <ele>344.79998779297</ele>
        <time>2022-01-02T09:38:31.000Z</time>
      </trkpt>
      <trkpt lat="45.53405" lon="6.10309">
        <ele>344.60000610352</ele>
        <time>2022-01-02T09:38:34.000Z</time>
      </trkpt>
      <trkpt lat="45.53372" lon="6.10281">
        <ele>343.60000610352</ele>
        <time>2022-01-02T09:38:40.000Z</time>
      </trkpt>
      <trkpt lat="45.53366" lon="6.10276">
        <ele>343.39999389648</ele>
        <time>2022-01-02T09:38:41.000Z</time>
      </trkpt>
      <trkpt lat="45.53335" lon="6.10248">
        <ele>342.20001220703</ele>
        <time>2022-01-02T09:38:46.000Z</time>
      </trkpt>
      <trkpt lat="45.53321" lon="6.10236">
        <ele>341.79998779297</ele>
        <time>2022-01-02T09:38:48.000Z</time>
      </trkpt>
      <trkpt lat="45.53302" lon="6.1022">
        <ele>341</ele>
        <time>2022-01-02T09:38:51.000Z</time>
      </trkpt>
      <trkpt lat="45.53262" lon="6.10187">
        <ele>340</ele>
        <time>2022-01-02T09:38:57.000Z</time>
      </trkpt>
      <trkpt lat="45.53256" lon="6.10181">
        <ele>339.79998779297</ele>
        <time>2022-01-02T09:38:58.000Z</time>
      </trkpt>
      <trkpt lat="45.53219" lon="6.10147">
        <ele>338.60000610352</ele>
        <time>2022-01-02T09:39:04.000Z</time>
      </trkpt>
      <trkpt lat="45.53214" lon="6.10141">
        <ele>338.60000610352</ele>
        <time>2022-01-02T09:39:05.000Z</time>
      </trkpt>
      <trkpt lat="45.53183" lon="6.10095">
        <ele>337.60000610352</ele>
        <time>2022-01-02T09:39:11.000Z</time>
      </trkpt>
      <trkpt lat="45.53146" lon="6.10035">
        <ele>336.79998779297</ele>
        <time>2022-01-02T09:39:19.000Z</time>
      </trkpt>
      <trkpt lat="45.53135" lon="6.10018">
        <ele>336.79998779297</ele>
        <time>2022-01-02T09:39:21.000Z</time>
      </trkpt>
      <trkpt lat="45.53112" lon="6.09982">
        <ele>336.20001220703</ele>
        <time>2022-01-02T09:39:26.000Z</time>
      </trkpt>
      <trkpt lat="45.53089" lon="6.09946">
        <ele>336.20001220703</ele>
        <time>2022-01-02T09:39:31.000Z</time>
      </trkpt>
      <trkpt lat="45.5305" lon="6.09886">
        <ele>336.39999389648</ele>
        <time>2022-01-02T09:39:40.000Z</time>
      </trkpt>
      <trkpt lat="45.53046" lon="6.0988">
        <ele>336.60000610352</ele>
        <time>2022-01-02T09:39:41.000Z</time>
      </trkpt>
      <trkpt lat="45.5302" lon="6.09838">
        <ele>337.20001220703</ele>
        <time>2022-01-02T09:39:48.000Z</time>
      </trkpt>
      <trkpt lat="45.53013" lon="6.09827">
        <ele>337.39999389648</ele>
        <time>2022-01-02T09:39:50.000Z</time>
      </trkpt>
      <trkpt lat="45.52994" lon="6.09797">
        <ele>338.20001220703</ele>
        <time>2022-01-02T09:39:55.000Z</time>
      </trkpt>
      <trkpt lat="45.5298" lon="6.09774">
        <ele>338.60000610352</ele>
        <time>2022-01-02T09:39:59.000Z</time>
      </trkpt>
      <trkpt lat="45.52957" lon="6.09738">
        <ele>339.39999389648</ele>
        <time>2022-01-02T09:40:05.000Z</time>
      </trkpt>
      <trkpt lat="45.52951" lon="6.09728">
        <ele>339.60000610352</ele>
        <time>2022-01-02T09:40:07.000Z</time>
      </trkpt>
      <trkpt lat="45.52928" lon="6.09691">
        <ele>340.39999389648</ele>
        <time>2022-01-02T09:40:13.000Z</time>
      </trkpt>
      <trkpt lat="45.52914" lon="6.09667">
        <ele>340.79998779297</ele>
        <time>2022-01-02T09:40:17.000Z</time>
      </trkpt>
      <trkpt lat="45.52901" lon="6.09642">
        <ele>341.20001220703</ele>
        <time>2022-01-02T09:40:21.000Z</time>
      </trkpt>
      <trkpt lat="45.52896" lon="6.09628">
        <ele>341.39999389648</ele>
        <time>2022-01-02T09:40:23.000Z</time>
      </trkpt>
      <trkpt lat="45.52894" lon="6.09622">
        <ele>341.60000610352</ele>
        <time>2022-01-02T09:40:24.000Z</time>
      </trkpt>
      <trkpt lat="45.5289" lon="6.09608">
        <ele>341.79998779297</ele>
        <time>2022-01-02T09:40:26.000Z</time>
      </trkpt>
      <trkpt lat="45.52887" lon="6.09586">
        <ele>342.20001220703</ele>
        <time>2022-01-02T09:40:29.000Z</time>
      </trkpt>
      <trkpt lat="45.52886" lon="6.09565">
        <ele>342.60000610352</ele>
        <time>2022-01-02T09:40:32.000Z</time>
      </trkpt>
      <trkpt lat="45.52886" lon="6.09555">
        <ele>342.60000610352</ele>
        <time>2022-01-02T09:40:33.000Z</time>
      </trkpt>
      <trkpt lat="45.52889" lon="6.09538">
        <ele>342.60000610352</ele>
        <time>2022-01-02T09:40:35.000Z</time>
      </trkpt>
      <trkpt lat="45.52904" lon="6.09489">
        <ele>342.39999389648</ele>
        <time>2022-01-02T09:40:41.000Z</time>
      </trkpt>
      <trkpt lat="45.52929" lon="6.09414">
        <ele>341.60000610352</ele>
        <time>2022-01-02T09:40:50.000Z</time>
      </trkpt>
      <trkpt lat="45.52935" lon="6.09398">
        <ele>341.39999389648</ele>
        <time>2022-01-02T09:40:52.000Z</time>
      </trkpt>
      <trkpt lat="45.52937" lon="6.09389">
        <ele>341.39999389648</ele>
        <time>2022-01-02T09:40:53.000Z</time>
      </trkpt>
      <trkpt lat="45.52939" lon="6.09381">
        <ele>341.39999389648</ele>
        <time>2022-01-02T09:40:54.000Z</time>
      </trkpt>
      <trkpt lat="45.52941" lon="6.09364">
        <ele>341.20001220703</ele>
        <time>2022-01-02T09:40:56.000Z</time>
      </trkpt>
      <trkpt lat="45.52941" lon="6.09355">
        <ele>341.20001220703</ele>
        <time>2022-01-02T09:40:57.000Z</time>
      </trkpt>
      <trkpt lat="45.52939" lon="6.09346">
        <ele>341.20001220703</ele>
        <time>2022-01-02T09:40:58.000Z</time>
      </trkpt>
      <trkpt lat="45.52933" lon="6.09331">
        <ele>341</ele>
        <time>2022-01-02T09:41:00.000Z</time>
      </trkpt>
      <trkpt lat="45.52902" lon="6.09277">
        <ele>340.39999389648</ele>
        <time>2022-01-02T09:41:07.000Z</time>
      </trkpt>
      <trkpt lat="45.52886" lon="6.09244">
        <ele>339.39999389648</ele>
        <time>2022-01-02T09:41:11.000Z</time>
      </trkpt>
      <trkpt lat="45.52882" lon="6.09236">
        <ele>339.20001220703</ele>
        <time>2022-01-02T09:41:12.000Z</time>
      </trkpt>
      <trkpt lat="45.52876" lon="6.09229">
        <ele>339</ele>
        <time>2022-01-02T09:41:13.000Z</time>
      </trkpt>
      <trkpt lat="45.5287" lon="6.09223">
        <ele>338.79998779297</ele>
        <time>2022-01-02T09:41:14.000Z</time>
      </trkpt>
      <trkpt lat="45.52851" lon="6.09211">
        <ele>338.60000610352</ele>
        <time>2022-01-02T09:41:17.000Z</time>
      </trkpt>
      <trkpt lat="45.52844" lon="6.09208">
        <ele>338.60000610352</ele>
        <time>2022-01-02T09:41:18.000Z</time>
      </trkpt>
      <trkpt lat="45.52831" lon="6.09205">
        <ele>338.60000610352</ele>
        <time>2022-01-02T09:41:20.000Z</time>
      </trkpt>
      <trkpt lat="45.52824" lon="6.09205">
        <ele>338.60000610352</ele>
        <time>2022-01-02T09:41:21.000Z</time>
      </trkpt>
      <trkpt lat="45.52806" lon="6.0921">
        <ele>338.60000610352</ele>
        <time>2022-01-02T09:41:24.000Z</time>
      </trkpt>
      <trkpt lat="45.52795" lon="6.09213">
        <ele>338.60000610352</ele>
        <time>2022-01-02T09:41:26.000Z</time>
      </trkpt>
      <trkpt lat="45.52784" lon="6.09218">
        <ele>338.79998779297</ele>
        <time>2022-01-02T09:41:28.000Z</time>
      </trkpt>
      <trkpt lat="45.52775" lon="6.0922">
        <ele>339.20001220703</ele>
        <time>2022-01-02T09:41:30.000Z</time>
      </trkpt>
      <trkpt lat="45.52765" lon="6.09226">
        <ele>339.39999389648</ele>
        <time>2022-01-02T09:41:32.000Z</time>
      </trkpt>
      <trkpt lat="45.52759" lon="6.09237">
        <ele>340</ele>
        <time>2022-01-02T09:41:34.000Z</time>
      </trkpt>
      <trkpt lat="45.5274" lon="6.0928">
        <ele>340.20001220703</ele>
        <time>2022-01-02T09:41:39.000Z</time>
      </trkpt>
      <trkpt lat="45.5273" lon="6.09306">
        <ele>339.79998779297</ele>
        <time>2022-01-02T09:41:42.000Z</time>
      </trkpt>
      <trkpt lat="45.52721" lon="6.09322">
        <ele>339.39999389648</ele>
        <time>2022-01-02T09:41:44.000Z</time>
      </trkpt>
      <trkpt lat="45.52709" lon="6.09333">
        <ele>338.79998779297</ele>
        <time>2022-01-02T09:41:46.000Z</time>
      </trkpt>
      <trkpt lat="45.52701" lon="6.09336">
        <ele>338.60000610352</ele>
        <time>2022-01-02T09:41:47.000Z</time>
      </trkpt>
      <trkpt lat="45.52694" lon="6.09337">
        <ele>338.39999389648</ele>
        <time>2022-01-02T09:41:48.000Z</time>
      </trkpt>
      <trkpt lat="45.52685" lon="6.09336">
        <ele>338.39999389648</ele>
        <time>2022-01-02T09:41:49.000Z</time>
      </trkpt>
      <trkpt lat="45.52678" lon="6.09335">
        <ele>338</ele>
        <time>2022-01-02T09:41:50.000Z</time>
      </trkpt>
      <trkpt lat="45.52668" lon="6.09331">
        <ele>337.20001220703</ele>
        <time>2022-01-02T09:41:51.000Z</time>
      </trkpt>
      <trkpt lat="45.52653" lon="6.09321">
        <ele>336.20001220703</ele>
        <time>2022-01-02T09:41:53.000Z</time>
      </trkpt>
      <trkpt lat="45.52647" lon="6.09316">
        <ele>336</ele>
        <time>2022-01-02T09:41:54.000Z</time>
      </trkpt>
      <trkpt lat="45.5263" lon="6.09305">
        <ele>334.79998779297</ele>
        <time>2022-01-02T09:41:56.000Z</time>
      </trkpt>
      <trkpt lat="45.52622" lon="6.09301">
        <ele>334.20001220703</ele>
        <time>2022-01-02T09:41:57.000Z</time>
      </trkpt>
      <trkpt lat="45.52613" lon="6.09298">
        <ele>333.60000610352</ele>
        <time>2022-01-02T09:41:58.000Z</time>
      </trkpt>
      <trkpt lat="45.52588" lon="6.09293">
        <ele>332.39999389648</ele>
        <time>2022-01-02T09:42:01.000Z</time>
      </trkpt>
      <trkpt lat="45.52565" lon="6.09287">
        <ele>331.60000610352</ele>
        <time>2022-01-02T09:42:04.000Z</time>
      </trkpt>
      <trkpt lat="45.52557" lon="6.09284">
        <ele>331.20001220703</ele>
        <time>2022-01-02T09:42:05.000Z</time>
      </trkpt>
      <trkpt lat="45.52529" lon="6.09278">
        <ele>330.60000610352</ele>
        <time>2022-01-02T09:42:09.000Z</time>
      </trkpt>
      <trkpt lat="45.52515" lon="6.09278">
        <ele>330.20001220703</ele>
        <time>2022-01-02T09:42:11.000Z</time>
      </trkpt>
      <trkpt lat="45.52496" lon="6.09277">
        <ele>329.79998779297</ele>
        <time>2022-01-02T09:42:14.000Z</time>
      </trkpt>
      <trkpt lat="45.52488" lon="6.09275">
        <ele>329.79998779297</ele>
        <time>2022-01-02T09:42:15.000Z</time>
      </trkpt>
      <trkpt lat="45.52476" lon="6.09266">
        <ele>329.60000610352</ele>
        <time>2022-01-02T09:42:17.000Z</time>
      </trkpt>
      <trkpt lat="45.52455" lon="6.09242">
        <ele>329</ele>
        <time>2022-01-02T09:42:21.000Z</time>
      </trkpt>
      <trkpt lat="45.52433" lon="6.09218">
        <ele>328.39999389648</ele>
        <time>2022-01-02T09:42:25.000Z</time>
      </trkpt>
      <trkpt lat="45.52415" lon="6.092">
        <ele>328</ele>
        <time>2022-01-02T09:42:28.000Z</time>
      </trkpt>
      <trkpt lat="45.52383" lon="6.09171">
        <ele>327</ele>
        <time>2022-01-02T09:42:33.000Z</time>
      </trkpt>
      <trkpt lat="45.52375" lon="6.09163">
        <ele>326.79998779297</ele>
        <time>2022-01-02T09:42:34.000Z</time>
      </trkpt>
      <trkpt lat="45.52361" lon="6.09151">
        <ele>325.79998779297</ele>
        <time>2022-01-02T09:42:36.000Z</time>
      </trkpt>
      <trkpt lat="45.52348" lon="6.0914">
        <ele>325.20001220703</ele>
        <time>2022-01-02T09:42:38.000Z</time>
      </trkpt>
      <trkpt lat="45.52339" lon="6.09135">
        <ele>325</ele>
        <time>2022-01-02T09:42:39.000Z</time>
      </trkpt>
      <trkpt lat="45.52331" lon="6.09131">
        <ele>324.79998779297</ele>
        <time>2022-01-02T09:42:40.000Z</time>
      </trkpt>
      <trkpt lat="45.52308" lon="6.09116">
        <ele>323.39999389648</ele>
        <time>2022-01-02T09:42:43.000Z</time>
      </trkpt>
      <trkpt lat="45.523" lon="6.09112">
        <ele>323</ele>
        <time>2022-01-02T09:42:44.000Z</time>
      </trkpt>
      <trkpt lat="45.52284" lon="6.09107">
        <ele>321.79998779297</ele>
        <time>2022-01-02T09:42:46.000Z</time>
      </trkpt>
      <trkpt lat="45.52263" lon="6.09096">
        <ele>321.20001220703</ele>
        <time>2022-01-02T09:42:49.000Z</time>
      </trkpt>
      <trkpt lat="45.52256" lon="6.09092">
        <ele>320.79998779297</ele>
        <time>2022-01-02T09:42:50.000Z</time>
      </trkpt>
      <trkpt lat="45.52243" lon="6.09079">
        <ele>320</ele>
        <time>2022-01-02T09:42:52.000Z</time>
      </trkpt>
      <trkpt lat="45.52237" lon="6.09072">
        <ele>319.79998779297</ele>
        <time>2022-01-02T09:42:53.000Z</time>
      </trkpt>
      <trkpt lat="45.52202" lon="6.09037">
        <ele>318.60000610352</ele>
        <time>2022-01-02T09:42:58.000Z</time>
      </trkpt>
      <trkpt lat="45.52189" lon="6.09024">
        <ele>318</ele>
        <time>2022-01-02T09:43:00.000Z</time>
      </trkpt>
      <trkpt lat="45.52175" lon="6.0901">
        <ele>317.39999389648</ele>
        <time>2022-01-02T09:43:02.000Z</time>
      </trkpt>
      <trkpt lat="45.52156" lon="6.08989">
        <ele>315.60000610352</ele>
        <time>2022-01-02T09:43:05.000Z</time>
      </trkpt>
      <trkpt lat="45.52145" lon="6.08976">
        <ele>313.79998779297</ele>
        <time>2022-01-02T09:43:07.000Z</time>
      </trkpt>
      <trkpt lat="45.52133" lon="6.08959">
        <ele>312.60000610352</ele>
        <time>2022-01-02T09:43:09.000Z</time>
      </trkpt>
      <trkpt lat="45.52127" lon="6.08952">
        <ele>311.60000610352</ele>
        <time>2022-01-02T09:43:10.000Z</time>
      </trkpt>
      <trkpt lat="45.52115" lon="6.08938">
        <ele>310</ele>
        <time>2022-01-02T09:43:12.000Z</time>
      </trkpt>
      <trkpt lat="45.52108" lon="6.08931">
        <ele>308.79998779297</ele>
        <time>2022-01-02T09:43:13.000Z</time>
      </trkpt>
      <trkpt lat="45.52095" lon="6.08918">
        <ele>307.39999389648</ele>
        <time>2022-01-02T09:43:15.000Z</time>
      </trkpt>
      <trkpt lat="45.52085" lon="6.08901">
        <ele>306</ele>
        <time>2022-01-02T09:43:17.000Z</time>
      </trkpt>
      <trkpt lat="45.52065" lon="6.08881">
        <ele>304.39999389648</ele>
        <time>2022-01-02T09:43:20.000Z</time>
      </trkpt>
      <trkpt lat="45.52059" lon="6.08877">
        <ele>304</ele>
        <time>2022-01-02T09:43:21.000Z</time>
      </trkpt>
      <trkpt lat="45.52043" lon="6.08866">
        <ele>303</ele>
        <time>2022-01-02T09:43:23.000Z</time>
      </trkpt>
      <trkpt lat="45.52017" lon="6.08846">
        <ele>301.60000610352</ele>
        <time>2022-01-02T09:43:27.000Z</time>
      </trkpt>
      <trkpt lat="45.52004" lon="6.08837">
        <ele>301</ele>
        <time>2022-01-02T09:43:29.000Z</time>
      </trkpt>
      <trkpt lat="45.51986" lon="6.08826">
        <ele>300.60000610352</ele>
        <time>2022-01-02T09:43:32.000Z</time>
      </trkpt>
      <trkpt lat="45.51962" lon="6.0881">
        <ele>300.20001220703</ele>
        <time>2022-01-02T09:43:36.000Z</time>
      </trkpt>
      <trkpt lat="45.51945" lon="6.08794">
        <ele>299.39999389648</ele>
        <time>2022-01-02T09:43:39.000Z</time>
      </trkpt>
      <trkpt lat="45.51929" lon="6.08775">
        <ele>299.20001220703</ele>
        <time>2022-01-02T09:43:42.000Z</time>
      </trkpt>
      <trkpt lat="45.51901" lon="6.08742">
        <ele>298.39999389648</ele>
        <time>2022-01-02T09:43:47.000Z</time>
      </trkpt>
      <trkpt lat="45.51885" lon="6.08721">
        <ele>297.79998779297</ele>
        <time>2022-01-02T09:43:50.000Z</time>
      </trkpt>
      <trkpt lat="45.51876" lon="6.08705">
        <ele>297.20001220703</ele>
        <time>2022-01-02T09:43:52.000Z</time>
      </trkpt>
      <trkpt lat="45.51867" lon="6.08678">
        <ele>296</ele>
        <time>2022-01-02T09:43:55.000Z</time>
      </trkpt>
      <trkpt lat="45.51857" lon="6.08645">
        <ele>294.79998779297</ele>
        <time>2022-01-02T09:43:58.000Z</time>
      </trkpt>
      <trkpt lat="45.51843" lon="6.08604">
        <ele>293.79998779297</ele>
        <time>2022-01-02T09:44:02.000Z</time>
      </trkpt>
      <trkpt lat="45.51839" lon="6.08595">
        <ele>293.60000610352</ele>
        <time>2022-01-02T09:44:03.000Z</time>
      </trkpt>
      <trkpt lat="45.51829" lon="6.0858">
        <ele>293</ele>
        <time>2022-01-02T09:44:05.000Z</time>
      </trkpt>
      <trkpt lat="45.51824" lon="6.08573">
        <ele>292.79998779297</ele>
        <time>2022-01-02T09:44:06.000Z</time>
      </trkpt>
      <trkpt lat="45.51818" lon="6.08567">
        <ele>292.39999389648</ele>
        <time>2022-01-02T09:44:07.000Z</time>
      </trkpt>
      <trkpt lat="45.5179" lon="6.08537">
        <ele>291.39999389648</ele>
        <time>2022-01-02T09:44:12.000Z</time>
      </trkpt>
      <trkpt lat="45.51742" lon="6.08487">
        <ele>290.39999389648</ele>
        <time>2022-01-02T09:44:21.000Z</time>
      </trkpt>
      <trkpt lat="45.51736" lon="6.08482">
        <ele>290.39999389648</ele>
        <time>2022-01-02T09:44:22.000Z</time>
      </trkpt>
      <trkpt lat="45.51691" lon="6.08427">
        <ele>289.20001220703</ele>
        <time>2022-01-02T09:44:30.000Z</time>
      </trkpt>
      <trkpt lat="45.5166" lon="6.08386">
        <ele>287.79998779297</ele>
        <time>2022-01-02T09:44:35.000Z</time>
      </trkpt>
      <trkpt lat="45.51641" lon="6.0836">
        <ele>286.60000610352</ele>
        <time>2022-01-02T09:44:38.000Z</time>
      </trkpt>
      <trkpt lat="45.51627" lon="6.08341">
        <ele>285</ele>
        <time>2022-01-02T09:44:40.000Z</time>
      </trkpt>
      <trkpt lat="45.51612" lon="6.08323">
        <ele>284</ele>
        <time>2022-01-02T09:44:42.000Z</time>
      </trkpt>
      <trkpt lat="45.51606" lon="6.08315">
        <ele>283.60000610352</ele>
        <time>2022-01-02T09:44:43.000Z</time>
      </trkpt>
      <trkpt lat="45.51591" lon="6.08297">
        <ele>281.79998779297</ele>
        <time>2022-01-02T09:44:45.000Z</time>
      </trkpt>
      <trkpt lat="45.51574" lon="6.08276">
        <ele>280.60000610352</ele>
        <time>2022-01-02T09:44:47.000Z</time>
      </trkpt>
      <trkpt lat="45.51557" lon="6.08257">
        <ele>279</ele>
        <time>2022-01-02T09:44:49.000Z</time>
      </trkpt>
      <trkpt lat="45.51549" lon="6.08247">
        <ele>278</ele>
        <time>2022-01-02T09:44:50.000Z</time>
      </trkpt>
      <trkpt lat="45.51533" lon="6.08226">
        <ele>276.20001220703</ele>
        <time>2022-01-02T09:44:52.000Z</time>
      </trkpt>
      <trkpt lat="45.51517" lon="6.08203">
        <ele>274.39999389648</ele>
        <time>2022-01-02T09:44:54.000Z</time>
      </trkpt>
      <trkpt lat="45.51506" lon="6.08188">
        <ele>273.20001220703</ele>
        <time>2022-01-02T09:44:55.000Z</time>
      </trkpt>
      <trkpt lat="45.51489" lon="6.08163">
        <ele>271.79998779297</ele>
        <time>2022-01-02T09:44:57.000Z</time>
      </trkpt>
      <trkpt lat="45.51471" lon="6.08137">
        <ele>270</ele>
        <time>2022-01-02T09:44:59.000Z</time>
      </trkpt>
      <trkpt lat="45.51462" lon="6.08124">
        <ele>268.60000610352</ele>
        <time>2022-01-02T09:45:00.000Z</time>
      </trkpt>
      <trkpt lat="45.51443" lon="6.08098">
        <ele>266.60000610352</ele>
        <time>2022-01-02T09:45:02.000Z</time>
      </trkpt>
      <trkpt lat="45.51427" lon="6.08074">
        <ele>264.79998779297</ele>
        <time>2022-01-02T09:45:04.000Z</time>
      </trkpt>
      <trkpt lat="45.51417" lon="6.0806">
        <ele>263.39999389648</ele>
        <time>2022-01-02T09:45:05.000Z</time>
      </trkpt>
      <trkpt lat="45.51403" lon="6.08041">
        <ele>261.20001220703</ele>
        <time>2022-01-02T09:45:07.000Z</time>
      </trkpt>
      <trkpt lat="45.51378" lon="6.08003">
        <ele>260</ele>
        <time>2022-01-02T09:45:11.000Z</time>
      </trkpt>
      <trkpt lat="45.51353" lon="6.07963">
        <ele>261</ele>
        <time>2022-01-02T09:45:16.000Z</time>
      </trkpt>
      <trkpt lat="45.5135" lon="6.07956">
        <ele>261.60000610352</ele>
        <time>2022-01-02T09:45:17.000Z</time>
      </trkpt>
      <trkpt lat="45.51344" lon="6.07941">
        <ele>262.79998779297</ele>
        <time>2022-01-02T09:45:19.000Z</time>
      </trkpt>
      <trkpt lat="45.51339" lon="6.07926">
        <ele>263.79998779297</ele>
        <time>2022-01-02T09:45:21.000Z</time>
      </trkpt>
      <trkpt lat="45.51336" lon="6.07919">
        <ele>264.20001220703</ele>
        <time>2022-01-02T09:45:22.000Z</time>
      </trkpt>
      <trkpt lat="45.5133" lon="6.07897">
        <ele>265.79998779297</ele>
        <time>2022-01-02T09:45:25.000Z</time>
      </trkpt>
      <trkpt lat="45.51325" lon="6.07873">
        <ele>266.60000610352</ele>
        <time>2022-01-02T09:45:28.000Z</time>
      </trkpt>
      <trkpt lat="45.51322" lon="6.07865">
        <ele>267</ele>
        <time>2022-01-02T09:45:29.000Z</time>
      </trkpt>
      <trkpt lat="45.51314" lon="6.07827">
        <ele>268.20001220703</ele>
        <time>2022-01-02T09:45:34.000Z</time>
      </trkpt>
      <trkpt lat="45.51306" lon="6.07795">
        <ele>268.79998779297</ele>
        <time>2022-01-02T09:45:38.000Z</time>
      </trkpt>
      <trkpt lat="45.51293" lon="6.07739">
        <ele>269.20001220703</ele>
        <time>2022-01-02T09:45:45.000Z</time>
      </trkpt>
      <trkpt lat="45.5129" lon="6.0773">
        <ele>269.20001220703</ele>
        <time>2022-01-02T09:45:46.000Z</time>
      </trkpt>
      <trkpt lat="45.51288" lon="6.07722">
        <ele>269.20001220703</ele>
        <time>2022-01-02T09:45:47.000Z</time>
      </trkpt>
      <trkpt lat="45.51274" lon="6.07678">
        <ele>269.39999389648</ele>
        <time>2022-01-02T09:45:53.000Z</time>
      </trkpt>
      <trkpt lat="45.51264" lon="6.07649">
        <ele>269.79998779297</ele>
        <time>2022-01-02T09:45:57.000Z</time>
      </trkpt>
      <trkpt lat="45.51262" lon="6.07634">
        <ele>269.79998779297</ele>
        <time>2022-01-02T09:45:59.000Z</time>
      </trkpt>
      <trkpt lat="45.51256" lon="6.07622">
        <ele>269.79998779297</ele>
        <time>2022-01-02T09:46:01.000Z</time>
      </trkpt>
      <trkpt lat="45.51251" lon="6.07615">
        <ele>270</ele>
        <time>2022-01-02T09:46:02.000Z</time>
      </trkpt>
      <trkpt lat="45.51247" lon="6.07609">
        <ele>270</ele>
        <time>2022-01-02T09:46:03.000Z</time>
      </trkpt>
      <trkpt lat="45.51234" lon="6.07583">
        <ele>270.20001220703</ele>
        <time>2022-01-02T09:46:07.000Z</time>
      </trkpt>
      <trkpt lat="45.51229" lon="6.07572">
        <ele>270.39999389648</ele>
        <time>2022-01-02T09:46:09.000Z</time>
      </trkpt>
      <trkpt lat="45.51208" lon="6.07535">
        <ele>270.60000610352</ele>
        <time>2022-01-02T09:46:15.000Z</time>
      </trkpt>
      <trkpt lat="45.51172" lon="6.07478">
        <ele>271</ele>
        <time>2022-01-02T09:46:25.000Z</time>
      </trkpt>
      <trkpt lat="45.51151" lon="6.07441">
        <ele>271.39999389648</ele>
        <time>2022-01-02T09:46:31.000Z</time>
      </trkpt>
      <trkpt lat="45.51145" lon="6.07428">
        <ele>271.39999389648</ele>
        <time>2022-01-02T09:46:33.000Z</time>
      </trkpt>
      <trkpt lat="45.51119" lon="6.07366">
        <ele>271.39999389648</ele>
        <time>2022-01-02T09:46:42.000Z</time>
      </trkpt>
      <trkpt lat="45.51112" lon="6.07344">
        <ele>271.39999389648</ele>
        <time>2022-01-02T09:46:45.000Z</time>
      </trkpt>
      <trkpt lat="45.5111" lon="6.07329">
        <ele>271.39999389648</ele>
        <time>2022-01-02T09:46:47.000Z</time>
      </trkpt>
      <trkpt lat="45.51104" lon="6.07316">
        <ele>271</ele>
        <time>2022-01-02T09:46:49.000Z</time>
      </trkpt>
      <trkpt lat="45.51101" lon="6.0731">
        <ele>271</ele>
        <time>2022-01-02T09:46:50.000Z</time>
      </trkpt>
      <trkpt lat="45.51098" lon="6.07303">
        <ele>271</ele>
        <time>2022-01-02T09:46:51.000Z</time>
      </trkpt>
      <trkpt lat="45.51093" lon="6.0728">
        <ele>270.79998779297</ele>
        <time>2022-01-02T09:46:54.000Z</time>
      </trkpt>
      <trkpt lat="45.51085" lon="6.07248">
        <ele>270.60000610352</ele>
        <time>2022-01-02T09:46:58.000Z</time>
      </trkpt>
      <trkpt lat="45.51081" lon="6.0723">
        <ele>270.39999389648</ele>
        <time>2022-01-02T09:47:00.000Z</time>
      </trkpt>
      <trkpt lat="45.51078" lon="6.07221">
        <ele>270.20001220703</ele>
        <time>2022-01-02T09:47:01.000Z</time>
      </trkpt>
      <trkpt lat="45.51066" lon="6.07174">
        <ele>269.60000610352</ele>
        <time>2022-01-02T09:47:06.000Z</time>
      </trkpt>
      <trkpt lat="45.51062" lon="6.07153">
        <ele>269</ele>
        <time>2022-01-02T09:47:08.000Z</time>
      </trkpt>
      <trkpt lat="45.51055" lon="6.07122">
        <ele>268.39999389648</ele>
        <time>2022-01-02T09:47:11.000Z</time>
      </trkpt>
      <trkpt lat="45.51052" lon="6.07111">
        <ele>268.20001220703</ele>
        <time>2022-01-02T09:47:12.000Z</time>
      </trkpt>
      <trkpt lat="45.51043" lon="6.07072">
        <ele>267.79998779297</ele>
        <time>2022-01-02T09:47:16.000Z</time>
      </trkpt>
      <trkpt lat="45.51041" lon="6.07063">
        <ele>267.79998779297</ele>
        <time>2022-01-02T09:47:17.000Z</time>
      </trkpt>
      <trkpt lat="45.51029" lon="6.07021">
        <ele>267.79998779297</ele>
        <time>2022-01-02T09:47:22.000Z</time>
      </trkpt>
      <trkpt lat="45.51025" lon="6.07014">
        <ele>267.79998779297</ele>
        <time>2022-01-02T09:47:23.000Z</time>
      </trkpt>
      <trkpt lat="45.51019" lon="6.07001">
        <ele>268</ele>
        <time>2022-01-02T09:47:25.000Z</time>
      </trkpt>
      <trkpt lat="45.51016" lon="6.06995">
        <ele>268.20001220703</ele>
        <time>2022-01-02T09:47:26.000Z</time>
      </trkpt>
      <trkpt lat="45.51009" lon="6.06983">
        <ele>268.60000610352</ele>
        <time>2022-01-02T09:47:28.000Z</time>
      </trkpt>
      <trkpt lat="45.51005" lon="6.06978">
        <ele>269</ele>
        <time>2022-01-02T09:47:29.000Z</time>
      </trkpt>
      <trkpt lat="45.50997" lon="6.06969">
        <ele>269.60000610352</ele>
        <time>2022-01-02T09:47:31.000Z</time>
      </trkpt>
      <trkpt lat="45.5099" lon="6.0696">
        <ele>269.79998779297</ele>
        <time>2022-01-02T09:47:33.000Z</time>
      </trkpt>
      <trkpt lat="45.50973" lon="6.06944">
        <ele>270.79998779297</ele>
        <time>2022-01-02T09:47:37.000Z</time>
      </trkpt>
      <trkpt lat="45.50969" lon="6.0694">
        <ele>271.20001220703</ele>
        <time>2022-01-02T09:47:38.000Z</time>
      </trkpt>
      <trkpt lat="45.50952" lon="6.06925">
        <ele>272.20001220703</ele>
        <time>2022-01-02T09:47:42.000Z</time>
      </trkpt>
      <trkpt lat="45.50947" lon="6.06922">
        <ele>272.39999389648</ele>
        <time>2022-01-02T09:47:43.000Z</time>
      </trkpt>
      <trkpt lat="45.50942" lon="6.06919">
        <ele>273</ele>
        <time>2022-01-02T09:47:44.000Z</time>
      </trkpt>
      <trkpt lat="45.50933" lon="6.06914">
        <ele>273.60000610352</ele>
        <time>2022-01-02T09:47:46.000Z</time>
      </trkpt>
      <trkpt lat="45.50915" lon="6.06902">
        <ele>274.79998779297</ele>
        <time>2022-01-02T09:47:50.000Z</time>
      </trkpt>
      <trkpt lat="45.5091" lon="6.069">
        <ele>275.60000610352</ele>
        <time>2022-01-02T09:47:51.000Z</time>
      </trkpt>
      <trkpt lat="45.50899" lon="6.06893">
        <ele>276</ele>
        <time>2022-01-02T09:47:53.000Z</time>
      </trkpt>
      <trkpt lat="45.50886" lon="6.06879">
        <ele>276.20001220703</ele>
        <time>2022-01-02T09:47:56.000Z</time>
      </trkpt>
      <trkpt lat="45.50861" lon="6.06843">
        <ele>276</ele>
        <time>2022-01-02T09:48:02.000Z</time>
      </trkpt>
      <trkpt lat="45.5085" lon="6.06821">
        <ele>275.60000610352</ele>
        <time>2022-01-02T09:48:05.000Z</time>
      </trkpt>
      <trkpt lat="45.50843" lon="6.06797">
        <ele>275.20001220703</ele>
        <time>2022-01-02T09:48:08.000Z</time>
      </trkpt>
      <trkpt lat="45.50835" lon="6.06763">
        <ele>275.20001220703</ele>
        <time>2022-01-02T09:48:12.000Z</time>
      </trkpt>
      <trkpt lat="45.50833" lon="6.06748">
        <ele>275.20001220703</ele>
        <time>2022-01-02T09:48:14.000Z</time>
      </trkpt>
      <trkpt lat="45.50833" lon="6.0674">
        <ele>275.20001220703</ele>
        <time>2022-01-02T09:48:15.000Z</time>
      </trkpt>
      <trkpt lat="45.50832" lon="6.06696">
        <ele>276.39999389648</ele>
        <time>2022-01-02T09:48:21.000Z</time>
      </trkpt>
      <trkpt lat="45.50832" lon="6.06675">
        <ele>277.20001220703</ele>
        <time>2022-01-02T09:48:24.000Z</time>
      </trkpt>
      <trkpt lat="45.50832" lon="6.06661">
        <ele>278.39999389648</ele>
        <time>2022-01-02T09:48:26.000Z</time>
      </trkpt>
      <trkpt lat="45.5083" lon="6.06632">
        <ele>279.79998779297</ele>
        <time>2022-01-02T09:48:30.000Z</time>
      </trkpt>
      <trkpt lat="45.50821" lon="6.06578">
        <ele>280.39999389648</ele>
        <time>2022-01-02T09:48:37.000Z</time>
      </trkpt>
      <trkpt lat="45.5081" lon="6.0653">
        <ele>279.79998779297</ele>
        <time>2022-01-02T09:48:42.000Z</time>
      </trkpt>
      <trkpt lat="45.50803" lon="6.06499">
        <ele>278.60000610352</ele>
        <time>2022-01-02T09:48:45.000Z</time>
      </trkpt>
      <trkpt lat="45.50798" lon="6.06477">
        <ele>277.60000610352</ele>
        <time>2022-01-02T09:48:47.000Z</time>
      </trkpt>
      <trkpt lat="45.50796" lon="6.06466">
        <ele>277.20001220703</ele>
        <time>2022-01-02T09:48:48.000Z</time>
      </trkpt>
      <trkpt lat="45.50791" lon="6.06448">
        <ele>276.39999389648</ele>
        <time>2022-01-02T09:48:50.000Z</time>
      </trkpt>
      <trkpt lat="45.50788" lon="6.0644">
        <ele>275.60000610352</ele>
        <time>2022-01-02T09:48:51.000Z</time>
      </trkpt>
      <trkpt lat="45.50784" lon="6.06432">
        <ele>275.20001220703</ele>
        <time>2022-01-02T09:48:52.000Z</time>
      </trkpt>
      <trkpt lat="45.50777" lon="6.06414">
        <ele>273.79998779297</ele>
        <time>2022-01-02T09:48:54.000Z</time>
      </trkpt>
      <trkpt lat="45.50768" lon="6.06398">
        <ele>273</ele>
        <time>2022-01-02T09:48:56.000Z</time>
      </trkpt>
      <trkpt lat="45.50765" lon="6.06389">
        <ele>272.79998779297</ele>
        <time>2022-01-02T09:48:57.000Z</time>
      </trkpt>
      <trkpt lat="45.50753" lon="6.06362">
        <ele>271.79998779297</ele>
        <time>2022-01-02T09:49:00.000Z</time>
      </trkpt>
      <trkpt lat="45.50748" lon="6.06352">
        <ele>271.60000610352</ele>
        <time>2022-01-02T09:49:01.000Z</time>
      </trkpt>
      <trkpt lat="45.50739" lon="6.06331">
        <ele>270.79998779297</ele>
        <time>2022-01-02T09:49:03.000Z</time>
      </trkpt>
      <trkpt lat="45.50733" lon="6.06312">
        <ele>269.60000610352</ele>
        <time>2022-01-02T09:49:05.000Z</time>
      </trkpt>
      <trkpt lat="45.5073" lon="6.06303">
        <ele>269</ele>
        <time>2022-01-02T09:49:06.000Z</time>
      </trkpt>
      <trkpt lat="45.50726" lon="6.06296">
        <ele>268.39999389648</ele>
        <time>2022-01-02T09:49:07.000Z</time>
      </trkpt>
      <trkpt lat="45.5072" lon="6.06292">
        <ele>267.79998779297</ele>
        <time>2022-01-02T09:49:08.000Z</time>
      </trkpt>
      <trkpt lat="45.50713" lon="6.06288">
        <ele>267.20001220703</ele>
        <time>2022-01-02T09:49:09.000Z</time>
      </trkpt>
      <trkpt lat="45.50705" lon="6.06285">
        <ele>266.20001220703</ele>
        <time>2022-01-02T09:49:10.000Z</time>
      </trkpt>
      <trkpt lat="45.50688" lon="6.0628">
        <ele>265</ele>
        <time>2022-01-02T09:49:12.000Z</time>
      </trkpt>
      <trkpt lat="45.50672" lon="6.06275">
        <ele>263.60000610352</ele>
        <time>2022-01-02T09:49:14.000Z</time>
      </trkpt>
      <trkpt lat="45.50664" lon="6.06275">
        <ele>262.60000610352</ele>
        <time>2022-01-02T09:49:15.000Z</time>
      </trkpt>
      <trkpt lat="45.50657" lon="6.06275">
        <ele>262.39999389648</ele>
        <time>2022-01-02T09:49:16.000Z</time>
      </trkpt>
      <trkpt lat="45.5065" lon="6.06274">
        <ele>261</ele>
        <time>2022-01-02T09:49:17.000Z</time>
      </trkpt>
      <trkpt lat="45.50643" lon="6.06272">
        <ele>260</ele>
        <time>2022-01-02T09:49:18.000Z</time>
      </trkpt>
      <trkpt lat="45.50636" lon="6.06268">
        <ele>259.60000610352</ele>
        <time>2022-01-02T09:49:19.000Z</time>
      </trkpt>
      <trkpt lat="45.5063" lon="6.06263">
        <ele>258.39999389648</ele>
        <time>2022-01-02T09:49:20.000Z</time>
      </trkpt>
      <trkpt lat="45.50618" lon="6.06253">
        <ele>257.39999389648</ele>
        <time>2022-01-02T09:49:22.000Z</time>
      </trkpt>
      <trkpt lat="45.50599" lon="6.06246">
        <ele>256.60000610352</ele>
        <time>2022-01-02T09:49:25.000Z</time>
      </trkpt>
      <trkpt lat="45.50585" lon="6.06245">
        <ele>256.20001220703</ele>
        <time>2022-01-02T09:49:27.000Z</time>
      </trkpt>
      <trkpt lat="45.50553" lon="6.06243">
        <ele>255.80000305176</ele>
        <time>2022-01-02T09:49:32.000Z</time>
      </trkpt>
      <trkpt lat="45.50515" lon="6.06242">
        <ele>255.39999389648</ele>
        <time>2022-01-02T09:49:38.000Z</time>
      </trkpt>
      <trkpt lat="45.50471" lon="6.06239">
        <ele>255.19999694824</ele>
        <time>2022-01-02T09:49:45.000Z</time>
      </trkpt>
      <trkpt lat="45.50465" lon="6.0624">
        <ele>255.19999694824</ele>
        <time>2022-01-02T09:49:46.000Z</time>
      </trkpt>
      <trkpt lat="45.50439" lon="6.06237">
        <ele>255.39999389648</ele>
        <time>2022-01-02T09:49:51.000Z</time>
      </trkpt>
      <trkpt lat="45.50435" lon="6.06232">
        <ele>255.39999389648</ele>
        <time>2022-01-02T09:49:54.000Z</time>
      </trkpt>
      <trkpt lat="45.50422" lon="6.0623">
        <ele>255.39999389648</ele>
        <time>2022-01-02T09:49:58.000Z</time>
      </trkpt>
      <trkpt lat="45.50418" lon="6.06233">
        <ele>255.39999389648</ele>
        <time>2022-01-02T09:49:59.000Z</time>
      </trkpt>
      <trkpt lat="45.50414" lon="6.06245">
        <ele>255.60000610352</ele>
        <time>2022-01-02T09:50:01.000Z</time>
      </trkpt>
      <trkpt lat="45.50414" lon="6.06269">
        <ele>255.80000305176</ele>
        <time>2022-01-02T09:50:04.000Z</time>
      </trkpt>
      <trkpt lat="45.50415" lon="6.06278">
        <ele>255.80000305176</ele>
        <time>2022-01-02T09:50:05.000Z</time>
      </trkpt>
      <trkpt lat="45.50422" lon="6.06304">
        <ele>255.80000305176</ele>
        <time>2022-01-02T09:50:08.000Z</time>
      </trkpt>
      <trkpt lat="45.50423" lon="6.06313">
        <ele>255.80000305176</ele>
        <time>2022-01-02T09:50:09.000Z</time>
      </trkpt>
      <trkpt lat="45.50427" lon="6.06332">
        <ele>255.60000610352</ele>
        <time>2022-01-02T09:50:11.000Z</time>
      </trkpt>
      <trkpt lat="45.50438" lon="6.06353">
        <ele>255.39999389648</ele>
        <time>2022-01-02T09:50:14.000Z</time>
      </trkpt>
      <trkpt lat="45.5044" lon="6.0636">
        <ele>255.39999389648</ele>
        <time>2022-01-02T09:50:15.000Z</time>
      </trkpt>
      <trkpt lat="45.50452" lon="6.0642">
        <ele>254.80000305176</ele>
        <time>2022-01-02T09:50:22.000Z</time>
      </trkpt>
      <trkpt lat="45.50457" lon="6.06447">
        <ele>254.60000610352</ele>
        <time>2022-01-02T09:50:25.000Z</time>
      </trkpt>
      <trkpt lat="45.50457" lon="6.06466">
        <ele>254.39999389648</ele>
        <time>2022-01-02T09:50:27.000Z</time>
      </trkpt>
      <trkpt lat="45.50452" lon="6.06492">
        <ele>254.19999694824</ele>
        <time>2022-01-02T09:50:30.000Z</time>
      </trkpt>
      <trkpt lat="45.50449" lon="6.06508">
        <ele>254</ele>
        <time>2022-01-02T09:50:32.000Z</time>
      </trkpt>
      <trkpt lat="45.50438" lon="6.06533">
        <ele>253.80000305176</ele>
        <time>2022-01-02T09:50:35.000Z</time>
      </trkpt>
      <trkpt lat="45.5043" lon="6.06544">
        <ele>253.80000305176</ele>
        <time>2022-01-02T09:50:37.000Z</time>
      </trkpt>
      <trkpt lat="45.50405" lon="6.06572">
        <ele>253.19999694824</ele>
        <time>2022-01-02T09:50:42.000Z</time>
      </trkpt>
      <trkpt lat="45.50395" lon="6.06582">
        <ele>253</ele>
        <time>2022-01-02T09:50:44.000Z</time>
      </trkpt>
      <trkpt lat="45.50349" lon="6.06633">
        <ele>252.19999694824</ele>
        <time>2022-01-02T09:50:54.000Z</time>
      </trkpt>
      <trkpt lat="45.50341" lon="6.0664">
        <ele>252.19999694824</ele>
        <time>2022-01-02T09:50:56.000Z</time>
      </trkpt>
      <trkpt lat="45.50337" lon="6.0664">
        <ele>252.19999694824</ele>
        <time>2022-01-02T09:50:57.000Z</time>
      </trkpt>
      <trkpt lat="45.50333" lon="6.06638">
        <ele>252.19999694824</ele>
        <time>2022-01-02T09:50:58.000Z</time>
      </trkpt>
      <trkpt lat="45.50321" lon="6.06634">
        <ele>251.39999389648</ele>
        <time>2022-01-02T09:51:02.000Z</time>
      </trkpt>
      <trkpt lat="45.50312" lon="6.0664">
        <ele>251.19999694824</ele>
        <time>2022-01-02T09:51:05.000Z</time>
      </trkpt>
      <trkpt lat="45.50309" lon="6.06642">
        <ele>251</ele>
        <time>2022-01-02T09:51:06.000Z</time>
      </trkpt>
      <trkpt lat="45.50308" lon="6.06646">
        <ele>251</ele>
        <time>2022-01-02T09:51:07.000Z</time>
      </trkpt>
      <trkpt lat="45.50308" lon="6.06654">
        <ele>251</ele>
        <time>2022-01-02T09:51:09.000Z</time>
      </trkpt>
      <trkpt lat="45.50305" lon="6.06671">
        <ele>251</ele>
        <time>2022-01-02T09:51:12.000Z</time>
      </trkpt>
      <trkpt lat="45.50301" lon="6.06679">
        <ele>251</ele>
        <time>2022-01-02T09:51:13.000Z</time>
      </trkpt>
      <trkpt lat="45.50298" lon="6.06684">
        <ele>251</ele>
        <time>2022-01-02T09:51:14.000Z</time>
      </trkpt>
      <trkpt lat="45.50289" lon="6.06694">
        <ele>251</ele>
        <time>2022-01-02T09:51:16.000Z</time>
      </trkpt>
      <trkpt lat="45.50284" lon="6.06698">
        <ele>251</ele>
        <time>2022-01-02T09:51:17.000Z</time>
      </trkpt>
      <trkpt lat="45.5024" lon="6.0674">
        <ele>251.19999694824</ele>
        <time>2022-01-02T09:51:26.000Z</time>
      </trkpt>
      <trkpt lat="45.50228" lon="6.06746">
        <ele>251.19999694824</ele>
        <time>2022-01-02T09:51:28.000Z</time>
      </trkpt>
      <trkpt lat="45.50218" lon="6.06749">
        <ele>251.19999694824</ele>
        <time>2022-01-02T09:51:30.000Z</time>
      </trkpt>
      <trkpt lat="45.50212" lon="6.06748">
        <ele>251.19999694824</ele>
        <time>2022-01-02T09:51:31.000Z</time>
      </trkpt>
      <trkpt lat="45.50207" lon="6.06746">
        <ele>251</ele>
        <time>2022-01-02T09:51:32.000Z</time>
      </trkpt>
      <trkpt lat="45.50198" lon="6.06739">
        <ele>251</ele>
        <time>2022-01-02T09:51:34.000Z</time>
      </trkpt>
      <trkpt lat="45.50194" lon="6.06733">
        <ele>251</ele>
        <time>2022-01-02T09:51:35.000Z</time>
      </trkpt>
      <trkpt lat="45.50183" lon="6.06711">
        <ele>251</ele>
        <time>2022-01-02T09:51:38.000Z</time>
      </trkpt>
      <trkpt lat="45.50177" lon="6.06697">
        <ele>251</ele>
        <time>2022-01-02T09:51:40.000Z</time>
      </trkpt>
      <trkpt lat="45.50156" lon="6.06639">
        <ele>251.39999389648</ele>
        <time>2022-01-02T09:51:47.000Z</time>
      </trkpt>
      <trkpt lat="45.50129" lon="6.06572">
        <ele>251.60000610352</ele>
        <time>2022-01-02T09:51:55.000Z</time>
      </trkpt>
      <trkpt lat="45.50101" lon="6.065">
        <ele>251.80000305176</ele>
        <time>2022-01-02T09:52:04.000Z</time>
      </trkpt>
      <trkpt lat="45.50095" lon="6.06482">
        <ele>251.80000305176</ele>
        <time>2022-01-02T09:52:06.000Z</time>
      </trkpt>
      <trkpt lat="45.50071" lon="6.0642">
        <ele>251.80000305176</ele>
        <time>2022-01-02T09:52:14.000Z</time>
      </trkpt>
      <trkpt lat="45.50064" lon="6.06398">
        <ele>251.60000610352</ele>
        <time>2022-01-02T09:52:17.000Z</time>
      </trkpt>
      <trkpt lat="45.50061" lon="6.06383">
        <ele>251.60000610352</ele>
        <time>2022-01-02T09:52:19.000Z</time>
      </trkpt>
      <trkpt lat="45.50043" lon="6.06337">
        <ele>251.39999389648</ele>
        <time>2022-01-02T09:52:25.000Z</time>
      </trkpt>
      <trkpt lat="45.50017" lon="6.0627">
        <ele>251</ele>
        <time>2022-01-02T09:52:33.000Z</time>
      </trkpt>
      <trkpt lat="45.50004" lon="6.06234">
        <ele>251</ele>
        <time>2022-01-02T09:52:38.000Z</time>
      </trkpt>
      <trkpt lat="45.49999" lon="6.06222">
        <ele>251</ele>
        <time>2022-01-02T09:52:40.000Z</time>
      </trkpt>
      <trkpt lat="45.4998" lon="6.0618">
        <ele>251.19999694824</ele>
        <time>2022-01-02T09:52:46.000Z</time>
      </trkpt>
      <trkpt lat="45.49974" lon="6.06167">
        <ele>251.19999694824</ele>
        <time>2022-01-02T09:52:48.000Z</time>
      </trkpt>
      <trkpt lat="45.49965" lon="6.06147">
        <ele>251.60000610352</ele>
        <time>2022-01-02T09:52:51.000Z</time>
      </trkpt>
      <trkpt lat="45.49943" lon="6.0608">
        <ele>251.80000305176</ele>
        <time>2022-01-02T09:52:59.000Z</time>
      </trkpt>
      <trkpt lat="45.49937" lon="6.06065">
        <ele>251.80000305176</ele>
        <time>2022-01-02T09:53:01.000Z</time>
      </trkpt>
      <trkpt lat="45.4993" lon="6.06052">
        <ele>251.80000305176</ele>
        <time>2022-01-02T09:53:03.000Z</time>
      </trkpt>
      <trkpt lat="45.49914" lon="6.06025">
        <ele>251.60000610352</ele>
        <time>2022-01-02T09:53:07.000Z</time>
      </trkpt>
      <trkpt lat="45.49908" lon="6.0601">
        <ele>251.60000610352</ele>
        <time>2022-01-02T09:53:09.000Z</time>
      </trkpt>
      <trkpt lat="45.49895" lon="6.05981">
        <ele>251.60000610352</ele>
        <time>2022-01-02T09:53:13.000Z</time>
      </trkpt>
      <trkpt lat="45.49885" lon="6.05973">
        <ele>251.60000610352</ele>
        <time>2022-01-02T09:53:15.000Z</time>
      </trkpt>
      <trkpt lat="45.49875" lon="6.05978">
        <ele>251.60000610352</ele>
        <time>2022-01-02T09:53:17.000Z</time>
      </trkpt>
      <trkpt lat="45.49853" lon="6.06009">
        <ele>252</ele>
        <time>2022-01-02T09:53:23.000Z</time>
      </trkpt>
      <trkpt lat="45.4985" lon="6.06013">
        <ele>252.19999694824</ele>
        <time>2022-01-02T09:53:24.000Z</time>
      </trkpt>
      <trkpt lat="45.49821" lon="6.06053">
        <ele>252.80000305176</ele>
        <time>2022-01-02T09:53:32.000Z</time>
      </trkpt>
      <trkpt lat="45.49791" lon="6.06095">
        <ele>252.80000305176</ele>
        <time>2022-01-02T09:53:40.000Z</time>
      </trkpt>
      <trkpt lat="45.49759" lon="6.06146">
        <ele>252.60000610352</ele>
        <time>2022-01-02T09:53:49.000Z</time>
      </trkpt>
      <trkpt lat="45.4975" lon="6.0616">
        <ele>252.39999389648</ele>
        <time>2022-01-02T09:53:52.000Z</time>
      </trkpt>
      <trkpt lat="45.49748" lon="6.0616">
        <ele>252.19999694824</ele>
        <time>2022-01-02T09:53:53.000Z</time>
      </trkpt>
      <trkpt lat="45.49748" lon="6.06152">
        <ele>252</ele>
        <time>2022-01-02T09:53:55.000Z</time>
      </trkpt>
      <trkpt lat="45.49752" lon="6.0614">
        <ele>251.80000305176</ele>
        <time>2022-01-02T09:53:57.000Z</time>
      </trkpt>
      <trkpt lat="45.49756" lon="6.06132">
        <ele>251.39999389648</ele>
        <time>2022-01-02T09:53:58.000Z</time>
      </trkpt>
      <trkpt lat="45.49767" lon="6.0611">
        <ele>251</ele>
        <time>2022-01-02T09:54:01.000Z</time>
      </trkpt>
      <trkpt lat="45.4977" lon="6.06102">
        <ele>251</ele>
        <time>2022-01-02T09:54:02.000Z</time>
      </trkpt>
      <trkpt lat="45.49776" lon="6.06087">
        <ele>250.19999694824</ele>
        <time>2022-01-02T09:54:04.000Z</time>
      </trkpt>
      <trkpt lat="45.49777" lon="6.0607">
        <ele>249.80000305176</ele>
        <time>2022-01-02T09:54:06.000Z</time>
      </trkpt>
      <trkpt lat="45.49773" lon="6.06054">
        <ele>249.60000610352</ele>
        <time>2022-01-02T09:54:08.000Z</time>
      </trkpt>
      <trkpt lat="45.4977" lon="6.06047">
        <ele>249.60000610352</ele>
        <time>2022-01-02T09:54:09.000Z</time>
      </trkpt>
      <trkpt lat="45.4975" lon="6.05997">
        <ele>250.19999694824</ele>
        <time>2022-01-02T09:54:16.000Z</time>
      </trkpt>
      <trkpt lat="45.49728" lon="6.05947">
        <ele>250.39999389648</ele>
        <time>2022-01-02T09:54:23.000Z</time>
      </trkpt>
      <trkpt lat="45.4971" lon="6.05912">
        <ele>250.60000610352</ele>
        <time>2022-01-02T09:54:28.000Z</time>
      </trkpt>
      <trkpt lat="45.49703" lon="6.059">
        <ele>250.60000610352</ele>
        <time>2022-01-02T09:54:30.000Z</time>
      </trkpt>
      <trkpt lat="45.49677" lon="6.05854">
        <ele>250.39999389648</ele>
        <time>2022-01-02T09:54:37.000Z</time>
      </trkpt>
      <trkpt lat="45.49654" lon="6.05817">
        <ele>250.39999389648</ele>
        <time>2022-01-02T09:54:43.000Z</time>
      </trkpt>
      <trkpt lat="45.49649" lon="6.05813">
        <ele>250.39999389648</ele>
        <time>2022-01-02T09:54:44.000Z</time>
      </trkpt>
      <trkpt lat="45.49645" lon="6.05809">
        <ele>250.39999389648</ele>
        <time>2022-01-02T09:54:45.000Z</time>
      </trkpt>
      <trkpt lat="45.49632" lon="6.05801">
        <ele>250.19999694824</ele>
        <time>2022-01-02T09:54:48.000Z</time>
      </trkpt>
      <trkpt lat="45.49627" lon="6.0579">
        <ele>250</ele>
        <time>2022-01-02T09:54:50.000Z</time>
      </trkpt>
      <trkpt lat="45.49625" lon="6.05782">
        <ele>250</ele>
        <time>2022-01-02T09:54:51.000Z</time>
      </trkpt>
      <trkpt lat="45.4962" lon="6.05766">
        <ele>250</ele>
        <time>2022-01-02T09:54:53.000Z</time>
      </trkpt>
      <trkpt lat="45.49609" lon="6.05744">
        <ele>250</ele>
        <time>2022-01-02T09:54:56.000Z</time>
      </trkpt>
      <trkpt lat="45.49584" lon="6.05711">
        <ele>250.39999389648</ele>
        <time>2022-01-02T09:55:02.000Z</time>
      </trkpt>
      <trkpt lat="45.49566" lon="6.05691">
        <ele>250.60000610352</ele>
        <time>2022-01-02T09:55:06.000Z</time>
      </trkpt>
      <trkpt lat="45.49559" lon="6.05678">
        <ele>251</ele>
        <time>2022-01-02T09:55:08.000Z</time>
      </trkpt>
      <trkpt lat="45.49551" lon="6.05646">
        <ele>251.60000610352</ele>
        <time>2022-01-02T09:55:12.000Z</time>
      </trkpt>
      <trkpt lat="45.49544" lon="6.05635">
        <ele>252</ele>
        <time>2022-01-02T09:55:14.000Z</time>
      </trkpt>
      <trkpt lat="45.49539" lon="6.05631">
        <ele>252.19999694824</ele>
        <time>2022-01-02T09:55:15.000Z</time>
      </trkpt>
      <trkpt lat="45.49532" lon="6.05628">
        <ele>252.39999389648</ele>
        <time>2022-01-02T09:55:16.000Z</time>
      </trkpt>
      <trkpt lat="45.49519" lon="6.05622">
        <ele>252.60000610352</ele>
        <time>2022-01-02T09:55:18.000Z</time>
      </trkpt>
      <trkpt lat="45.49508" lon="6.05613">
        <ele>252.60000610352</ele>
        <time>2022-01-02T09:55:20.000Z</time>
      </trkpt>
      <trkpt lat="45.4948" lon="6.05569">
        <ele>252</ele>
        <time>2022-01-02T09:55:26.000Z</time>
      </trkpt>
      <trkpt lat="45.49455" lon="6.05508">
        <ele>251</ele>
        <time>2022-01-02T09:55:33.000Z</time>
      </trkpt>
      <trkpt lat="45.49452" lon="6.055">
        <ele>251</ele>
        <time>2022-01-02T09:55:34.000Z</time>
      </trkpt>
      <trkpt lat="45.49429" lon="6.05452">
        <ele>250.39999389648</ele>
        <time>2022-01-02T09:55:40.000Z</time>
      </trkpt>
      <trkpt lat="45.4939" lon="6.05387">
        <ele>250.19999694824</ele>
        <time>2022-01-02T09:55:49.000Z</time>
      </trkpt>
      <trkpt lat="45.49386" lon="6.0538">
        <ele>250.19999694824</ele>
        <time>2022-01-02T09:55:50.000Z</time>
      </trkpt>
      <trkpt lat="45.49365" lon="6.05344">
        <ele>250</ele>
        <time>2022-01-02T09:55:55.000Z</time>
      </trkpt>
      <trkpt lat="45.49334" lon="6.05295">
        <ele>249.80000305176</ele>
        <time>2022-01-02T09:56:02.000Z</time>
      </trkpt>
      <trkpt lat="45.49299" lon="6.05237">
        <ele>249.60000610352</ele>
        <time>2022-01-02T09:56:10.000Z</time>
      </trkpt>
      <trkpt lat="45.4929" lon="6.05223">
        <ele>249.60000610352</ele>
        <time>2022-01-02T09:56:12.000Z</time>
      </trkpt>
      <trkpt lat="45.49255" lon="6.05165">
        <ele>249.80000305176</ele>
        <time>2022-01-02T09:56:20.000Z</time>
      </trkpt>
      <trkpt lat="45.49242" lon="6.05142">
        <ele>249.80000305176</ele>
        <time>2022-01-02T09:56:23.000Z</time>
      </trkpt>
      <trkpt lat="45.49207" lon="6.05084">
        <ele>249.80000305176</ele>
        <time>2022-01-02T09:56:31.000Z</time>
      </trkpt>
      <trkpt lat="45.49198" lon="6.05069">
        <ele>249.80000305176</ele>
        <time>2022-01-02T09:56:33.000Z</time>
      </trkpt>
      <trkpt lat="45.49162" lon="6.0501">
        <ele>249.80000305176</ele>
        <time>2022-01-02T09:56:41.000Z</time>
      </trkpt>
      <trkpt lat="45.49153" lon="6.04996">
        <ele>249.80000305176</ele>
        <time>2022-01-02T09:56:43.000Z</time>
      </trkpt>
      <trkpt lat="45.49114" lon="6.04931">
        <ele>249.60000610352</ele>
        <time>2022-01-02T09:56:52.000Z</time>
      </trkpt>
      <trkpt lat="45.49102" lon="6.04911">
        <ele>249.60000610352</ele>
        <time>2022-01-02T09:56:55.000Z</time>
      </trkpt>
      <trkpt lat="45.49066" lon="6.04851">
        <ele>249.39999389648</ele>
        <time>2022-01-02T09:57:03.000Z</time>
      </trkpt>
      <trkpt lat="45.49062" lon="6.04845">
        <ele>249.39999389648</ele>
        <time>2022-01-02T09:57:04.000Z</time>
      </trkpt>
      <trkpt lat="45.49026" lon="6.04785">
        <ele>249.39999389648</ele>
        <time>2022-01-02T09:57:12.000Z</time>
      </trkpt>
      <trkpt lat="45.49004" lon="6.0475">
        <ele>249.60000610352</ele>
        <time>2022-01-02T09:57:17.000Z</time>
      </trkpt>
      <trkpt lat="45.48964" lon="6.04686">
        <ele>249.80000305176</ele>
        <time>2022-01-02T09:57:26.000Z</time>
      </trkpt>
      <trkpt lat="45.4895" lon="6.04664">
        <ele>249.80000305176</ele>
        <time>2022-01-02T09:57:29.000Z</time>
      </trkpt>
      <trkpt lat="45.4891" lon="6.046">
        <ele>250.19999694824</ele>
        <time>2022-01-02T09:57:38.000Z</time>
      </trkpt>
      <trkpt lat="45.48896" lon="6.04577">
        <ele>250.19999694824</ele>
        <time>2022-01-02T09:57:41.000Z</time>
      </trkpt>
      <trkpt lat="45.48856" lon="6.04513">
        <ele>250.39999389648</ele>
        <time>2022-01-02T09:57:50.000Z</time>
      </trkpt>
      <trkpt lat="45.48847" lon="6.04499">
        <ele>250.39999389648</ele>
        <time>2022-01-02T09:57:52.000Z</time>
      </trkpt>
      <trkpt lat="45.48813" lon="6.04443">
        <ele>250.39999389648</ele>
        <time>2022-01-02T09:58:00.000Z</time>
      </trkpt>
      <trkpt lat="45.48785" lon="6.04408">
        <ele>250.80000305176</ele>
        <time>2022-01-02T09:58:06.000Z</time>
      </trkpt>
      <trkpt lat="45.48771" lon="6.04376">
        <ele>251</ele>
        <time>2022-01-02T09:58:10.000Z</time>
      </trkpt>
      <trkpt lat="45.48766" lon="6.04369">
        <ele>251</ele>
        <time>2022-01-02T09:58:11.000Z</time>
      </trkpt>
      <trkpt lat="45.48748" lon="6.04351">
        <ele>250.80000305176</ele>
        <time>2022-01-02T09:58:14.000Z</time>
      </trkpt>
      <trkpt lat="45.48736" lon="6.04332">
        <ele>251</ele>
        <time>2022-01-02T09:58:17.000Z</time>
      </trkpt>
      <trkpt lat="45.4872" lon="6.04302">
        <ele>251.19999694824</ele>
        <time>2022-01-02T09:58:21.000Z</time>
      </trkpt>
      <trkpt lat="45.48709" lon="6.0428">
        <ele>251.39999389648</ele>
        <time>2022-01-02T09:58:24.000Z</time>
      </trkpt>
      <trkpt lat="45.48704" lon="6.04274">
        <ele>251.39999389648</ele>
        <time>2022-01-02T09:58:25.000Z</time>
      </trkpt>
      <trkpt lat="45.4869" lon="6.04256">
        <ele>251.80000305176</ele>
        <time>2022-01-02T09:58:28.000Z</time>
      </trkpt>
      <trkpt lat="45.48685" lon="6.04251">
        <ele>252</ele>
        <time>2022-01-02T09:58:29.000Z</time>
      </trkpt>
      <trkpt lat="45.48668" lon="6.04238">
        <ele>252.39999389648</ele>
        <time>2022-01-02T09:58:32.000Z</time>
      </trkpt>
      <trkpt lat="45.48645" lon="6.04224">
        <ele>252.80000305176</ele>
        <time>2022-01-02T09:58:36.000Z</time>
      </trkpt>
      <trkpt lat="45.48622" lon="6.04217">
        <ele>253.39999389648</ele>
        <time>2022-01-02T09:58:40.000Z</time>
      </trkpt>
      <trkpt lat="45.48616" lon="6.04216">
        <ele>253.60000610352</ele>
        <time>2022-01-02T09:58:41.000Z</time>
      </trkpt>
      <trkpt lat="45.48573" lon="6.04217">
        <ele>254.39999389648</ele>
        <time>2022-01-02T09:58:48.000Z</time>
      </trkpt>
      <trkpt lat="45.48567" lon="6.04219">
        <ele>254.39999389648</ele>
        <time>2022-01-02T09:58:49.000Z</time>
      </trkpt>
      <trkpt lat="45.48507" lon="6.04233">
        <ele>254.39999389648</ele>
        <time>2022-01-02T09:58:58.000Z</time>
      </trkpt>
      <trkpt lat="45.48464" lon="6.04236">
        <ele>253.60000610352</ele>
        <time>2022-01-02T09:59:04.000Z</time>
      </trkpt>
      <trkpt lat="45.48456" lon="6.04234">
        <ele>253.39999389648</ele>
        <time>2022-01-02T09:59:05.000Z</time>
      </trkpt>
      <trkpt lat="45.48419" lon="6.04222">
        <ele>252.39999389648</ele>
        <time>2022-01-02T09:59:10.000Z</time>
      </trkpt>
      <trkpt lat="45.48389" lon="6.04206">
        <ele>251.19999694824</ele>
        <time>2022-01-02T09:59:14.000Z</time>
      </trkpt>
      <trkpt lat="45.48367" lon="6.04194">
        <ele>250.19999694824</ele>
        <time>2022-01-02T09:59:17.000Z</time>
      </trkpt>
      <trkpt lat="45.4836" lon="6.0419">
        <ele>250</ele>
        <time>2022-01-02T09:59:18.000Z</time>
      </trkpt>
      <trkpt lat="45.4833" lon="6.04178">
        <ele>249</ele>
        <time>2022-01-02T09:59:22.000Z</time>
      </trkpt>
      <trkpt lat="45.48302" lon="6.04168">
        <ele>248.60000610352</ele>
        <time>2022-01-02T09:59:26.000Z</time>
      </trkpt>
      <trkpt lat="45.48294" lon="6.04166">
        <ele>248.39999389648</ele>
        <time>2022-01-02T09:59:27.000Z</time>
      </trkpt>
      <trkpt lat="45.48245" lon="6.04151">
        <ele>247.80000305176</ele>
        <time>2022-01-02T09:59:34.000Z</time>
      </trkpt>
      <trkpt lat="45.48231" lon="6.04147">
        <ele>247.39999389648</ele>
        <time>2022-01-02T09:59:36.000Z</time>
      </trkpt>
      <trkpt lat="45.48177" lon="6.0413">
        <ele>247.19999694824</ele>
        <time>2022-01-02T09:59:44.000Z</time>
      </trkpt>
      <trkpt lat="45.48151" lon="6.04121">
        <ele>247.19999694824</ele>
        <time>2022-01-02T09:59:48.000Z</time>
      </trkpt>
      <trkpt lat="45.48093" lon="6.04101">
        <ele>247.19999694824</ele>
        <time>2022-01-02T09:59:57.000Z</time>
      </trkpt>
      <trkpt lat="45.48086" lon="6.04098">
        <ele>247.19999694824</ele>
        <time>2022-01-02T09:59:58.000Z</time>
      </trkpt>
      <trkpt lat="45.48031" lon="6.04078">
        <ele>247</ele>
        <time>2022-01-02T10:00:06.000Z</time>
      </trkpt>
      <trkpt lat="45.48012" lon="6.04071">
        <ele>247</ele>
        <time>2022-01-02T10:00:09.000Z</time>
      </trkpt>
      <trkpt lat="45.47985" lon="6.04061">
        <ele>246.80000305176</ele>
        <time>2022-01-02T10:00:13.000Z</time>
      </trkpt>
      <trkpt lat="45.47947" lon="6.04049">
        <ele>246.39999389648</ele>
        <time>2022-01-02T10:00:19.000Z</time>
      </trkpt>
      <trkpt lat="45.47915" lon="6.04055">
        <ele>246.39999389648</ele>
        <time>2022-01-02T10:00:24.000Z</time>
      </trkpt>
      <trkpt lat="45.47889" lon="6.04061">
        <ele>246.39999389648</ele>
        <time>2022-01-02T10:00:28.000Z</time>
      </trkpt>
      <trkpt lat="45.4787" lon="6.04065">
        <ele>246.19999694824</ele>
        <time>2022-01-02T10:00:31.000Z</time>
      </trkpt>
      <trkpt lat="45.47864" lon="6.04066">
        <ele>246.19999694824</ele>
        <time>2022-01-02T10:00:32.000Z</time>
      </trkpt>
      <trkpt lat="45.47848" lon="6.04074">
        <ele>246</ele>
        <time>2022-01-02T10:00:35.000Z</time>
      </trkpt>
      <trkpt lat="45.4784" lon="6.04078">
        <ele>246</ele>
        <time>2022-01-02T10:00:37.000Z</time>
      </trkpt>
      <trkpt lat="45.47832" lon="6.0408">
        <ele>246</ele>
        <time>2022-01-02T10:00:39.000Z</time>
      </trkpt>
      <trkpt lat="45.47822" lon="6.04078">
        <ele>245.80000305176</ele>
        <time>2022-01-02T10:00:42.000Z</time>
      </trkpt>
      <trkpt lat="45.47817" lon="6.04068">
        <ele>245.80000305176</ele>
        <time>2022-01-02T10:00:44.000Z</time>
      </trkpt>
      <trkpt lat="45.47813" lon="6.04053">
        <ele>245.80000305176</ele>
        <time>2022-01-02T10:00:46.000Z</time>
      </trkpt>
      <trkpt lat="45.47805" lon="6.04029">
        <ele>245.80000305176</ele>
        <time>2022-01-02T10:00:50.000Z</time>
      </trkpt>
      <trkpt lat="45.47802" lon="6.04026">
        <ele>245.80000305176</ele>
        <time>2022-01-02T10:00:51.000Z</time>
      </trkpt>
      <trkpt lat="45.47786" lon="6.04016">
        <ele>245.80000305176</ele>
        <time>2022-01-02T10:00:54.000Z</time>
      </trkpt>
      <trkpt lat="45.4778" lon="6.04015">
        <ele>245.80000305176</ele>
        <time>2022-01-02T10:00:55.000Z</time>
      </trkpt>
      <trkpt lat="45.47743" lon="6.04">
        <ele>245.80000305176</ele>
        <time>2022-01-02T10:01:02.000Z</time>
      </trkpt>
      <trkpt lat="45.47719" lon="6.03991">
        <ele>245.60000610352</ele>
        <time>2022-01-02T10:01:06.000Z</time>
      </trkpt>
      <trkpt lat="45.47702" lon="6.03988">
        <ele>245.60000610352</ele>
        <time>2022-01-02T10:01:09.000Z</time>
      </trkpt>
      <trkpt lat="45.47656" lon="6.03984">
        <ele>245.60000610352</ele>
        <time>2022-01-02T10:01:17.000Z</time>
      </trkpt>
      <trkpt lat="45.47601" lon="6.03981">
        <ele>246</ele>
        <time>2022-01-02T10:01:27.000Z</time>
      </trkpt>
      <trkpt lat="45.4756" lon="6.03981">
        <ele>245.80000305176</ele>
        <time>2022-01-02T10:01:34.000Z</time>
      </trkpt>
      <trkpt lat="45.47502" lon="6.03975">
        <ele>245.39999389648</ele>
        <time>2022-01-02T10:01:44.000Z</time>
      </trkpt>
      <trkpt lat="45.47496" lon="6.03974">
        <ele>245.39999389648</ele>
        <time>2022-01-02T10:01:45.000Z</time>
      </trkpt>
      <trkpt lat="45.47438" lon="6.03969">
        <ele>245</ele>
        <time>2022-01-02T10:01:55.000Z</time>
      </trkpt>
      <trkpt lat="45.47432" lon="6.03968">
        <ele>245.19999694824</ele>
        <time>2022-01-02T10:01:56.000Z</time>
      </trkpt>
      <trkpt lat="45.47373" lon="6.03962">
        <ele>245.39999389648</ele>
        <time>2022-01-02T10:02:06.000Z</time>
      </trkpt>
      <trkpt lat="45.4736" lon="6.03962">
        <ele>245.39999389648</ele>
        <time>2022-01-02T10:02:08.000Z</time>
      </trkpt>
      <trkpt lat="45.47318" lon="6.03961">
        <ele>245.39999389648</ele>
        <time>2022-01-02T10:02:16.000Z</time>
      </trkpt>
      <trkpt lat="45.47294" lon="6.03958">
        <ele>245.60000610352</ele>
        <time>2022-01-02T10:02:20.000Z</time>
      </trkpt>
      <trkpt lat="45.47276" lon="6.03954">
        <ele>245.60000610352</ele>
        <time>2022-01-02T10:02:23.000Z</time>
      </trkpt>
      <trkpt lat="45.4722" lon="6.03943">
        <ele>245.60000610352</ele>
        <time>2022-01-02T10:02:32.000Z</time>
      </trkpt>
      <trkpt lat="45.47208" lon="6.03938">
        <ele>245.60000610352</ele>
        <time>2022-01-02T10:02:34.000Z</time>
      </trkpt>
      <trkpt lat="45.47193" lon="6.03927">
        <ele>245.39999389648</ele>
        <time>2022-01-02T10:02:37.000Z</time>
      </trkpt>
      <trkpt lat="45.47154" lon="6.03891">
        <ele>245.60000610352</ele>
        <time>2022-01-02T10:02:45.000Z</time>
      </trkpt>
      <trkpt lat="45.47136" lon="6.03876">
        <ele>245.80000305176</ele>
        <time>2022-01-02T10:02:49.000Z</time>
      </trkpt>
      <trkpt lat="45.47133" lon="6.03872">
        <ele>245.80000305176</ele>
        <time>2022-01-02T10:02:50.000Z</time>
      </trkpt>
      <trkpt lat="45.47124" lon="6.03865">
        <ele>245.80000305176</ele>
        <time>2022-01-02T10:02:54.000Z</time>
      </trkpt>
      <trkpt lat="45.4712" lon="6.03867">
        <ele>245.60000610352</ele>
        <time>2022-01-02T10:02:56.000Z</time>
      </trkpt>
      <trkpt lat="45.47117" lon="6.03875">
        <ele>245.39999389648</ele>
        <time>2022-01-02T10:02:58.000Z</time>
      </trkpt>
      <trkpt lat="45.47111" lon="6.03904">
        <ele>245.19999694824</ele>
        <time>2022-01-02T10:03:03.000Z</time>
      </trkpt>
      <trkpt lat="45.47103" lon="6.0394">
        <ele>245.60000610352</ele>
        <time>2022-01-02T10:03:08.000Z</time>
      </trkpt>
      <trkpt lat="45.47092" lon="6.03994">
        <ele>246</ele>
        <time>2022-01-02T10:03:15.000Z</time>
      </trkpt>
      <trkpt lat="45.47083" lon="6.04049">
        <ele>246.60000610352</ele>
        <time>2022-01-02T10:03:22.000Z</time>
      </trkpt>
      <trkpt lat="45.47079" lon="6.04073">
        <ele>246.60000610352</ele>
        <time>2022-01-02T10:03:25.000Z</time>
      </trkpt>
      <trkpt lat="45.47073" lon="6.04114">
        <ele>246.80000305176</ele>
        <time>2022-01-02T10:03:30.000Z</time>
      </trkpt>
      <trkpt lat="45.47072" lon="6.04122">
        <ele>246.80000305176</ele>
        <time>2022-01-02T10:03:31.000Z</time>
      </trkpt>
      <trkpt lat="45.47072" lon="6.04148">
        <ele>247</ele>
        <time>2022-01-02T10:03:34.000Z</time>
      </trkpt>
      <trkpt lat="45.47072" lon="6.04157">
        <ele>247</ele>
        <time>2022-01-02T10:03:35.000Z</time>
      </trkpt>
      <trkpt lat="45.47074" lon="6.04165">
        <ele>247</ele>
        <time>2022-01-02T10:03:36.000Z</time>
      </trkpt>
      <trkpt lat="45.47082" lon="6.0419">
        <ele>247</ele>
        <time>2022-01-02T10:03:39.000Z</time>
      </trkpt>
      <trkpt lat="45.47101" lon="6.04236">
        <ele>247</ele>
        <time>2022-01-02T10:03:45.000Z</time>
      </trkpt>
      <trkpt lat="45.47128" lon="6.04303">
        <ele>247</ele>
        <time>2022-01-02T10:03:54.000Z</time>
      </trkpt>
      <trkpt lat="45.47132" lon="6.04319">
        <ele>246.80000305176</ele>
        <time>2022-01-02T10:03:56.000Z</time>
      </trkpt>
      <trkpt lat="45.47133" lon="6.04335">
        <ele>246.80000305176</ele>
        <time>2022-01-02T10:03:58.000Z</time>
      </trkpt>
      <trkpt lat="45.47133" lon="6.04344">
        <ele>246.80000305176</ele>
        <time>2022-01-02T10:03:59.000Z</time>
      </trkpt>
      <trkpt lat="45.47138" lon="6.0436">
        <ele>246.60000610352</ele>
        <time>2022-01-02T10:04:01.000Z</time>
      </trkpt>
      <trkpt lat="45.47152" lon="6.04379">
        <ele>246.60000610352</ele>
        <time>2022-01-02T10:04:04.000Z</time>
      </trkpt>
      <trkpt lat="45.47157" lon="6.04385">
        <ele>246.60000610352</ele>
        <time>2022-01-02T10:04:05.000Z</time>
      </trkpt>
      <trkpt lat="45.47161" lon="6.04393">
        <ele>246.60000610352</ele>
        <time>2022-01-02T10:04:06.000Z</time>
      </trkpt>
      <trkpt lat="45.47173" lon="6.04424">
        <ele>246.60000610352</ele>
        <time>2022-01-02T10:04:10.000Z</time>
      </trkpt>
      <trkpt lat="45.47194" lon="6.045">
        <ele>246.60000610352</ele>
        <time>2022-01-02T10:04:19.000Z</time>
      </trkpt>
      <trkpt lat="45.47214" lon="6.0457">
        <ele>246.60000610352</ele>
        <time>2022-01-02T10:04:28.000Z</time>
      </trkpt>
      <trkpt lat="45.47245" lon="6.04634">
        <ele>246.80000305176</ele>
        <time>2022-01-02T10:04:37.000Z</time>
      </trkpt>
      <trkpt lat="45.47248" lon="6.04641">
        <ele>246.80000305176</ele>
        <time>2022-01-02T10:04:38.000Z</time>
      </trkpt>
      <trkpt lat="45.47279" lon="6.04695">
        <ele>247</ele>
        <time>2022-01-02T10:04:46.000Z</time>
      </trkpt>
      <trkpt lat="45.47284" lon="6.047">
        <ele>247</ele>
        <time>2022-01-02T10:04:47.000Z</time>
      </trkpt>
      <trkpt lat="45.47304" lon="6.04717">
        <ele>247</ele>
        <time>2022-01-02T10:04:51.000Z</time>
      </trkpt>
      <trkpt lat="45.47337" lon="6.04748">
        <ele>247.19999694824</ele>
        <time>2022-01-02T10:04:58.000Z</time>
      </trkpt>
      <trkpt lat="45.47346" lon="6.04761">
        <ele>247.19999694824</ele>
        <time>2022-01-02T10:05:00.000Z</time>
      </trkpt>
      <trkpt lat="45.47355" lon="6.04782">
        <ele>247.19999694824</ele>
        <time>2022-01-02T10:05:03.000Z</time>
      </trkpt>
      <trkpt lat="45.47362" lon="6.04805">
        <ele>247.19999694824</ele>
        <time>2022-01-02T10:05:06.000Z</time>
      </trkpt>
      <trkpt lat="45.47367" lon="6.0483">
        <ele>247</ele>
        <time>2022-01-02T10:05:09.000Z</time>
      </trkpt>
      <trkpt lat="45.47374" lon="6.04896">
        <ele>247.19999694824</ele>
        <time>2022-01-02T10:05:17.000Z</time>
      </trkpt>
      <trkpt lat="45.47387" lon="6.0494">
        <ele>247.60000610352</ele>
        <time>2022-01-02T10:05:23.000Z</time>
      </trkpt>
      <trkpt lat="45.47397" lon="6.0496">
        <ele>247.80000305176</ele>
        <time>2022-01-02T10:05:26.000Z</time>
      </trkpt>
      <trkpt lat="45.47405" lon="6.04972">
        <ele>248</ele>
        <time>2022-01-02T10:05:28.000Z</time>
      </trkpt>
      <trkpt lat="45.47446" lon="6.05021">
        <ele>248.80000305176</ele>
        <time>2022-01-02T10:05:37.000Z</time>
      </trkpt>
      <trkpt lat="45.47488" lon="6.0507">
        <ele>249.19999694824</ele>
        <time>2022-01-02T10:05:46.000Z</time>
      </trkpt>
      <trkpt lat="45.47529" lon="6.05119">
        <ele>249.60000610352</ele>
        <time>2022-01-02T10:05:55.000Z</time>
      </trkpt>
      <trkpt lat="45.47546" lon="6.05143">
        <ele>249.60000610352</ele>
        <time>2022-01-02T10:05:59.000Z</time>
      </trkpt>
      <trkpt lat="45.47557" lon="6.05163">
        <ele>249.60000610352</ele>
        <time>2022-01-02T10:06:02.000Z</time>
      </trkpt>
      <trkpt lat="45.4756" lon="6.05171">
        <ele>249.60000610352</ele>
        <time>2022-01-02T10:06:03.000Z</time>
      </trkpt>
      <trkpt lat="45.47564" lon="6.05186">
        <ele>249.80000305176</ele>
        <time>2022-01-02T10:06:05.000Z</time>
      </trkpt>
      <trkpt lat="45.47565" lon="6.05194">
        <ele>249.80000305176</ele>
        <time>2022-01-02T10:06:06.000Z</time>
      </trkpt>
      <trkpt lat="45.47565" lon="6.05204">
        <ele>249.80000305176</ele>
        <time>2022-01-02T10:06:07.000Z</time>
      </trkpt>
      <trkpt lat="45.47565" lon="6.05219">
        <ele>250</ele>
        <time>2022-01-02T10:06:09.000Z</time>
      </trkpt>
      <trkpt lat="45.47564" lon="6.05237">
        <ele>250</ele>
        <time>2022-01-02T10:06:11.000Z</time>
      </trkpt>
      <trkpt lat="45.47559" lon="6.0532">
        <ele>250.39999389648</ele>
        <time>2022-01-02T10:06:21.000Z</time>
      </trkpt>
      <trkpt lat="45.4756" lon="6.05337">
        <ele>250.39999389648</ele>
        <time>2022-01-02T10:06:23.000Z</time>
      </trkpt>
      <trkpt lat="45.47567" lon="6.05371">
        <ele>250.39999389648</ele>
        <time>2022-01-02T10:06:27.000Z</time>
      </trkpt>
      <trkpt lat="45.47582" lon="6.05425">
        <ele>250.39999389648</ele>
        <time>2022-01-02T10:06:34.000Z</time>
      </trkpt>
      <trkpt lat="45.47589" lon="6.05449">
        <ele>250.60000610352</ele>
        <time>2022-01-02T10:06:37.000Z</time>
      </trkpt>
      <trkpt lat="45.47598" lon="6.0547">
        <ele>250.39999389648</ele>
        <time>2022-01-02T10:06:40.000Z</time>
      </trkpt>
      <trkpt lat="45.47632" lon="6.05526">
        <ele>250.19999694824</ele>
        <time>2022-01-02T10:06:48.000Z</time>
      </trkpt>
      <trkpt lat="45.47657" lon="6.05577">
        <ele>250</ele>
        <time>2022-01-02T10:06:55.000Z</time>
      </trkpt>
      <trkpt lat="45.47669" lon="6.05601">
        <ele>250</ele>
        <time>2022-01-02T10:06:58.000Z</time>
      </trkpt>
      <trkpt lat="45.47682" lon="6.05625">
        <ele>249.80000305176</ele>
        <time>2022-01-02T10:07:01.000Z</time>
      </trkpt>
      <trkpt lat="45.47691" lon="6.05636">
        <ele>249.60000610352</ele>
        <time>2022-01-02T10:07:03.000Z</time>
      </trkpt>
      <trkpt lat="45.47703" lon="6.05647">
        <ele>249.60000610352</ele>
        <time>2022-01-02T10:07:05.000Z</time>
      </trkpt>
      <trkpt lat="45.47708" lon="6.05651">
        <ele>249.39999389648</ele>
        <time>2022-01-02T10:07:06.000Z</time>
      </trkpt>
      <trkpt lat="45.47725" lon="6.05665">
        <ele>249.39999389648</ele>
        <time>2022-01-02T10:07:09.000Z</time>
      </trkpt>
      <trkpt lat="45.47752" lon="6.05693">
        <ele>249.60000610352</ele>
        <time>2022-01-02T10:07:15.000Z</time>
      </trkpt>
      <trkpt lat="45.47771" lon="6.05725">
        <ele>250.39999389648</ele>
        <time>2022-01-02T10:07:20.000Z</time>
      </trkpt>
      <trkpt lat="45.47784" lon="6.05754">
        <ele>250.80000305176</ele>
        <time>2022-01-02T10:07:24.000Z</time>
      </trkpt>
      <trkpt lat="45.47792" lon="6.05766">
        <ele>251</ele>
        <time>2022-01-02T10:07:26.000Z</time>
      </trkpt>
      <trkpt lat="45.47801" lon="6.05781">
        <ele>251.19999694824</ele>
        <time>2022-01-02T10:07:29.000Z</time>
      </trkpt>
      <trkpt lat="45.47809" lon="6.05795">
        <ele>251.39999389648</ele>
        <time>2022-01-02T10:07:31.000Z</time>
      </trkpt>
      <trkpt lat="45.47821" lon="6.05809">
        <ele>251.80000305176</ele>
        <time>2022-01-02T10:07:34.000Z</time>
      </trkpt>
      <trkpt lat="45.47826" lon="6.05816">
        <ele>252</ele>
        <time>2022-01-02T10:07:35.000Z</time>
      </trkpt>
      <trkpt lat="45.47844" lon="6.05844">
        <ele>252.80000305176</ele>
        <time>2022-01-02T10:07:41.000Z</time>
      </trkpt>
      <trkpt lat="45.47847" lon="6.05848">
        <ele>253</ele>
        <time>2022-01-02T10:07:42.000Z</time>
      </trkpt>
      <trkpt lat="45.47857" lon="6.05865">
        <ele>254</ele>
        <time>2022-01-02T10:07:46.000Z</time>
      </trkpt>
      <trkpt lat="45.47862" lon="6.05874">
        <ele>254.60000610352</ele>
        <time>2022-01-02T10:07:48.000Z</time>
      </trkpt>
      <trkpt lat="45.47865" lon="6.05877">
        <ele>255</ele>
        <time>2022-01-02T10:07:49.000Z</time>
      </trkpt>
      <trkpt lat="45.4788" lon="6.05897">
        <ele>256.20001220703</ele>
        <time>2022-01-02T10:07:54.000Z</time>
      </trkpt>
      <trkpt lat="45.47885" lon="6.05906">
        <ele>256.79998779297</ele>
        <time>2022-01-02T10:07:56.000Z</time>
      </trkpt>
      <trkpt lat="45.47893" lon="6.0592">
        <ele>257.39999389648</ele>
        <time>2022-01-02T10:07:59.000Z</time>
      </trkpt>
      <trkpt lat="45.47914" lon="6.05951">
        <ele>258.60000610352</ele>
        <time>2022-01-02T10:08:06.000Z</time>
      </trkpt>
      <trkpt lat="45.47919" lon="6.0596">
        <ele>258.79998779297</ele>
        <time>2022-01-02T10:08:08.000Z</time>
      </trkpt>
      <trkpt lat="45.47931" lon="6.05979">
        <ele>259.60000610352</ele>
        <time>2022-01-02T10:08:12.000Z</time>
      </trkpt>
      <trkpt lat="45.47942" lon="6.05997">
        <ele>260.20001220703</ele>
        <time>2022-01-02T10:08:16.000Z</time>
      </trkpt>
      <trkpt lat="45.47958" lon="6.06022">
        <ele>260.60000610352</ele>
        <time>2022-01-02T10:08:21.000Z</time>
      </trkpt>
      <trkpt lat="45.47964" lon="6.06034">
        <ele>260.60000610352</ele>
        <time>2022-01-02T10:08:23.000Z</time>
      </trkpt>
      <trkpt lat="45.4798" lon="6.06065">
        <ele>260.60000610352</ele>
        <time>2022-01-02T10:08:28.000Z</time>
      </trkpt>
      <trkpt lat="45.47989" lon="6.06086">
        <ele>260.20001220703</ele>
        <time>2022-01-02T10:08:31.000Z</time>
      </trkpt>
      <trkpt lat="45.47998" lon="6.0611">
        <ele>259.79998779297</ele>
        <time>2022-01-02T10:08:34.000Z</time>
      </trkpt>
      <trkpt lat="45.48014" lon="6.0615">
        <ele>258.60000610352</ele>
        <time>2022-01-02T10:08:39.000Z</time>
      </trkpt>
      <trkpt lat="45.48017" lon="6.06161">
        <ele>258.20001220703</ele>
        <time>2022-01-02T10:08:41.000Z</time>
      </trkpt>
      <trkpt lat="45.48017" lon="6.06165">
        <ele>258</ele>
        <time>2022-01-02T10:08:42.000Z</time>
      </trkpt>
      <trkpt lat="45.48018" lon="6.06168">
        <ele>257.79998779297</ele>
        <time>2022-01-02T10:08:43.000Z</time>
      </trkpt>
      <trkpt lat="45.48019" lon="6.06169">
        <ele>257.39999389648</ele>
        <time>2022-01-02T10:08:44.000Z</time>
      </trkpt>
      <trkpt lat="45.48019" lon="6.06169">
        <ele>256.79998779297</ele>
        <time>2022-01-02T10:08:46.000Z</time>
      </trkpt>
      <trkpt lat="45.48019" lon="6.06169">
        <ele>256.39999389648</ele>
        <time>2022-01-02T10:08:48.000Z</time>
      </trkpt>
      <trkpt lat="45.48019" lon="6.06169">
        <ele>255.60000610352</ele>
        <time>2022-01-02T10:09:02.000Z</time>
      </trkpt>
      <trkpt lat="45.48019" lon="6.06169">
        <ele>255.19999694824</ele>
        <time>2022-01-02T10:09:19.000Z</time>
      </trkpt>
      <trkpt lat="45.48019" lon="6.06169">
        <ele>255</ele>
        <time>2022-01-02T10:09:35.000Z</time>
      </trkpt>
      <trkpt lat="45.48023" lon="6.06175">
        <ele>255.19999694824</ele>
        <time>2022-01-02T10:09:37.000Z</time>
      </trkpt>
      <trkpt lat="45.48033" lon="6.06198">
        <ele>255.19999694824</ele>
        <time>2022-01-02T10:09:41.000Z</time>
      </trkpt>
      <trkpt lat="45.48044" lon="6.06217">
        <ele>255.39999389648</ele>
        <time>2022-01-02T10:09:44.000Z</time>
      </trkpt>
      <trkpt lat="45.48057" lon="6.06238">
        <ele>255</ele>
        <time>2022-01-02T10:09:47.000Z</time>
      </trkpt>
      <trkpt lat="45.48084" lon="6.06274">
        <ele>254.39999389648</ele>
        <time>2022-01-02T10:09:53.000Z</time>
      </trkpt>
      <trkpt lat="45.48119" lon="6.06307">
        <ele>254.39999389648</ele>
        <time>2022-01-02T10:10:00.000Z</time>
      </trkpt>
      <trkpt lat="45.48148" lon="6.06332">
        <ele>254.80000305176</ele>
        <time>2022-01-02T10:10:06.000Z</time>
      </trkpt>
      <trkpt lat="45.4818" lon="6.06361">
        <ele>255.60000610352</ele>
        <time>2022-01-02T10:10:13.000Z</time>
      </trkpt>
      <trkpt lat="45.48183" lon="6.06367">
        <ele>255.60000610352</ele>
        <time>2022-01-02T10:10:14.000Z</time>
      </trkpt>
      <trkpt lat="45.48184" lon="6.06375">
        <ele>255.60000610352</ele>
        <time>2022-01-02T10:10:15.000Z</time>
      </trkpt>
      <trkpt lat="45.48182" lon="6.06391">
        <ele>255.80000305176</ele>
        <time>2022-01-02T10:10:17.000Z</time>
      </trkpt>
      <trkpt lat="45.48172" lon="6.06429">
        <ele>255.39999389648</ele>
        <time>2022-01-02T10:10:21.000Z</time>
      </trkpt>
      <trkpt lat="45.4817" lon="6.0644">
        <ele>255.19999694824</ele>
        <time>2022-01-02T10:10:22.000Z</time>
      </trkpt>
      <trkpt lat="45.48171" lon="6.06461">
        <ele>254.19999694824</ele>
        <time>2022-01-02T10:10:24.000Z</time>
      </trkpt>
      <trkpt lat="45.48176" lon="6.06481">
        <ele>253.19999694824</ele>
        <time>2022-01-02T10:10:26.000Z</time>
      </trkpt>
      <trkpt lat="45.48177" lon="6.0649">
        <ele>252.60000610352</ele>
        <time>2022-01-02T10:10:27.000Z</time>
      </trkpt>
      <trkpt lat="45.48178" lon="6.06498">
        <ele>252.39999389648</ele>
        <time>2022-01-02T10:10:28.000Z</time>
      </trkpt>
      <trkpt lat="45.48177" lon="6.06508">
        <ele>252.19999694824</ele>
        <time>2022-01-02T10:10:29.000Z</time>
      </trkpt>
      <trkpt lat="45.48176" lon="6.06519">
        <ele>252</ele>
        <time>2022-01-02T10:10:30.000Z</time>
      </trkpt>
      <trkpt lat="45.48173" lon="6.06538">
        <ele>251.60000610352</ele>
        <time>2022-01-02T10:10:32.000Z</time>
      </trkpt>
      <trkpt lat="45.48171" lon="6.0656">
        <ele>251.39999389648</ele>
        <time>2022-01-02T10:10:35.000Z</time>
      </trkpt>
      <trkpt lat="45.48171" lon="6.06566">
        <ele>251.19999694824</ele>
        <time>2022-01-02T10:10:36.000Z</time>
      </trkpt>
      <trkpt lat="45.48173" lon="6.06573">
        <ele>251</ele>
        <time>2022-01-02T10:10:37.000Z</time>
      </trkpt>
      <trkpt lat="45.48176" lon="6.06577">
        <ele>251</ele>
        <time>2022-01-02T10:10:38.000Z</time>
      </trkpt>
      <trkpt lat="45.48179" lon="6.06583">
        <ele>250.80000305176</ele>
        <time>2022-01-02T10:10:39.000Z</time>
      </trkpt>
      <trkpt lat="45.48191" lon="6.06599">
        <ele>250</ele>
        <time>2022-01-02T10:10:42.000Z</time>
      </trkpt>
      <trkpt lat="45.48199" lon="6.06609">
        <ele>249.80000305176</ele>
        <time>2022-01-02T10:10:44.000Z</time>
      </trkpt>
      <trkpt lat="45.48208" lon="6.06628">
        <ele>249.39999389648</ele>
        <time>2022-01-02T10:10:47.000Z</time>
      </trkpt>
      <trkpt lat="45.48214" lon="6.06635">
        <ele>249.39999389648</ele>
        <time>2022-01-02T10:10:48.000Z</time>
      </trkpt>
      <trkpt lat="45.48218" lon="6.06637">
        <ele>249.19999694824</ele>
        <time>2022-01-02T10:10:49.000Z</time>
      </trkpt>
      <trkpt lat="45.48221" lon="6.06636">
        <ele>249</ele>
        <time>2022-01-02T10:10:50.000Z</time>
      </trkpt>
      <trkpt lat="45.48227" lon="6.06634">
        <ele>248.80000305176</ele>
        <time>2022-01-02T10:10:51.000Z</time>
      </trkpt>
      <trkpt lat="45.48235" lon="6.06627">
        <ele>248.80000305176</ele>
        <time>2022-01-02T10:10:53.000Z</time>
      </trkpt>
      <trkpt lat="45.48246" lon="6.06616">
        <ele>248.80000305176</ele>
        <time>2022-01-02T10:10:55.000Z</time>
      </trkpt>
      <trkpt lat="45.48251" lon="6.06612">
        <ele>248.80000305176</ele>
        <time>2022-01-02T10:10:56.000Z</time>
      </trkpt>
      <trkpt lat="45.48261" lon="6.06604">
        <ele>248.80000305176</ele>
        <time>2022-01-02T10:10:58.000Z</time>
      </trkpt>
      <trkpt lat="45.48271" lon="6.06602">
        <ele>248.80000305176</ele>
        <time>2022-01-02T10:11:00.000Z</time>
      </trkpt>
      <trkpt lat="45.48303" lon="6.0659">
        <ele>249.19999694824</ele>
        <time>2022-01-02T10:11:06.000Z</time>
      </trkpt>
      <trkpt lat="45.48312" lon="6.06582">
        <ele>249.39999389648</ele>
        <time>2022-01-02T10:11:08.000Z</time>
      </trkpt>
      <trkpt lat="45.48328" lon="6.06565">
        <ele>249.80000305176</ele>
        <time>2022-01-02T10:11:12.000Z</time>
      </trkpt>
      <trkpt lat="45.48332" lon="6.0656">
        <ele>249.80000305176</ele>
        <time>2022-01-02T10:11:13.000Z</time>
      </trkpt>
      <trkpt lat="45.48344" lon="6.06542">
        <ele>250.60000610352</ele>
        <time>2022-01-02T10:11:17.000Z</time>
      </trkpt>
      <trkpt lat="45.48348" lon="6.06538">
        <ele>250.60000610352</ele>
        <time>2022-01-02T10:11:18.000Z</time>
      </trkpt>
      <trkpt lat="45.48353" lon="6.06531">
        <ele>251</ele>
        <time>2022-01-02T10:11:20.000Z</time>
      </trkpt>
      <trkpt lat="45.48365" lon="6.06516">
        <ele>252.19999694824</ele>
        <time>2022-01-02T10:11:24.000Z</time>
      </trkpt>
      <trkpt lat="45.48377" lon="6.06498">
        <ele>253.19999694824</ele>
        <time>2022-01-02T10:11:29.000Z</time>
      </trkpt>
      <trkpt lat="45.48382" lon="6.06493">
        <ele>253.80000305176</ele>
        <time>2022-01-02T10:11:31.000Z</time>
      </trkpt>
      <trkpt lat="45.48391" lon="6.06486">
        <ele>254.39999389648</ele>
        <time>2022-01-02T10:11:34.000Z</time>
      </trkpt>
      <trkpt lat="45.48394" lon="6.06486">
        <ele>254.60000610352</ele>
        <time>2022-01-02T10:11:35.000Z</time>
      </trkpt>
      <trkpt lat="45.48406" lon="6.0649">
        <ele>255.60000610352</ele>
        <time>2022-01-02T10:11:39.000Z</time>
      </trkpt>
      <trkpt lat="45.48408" lon="6.06492">
        <ele>255.60000610352</ele>
        <time>2022-01-02T10:11:40.000Z</time>
      </trkpt>
      <trkpt lat="45.48418" lon="6.06501">
        <ele>256.79998779297</ele>
        <time>2022-01-02T10:11:44.000Z</time>
      </trkpt>
      <trkpt lat="45.48427" lon="6.06507">
        <ele>257.60000610352</ele>
        <time>2022-01-02T10:11:47.000Z</time>
      </trkpt>
      <trkpt lat="45.48431" lon="6.06511">
        <ele>258</ele>
        <time>2022-01-02T10:11:49.000Z</time>
      </trkpt>
      <trkpt lat="45.48442" lon="6.06522">
        <ele>258.79998779297</ele>
        <time>2022-01-02T10:11:53.000Z</time>
      </trkpt>
      <trkpt lat="45.48444" lon="6.06523">
        <ele>259.20001220703</ele>
        <time>2022-01-02T10:11:54.000Z</time>
      </trkpt>
      <trkpt lat="45.48455" lon="6.06535">
        <ele>260.39999389648</ele>
        <time>2022-01-02T10:11:59.000Z</time>
      </trkpt>
      <trkpt lat="45.48463" lon="6.06541">
        <ele>261.20001220703</ele>
        <time>2022-01-02T10:12:02.000Z</time>
      </trkpt>
      <trkpt lat="45.48465" lon="6.06543">
        <ele>261.39999389648</ele>
        <time>2022-01-02T10:12:03.000Z</time>
      </trkpt>
      <trkpt lat="45.48477" lon="6.06556">
        <ele>262.60000610352</ele>
        <time>2022-01-02T10:12:08.000Z</time>
      </trkpt>
      <trkpt lat="45.4848" lon="6.06559">
        <ele>262.79998779297</ele>
        <time>2022-01-02T10:12:09.000Z</time>
      </trkpt>
      <trkpt lat="45.48488" lon="6.06565">
        <ele>263.60000610352</ele>
        <time>2022-01-02T10:12:12.000Z</time>
      </trkpt>
      <trkpt lat="45.48502" lon="6.06575">
        <ele>264.60000610352</ele>
        <time>2022-01-02T10:12:17.000Z</time>
      </trkpt>
      <trkpt lat="45.48504" lon="6.06577">
        <ele>264.79998779297</ele>
        <time>2022-01-02T10:12:18.000Z</time>
      </trkpt>
      <trkpt lat="45.48513" lon="6.06585">
        <ele>266</ele>
        <time>2022-01-02T10:12:22.000Z</time>
      </trkpt>
      <trkpt lat="45.48517" lon="6.0659">
        <ele>266.79998779297</ele>
        <time>2022-01-02T10:12:24.000Z</time>
      </trkpt>
      <trkpt lat="45.48523" lon="6.06595">
        <ele>267.20001220703</ele>
        <time>2022-01-02T10:12:26.000Z</time>
      </trkpt>
      <trkpt lat="45.48534" lon="6.06604">
        <ele>268.20001220703</ele>
        <time>2022-01-02T10:12:30.000Z</time>
      </trkpt>
      <trkpt lat="45.48536" lon="6.06606">
        <ele>268.60000610352</ele>
        <time>2022-01-02T10:12:31.000Z</time>
      </trkpt>
      <trkpt lat="45.48543" lon="6.06613">
        <ele>269.60000610352</ele>
        <time>2022-01-02T10:12:34.000Z</time>
      </trkpt>
      <trkpt lat="45.48549" lon="6.06618">
        <ele>269.79998779297</ele>
        <time>2022-01-02T10:12:36.000Z</time>
      </trkpt>
      <trkpt lat="45.48555" lon="6.06625">
        <ele>270.60000610352</ele>
        <time>2022-01-02T10:12:39.000Z</time>
      </trkpt>
      <trkpt lat="45.48565" lon="6.06642">
        <ele>271.39999389648</ele>
        <time>2022-01-02T10:12:44.000Z</time>
      </trkpt>
      <trkpt lat="45.48573" lon="6.06661">
        <ele>272.39999389648</ele>
        <time>2022-01-02T10:12:49.000Z</time>
      </trkpt>
      <trkpt lat="45.48574" lon="6.06665">
        <ele>272.60000610352</ele>
        <time>2022-01-02T10:12:50.000Z</time>
      </trkpt>
      <trkpt lat="45.48579" lon="6.06677">
        <ele>273.60000610352</ele>
        <time>2022-01-02T10:12:53.000Z</time>
      </trkpt>
      <trkpt lat="45.48583" lon="6.06689">
        <ele>274.39999389648</ele>
        <time>2022-01-02T10:12:56.000Z</time>
      </trkpt>
      <trkpt lat="45.48585" lon="6.06694">
        <ele>274.79998779297</ele>
        <time>2022-01-02T10:12:57.000Z</time>
      </trkpt>
      <trkpt lat="45.48589" lon="6.06713">
        <ele>275.79998779297</ele>
        <time>2022-01-02T10:13:01.000Z</time>
      </trkpt>
      <trkpt lat="45.48593" lon="6.06725">
        <ele>276.60000610352</ele>
        <time>2022-01-02T10:13:04.000Z</time>
      </trkpt>
      <trkpt lat="45.48594" lon="6.06728">
        <ele>276.79998779297</ele>
        <time>2022-01-02T10:13:05.000Z</time>
      </trkpt>
      <trkpt lat="45.48598" lon="6.06747">
        <ele>278</ele>
        <time>2022-01-02T10:13:09.000Z</time>
      </trkpt>
      <trkpt lat="45.486" lon="6.06754">
        <ele>278.60000610352</ele>
        <time>2022-01-02T10:13:11.000Z</time>
      </trkpt>
      <trkpt lat="45.48602" lon="6.06764">
        <ele>279.20001220703</ele>
        <time>2022-01-02T10:13:13.000Z</time>
      </trkpt>
      <trkpt lat="45.48607" lon="6.06778">
        <ele>280.39999389648</ele>
        <time>2022-01-02T10:13:16.000Z</time>
      </trkpt>
      <trkpt lat="45.48608" lon="6.06784">
        <ele>280.60000610352</ele>
        <time>2022-01-02T10:13:17.000Z</time>
      </trkpt>
      <trkpt lat="45.48606" lon="6.06801">
        <ele>281.60000610352</ele>
        <time>2022-01-02T10:13:21.000Z</time>
      </trkpt>
      <trkpt lat="45.48604" lon="6.06806">
        <ele>282.20001220703</ele>
        <time>2022-01-02T10:13:22.000Z</time>
      </trkpt>
      <trkpt lat="45.48598" lon="6.06815">
        <ele>282.79998779297</ele>
        <time>2022-01-02T10:13:25.000Z</time>
      </trkpt>
      <trkpt lat="45.4859" lon="6.06827">
        <ele>284.20001220703</ele>
        <time>2022-01-02T10:13:29.000Z</time>
      </trkpt>
      <trkpt lat="45.48584" lon="6.0684">
        <ele>285.39999389648</ele>
        <time>2022-01-02T10:13:32.000Z</time>
      </trkpt>
      <trkpt lat="45.4858" lon="6.06853">
        <ele>286</ele>
        <time>2022-01-02T10:13:35.000Z</time>
      </trkpt>
      <trkpt lat="45.48579" lon="6.06864">
        <ele>286.60000610352</ele>
        <time>2022-01-02T10:13:37.000Z</time>
      </trkpt>
      <trkpt lat="45.48577" lon="6.06882">
        <ele>287.79998779297</ele>
        <time>2022-01-02T10:13:41.000Z</time>
      </trkpt>
      <trkpt lat="45.48576" lon="6.06886">
        <ele>288.39999389648</ele>
        <time>2022-01-02T10:13:42.000Z</time>
      </trkpt>
      <trkpt lat="45.48576" lon="6.06896">
        <ele>289</ele>
        <time>2022-01-02T10:13:44.000Z</time>
      </trkpt>
      <trkpt lat="45.48578" lon="6.06904">
        <ele>289.79998779297</ele>
        <time>2022-01-02T10:13:46.000Z</time>
      </trkpt>
      <trkpt lat="45.48581" lon="6.06907">
        <ele>290.20001220703</ele>
        <time>2022-01-02T10:13:47.000Z</time>
      </trkpt>
      <trkpt lat="45.48586" lon="6.06909">
        <ele>290.39999389648</ele>
        <time>2022-01-02T10:13:49.000Z</time>
      </trkpt>
      <trkpt lat="45.48592" lon="6.06901">
        <ele>291.39999389648</ele>
        <time>2022-01-02T10:13:52.000Z</time>
      </trkpt>
      <trkpt lat="45.48593" lon="6.06897">
        <ele>291.60000610352</ele>
        <time>2022-01-02T10:13:53.000Z</time>
      </trkpt>
      <trkpt lat="45.48594" lon="6.06884">
        <ele>292.60000610352</ele>
        <time>2022-01-02T10:13:56.000Z</time>
      </trkpt>
      <trkpt lat="45.48595" lon="6.06877">
        <ele>292.79998779297</ele>
        <time>2022-01-02T10:13:58.000Z</time>
      </trkpt>
      <trkpt lat="45.48597" lon="6.06863">
        <ele>293.60000610352</ele>
        <time>2022-01-02T10:14:01.000Z</time>
      </trkpt>
      <trkpt lat="45.48601" lon="6.06855">
        <ele>294</ele>
        <time>2022-01-02T10:14:03.000Z</time>
      </trkpt>
      <trkpt lat="45.48604" lon="6.06853">
        <ele>294.20001220703</ele>
        <time>2022-01-02T10:14:04.000Z</time>
      </trkpt>
      <trkpt lat="45.48609" lon="6.06851">
        <ele>294.79998779297</ele>
        <time>2022-01-02T10:14:06.000Z</time>
      </trkpt>
      <trkpt lat="45.48613" lon="6.06854">
        <ele>295.39999389648</ele>
        <time>2022-01-02T10:14:08.000Z</time>
      </trkpt>
      <trkpt lat="45.48619" lon="6.0686">
        <ele>296</ele>
        <time>2022-01-02T10:14:11.000Z</time>
      </trkpt>
      <trkpt lat="45.48625" lon="6.0687">
        <ele>297</ele>
        <time>2022-01-02T10:14:14.000Z</time>
      </trkpt>
      <trkpt lat="45.48628" lon="6.06873">
        <ele>297.20001220703</ele>
        <time>2022-01-02T10:14:15.000Z</time>
      </trkpt>
      <trkpt lat="45.48635" lon="6.06882">
        <ele>298.39999389648</ele>
        <time>2022-01-02T10:14:18.000Z</time>
      </trkpt>
      <trkpt lat="45.48637" lon="6.06885">
        <ele>298.79998779297</ele>
        <time>2022-01-02T10:14:19.000Z</time>
      </trkpt>
      <trkpt lat="45.48647" lon="6.06899">
        <ele>300</ele>
        <time>2022-01-02T10:14:23.000Z</time>
      </trkpt>
      <trkpt lat="45.48655" lon="6.06907">
        <ele>300.79998779297</ele>
        <time>2022-01-02T10:14:26.000Z</time>
      </trkpt>
      <trkpt lat="45.4866" lon="6.06912">
        <ele>301.39999389648</ele>
        <time>2022-01-02T10:14:28.000Z</time>
      </trkpt>
      <trkpt lat="45.48676" lon="6.06923">
        <ele>302.60000610352</ele>
        <time>2022-01-02T10:14:33.000Z</time>
      </trkpt>
      <trkpt lat="45.48691" lon="6.0693">
        <ele>303.79998779297</ele>
        <time>2022-01-02T10:14:38.000Z</time>
      </trkpt>
      <trkpt lat="45.48695" lon="6.06932">
        <ele>304.20001220703</ele>
        <time>2022-01-02T10:14:39.000Z</time>
      </trkpt>
      <trkpt lat="45.48701" lon="6.06933">
        <ele>304.79998779297</ele>
        <time>2022-01-02T10:14:41.000Z</time>
      </trkpt>
      <trkpt lat="45.48704" lon="6.06934">
        <ele>304.79998779297</ele>
        <time>2022-01-02T10:14:42.000Z</time>
      </trkpt>
      <trkpt lat="45.4871" lon="6.06937">
        <ele>305.39999389648</ele>
        <time>2022-01-02T10:14:44.000Z</time>
      </trkpt>
      <trkpt lat="45.48715" lon="6.06941">
        <ele>305.79998779297</ele>
        <time>2022-01-02T10:14:46.000Z</time>
      </trkpt>
      <trkpt lat="45.4873" lon="6.06953">
        <ele>306.79998779297</ele>
        <time>2022-01-02T10:14:51.000Z</time>
      </trkpt>
      <trkpt lat="45.48741" lon="6.0697">
        <ele>308.20001220703</ele>
        <time>2022-01-02T10:14:56.000Z</time>
      </trkpt>
      <trkpt lat="45.48752" lon="6.06987">
        <ele>309.39999389648</ele>
        <time>2022-01-02T10:15:01.000Z</time>
      </trkpt>
      <trkpt lat="45.48761" lon="6.06999">
        <ele>310.60000610352</ele>
        <time>2022-01-02T10:15:05.000Z</time>
      </trkpt>
      <trkpt lat="45.48776" lon="6.07016">
        <ele>311.79998779297</ele>
        <time>2022-01-02T10:15:11.000Z</time>
      </trkpt>
      <trkpt lat="45.48778" lon="6.0702">
        <ele>312</ele>
        <time>2022-01-02T10:15:12.000Z</time>
      </trkpt>
      <trkpt lat="45.48796" lon="6.0704">
        <ele>313</ele>
        <time>2022-01-02T10:15:18.000Z</time>
      </trkpt>
      <trkpt lat="45.48804" lon="6.07051">
        <ele>313.39999389648</ele>
        <time>2022-01-02T10:15:21.000Z</time>
      </trkpt>
      <trkpt lat="45.48816" lon="6.07066">
        <ele>313.60000610352</ele>
        <time>2022-01-02T10:15:25.000Z</time>
      </trkpt>
      <trkpt lat="45.4882" lon="6.07069">
        <ele>313.60000610352</ele>
        <time>2022-01-02T10:15:26.000Z</time>
      </trkpt>
      <trkpt lat="45.48825" lon="6.07073">
        <ele>313.60000610352</ele>
        <time>2022-01-02T10:15:27.000Z</time>
      </trkpt>
      <trkpt lat="45.48853" lon="6.07093">
        <ele>313.20001220703</ele>
        <time>2022-01-02T10:15:32.000Z</time>
      </trkpt>
      <trkpt lat="45.48879" lon="6.0711">
        <ele>311.39999389648</ele>
        <time>2022-01-02T10:15:36.000Z</time>
      </trkpt>
      <trkpt lat="45.48895" lon="6.07118">
        <ele>310.20001220703</ele>
        <time>2022-01-02T10:15:38.000Z</time>
      </trkpt>
      <trkpt lat="45.48911" lon="6.07124">
        <ele>309.39999389648</ele>
        <time>2022-01-02T10:15:40.000Z</time>
      </trkpt>
      <trkpt lat="45.48919" lon="6.07126">
        <ele>308.39999389648</ele>
        <time>2022-01-02T10:15:41.000Z</time>
      </trkpt>
      <trkpt lat="45.48935" lon="6.0713">
        <ele>307.20001220703</ele>
        <time>2022-01-02T10:15:43.000Z</time>
      </trkpt>
      <trkpt lat="45.48942" lon="6.07134">
        <ele>306.60000610352</ele>
        <time>2022-01-02T10:15:44.000Z</time>
      </trkpt>
      <trkpt lat="45.48948" lon="6.0714">
        <ele>306</ele>
        <time>2022-01-02T10:15:45.000Z</time>
      </trkpt>
      <trkpt lat="45.48954" lon="6.07147">
        <ele>305</ele>
        <time>2022-01-02T10:15:46.000Z</time>
      </trkpt>
      <trkpt lat="45.48959" lon="6.07156">
        <ele>304.79998779297</ele>
        <time>2022-01-02T10:15:47.000Z</time>
      </trkpt>
      <trkpt lat="45.48969" lon="6.07177">
        <ele>303.39999389648</ele>
        <time>2022-01-02T10:15:49.000Z</time>
      </trkpt>
      <trkpt lat="45.48974" lon="6.07186">
        <ele>303</ele>
        <time>2022-01-02T10:15:50.000Z</time>
      </trkpt>
      <trkpt lat="45.48979" lon="6.07191">
        <ele>302.20001220703</ele>
        <time>2022-01-02T10:15:51.000Z</time>
      </trkpt>
      <trkpt lat="45.48986" lon="6.07196">
        <ele>302</ele>
        <time>2022-01-02T10:15:52.000Z</time>
      </trkpt>
      <trkpt lat="45.49001" lon="6.07199">
        <ele>301.60000610352</ele>
        <time>2022-01-02T10:15:54.000Z</time>
      </trkpt>
      <trkpt lat="45.49024" lon="6.07191">
        <ele>300.79998779297</ele>
        <time>2022-01-02T10:15:57.000Z</time>
      </trkpt>
      <trkpt lat="45.49032" lon="6.07187">
        <ele>300.39999389648</ele>
        <time>2022-01-02T10:15:58.000Z</time>
      </trkpt>
      <trkpt lat="45.49054" lon="6.07178">
        <ele>299.60000610352</ele>
        <time>2022-01-02T10:16:01.000Z</time>
      </trkpt>
      <trkpt lat="45.49088" lon="6.07164">
        <ele>298.60000610352</ele>
        <time>2022-01-02T10:16:06.000Z</time>
      </trkpt>
      <trkpt lat="45.49107" lon="6.07161">
        <ele>298.60000610352</ele>
        <time>2022-01-02T10:16:09.000Z</time>
      </trkpt>
      <trkpt lat="45.49118" lon="6.07165">
        <ele>298.79998779297</ele>
        <time>2022-01-02T10:16:11.000Z</time>
      </trkpt>
      <trkpt lat="45.49131" lon="6.0718">
        <ele>299</ele>
        <time>2022-01-02T10:16:14.000Z</time>
      </trkpt>
      <trkpt lat="45.49149" lon="6.07195">
        <ele>299.60000610352</ele>
        <time>2022-01-02T10:16:18.000Z</time>
      </trkpt>
      <trkpt lat="45.49176" lon="6.07212">
        <ele>301</ele>
        <time>2022-01-02T10:16:24.000Z</time>
      </trkpt>
      <trkpt lat="45.49181" lon="6.07214">
        <ele>301</ele>
        <time>2022-01-02T10:16:25.000Z</time>
      </trkpt>
      <trkpt lat="45.49194" lon="6.07224">
        <ele>301.79998779297</ele>
        <time>2022-01-02T10:16:28.000Z</time>
      </trkpt>
      <trkpt lat="45.49198" lon="6.07227">
        <ele>302</ele>
        <time>2022-01-02T10:16:29.000Z</time>
      </trkpt>
      <trkpt lat="45.49207" lon="6.07231">
        <ele>302.20001220703</ele>
        <time>2022-01-02T10:16:31.000Z</time>
      </trkpt>
      <trkpt lat="45.49211" lon="6.07234">
        <ele>302.39999389648</ele>
        <time>2022-01-02T10:16:32.000Z</time>
      </trkpt>
      <trkpt lat="45.49222" lon="6.07241">
        <ele>302.39999389648</ele>
        <time>2022-01-02T10:16:34.000Z</time>
      </trkpt>
      <trkpt lat="45.49237" lon="6.07256">
        <ele>302.39999389648</ele>
        <time>2022-01-02T10:16:37.000Z</time>
      </trkpt>
      <trkpt lat="45.49267" lon="6.07293">
        <ele>302</ele>
        <time>2022-01-02T10:16:43.000Z</time>
      </trkpt>
      <trkpt lat="45.49277" lon="6.07307">
        <ele>301.79998779297</ele>
        <time>2022-01-02T10:16:45.000Z</time>
      </trkpt>
      <trkpt lat="45.49299" lon="6.07334">
        <ele>301.20001220703</ele>
        <time>2022-01-02T10:16:49.000Z</time>
      </trkpt>
      <trkpt lat="45.49321" lon="6.07358">
        <ele>301</ele>
        <time>2022-01-02T10:16:53.000Z</time>
      </trkpt>
      <trkpt lat="45.49348" lon="6.07388">
        <ele>300.79998779297</ele>
        <time>2022-01-02T10:16:58.000Z</time>
      </trkpt>
      <trkpt lat="45.4937" lon="6.07421">
        <ele>300.79998779297</ele>
        <time>2022-01-02T10:17:03.000Z</time>
      </trkpt>
      <trkpt lat="45.49388" lon="6.07446">
        <ele>301</ele>
        <time>2022-01-02T10:17:07.000Z</time>
      </trkpt>
      <trkpt lat="45.49393" lon="6.0745">
        <ele>301.20001220703</ele>
        <time>2022-01-02T10:17:08.000Z</time>
      </trkpt>
      <trkpt lat="45.49421" lon="6.07477">
        <ele>301.79998779297</ele>
        <time>2022-01-02T10:17:14.000Z</time>
      </trkpt>
      <trkpt lat="45.49425" lon="6.07481">
        <ele>302.20001220703</ele>
        <time>2022-01-02T10:17:15.000Z</time>
      </trkpt>
      <trkpt lat="45.49441" lon="6.07497">
        <ele>303</ele>
        <time>2022-01-02T10:17:19.000Z</time>
      </trkpt>
      <trkpt lat="45.49444" lon="6.075">
        <ele>303.39999389648</ele>
        <time>2022-01-02T10:17:20.000Z</time>
      </trkpt>
      <trkpt lat="45.49454" lon="6.07509">
        <ele>304</ele>
        <time>2022-01-02T10:17:23.000Z</time>
      </trkpt>
      <trkpt lat="45.49462" lon="6.07513">
        <ele>304.39999389648</ele>
        <time>2022-01-02T10:17:25.000Z</time>
      </trkpt>
      <trkpt lat="45.49465" lon="6.07515">
        <ele>304.60000610352</ele>
        <time>2022-01-02T10:17:26.000Z</time>
      </trkpt>
      <trkpt lat="45.49479" lon="6.07523">
        <ele>306</ele>
        <time>2022-01-02T10:17:30.000Z</time>
      </trkpt>
      <trkpt lat="45.49487" lon="6.07526">
        <ele>306.39999389648</ele>
        <time>2022-01-02T10:17:32.000Z</time>
      </trkpt>
      <trkpt lat="45.49494" lon="6.07531">
        <ele>307.20001220703</ele>
        <time>2022-01-02T10:17:34.000Z</time>
      </trkpt>
      <trkpt lat="45.495" lon="6.07533">
        <ele>308.20001220703</ele>
        <time>2022-01-02T10:17:36.000Z</time>
      </trkpt>
      <trkpt lat="45.49507" lon="6.07536">
        <ele>309.20001220703</ele>
        <time>2022-01-02T10:17:38.000Z</time>
      </trkpt>
      <trkpt lat="45.49515" lon="6.07546">
        <ele>310.60000610352</ele>
        <time>2022-01-02T10:17:41.000Z</time>
      </trkpt>
      <trkpt lat="45.49519" lon="6.07555">
        <ele>311.20001220703</ele>
        <time>2022-01-02T10:17:43.000Z</time>
      </trkpt>
      <trkpt lat="45.49522" lon="6.07567">
        <ele>311.79998779297</ele>
        <time>2022-01-02T10:17:45.000Z</time>
      </trkpt>
      <trkpt lat="45.49527" lon="6.07588">
        <ele>312.60000610352</ele>
        <time>2022-01-02T10:17:49.000Z</time>
      </trkpt>
      <trkpt lat="45.49529" lon="6.07594">
        <ele>312.79998779297</ele>
        <time>2022-01-02T10:17:50.000Z</time>
      </trkpt>
      <trkpt lat="45.49539" lon="6.07612">
        <ele>313.39999389648</ele>
        <time>2022-01-02T10:17:54.000Z</time>
      </trkpt>
      <trkpt lat="45.49549" lon="6.07633">
        <ele>313.79998779297</ele>
        <time>2022-01-02T10:17:58.000Z</time>
      </trkpt>
      <trkpt lat="45.4956" lon="6.07659">
        <ele>314.79998779297</ele>
        <time>2022-01-02T10:18:03.000Z</time>
      </trkpt>
      <trkpt lat="45.49568" lon="6.07675">
        <ele>315</ele>
        <time>2022-01-02T10:18:06.000Z</time>
      </trkpt>
      <trkpt lat="45.4957" lon="6.0768">
        <ele>315.20001220703</ele>
        <time>2022-01-02T10:18:07.000Z</time>
      </trkpt>
      <trkpt lat="45.49572" lon="6.07686">
        <ele>315.20001220703</ele>
        <time>2022-01-02T10:18:08.000Z</time>
      </trkpt>
      <trkpt lat="45.49577" lon="6.07698">
        <ele>315.39999389648</ele>
        <time>2022-01-02T10:18:10.000Z</time>
      </trkpt>
      <trkpt lat="45.49595" lon="6.07745">
        <ele>316.20001220703</ele>
        <time>2022-01-02T10:18:18.000Z</time>
      </trkpt>
      <trkpt lat="45.49622" lon="6.0781">
        <ele>316.60000610352</ele>
        <time>2022-01-02T10:18:29.000Z</time>
      </trkpt>
      <trkpt lat="45.49635" lon="6.07843">
        <ele>317.20001220703</ele>
        <time>2022-01-02T10:18:35.000Z</time>
      </trkpt>
      <trkpt lat="45.49642" lon="6.0786">
        <ele>317.60000610352</ele>
        <time>2022-01-02T10:18:38.000Z</time>
      </trkpt>
      <trkpt lat="45.49649" lon="6.07887">
        <ele>318</ele>
        <time>2022-01-02T10:18:42.000Z</time>
      </trkpt>
      <trkpt lat="45.49649" lon="6.07894">
        <ele>318.20001220703</ele>
        <time>2022-01-02T10:18:43.000Z</time>
      </trkpt>
      <trkpt lat="45.49649" lon="6.07901">
        <ele>318.20001220703</ele>
        <time>2022-01-02T10:18:44.000Z</time>
      </trkpt>
      <trkpt lat="45.49649" lon="6.07923">
        <ele>318.79998779297</ele>
        <time>2022-01-02T10:18:48.000Z</time>
      </trkpt>
      <trkpt lat="45.49648" lon="6.07953">
        <ele>319.39999389648</ele>
        <time>2022-01-02T10:18:53.000Z</time>
      </trkpt>
      <trkpt lat="45.49649" lon="6.07966">
        <ele>319.60000610352</ele>
        <time>2022-01-02T10:18:55.000Z</time>
      </trkpt>
      <trkpt lat="45.49651" lon="6.08015">
        <ele>319.79998779297</ele>
        <time>2022-01-02T10:19:01.000Z</time>
      </trkpt>
      <trkpt lat="45.49654" lon="6.08078">
        <ele>319.60000610352</ele>
        <time>2022-01-02T10:19:08.000Z</time>
      </trkpt>
      <trkpt lat="45.49651" lon="6.08142">
        <ele>319</ele>
        <time>2022-01-02T10:19:15.000Z</time>
      </trkpt>
      <trkpt lat="45.49651" lon="6.08177">
        <ele>318.79998779297</ele>
        <time>2022-01-02T10:19:19.000Z</time>
      </trkpt>
      <trkpt lat="45.49655" lon="6.08193">
        <ele>318.79998779297</ele>
        <time>2022-01-02T10:19:21.000Z</time>
      </trkpt>
      <trkpt lat="45.49672" lon="6.08231">
        <ele>319</ele>
        <time>2022-01-02T10:19:26.000Z</time>
      </trkpt>
      <trkpt lat="45.49699" lon="6.08288">
        <ele>318.79998779297</ele>
        <time>2022-01-02T10:19:34.000Z</time>
      </trkpt>
      <trkpt lat="45.49717" lon="6.08332">
        <ele>319</ele>
        <time>2022-01-02T10:19:40.000Z</time>
      </trkpt>
      <trkpt lat="45.49735" lon="6.08382">
        <ele>318.39999389648</ele>
        <time>2022-01-02T10:19:46.000Z</time>
      </trkpt>
      <trkpt lat="45.49739" lon="6.0839">
        <ele>318.39999389648</ele>
        <time>2022-01-02T10:19:47.000Z</time>
      </trkpt>
      <trkpt lat="45.49754" lon="6.08427">
        <ele>318.20001220703</ele>
        <time>2022-01-02T10:19:52.000Z</time>
      </trkpt>
      <trkpt lat="45.49769" lon="6.08459">
        <ele>318.79998779297</ele>
        <time>2022-01-02T10:19:57.000Z</time>
      </trkpt>
      <trkpt lat="45.49785" lon="6.08489">
        <ele>319.60000610352</ele>
        <time>2022-01-02T10:20:02.000Z</time>
      </trkpt>
      <trkpt lat="45.49793" lon="6.08503">
        <ele>320</ele>
        <time>2022-01-02T10:20:04.000Z</time>
      </trkpt>
      <trkpt lat="45.49814" lon="6.08534">
        <ele>320.39999389648</ele>
        <time>2022-01-02T10:20:09.000Z</time>
      </trkpt>
      <trkpt lat="45.49837" lon="6.08562">
        <ele>320</ele>
        <time>2022-01-02T10:20:14.000Z</time>
      </trkpt>
      <trkpt lat="45.49863" lon="6.08594">
        <ele>319.60000610352</ele>
        <time>2022-01-02T10:20:19.000Z</time>
      </trkpt>
      <trkpt lat="45.49897" lon="6.08634">
        <ele>319.79998779297</ele>
        <time>2022-01-02T10:20:26.000Z</time>
      </trkpt>
      <trkpt lat="45.49936" lon="6.08675">
        <ele>319.79998779297</ele>
        <time>2022-01-02T10:20:34.000Z</time>
      </trkpt>
      <trkpt lat="45.49945" lon="6.08684">
        <ele>319.79998779297</ele>
        <time>2022-01-02T10:20:36.000Z</time>
      </trkpt>
      <trkpt lat="45.49965" lon="6.08702">
        <ele>319.79998779297</ele>
        <time>2022-01-02T10:20:40.000Z</time>
      </trkpt>
      <trkpt lat="45.49985" lon="6.0872">
        <ele>319.60000610352</ele>
        <time>2022-01-02T10:20:44.000Z</time>
      </trkpt>
      <trkpt lat="45.49994" lon="6.08729">
        <ele>319.60000610352</ele>
        <time>2022-01-02T10:20:46.000Z</time>
      </trkpt>
      <trkpt lat="45.50024" lon="6.08771">
        <ele>319.39999389648</ele>
        <time>2022-01-02T10:20:53.000Z</time>
      </trkpt>
      <trkpt lat="45.50051" lon="6.08813">
        <ele>319</ele>
        <time>2022-01-02T10:20:59.000Z</time>
      </trkpt>
      <trkpt lat="45.50056" lon="6.0882">
        <ele>318.60000610352</ele>
        <time>2022-01-02T10:21:00.000Z</time>
      </trkpt>
      <trkpt lat="45.50075" lon="6.08838">
        <ele>317.39999389648</ele>
        <time>2022-01-02T10:21:03.000Z</time>
      </trkpt>
      <trkpt lat="45.50083" lon="6.08844">
        <ele>317</ele>
        <time>2022-01-02T10:21:04.000Z</time>
      </trkpt>
      <trkpt lat="45.501" lon="6.08847">
        <ele>316.39999389648</ele>
        <time>2022-01-02T10:21:06.000Z</time>
      </trkpt>
      <trkpt lat="45.50116" lon="6.08843">
        <ele>315.60000610352</ele>
        <time>2022-01-02T10:21:08.000Z</time>
      </trkpt>
      <trkpt lat="45.50124" lon="6.08837">
        <ele>315</ele>
        <time>2022-01-02T10:21:09.000Z</time>
      </trkpt>
      <trkpt lat="45.50131" lon="6.08833">
        <ele>314.79998779297</ele>
        <time>2022-01-02T10:21:10.000Z</time>
      </trkpt>
      <trkpt lat="45.50149" lon="6.08831">
        <ele>314</ele>
        <time>2022-01-02T10:21:12.000Z</time>
      </trkpt>
      <trkpt lat="45.50157" lon="6.08834">
        <ele>313.79998779297</ele>
        <time>2022-01-02T10:21:13.000Z</time>
      </trkpt>
      <trkpt lat="45.50165" lon="6.0884">
        <ele>313.20001220703</ele>
        <time>2022-01-02T10:21:14.000Z</time>
      </trkpt>
      <trkpt lat="45.50171" lon="6.08847">
        <ele>312.60000610352</ele>
        <time>2022-01-02T10:21:15.000Z</time>
      </trkpt>
      <trkpt lat="45.50184" lon="6.08865">
        <ele>311.60000610352</ele>
        <time>2022-01-02T10:21:17.000Z</time>
      </trkpt>
      <trkpt lat="45.50196" lon="6.08883">
        <ele>310.79998779297</ele>
        <time>2022-01-02T10:21:19.000Z</time>
      </trkpt>
      <trkpt lat="45.50201" lon="6.0889">
        <ele>310.20001220703</ele>
        <time>2022-01-02T10:21:20.000Z</time>
      </trkpt>
      <trkpt lat="45.50218" lon="6.08917">
        <ele>309</ele>
        <time>2022-01-02T10:21:23.000Z</time>
      </trkpt>
      <trkpt lat="45.50238" lon="6.08953">
        <ele>307.79998779297</ele>
        <time>2022-01-02T10:21:27.000Z</time>
      </trkpt>
      <trkpt lat="45.5025" lon="6.08981">
        <ele>307.20001220703</ele>
        <time>2022-01-02T10:21:30.000Z</time>
      </trkpt>
      <trkpt lat="45.50255" lon="6.08999">
        <ele>307</ele>
        <time>2022-01-02T10:21:32.000Z</time>
      </trkpt>
      <trkpt lat="45.50261" lon="6.09018">
        <ele>306.60000610352</ele>
        <time>2022-01-02T10:21:34.000Z</time>
      </trkpt>
      <trkpt lat="45.50267" lon="6.09034">
        <ele>306.20001220703</ele>
        <time>2022-01-02T10:21:36.000Z</time>
      </trkpt>
      <trkpt lat="45.50273" lon="6.09043">
        <ele>305.79998779297</ele>
        <time>2022-01-02T10:21:37.000Z</time>
      </trkpt>
      <trkpt lat="45.50279" lon="6.0905">
        <ele>305.60000610352</ele>
        <time>2022-01-02T10:21:38.000Z</time>
      </trkpt>
      <trkpt lat="45.50298" lon="6.09071">
        <ele>304.79998779297</ele>
        <time>2022-01-02T10:21:41.000Z</time>
      </trkpt>
      <trkpt lat="45.50305" lon="6.09078">
        <ele>304.39999389648</ele>
        <time>2022-01-02T10:21:42.000Z</time>
      </trkpt>
      <trkpt lat="45.50312" lon="6.09086">
        <ele>304</ele>
        <time>2022-01-02T10:21:43.000Z</time>
      </trkpt>
      <trkpt lat="45.50326" lon="6.09101">
        <ele>303.39999389648</ele>
        <time>2022-01-02T10:21:45.000Z</time>
      </trkpt>
      <trkpt lat="45.50349" lon="6.09121">
        <ele>302.20001220703</ele>
        <time>2022-01-02T10:21:48.000Z</time>
      </trkpt>
      <trkpt lat="45.50363" lon="6.09132">
        <ele>301.20001220703</ele>
        <time>2022-01-02T10:21:50.000Z</time>
      </trkpt>
      <trkpt lat="45.50369" lon="6.09136">
        <ele>301</ele>
        <time>2022-01-02T10:21:51.000Z</time>
      </trkpt>
      <trkpt lat="45.50379" lon="6.09144">
        <ele>300.79998779297</ele>
        <time>2022-01-02T10:21:52.000Z</time>
      </trkpt>
      <trkpt lat="45.50399" lon="6.09164">
        <ele>300</ele>
        <time>2022-01-02T10:21:55.000Z</time>
      </trkpt>
      <trkpt lat="45.50434" lon="6.09204">
        <ele>298.79998779297</ele>
        <time>2022-01-02T10:22:01.000Z</time>
      </trkpt>
      <trkpt lat="45.5044" lon="6.09223">
        <ele>298.60000610352</ele>
        <time>2022-01-02T10:22:03.000Z</time>
      </trkpt>
      <trkpt lat="45.50441" lon="6.09233">
        <ele>298.39999389648</ele>
        <time>2022-01-02T10:22:04.000Z</time>
      </trkpt>
      <trkpt lat="45.50451" lon="6.09295">
        <ele>297.79998779297</ele>
        <time>2022-01-02T10:22:10.000Z</time>
      </trkpt>
      <trkpt lat="45.50454" lon="6.09316">
        <ele>297.60000610352</ele>
        <time>2022-01-02T10:22:12.000Z</time>
      </trkpt>
      <trkpt lat="45.50464" lon="6.09378">
        <ele>297.39999389648</ele>
        <time>2022-01-02T10:22:18.000Z</time>
      </trkpt>
      <trkpt lat="45.50467" lon="6.09419">
        <ele>297.20001220703</ele>
        <time>2022-01-02T10:22:22.000Z</time>
      </trkpt>
      <trkpt lat="45.50466" lon="6.09428">
        <ele>297.20001220703</ele>
        <time>2022-01-02T10:22:23.000Z</time>
      </trkpt>
      <trkpt lat="45.50459" lon="6.09457">
        <ele>297.20001220703</ele>
        <time>2022-01-02T10:22:26.000Z</time>
      </trkpt>
      <trkpt lat="45.50454" lon="6.09472">
        <ele>297.60000610352</ele>
        <time>2022-01-02T10:22:28.000Z</time>
      </trkpt>
      <trkpt lat="45.50427" lon="6.09539">
        <ele>297.79998779297</ele>
        <time>2022-01-02T10:22:36.000Z</time>
      </trkpt>
      <trkpt lat="45.50417" lon="6.09564">
        <ele>298</ele>
        <time>2022-01-02T10:22:39.000Z</time>
      </trkpt>
      <trkpt lat="45.50389" lon="6.0963">
        <ele>298.20001220703</ele>
        <time>2022-01-02T10:22:47.000Z</time>
      </trkpt>
      <trkpt lat="45.5038" lon="6.09653">
        <ele>298.20001220703</ele>
        <time>2022-01-02T10:22:50.000Z</time>
      </trkpt>
      <trkpt lat="45.50376" lon="6.09668">
        <ele>298.39999389648</ele>
        <time>2022-01-02T10:22:52.000Z</time>
      </trkpt>
      <trkpt lat="45.50374" lon="6.09683">
        <ele>298.39999389648</ele>
        <time>2022-01-02T10:22:54.000Z</time>
      </trkpt>
      <trkpt lat="45.50374" lon="6.09697">
        <ele>299</ele>
        <time>2022-01-02T10:22:56.000Z</time>
      </trkpt>
      <trkpt lat="45.50375" lon="6.09706">
        <ele>299.39999389648</ele>
        <time>2022-01-02T10:22:57.000Z</time>
      </trkpt>
      <trkpt lat="45.50377" lon="6.09739">
        <ele>300.20001220703</ele>
        <time>2022-01-02T10:23:01.000Z</time>
      </trkpt>
      <trkpt lat="45.50379" lon="6.09771">
        <ele>300.60000610352</ele>
        <time>2022-01-02T10:23:05.000Z</time>
      </trkpt>
      <trkpt lat="45.50384" lon="6.09827">
        <ele>301.20001220703</ele>
        <time>2022-01-02T10:23:12.000Z</time>
      </trkpt>
      <trkpt lat="45.50387" lon="6.09861">
        <ele>301.39999389648</ele>
        <time>2022-01-02T10:23:16.000Z</time>
      </trkpt>
      <trkpt lat="45.50393" lon="6.09936">
        <ele>301.39999389648</ele>
        <time>2022-01-02T10:23:24.000Z</time>
      </trkpt>
      <trkpt lat="45.50398" lon="6.10008">
        <ele>300.39999389648</ele>
        <time>2022-01-02T10:23:31.000Z</time>
      </trkpt>
      <trkpt lat="45.50399" lon="6.1002">
        <ele>300.20001220703</ele>
        <time>2022-01-02T10:23:32.000Z</time>
      </trkpt>
      <trkpt lat="45.50401" lon="6.10074">
        <ele>298.79998779297</ele>
        <time>2022-01-02T10:23:37.000Z</time>
      </trkpt>
      <trkpt lat="45.504" lon="6.10095">
        <ele>298.20001220703</ele>
        <time>2022-01-02T10:23:39.000Z</time>
      </trkpt>
      <trkpt lat="45.50399" lon="6.10106">
        <ele>298.20001220703</ele>
        <time>2022-01-02T10:23:40.000Z</time>
      </trkpt>
      <trkpt lat="45.50396" lon="6.10125">
        <ele>297.79998779297</ele>
        <time>2022-01-02T10:23:42.000Z</time>
      </trkpt>
      <trkpt lat="45.50394" lon="6.10137">
        <ele>297.60000610352</ele>
        <time>2022-01-02T10:23:43.000Z</time>
      </trkpt>
      <trkpt lat="45.50391" lon="6.10147">
        <ele>297.20001220703</ele>
        <time>2022-01-02T10:23:44.000Z</time>
      </trkpt>
      <trkpt lat="45.50386" lon="6.10165">
        <ele>296.60000610352</ele>
        <time>2022-01-02T10:23:46.000Z</time>
      </trkpt>
      <trkpt lat="45.50368" lon="6.10224">
        <ele>295.39999389648</ele>
        <time>2022-01-02T10:23:52.000Z</time>
      </trkpt>
      <trkpt lat="45.50365" lon="6.10237">
        <ele>295.39999389648</ele>
        <time>2022-01-02T10:23:53.000Z</time>
      </trkpt>
      <trkpt lat="45.50357" lon="6.10275">
        <ele>294.39999389648</ele>
        <time>2022-01-02T10:23:57.000Z</time>
      </trkpt>
      <trkpt lat="45.50356" lon="6.10298">
        <ele>294.20001220703</ele>
        <time>2022-01-02T10:23:59.000Z</time>
      </trkpt>
      <trkpt lat="45.50359" lon="6.10346">
        <ele>293.60000610352</ele>
        <time>2022-01-02T10:24:04.000Z</time>
      </trkpt>
      <trkpt lat="45.50365" lon="6.10376">
        <ele>293.20001220703</ele>
        <time>2022-01-02T10:24:07.000Z</time>
      </trkpt>
      <trkpt lat="45.50378" lon="6.10445">
        <ele>292.60000610352</ele>
        <time>2022-01-02T10:24:14.000Z</time>
      </trkpt>
      <trkpt lat="45.50394" lon="6.10528">
        <ele>292.39999389648</ele>
        <time>2022-01-02T10:24:23.000Z</time>
      </trkpt>
      <trkpt lat="45.50397" lon="6.10536">
        <ele>292.20001220703</ele>
        <time>2022-01-02T10:24:24.000Z</time>
      </trkpt>
      <trkpt lat="45.50407" lon="6.10564">
        <ele>291.79998779297</ele>
        <time>2022-01-02T10:24:27.000Z</time>
      </trkpt>
      <trkpt lat="45.50417" lon="6.10586">
        <ele>291</ele>
        <time>2022-01-02T10:24:29.000Z</time>
      </trkpt>
      <trkpt lat="45.50433" lon="6.10614">
        <ele>290</ele>
        <time>2022-01-02T10:24:32.000Z</time>
      </trkpt>
      <trkpt lat="45.5044" lon="6.10626">
        <ele>289.79998779297</ele>
        <time>2022-01-02T10:24:33.000Z</time>
      </trkpt>
      <trkpt lat="45.50454" lon="6.10651">
        <ele>288.20001220703</ele>
        <time>2022-01-02T10:24:36.000Z</time>
      </trkpt>
      <trkpt lat="45.50459" lon="6.10659">
        <ele>287.79998779297</ele>
        <time>2022-01-02T10:24:37.000Z</time>
      </trkpt>
      <trkpt lat="45.50464" lon="6.10668">
        <ele>287</ele>
        <time>2022-01-02T10:24:38.000Z</time>
      </trkpt>
      <trkpt lat="45.50473" lon="6.10689">
        <ele>285.79998779297</ele>
        <time>2022-01-02T10:24:40.000Z</time>
      </trkpt>
      <trkpt lat="45.50476" lon="6.107">
        <ele>284.79998779297</ele>
        <time>2022-01-02T10:24:41.000Z</time>
      </trkpt>
      <trkpt lat="45.50478" lon="6.10712">
        <ele>284.39999389648</ele>
        <time>2022-01-02T10:24:42.000Z</time>
      </trkpt>
      <trkpt lat="45.50482" lon="6.10736">
        <ele>282.79998779297</ele>
        <time>2022-01-02T10:24:44.000Z</time>
      </trkpt>
      <trkpt lat="45.50484" lon="6.10758">
        <ele>282</ele>
        <time>2022-01-02T10:24:46.000Z</time>
      </trkpt>
      <trkpt lat="45.50485" lon="6.10768">
        <ele>281.79998779297</ele>
        <time>2022-01-02T10:24:47.000Z</time>
      </trkpt>
      <trkpt lat="45.50488" lon="6.10799">
        <ele>280.60000610352</ele>
        <time>2022-01-02T10:24:50.000Z</time>
      </trkpt>
      <trkpt lat="45.50489" lon="6.10807">
        <ele>280.20001220703</ele>
        <time>2022-01-02T10:24:51.000Z</time>
      </trkpt>
      <trkpt lat="45.50496" lon="6.10847">
        <ele>279.60000610352</ele>
        <time>2022-01-02T10:24:55.000Z</time>
      </trkpt>
      <trkpt lat="45.50501" lon="6.10864">
        <ele>279.60000610352</ele>
        <time>2022-01-02T10:24:57.000Z</time>
      </trkpt>
      <trkpt lat="45.50527" lon="6.10921">
        <ele>279.39999389648</ele>
        <time>2022-01-02T10:25:04.000Z</time>
      </trkpt>
      <trkpt lat="45.50546" lon="6.10959">
        <ele>278.60000610352</ele>
        <time>2022-01-02T10:25:08.000Z</time>
      </trkpt>
      <trkpt lat="45.5055" lon="6.10969">
        <ele>278.20001220703</ele>
        <time>2022-01-02T10:25:09.000Z</time>
      </trkpt>
      <trkpt lat="45.50565" lon="6.11">
        <ele>277.39999389648</ele>
        <time>2022-01-02T10:25:12.000Z</time>
      </trkpt>
      <trkpt lat="45.50576" lon="6.11022">
        <ele>276.20001220703</ele>
        <time>2022-01-02T10:25:14.000Z</time>
      </trkpt>
      <trkpt lat="45.50581" lon="6.11033">
        <ele>275.79998779297</ele>
        <time>2022-01-02T10:25:15.000Z</time>
      </trkpt>
      <trkpt lat="45.50591" lon="6.11054">
        <ele>275</ele>
        <time>2022-01-02T10:25:17.000Z</time>
      </trkpt>
      <trkpt lat="45.50603" lon="6.1108">
        <ele>274</ele>
        <time>2022-01-02T10:25:19.000Z</time>
      </trkpt>
      <trkpt lat="45.50619" lon="6.11114">
        <ele>272.79998779297</ele>
        <time>2022-01-02T10:25:22.000Z</time>
      </trkpt>
      <trkpt lat="45.50625" lon="6.11129">
        <ele>272.20001220703</ele>
        <time>2022-01-02T10:25:23.000Z</time>
      </trkpt>
      <trkpt lat="45.50631" lon="6.11142">
        <ele>271.39999389648</ele>
        <time>2022-01-02T10:25:24.000Z</time>
      </trkpt>
      <trkpt lat="45.50641" lon="6.11168">
        <ele>270</ele>
        <time>2022-01-02T10:25:26.000Z</time>
      </trkpt>
      <trkpt lat="45.5065" lon="6.11196">
        <ele>269</ele>
        <time>2022-01-02T10:25:28.000Z</time>
      </trkpt>
      <trkpt lat="45.50654" lon="6.1121">
        <ele>268.20001220703</ele>
        <time>2022-01-02T10:25:29.000Z</time>
      </trkpt>
      <trkpt lat="45.50658" lon="6.11225">
        <ele>268</ele>
        <time>2022-01-02T10:25:30.000Z</time>
      </trkpt>
      <trkpt lat="45.50662" lon="6.11239">
        <ele>267</ele>
        <time>2022-01-02T10:25:31.000Z</time>
      </trkpt>
      <trkpt lat="45.5067" lon="6.11268">
        <ele>266</ele>
        <time>2022-01-02T10:25:33.000Z</time>
      </trkpt>
      <trkpt lat="45.50678" lon="6.11298">
        <ele>264.79998779297</ele>
        <time>2022-01-02T10:25:35.000Z</time>
      </trkpt>
      <trkpt lat="45.5069" lon="6.1134">
        <ele>263</ele>
        <time>2022-01-02T10:25:38.000Z</time>
      </trkpt>
      <trkpt lat="45.50699" lon="6.11373">
        <ele>261.79998779297</ele>
        <time>2022-01-02T10:25:40.000Z</time>
      </trkpt>
      <trkpt lat="45.50703" lon="6.11388">
        <ele>260.79998779297</ele>
        <time>2022-01-02T10:25:41.000Z</time>
      </trkpt>
      <trkpt lat="45.50715" lon="6.11433">
        <ele>259</ele>
        <time>2022-01-02T10:25:44.000Z</time>
      </trkpt>
      <trkpt lat="45.50724" lon="6.11461">
        <ele>257.60000610352</ele>
        <time>2022-01-02T10:25:46.000Z</time>
      </trkpt>
      <trkpt lat="45.50729" lon="6.11474">
        <ele>257.20001220703</ele>
        <time>2022-01-02T10:25:47.000Z</time>
      </trkpt>
      <trkpt lat="45.50734" lon="6.11483">
        <ele>256.60000610352</ele>
        <time>2022-01-02T10:25:48.000Z</time>
      </trkpt>
      <trkpt lat="45.50742" lon="6.11496">
        <ele>256.20001220703</ele>
        <time>2022-01-02T10:25:49.000Z</time>
      </trkpt>
      <trkpt lat="45.50748" lon="6.11505">
        <ele>255.80000305176</ele>
        <time>2022-01-02T10:25:50.000Z</time>
      </trkpt>
      <trkpt lat="45.50769" lon="6.1153">
        <ele>255</ele>
        <time>2022-01-02T10:25:53.000Z</time>
      </trkpt>
      <trkpt lat="45.50783" lon="6.11544">
        <ele>254.60000610352</ele>
        <time>2022-01-02T10:25:55.000Z</time>
      </trkpt>
      <trkpt lat="45.50804" lon="6.11563">
        <ele>254</ele>
        <time>2022-01-02T10:25:58.000Z</time>
      </trkpt>
      <trkpt lat="45.50823" lon="6.11582">
        <ele>253.80000305176</ele>
        <time>2022-01-02T10:26:01.000Z</time>
      </trkpt>
      <trkpt lat="45.50861" lon="6.11623">
        <ele>253</ele>
        <time>2022-01-02T10:26:07.000Z</time>
      </trkpt>
      <trkpt lat="45.50867" lon="6.1163">
        <ele>253</ele>
        <time>2022-01-02T10:26:08.000Z</time>
      </trkpt>
      <trkpt lat="45.50907" lon="6.11671">
        <ele>253.19999694824</ele>
        <time>2022-01-02T10:26:15.000Z</time>
      </trkpt>
      <trkpt lat="45.50934" lon="6.11692">
        <ele>253.80000305176</ele>
        <time>2022-01-02T10:26:20.000Z</time>
      </trkpt>
      <trkpt lat="45.50961" lon="6.11713">
        <ele>254</ele>
        <time>2022-01-02T10:26:25.000Z</time>
      </trkpt>
      <trkpt lat="45.50978" lon="6.11725">
        <ele>254.39999389648</ele>
        <time>2022-01-02T10:26:28.000Z</time>
      </trkpt>
      <trkpt lat="45.51027" lon="6.1177">
        <ele>254.39999389648</ele>
        <time>2022-01-02T10:26:37.000Z</time>
      </trkpt>
      <trkpt lat="45.51068" lon="6.1182">
        <ele>254.19999694824</ele>
        <time>2022-01-02T10:26:45.000Z</time>
      </trkpt>
      <trkpt lat="45.51103" lon="6.1186">
        <ele>253.80000305176</ele>
        <time>2022-01-02T10:26:52.000Z</time>
      </trkpt>
      <trkpt lat="45.51151" lon="6.11903">
        <ele>254.19999694824</ele>
        <time>2022-01-02T10:27:00.000Z</time>
      </trkpt>
      <trkpt lat="45.51184" lon="6.1195">
        <ele>254</ele>
        <time>2022-01-02T10:27:07.000Z</time>
      </trkpt>
      <trkpt lat="45.5121" lon="6.12">
        <ele>254.19999694824</ele>
        <time>2022-01-02T10:27:14.000Z</time>
      </trkpt>
      <trkpt lat="45.51229" lon="6.12045">
        <ele>255</ele>
        <time>2022-01-02T10:27:20.000Z</time>
      </trkpt>
      <trkpt lat="45.5124" lon="6.12066">
        <ele>255.19999694824</ele>
        <time>2022-01-02T10:27:23.000Z</time>
      </trkpt>
      <trkpt lat="45.5127" lon="6.12108">
        <ele>255.60000610352</ele>
        <time>2022-01-02T10:27:30.000Z</time>
      </trkpt>
      <trkpt lat="45.51304" lon="6.12142">
        <ele>256</ele>
        <time>2022-01-02T10:27:37.000Z</time>
      </trkpt>
      <trkpt lat="45.51309" lon="6.12145">
        <ele>256</ele>
        <time>2022-01-02T10:27:38.000Z</time>
      </trkpt>
      <trkpt lat="45.51346" lon="6.12172">
        <ele>256.20001220703</ele>
        <time>2022-01-02T10:27:45.000Z</time>
      </trkpt>
      <trkpt lat="45.51376" lon="6.12203">
        <ele>256.39999389648</ele>
        <time>2022-01-02T10:27:51.000Z</time>
      </trkpt>
      <trkpt lat="45.51409" lon="6.12248">
        <ele>256.79998779297</ele>
        <time>2022-01-02T10:27:59.000Z</time>
      </trkpt>
      <trkpt lat="45.51417" lon="6.12259">
        <ele>257.20001220703</ele>
        <time>2022-01-02T10:28:01.000Z</time>
      </trkpt>
      <trkpt lat="45.51439" lon="6.12284">
        <ele>258</ele>
        <time>2022-01-02T10:28:06.000Z</time>
      </trkpt>
      <trkpt lat="45.51448" lon="6.12292">
        <ele>258.20001220703</ele>
        <time>2022-01-02T10:28:08.000Z</time>
      </trkpt>
      <trkpt lat="45.51488" lon="6.12324">
        <ele>258.39999389648</ele>
        <time>2022-01-02T10:28:15.000Z</time>
      </trkpt>
      <trkpt lat="45.51537" lon="6.12365">
        <ele>258</ele>
        <time>2022-01-02T10:28:24.000Z</time>
      </trkpt>
      <trkpt lat="45.51542" lon="6.1237">
        <ele>258</ele>
        <time>2022-01-02T10:28:25.000Z</time>
      </trkpt>
      <trkpt lat="45.51592" lon="6.12415">
        <ele>257.20001220703</ele>
        <time>2022-01-02T10:28:34.000Z</time>
      </trkpt>
      <trkpt lat="45.51597" lon="6.12419">
        <ele>257</ele>
        <time>2022-01-02T10:28:35.000Z</time>
      </trkpt>
      <trkpt lat="45.51608" lon="6.12427">
        <ele>257.20001220703</ele>
        <time>2022-01-02T10:28:37.000Z</time>
      </trkpt>
      <trkpt lat="45.51643" lon="6.12447">
        <ele>257.20001220703</ele>
        <time>2022-01-02T10:28:43.000Z</time>
      </trkpt>
      <trkpt lat="45.51684" lon="6.12473">
        <ele>257.20001220703</ele>
        <time>2022-01-02T10:28:50.000Z</time>
      </trkpt>
      <trkpt lat="45.51735" lon="6.12512">
        <ele>256.79998779297</ele>
        <time>2022-01-02T10:28:59.000Z</time>
      </trkpt>
      <trkpt lat="45.51741" lon="6.12519">
        <ele>256.79998779297</ele>
        <time>2022-01-02T10:29:00.000Z</time>
      </trkpt>
      <trkpt lat="45.51779" lon="6.12569">
        <ele>256.79998779297</ele>
        <time>2022-01-02T10:29:08.000Z</time>
      </trkpt>
      <trkpt lat="45.51814" lon="6.1262">
        <ele>257</ele>
        <time>2022-01-02T10:29:16.000Z</time>
      </trkpt>
      <trkpt lat="45.51845" lon="6.12659">
        <ele>257.20001220703</ele>
        <time>2022-01-02T10:29:23.000Z</time>
      </trkpt>
      <trkpt lat="45.51883" lon="6.12694">
        <ele>257.79998779297</ele>
        <time>2022-01-02T10:29:31.000Z</time>
      </trkpt>
      <trkpt lat="45.51893" lon="6.12702">
        <ele>258.20001220703</ele>
        <time>2022-01-02T10:29:33.000Z</time>
      </trkpt>
      <trkpt lat="45.5193" lon="6.12741">
        <ele>258.39999389648</ele>
        <time>2022-01-02T10:29:40.000Z</time>
      </trkpt>
      <trkpt lat="45.51949" lon="6.12788">
        <ele>258</ele>
        <time>2022-01-02T10:29:46.000Z</time>
      </trkpt>
      <trkpt lat="45.51975" lon="6.12859">
        <ele>258</ele>
        <time>2022-01-02T10:29:55.000Z</time>
      </trkpt>
      <trkpt lat="45.51978" lon="6.12867">
        <ele>258</ele>
        <time>2022-01-02T10:29:56.000Z</time>
      </trkpt>
      <trkpt lat="45.52004" lon="6.12935">
        <ele>258.20001220703</ele>
        <time>2022-01-02T10:30:05.000Z</time>
      </trkpt>
      <trkpt lat="45.52027" lon="6.12994">
        <ele>258.39999389648</ele>
        <time>2022-01-02T10:30:13.000Z</time>
      </trkpt>
      <trkpt lat="45.52047" lon="6.13044">
        <ele>259</ele>
        <time>2022-01-02T10:30:20.000Z</time>
      </trkpt>
      <trkpt lat="45.52052" lon="6.13058">
        <ele>259.20001220703</ele>
        <time>2022-01-02T10:30:22.000Z</time>
      </trkpt>
      <trkpt lat="45.52055" lon="6.13065">
        <ele>259.20001220703</ele>
        <time>2022-01-02T10:30:23.000Z</time>
      </trkpt>
      <trkpt lat="45.52074" lon="6.13103">
        <ele>259.79998779297</ele>
        <time>2022-01-02T10:30:29.000Z</time>
      </trkpt>
      <trkpt lat="45.52085" lon="6.13119">
        <ele>260.20001220703</ele>
        <time>2022-01-02T10:30:32.000Z</time>
      </trkpt>
      <trkpt lat="45.52103" lon="6.13138">
        <ele>261.39999389648</ele>
        <time>2022-01-02T10:30:36.000Z</time>
      </trkpt>
      <trkpt lat="45.52133" lon="6.13171">
        <ele>262.79998779297</ele>
        <time>2022-01-02T10:30:43.000Z</time>
      </trkpt>
      <trkpt lat="45.5214" lon="6.1318">
        <ele>263.20001220703</ele>
        <time>2022-01-02T10:30:45.000Z</time>
      </trkpt>
      <trkpt lat="45.52161" lon="6.13206">
        <ele>264</ele>
        <time>2022-01-02T10:30:50.000Z</time>
      </trkpt>
      <trkpt lat="45.52178" lon="6.13232">
        <ele>264.39999389648</ele>
        <time>2022-01-02T10:30:55.000Z</time>
      </trkpt>
      <trkpt lat="45.52188" lon="6.1325">
        <ele>265</ele>
        <time>2022-01-02T10:30:58.000Z</time>
      </trkpt>
      <trkpt lat="45.522" lon="6.13276">
        <ele>266.20001220703</ele>
        <time>2022-01-02T10:31:03.000Z</time>
      </trkpt>
      <trkpt lat="45.5221" lon="6.13307">
        <ele>267.20001220703</ele>
        <time>2022-01-02T10:31:09.000Z</time>
      </trkpt>
      <trkpt lat="45.52212" lon="6.13313">
        <ele>267.60000610352</ele>
        <time>2022-01-02T10:31:10.000Z</time>
      </trkpt>
      <trkpt lat="45.52215" lon="6.13328">
        <ele>268.39999389648</ele>
        <time>2022-01-02T10:31:13.000Z</time>
      </trkpt>
      <trkpt lat="45.52221" lon="6.13352">
        <ele>269.39999389648</ele>
        <time>2022-01-02T10:31:18.000Z</time>
      </trkpt>
      <trkpt lat="45.52227" lon="6.13378">
        <ele>270.60000610352</ele>
        <time>2022-01-02T10:31:23.000Z</time>
      </trkpt>
      <trkpt lat="45.52229" lon="6.13394">
        <ele>271.20001220703</ele>
        <time>2022-01-02T10:31:26.000Z</time>
      </trkpt>
      <trkpt lat="45.52231" lon="6.13404">
        <ele>271.60000610352</ele>
        <time>2022-01-02T10:31:28.000Z</time>
      </trkpt>
      <trkpt lat="45.52236" lon="6.13424">
        <ele>272.60000610352</ele>
        <time>2022-01-02T10:31:32.000Z</time>
      </trkpt>
      <trkpt lat="45.52237" lon="6.13429">
        <ele>273</ele>
        <time>2022-01-02T10:31:33.000Z</time>
      </trkpt>
      <trkpt lat="45.52243" lon="6.13457">
        <ele>274</ele>
        <time>2022-01-02T10:31:38.000Z</time>
      </trkpt>
      <trkpt lat="45.52245" lon="6.13467">
        <ele>274.39999389648</ele>
        <time>2022-01-02T10:31:40.000Z</time>
      </trkpt>
      <trkpt lat="45.52247" lon="6.13478">
        <ele>275</ele>
        <time>2022-01-02T10:31:42.000Z</time>
      </trkpt>
      <trkpt lat="45.52253" lon="6.13503">
        <ele>276.20001220703</ele>
        <time>2022-01-02T10:31:47.000Z</time>
      </trkpt>
      <trkpt lat="45.52255" lon="6.13514">
        <ele>276.79998779297</ele>
        <time>2022-01-02T10:31:49.000Z</time>
      </trkpt>
      <trkpt lat="45.52258" lon="6.13525">
        <ele>277.20001220703</ele>
        <time>2022-01-02T10:31:51.000Z</time>
      </trkpt>
      <trkpt lat="45.52264" lon="6.13551">
        <ele>278.39999389648</ele>
        <time>2022-01-02T10:31:56.000Z</time>
      </trkpt>
      <trkpt lat="45.52267" lon="6.13566">
        <ele>279</ele>
        <time>2022-01-02T10:31:59.000Z</time>
      </trkpt>
      <trkpt lat="45.52271" lon="6.13575">
        <ele>279.60000610352</ele>
        <time>2022-01-02T10:32:01.000Z</time>
      </trkpt>
      <trkpt lat="45.52281" lon="6.13606">
        <ele>280.79998779297</ele>
        <time>2022-01-02T10:32:07.000Z</time>
      </trkpt>
      <trkpt lat="45.52287" lon="6.13626">
        <ele>282</ele>
        <time>2022-01-02T10:32:11.000Z</time>
      </trkpt>
      <trkpt lat="45.52298" lon="6.1365">
        <ele>283.20001220703</ele>
        <time>2022-01-02T10:32:16.000Z</time>
      </trkpt>
      <trkpt lat="45.52307" lon="6.13666">
        <ele>284.20001220703</ele>
        <time>2022-01-02T10:32:20.000Z</time>
      </trkpt>
      <trkpt lat="45.52317" lon="6.13684">
        <ele>285</ele>
        <time>2022-01-02T10:32:24.000Z</time>
      </trkpt>
      <trkpt lat="45.52319" lon="6.13689">
        <ele>285.20001220703</ele>
        <time>2022-01-02T10:32:25.000Z</time>
      </trkpt>
      <trkpt lat="45.52331" lon="6.13711">
        <ele>286.39999389648</ele>
        <time>2022-01-02T10:32:30.000Z</time>
      </trkpt>
      <trkpt lat="45.52334" lon="6.13716">
        <ele>286.79998779297</ele>
        <time>2022-01-02T10:32:31.000Z</time>
      </trkpt>
      <trkpt lat="45.52342" lon="6.13733">
        <ele>287.60000610352</ele>
        <time>2022-01-02T10:32:35.000Z</time>
      </trkpt>
      <trkpt lat="45.52351" lon="6.13752">
        <ele>288.60000610352</ele>
        <time>2022-01-02T10:32:39.000Z</time>
      </trkpt>
      <trkpt lat="45.5236" lon="6.13769">
        <ele>290</ele>
        <time>2022-01-02T10:32:43.000Z</time>
      </trkpt>
      <trkpt lat="45.52372" lon="6.1379">
        <ele>290.79998779297</ele>
        <time>2022-01-02T10:32:48.000Z</time>
      </trkpt>
      <trkpt lat="45.52377" lon="6.13799">
        <ele>291.39999389648</ele>
        <time>2022-01-02T10:32:50.000Z</time>
      </trkpt>
      <trkpt lat="45.52387" lon="6.13818">
        <ele>292</ele>
        <time>2022-01-02T10:32:54.000Z</time>
      </trkpt>
      <trkpt lat="45.524" lon="6.13843">
        <ele>292.20001220703</ele>
        <time>2022-01-02T10:32:59.000Z</time>
      </trkpt>
      <trkpt lat="45.52424" lon="6.13889">
        <ele>292.39999389648</ele>
        <time>2022-01-02T10:33:07.000Z</time>
      </trkpt>
      <trkpt lat="45.52451" lon="6.13939">
        <ele>292.39999389648</ele>
        <time>2022-01-02T10:33:15.000Z</time>
      </trkpt>
      <trkpt lat="45.52476" lon="6.13984">
        <ele>292.20001220703</ele>
        <time>2022-01-02T10:33:22.000Z</time>
      </trkpt>
      <trkpt lat="45.52501" lon="6.14027">
        <ele>291.39999389648</ele>
        <time>2022-01-02T10:33:28.000Z</time>
      </trkpt>
      <trkpt lat="45.52521" lon="6.14054">
        <ele>290.79998779297</ele>
        <time>2022-01-02T10:33:32.000Z</time>
      </trkpt>
      <trkpt lat="45.52527" lon="6.1406">
        <ele>290.60000610352</ele>
        <time>2022-01-02T10:33:33.000Z</time>
      </trkpt>
      <trkpt lat="45.52554" lon="6.14089">
        <ele>289.60000610352</ele>
        <time>2022-01-02T10:33:38.000Z</time>
      </trkpt>
      <trkpt lat="45.52565" lon="6.14102">
        <ele>289.39999389648</ele>
        <time>2022-01-02T10:33:40.000Z</time>
      </trkpt>
      <trkpt lat="45.52584" lon="6.14124">
        <ele>288.39999389648</ele>
        <time>2022-01-02T10:33:43.000Z</time>
      </trkpt>
      <trkpt lat="45.5259" lon="6.14133">
        <ele>288.20001220703</ele>
        <time>2022-01-02T10:33:44.000Z</time>
      </trkpt>
      <trkpt lat="45.52608" lon="6.14159">
        <ele>287</ele>
        <time>2022-01-02T10:33:47.000Z</time>
      </trkpt>
      <trkpt lat="45.52623" lon="6.14188">
        <ele>285.60000610352</ele>
        <time>2022-01-02T10:33:50.000Z</time>
      </trkpt>
      <trkpt lat="45.52631" lon="6.1421">
        <ele>284.60000610352</ele>
        <time>2022-01-02T10:33:52.000Z</time>
      </trkpt>
      <trkpt lat="45.52643" lon="6.14254">
        <ele>283.60000610352</ele>
        <time>2022-01-02T10:33:56.000Z</time>
      </trkpt>
      <trkpt lat="45.52646" lon="6.14264">
        <ele>283.20001220703</ele>
        <time>2022-01-02T10:33:57.000Z</time>
      </trkpt>
      <trkpt lat="45.52657" lon="6.14292">
        <ele>282.79998779297</ele>
        <time>2022-01-02T10:34:00.000Z</time>
      </trkpt>
      <trkpt lat="45.52671" lon="6.14326">
        <ele>282.39999389648</ele>
        <time>2022-01-02T10:34:04.000Z</time>
      </trkpt>
      <trkpt lat="45.52678" lon="6.14341">
        <ele>282.39999389648</ele>
        <time>2022-01-02T10:34:06.000Z</time>
      </trkpt>
      <trkpt lat="45.5269" lon="6.14369">
        <ele>282.60000610352</ele>
        <time>2022-01-02T10:34:10.000Z</time>
      </trkpt>
      <trkpt lat="45.52692" lon="6.14376">
        <ele>282.60000610352</ele>
        <time>2022-01-02T10:34:11.000Z</time>
      </trkpt>
      <trkpt lat="45.52708" lon="6.14414">
        <ele>283.20001220703</ele>
        <time>2022-01-02T10:34:16.000Z</time>
      </trkpt>
      <trkpt lat="45.52734" lon="6.14477">
        <ele>283.20001220703</ele>
        <time>2022-01-02T10:34:24.000Z</time>
      </trkpt>
      <trkpt lat="45.52759" lon="6.14536">
        <ele>283.39999389648</ele>
        <time>2022-01-02T10:34:32.000Z</time>
      </trkpt>
      <trkpt lat="45.52778" lon="6.14594">
        <ele>284.39999389648</ele>
        <time>2022-01-02T10:34:40.000Z</time>
      </trkpt>
      <trkpt lat="45.52796" lon="6.14652">
        <ele>285.20001220703</ele>
        <time>2022-01-02T10:34:48.000Z</time>
      </trkpt>
      <trkpt lat="45.52801" lon="6.14665">
        <ele>285.39999389648</ele>
        <time>2022-01-02T10:34:50.000Z</time>
      </trkpt>
      <trkpt lat="45.52812" lon="6.14697">
        <ele>286.60000610352</ele>
        <time>2022-01-02T10:34:55.000Z</time>
      </trkpt>
      <trkpt lat="45.52815" lon="6.14703">
        <ele>286.60000610352</ele>
        <time>2022-01-02T10:34:56.000Z</time>
      </trkpt>
      <trkpt lat="45.52822" lon="6.14721">
        <ele>287.60000610352</ele>
        <time>2022-01-02T10:34:59.000Z</time>
      </trkpt>
      <trkpt lat="45.52834" lon="6.14752">
        <ele>288.60000610352</ele>
        <time>2022-01-02T10:35:04.000Z</time>
      </trkpt>
      <trkpt lat="45.52837" lon="6.14759">
        <ele>289</ele>
        <time>2022-01-02T10:35:05.000Z</time>
      </trkpt>
      <trkpt lat="45.52843" lon="6.14778">
        <ele>289.79998779297</ele>
        <time>2022-01-02T10:35:08.000Z</time>
      </trkpt>
      <trkpt lat="45.52846" lon="6.14784">
        <ele>290</ele>
        <time>2022-01-02T10:35:09.000Z</time>
      </trkpt>
      <trkpt lat="45.52854" lon="6.14804">
        <ele>290.39999389648</ele>
        <time>2022-01-02T10:35:12.000Z</time>
      </trkpt>
      <trkpt lat="45.52856" lon="6.14811">
        <ele>290.79998779297</ele>
        <time>2022-01-02T10:35:13.000Z</time>
      </trkpt>
      <trkpt lat="45.52867" lon="6.14843">
        <ele>292</ele>
        <time>2022-01-02T10:35:18.000Z</time>
      </trkpt>
      <trkpt lat="45.52872" lon="6.14863">
        <ele>292.60000610352</ele>
        <time>2022-01-02T10:35:21.000Z</time>
      </trkpt>
      <trkpt lat="45.52873" lon="6.14869">
        <ele>293</ele>
        <time>2022-01-02T10:35:22.000Z</time>
      </trkpt>
      <trkpt lat="45.52879" lon="6.14911">
        <ele>294</ele>
        <time>2022-01-02T10:35:28.000Z</time>
      </trkpt>
      <trkpt lat="45.52888" lon="6.1498">
        <ele>294.60000610352</ele>
        <time>2022-01-02T10:35:37.000Z</time>
      </trkpt>
      <trkpt lat="45.52899" lon="6.15034">
        <ele>294.39999389648</ele>
        <time>2022-01-02T10:35:44.000Z</time>
      </trkpt>
      <trkpt lat="45.52922" lon="6.15108">
        <ele>293.79998779297</ele>
        <time>2022-01-02T10:35:53.000Z</time>
      </trkpt>
      <trkpt lat="45.52924" lon="6.15116">
        <ele>293.60000610352</ele>
        <time>2022-01-02T10:35:54.000Z</time>
      </trkpt>
      <trkpt lat="45.52945" lon="6.15187">
        <ele>293.79998779297</ele>
        <time>2022-01-02T10:36:03.000Z</time>
      </trkpt>
      <trkpt lat="45.5295" lon="6.15203">
        <ele>293.79998779297</ele>
        <time>2022-01-02T10:36:05.000Z</time>
      </trkpt>
      <trkpt lat="45.52973" lon="6.1528">
        <ele>294.20001220703</ele>
        <time>2022-01-02T10:36:15.000Z</time>
      </trkpt>
      <trkpt lat="45.52978" lon="6.15295">
        <ele>294.20001220703</ele>
        <time>2022-01-02T10:36:17.000Z</time>
      </trkpt>
      <trkpt lat="45.53002" lon="6.15372">
        <ele>294.79998779297</ele>
        <time>2022-01-02T10:36:27.000Z</time>
      </trkpt>
      <trkpt lat="45.53017" lon="6.15415">
        <ele>295.20001220703</ele>
        <time>2022-01-02T10:36:33.000Z</time>
      </trkpt>
      <trkpt lat="45.53026" lon="6.15442">
        <ele>295.60000610352</ele>
        <time>2022-01-02T10:36:37.000Z</time>
      </trkpt>
      <trkpt lat="45.53036" lon="6.15468">
        <ele>296.20001220703</ele>
        <time>2022-01-02T10:36:41.000Z</time>
      </trkpt>
      <trkpt lat="45.53043" lon="6.15488">
        <ele>297.20001220703</ele>
        <time>2022-01-02T10:36:44.000Z</time>
      </trkpt>
      <trkpt lat="45.53046" lon="6.15494">
        <ele>297.39999389648</ele>
        <time>2022-01-02T10:36:45.000Z</time>
      </trkpt>
      <trkpt lat="45.5306" lon="6.15532">
        <ele>298.39999389648</ele>
        <time>2022-01-02T10:36:51.000Z</time>
      </trkpt>
      <trkpt lat="45.53062" lon="6.15538">
        <ele>298.60000610352</ele>
        <time>2022-01-02T10:36:52.000Z</time>
      </trkpt>
      <trkpt lat="45.53083" lon="6.15583">
        <ele>299.60000610352</ele>
        <time>2022-01-02T10:36:59.000Z</time>
      </trkpt>
      <trkpt lat="45.53092" lon="6.156">
        <ele>300.39999389648</ele>
        <time>2022-01-02T10:37:02.000Z</time>
      </trkpt>
      <trkpt lat="45.53095" lon="6.15606">
        <ele>300.60000610352</ele>
        <time>2022-01-02T10:37:03.000Z</time>
      </trkpt>
      <trkpt lat="45.53118" lon="6.15651">
        <ele>301.60000610352</ele>
        <time>2022-01-02T10:37:11.000Z</time>
      </trkpt>
      <trkpt lat="45.53121" lon="6.15656">
        <ele>301.79998779297</ele>
        <time>2022-01-02T10:37:12.000Z</time>
      </trkpt>
      <trkpt lat="45.53158" lon="6.15712">
        <ele>302.79998779297</ele>
        <time>2022-01-02T10:37:22.000Z</time>
      </trkpt>
      <trkpt lat="45.53162" lon="6.15718">
        <ele>302.79998779297</ele>
        <time>2022-01-02T10:37:23.000Z</time>
      </trkpt>
      <trkpt lat="45.53195" lon="6.15766">
        <ele>303.60000610352</ele>
        <time>2022-01-02T10:37:32.000Z</time>
      </trkpt>
      <trkpt lat="45.53207" lon="6.15782">
        <ele>303.79998779297</ele>
        <time>2022-01-02T10:37:35.000Z</time>
      </trkpt>
      <trkpt lat="45.5321" lon="6.15787">
        <ele>303.79998779297</ele>
        <time>2022-01-02T10:37:36.000Z</time>
      </trkpt>
      <trkpt lat="45.53218" lon="6.15798">
        <ele>304.20001220703</ele>
        <time>2022-01-02T10:37:38.000Z</time>
      </trkpt>
      <trkpt lat="45.53238" lon="6.15824">
        <ele>305</ele>
        <time>2022-01-02T10:37:43.000Z</time>
      </trkpt>
      <trkpt lat="45.5326" lon="6.15853">
        <ele>306</ele>
        <time>2022-01-02T10:37:49.000Z</time>
      </trkpt>
      <trkpt lat="45.53278" lon="6.15873">
        <ele>307.20001220703</ele>
        <time>2022-01-02T10:37:54.000Z</time>
      </trkpt>
      <trkpt lat="45.53281" lon="6.15876">
        <ele>307.60000610352</ele>
        <time>2022-01-02T10:37:55.000Z</time>
      </trkpt>
      <trkpt lat="45.53284" lon="6.15879">
        <ele>307.60000610352</ele>
        <time>2022-01-02T10:37:56.000Z</time>
      </trkpt>
      <trkpt lat="45.53293" lon="6.15891">
        <ele>308.39999389648</ele>
        <time>2022-01-02T10:37:59.000Z</time>
      </trkpt>
      <trkpt lat="45.53304" lon="6.15905">
        <ele>309.39999389648</ele>
        <time>2022-01-02T10:38:03.000Z</time>
      </trkpt>
      <trkpt lat="45.53314" lon="6.1592">
        <ele>310.60000610352</ele>
        <time>2022-01-02T10:38:07.000Z</time>
      </trkpt>
      <trkpt lat="45.5332" lon="6.15935">
        <ele>311.60000610352</ele>
        <time>2022-01-02T10:38:10.000Z</time>
      </trkpt>
      <trkpt lat="45.53322" lon="6.15939">
        <ele>311.79998779297</ele>
        <time>2022-01-02T10:38:11.000Z</time>
      </trkpt>
      <trkpt lat="45.5333" lon="6.15957">
        <ele>312.79998779297</ele>
        <time>2022-01-02T10:38:15.000Z</time>
      </trkpt>
      <trkpt lat="45.5334" lon="6.15974">
        <ele>314</ele>
        <time>2022-01-02T10:38:19.000Z</time>
      </trkpt>
      <trkpt lat="45.53349" lon="6.15991">
        <ele>315</ele>
        <time>2022-01-02T10:38:23.000Z</time>
      </trkpt>
      <trkpt lat="45.53359" lon="6.16007">
        <ele>315.79998779297</ele>
        <time>2022-01-02T10:38:27.000Z</time>
      </trkpt>
      <trkpt lat="45.53365" lon="6.16014">
        <ele>316.60000610352</ele>
        <time>2022-01-02T10:38:29.000Z</time>
      </trkpt>
      <trkpt lat="45.53377" lon="6.16026">
        <ele>317.79998779297</ele>
        <time>2022-01-02T10:38:33.000Z</time>
      </trkpt>
      <trkpt lat="45.53382" lon="6.16031">
        <ele>318.39999389648</ele>
        <time>2022-01-02T10:38:35.000Z</time>
      </trkpt>
      <trkpt lat="45.53389" lon="6.16036">
        <ele>318.79998779297</ele>
        <time>2022-01-02T10:38:37.000Z</time>
      </trkpt>
      <trkpt lat="45.53403" lon="6.16047">
        <ele>319.60000610352</ele>
        <time>2022-01-02T10:38:41.000Z</time>
      </trkpt>
      <trkpt lat="45.53407" lon="6.1605">
        <ele>320.20001220703</ele>
        <time>2022-01-02T10:38:42.000Z</time>
      </trkpt>
      <trkpt lat="45.53425" lon="6.16059">
        <ele>321</ele>
        <time>2022-01-02T10:38:47.000Z</time>
      </trkpt>
      <trkpt lat="45.53429" lon="6.1606">
        <ele>321.20001220703</ele>
        <time>2022-01-02T10:38:48.000Z</time>
      </trkpt>
      <trkpt lat="45.53433" lon="6.16062">
        <ele>321.39999389648</ele>
        <time>2022-01-02T10:38:49.000Z</time>
      </trkpt>
      <trkpt lat="45.53444" lon="6.16065">
        <ele>322</ele>
        <time>2022-01-02T10:38:52.000Z</time>
      </trkpt>
      <trkpt lat="45.53461" lon="6.16068">
        <ele>323.20001220703</ele>
        <time>2022-01-02T10:38:57.000Z</time>
      </trkpt>
      <trkpt lat="45.53476" lon="6.16071">
        <ele>324.39999389648</ele>
        <time>2022-01-02T10:39:02.000Z</time>
      </trkpt>
      <trkpt lat="45.53483" lon="6.16072">
        <ele>324.79998779297</ele>
        <time>2022-01-02T10:39:04.000Z</time>
      </trkpt>
      <trkpt lat="45.53487" lon="6.16073">
        <ele>325.39999389648</ele>
        <time>2022-01-02T10:39:05.000Z</time>
      </trkpt>
      <trkpt lat="45.53499" lon="6.16077">
        <ele>326.60000610352</ele>
        <time>2022-01-02T10:39:09.000Z</time>
      </trkpt>
      <trkpt lat="45.53508" lon="6.16079">
        <ele>327.20001220703</ele>
        <time>2022-01-02T10:39:11.000Z</time>
      </trkpt>
      <trkpt lat="45.53516" lon="6.16081">
        <ele>327.60000610352</ele>
        <time>2022-01-02T10:39:13.000Z</time>
      </trkpt>
      <trkpt lat="45.53533" lon="6.16086">
        <ele>328.79998779297</ele>
        <time>2022-01-02T10:39:17.000Z</time>
      </trkpt>
      <trkpt lat="45.53543" lon="6.16091">
        <ele>329.39999389648</ele>
        <time>2022-01-02T10:39:20.000Z</time>
      </trkpt>
      <trkpt lat="45.5355" lon="6.16095">
        <ele>329.79998779297</ele>
        <time>2022-01-02T10:39:22.000Z</time>
      </trkpt>
      <trkpt lat="45.5356" lon="6.16101">
        <ele>330.60000610352</ele>
        <time>2022-01-02T10:39:26.000Z</time>
      </trkpt>
      <trkpt lat="45.53563" lon="6.16103">
        <ele>331</ele>
        <time>2022-01-02T10:39:27.000Z</time>
      </trkpt>
      <trkpt lat="45.53574" lon="6.16113">
        <ele>332.20001220703</ele>
        <time>2022-01-02T10:39:31.000Z</time>
      </trkpt>
      <trkpt lat="45.53576" lon="6.16116">
        <ele>332.60000610352</ele>
        <time>2022-01-02T10:39:32.000Z</time>
      </trkpt>
      <trkpt lat="45.53584" lon="6.16123">
        <ele>333.20001220703</ele>
        <time>2022-01-02T10:39:35.000Z</time>
      </trkpt>
      <trkpt lat="45.53592" lon="6.16131">
        <ele>334</ele>
        <time>2022-01-02T10:39:38.000Z</time>
      </trkpt>
      <trkpt lat="45.53597" lon="6.16136">
        <ele>334.39999389648</ele>
        <time>2022-01-02T10:39:40.000Z</time>
      </trkpt>
      <trkpt lat="45.5361" lon="6.16152">
        <ele>335.79998779297</ele>
        <time>2022-01-02T10:39:44.000Z</time>
      </trkpt>
      <trkpt lat="45.53618" lon="6.16161">
        <ele>336</ele>
        <time>2022-01-02T10:39:46.000Z</time>
      </trkpt>
      <trkpt lat="45.53638" lon="6.16194">
        <ele>336.79998779297</ele>
        <time>2022-01-02T10:39:53.000Z</time>
      </trkpt>
      <trkpt lat="45.53641" lon="6.16198">
        <ele>336.79998779297</ele>
        <time>2022-01-02T10:39:54.000Z</time>
      </trkpt>
      <trkpt lat="45.53656" lon="6.16232">
        <ele>337</ele>
        <time>2022-01-02T10:40:01.000Z</time>
      </trkpt>
      <trkpt lat="45.53661" lon="6.16245">
        <ele>336.39999389648</ele>
        <time>2022-01-02T10:40:06.000Z</time>
      </trkpt>
      <trkpt lat="45.53662" lon="6.16249">
        <ele>336</ele>
        <time>2022-01-02T10:40:10.000Z</time>
      </trkpt>
      <trkpt lat="45.53662" lon="6.16249">
        <ele>335.79998779297</ele>
        <time>2022-01-02T10:40:11.000Z</time>
      </trkpt>
      <trkpt lat="45.53662" lon="6.16249">
        <ele>335.60000610352</ele>
        <time>2022-01-02T10:40:12.000Z</time>
      </trkpt>
      <trkpt lat="45.53662" lon="6.16249">
        <ele>335.60000610352</ele>
        <time>2022-01-02T10:40:15.000Z</time>
      </trkpt>
      <trkpt lat="45.53662" lon="6.16249">
        <ele>335.60000610352</ele>
        <time>2022-01-02T10:40:28.000Z</time>
      </trkpt>
      <trkpt lat="45.53662" lon="6.16249">
        <ele>335.39999389648</ele>
        <time>2022-01-02T10:41:28.000Z</time>
      </trkpt>
      <trkpt lat="45.53662" lon="6.16249">
        <ele>335.60000610352</ele>
        <time>2022-01-02T10:42:25.000Z</time>
      </trkpt>
      <trkpt lat="45.53662" lon="6.16249">
        <ele>335.60000610352</ele>
        <time>2022-01-02T10:42:54.000Z</time>
      </trkpt>
      <trkpt lat="45.53662" lon="6.16249">
        <ele>335.60000610352</ele>
        <time>2022-01-02T10:42:59.000Z</time>
      </trkpt>
      <trkpt lat="45.53663" lon="6.1625">
        <ele>335.60000610352</ele>
        <time>2022-01-02T10:43:00.000Z</time>
      </trkpt>
      <trkpt lat="45.53667" lon="6.16256">
        <ele>335.79998779297</ele>
        <time>2022-01-02T10:43:02.000Z</time>
      </trkpt>
      <trkpt lat="45.53679" lon="6.16283">
        <ele>335.79998779297</ele>
        <time>2022-01-02T10:43:07.000Z</time>
      </trkpt>
      <trkpt lat="45.53696" lon="6.16327">
        <ele>335.79998779297</ele>
        <time>2022-01-02T10:43:13.000Z</time>
      </trkpt>
      <trkpt lat="45.53704" lon="6.16373">
        <ele>334.79998779297</ele>
        <time>2022-01-02T10:43:18.000Z</time>
      </trkpt>
      <trkpt lat="45.53705" lon="6.16383">
        <ele>334.60000610352</ele>
        <time>2022-01-02T10:43:19.000Z</time>
      </trkpt>
      <trkpt lat="45.53706" lon="6.16436">
        <ele>333.60000610352</ele>
        <time>2022-01-02T10:43:24.000Z</time>
      </trkpt>
      <trkpt lat="45.53709" lon="6.16478">
        <ele>332.39999389648</ele>
        <time>2022-01-02T10:43:28.000Z</time>
      </trkpt>
      <trkpt lat="45.53712" lon="6.16508">
        <ele>332</ele>
        <time>2022-01-02T10:43:31.000Z</time>
      </trkpt>
      <trkpt lat="45.53725" lon="6.16581">
        <ele>331.60000610352</ele>
        <time>2022-01-02T10:43:39.000Z</time>
      </trkpt>
      <trkpt lat="45.53736" lon="6.16635">
        <ele>331.39999389648</ele>
        <time>2022-01-02T10:43:45.000Z</time>
      </trkpt>
      <trkpt lat="45.53744" lon="6.16671">
        <ele>331.39999389648</ele>
        <time>2022-01-02T10:43:49.000Z</time>
      </trkpt>
      <trkpt lat="45.53757" lon="6.1674">
        <ele>331.39999389648</ele>
        <time>2022-01-02T10:43:57.000Z</time>
      </trkpt>
      <trkpt lat="45.53766" lon="6.1678">
        <ele>331.79998779297</ele>
        <time>2022-01-02T10:44:02.000Z</time>
      </trkpt>
      <trkpt lat="45.53771" lon="6.1681">
        <ele>332.60000610352</ele>
        <time>2022-01-02T10:44:06.000Z</time>
      </trkpt>
      <trkpt lat="45.53774" lon="6.16824">
        <ele>332.79998779297</ele>
        <time>2022-01-02T10:44:08.000Z</time>
      </trkpt>
      <trkpt lat="45.53776" lon="6.16837">
        <ele>333.79998779297</ele>
        <time>2022-01-02T10:44:10.000Z</time>
      </trkpt>
      <trkpt lat="45.53784" lon="6.16873">
        <ele>334.79998779297</ele>
        <time>2022-01-02T10:44:15.000Z</time>
      </trkpt>
      <trkpt lat="45.53794" lon="6.16916">
        <ele>336</ele>
        <time>2022-01-02T10:44:21.000Z</time>
      </trkpt>
      <trkpt lat="45.53801" lon="6.16937">
        <ele>336.20001220703</ele>
        <time>2022-01-02T10:44:24.000Z</time>
      </trkpt>
      <trkpt lat="45.53803" lon="6.16944">
        <ele>336.39999389648</ele>
        <time>2022-01-02T10:44:25.000Z</time>
      </trkpt>
      <trkpt lat="45.53819" lon="6.16977">
        <ele>336.39999389648</ele>
        <time>2022-01-02T10:44:30.000Z</time>
      </trkpt>
      <trkpt lat="45.53855" lon="6.17046">
        <ele>336.39999389648</ele>
        <time>2022-01-02T10:44:40.000Z</time>
      </trkpt>
      <trkpt lat="45.53858" lon="6.17054">
        <ele>336.39999389648</ele>
        <time>2022-01-02T10:44:41.000Z</time>
      </trkpt>
      <trkpt lat="45.53886" lon="6.17109">
        <ele>336.79998779297</ele>
        <time>2022-01-02T10:44:49.000Z</time>
      </trkpt>
      <trkpt lat="45.53915" lon="6.1717">
        <ele>336.79998779297</ele>
        <time>2022-01-02T10:44:58.000Z</time>
      </trkpt>
      <trkpt lat="45.53947" lon="6.17242">
        <ele>336.39999389648</ele>
        <time>2022-01-02T10:45:08.000Z</time>
      </trkpt>
      <trkpt lat="45.5395" lon="6.1725">
        <ele>336.60000610352</ele>
        <time>2022-01-02T10:45:09.000Z</time>
      </trkpt>
      <trkpt lat="45.5397" lon="6.17302">
        <ele>336.20001220703</ele>
        <time>2022-01-02T10:45:16.000Z</time>
      </trkpt>
      <trkpt lat="45.53988" lon="6.17345">
        <ele>336.20001220703</ele>
        <time>2022-01-02T10:45:22.000Z</time>
      </trkpt>
      <trkpt lat="45.54009" lon="6.17374">
        <ele>336.60000610352</ele>
        <time>2022-01-02T10:45:27.000Z</time>
      </trkpt>
      <trkpt lat="45.54048" lon="6.17401">
        <ele>336.79998779297</ele>
        <time>2022-01-02T10:45:34.000Z</time>
      </trkpt>
      <trkpt lat="45.54096" lon="6.17437">
        <ele>336</ele>
        <time>2022-01-02T10:45:42.000Z</time>
      </trkpt>
      <trkpt lat="45.54101" lon="6.17442">
        <ele>335.79998779297</ele>
        <time>2022-01-02T10:45:43.000Z</time>
      </trkpt>
      <trkpt lat="45.54128" lon="6.17467">
        <ele>334.79998779297</ele>
        <time>2022-01-02T10:45:48.000Z</time>
      </trkpt>
      <trkpt lat="45.54164" lon="6.175">
        <ele>334</ele>
        <time>2022-01-02T10:45:54.000Z</time>
      </trkpt>
      <trkpt lat="45.54175" lon="6.17511">
        <ele>333.79998779297</ele>
        <time>2022-01-02T10:45:56.000Z</time>
      </trkpt>
      <trkpt lat="45.542" lon="6.17541">
        <ele>333.60000610352</ele>
        <time>2022-01-02T10:46:01.000Z</time>
      </trkpt>
      <trkpt lat="45.54242" lon="6.17597">
        <ele>333.60000610352</ele>
        <time>2022-01-02T10:46:10.000Z</time>
      </trkpt>
      <trkpt lat="45.54247" lon="6.17603">
        <ele>333.60000610352</ele>
        <time>2022-01-02T10:46:11.000Z</time>
      </trkpt>
      <trkpt lat="45.54284" lon="6.17659">
        <ele>333.79998779297</ele>
        <time>2022-01-02T10:46:20.000Z</time>
      </trkpt>
      <trkpt lat="45.54315" lon="6.17723">
        <ele>334.20001220703</ele>
        <time>2022-01-02T10:46:29.000Z</time>
      </trkpt>
      <trkpt lat="45.54318" lon="6.17731">
        <ele>334.39999389648</ele>
        <time>2022-01-02T10:46:30.000Z</time>
      </trkpt>
      <trkpt lat="45.54327" lon="6.17754">
        <ele>334.39999389648</ele>
        <time>2022-01-02T10:46:33.000Z</time>
      </trkpt>
      <trkpt lat="45.54338" lon="6.17785">
        <ele>334.60000610352</ele>
        <time>2022-01-02T10:46:37.000Z</time>
      </trkpt>
      <trkpt lat="45.54349" lon="6.17816">
        <ele>335</ele>
        <time>2022-01-02T10:46:41.000Z</time>
      </trkpt>
      <trkpt lat="45.54366" lon="6.17861">
        <ele>335.39999389648</ele>
        <time>2022-01-02T10:46:47.000Z</time>
      </trkpt>
      <trkpt lat="45.5439" lon="6.17932">
        <ele>335.79998779297</ele>
        <time>2022-01-02T10:46:56.000Z</time>
      </trkpt>
      <trkpt lat="45.54399" lon="6.17956">
        <ele>335.79998779297</ele>
        <time>2022-01-02T10:46:59.000Z</time>
      </trkpt>
      <trkpt lat="45.54417" lon="6.18012">
        <ele>335.39999389648</ele>
        <time>2022-01-02T10:47:06.000Z</time>
      </trkpt>
      <trkpt lat="45.54435" lon="6.18067">
        <ele>335.20001220703</ele>
        <time>2022-01-02T10:47:13.000Z</time>
      </trkpt>
      <trkpt lat="45.54441" lon="6.1809">
        <ele>335.20001220703</ele>
        <time>2022-01-02T10:47:16.000Z</time>
      </trkpt>
      <trkpt lat="45.54445" lon="6.18105">
        <ele>335.20001220703</ele>
        <time>2022-01-02T10:47:18.000Z</time>
      </trkpt>
      <trkpt lat="45.54455" lon="6.18141">
        <ele>335</ele>
        <time>2022-01-02T10:47:23.000Z</time>
      </trkpt>
      <trkpt lat="45.54457" lon="6.18147">
        <ele>335</ele>
        <time>2022-01-02T10:47:24.000Z</time>
      </trkpt>
      <trkpt lat="45.54459" lon="6.18154">
        <ele>335</ele>
        <time>2022-01-02T10:47:25.000Z</time>
      </trkpt>
      <trkpt lat="45.54462" lon="6.18167">
        <ele>335</ele>
        <time>2022-01-02T10:47:27.000Z</time>
      </trkpt>
      <trkpt lat="45.54463" lon="6.18173">
        <ele>335</ele>
        <time>2022-01-02T10:47:28.000Z</time>
      </trkpt>
      <trkpt lat="45.54461" lon="6.18184">
        <ele>334.79998779297</ele>
        <time>2022-01-02T10:47:30.000Z</time>
      </trkpt>
      <trkpt lat="45.5444" lon="6.1821">
        <ele>334.60000610352</ele>
        <time>2022-01-02T10:47:35.000Z</time>
      </trkpt>
      <trkpt lat="45.54411" lon="6.18253">
        <ele>334</ele>
        <time>2022-01-02T10:47:42.000Z</time>
      </trkpt>
      <trkpt lat="45.54407" lon="6.18268">
        <ele>334</ele>
        <time>2022-01-02T10:47:44.000Z</time>
      </trkpt>
      <trkpt lat="45.54404" lon="6.18284">
        <ele>334</ele>
        <time>2022-01-02T10:47:46.000Z</time>
      </trkpt>
      <trkpt lat="45.54398" lon="6.1834">
        <ele>333.79998779297</ele>
        <time>2022-01-02T10:47:53.000Z</time>
      </trkpt>
      <trkpt lat="45.54393" lon="6.18389">
        <ele>334</ele>
        <time>2022-01-02T10:47:59.000Z</time>
      </trkpt>
      <trkpt lat="45.54381" lon="6.18461">
        <ele>334.20001220703</ele>
        <time>2022-01-02T10:48:08.000Z</time>
      </trkpt>
      <trkpt lat="45.54365" lon="6.18518">
        <ele>335</ele>
        <time>2022-01-02T10:48:16.000Z</time>
      </trkpt>
      <trkpt lat="45.54353" lon="6.18555">
        <ele>335.79998779297</ele>
        <time>2022-01-02T10:48:22.000Z</time>
      </trkpt>
      <trkpt lat="45.54349" lon="6.18567">
        <ele>336.20001220703</ele>
        <time>2022-01-02T10:48:24.000Z</time>
      </trkpt>
      <trkpt lat="45.54343" lon="6.18584">
        <ele>336.79998779297</ele>
        <time>2022-01-02T10:48:27.000Z</time>
      </trkpt>
      <trkpt lat="45.54341" lon="6.18589">
        <ele>336.79998779297</ele>
        <time>2022-01-02T10:48:28.000Z</time>
      </trkpt>
      <trkpt lat="45.54329" lon="6.18607">
        <ele>337.20001220703</ele>
        <time>2022-01-02T10:48:32.000Z</time>
      </trkpt>
      <trkpt lat="45.54317" lon="6.18623">
        <ele>337.60000610352</ele>
        <time>2022-01-02T10:48:36.000Z</time>
      </trkpt>
      <trkpt lat="45.54303" lon="6.18643">
        <ele>338.39999389648</ele>
        <time>2022-01-02T10:48:41.000Z</time>
      </trkpt>
      <trkpt lat="45.54298" lon="6.18653">
        <ele>339</ele>
        <time>2022-01-02T10:48:43.000Z</time>
      </trkpt>
      <trkpt lat="45.54292" lon="6.18673">
        <ele>339.60000610352</ele>
        <time>2022-01-02T10:48:47.000Z</time>
      </trkpt>
      <trkpt lat="45.54288" lon="6.18694">
        <ele>340.60000610352</ele>
        <time>2022-01-02T10:48:51.000Z</time>
      </trkpt>
      <trkpt lat="45.54287" lon="6.18699">
        <ele>340.79998779297</ele>
        <time>2022-01-02T10:48:52.000Z</time>
      </trkpt>
      <trkpt lat="45.54283" lon="6.18718">
        <ele>341.79998779297</ele>
        <time>2022-01-02T10:48:56.000Z</time>
      </trkpt>
      <trkpt lat="45.54282" lon="6.1873">
        <ele>342.60000610352</ele>
        <time>2022-01-02T10:48:59.000Z</time>
      </trkpt>
      <trkpt lat="45.54281" lon="6.18738">
        <ele>343</ele>
        <time>2022-01-02T10:49:01.000Z</time>
      </trkpt>
      <trkpt lat="45.54277" lon="6.18757">
        <ele>344.39999389648</ele>
        <time>2022-01-02T10:49:06.000Z</time>
      </trkpt>
      <trkpt lat="45.54275" lon="6.18771">
        <ele>345.39999389648</ele>
        <time>2022-01-02T10:49:10.000Z</time>
      </trkpt>
      <trkpt lat="45.54271" lon="6.1878">
        <ele>345.79998779297</ele>
        <time>2022-01-02T10:49:12.000Z</time>
      </trkpt>
      <trkpt lat="45.54268" lon="6.18791">
        <ele>346.60000610352</ele>
        <time>2022-01-02T10:49:15.000Z</time>
      </trkpt>
      <trkpt lat="45.54264" lon="6.18801">
        <ele>347.79998779297</ele>
        <time>2022-01-02T10:49:18.000Z</time>
      </trkpt>
      <trkpt lat="45.54263" lon="6.18805">
        <ele>348</ele>
        <time>2022-01-02T10:49:19.000Z</time>
      </trkpt>
      <trkpt lat="45.54258" lon="6.1882">
        <ele>348.79998779297</ele>
        <time>2022-01-02T10:49:23.000Z</time>
      </trkpt>
      <trkpt lat="45.54255" lon="6.1883">
        <ele>349.60000610352</ele>
        <time>2022-01-02T10:49:26.000Z</time>
      </trkpt>
      <trkpt lat="45.54253" lon="6.18835">
        <ele>349.79998779297</ele>
        <time>2022-01-02T10:49:27.000Z</time>
      </trkpt>
      <trkpt lat="45.54244" lon="6.18855">
        <ele>350.79998779297</ele>
        <time>2022-01-02T10:49:32.000Z</time>
      </trkpt>
      <trkpt lat="45.54242" lon="6.1886">
        <ele>351.20001220703</ele>
        <time>2022-01-02T10:49:33.000Z</time>
      </trkpt>
      <trkpt lat="45.54234" lon="6.1888">
        <ele>352.39999389648</ele>
        <time>2022-01-02T10:49:37.000Z</time>
      </trkpt>
      <trkpt lat="45.5423" lon="6.18887">
        <ele>352.79998779297</ele>
        <time>2022-01-02T10:49:39.000Z</time>
      </trkpt>
      <trkpt lat="45.54222" lon="6.18901">
        <ele>353.60000610352</ele>
        <time>2022-01-02T10:49:42.000Z</time>
      </trkpt>
      <trkpt lat="45.54212" lon="6.18913">
        <ele>354.79998779297</ele>
        <time>2022-01-02T10:49:46.000Z</time>
      </trkpt>
      <trkpt lat="45.542" lon="6.1892">
        <ele>355.79998779297</ele>
        <time>2022-01-02T10:49:50.000Z</time>
      </trkpt>
      <trkpt lat="45.54195" lon="6.18921">
        <ele>356.20001220703</ele>
        <time>2022-01-02T10:49:52.000Z</time>
      </trkpt>
      <trkpt lat="45.54187" lon="6.1892">
        <ele>356.79998779297</ele>
        <time>2022-01-02T10:49:55.000Z</time>
      </trkpt>
      <trkpt lat="45.54181" lon="6.18917">
        <ele>357.39999389648</ele>
        <time>2022-01-02T10:49:57.000Z</time>
      </trkpt>
      <trkpt lat="45.54175" lon="6.18914">
        <ele>358</ele>
        <time>2022-01-02T10:49:59.000Z</time>
      </trkpt>
      <trkpt lat="45.54163" lon="6.18908">
        <ele>359</ele>
        <time>2022-01-02T10:50:03.000Z</time>
      </trkpt>
      <trkpt lat="45.54153" lon="6.18905">
        <ele>359.79998779297</ele>
        <time>2022-01-02T10:50:06.000Z</time>
      </trkpt>
      <trkpt lat="45.54149" lon="6.18904">
        <ele>360.20001220703</ele>
        <time>2022-01-02T10:50:07.000Z</time>
      </trkpt>
      <trkpt lat="45.54136" lon="6.18901">
        <ele>361.39999389648</ele>
        <time>2022-01-02T10:50:11.000Z</time>
      </trkpt>
      <trkpt lat="45.54125" lon="6.18899">
        <ele>361.79998779297</ele>
        <time>2022-01-02T10:50:14.000Z</time>
      </trkpt>
      <trkpt lat="45.54117" lon="6.18897">
        <ele>362.39999389648</ele>
        <time>2022-01-02T10:50:16.000Z</time>
      </trkpt>
      <trkpt lat="45.54104" lon="6.18893">
        <ele>363</ele>
        <time>2022-01-02T10:50:20.000Z</time>
      </trkpt>
      <trkpt lat="45.54097" lon="6.18891">
        <ele>363.39999389648</ele>
        <time>2022-01-02T10:50:22.000Z</time>
      </trkpt>
      <trkpt lat="45.54079" lon="6.18887">
        <ele>364.60000610352</ele>
        <time>2022-01-02T10:50:27.000Z</time>
      </trkpt>
      <trkpt lat="45.54076" lon="6.18885">
        <ele>364.79998779297</ele>
        <time>2022-01-02T10:50:28.000Z</time>
      </trkpt>
      <trkpt lat="45.54056" lon="6.18872">
        <ele>365.60000610352</ele>
        <time>2022-01-02T10:50:34.000Z</time>
      </trkpt>
      <trkpt lat="45.5405" lon="6.18867">
        <ele>366</ele>
        <time>2022-01-02T10:50:36.000Z</time>
      </trkpt>
      <trkpt lat="45.54039" lon="6.18857">
        <ele>366.79998779297</ele>
        <time>2022-01-02T10:50:40.000Z</time>
      </trkpt>
      <trkpt lat="45.54024" lon="6.18844">
        <ele>368</ele>
        <time>2022-01-02T10:50:45.000Z</time>
      </trkpt>
      <trkpt lat="45.54008" lon="6.18835">
        <ele>369.20001220703</ele>
        <time>2022-01-02T10:50:50.000Z</time>
      </trkpt>
      <trkpt lat="45.54001" lon="6.18835">
        <ele>369.79998779297</ele>
        <time>2022-01-02T10:50:52.000Z</time>
      </trkpt>
      <trkpt lat="45.53994" lon="6.18836">
        <ele>370.39999389648</ele>
        <time>2022-01-02T10:50:54.000Z</time>
      </trkpt>
      <trkpt lat="45.53976" lon="6.18838">
        <ele>371.39999389648</ele>
        <time>2022-01-02T10:50:59.000Z</time>
      </trkpt>
      <trkpt lat="45.53952" lon="6.18833">
        <ele>371.79998779297</ele>
        <time>2022-01-02T10:51:05.000Z</time>
      </trkpt>
      <trkpt lat="45.53916" lon="6.18818">
        <ele>372</ele>
        <time>2022-01-02T10:51:13.000Z</time>
      </trkpt>
      <trkpt lat="45.53873" lon="6.188">
        <ele>371.39999389648</ele>
        <time>2022-01-02T10:51:21.000Z</time>
      </trkpt>
      <trkpt lat="45.53833" lon="6.18783">
        <ele>371</ele>
        <time>2022-01-02T10:51:28.000Z</time>
      </trkpt>
      <trkpt lat="45.53828" lon="6.1878">
        <ele>371</ele>
        <time>2022-01-02T10:51:29.000Z</time>
      </trkpt>
      <trkpt lat="45.53802" lon="6.1876">
        <ele>371</ele>
        <time>2022-01-02T10:51:34.000Z</time>
      </trkpt>
      <trkpt lat="45.53798" lon="6.18754">
        <ele>371</ele>
        <time>2022-01-02T10:51:35.000Z</time>
      </trkpt>
      <trkpt lat="45.53779" lon="6.18732">
        <ele>371</ele>
        <time>2022-01-02T10:51:39.000Z</time>
      </trkpt>
      <trkpt lat="45.53765" lon="6.18714">
        <ele>371</ele>
        <time>2022-01-02T10:51:42.000Z</time>
      </trkpt>
      <trkpt lat="45.53729" lon="6.18669">
        <ele>370.79998779297</ele>
        <time>2022-01-02T10:51:50.000Z</time>
      </trkpt>
      <trkpt lat="45.53689" lon="6.18622">
        <ele>370.79998779297</ele>
        <time>2022-01-02T10:51:59.000Z</time>
      </trkpt>
      <trkpt lat="45.53663" lon="6.18593">
        <ele>371.20001220703</ele>
        <time>2022-01-02T10:52:05.000Z</time>
      </trkpt>
      <trkpt lat="45.53654" lon="6.18586">
        <ele>371.39999389648</ele>
        <time>2022-01-02T10:52:07.000Z</time>
      </trkpt>
      <trkpt lat="45.5363" lon="6.18576">
        <ele>371.79998779297</ele>
        <time>2022-01-02T10:52:12.000Z</time>
      </trkpt>
      <trkpt lat="45.53626" lon="6.18575">
        <ele>371.79998779297</ele>
        <time>2022-01-02T10:52:13.000Z</time>
      </trkpt>
      <trkpt lat="45.53621" lon="6.18574">
        <ele>372</ele>
        <time>2022-01-02T10:52:14.000Z</time>
      </trkpt>
      <trkpt lat="45.5361" lon="6.18572">
        <ele>372.60000610352</ele>
        <time>2022-01-02T10:52:17.000Z</time>
      </trkpt>
      <trkpt lat="45.53603" lon="6.1857">
        <ele>372.79998779297</ele>
        <time>2022-01-02T10:52:19.000Z</time>
      </trkpt>
      <trkpt lat="45.53592" lon="6.18566">
        <ele>373.79998779297</ele>
        <time>2022-01-02T10:52:22.000Z</time>
      </trkpt>
      <trkpt lat="45.53573" lon="6.1856">
        <ele>374.79998779297</ele>
        <time>2022-01-02T10:52:27.000Z</time>
      </trkpt>
      <trkpt lat="45.53566" lon="6.18556">
        <ele>375.20001220703</ele>
        <time>2022-01-02T10:52:29.000Z</time>
      </trkpt>
      <trkpt lat="45.53552" lon="6.18546">
        <ele>376.20001220703</ele>
        <time>2022-01-02T10:52:33.000Z</time>
      </trkpt>
      <trkpt lat="45.53543" lon="6.18535">
        <ele>377</ele>
        <time>2022-01-02T10:52:36.000Z</time>
      </trkpt>
      <trkpt lat="45.53539" lon="6.18527">
        <ele>377.39999389648</ele>
        <time>2022-01-02T10:52:38.000Z</time>
      </trkpt>
      <trkpt lat="45.53527" lon="6.185">
        <ele>378.39999389648</ele>
        <time>2022-01-02T10:52:44.000Z</time>
      </trkpt>
      <trkpt lat="45.53515" lon="6.1847">
        <ele>379.60000610352</ele>
        <time>2022-01-02T10:52:50.000Z</time>
      </trkpt>
      <trkpt lat="45.53506" lon="6.18451">
        <ele>380</ele>
        <time>2022-01-02T10:52:54.000Z</time>
      </trkpt>
      <trkpt lat="45.53498" lon="6.18432">
        <ele>380.60000610352</ele>
        <time>2022-01-02T10:52:58.000Z</time>
      </trkpt>
      <trkpt lat="45.53481" lon="6.18393">
        <ele>381.60000610352</ele>
        <time>2022-01-02T10:53:06.000Z</time>
      </trkpt>
      <trkpt lat="45.53466" lon="6.18351">
        <ele>382.39999389648</ele>
        <time>2022-01-02T10:53:14.000Z</time>
      </trkpt>
      <trkpt lat="45.53458" lon="6.18337">
        <ele>382.79998779297</ele>
        <time>2022-01-02T10:53:17.000Z</time>
      </trkpt>
      <trkpt lat="45.53453" lon="6.18328">
        <ele>383</ele>
        <time>2022-01-02T10:53:19.000Z</time>
      </trkpt>
      <trkpt lat="45.53451" lon="6.18323">
        <ele>383</ele>
        <time>2022-01-02T10:53:20.000Z</time>
      </trkpt>
      <trkpt lat="45.53435" lon="6.18284">
        <ele>383.60000610352</ele>
        <time>2022-01-02T10:53:27.000Z</time>
      </trkpt>
      <trkpt lat="45.53418" lon="6.18244">
        <ele>383.60000610352</ele>
        <time>2022-01-02T10:53:34.000Z</time>
      </trkpt>
      <trkpt lat="45.53393" lon="6.18202">
        <ele>383.20001220703</ele>
        <time>2022-01-02T10:53:42.000Z</time>
      </trkpt>
      <trkpt lat="45.53367" lon="6.18153">
        <ele>383.20001220703</ele>
        <time>2022-01-02T10:53:52.000Z</time>
      </trkpt>
      <trkpt lat="45.5335" lon="6.18114">
        <ele>384</ele>
        <time>2022-01-02T10:54:00.000Z</time>
      </trkpt>
      <trkpt lat="45.53348" lon="6.18109">
        <ele>384.20001220703</ele>
        <time>2022-01-02T10:54:01.000Z</time>
      </trkpt>
      <trkpt lat="45.53338" lon="6.18085">
        <ele>385</ele>
        <time>2022-01-02T10:54:06.000Z</time>
      </trkpt>
      <trkpt lat="45.53333" lon="6.18071">
        <ele>385.39999389648</ele>
        <time>2022-01-02T10:54:09.000Z</time>
      </trkpt>
      <trkpt lat="45.53327" lon="6.18049">
        <ele>386.20001220703</ele>
        <time>2022-01-02T10:54:13.000Z</time>
      </trkpt>
      <trkpt lat="45.5332" lon="6.18018">
        <ele>387.20001220703</ele>
        <time>2022-01-02T10:54:19.000Z</time>
      </trkpt>
      <trkpt lat="45.5332" lon="6.18013">
        <ele>387.60000610352</ele>
        <time>2022-01-02T10:54:20.000Z</time>
      </trkpt>
      <trkpt lat="45.53314" lon="6.17989">
        <ele>388.79998779297</ele>
        <time>2022-01-02T10:54:25.000Z</time>
      </trkpt>
      <trkpt lat="45.53311" lon="6.17979">
        <ele>389</ele>
        <time>2022-01-02T10:54:27.000Z</time>
      </trkpt>
      <trkpt lat="45.53305" lon="6.1796">
        <ele>390</ele>
        <time>2022-01-02T10:54:31.000Z</time>
      </trkpt>
      <trkpt lat="45.53304" lon="6.17956">
        <ele>390.20001220703</ele>
        <time>2022-01-02T10:54:32.000Z</time>
      </trkpt>
      <trkpt lat="45.53294" lon="6.17927">
        <ele>391.20001220703</ele>
        <time>2022-01-02T10:54:38.000Z</time>
      </trkpt>
      <trkpt lat="45.53292" lon="6.17923">
        <ele>391.39999389648</ele>
        <time>2022-01-02T10:54:39.000Z</time>
      </trkpt>
      <trkpt lat="45.53284" lon="6.17904">
        <ele>392.20001220703</ele>
        <time>2022-01-02T10:54:43.000Z</time>
      </trkpt>
      <trkpt lat="45.53275" lon="6.17881">
        <ele>393.39999389648</ele>
        <time>2022-01-02T10:54:48.000Z</time>
      </trkpt>
      <trkpt lat="45.53258" lon="6.17849">
        <ele>394.20001220703</ele>
        <time>2022-01-02T10:54:55.000Z</time>
      </trkpt>
      <trkpt lat="45.53249" lon="6.17828">
        <ele>394.39999389648</ele>
        <time>2022-01-02T10:54:59.000Z</time>
      </trkpt>
      <trkpt lat="45.53239" lon="6.17807">
        <ele>394.60000610352</ele>
        <time>2022-01-02T10:55:03.000Z</time>
      </trkpt>
      <trkpt lat="45.53225" lon="6.17761">
        <ele>395.20001220703</ele>
        <time>2022-01-02T10:55:11.000Z</time>
      </trkpt>
      <trkpt lat="45.53223" lon="6.17755">
        <ele>395.39999389648</ele>
        <time>2022-01-02T10:55:12.000Z</time>
      </trkpt>
      <trkpt lat="45.53216" lon="6.17724">
        <ele>395.79998779297</ele>
        <time>2022-01-02T10:55:18.000Z</time>
      </trkpt>
      <trkpt lat="45.53216" lon="6.1772">
        <ele>396</ele>
        <time>2022-01-02T10:55:19.000Z</time>
      </trkpt>
      <trkpt lat="45.53214" lon="6.17714">
        <ele>396</ele>
        <time>2022-01-02T10:55:20.000Z</time>
      </trkpt>
      <trkpt lat="45.53212" lon="6.177">
        <ele>396.39999389648</ele>
        <time>2022-01-02T10:55:23.000Z</time>
      </trkpt>
      <trkpt lat="45.53209" lon="6.17692">
        <ele>397.20001220703</ele>
        <time>2022-01-02T10:55:25.000Z</time>
      </trkpt>
      <trkpt lat="45.53207" lon="6.17683">
        <ele>397.60000610352</ele>
        <time>2022-01-02T10:55:27.000Z</time>
      </trkpt>
      <trkpt lat="45.53198" lon="6.17661">
        <ele>398.60000610352</ele>
        <time>2022-01-02T10:55:33.000Z</time>
      </trkpt>
      <trkpt lat="45.53197" lon="6.17657">
        <ele>398.79998779297</ele>
        <time>2022-01-02T10:55:34.000Z</time>
      </trkpt>
      <trkpt lat="45.5319" lon="6.17637">
        <ele>399.60000610352</ele>
        <time>2022-01-02T10:55:39.000Z</time>
      </trkpt>
      <trkpt lat="45.53183" lon="6.17621">
        <ele>400.39999389648</ele>
        <time>2022-01-02T10:55:43.000Z</time>
      </trkpt>
      <trkpt lat="45.5318" lon="6.17614">
        <ele>400.79998779297</ele>
        <time>2022-01-02T10:55:45.000Z</time>
      </trkpt>
      <trkpt lat="45.53172" lon="6.176">
        <ele>401.79998779297</ele>
        <time>2022-01-02T10:55:49.000Z</time>
      </trkpt>
      <trkpt lat="45.53165" lon="6.17585">
        <ele>402.60000610352</ele>
        <time>2022-01-02T10:55:53.000Z</time>
      </trkpt>
      <trkpt lat="45.53163" lon="6.17582">
        <ele>402.79998779297</ele>
        <time>2022-01-02T10:55:54.000Z</time>
      </trkpt>
      <trkpt lat="45.53152" lon="6.17566">
        <ele>404</ele>
        <time>2022-01-02T10:55:59.000Z</time>
      </trkpt>
      <trkpt lat="45.5314" lon="6.1755">
        <ele>405</ele>
        <time>2022-01-02T10:56:04.000Z</time>
      </trkpt>
      <trkpt lat="45.53138" lon="6.17546">
        <ele>405</ele>
        <time>2022-01-02T10:56:05.000Z</time>
      </trkpt>
      <trkpt lat="45.53121" lon="6.17528">
        <ele>406.39999389648</ele>
        <time>2022-01-02T10:56:11.000Z</time>
      </trkpt>
      <trkpt lat="45.53119" lon="6.17525">
        <ele>406.79998779297</ele>
        <time>2022-01-02T10:56:12.000Z</time>
      </trkpt>
      <trkpt lat="45.53108" lon="6.17514">
        <ele>407.39999389648</ele>
        <time>2022-01-02T10:56:16.000Z</time>
      </trkpt>
      <trkpt lat="45.53102" lon="6.1751">
        <ele>408</ele>
        <time>2022-01-02T10:56:18.000Z</time>
      </trkpt>
      <trkpt lat="45.53093" lon="6.17504">
        <ele>408.60000610352</ele>
        <time>2022-01-02T10:56:21.000Z</time>
      </trkpt>
      <trkpt lat="45.53086" lon="6.17501">
        <ele>408.79998779297</ele>
        <time>2022-01-02T10:56:23.000Z</time>
      </trkpt>
      <trkpt lat="45.53075" lon="6.17495">
        <ele>409</ele>
        <time>2022-01-02T10:56:27.000Z</time>
      </trkpt>
      <trkpt lat="45.53062" lon="6.17489">
        <ele>409.60000610352</ele>
        <time>2022-01-02T10:56:31.000Z</time>
      </trkpt>
      <trkpt lat="45.53052" lon="6.17483">
        <ele>410</ele>
        <time>2022-01-02T10:56:34.000Z</time>
      </trkpt>
      <trkpt lat="45.53032" lon="6.17462">
        <ele>410.79998779297</ele>
        <time>2022-01-02T10:56:41.000Z</time>
      </trkpt>
      <trkpt lat="45.5302" lon="6.17443">
        <ele>411.20001220703</ele>
        <time>2022-01-02T10:56:46.000Z</time>
      </trkpt>
      <trkpt lat="45.53005" lon="6.17421">
        <ele>412</ele>
        <time>2022-01-02T10:56:52.000Z</time>
      </trkpt>
      <trkpt lat="45.53" lon="6.17413">
        <ele>412.39999389648</ele>
        <time>2022-01-02T10:56:54.000Z</time>
      </trkpt>
      <trkpt lat="45.52989" lon="6.17396">
        <ele>413</ele>
        <time>2022-01-02T10:56:59.000Z</time>
      </trkpt>
      <trkpt lat="45.5298" lon="6.17383">
        <ele>413.39999389648</ele>
        <time>2022-01-02T10:57:03.000Z</time>
      </trkpt>
      <trkpt lat="45.52968" lon="6.17364">
        <ele>414</ele>
        <time>2022-01-02T10:57:08.000Z</time>
      </trkpt>
      <trkpt lat="45.52958" lon="6.17351">
        <ele>414.60000610352</ele>
        <time>2022-01-02T10:57:12.000Z</time>
      </trkpt>
      <trkpt lat="45.52947" lon="6.1734">
        <ele>415.20001220703</ele>
        <time>2022-01-02T10:57:16.000Z</time>
      </trkpt>
      <trkpt lat="45.52945" lon="6.17338">
        <ele>415.39999389648</ele>
        <time>2022-01-02T10:57:17.000Z</time>
      </trkpt>
      <trkpt lat="45.52937" lon="6.17329">
        <ele>416.20001220703</ele>
        <time>2022-01-02T10:57:20.000Z</time>
      </trkpt>
      <trkpt lat="45.52927" lon="6.17319">
        <ele>417</ele>
        <time>2022-01-02T10:57:24.000Z</time>
      </trkpt>
      <trkpt lat="45.52924" lon="6.17317">
        <ele>417.20001220703</ele>
        <time>2022-01-02T10:57:25.000Z</time>
      </trkpt>
      <trkpt lat="45.52911" lon="6.17307">
        <ele>418.60000610352</ele>
        <time>2022-01-02T10:57:30.000Z</time>
      </trkpt>
      <trkpt lat="45.52902" lon="6.17298">
        <ele>419.79998779297</ele>
        <time>2022-01-02T10:57:34.000Z</time>
      </trkpt>
      <trkpt lat="45.52891" lon="6.17286">
        <ele>420.60000610352</ele>
        <time>2022-01-02T10:57:39.000Z</time>
      </trkpt>
      <trkpt lat="45.52889" lon="6.17283">
        <ele>421</ele>
        <time>2022-01-02T10:57:40.000Z</time>
      </trkpt>
      <trkpt lat="45.52882" lon="6.1727">
        <ele>422</ele>
        <time>2022-01-02T10:57:44.000Z</time>
      </trkpt>
      <trkpt lat="45.52876" lon="6.1726">
        <ele>422.79998779297</ele>
        <time>2022-01-02T10:57:47.000Z</time>
      </trkpt>
      <trkpt lat="45.52874" lon="6.17256">
        <ele>423.20001220703</ele>
        <time>2022-01-02T10:57:48.000Z</time>
      </trkpt>
      <trkpt lat="45.52866" lon="6.17239">
        <ele>424.20001220703</ele>
        <time>2022-01-02T10:57:53.000Z</time>
      </trkpt>
      <trkpt lat="45.52863" lon="6.17227">
        <ele>425</ele>
        <time>2022-01-02T10:57:56.000Z</time>
      </trkpt>
      <trkpt lat="45.5286" lon="6.1722">
        <ele>425.39999389648</ele>
        <time>2022-01-02T10:57:58.000Z</time>
      </trkpt>
      <trkpt lat="45.52855" lon="6.17201">
        <ele>426.39999389648</ele>
        <time>2022-01-02T10:58:03.000Z</time>
      </trkpt>
      <trkpt lat="45.52853" lon="6.17193">
        <ele>426.79998779297</ele>
        <time>2022-01-02T10:58:05.000Z</time>
      </trkpt>
      <trkpt lat="45.52851" lon="6.1718">
        <ele>427.60000610352</ele>
        <time>2022-01-02T10:58:08.000Z</time>
      </trkpt>
      <trkpt lat="45.52846" lon="6.17159">
        <ele>428.60000610352</ele>
        <time>2022-01-02T10:58:13.000Z</time>
      </trkpt>
      <trkpt lat="45.52845" lon="6.17151">
        <ele>429</ele>
        <time>2022-01-02T10:58:15.000Z</time>
      </trkpt>
      <trkpt lat="45.52843" lon="6.17135">
        <ele>429.60000610352</ele>
        <time>2022-01-02T10:58:19.000Z</time>
      </trkpt>
      <trkpt lat="45.5284" lon="6.17118">
        <ele>430.60000610352</ele>
        <time>2022-01-02T10:58:23.000Z</time>
      </trkpt>
      <trkpt lat="45.5284" lon="6.17114">
        <ele>430.79998779297</ele>
        <time>2022-01-02T10:58:24.000Z</time>
      </trkpt>
      <trkpt lat="45.52835" lon="6.17093">
        <ele>431.79998779297</ele>
        <time>2022-01-02T10:58:29.000Z</time>
      </trkpt>
      <trkpt lat="45.52834" lon="6.1709">
        <ele>432.20001220703</ele>
        <time>2022-01-02T10:58:30.000Z</time>
      </trkpt>
      <trkpt lat="45.5283" lon="6.17078">
        <ele>433</ele>
        <time>2022-01-02T10:58:33.000Z</time>
      </trkpt>
      <trkpt lat="45.52825" lon="6.17063">
        <ele>433.60000610352</ele>
        <time>2022-01-02T10:58:37.000Z</time>
      </trkpt>
      <trkpt lat="45.52818" lon="6.17049">
        <ele>434</ele>
        <time>2022-01-02T10:58:41.000Z</time>
      </trkpt>
      <trkpt lat="45.52809" lon="6.17034">
        <ele>435.20001220703</ele>
        <time>2022-01-02T10:58:46.000Z</time>
      </trkpt>
      <trkpt lat="45.52807" lon="6.17031">
        <ele>435.39999389648</ele>
        <time>2022-01-02T10:58:47.000Z</time>
      </trkpt>
      <trkpt lat="45.52799" lon="6.17018">
        <ele>436.20001220703</ele>
        <time>2022-01-02T10:58:51.000Z</time>
      </trkpt>
      <trkpt lat="45.52789" lon="6.17002">
        <ele>437.20001220703</ele>
        <time>2022-01-02T10:58:56.000Z</time>
      </trkpt>
      <trkpt lat="45.52787" lon="6.16998">
        <ele>437.39999389648</ele>
        <time>2022-01-02T10:58:57.000Z</time>
      </trkpt>
      <trkpt lat="45.52779" lon="6.16986">
        <ele>438.39999389648</ele>
        <time>2022-01-02T10:59:01.000Z</time>
      </trkpt>
      <trkpt lat="45.52769" lon="6.16969">
        <ele>439.20001220703</ele>
        <time>2022-01-02T10:59:06.000Z</time>
      </trkpt>
      <trkpt lat="45.52766" lon="6.16966">
        <ele>439.60000610352</ele>
        <time>2022-01-02T10:59:07.000Z</time>
      </trkpt>
      <trkpt lat="45.52756" lon="6.16949">
        <ele>441</ele>
        <time>2022-01-02T10:59:12.000Z</time>
      </trkpt>
      <trkpt lat="45.52745" lon="6.16934">
        <ele>441.79998779297</ele>
        <time>2022-01-02T10:59:17.000Z</time>
      </trkpt>
      <trkpt lat="45.52741" lon="6.16927">
        <ele>442.20001220703</ele>
        <time>2022-01-02T10:59:19.000Z</time>
      </trkpt>
      <trkpt lat="45.52724" lon="6.16898">
        <ele>443.20001220703</ele>
        <time>2022-01-02T10:59:27.000Z</time>
      </trkpt>
      <trkpt lat="45.52707" lon="6.16871">
        <ele>444.20001220703</ele>
        <time>2022-01-02T10:59:34.000Z</time>
      </trkpt>
      <trkpt lat="45.52705" lon="6.16867">
        <ele>444.39999389648</ele>
        <time>2022-01-02T10:59:35.000Z</time>
      </trkpt>
      <trkpt lat="45.52687" lon="6.16829">
        <ele>444.79998779297</ele>
        <time>2022-01-02T10:59:43.000Z</time>
      </trkpt>
      <trkpt lat="45.52667" lon="6.16791">
        <ele>445.20001220703</ele>
        <time>2022-01-02T10:59:51.000Z</time>
      </trkpt>
      <trkpt lat="45.52661" lon="6.1678">
        <ele>445.39999389648</ele>
        <time>2022-01-02T10:59:53.000Z</time>
      </trkpt>
      <trkpt lat="45.5264" lon="6.16737">
        <ele>445.20001220703</ele>
        <time>2022-01-02T11:00:01.000Z</time>
      </trkpt>
      <trkpt lat="45.5262" lon="6.16691">
        <ele>445</ele>
        <time>2022-01-02T11:00:09.000Z</time>
      </trkpt>
      <trkpt lat="45.52601" lon="6.16645">
        <ele>444.79998779297</ele>
        <time>2022-01-02T11:00:16.000Z</time>
      </trkpt>
      <trkpt lat="45.52584" lon="6.16601">
        <ele>444.60000610352</ele>
        <time>2022-01-02T11:00:23.000Z</time>
      </trkpt>
      <trkpt lat="45.52568" lon="6.16553">
        <ele>444.39999389648</ele>
        <time>2022-01-02T11:00:30.000Z</time>
      </trkpt>
      <trkpt lat="45.52567" lon="6.16545">
        <ele>444.20001220703</ele>
        <time>2022-01-02T11:00:31.000Z</time>
      </trkpt>
      <trkpt lat="45.52565" lon="6.16538">
        <ele>444.20001220703</ele>
        <time>2022-01-02T11:00:32.000Z</time>
      </trkpt>
      <trkpt lat="45.52565" lon="6.16523">
        <ele>444.20001220703</ele>
        <time>2022-01-02T11:00:34.000Z</time>
      </trkpt>
      <trkpt lat="45.52565" lon="6.16508">
        <ele>444.20001220703</ele>
        <time>2022-01-02T11:00:36.000Z</time>
      </trkpt>
      <trkpt lat="45.52566" lon="6.16501">
        <ele>444.20001220703</ele>
        <time>2022-01-02T11:00:37.000Z</time>
      </trkpt>
      <trkpt lat="45.52568" lon="6.16466">
        <ele>444</ele>
        <time>2022-01-02T11:00:42.000Z</time>
      </trkpt>
      <trkpt lat="45.52568" lon="6.16419">
        <ele>443.20001220703</ele>
        <time>2022-01-02T11:00:48.000Z</time>
      </trkpt>
      <trkpt lat="45.52567" lon="6.1641">
        <ele>443</ele>
        <time>2022-01-02T11:00:49.000Z</time>
      </trkpt>
      <trkpt lat="45.52567" lon="6.16391">
        <ele>442.79998779297</ele>
        <time>2022-01-02T11:00:51.000Z</time>
      </trkpt>
      <trkpt lat="45.52563" lon="6.16371">
        <ele>442.39999389648</ele>
        <time>2022-01-02T11:00:53.000Z</time>
      </trkpt>
      <trkpt lat="45.52561" lon="6.16361">
        <ele>442</ele>
        <time>2022-01-02T11:00:54.000Z</time>
      </trkpt>
      <trkpt lat="45.52553" lon="6.16333">
        <ele>441</ele>
        <time>2022-01-02T11:00:57.000Z</time>
      </trkpt>
      <trkpt lat="45.52545" lon="6.16314">
        <ele>439.79998779297</ele>
        <time>2022-01-02T11:00:59.000Z</time>
      </trkpt>
      <trkpt lat="45.52534" lon="6.16282">
        <ele>438.79998779297</ele>
        <time>2022-01-02T11:01:02.000Z</time>
      </trkpt>
      <trkpt lat="45.52522" lon="6.16249">
        <ele>437.60000610352</ele>
        <time>2022-01-02T11:01:05.000Z</time>
      </trkpt>
      <trkpt lat="45.52513" lon="6.16227">
        <ele>436.60000610352</ele>
        <time>2022-01-02T11:01:07.000Z</time>
      </trkpt>
      <trkpt lat="45.52507" lon="6.16217">
        <ele>436.20001220703</ele>
        <time>2022-01-02T11:01:08.000Z</time>
      </trkpt>
      <trkpt lat="45.52495" lon="6.16197">
        <ele>435</ele>
        <time>2022-01-02T11:01:10.000Z</time>
      </trkpt>
      <trkpt lat="45.52479" lon="6.16168">
        <ele>433.60000610352</ele>
        <time>2022-01-02T11:01:13.000Z</time>
      </trkpt>
      <trkpt lat="45.52465" lon="6.16135">
        <ele>432.39999389648</ele>
        <time>2022-01-02T11:01:16.000Z</time>
      </trkpt>
      <trkpt lat="45.52457" lon="6.161">
        <ele>431.20001220703</ele>
        <time>2022-01-02T11:01:19.000Z</time>
      </trkpt>
      <trkpt lat="45.52449" lon="6.16066">
        <ele>430.79998779297</ele>
        <time>2022-01-02T11:01:22.000Z</time>
      </trkpt>
      <trkpt lat="45.52438" lon="6.16023">
        <ele>430</ele>
        <time>2022-01-02T11:01:26.000Z</time>
      </trkpt>
      <trkpt lat="45.52432" lon="6.16002">
        <ele>429.39999389648</ele>
        <time>2022-01-02T11:01:28.000Z</time>
      </trkpt>
      <trkpt lat="45.5242" lon="6.15965">
        <ele>428.79998779297</ele>
        <time>2022-01-02T11:01:32.000Z</time>
      </trkpt>
      <trkpt lat="45.52413" lon="6.15936">
        <ele>428.60000610352</ele>
        <time>2022-01-02T11:01:35.000Z</time>
      </trkpt>
      <trkpt lat="45.52406" lon="6.15898">
        <ele>427.79998779297</ele>
        <time>2022-01-02T11:01:39.000Z</time>
      </trkpt>
      <trkpt lat="45.52404" lon="6.15888">
        <ele>427.79998779297</ele>
        <time>2022-01-02T11:01:40.000Z</time>
      </trkpt>
      <trkpt lat="45.52397" lon="6.15829">
        <ele>426.79998779297</ele>
        <time>2022-01-02T11:01:46.000Z</time>
      </trkpt>
      <trkpt lat="45.52393" lon="6.15806">
        <ele>426.20001220703</ele>
        <time>2022-01-02T11:01:48.000Z</time>
      </trkpt>
      <trkpt lat="45.52386" lon="6.1579">
        <ele>425.39999389648</ele>
        <time>2022-01-02T11:01:50.000Z</time>
      </trkpt>
      <trkpt lat="45.5237" lon="6.15764">
        <ele>424.39999389648</ele>
        <time>2022-01-02T11:01:53.000Z</time>
      </trkpt>
      <trkpt lat="45.5236" lon="6.1575">
        <ele>423.79998779297</ele>
        <time>2022-01-02T11:01:55.000Z</time>
      </trkpt>
      <trkpt lat="45.52354" lon="6.15741">
        <ele>423.20001220703</ele>
        <time>2022-01-02T11:01:56.000Z</time>
      </trkpt>
      <trkpt lat="45.52333" lon="6.1571">
        <ele>422.20001220703</ele>
        <time>2022-01-02T11:02:00.000Z</time>
      </trkpt>
      <trkpt lat="45.52323" lon="6.15693">
        <ele>421.79998779297</ele>
        <time>2022-01-02T11:02:02.000Z</time>
      </trkpt>
      <trkpt lat="45.52313" lon="6.15678">
        <ele>421.20001220703</ele>
        <time>2022-01-02T11:02:04.000Z</time>
      </trkpt>
      <trkpt lat="45.5229" lon="6.15642">
        <ele>419.79998779297</ele>
        <time>2022-01-02T11:02:08.000Z</time>
      </trkpt>
      <trkpt lat="45.52285" lon="6.15633">
        <ele>419.60000610352</ele>
        <time>2022-01-02T11:02:09.000Z</time>
      </trkpt>
      <trkpt lat="45.52264" lon="6.15599">
        <ele>418.39999389648</ele>
        <time>2022-01-02T11:02:13.000Z</time>
      </trkpt>
      <trkpt lat="45.52247" lon="6.15573">
        <ele>417.60000610352</ele>
        <time>2022-01-02T11:02:16.000Z</time>
      </trkpt>
      <trkpt lat="45.52236" lon="6.15558">
        <ele>417</ele>
        <time>2022-01-02T11:02:18.000Z</time>
      </trkpt>
      <trkpt lat="45.52216" lon="6.15525">
        <ele>416</ele>
        <time>2022-01-02T11:02:22.000Z</time>
      </trkpt>
      <trkpt lat="45.52211" lon="6.15516">
        <ele>415.60000610352</ele>
        <time>2022-01-02T11:02:23.000Z</time>
      </trkpt>
      <trkpt lat="45.52197" lon="6.15486">
        <ele>414.39999389648</ele>
        <time>2022-01-02T11:02:26.000Z</time>
      </trkpt>
      <trkpt lat="45.52185" lon="6.1546">
        <ele>413.60000610352</ele>
        <time>2022-01-02T11:02:29.000Z</time>
      </trkpt>
      <trkpt lat="45.52181" lon="6.15451">
        <ele>413.39999389648</ele>
        <time>2022-01-02T11:02:30.000Z</time>
      </trkpt>
      <trkpt lat="45.52155" lon="6.1539">
        <ele>412.39999389648</ele>
        <time>2022-01-02T11:02:37.000Z</time>
      </trkpt>
      <trkpt lat="45.52133" lon="6.15337">
        <ele>412.60000610352</ele>
        <time>2022-01-02T11:02:44.000Z</time>
      </trkpt>
      <trkpt lat="45.52116" lon="6.1529">
        <ele>413.39999389648</ele>
        <time>2022-01-02T11:02:51.000Z</time>
      </trkpt>
      <trkpt lat="45.52109" lon="6.15273">
        <ele>414.20001220703</ele>
        <time>2022-01-02T11:02:54.000Z</time>
      </trkpt>
      <trkpt lat="45.52107" lon="6.15266">
        <ele>414.60000610352</ele>
        <time>2022-01-02T11:02:55.000Z</time>
      </trkpt>
      <trkpt lat="45.52105" lon="6.1526">
        <ele>414.60000610352</ele>
        <time>2022-01-02T11:02:56.000Z</time>
      </trkpt>
      <trkpt lat="45.52103" lon="6.15255">
        <ele>415</ele>
        <time>2022-01-02T11:02:57.000Z</time>
      </trkpt>
      <trkpt lat="45.52096" lon="6.15236">
        <ele>415.79998779297</ele>
        <time>2022-01-02T11:03:00.000Z</time>
      </trkpt>
      <trkpt lat="45.52085" lon="6.15207">
        <ele>417</ele>
        <time>2022-01-02T11:03:05.000Z</time>
      </trkpt>
      <trkpt lat="45.52081" lon="6.15196">
        <ele>417.20001220703</ele>
        <time>2022-01-02T11:03:07.000Z</time>
      </trkpt>
      <trkpt lat="45.52062" lon="6.15151">
        <ele>417.39999389648</ele>
        <time>2022-01-02T11:03:14.000Z</time>
      </trkpt>
      <trkpt lat="45.52042" lon="6.15103">
        <ele>416.60000610352</ele>
        <time>2022-01-02T11:03:20.000Z</time>
      </trkpt>
      <trkpt lat="45.52031" lon="6.15079">
        <ele>415.79998779297</ele>
        <time>2022-01-02T11:03:23.000Z</time>
      </trkpt>
      <trkpt lat="45.52022" lon="6.15064">
        <ele>415.39999389648</ele>
        <time>2022-01-02T11:03:25.000Z</time>
      </trkpt>
      <trkpt lat="45.52007" lon="6.15043">
        <ele>414.79998779297</ele>
        <time>2022-01-02T11:03:28.000Z</time>
      </trkpt>
      <trkpt lat="45.52002" lon="6.15035">
        <ele>414.60000610352</ele>
        <time>2022-01-02T11:03:29.000Z</time>
      </trkpt>
      <trkpt lat="45.51997" lon="6.15027">
        <ele>414.20001220703</ele>
        <time>2022-01-02T11:03:30.000Z</time>
      </trkpt>
      <trkpt lat="45.51993" lon="6.15018">
        <ele>414</ele>
        <time>2022-01-02T11:03:31.000Z</time>
      </trkpt>
      <trkpt lat="45.51988" lon="6.15009">
        <ele>413.60000610352</ele>
        <time>2022-01-02T11:03:32.000Z</time>
      </trkpt>
      <trkpt lat="45.51973" lon="6.14985">
        <ele>412.60000610352</ele>
        <time>2022-01-02T11:03:35.000Z</time>
      </trkpt>
      <trkpt lat="45.51968" lon="6.14978">
        <ele>412.60000610352</ele>
        <time>2022-01-02T11:03:36.000Z</time>
      </trkpt>
      <trkpt lat="45.51963" lon="6.14972">
        <ele>412.20001220703</ele>
        <time>2022-01-02T11:03:37.000Z</time>
      </trkpt>
      <trkpt lat="45.51955" lon="6.14957">
        <ele>411.79998779297</ele>
        <time>2022-01-02T11:03:39.000Z</time>
      </trkpt>
      <trkpt lat="45.51951" lon="6.14949">
        <ele>411.60000610352</ele>
        <time>2022-01-02T11:03:40.000Z</time>
      </trkpt>
      <trkpt lat="45.51933" lon="6.14911">
        <ele>411.20001220703</ele>
        <time>2022-01-02T11:03:45.000Z</time>
      </trkpt>
      <trkpt lat="45.5193" lon="6.14903">
        <ele>411.20001220703</ele>
        <time>2022-01-02T11:03:46.000Z</time>
      </trkpt>
      <trkpt lat="45.51918" lon="6.14875">
        <ele>411.20001220703</ele>
        <time>2022-01-02T11:03:50.000Z</time>
      </trkpt>
      <trkpt lat="45.51897" lon="6.14836">
        <ele>411.20001220703</ele>
        <time>2022-01-02T11:03:56.000Z</time>
      </trkpt>
      <trkpt lat="45.51883" lon="6.14809">
        <ele>410.39999389648</ele>
        <time>2022-01-02T11:04:00.000Z</time>
      </trkpt>
      <trkpt lat="45.51874" lon="6.14788">
        <ele>409.20001220703</ele>
        <time>2022-01-02T11:04:03.000Z</time>
      </trkpt>
      <trkpt lat="45.51867" lon="6.14771">
        <ele>408.60000610352</ele>
        <time>2022-01-02T11:04:05.000Z</time>
      </trkpt>
      <trkpt lat="45.51856" lon="6.14747">
        <ele>408.20001220703</ele>
        <time>2022-01-02T11:04:08.000Z</time>
      </trkpt>
      <trkpt lat="45.5185" lon="6.14733">
        <ele>407.79998779297</ele>
        <time>2022-01-02T11:04:10.000Z</time>
      </trkpt>
      <trkpt lat="45.51846" lon="6.14721">
        <ele>407.39999389648</ele>
        <time>2022-01-02T11:04:12.000Z</time>
      </trkpt>
      <trkpt lat="45.51842" lon="6.14713">
        <ele>407.20001220703</ele>
        <time>2022-01-02T11:04:13.000Z</time>
      </trkpt>
      <trkpt lat="45.51834" lon="6.14694">
        <ele>406.20001220703</ele>
        <time>2022-01-02T11:04:16.000Z</time>
      </trkpt>
      <trkpt lat="45.51834" lon="6.14688">
        <ele>406</ele>
        <time>2022-01-02T11:04:17.000Z</time>
      </trkpt>
      <trkpt lat="45.51836" lon="6.14683">
        <ele>405.79998779297</ele>
        <time>2022-01-02T11:04:18.000Z</time>
      </trkpt>
      <trkpt lat="45.51843" lon="6.14675">
        <ele>405.39999389648</ele>
        <time>2022-01-02T11:04:20.000Z</time>
      </trkpt>
      <trkpt lat="45.51851" lon="6.14667">
        <ele>405.20001220703</ele>
        <time>2022-01-02T11:04:22.000Z</time>
      </trkpt>
      <trkpt lat="45.5187" lon="6.14652">
        <ele>405</ele>
        <time>2022-01-02T11:04:26.000Z</time>
      </trkpt>
      <trkpt lat="45.51907" lon="6.14618">
        <ele>404.79998779297</ele>
        <time>2022-01-02T11:04:35.000Z</time>
      </trkpt>
      <trkpt lat="45.51913" lon="6.14611">
        <ele>405</ele>
        <time>2022-01-02T11:04:37.000Z</time>
      </trkpt>
      <trkpt lat="45.51914" lon="6.14602">
        <ele>405</ele>
        <time>2022-01-02T11:04:39.000Z</time>
      </trkpt>
      <trkpt lat="45.51903" lon="6.14584">
        <ele>405</ele>
        <time>2022-01-02T11:04:43.000Z</time>
      </trkpt>
      <trkpt lat="45.51886" lon="6.14548">
        <ele>404.79998779297</ele>
        <time>2022-01-02T11:04:49.000Z</time>
      </trkpt>
      <trkpt lat="45.51872" lon="6.14517">
        <ele>404</ele>
        <time>2022-01-02T11:04:53.000Z</time>
      </trkpt>
      <trkpt lat="45.51866" lon="6.14505">
        <ele>403.20001220703</ele>
        <time>2022-01-02T11:04:55.000Z</time>
      </trkpt>
      <trkpt lat="45.51865" lon="6.145">
        <ele>403</ele>
        <time>2022-01-02T11:04:56.000Z</time>
      </trkpt>
      <trkpt lat="45.51864" lon="6.14499">
        <ele>402.20001220703</ele>
        <time>2022-01-02T11:04:58.000Z</time>
      </trkpt>
      <trkpt lat="45.51864" lon="6.14499">
        <ele>401.79998779297</ele>
        <time>2022-01-02T11:04:59.000Z</time>
      </trkpt>
      <trkpt lat="45.51864" lon="6.14499">
        <ele>400.79998779297</ele>
        <time>2022-01-02T11:05:14.000Z</time>
      </trkpt>
      <trkpt lat="45.5186" lon="6.14492">
        <ele>400.79998779297</ele>
        <time>2022-01-02T11:05:17.000Z</time>
      </trkpt>
      <trkpt lat="45.51848" lon="6.14472">
        <ele>400.79998779297</ele>
        <time>2022-01-02T11:05:21.000Z</time>
      </trkpt>
      <trkpt lat="45.51836" lon="6.14447">
        <ele>400.79998779297</ele>
        <time>2022-01-02T11:05:25.000Z</time>
      </trkpt>
      <trkpt lat="45.51834" lon="6.1444">
        <ele>400.79998779297</ele>
        <time>2022-01-02T11:05:26.000Z</time>
      </trkpt>
      <trkpt lat="45.51833" lon="6.14431">
        <ele>400.79998779297</ele>
        <time>2022-01-02T11:05:27.000Z</time>
      </trkpt>
      <trkpt lat="45.51829" lon="6.144">
        <ele>400.79998779297</ele>
        <time>2022-01-02T11:05:30.000Z</time>
      </trkpt>
      <trkpt lat="45.51822" lon="6.14377">
        <ele>399.60000610352</ele>
        <time>2022-01-02T11:05:32.000Z</time>
      </trkpt>
      <trkpt lat="45.51814" lon="6.14356">
        <ele>398</ele>
        <time>2022-01-02T11:05:34.000Z</time>
      </trkpt>
      <trkpt lat="45.51804" lon="6.14335">
        <ele>396.60000610352</ele>
        <time>2022-01-02T11:05:36.000Z</time>
      </trkpt>
      <trkpt lat="45.51793" lon="6.14316">
        <ele>394.79998779297</ele>
        <time>2022-01-02T11:05:38.000Z</time>
      </trkpt>
      <trkpt lat="45.51783" lon="6.14294">
        <ele>393.79998779297</ele>
        <time>2022-01-02T11:05:40.000Z</time>
      </trkpt>
      <trkpt lat="45.5177" lon="6.14272">
        <ele>392.20001220703</ele>
        <time>2022-01-02T11:05:42.000Z</time>
      </trkpt>
      <trkpt lat="45.51755" lon="6.14252">
        <ele>390.79998779297</ele>
        <time>2022-01-02T11:05:44.000Z</time>
      </trkpt>
      <trkpt lat="45.51743" lon="6.14233">
        <ele>389.20001220703</ele>
        <time>2022-01-02T11:05:46.000Z</time>
      </trkpt>
      <trkpt lat="45.51734" lon="6.14218">
        <ele>388.39999389648</ele>
        <time>2022-01-02T11:05:48.000Z</time>
      </trkpt>
      <trkpt lat="45.51731" lon="6.1421">
        <ele>388.20001220703</ele>
        <time>2022-01-02T11:05:49.000Z</time>
      </trkpt>
      <trkpt lat="45.51713" lon="6.14174">
        <ele>388</ele>
        <time>2022-01-02T11:05:54.000Z</time>
      </trkpt>
      <trkpt lat="45.51703" lon="6.14153">
        <ele>388.39999389648</ele>
        <time>2022-01-02T11:05:57.000Z</time>
      </trkpt>
      <trkpt lat="45.51699" lon="6.14147">
        <ele>388.39999389648</ele>
        <time>2022-01-02T11:05:58.000Z</time>
      </trkpt>
      <trkpt lat="45.51695" lon="6.14141">
        <ele>388.39999389648</ele>
        <time>2022-01-02T11:05:59.000Z</time>
      </trkpt>
      <trkpt lat="45.51691" lon="6.14134">
        <ele>388.39999389648</ele>
        <time>2022-01-02T11:06:00.000Z</time>
      </trkpt>
      <trkpt lat="45.51685" lon="6.14119">
        <ele>388.60000610352</ele>
        <time>2022-01-02T11:06:02.000Z</time>
      </trkpt>
      <trkpt lat="45.51681" lon="6.14112">
        <ele>388.60000610352</ele>
        <time>2022-01-02T11:06:03.000Z</time>
      </trkpt>
      <trkpt lat="45.51679" lon="6.14105">
        <ele>388.79998779297</ele>
        <time>2022-01-02T11:06:04.000Z</time>
      </trkpt>
      <trkpt lat="45.51674" lon="6.14084">
        <ele>389.20001220703</ele>
        <time>2022-01-02T11:06:07.000Z</time>
      </trkpt>
      <trkpt lat="45.51673" lon="6.14076">
        <ele>389.20001220703</ele>
        <time>2022-01-02T11:06:08.000Z</time>
      </trkpt>
      <trkpt lat="45.51669" lon="6.14062">
        <ele>389.39999389648</ele>
        <time>2022-01-02T11:06:10.000Z</time>
      </trkpt>
      <trkpt lat="45.51663" lon="6.14053">
        <ele>389.60000610352</ele>
        <time>2022-01-02T11:06:12.000Z</time>
      </trkpt>
      <trkpt lat="45.51654" lon="6.14042">
        <ele>390.20001220703</ele>
        <time>2022-01-02T11:06:15.000Z</time>
      </trkpt>
      <trkpt lat="45.5165" lon="6.14039">
        <ele>390.39999389648</ele>
        <time>2022-01-02T11:06:16.000Z</time>
      </trkpt>
      <trkpt lat="45.51633" lon="6.14022">
        <ele>391.60000610352</ele>
        <time>2022-01-02T11:06:21.000Z</time>
      </trkpt>
      <trkpt lat="45.51617" lon="6.14007">
        <ele>393</ele>
        <time>2022-01-02T11:06:26.000Z</time>
      </trkpt>
      <trkpt lat="45.51611" lon="6.14001">
        <ele>393.60000610352</ele>
        <time>2022-01-02T11:06:28.000Z</time>
      </trkpt>
      <trkpt lat="45.51601" lon="6.13991">
        <ele>394.20001220703</ele>
        <time>2022-01-02T11:06:31.000Z</time>
      </trkpt>
      <trkpt lat="45.51587" lon="6.13975">
        <ele>395.20001220703</ele>
        <time>2022-01-02T11:06:36.000Z</time>
      </trkpt>
      <trkpt lat="45.51585" lon="6.13972">
        <ele>395.39999389648</ele>
        <time>2022-01-02T11:06:37.000Z</time>
      </trkpt>
      <trkpt lat="45.51575" lon="6.13957">
        <ele>396.39999389648</ele>
        <time>2022-01-02T11:06:41.000Z</time>
      </trkpt>
      <trkpt lat="45.51561" lon="6.13938">
        <ele>397.20001220703</ele>
        <time>2022-01-02T11:06:46.000Z</time>
      </trkpt>
      <trkpt lat="45.51555" lon="6.13931">
        <ele>397.39999389648</ele>
        <time>2022-01-02T11:06:48.000Z</time>
      </trkpt>
      <trkpt lat="45.5153" lon="6.13903">
        <ele>398.39999389648</ele>
        <time>2022-01-02T11:06:56.000Z</time>
      </trkpt>
      <trkpt lat="45.51527" lon="6.13901">
        <ele>398.60000610352</ele>
        <time>2022-01-02T11:06:57.000Z</time>
      </trkpt>
      <trkpt lat="45.51515" lon="6.139">
        <ele>399</ele>
        <time>2022-01-02T11:07:00.000Z</time>
      </trkpt>
      <trkpt lat="45.51496" lon="6.139">
        <ele>399.60000610352</ele>
        <time>2022-01-02T11:07:05.000Z</time>
      </trkpt>
      <trkpt lat="45.51481" lon="6.13886">
        <ele>400.60000610352</ele>
        <time>2022-01-02T11:07:10.000Z</time>
      </trkpt>
      <trkpt lat="45.51479" lon="6.13882">
        <ele>400.79998779297</ele>
        <time>2022-01-02T11:07:11.000Z</time>
      </trkpt>
      <trkpt lat="45.51461" lon="6.13857">
        <ele>401.60000610352</ele>
        <time>2022-01-02T11:07:18.000Z</time>
      </trkpt>
      <trkpt lat="45.51457" lon="6.13855">
        <ele>401.79998779297</ele>
        <time>2022-01-02T11:07:20.000Z</time>
      </trkpt>
      <trkpt lat="45.51453" lon="6.13858">
        <ele>401.79998779297</ele>
        <time>2022-01-02T11:07:22.000Z</time>
      </trkpt>
      <trkpt lat="45.5145" lon="6.13861">
        <ele>401.79998779297</ele>
        <time>2022-01-02T11:07:23.000Z</time>
      </trkpt>
      <trkpt lat="45.51441" lon="6.13873">
        <ele>402</ele>
        <time>2022-01-02T11:07:26.000Z</time>
      </trkpt>
      <trkpt lat="45.51414" lon="6.13901">
        <ele>402.60000610352</ele>
        <time>2022-01-02T11:07:34.000Z</time>
      </trkpt>
      <trkpt lat="45.51411" lon="6.13904">
        <ele>402.79998779297</ele>
        <time>2022-01-02T11:07:35.000Z</time>
      </trkpt>
      <trkpt lat="45.51402" lon="6.13915">
        <ele>403.39999389648</ele>
        <time>2022-01-02T11:07:38.000Z</time>
      </trkpt>
      <trkpt lat="45.51395" lon="6.13922">
        <ele>404</ele>
        <time>2022-01-02T11:07:40.000Z</time>
      </trkpt>
      <trkpt lat="45.51393" lon="6.13925">
        <ele>404.20001220703</ele>
        <time>2022-01-02T11:07:41.000Z</time>
      </trkpt>
      <trkpt lat="45.51381" lon="6.13939">
        <ele>405.20001220703</ele>
        <time>2022-01-02T11:07:45.000Z</time>
      </trkpt>
      <trkpt lat="45.51375" lon="6.13941">
        <ele>405.60000610352</ele>
        <time>2022-01-02T11:07:47.000Z</time>
      </trkpt>
      <trkpt lat="45.51373" lon="6.1394">
        <ele>406</ele>
        <time>2022-01-02T11:07:48.000Z</time>
      </trkpt>
      <trkpt lat="45.51369" lon="6.13932">
        <ele>406.39999389648</ele>
        <time>2022-01-02T11:07:50.000Z</time>
      </trkpt>
      <trkpt lat="45.51364" lon="6.13922">
        <ele>406.39999389648</ele>
        <time>2022-01-02T11:07:52.000Z</time>
      </trkpt>
      <trkpt lat="45.51349" lon="6.13889">
        <ele>406.60000610352</ele>
        <time>2022-01-02T11:07:57.000Z</time>
      </trkpt>
      <trkpt lat="45.51325" lon="6.13853">
        <ele>405.39999389648</ele>
        <time>2022-01-02T11:08:02.000Z</time>
      </trkpt>
      <trkpt lat="45.51306" lon="6.13832">
        <ele>403.79998779297</ele>
        <time>2022-01-02T11:08:05.000Z</time>
      </trkpt>
      <trkpt lat="45.51292" lon="6.13815">
        <ele>403.20001220703</ele>
        <time>2022-01-02T11:08:07.000Z</time>
      </trkpt>
      <trkpt lat="45.5128" lon="6.13797">
        <ele>402.39999389648</ele>
        <time>2022-01-02T11:08:09.000Z</time>
      </trkpt>
      <trkpt lat="45.5127" lon="6.1378">
        <ele>401.39999389648</ele>
        <time>2022-01-02T11:08:11.000Z</time>
      </trkpt>
      <trkpt lat="45.51263" lon="6.13769">
        <ele>400.60000610352</ele>
        <time>2022-01-02T11:08:12.000Z</time>
      </trkpt>
      <trkpt lat="45.51253" lon="6.13752">
        <ele>399.39999389648</ele>
        <time>2022-01-02T11:08:14.000Z</time>
      </trkpt>
      <trkpt lat="45.51242" lon="6.13735">
        <ele>398.39999389648</ele>
        <time>2022-01-02T11:08:16.000Z</time>
      </trkpt>
      <trkpt lat="45.5123" lon="6.13719">
        <ele>397.20001220703</ele>
        <time>2022-01-02T11:08:18.000Z</time>
      </trkpt>
      <trkpt lat="45.51217" lon="6.13703">
        <ele>395</ele>
        <time>2022-01-02T11:08:20.000Z</time>
      </trkpt>
      <trkpt lat="45.51211" lon="6.13695">
        <ele>394.60000610352</ele>
        <time>2022-01-02T11:08:21.000Z</time>
      </trkpt>
      <trkpt lat="45.51201" lon="6.13678">
        <ele>394.20001220703</ele>
        <time>2022-01-02T11:08:23.000Z</time>
      </trkpt>
      <trkpt lat="45.51197" lon="6.1367">
        <ele>394</ele>
        <time>2022-01-02T11:08:24.000Z</time>
      </trkpt>
      <trkpt lat="45.51181" lon="6.13644">
        <ele>393.39999389648</ele>
        <time>2022-01-02T11:08:28.000Z</time>
      </trkpt>
      <trkpt lat="45.51156" lon="6.13617">
        <ele>394</ele>
        <time>2022-01-02T11:08:34.000Z</time>
      </trkpt>
      <trkpt lat="45.51132" lon="6.13591">
        <ele>395</ele>
        <time>2022-01-02T11:08:40.000Z</time>
      </trkpt>
      <trkpt lat="45.51125" lon="6.13581">
        <ele>395.39999389648</ele>
        <time>2022-01-02T11:08:42.000Z</time>
      </trkpt>
      <trkpt lat="45.51116" lon="6.13564">
        <ele>396</ele>
        <time>2022-01-02T11:08:45.000Z</time>
      </trkpt>
      <trkpt lat="45.51111" lon="6.13554">
        <ele>396.60000610352</ele>
        <time>2022-01-02T11:08:47.000Z</time>
      </trkpt>
      <trkpt lat="45.51099" lon="6.13529">
        <ele>397</ele>
        <time>2022-01-02T11:08:51.000Z</time>
      </trkpt>
      <trkpt lat="45.51092" lon="6.13515">
        <ele>397.39999389648</ele>
        <time>2022-01-02T11:08:54.000Z</time>
      </trkpt>
      <trkpt lat="45.51091" lon="6.13512">
        <ele>397.39999389648</ele>
        <time>2022-01-02T11:08:57.000Z</time>
      </trkpt>
      <trkpt lat="45.51091" lon="6.13512">
        <ele>397.20001220703</ele>
        <time>2022-01-02T11:09:05.000Z</time>
      </trkpt>
      <trkpt lat="45.51087" lon="6.13504">
        <ele>397</ele>
        <time>2022-01-02T11:09:12.000Z</time>
      </trkpt>
      <trkpt lat="45.51076" lon="6.13484">
        <ele>397.20001220703</ele>
        <time>2022-01-02T11:09:17.000Z</time>
      </trkpt>
      <trkpt lat="45.51057" lon="6.13451">
        <ele>397.60000610352</ele>
        <time>2022-01-02T11:09:24.000Z</time>
      </trkpt>
      <trkpt lat="45.51037" lon="6.13416">
        <ele>398.60000610352</ele>
        <time>2022-01-02T11:09:31.000Z</time>
      </trkpt>
      <trkpt lat="45.51031" lon="6.13405">
        <ele>398.79998779297</ele>
        <time>2022-01-02T11:09:33.000Z</time>
      </trkpt>
      <trkpt lat="45.51022" lon="6.13383">
        <ele>399.39999389648</ele>
        <time>2022-01-02T11:09:37.000Z</time>
      </trkpt>
      <trkpt lat="45.51017" lon="6.13372">
        <ele>399.60000610352</ele>
        <time>2022-01-02T11:09:39.000Z</time>
      </trkpt>
      <trkpt lat="45.51015" lon="6.13366">
        <ele>400</ele>
        <time>2022-01-02T11:09:40.000Z</time>
      </trkpt>
      <trkpt lat="45.51004" lon="6.13344">
        <ele>400.79998779297</ele>
        <time>2022-01-02T11:09:44.000Z</time>
      </trkpt>
      <trkpt lat="45.51" lon="6.13338">
        <ele>401</ele>
        <time>2022-01-02T11:09:45.000Z</time>
      </trkpt>
      <trkpt lat="45.50997" lon="6.13333">
        <ele>401.20001220703</ele>
        <time>2022-01-02T11:09:46.000Z</time>
      </trkpt>
      <trkpt lat="45.50986" lon="6.13311">
        <ele>402</ele>
        <time>2022-01-02T11:09:50.000Z</time>
      </trkpt>
      <trkpt lat="45.50983" lon="6.13304">
        <ele>402.20001220703</ele>
        <time>2022-01-02T11:09:51.000Z</time>
      </trkpt>
      <trkpt lat="45.5098" lon="6.13289">
        <ele>402.60000610352</ele>
        <time>2022-01-02T11:09:53.000Z</time>
      </trkpt>
      <trkpt lat="45.50978" lon="6.13281">
        <ele>402.79998779297</ele>
        <time>2022-01-02T11:09:54.000Z</time>
      </trkpt>
      <trkpt lat="45.50974" lon="6.13268">
        <ele>403.20001220703</ele>
        <time>2022-01-02T11:09:56.000Z</time>
      </trkpt>
      <trkpt lat="45.50972" lon="6.13262">
        <ele>403.39999389648</ele>
        <time>2022-01-02T11:09:57.000Z</time>
      </trkpt>
      <trkpt lat="45.50967" lon="6.1325">
        <ele>403.79998779297</ele>
        <time>2022-01-02T11:09:59.000Z</time>
      </trkpt>
      <trkpt lat="45.5096" lon="6.13238">
        <ele>404.20001220703</ele>
        <time>2022-01-02T11:10:01.000Z</time>
      </trkpt>
      <trkpt lat="45.50952" lon="6.13228">
        <ele>404.60000610352</ele>
        <time>2022-01-02T11:10:03.000Z</time>
      </trkpt>
      <trkpt lat="45.50942" lon="6.13217">
        <ele>405.20001220703</ele>
        <time>2022-01-02T11:10:06.000Z</time>
      </trkpt>
      <trkpt lat="45.50929" lon="6.13202">
        <ele>406.39999389648</ele>
        <time>2022-01-02T11:10:10.000Z</time>
      </trkpt>
      <trkpt lat="45.50925" lon="6.13199">
        <ele>406.39999389648</ele>
        <time>2022-01-02T11:10:11.000Z</time>
      </trkpt>
      <trkpt lat="45.50914" lon="6.1319">
        <ele>406.79998779297</ele>
        <time>2022-01-02T11:10:14.000Z</time>
      </trkpt>
      <trkpt lat="45.50896" lon="6.13181">
        <ele>407</ele>
        <time>2022-01-02T11:10:18.000Z</time>
      </trkpt>
      <trkpt lat="45.50856" lon="6.13169">
        <ele>407</ele>
        <time>2022-01-02T11:10:26.000Z</time>
      </trkpt>
      <trkpt lat="45.50824" lon="6.13163">
        <ele>406.79998779297</ele>
        <time>2022-01-02T11:10:32.000Z</time>
      </trkpt>
      <trkpt lat="45.50815" lon="6.13164">
        <ele>406.79998779297</ele>
        <time>2022-01-02T11:10:34.000Z</time>
      </trkpt>
      <trkpt lat="45.50809" lon="6.13166">
        <ele>406.60000610352</ele>
        <time>2022-01-02T11:10:35.000Z</time>
      </trkpt>
      <trkpt lat="45.50789" lon="6.13175">
        <ele>406.60000610352</ele>
        <time>2022-01-02T11:10:39.000Z</time>
      </trkpt>
      <trkpt lat="45.50764" lon="6.13187">
        <ele>406.60000610352</ele>
        <time>2022-01-02T11:10:44.000Z</time>
      </trkpt>
      <trkpt lat="45.50753" lon="6.1319">
        <ele>406.60000610352</ele>
        <time>2022-01-02T11:10:46.000Z</time>
      </trkpt>
      <trkpt lat="45.50731" lon="6.13188">
        <ele>406.79998779297</ele>
        <time>2022-01-02T11:10:50.000Z</time>
      </trkpt>
      <trkpt lat="45.50721" lon="6.13184">
        <ele>406.79998779297</ele>
        <time>2022-01-02T11:10:52.000Z</time>
      </trkpt>
      <trkpt lat="45.50677" lon="6.13163">
        <ele>406.60000610352</ele>
        <time>2022-01-02T11:11:00.000Z</time>
      </trkpt>
      <trkpt lat="45.50625" lon="6.13133">
        <ele>406.60000610352</ele>
        <time>2022-01-02T11:11:10.000Z</time>
      </trkpt>
      <trkpt lat="45.5062" lon="6.13129">
        <ele>406.60000610352</ele>
        <time>2022-01-02T11:11:11.000Z</time>
      </trkpt>
      <trkpt lat="45.50615" lon="6.13125">
        <ele>406.60000610352</ele>
        <time>2022-01-02T11:11:12.000Z</time>
      </trkpt>
      <trkpt lat="45.50603" lon="6.13105">
        <ele>406.60000610352</ele>
        <time>2022-01-02T11:11:15.000Z</time>
      </trkpt>
      <trkpt lat="45.50583" lon="6.13059">
        <ele>406.39999389648</ele>
        <time>2022-01-02T11:11:21.000Z</time>
      </trkpt>
      <trkpt lat="45.50562" lon="6.13008">
        <ele>405.79998779297</ele>
        <time>2022-01-02T11:11:28.000Z</time>
      </trkpt>
      <trkpt lat="45.50535" lon="6.12943">
        <ele>405.60000610352</ele>
        <time>2022-01-02T11:11:37.000Z</time>
      </trkpt>
      <trkpt lat="45.50509" lon="6.12878">
        <ele>406</ele>
        <time>2022-01-02T11:11:47.000Z</time>
      </trkpt>
      <trkpt lat="45.50493" lon="6.12824">
        <ele>406.20001220703</ele>
        <time>2022-01-02T11:11:54.000Z</time>
      </trkpt>
      <trkpt lat="45.50492" lon="6.12815">
        <ele>406</ele>
        <time>2022-01-02T11:11:55.000Z</time>
      </trkpt>
      <trkpt lat="45.50487" lon="6.1279">
        <ele>405.79998779297</ele>
        <time>2022-01-02T11:11:58.000Z</time>
      </trkpt>
      <trkpt lat="45.50484" lon="6.12781">
        <ele>405.39999389648</ele>
        <time>2022-01-02T11:11:59.000Z</time>
      </trkpt>
      <trkpt lat="45.50481" lon="6.12773">
        <ele>405</ele>
        <time>2022-01-02T11:12:00.000Z</time>
      </trkpt>
      <trkpt lat="45.50466" lon="6.12751">
        <ele>404.39999389648</ele>
        <time>2022-01-02T11:12:03.000Z</time>
      </trkpt>
      <trkpt lat="45.50456" lon="6.12738">
        <ele>403.39999389648</ele>
        <time>2022-01-02T11:12:05.000Z</time>
      </trkpt>
      <trkpt lat="45.5044" lon="6.12713">
        <ele>402</ele>
        <time>2022-01-02T11:12:08.000Z</time>
      </trkpt>
      <trkpt lat="45.50431" lon="6.12696">
        <ele>401.20001220703</ele>
        <time>2022-01-02T11:12:10.000Z</time>
      </trkpt>
      <trkpt lat="45.50427" lon="6.12686">
        <ele>400.39999389648</ele>
        <time>2022-01-02T11:12:11.000Z</time>
      </trkpt>
      <trkpt lat="45.50416" lon="6.12655">
        <ele>399.20001220703</ele>
        <time>2022-01-02T11:12:14.000Z</time>
      </trkpt>
      <trkpt lat="45.50408" lon="6.12635">
        <ele>398.39999389648</ele>
        <time>2022-01-02T11:12:16.000Z</time>
      </trkpt>
      <trkpt lat="45.50403" lon="6.12624">
        <ele>398.20001220703</ele>
        <time>2022-01-02T11:12:17.000Z</time>
      </trkpt>
      <trkpt lat="45.50394" lon="6.12606">
        <ele>396.79998779297</ele>
        <time>2022-01-02T11:12:19.000Z</time>
      </trkpt>
      <trkpt lat="45.50377" lon="6.12576">
        <ele>396</ele>
        <time>2022-01-02T11:12:22.000Z</time>
      </trkpt>
      <trkpt lat="45.50372" lon="6.12568">
        <ele>395.60000610352</ele>
        <time>2022-01-02T11:12:23.000Z</time>
      </trkpt>
      <trkpt lat="45.50355" lon="6.12545">
        <ele>394.39999389648</ele>
        <time>2022-01-02T11:12:26.000Z</time>
      </trkpt>
      <trkpt lat="45.5035" lon="6.12537">
        <ele>394.20001220703</ele>
        <time>2022-01-02T11:12:27.000Z</time>
      </trkpt>
      <trkpt lat="45.5033" lon="6.12509">
        <ele>393.39999389648</ele>
        <time>2022-01-02T11:12:31.000Z</time>
      </trkpt>
      <trkpt lat="45.50325" lon="6.12501">
        <ele>393.20001220703</ele>
        <time>2022-01-02T11:12:32.000Z</time>
      </trkpt>
      <trkpt lat="45.50322" lon="6.12494">
        <ele>392.79998779297</ele>
        <time>2022-01-02T11:12:33.000Z</time>
      </trkpt>
      <trkpt lat="45.50315" lon="6.12478">
        <ele>392.39999389648</ele>
        <time>2022-01-02T11:12:35.000Z</time>
      </trkpt>
      <trkpt lat="45.50303" lon="6.12445">
        <ele>392</ele>
        <time>2022-01-02T11:12:39.000Z</time>
      </trkpt>
      <trkpt lat="45.50287" lon="6.12405">
        <ele>391.20001220703</ele>
        <time>2022-01-02T11:12:44.000Z</time>
      </trkpt>
      <trkpt lat="45.50278" lon="6.12378">
        <ele>390.60000610352</ele>
        <time>2022-01-02T11:12:47.000Z</time>
      </trkpt>
      <trkpt lat="45.50273" lon="6.12361">
        <ele>390.20001220703</ele>
        <time>2022-01-02T11:12:49.000Z</time>
      </trkpt>
      <trkpt lat="45.50268" lon="6.12337">
        <ele>389.20001220703</ele>
        <time>2022-01-02T11:12:51.000Z</time>
      </trkpt>
      <trkpt lat="45.50262" lon="6.12292">
        <ele>387.79998779297</ele>
        <time>2022-01-02T11:12:55.000Z</time>
      </trkpt>
      <trkpt lat="45.5026" lon="6.12281">
        <ele>387.60000610352</ele>
        <time>2022-01-02T11:12:56.000Z</time>
      </trkpt>
      <trkpt lat="45.50256" lon="6.12269">
        <ele>386.79998779297</ele>
        <time>2022-01-02T11:12:57.000Z</time>
      </trkpt>
      <trkpt lat="45.50252" lon="6.12261">
        <ele>386</ele>
        <time>2022-01-02T11:12:58.000Z</time>
      </trkpt>
      <trkpt lat="45.5024" lon="6.12238">
        <ele>385</ele>
        <time>2022-01-02T11:13:00.000Z</time>
      </trkpt>
      <trkpt lat="45.50234" lon="6.12228">
        <ele>384.39999389648</ele>
        <time>2022-01-02T11:13:01.000Z</time>
      </trkpt>
      <trkpt lat="45.50223" lon="6.12209">
        <ele>383.79998779297</ele>
        <time>2022-01-02T11:13:03.000Z</time>
      </trkpt>
      <trkpt lat="45.50209" lon="6.12188">
        <ele>382.39999389648</ele>
        <time>2022-01-02T11:13:05.000Z</time>
      </trkpt>
      <trkpt lat="45.50202" lon="6.1218">
        <ele>381.79998779297</ele>
        <time>2022-01-02T11:13:06.000Z</time>
      </trkpt>
      <trkpt lat="45.50194" lon="6.12172">
        <ele>381.20001220703</ele>
        <time>2022-01-02T11:13:07.000Z</time>
      </trkpt>
      <trkpt lat="45.5018" lon="6.1216">
        <ele>380</ele>
        <time>2022-01-02T11:13:09.000Z</time>
      </trkpt>
      <trkpt lat="45.50155" lon="6.12141">
        <ele>378.60000610352</ele>
        <time>2022-01-02T11:13:12.000Z</time>
      </trkpt>
      <trkpt lat="45.50147" lon="6.12136">
        <ele>378.20001220703</ele>
        <time>2022-01-02T11:13:13.000Z</time>
      </trkpt>
      <trkpt lat="45.50132" lon="6.12125">
        <ele>377.39999389648</ele>
        <time>2022-01-02T11:13:15.000Z</time>
      </trkpt>
      <trkpt lat="45.50106" lon="6.12106">
        <ele>376.20001220703</ele>
        <time>2022-01-02T11:13:19.000Z</time>
      </trkpt>
      <trkpt lat="45.5007" lon="6.12083">
        <ele>375.60000610352</ele>
        <time>2022-01-02T11:13:25.000Z</time>
      </trkpt>
      <trkpt lat="45.50039" lon="6.12063">
        <ele>375.79998779297</ele>
        <time>2022-01-02T11:13:31.000Z</time>
      </trkpt>
      <trkpt lat="45.50029" lon="6.12058">
        <ele>376</ele>
        <time>2022-01-02T11:13:33.000Z</time>
      </trkpt>
      <trkpt lat="45.50009" lon="6.12048">
        <ele>376.60000610352</ele>
        <time>2022-01-02T11:13:37.000Z</time>
      </trkpt>
      <trkpt lat="45.49993" lon="6.12038">
        <ele>376.79998779297</ele>
        <time>2022-01-02T11:13:40.000Z</time>
      </trkpt>
      <trkpt lat="45.49985" lon="6.1203">
        <ele>376.79998779297</ele>
        <time>2022-01-02T11:13:42.000Z</time>
      </trkpt>
      <trkpt lat="45.4998" lon="6.12023">
        <ele>376.79998779297</ele>
        <time>2022-01-02T11:13:43.000Z</time>
      </trkpt>
      <trkpt lat="45.49969" lon="6.12004">
        <ele>376.79998779297</ele>
        <time>2022-01-02T11:13:46.000Z</time>
      </trkpt>
      <trkpt lat="45.49943" lon="6.11961">
        <ele>376.20001220703</ele>
        <time>2022-01-02T11:13:52.000Z</time>
      </trkpt>
      <trkpt lat="45.49936" lon="6.11953">
        <ele>376.20001220703</ele>
        <time>2022-01-02T11:13:53.000Z</time>
      </trkpt>
      <trkpt lat="45.49924" lon="6.11943">
        <ele>375.39999389648</ele>
        <time>2022-01-02T11:13:55.000Z</time>
      </trkpt>
      <trkpt lat="45.49918" lon="6.1194">
        <ele>375.20001220703</ele>
        <time>2022-01-02T11:13:56.000Z</time>
      </trkpt>
      <trkpt lat="45.4991" lon="6.11936">
        <ele>374.79998779297</ele>
        <time>2022-01-02T11:13:57.000Z</time>
      </trkpt>
      <trkpt lat="45.49884" lon="6.1192">
        <ele>373.60000610352</ele>
        <time>2022-01-02T11:14:00.000Z</time>
      </trkpt>
      <trkpt lat="45.49878" lon="6.11914">
        <ele>373.39999389648</ele>
        <time>2022-01-02T11:14:01.000Z</time>
      </trkpt>
      <trkpt lat="45.49863" lon="6.11895">
        <ele>372.79998779297</ele>
        <time>2022-01-02T11:14:03.000Z</time>
      </trkpt>
      <trkpt lat="45.49858" lon="6.11884">
        <ele>372</ele>
        <time>2022-01-02T11:14:04.000Z</time>
      </trkpt>
      <trkpt lat="45.49854" lon="6.11874">
        <ele>371.39999389648</ele>
        <time>2022-01-02T11:14:05.000Z</time>
      </trkpt>
      <trkpt lat="45.49847" lon="6.11853">
        <ele>370.79998779297</ele>
        <time>2022-01-02T11:14:07.000Z</time>
      </trkpt>
      <trkpt lat="45.49839" lon="6.11826">
        <ele>370.60000610352</ele>
        <time>2022-01-02T11:14:10.000Z</time>
      </trkpt>
      <trkpt lat="45.49831" lon="6.11803">
        <ele>370.20001220703</ele>
        <time>2022-01-02T11:14:13.000Z</time>
      </trkpt>
      <trkpt lat="45.49824" lon="6.11787">
        <ele>370</ele>
        <time>2022-01-02T11:14:15.000Z</time>
      </trkpt>
      <trkpt lat="45.49817" lon="6.11771">
        <ele>369.79998779297</ele>
        <time>2022-01-02T11:14:17.000Z</time>
      </trkpt>
      <trkpt lat="45.498" lon="6.11738">
        <ele>369.60000610352</ele>
        <time>2022-01-02T11:14:21.000Z</time>
      </trkpt>
      <trkpt lat="45.49785" lon="6.11712">
        <ele>368.60000610352</ele>
        <time>2022-01-02T11:14:24.000Z</time>
      </trkpt>
      <trkpt lat="45.49763" lon="6.11682">
        <ele>367.79998779297</ele>
        <time>2022-01-02T11:14:28.000Z</time>
      </trkpt>
      <trkpt lat="45.49744" lon="6.11662">
        <ele>366.60000610352</ele>
        <time>2022-01-02T11:14:31.000Z</time>
      </trkpt>
      <trkpt lat="45.49719" lon="6.11635">
        <ele>365.79998779297</ele>
        <time>2022-01-02T11:14:35.000Z</time>
      </trkpt>
      <trkpt lat="45.49712" lon="6.11626">
        <ele>365.60000610352</ele>
        <time>2022-01-02T11:14:36.000Z</time>
      </trkpt>
      <trkpt lat="45.49693" lon="6.11605">
        <ele>364.60000610352</ele>
        <time>2022-01-02T11:14:39.000Z</time>
      </trkpt>
      <trkpt lat="45.49675" lon="6.11585">
        <ele>363.60000610352</ele>
        <time>2022-01-02T11:14:42.000Z</time>
      </trkpt>
      <trkpt lat="45.4967" lon="6.11578">
        <ele>363.60000610352</ele>
        <time>2022-01-02T11:14:43.000Z</time>
      </trkpt>
      <trkpt lat="45.49635" lon="6.11538">
        <ele>363.39999389648</ele>
        <time>2022-01-02T11:14:50.000Z</time>
      </trkpt>
      <trkpt lat="45.49611" lon="6.1151">
        <ele>363.79998779297</ele>
        <time>2022-01-02T11:14:55.000Z</time>
      </trkpt>
      <trkpt lat="45.49607" lon="6.11505">
        <ele>363.79998779297</ele>
        <time>2022-01-02T11:14:56.000Z</time>
      </trkpt>
      <trkpt lat="45.49584" lon="6.1148">
        <ele>364.60000610352</ele>
        <time>2022-01-02T11:15:01.000Z</time>
      </trkpt>
      <trkpt lat="45.49572" lon="6.11464">
        <ele>365.20001220703</ele>
        <time>2022-01-02T11:15:04.000Z</time>
      </trkpt>
      <trkpt lat="45.49561" lon="6.11446">
        <ele>365.79998779297</ele>
        <time>2022-01-02T11:15:07.000Z</time>
      </trkpt>
      <trkpt lat="45.49546" lon="6.11423">
        <ele>366.60000610352</ele>
        <time>2022-01-02T11:15:11.000Z</time>
      </trkpt>
      <trkpt lat="45.49542" lon="6.11417">
        <ele>366.79998779297</ele>
        <time>2022-01-02T11:15:12.000Z</time>
      </trkpt>
      <trkpt lat="45.49539" lon="6.1141">
        <ele>366.79998779297</ele>
        <time>2022-01-02T11:15:13.000Z</time>
      </trkpt>
      <trkpt lat="45.49524" lon="6.11387">
        <ele>367.79998779297</ele>
        <time>2022-01-02T11:15:17.000Z</time>
      </trkpt>
      <trkpt lat="45.49521" lon="6.11381">
        <ele>367.79998779297</ele>
        <time>2022-01-02T11:15:18.000Z</time>
      </trkpt>
      <trkpt lat="45.49506" lon="6.11358">
        <ele>369</ele>
        <time>2022-01-02T11:15:22.000Z</time>
      </trkpt>
      <trkpt lat="45.49492" lon="6.11335">
        <ele>370</ele>
        <time>2022-01-02T11:15:26.000Z</time>
      </trkpt>
      <trkpt lat="45.49488" lon="6.11329">
        <ele>370</ele>
        <time>2022-01-02T11:15:27.000Z</time>
      </trkpt>
      <trkpt lat="45.49458" lon="6.11278">
        <ele>371</ele>
        <time>2022-01-02T11:15:36.000Z</time>
      </trkpt>
      <trkpt lat="45.49437" lon="6.11245">
        <ele>371.79998779297</ele>
        <time>2022-01-02T11:15:42.000Z</time>
      </trkpt>
      <trkpt lat="45.49425" lon="6.11228">
        <ele>372</ele>
        <time>2022-01-02T11:15:45.000Z</time>
      </trkpt>
      <trkpt lat="45.49422" lon="6.11223">
        <ele>372.20001220703</ele>
        <time>2022-01-02T11:15:46.000Z</time>
      </trkpt>
      <trkpt lat="45.49396" lon="6.11193">
        <ele>372.39999389648</ele>
        <time>2022-01-02T11:15:52.000Z</time>
      </trkpt>
      <trkpt lat="45.49367" lon="6.1116">
        <ele>373</ele>
        <time>2022-01-02T11:15:59.000Z</time>
      </trkpt>
      <trkpt lat="45.4935" lon="6.11142">
        <ele>373.39999389648</ele>
        <time>2022-01-02T11:16:03.000Z</time>
      </trkpt>
      <trkpt lat="45.49343" lon="6.11133">
        <ele>373.79998779297</ele>
        <time>2022-01-02T11:16:05.000Z</time>
      </trkpt>
      <trkpt lat="45.49332" lon="6.11119">
        <ele>374.20001220703</ele>
        <time>2022-01-02T11:16:08.000Z</time>
      </trkpt>
      <trkpt lat="45.49323" lon="6.1111">
        <ele>374.60000610352</ele>
        <time>2022-01-02T11:16:10.000Z</time>
      </trkpt>
      <trkpt lat="45.49303" lon="6.11088">
        <ele>376</ele>
        <time>2022-01-02T11:16:15.000Z</time>
      </trkpt>
      <trkpt lat="45.493" lon="6.11085">
        <ele>376.20001220703</ele>
        <time>2022-01-02T11:16:16.000Z</time>
      </trkpt>
      <trkpt lat="45.4928" lon="6.11064">
        <ele>377.20001220703</ele>
        <time>2022-01-02T11:16:21.000Z</time>
      </trkpt>
      <trkpt lat="45.49276" lon="6.11059">
        <ele>377.39999389648</ele>
        <time>2022-01-02T11:16:22.000Z</time>
      </trkpt>
      <trkpt lat="45.4926" lon="6.11044">
        <ele>378.39999389648</ele>
        <time>2022-01-02T11:16:26.000Z</time>
      </trkpt>
      <trkpt lat="45.49256" lon="6.1104">
        <ele>378.60000610352</ele>
        <time>2022-01-02T11:16:27.000Z</time>
      </trkpt>
      <trkpt lat="45.49248" lon="6.11031">
        <ele>379.20001220703</ele>
        <time>2022-01-02T11:16:29.000Z</time>
      </trkpt>
      <trkpt lat="45.49245" lon="6.11028">
        <ele>379.39999389648</ele>
        <time>2022-01-02T11:16:30.000Z</time>
      </trkpt>
      <trkpt lat="45.49234" lon="6.11014">
        <ele>380.60000610352</ele>
        <time>2022-01-02T11:16:33.000Z</time>
      </trkpt>
      <trkpt lat="45.49231" lon="6.1101">
        <ele>380.79998779297</ele>
        <time>2022-01-02T11:16:34.000Z</time>
      </trkpt>
      <trkpt lat="45.49225" lon="6.11001">
        <ele>381.60000610352</ele>
        <time>2022-01-02T11:16:36.000Z</time>
      </trkpt>
      <trkpt lat="45.49209" lon="6.10979">
        <ele>381.79998779297</ele>
        <time>2022-01-02T11:16:40.000Z</time>
      </trkpt>
      <trkpt lat="45.49205" lon="6.10974">
        <ele>381.79998779297</ele>
        <time>2022-01-02T11:16:41.000Z</time>
      </trkpt>
      <trkpt lat="45.49169" lon="6.10942">
        <ele>381.60000610352</ele>
        <time>2022-01-02T11:16:48.000Z</time>
      </trkpt>
      <trkpt lat="45.49121" lon="6.1089">
        <ele>381</ele>
        <time>2022-01-02T11:16:58.000Z</time>
      </trkpt>
      <trkpt lat="45.49117" lon="6.10885">
        <ele>380.79998779297</ele>
        <time>2022-01-02T11:16:59.000Z</time>
      </trkpt>
      <trkpt lat="45.49106" lon="6.10872">
        <ele>380.39999389648</ele>
        <time>2022-01-02T11:17:01.000Z</time>
      </trkpt>
      <trkpt lat="45.49087" lon="6.10845">
        <ele>379.79998779297</ele>
        <time>2022-01-02T11:17:05.000Z</time>
      </trkpt>
      <trkpt lat="45.49072" lon="6.10823">
        <ele>378.79998779297</ele>
        <time>2022-01-02T11:17:08.000Z</time>
      </trkpt>
      <trkpt lat="45.49055" lon="6.10803">
        <ele>378</ele>
        <time>2022-01-02T11:17:11.000Z</time>
      </trkpt>
      <trkpt lat="45.49044" lon="6.10792">
        <ele>377.60000610352</ele>
        <time>2022-01-02T11:17:13.000Z</time>
      </trkpt>
      <trkpt lat="45.49019" lon="6.10766">
        <ele>377.39999389648</ele>
        <time>2022-01-02T11:17:18.000Z</time>
      </trkpt>
      <trkpt lat="45.49" lon="6.10736">
        <ele>377.60000610352</ele>
        <time>2022-01-02T11:17:23.000Z</time>
      </trkpt>
      <trkpt lat="45.48976" lon="6.10696">
        <ele>378.39999389648</ele>
        <time>2022-01-02T11:17:30.000Z</time>
      </trkpt>
      <trkpt lat="45.48943" lon="6.10654">
        <ele>378.79998779297</ele>
        <time>2022-01-02T11:17:38.000Z</time>
      </trkpt>
      <trkpt lat="45.48913" lon="6.10617">
        <ele>378.60000610352</ele>
        <time>2022-01-02T11:17:45.000Z</time>
      </trkpt>
      <trkpt lat="45.48907" lon="6.10611">
        <ele>378.60000610352</ele>
        <time>2022-01-02T11:17:46.000Z</time>
      </trkpt>
      <trkpt lat="45.48884" lon="6.10584">
        <ele>378.20001220703</ele>
        <time>2022-01-02T11:17:51.000Z</time>
      </trkpt>
      <trkpt lat="45.48857" lon="6.10548">
        <ele>377.60000610352</ele>
        <time>2022-01-02T11:17:57.000Z</time>
      </trkpt>
      <trkpt lat="45.48838" lon="6.1051">
        <ele>376.79998779297</ele>
        <time>2022-01-02T11:18:01.000Z</time>
      </trkpt>
      <trkpt lat="45.48828" lon="6.1049">
        <ele>376.20001220703</ele>
        <time>2022-01-02T11:18:03.000Z</time>
      </trkpt>
      <trkpt lat="45.48824" lon="6.10481">
        <ele>375.79998779297</ele>
        <time>2022-01-02T11:18:04.000Z</time>
      </trkpt>
      <trkpt lat="45.48812" lon="6.10447">
        <ele>374.39999389648</ele>
        <time>2022-01-02T11:18:07.000Z</time>
      </trkpt>
      <trkpt lat="45.48808" lon="6.10435">
        <ele>374.20001220703</ele>
        <time>2022-01-02T11:18:08.000Z</time>
      </trkpt>
      <trkpt lat="45.48801" lon="6.1041">
        <ele>373</ele>
        <time>2022-01-02T11:18:10.000Z</time>
      </trkpt>
      <trkpt lat="45.48796" lon="6.10395">
        <ele>372.60000610352</ele>
        <time>2022-01-02T11:18:11.000Z</time>
      </trkpt>
      <trkpt lat="45.48791" lon="6.10384">
        <ele>371.60000610352</ele>
        <time>2022-01-02T11:18:12.000Z</time>
      </trkpt>
      <trkpt lat="45.48785" lon="6.10372">
        <ele>371.20001220703</ele>
        <time>2022-01-02T11:18:13.000Z</time>
      </trkpt>
      <trkpt lat="45.4878" lon="6.10363">
        <ele>370.39999389648</ele>
        <time>2022-01-02T11:18:14.000Z</time>
      </trkpt>
      <trkpt lat="45.48766" lon="6.10338">
        <ele>369.39999389648</ele>
        <time>2022-01-02T11:18:16.000Z</time>
      </trkpt>
      <trkpt lat="45.48759" lon="6.10326">
        <ele>368.20001220703</ele>
        <time>2022-01-02T11:18:17.000Z</time>
      </trkpt>
      <trkpt lat="45.48747" lon="6.10307">
        <ele>366.79998779297</ele>
        <time>2022-01-02T11:18:19.000Z</time>
      </trkpt>
      <trkpt lat="45.48738" lon="6.10295">
        <ele>365.79998779297</ele>
        <time>2022-01-02T11:18:20.000Z</time>
      </trkpt>
      <trkpt lat="45.4872" lon="6.10279">
        <ele>364</ele>
        <time>2022-01-02T11:18:22.000Z</time>
      </trkpt>
      <trkpt lat="45.48702" lon="6.10271">
        <ele>362.39999389648</ele>
        <time>2022-01-02T11:18:24.000Z</time>
      </trkpt>
      <trkpt lat="45.48679" lon="6.10262">
        <ele>361</ele>
        <time>2022-01-02T11:18:26.000Z</time>
      </trkpt>
      <trkpt lat="45.4867" lon="6.10256">
        <ele>360</ele>
        <time>2022-01-02T11:18:27.000Z</time>
      </trkpt>
      <trkpt lat="45.48664" lon="6.10248">
        <ele>359.79998779297</ele>
        <time>2022-01-02T11:18:28.000Z</time>
      </trkpt>
      <trkpt lat="45.48657" lon="6.10236">
        <ele>359.20001220703</ele>
        <time>2022-01-02T11:18:29.000Z</time>
      </trkpt>
      <trkpt lat="45.48653" lon="6.10223">
        <ele>358</ele>
        <time>2022-01-02T11:18:30.000Z</time>
      </trkpt>
      <trkpt lat="45.48646" lon="6.10201">
        <ele>356.39999389648</ele>
        <time>2022-01-02T11:18:32.000Z</time>
      </trkpt>
      <trkpt lat="45.48638" lon="6.10175">
        <ele>355.20001220703</ele>
        <time>2022-01-02T11:18:34.000Z</time>
      </trkpt>
      <trkpt lat="45.48624" lon="6.10146">
        <ele>353.79998779297</ele>
        <time>2022-01-02T11:18:37.000Z</time>
      </trkpt>
      <trkpt lat="45.48593" lon="6.10092">
        <ele>353</ele>
        <time>2022-01-02T11:18:43.000Z</time>
      </trkpt>
      <trkpt lat="45.48588" lon="6.10083">
        <ele>352.60000610352</ele>
        <time>2022-01-02T11:18:44.000Z</time>
      </trkpt>
      <trkpt lat="45.48557" lon="6.10032">
        <ele>351.79998779297</ele>
        <time>2022-01-02T11:18:50.000Z</time>
      </trkpt>
      <trkpt lat="45.48543" lon="6.10009">
        <ele>351.79998779297</ele>
        <time>2022-01-02T11:18:53.000Z</time>
      </trkpt>
      <trkpt lat="45.48504" lon="6.09943">
        <ele>351.39999389648</ele>
        <time>2022-01-02T11:19:02.000Z</time>
      </trkpt>
      <trkpt lat="45.48472" lon="6.09881">
        <ele>351</ele>
        <time>2022-01-02T11:19:10.000Z</time>
      </trkpt>
      <trkpt lat="45.48464" lon="6.09867">
        <ele>351.20001220703</ele>
        <time>2022-01-02T11:19:12.000Z</time>
      </trkpt>
      <trkpt lat="45.48431" lon="6.09802">
        <ele>351.20001220703</ele>
        <time>2022-01-02T11:19:21.000Z</time>
      </trkpt>
      <trkpt lat="45.48424" lon="6.09788">
        <ele>351.20001220703</ele>
        <time>2022-01-02T11:19:23.000Z</time>
      </trkpt>
      <trkpt lat="45.48404" lon="6.09748">
        <ele>350.79998779297</ele>
        <time>2022-01-02T11:19:28.000Z</time>
      </trkpt>
      <trkpt lat="45.48381" lon="6.09703">
        <ele>350.39999389648</ele>
        <time>2022-01-02T11:19:34.000Z</time>
      </trkpt>
      <trkpt lat="45.48362" lon="6.09667">
        <ele>350.20001220703</ele>
        <time>2022-01-02T11:19:39.000Z</time>
      </trkpt>
      <trkpt lat="45.48334" lon="6.09614">
        <ele>349.60000610352</ele>
        <time>2022-01-02T11:19:46.000Z</time>
      </trkpt>
      <trkpt lat="45.48329" lon="6.09604">
        <ele>349.39999389648</ele>
        <time>2022-01-02T11:19:47.000Z</time>
      </trkpt>
      <trkpt lat="45.48304" lon="6.09556">
        <ele>349</ele>
        <time>2022-01-02T11:19:53.000Z</time>
      </trkpt>
      <trkpt lat="45.48283" lon="6.09514">
        <ele>348.60000610352</ele>
        <time>2022-01-02T11:19:58.000Z</time>
      </trkpt>
      <trkpt lat="45.48263" lon="6.09471">
        <ele>347.79998779297</ele>
        <time>2022-01-02T11:20:03.000Z</time>
      </trkpt>
      <trkpt lat="45.48255" lon="6.09445">
        <ele>347.39999389648</ele>
        <time>2022-01-02T11:20:06.000Z</time>
      </trkpt>
      <trkpt lat="45.48247" lon="6.09407">
        <ele>346.60000610352</ele>
        <time>2022-01-02T11:20:10.000Z</time>
      </trkpt>
      <trkpt lat="45.48236" lon="6.09353">
        <ele>346.60000610352</ele>
        <time>2022-01-02T11:20:16.000Z</time>
      </trkpt>
      <trkpt lat="45.48226" lon="6.09314">
        <ele>346.79998779297</ele>
        <time>2022-01-02T11:20:21.000Z</time>
      </trkpt>
      <trkpt lat="45.48221" lon="6.093">
        <ele>346.79998779297</ele>
        <time>2022-01-02T11:20:23.000Z</time>
      </trkpt>
      <trkpt lat="45.48212" lon="6.09281">
        <ele>347.39999389648</ele>
        <time>2022-01-02T11:20:26.000Z</time>
      </trkpt>
      <trkpt lat="45.48207" lon="6.09268">
        <ele>347.79998779297</ele>
        <time>2022-01-02T11:20:28.000Z</time>
      </trkpt>
      <trkpt lat="45.48195" lon="6.09244">
        <ele>348.39999389648</ele>
        <time>2022-01-02T11:20:32.000Z</time>
      </trkpt>
      <trkpt lat="45.48192" lon="6.09238">
        <ele>348.60000610352</ele>
        <time>2022-01-02T11:20:33.000Z</time>
      </trkpt>
      <trkpt lat="45.48178" lon="6.0922">
        <ele>349.39999389648</ele>
        <time>2022-01-02T11:20:37.000Z</time>
      </trkpt>
      <trkpt lat="45.48172" lon="6.0921">
        <ele>349.79998779297</ele>
        <time>2022-01-02T11:20:39.000Z</time>
      </trkpt>
      <trkpt lat="45.4815" lon="6.09179">
        <ele>350.60000610352</ele>
        <time>2022-01-02T11:20:45.000Z</time>
      </trkpt>
      <trkpt lat="45.48124" lon="6.09141">
        <ele>350.39999389648</ele>
        <time>2022-01-02T11:20:52.000Z</time>
      </trkpt>
      <trkpt lat="45.48097" lon="6.09099">
        <ele>349.60000610352</ele>
        <time>2022-01-02T11:20:59.000Z</time>
      </trkpt>
      <trkpt lat="45.48078" lon="6.0907">
        <ele>348.39999389648</ele>
        <time>2022-01-02T11:21:03.000Z</time>
      </trkpt>
      <trkpt lat="45.48067" lon="6.09053">
        <ele>347.79998779297</ele>
        <time>2022-01-02T11:21:05.000Z</time>
      </trkpt>
      <trkpt lat="45.48062" lon="6.09044">
        <ele>347.60000610352</ele>
        <time>2022-01-02T11:21:06.000Z</time>
      </trkpt>
      <trkpt lat="45.48055" lon="6.09037">
        <ele>347.39999389648</ele>
        <time>2022-01-02T11:21:07.000Z</time>
      </trkpt>
      <trkpt lat="45.48046" lon="6.0903">
        <ele>346.60000610352</ele>
        <time>2022-01-02T11:21:08.000Z</time>
      </trkpt>
      <trkpt lat="45.4804" lon="6.09026">
        <ele>346.20001220703</ele>
        <time>2022-01-02T11:21:09.000Z</time>
      </trkpt>
      <trkpt lat="45.48023" lon="6.09016">
        <ele>345.20001220703</ele>
        <time>2022-01-02T11:21:11.000Z</time>
      </trkpt>
      <trkpt lat="45.48015" lon="6.0901">
        <ele>344.60000610352</ele>
        <time>2022-01-02T11:21:12.000Z</time>
      </trkpt>
      <trkpt lat="45.48008" lon="6.09003">
        <ele>344.20001220703</ele>
        <time>2022-01-02T11:21:13.000Z</time>
      </trkpt>
      <trkpt lat="45.47995" lon="6.08985">
        <ele>343.20001220703</ele>
        <time>2022-01-02T11:21:15.000Z</time>
      </trkpt>
      <trkpt lat="45.47988" lon="6.08975">
        <ele>342.60000610352</ele>
        <time>2022-01-02T11:21:16.000Z</time>
      </trkpt>
      <trkpt lat="45.47982" lon="6.08966">
        <ele>342</ele>
        <time>2022-01-02T11:21:17.000Z</time>
      </trkpt>
      <trkpt lat="45.47968" lon="6.08947">
        <ele>340.79998779297</ele>
        <time>2022-01-02T11:21:19.000Z</time>
      </trkpt>
      <trkpt lat="45.47951" lon="6.08929">
        <ele>339.39999389648</ele>
        <time>2022-01-02T11:21:21.000Z</time>
      </trkpt>
      <trkpt lat="45.47937" lon="6.08913">
        <ele>337.79998779297</ele>
        <time>2022-01-02T11:21:23.000Z</time>
      </trkpt>
      <trkpt lat="45.47923" lon="6.08894">
        <ele>336</ele>
        <time>2022-01-02T11:21:25.000Z</time>
      </trkpt>
      <trkpt lat="45.47917" lon="6.08884">
        <ele>335.60000610352</ele>
        <time>2022-01-02T11:21:26.000Z</time>
      </trkpt>
      <trkpt lat="45.47911" lon="6.08873">
        <ele>334.60000610352</ele>
        <time>2022-01-02T11:21:27.000Z</time>
      </trkpt>
      <trkpt lat="45.47899" lon="6.08852">
        <ele>333.20001220703</ele>
        <time>2022-01-02T11:21:29.000Z</time>
      </trkpt>
      <trkpt lat="45.47887" lon="6.08831">
        <ele>332</ele>
        <time>2022-01-02T11:21:31.000Z</time>
      </trkpt>
      <trkpt lat="45.47882" lon="6.0882">
        <ele>331.20001220703</ele>
        <time>2022-01-02T11:21:32.000Z</time>
      </trkpt>
      <trkpt lat="45.47876" lon="6.08809">
        <ele>331</ele>
        <time>2022-01-02T11:21:33.000Z</time>
      </trkpt>
      <trkpt lat="45.47864" lon="6.08786">
        <ele>329.20001220703</ele>
        <time>2022-01-02T11:21:35.000Z</time>
      </trkpt>
      <trkpt lat="45.47849" lon="6.0876">
        <ele>327.39999389648</ele>
        <time>2022-01-02T11:21:37.000Z</time>
      </trkpt>
      <trkpt lat="45.47837" lon="6.08737">
        <ele>325.39999389648</ele>
        <time>2022-01-02T11:21:39.000Z</time>
      </trkpt>
      <trkpt lat="45.47826" lon="6.08712">
        <ele>324.20001220703</ele>
        <time>2022-01-02T11:21:41.000Z</time>
      </trkpt>
      <trkpt lat="45.47821" lon="6.08699">
        <ele>323</ele>
        <time>2022-01-02T11:21:42.000Z</time>
      </trkpt>
      <trkpt lat="45.47809" lon="6.08675">
        <ele>322</ele>
        <time>2022-01-02T11:21:44.000Z</time>
      </trkpt>
      <trkpt lat="45.47796" lon="6.08654">
        <ele>320.60000610352</ele>
        <time>2022-01-02T11:21:46.000Z</time>
      </trkpt>
      <trkpt lat="45.47789" lon="6.08643">
        <ele>319.39999389648</ele>
        <time>2022-01-02T11:21:47.000Z</time>
      </trkpt>
      <trkpt lat="45.47777" lon="6.08624">
        <ele>317.79998779297</ele>
        <time>2022-01-02T11:21:49.000Z</time>
      </trkpt>
      <trkpt lat="45.47772" lon="6.08615">
        <ele>316.79998779297</ele>
        <time>2022-01-02T11:21:50.000Z</time>
      </trkpt>
      <trkpt lat="45.47764" lon="6.08602">
        <ele>316.60000610352</ele>
        <time>2022-01-02T11:21:51.000Z</time>
      </trkpt>
      <trkpt lat="45.47757" lon="6.08592">
        <ele>316</ele>
        <time>2022-01-02T11:21:52.000Z</time>
      </trkpt>
      <trkpt lat="45.47746" lon="6.08569">
        <ele>314.20001220703</ele>
        <time>2022-01-02T11:21:54.000Z</time>
      </trkpt>
      <trkpt lat="45.4774" lon="6.0856">
        <ele>312.79998779297</ele>
        <time>2022-01-02T11:21:55.000Z</time>
      </trkpt>
      <trkpt lat="45.47726" lon="6.08539">
        <ele>311.60000610352</ele>
        <time>2022-01-02T11:21:57.000Z</time>
      </trkpt>
      <trkpt lat="45.47718" lon="6.08531">
        <ele>311</ele>
        <time>2022-01-02T11:21:58.000Z</time>
      </trkpt>
      <trkpt lat="45.4771" lon="6.08523">
        <ele>310</ele>
        <time>2022-01-02T11:21:59.000Z</time>
      </trkpt>
      <trkpt lat="45.47693" lon="6.08501">
        <ele>308.79998779297</ele>
        <time>2022-01-02T11:22:01.000Z</time>
      </trkpt>
      <trkpt lat="45.47678" lon="6.08482">
        <ele>307.20001220703</ele>
        <time>2022-01-02T11:22:03.000Z</time>
      </trkpt>
      <trkpt lat="45.4767" lon="6.08473">
        <ele>306.39999389648</ele>
        <time>2022-01-02T11:22:04.000Z</time>
      </trkpt>
      <trkpt lat="45.47662" lon="6.08465">
        <ele>305.79998779297</ele>
        <time>2022-01-02T11:22:05.000Z</time>
      </trkpt>
      <trkpt lat="45.47649" lon="6.08451">
        <ele>305.39999389648</ele>
        <time>2022-01-02T11:22:07.000Z</time>
      </trkpt>
      <trkpt lat="45.47642" lon="6.08445">
        <ele>305.39999389648</ele>
        <time>2022-01-02T11:22:08.000Z</time>
      </trkpt>
      <trkpt lat="45.47622" lon="6.08422">
        <ele>304.79998779297</ele>
        <time>2022-01-02T11:22:12.000Z</time>
      </trkpt>
      <trkpt lat="45.47618" lon="6.08417">
        <ele>305</ele>
        <time>2022-01-02T11:22:13.000Z</time>
      </trkpt>
      <trkpt lat="45.47609" lon="6.08407">
        <ele>305.39999389648</ele>
        <time>2022-01-02T11:22:16.000Z</time>
      </trkpt>
      <trkpt lat="45.47601" lon="6.08401">
        <ele>305.79998779297</ele>
        <time>2022-01-02T11:22:18.000Z</time>
      </trkpt>
      <trkpt lat="45.47589" lon="6.08387">
        <ele>307</ele>
        <time>2022-01-02T11:22:22.000Z</time>
      </trkpt>
      <trkpt lat="45.47572" lon="6.0837">
        <ele>308</ele>
        <time>2022-01-02T11:22:27.000Z</time>
      </trkpt>
      <trkpt lat="45.47568" lon="6.08367">
        <ele>308.20001220703</ele>
        <time>2022-01-02T11:22:28.000Z</time>
      </trkpt>
      <trkpt lat="45.47549" lon="6.08346">
        <ele>309.20001220703</ele>
        <time>2022-01-02T11:22:33.000Z</time>
      </trkpt>
      <trkpt lat="45.47546" lon="6.08343">
        <ele>309</ele>
        <time>2022-01-02T11:22:34.000Z</time>
      </trkpt>
      <trkpt lat="45.47533" lon="6.08335">
        <ele>310.20001220703</ele>
        <time>2022-01-02T11:22:39.000Z</time>
      </trkpt>
      <trkpt lat="45.47528" lon="6.08331">
        <ele>310.39999389648</ele>
        <time>2022-01-02T11:22:41.000Z</time>
      </trkpt>
      <trkpt lat="45.47518" lon="6.08324">
        <ele>311.20001220703</ele>
        <time>2022-01-02T11:22:44.000Z</time>
      </trkpt>
      <trkpt lat="45.47509" lon="6.08318">
        <ele>311.79998779297</ele>
        <time>2022-01-02T11:22:47.000Z</time>
      </trkpt>
      <trkpt lat="45.47503" lon="6.08314">
        <ele>312</ele>
        <time>2022-01-02T11:22:49.000Z</time>
      </trkpt>
      <trkpt lat="45.47497" lon="6.08311">
        <ele>312.60000610352</ele>
        <time>2022-01-02T11:22:51.000Z</time>
      </trkpt>
      <trkpt lat="45.47489" lon="6.08308">
        <ele>313.20001220703</ele>
        <time>2022-01-02T11:22:53.000Z</time>
      </trkpt>
      <trkpt lat="45.47484" lon="6.08305">
        <ele>313.79998779297</ele>
        <time>2022-01-02T11:22:56.000Z</time>
      </trkpt>
      <trkpt lat="45.47471" lon="6.08296">
        <ele>314.39999389648</ele>
        <time>2022-01-02T11:23:00.000Z</time>
      </trkpt>
      <trkpt lat="45.47465" lon="6.08289">
        <ele>314.79998779297</ele>
        <time>2022-01-02T11:23:01.000Z</time>
      </trkpt>
      <trkpt lat="45.47452" lon="6.08277">
        <ele>315.79998779297</ele>
        <time>2022-01-02T11:23:06.000Z</time>
      </trkpt>
      <trkpt lat="45.47446" lon="6.0827">
        <ele>316</ele>
        <time>2022-01-02T11:23:07.000Z</time>
      </trkpt>
      <trkpt lat="45.47433" lon="6.08257">
        <ele>317</ele>
        <time>2022-01-02T11:23:12.000Z</time>
      </trkpt>
      <trkpt lat="45.47431" lon="6.08255">
        <ele>317.20001220703</ele>
        <time>2022-01-02T11:23:13.000Z</time>
      </trkpt>
      <trkpt lat="45.47423" lon="6.08245">
        <ele>318</ele>
        <time>2022-01-02T11:23:18.000Z</time>
      </trkpt>
      <trkpt lat="45.47408" lon="6.08231">
        <ele>319.20001220703</ele>
        <time>2022-01-02T11:23:23.000Z</time>
      </trkpt>
      <trkpt lat="45.47408" lon="6.08231">
        <ele>319.39999389648</ele>
        <time>2022-01-02T11:23:24.000Z</time>
      </trkpt>
      <trkpt lat="45.47393" lon="6.08219">
        <ele>320.20001220703</ele>
        <time>2022-01-02T11:23:29.000Z</time>
      </trkpt>
      <trkpt lat="45.47391" lon="6.08218">
        <ele>320.39999389648</ele>
        <time>2022-01-02T11:23:30.000Z</time>
      </trkpt>
      <trkpt lat="45.47377" lon="6.08207">
        <ele>321.60000610352</ele>
        <time>2022-01-02T11:23:35.000Z</time>
      </trkpt>
      <trkpt lat="45.47374" lon="6.08204">
        <ele>321.79998779297</ele>
        <time>2022-01-02T11:23:36.000Z</time>
      </trkpt>
      <trkpt lat="45.47364" lon="6.08197">
        <ele>322.60000610352</ele>
        <time>2022-01-02T11:23:40.000Z</time>
      </trkpt>
      <trkpt lat="45.47347" lon="6.08185">
        <ele>323.39999389648</ele>
        <time>2022-01-02T11:23:44.000Z</time>
      </trkpt>
      <trkpt lat="45.4734" lon="6.0818">
        <ele>323.60000610352</ele>
        <time>2022-01-02T11:23:46.000Z</time>
      </trkpt>
      <trkpt lat="45.47333" lon="6.08176">
        <ele>324</ele>
        <time>2022-01-02T11:23:48.000Z</time>
      </trkpt>
      <trkpt lat="45.47323" lon="6.0817">
        <ele>324.79998779297</ele>
        <time>2022-01-02T11:23:51.000Z</time>
      </trkpt>
      <trkpt lat="45.47314" lon="6.08162">
        <ele>325.39999389648</ele>
        <time>2022-01-02T11:23:54.000Z</time>
      </trkpt>
      <trkpt lat="45.47309" lon="6.08155">
        <ele>326</ele>
        <time>2022-01-02T11:23:56.000Z</time>
      </trkpt>
      <trkpt lat="45.47296" lon="6.08135">
        <ele>326.39999389648</ele>
        <time>2022-01-02T11:24:02.000Z</time>
      </trkpt>
      <trkpt lat="45.47295" lon="6.08131">
        <ele>326.79998779297</ele>
        <time>2022-01-02T11:24:03.000Z</time>
      </trkpt>
      <trkpt lat="45.47289" lon="6.08108">
        <ele>327.79998779297</ele>
        <time>2022-01-02T11:24:08.000Z</time>
      </trkpt>
      <trkpt lat="45.47278" lon="6.08087">
        <ele>329</ele>
        <time>2022-01-02T11:24:13.000Z</time>
      </trkpt>
      <trkpt lat="45.47268" lon="6.08073">
        <ele>330</ele>
        <time>2022-01-02T11:24:17.000Z</time>
      </trkpt>
      <trkpt lat="45.47257" lon="6.08066">
        <ele>330.79998779297</ele>
        <time>2022-01-02T11:24:21.000Z</time>
      </trkpt>
      <trkpt lat="45.47252" lon="6.08061">
        <ele>331.20001220703</ele>
        <time>2022-01-02T11:24:23.000Z</time>
      </trkpt>
      <trkpt lat="45.47242" lon="6.08052">
        <ele>331.79998779297</ele>
        <time>2022-01-02T11:24:27.000Z</time>
      </trkpt>
      <trkpt lat="45.47237" lon="6.08048">
        <ele>332.20001220703</ele>
        <time>2022-01-02T11:24:29.000Z</time>
      </trkpt>
      <trkpt lat="45.47226" lon="6.08038">
        <ele>333.20001220703</ele>
        <time>2022-01-02T11:24:33.000Z</time>
      </trkpt>
      <trkpt lat="45.47223" lon="6.08035">
        <ele>333.39999389648</ele>
        <time>2022-01-02T11:24:34.000Z</time>
      </trkpt>
      <trkpt lat="45.4721" lon="6.08023">
        <ele>334.20001220703</ele>
        <time>2022-01-02T11:24:39.000Z</time>
      </trkpt>
      <trkpt lat="45.47207" lon="6.0802">
        <ele>334.39999389648</ele>
        <time>2022-01-02T11:24:40.000Z</time>
      </trkpt>
      <trkpt lat="45.47194" lon="6.08004">
        <ele>335.20001220703</ele>
        <time>2022-01-02T11:24:45.000Z</time>
      </trkpt>
      <trkpt lat="45.47194" lon="6.08004">
        <ele>335.39999389648</ele>
        <time>2022-01-02T11:24:46.000Z</time>
      </trkpt>
      <trkpt lat="45.47177" lon="6.07983">
        <ele>336.60000610352</ele>
        <time>2022-01-02T11:24:52.000Z</time>
      </trkpt>
      <trkpt lat="45.47174" lon="6.07981">
        <ele>336.79998779297</ele>
        <time>2022-01-02T11:24:53.000Z</time>
      </trkpt>
      <trkpt lat="45.47163" lon="6.07965">
        <ele>337.60000610352</ele>
        <time>2022-01-02T11:24:57.000Z</time>
      </trkpt>
      <trkpt lat="45.47161" lon="6.0796">
        <ele>337.79998779297</ele>
        <time>2022-01-02T11:24:59.000Z</time>
      </trkpt>
      <trkpt lat="45.47152" lon="6.07944">
        <ele>338.79998779297</ele>
        <time>2022-01-02T11:25:03.000Z</time>
      </trkpt>
      <trkpt lat="45.47148" lon="6.07933">
        <ele>339.20001220703</ele>
        <time>2022-01-02T11:25:06.000Z</time>
      </trkpt>
      <trkpt lat="45.47142" lon="6.07922">
        <ele>339.79998779297</ele>
        <time>2022-01-02T11:25:08.000Z</time>
      </trkpt>
      <trkpt lat="45.4713" lon="6.07897">
        <ele>340.79998779297</ele>
        <time>2022-01-02T11:25:15.000Z</time>
      </trkpt>
      <trkpt lat="45.4712" lon="6.07877">
        <ele>342</ele>
        <time>2022-01-02T11:25:20.000Z</time>
      </trkpt>
      <trkpt lat="45.47112" lon="6.07861">
        <ele>343</ele>
        <time>2022-01-02T11:25:24.000Z</time>
      </trkpt>
      <trkpt lat="45.471" lon="6.0784">
        <ele>344</ele>
        <time>2022-01-02T11:25:29.000Z</time>
      </trkpt>
      <trkpt lat="45.47097" lon="6.07837">
        <ele>344.20001220703</ele>
        <time>2022-01-02T11:25:30.000Z</time>
      </trkpt>
      <trkpt lat="45.47084" lon="6.0782">
        <ele>345.39999389648</ele>
        <time>2022-01-02T11:25:35.000Z</time>
      </trkpt>
      <trkpt lat="45.47073" lon="6.07809">
        <ele>345.60000610352</ele>
        <time>2022-01-02T11:25:39.000Z</time>
      </trkpt>
      <trkpt lat="45.47062" lon="6.07805">
        <ele>346.39999389648</ele>
        <time>2022-01-02T11:25:43.000Z</time>
      </trkpt>
      <trkpt lat="45.47052" lon="6.07804">
        <ele>346.39999389648</ele>
        <time>2022-01-02T11:25:45.000Z</time>
      </trkpt>
      <trkpt lat="45.47034" lon="6.0779">
        <ele>347.20001220703</ele>
        <time>2022-01-02T11:25:51.000Z</time>
      </trkpt>
      <trkpt lat="45.47031" lon="6.07788">
        <ele>347.60000610352</ele>
        <time>2022-01-02T11:25:52.000Z</time>
      </trkpt>
      <trkpt lat="45.47022" lon="6.07776">
        <ele>348.60000610352</ele>
        <time>2022-01-02T11:25:57.000Z</time>
      </trkpt>
      <trkpt lat="45.47018" lon="6.07769">
        <ele>348.60000610352</ele>
        <time>2022-01-02T11:25:58.000Z</time>
      </trkpt>
      <trkpt lat="45.47011" lon="6.07755">
        <ele>349.79998779297</ele>
        <time>2022-01-02T11:26:02.000Z</time>
      </trkpt>
      <trkpt lat="45.47008" lon="6.07747">
        <ele>350.20001220703</ele>
        <time>2022-01-02T11:26:04.000Z</time>
      </trkpt>
      <trkpt lat="45.47002" lon="6.07731">
        <ele>351</ele>
        <time>2022-01-02T11:26:09.000Z</time>
      </trkpt>
      <trkpt lat="45.46998" lon="6.07719">
        <ele>351.60000610352</ele>
        <time>2022-01-02T11:26:11.000Z</time>
      </trkpt>
      <trkpt lat="45.46993" lon="6.0771">
        <ele>352.39999389648</ele>
        <time>2022-01-02T11:26:14.000Z</time>
      </trkpt>
      <trkpt lat="45.4699" lon="6.07703">
        <ele>352.60000610352</ele>
        <time>2022-01-02T11:26:16.000Z</time>
      </trkpt>
      <trkpt lat="45.46984" lon="6.07689">
        <ele>353.20001220703</ele>
        <time>2022-01-02T11:26:20.000Z</time>
      </trkpt>
      <trkpt lat="45.46978" lon="6.07679">
        <ele>353.60000610352</ele>
        <time>2022-01-02T11:26:23.000Z</time>
      </trkpt>
      <trkpt lat="45.46975" lon="6.07672">
        <ele>354.39999389648</ele>
        <time>2022-01-02T11:26:25.000Z</time>
      </trkpt>
      <trkpt lat="45.46964" lon="6.07659">
        <ele>355.20001220703</ele>
        <time>2022-01-02T11:26:30.000Z</time>
      </trkpt>
      <trkpt lat="45.4696" lon="6.07655">
        <ele>355.60000610352</ele>
        <time>2022-01-02T11:26:32.000Z</time>
      </trkpt>
      <trkpt lat="45.46958" lon="6.07652">
        <ele>355.60000610352</ele>
        <time>2022-01-02T11:26:33.000Z</time>
      </trkpt>
      <trkpt lat="45.46953" lon="6.07648">
        <ele>356</ele>
        <time>2022-01-02T11:26:35.000Z</time>
      </trkpt>
      <trkpt lat="45.46947" lon="6.07644">
        <ele>356.60000610352</ele>
        <time>2022-01-02T11:26:37.000Z</time>
      </trkpt>
      <trkpt lat="45.46938" lon="6.07632">
        <ele>357.20001220703</ele>
        <time>2022-01-02T11:26:41.000Z</time>
      </trkpt>
      <trkpt lat="45.46932" lon="6.07623">
        <ele>357.79998779297</ele>
        <time>2022-01-02T11:26:44.000Z</time>
      </trkpt>
      <trkpt lat="45.46924" lon="6.07617">
        <ele>358.20001220703</ele>
        <time>2022-01-02T11:26:47.000Z</time>
      </trkpt>
      <trkpt lat="45.46918" lon="6.07613">
        <ele>359</ele>
        <time>2022-01-02T11:26:50.000Z</time>
      </trkpt>
      <trkpt lat="45.46912" lon="6.07606">
        <ele>359.60000610352</ele>
        <time>2022-01-02T11:26:53.000Z</time>
      </trkpt>
      <trkpt lat="45.46907" lon="6.07602">
        <ele>360.20001220703</ele>
        <time>2022-01-02T11:26:55.000Z</time>
      </trkpt>
      <trkpt lat="45.46899" lon="6.07594">
        <ele>360.79998779297</ele>
        <time>2022-01-02T11:26:58.000Z</time>
      </trkpt>
      <trkpt lat="45.46894" lon="6.07585">
        <ele>361.20001220703</ele>
        <time>2022-01-02T11:27:00.000Z</time>
      </trkpt>
      <trkpt lat="45.46889" lon="6.07575">
        <ele>361.39999389648</ele>
        <time>2022-01-02T11:27:03.000Z</time>
      </trkpt>
      <trkpt lat="45.46875" lon="6.07555">
        <ele>362.20001220703</ele>
        <time>2022-01-02T11:27:07.000Z</time>
      </trkpt>
      <trkpt lat="45.46865" lon="6.0754">
        <ele>363</ele>
        <time>2022-01-02T11:27:11.000Z</time>
      </trkpt>
      <trkpt lat="45.46863" lon="6.07537">
        <ele>363.20001220703</ele>
        <time>2022-01-02T11:27:12.000Z</time>
      </trkpt>
      <trkpt lat="45.4685" lon="6.0752">
        <ele>364.60000610352</ele>
        <time>2022-01-02T11:27:17.000Z</time>
      </trkpt>
      <trkpt lat="45.46848" lon="6.07517">
        <ele>364.60000610352</ele>
        <time>2022-01-02T11:27:18.000Z</time>
      </trkpt>
      <trkpt lat="45.46836" lon="6.07503">
        <ele>365.60000610352</ele>
        <time>2022-01-02T11:27:22.000Z</time>
      </trkpt>
      <trkpt lat="45.46834" lon="6.075">
        <ele>365.60000610352</ele>
        <time>2022-01-02T11:27:23.000Z</time>
      </trkpt>
      <trkpt lat="45.46825" lon="6.07484">
        <ele>366.60000610352</ele>
        <time>2022-01-02T11:27:27.000Z</time>
      </trkpt>
      <trkpt lat="45.46825" lon="6.07484">
        <ele>366.60000610352</ele>
        <time>2022-01-02T11:27:28.000Z</time>
      </trkpt>
      <trkpt lat="45.46812" lon="6.07463">
        <ele>367.60000610352</ele>
        <time>2022-01-02T11:27:32.000Z</time>
      </trkpt>
      <trkpt lat="45.46803" lon="6.07456">
        <ele>368.39999389648</ele>
        <time>2022-01-02T11:27:36.000Z</time>
      </trkpt>
      <trkpt lat="45.46791" lon="6.07449">
        <ele>369</ele>
        <time>2022-01-02T11:27:39.000Z</time>
      </trkpt>
      <trkpt lat="45.46782" lon="6.07448">
        <ele>369.60000610352</ele>
        <time>2022-01-02T11:27:42.000Z</time>
      </trkpt>
      <trkpt lat="45.46765" lon="6.07447">
        <ele>370.20001220703</ele>
        <time>2022-01-02T11:27:47.000Z</time>
      </trkpt>
      <trkpt lat="45.46762" lon="6.07447">
        <ele>370.39999389648</ele>
        <time>2022-01-02T11:27:48.000Z</time>
      </trkpt>
      <trkpt lat="45.46748" lon="6.07449">
        <ele>371.20001220703</ele>
        <time>2022-01-02T11:27:52.000Z</time>
      </trkpt>
      <trkpt lat="45.46742" lon="6.07447">
        <ele>371.60000610352</ele>
        <time>2022-01-02T11:27:54.000Z</time>
      </trkpt>
      <trkpt lat="45.46736" lon="6.07428">
        <ele>372</ele>
        <time>2022-01-02T11:27:57.000Z</time>
      </trkpt>
      <trkpt lat="45.46736" lon="6.07419">
        <ele>372.20001220703</ele>
        <time>2022-01-02T11:27:58.000Z</time>
      </trkpt>
      <trkpt lat="45.46736" lon="6.07413">
        <ele>372.20001220703</ele>
        <time>2022-01-02T11:27:59.000Z</time>
      </trkpt>
      <trkpt lat="45.4674" lon="6.07381">
        <ele>372.79998779297</ele>
        <time>2022-01-02T11:28:04.000Z</time>
      </trkpt>
      <trkpt lat="45.46732" lon="6.07356">
        <ele>373.20001220703</ele>
        <time>2022-01-02T11:28:08.000Z</time>
      </trkpt>
      <trkpt lat="45.46729" lon="6.07352">
        <ele>373.20001220703</ele>
        <time>2022-01-02T11:28:09.000Z</time>
      </trkpt>
      <trkpt lat="45.46718" lon="6.07342">
        <ele>373.20001220703</ele>
        <time>2022-01-02T11:28:12.000Z</time>
      </trkpt>
      <trkpt lat="45.46706" lon="6.07334">
        <ele>373.39999389648</ele>
        <time>2022-01-02T11:28:15.000Z</time>
      </trkpt>
      <trkpt lat="45.4668" lon="6.07314">
        <ele>373.60000610352</ele>
        <time>2022-01-02T11:28:22.000Z</time>
      </trkpt>
      <trkpt lat="45.46666" lon="6.07303">
        <ele>374</ele>
        <time>2022-01-02T11:28:26.000Z</time>
      </trkpt>
      <trkpt lat="45.4666" lon="6.07297">
        <ele>374</ele>
        <time>2022-01-02T11:28:29.000Z</time>
      </trkpt>
      <trkpt lat="45.46643" lon="6.07284">
        <ele>374.39999389648</ele>
        <time>2022-01-02T11:28:33.000Z</time>
      </trkpt>
      <trkpt lat="45.46636" lon="6.07277">
        <ele>374.60000610352</ele>
        <time>2022-01-02T11:28:35.000Z</time>
      </trkpt>
      <trkpt lat="45.46618" lon="6.07257">
        <ele>375.60000610352</ele>
        <time>2022-01-02T11:28:41.000Z</time>
      </trkpt>
      <trkpt lat="45.46606" lon="6.07249">
        <ele>376.39999389648</ele>
        <time>2022-01-02T11:28:46.000Z</time>
      </trkpt>
      <trkpt lat="45.46603" lon="6.07247">
        <ele>376.79998779297</ele>
        <time>2022-01-02T11:28:47.000Z</time>
      </trkpt>
      <trkpt lat="45.46595" lon="6.07234">
        <ele>377.60000610352</ele>
        <time>2022-01-02T11:28:51.000Z</time>
      </trkpt>
      <trkpt lat="45.46593" lon="6.07231">
        <ele>377.79998779297</ele>
        <time>2022-01-02T11:28:52.000Z</time>
      </trkpt>
      <trkpt lat="45.46587" lon="6.07213">
        <ele>379.20001220703</ele>
        <time>2022-01-02T11:28:57.000Z</time>
      </trkpt>
      <trkpt lat="45.4658" lon="6.07186">
        <ele>380.20001220703</ele>
        <time>2022-01-02T11:29:01.000Z</time>
      </trkpt>
      <trkpt lat="45.46572" lon="6.07159">
        <ele>381.20001220703</ele>
        <time>2022-01-02T11:29:07.000Z</time>
      </trkpt>
      <trkpt lat="45.46568" lon="6.07151">
        <ele>382</ele>
        <time>2022-01-02T11:29:09.000Z</time>
      </trkpt>
      <trkpt lat="45.46566" lon="6.07147">
        <ele>382.20001220703</ele>
        <time>2022-01-02T11:29:10.000Z</time>
      </trkpt>
      <trkpt lat="45.46556" lon="6.07143">
        <ele>383.20001220703</ele>
        <time>2022-01-02T11:29:14.000Z</time>
      </trkpt>
      <trkpt lat="45.46553" lon="6.07142">
        <ele>383.39999389648</ele>
        <time>2022-01-02T11:29:15.000Z</time>
      </trkpt>
      <trkpt lat="45.46542" lon="6.07135">
        <ele>384.60000610352</ele>
        <time>2022-01-02T11:29:19.000Z</time>
      </trkpt>
      <trkpt lat="45.46535" lon="6.07131">
        <ele>385.20001220703</ele>
        <time>2022-01-02T11:29:22.000Z</time>
      </trkpt>
      <trkpt lat="45.46527" lon="6.07128">
        <ele>385.60000610352</ele>
        <time>2022-01-02T11:29:25.000Z</time>
      </trkpt>
      <trkpt lat="45.46524" lon="6.07127">
        <ele>385.79998779297</ele>
        <time>2022-01-02T11:29:26.000Z</time>
      </trkpt>
      <trkpt lat="45.46516" lon="6.07124">
        <ele>386.79998779297</ele>
        <time>2022-01-02T11:29:29.000Z</time>
      </trkpt>
      <trkpt lat="45.4651" lon="6.0712">
        <ele>387.20001220703</ele>
        <time>2022-01-02T11:29:31.000Z</time>
      </trkpt>
      <trkpt lat="45.46505" lon="6.07117">
        <ele>387.79998779297</ele>
        <time>2022-01-02T11:29:33.000Z</time>
      </trkpt>
      <trkpt lat="45.465" lon="6.07113">
        <ele>388.39999389648</ele>
        <time>2022-01-02T11:29:35.000Z</time>
      </trkpt>
      <trkpt lat="45.46492" lon="6.07106">
        <ele>388.79998779297</ele>
        <time>2022-01-02T11:29:38.000Z</time>
      </trkpt>
      <trkpt lat="45.46483" lon="6.07099">
        <ele>389.79998779297</ele>
        <time>2022-01-02T11:29:41.000Z</time>
      </trkpt>
      <trkpt lat="45.46481" lon="6.07096">
        <ele>390</ele>
        <time>2022-01-02T11:29:42.000Z</time>
      </trkpt>
      <trkpt lat="45.46467" lon="6.07073">
        <ele>391</ele>
        <time>2022-01-02T11:29:48.000Z</time>
      </trkpt>
      <trkpt lat="45.46464" lon="6.0707">
        <ele>391.39999389648</ele>
        <time>2022-01-02T11:29:49.000Z</time>
      </trkpt>
      <trkpt lat="45.46456" lon="6.07057">
        <ele>392.20001220703</ele>
        <time>2022-01-02T11:29:53.000Z</time>
      </trkpt>
      <trkpt lat="45.46454" lon="6.0705">
        <ele>392.79998779297</ele>
        <time>2022-01-02T11:29:55.000Z</time>
      </trkpt>
      <trkpt lat="45.46444" lon="6.07038">
        <ele>393.39999389648</ele>
        <time>2022-01-02T11:29:59.000Z</time>
      </trkpt>
      <trkpt lat="45.46441" lon="6.07032">
        <ele>393.79998779297</ele>
        <time>2022-01-02T11:30:01.000Z</time>
      </trkpt>
      <trkpt lat="45.46433" lon="6.0702">
        <ele>394.60000610352</ele>
        <time>2022-01-02T11:30:05.000Z</time>
      </trkpt>
      <trkpt lat="45.46429" lon="6.07015">
        <ele>395</ele>
        <time>2022-01-02T11:30:08.000Z</time>
      </trkpt>
      <trkpt lat="45.46423" lon="6.07008">
        <ele>395.60000610352</ele>
        <time>2022-01-02T11:30:11.000Z</time>
      </trkpt>
      <trkpt lat="45.46411" lon="6.06991">
        <ele>396.39999389648</ele>
        <time>2022-01-02T11:30:15.000Z</time>
      </trkpt>
      <trkpt lat="45.46403" lon="6.06981">
        <ele>396.79998779297</ele>
        <time>2022-01-02T11:30:18.000Z</time>
      </trkpt>
      <trkpt lat="45.46393" lon="6.06973">
        <ele>397.20001220703</ele>
        <time>2022-01-02T11:30:21.000Z</time>
      </trkpt>
      <trkpt lat="45.46385" lon="6.06963">
        <ele>397.79998779297</ele>
        <time>2022-01-02T11:30:24.000Z</time>
      </trkpt>
      <trkpt lat="45.46376" lon="6.06951">
        <ele>398.20001220703</ele>
        <time>2022-01-02T11:30:27.000Z</time>
      </trkpt>
      <trkpt lat="45.46365" lon="6.06939">
        <ele>399</ele>
        <time>2022-01-02T11:30:31.000Z</time>
      </trkpt>
      <trkpt lat="45.46357" lon="6.06932">
        <ele>399.39999389648</ele>
        <time>2022-01-02T11:30:34.000Z</time>
      </trkpt>
      <trkpt lat="45.46347" lon="6.06919">
        <ele>400</ele>
        <time>2022-01-02T11:30:38.000Z</time>
      </trkpt>
      <trkpt lat="45.46333" lon="6.06904">
        <ele>401</ele>
        <time>2022-01-02T11:30:43.000Z</time>
      </trkpt>
      <trkpt lat="45.46332" lon="6.06902">
        <ele>401.20001220703</ele>
        <time>2022-01-02T11:30:44.000Z</time>
      </trkpt>
      <trkpt lat="45.4632" lon="6.06889">
        <ele>401.79998779297</ele>
        <time>2022-01-02T11:30:49.000Z</time>
      </trkpt>
      <trkpt lat="45.46315" lon="6.06883">
        <ele>402.20001220703</ele>
        <time>2022-01-02T11:30:51.000Z</time>
      </trkpt>
      <trkpt lat="45.46304" lon="6.06871">
        <ele>403.39999389648</ele>
        <time>2022-01-02T11:30:56.000Z</time>
      </trkpt>
      <trkpt lat="45.46295" lon="6.06857">
        <ele>404.20001220703</ele>
        <time>2022-01-02T11:30:59.000Z</time>
      </trkpt>
      <trkpt lat="45.4629" lon="6.06851">
        <ele>404.60000610352</ele>
        <time>2022-01-02T11:31:01.000Z</time>
      </trkpt>
      <trkpt lat="45.46279" lon="6.06838">
        <ele>405.39999389648</ele>
        <time>2022-01-02T11:31:05.000Z</time>
      </trkpt>
      <trkpt lat="45.46276" lon="6.06835">
        <ele>405.60000610352</ele>
        <time>2022-01-02T11:31:06.000Z</time>
      </trkpt>
      <trkpt lat="45.46262" lon="6.06824">
        <ele>407</ele>
        <time>2022-01-02T11:31:11.000Z</time>
      </trkpt>
      <trkpt lat="45.46249" lon="6.06816">
        <ele>408.20001220703</ele>
        <time>2022-01-02T11:31:16.000Z</time>
      </trkpt>
      <trkpt lat="45.46241" lon="6.0681">
        <ele>409.20001220703</ele>
        <time>2022-01-02T11:31:19.000Z</time>
      </trkpt>
      <trkpt lat="45.4623" lon="6.06803">
        <ele>410.20001220703</ele>
        <time>2022-01-02T11:31:23.000Z</time>
      </trkpt>
      <trkpt lat="45.4622" lon="6.06797">
        <ele>411</ele>
        <time>2022-01-02T11:31:27.000Z</time>
      </trkpt>
      <trkpt lat="45.46217" lon="6.06796">
        <ele>411.39999389648</ele>
        <time>2022-01-02T11:31:28.000Z</time>
      </trkpt>
      <trkpt lat="45.46208" lon="6.06793">
        <ele>412.60000610352</ele>
        <time>2022-01-02T11:31:31.000Z</time>
      </trkpt>
      <trkpt lat="45.46196" lon="6.06791">
        <ele>413.60000610352</ele>
        <time>2022-01-02T11:31:35.000Z</time>
      </trkpt>
      <trkpt lat="45.4619" lon="6.0679">
        <ele>414</ele>
        <time>2022-01-02T11:31:37.000Z</time>
      </trkpt>
      <trkpt lat="45.46183" lon="6.06788">
        <ele>414.79998779297</ele>
        <time>2022-01-02T11:31:39.000Z</time>
      </trkpt>
      <trkpt lat="45.46169" lon="6.06782">
        <ele>415.79998779297</ele>
        <time>2022-01-02T11:31:44.000Z</time>
      </trkpt>
      <trkpt lat="45.46161" lon="6.06777">
        <ele>416.79998779297</ele>
        <time>2022-01-02T11:31:47.000Z</time>
      </trkpt>
      <trkpt lat="45.46156" lon="6.06772">
        <ele>417</ele>
        <time>2022-01-02T11:31:49.000Z</time>
      </trkpt>
      <trkpt lat="45.46146" lon="6.06763">
        <ele>418</ele>
        <time>2022-01-02T11:31:53.000Z</time>
      </trkpt>
      <trkpt lat="45.46144" lon="6.06762">
        <ele>418.20001220703</ele>
        <time>2022-01-02T11:31:54.000Z</time>
      </trkpt>
      <trkpt lat="45.46139" lon="6.06758">
        <ele>419.20001220703</ele>
        <time>2022-01-02T11:31:56.000Z</time>
      </trkpt>
      <trkpt lat="45.46129" lon="6.06749">
        <ele>420.20001220703</ele>
        <time>2022-01-02T11:32:00.000Z</time>
      </trkpt>
      <trkpt lat="45.46121" lon="6.06744">
        <ele>421</ele>
        <time>2022-01-02T11:32:03.000Z</time>
      </trkpt>
      <trkpt lat="45.46118" lon="6.06742">
        <ele>421.39999389648</ele>
        <time>2022-01-02T11:32:04.000Z</time>
      </trkpt>
      <trkpt lat="45.46107" lon="6.06733">
        <ele>422.39999389648</ele>
        <time>2022-01-02T11:32:08.000Z</time>
      </trkpt>
      <trkpt lat="45.46102" lon="6.06729">
        <ele>423</ele>
        <time>2022-01-02T11:32:10.000Z</time>
      </trkpt>
      <trkpt lat="45.46099" lon="6.06727">
        <ele>423.60000610352</ele>
        <time>2022-01-02T11:32:11.000Z</time>
      </trkpt>
      <trkpt lat="45.46084" lon="6.0672">
        <ele>425</ele>
        <time>2022-01-02T11:32:16.000Z</time>
      </trkpt>
      <trkpt lat="45.46079" lon="6.06717">
        <ele>425.39999389648</ele>
        <time>2022-01-02T11:32:18.000Z</time>
      </trkpt>
      <trkpt lat="45.4607" lon="6.06714">
        <ele>426</ele>
        <time>2022-01-02T11:32:21.000Z</time>
      </trkpt>
      <trkpt lat="45.46058" lon="6.06713">
        <ele>427.20001220703</ele>
        <time>2022-01-02T11:32:25.000Z</time>
      </trkpt>
      <trkpt lat="45.46046" lon="6.06715">
        <ele>428.39999389648</ele>
        <time>2022-01-02T11:32:29.000Z</time>
      </trkpt>
      <trkpt lat="45.46035" lon="6.06718">
        <ele>429.39999389648</ele>
        <time>2022-01-02T11:32:32.000Z</time>
      </trkpt>
      <trkpt lat="45.46032" lon="6.0672">
        <ele>429.79998779297</ele>
        <time>2022-01-02T11:32:33.000Z</time>
      </trkpt>
      <trkpt lat="45.46015" lon="6.06735">
        <ele>430.79998779297</ele>
        <time>2022-01-02T11:32:38.000Z</time>
      </trkpt>
      <trkpt lat="45.46009" lon="6.06739">
        <ele>430.79998779297</ele>
        <time>2022-01-02T11:32:39.000Z</time>
      </trkpt>
      <trkpt lat="45.46" lon="6.06742">
        <ele>430.79998779297</ele>
        <time>2022-01-02T11:32:41.000Z</time>
      </trkpt>
      <trkpt lat="45.45995" lon="6.06742">
        <ele>430.79998779297</ele>
        <time>2022-01-02T11:32:42.000Z</time>
      </trkpt>
      <trkpt lat="45.45989" lon="6.0674">
        <ele>430.79998779297</ele>
        <time>2022-01-02T11:32:43.000Z</time>
      </trkpt>
      <trkpt lat="45.45975" lon="6.06733">
        <ele>430.60000610352</ele>
        <time>2022-01-02T11:32:46.000Z</time>
      </trkpt>
      <trkpt lat="45.45939" lon="6.06716">
        <ele>430.39999389648</ele>
        <time>2022-01-02T11:32:54.000Z</time>
      </trkpt>
      <trkpt lat="45.45914" lon="6.06709">
        <ele>431</ele>
        <time>2022-01-02T11:33:00.000Z</time>
      </trkpt>
      <trkpt lat="45.45897" lon="6.06715">
        <ele>431.39999389648</ele>
        <time>2022-01-02T11:33:05.000Z</time>
      </trkpt>
      <trkpt lat="45.45891" lon="6.06715">
        <ele>431.60000610352</ele>
        <time>2022-01-02T11:33:07.000Z</time>
      </trkpt>
      <trkpt lat="45.45888" lon="6.06712">
        <ele>431.79998779297</ele>
        <time>2022-01-02T11:33:08.000Z</time>
      </trkpt>
      <trkpt lat="45.45887" lon="6.067">
        <ele>431.79998779297</ele>
        <time>2022-01-02T11:33:10.000Z</time>
      </trkpt>
      <trkpt lat="45.45889" lon="6.0669">
        <ele>431.79998779297</ele>
        <time>2022-01-02T11:33:11.000Z</time>
      </trkpt>
      <trkpt lat="45.45891" lon="6.06684">
        <ele>431.79998779297</ele>
        <time>2022-01-02T11:33:12.000Z</time>
      </trkpt>
      <trkpt lat="45.45897" lon="6.06667">
        <ele>431.79998779297</ele>
        <time>2022-01-02T11:33:14.000Z</time>
      </trkpt>
      <trkpt lat="45.45901" lon="6.06651">
        <ele>431.39999389648</ele>
        <time>2022-01-02T11:33:16.000Z</time>
      </trkpt>
      <trkpt lat="45.45901" lon="6.06642">
        <ele>431</ele>
        <time>2022-01-02T11:33:17.000Z</time>
      </trkpt>
      <trkpt lat="45.45898" lon="6.06632">
        <ele>430.39999389648</ele>
        <time>2022-01-02T11:33:18.000Z</time>
      </trkpt>
      <trkpt lat="45.45894" lon="6.06624">
        <ele>430</ele>
        <time>2022-01-02T11:33:19.000Z</time>
      </trkpt>
      <trkpt lat="45.45888" lon="6.06613">
        <ele>429</ele>
        <time>2022-01-02T11:33:20.000Z</time>
      </trkpt>
      <trkpt lat="45.45883" lon="6.06606">
        <ele>428.60000610352</ele>
        <time>2022-01-02T11:33:21.000Z</time>
      </trkpt>
      <trkpt lat="45.45872" lon="6.06588">
        <ele>427</ele>
        <time>2022-01-02T11:33:23.000Z</time>
      </trkpt>
      <trkpt lat="45.45859" lon="6.06567">
        <ele>426</ele>
        <time>2022-01-02T11:33:25.000Z</time>
      </trkpt>
      <trkpt lat="45.45839" lon="6.06539">
        <ele>424.60000610352</ele>
        <time>2022-01-02T11:33:28.000Z</time>
      </trkpt>
      <trkpt lat="45.45826" lon="6.06523">
        <ele>423.39999389648</ele>
        <time>2022-01-02T11:33:30.000Z</time>
      </trkpt>
      <trkpt lat="45.4581" lon="6.06506">
        <ele>422.39999389648</ele>
        <time>2022-01-02T11:33:32.000Z</time>
      </trkpt>
      <trkpt lat="45.45784" lon="6.06482">
        <ele>420.79998779297</ele>
        <time>2022-01-02T11:33:35.000Z</time>
      </trkpt>
      <trkpt lat="45.45775" lon="6.06474">
        <ele>420.60000610352</ele>
        <time>2022-01-02T11:33:36.000Z</time>
      </trkpt>
      <trkpt lat="45.45757" lon="6.06457">
        <ele>419.20001220703</ele>
        <time>2022-01-02T11:33:38.000Z</time>
      </trkpt>
      <trkpt lat="45.45742" lon="6.06445">
        <ele>417.79998779297</ele>
        <time>2022-01-02T11:33:40.000Z</time>
      </trkpt>
      <trkpt lat="45.45718" lon="6.06424">
        <ele>416.60000610352</ele>
        <time>2022-01-02T11:33:43.000Z</time>
      </trkpt>
      <trkpt lat="45.45702" lon="6.06411">
        <ele>415.60000610352</ele>
        <time>2022-01-02T11:33:45.000Z</time>
      </trkpt>
      <trkpt lat="45.45687" lon="6.06398">
        <ele>414.60000610352</ele>
        <time>2022-01-02T11:33:47.000Z</time>
      </trkpt>
      <trkpt lat="45.45665" lon="6.06379">
        <ele>413</ele>
        <time>2022-01-02T11:33:50.000Z</time>
      </trkpt>
      <trkpt lat="45.45641" lon="6.06357">
        <ele>411.79998779297</ele>
        <time>2022-01-02T11:33:54.000Z</time>
      </trkpt>
      <trkpt lat="45.45628" lon="6.06346">
        <ele>410.79998779297</ele>
        <time>2022-01-02T11:33:56.000Z</time>
      </trkpt>
      <trkpt lat="45.45622" lon="6.06341">
        <ele>410.39999389648</ele>
        <time>2022-01-02T11:33:57.000Z</time>
      </trkpt>
      <trkpt lat="45.45608" lon="6.06328">
        <ele>409.60000610352</ele>
        <time>2022-01-02T11:33:59.000Z</time>
      </trkpt>
      <trkpt lat="45.45587" lon="6.06312">
        <ele>408.60000610352</ele>
        <time>2022-01-02T11:34:03.000Z</time>
      </trkpt>
      <trkpt lat="45.45578" lon="6.06307">
        <ele>407.39999389648</ele>
        <time>2022-01-02T11:34:05.000Z</time>
      </trkpt>
      <trkpt lat="45.45573" lon="6.06308">
        <ele>407</ele>
        <time>2022-01-02T11:34:06.000Z</time>
      </trkpt>
      <trkpt lat="45.45569" lon="6.06311">
        <ele>406.60000610352</ele>
        <time>2022-01-02T11:34:07.000Z</time>
      </trkpt>
      <trkpt lat="45.45565" lon="6.06315">
        <ele>406.20001220703</ele>
        <time>2022-01-02T11:34:08.000Z</time>
      </trkpt>
      <trkpt lat="45.45561" lon="6.0632">
        <ele>405.79998779297</ele>
        <time>2022-01-02T11:34:09.000Z</time>
      </trkpt>
      <trkpt lat="45.45553" lon="6.0633">
        <ele>405.20001220703</ele>
        <time>2022-01-02T11:34:12.000Z</time>
      </trkpt>
      <trkpt lat="45.45545" lon="6.0634">
        <ele>405</ele>
        <time>2022-01-02T11:34:15.000Z</time>
      </trkpt>
      <trkpt lat="45.45533" lon="6.06358">
        <ele>406.20001220703</ele>
        <time>2022-01-02T11:34:21.000Z</time>
      </trkpt>
      <trkpt lat="45.45528" lon="6.06366">
        <ele>406.39999389648</ele>
        <time>2022-01-02T11:34:23.000Z</time>
      </trkpt>
      <trkpt lat="45.45523" lon="6.06377">
        <ele>407.20001220703</ele>
        <time>2022-01-02T11:34:26.000Z</time>
      </trkpt>
      <trkpt lat="45.45517" lon="6.06394">
        <ele>408.20001220703</ele>
        <time>2022-01-02T11:34:30.000Z</time>
      </trkpt>
      <trkpt lat="45.4551" lon="6.06411">
        <ele>409.39999389648</ele>
        <time>2022-01-02T11:34:34.000Z</time>
      </trkpt>
      <trkpt lat="45.455" lon="6.06425">
        <ele>410.39999389648</ele>
        <time>2022-01-02T11:34:38.000Z</time>
      </trkpt>
      <trkpt lat="45.45497" lon="6.06429">
        <ele>410.60000610352</ele>
        <time>2022-01-02T11:34:39.000Z</time>
      </trkpt>
      <trkpt lat="45.4549" lon="6.06437">
        <ele>411.39999389648</ele>
        <time>2022-01-02T11:34:42.000Z</time>
      </trkpt>
      <trkpt lat="45.45486" lon="6.06446">
        <ele>411.60000610352</ele>
        <time>2022-01-02T11:34:44.000Z</time>
      </trkpt>
      <trkpt lat="45.45485" lon="6.06451">
        <ele>411.79998779297</ele>
        <time>2022-01-02T11:34:45.000Z</time>
      </trkpt>
      <trkpt lat="45.45486" lon="6.06469">
        <ele>413</ele>
        <time>2022-01-02T11:34:49.000Z</time>
      </trkpt>
      <trkpt lat="45.45487" lon="6.06495">
        <ele>414</ele>
        <time>2022-01-02T11:34:55.000Z</time>
      </trkpt>
      <trkpt lat="45.45487" lon="6.06508">
        <ele>414.79998779297</ele>
        <time>2022-01-02T11:34:58.000Z</time>
      </trkpt>
      <trkpt lat="45.45488" lon="6.0652">
        <ele>415.20001220703</ele>
        <time>2022-01-02T11:35:01.000Z</time>
      </trkpt>
      <trkpt lat="45.45487" lon="6.06528">
        <ele>415.79998779297</ele>
        <time>2022-01-02T11:35:03.000Z</time>
      </trkpt>
      <trkpt lat="45.45482" lon="6.06533">
        <ele>416.39999389648</ele>
        <time>2022-01-02T11:35:05.000Z</time>
      </trkpt>
      <trkpt lat="45.45479" lon="6.06534">
        <ele>416.60000610352</ele>
        <time>2022-01-02T11:35:06.000Z</time>
      </trkpt>
      <trkpt lat="45.45466" lon="6.0653">
        <ele>417.20001220703</ele>
        <time>2022-01-02T11:35:10.000Z</time>
      </trkpt>
      <trkpt lat="45.45463" lon="6.06527">
        <ele>417.60000610352</ele>
        <time>2022-01-02T11:35:11.000Z</time>
      </trkpt>
      <trkpt lat="45.4545" lon="6.06511">
        <ele>418.60000610352</ele>
        <time>2022-01-02T11:35:16.000Z</time>
      </trkpt>
      <trkpt lat="45.45448" lon="6.06508">
        <ele>418.60000610352</ele>
        <time>2022-01-02T11:35:17.000Z</time>
      </trkpt>
      <trkpt lat="45.45437" lon="6.065">
        <ele>419.60000610352</ele>
        <time>2022-01-02T11:35:21.000Z</time>
      </trkpt>
      <trkpt lat="45.45431" lon="6.06495">
        <ele>419.79998779297</ele>
        <time>2022-01-02T11:35:23.000Z</time>
      </trkpt>
      <trkpt lat="45.45423" lon="6.06491">
        <ele>420.79998779297</ele>
        <time>2022-01-02T11:35:26.000Z</time>
      </trkpt>
      <trkpt lat="45.45412" lon="6.06485">
        <ele>421.20001220703</ele>
        <time>2022-01-02T11:35:29.000Z</time>
      </trkpt>
      <trkpt lat="45.45406" lon="6.06481">
        <ele>421.79998779297</ele>
        <time>2022-01-02T11:35:31.000Z</time>
      </trkpt>
      <trkpt lat="45.45397" lon="6.06471">
        <ele>422.39999389648</ele>
        <time>2022-01-02T11:35:34.000Z</time>
      </trkpt>
      <trkpt lat="45.45392" lon="6.06463">
        <ele>422.79998779297</ele>
        <time>2022-01-02T11:35:36.000Z</time>
      </trkpt>
      <trkpt lat="45.45391" lon="6.06454">
        <ele>423.20001220703</ele>
        <time>2022-01-02T11:35:38.000Z</time>
      </trkpt>
      <trkpt lat="45.45391" lon="6.0645">
        <ele>423.60000610352</ele>
        <time>2022-01-02T11:35:39.000Z</time>
      </trkpt>
      <trkpt lat="45.45391" lon="6.06443">
        <ele>424</ele>
        <time>2022-01-02T11:35:41.000Z</time>
      </trkpt>
      <trkpt lat="45.45391" lon="6.06435">
        <ele>424.20001220703</ele>
        <time>2022-01-02T11:35:43.000Z</time>
      </trkpt>
      <trkpt lat="45.45391" lon="6.06431">
        <ele>424.60000610352</ele>
        <time>2022-01-02T11:35:44.000Z</time>
      </trkpt>
      <trkpt lat="45.45389" lon="6.06422">
        <ele>425</ele>
        <time>2022-01-02T11:35:46.000Z</time>
      </trkpt>
      <trkpt lat="45.45382" lon="6.06403">
        <ele>425.79998779297</ele>
        <time>2022-01-02T11:35:50.000Z</time>
      </trkpt>
      <trkpt lat="45.45381" lon="6.06399">
        <ele>426.20001220703</ele>
        <time>2022-01-02T11:35:51.000Z</time>
      </trkpt>
      <trkpt lat="45.45374" lon="6.06379">
        <ele>427.20001220703</ele>
        <time>2022-01-02T11:35:56.000Z</time>
      </trkpt>
      <trkpt lat="45.4537" lon="6.06367">
        <ele>427.60000610352</ele>
        <time>2022-01-02T11:35:59.000Z</time>
      </trkpt>
      <trkpt lat="45.45361" lon="6.06353">
        <ele>428.39999389648</ele>
        <time>2022-01-02T11:36:03.000Z</time>
      </trkpt>
      <trkpt lat="45.45351" lon="6.06336">
        <ele>429.79998779297</ele>
        <time>2022-01-02T11:36:08.000Z</time>
      </trkpt>
      <trkpt lat="45.4534" lon="6.06316">
        <ele>430.79998779297</ele>
        <time>2022-01-02T11:36:14.000Z</time>
      </trkpt>
      <trkpt lat="45.45335" lon="6.06304">
        <ele>431.39999389648</ele>
        <time>2022-01-02T11:36:17.000Z</time>
      </trkpt>
      <trkpt lat="45.45326" lon="6.0629">
        <ele>432</ele>
        <time>2022-01-02T11:36:21.000Z</time>
      </trkpt>
      <trkpt lat="45.45315" lon="6.06274">
        <ele>432.60000610352</ele>
        <time>2022-01-02T11:36:26.000Z</time>
      </trkpt>
      <trkpt lat="45.45307" lon="6.06262">
        <ele>433</ele>
        <time>2022-01-02T11:36:29.000Z</time>
      </trkpt>
      <trkpt lat="45.45298" lon="6.06251">
        <ele>433.79998779297</ele>
        <time>2022-01-02T11:36:33.000Z</time>
      </trkpt>
      <trkpt lat="45.45293" lon="6.06245">
        <ele>434.20001220703</ele>
        <time>2022-01-02T11:36:35.000Z</time>
      </trkpt>
      <trkpt lat="45.45279" lon="6.06233">
        <ele>435.20001220703</ele>
        <time>2022-01-02T11:36:40.000Z</time>
      </trkpt>
      <trkpt lat="45.45276" lon="6.06231">
        <ele>435.20001220703</ele>
        <time>2022-01-02T11:36:41.000Z</time>
      </trkpt>
      <trkpt lat="45.4526" lon="6.0622">
        <ele>436.39999389648</ele>
        <time>2022-01-02T11:36:47.000Z</time>
      </trkpt>
      <trkpt lat="45.45256" lon="6.06219">
        <ele>436.60000610352</ele>
        <time>2022-01-02T11:36:48.000Z</time>
      </trkpt>
      <trkpt lat="45.45244" lon="6.06218">
        <ele>437.39999389648</ele>
        <time>2022-01-02T11:36:52.000Z</time>
      </trkpt>
      <trkpt lat="45.45241" lon="6.0622">
        <ele>437.79998779297</ele>
        <time>2022-01-02T11:36:53.000Z</time>
      </trkpt>
      <trkpt lat="45.45231" lon="6.06227">
        <ele>438.60000610352</ele>
        <time>2022-01-02T11:36:56.000Z</time>
      </trkpt>
      <trkpt lat="45.45218" lon="6.06231">
        <ele>439.39999389648</ele>
        <time>2022-01-02T11:37:00.000Z</time>
      </trkpt>
      <trkpt lat="45.45215" lon="6.06231">
        <ele>439.60000610352</ele>
        <time>2022-01-02T11:37:01.000Z</time>
      </trkpt>
      <trkpt lat="45.45195" lon="6.0623">
        <ele>440.79998779297</ele>
        <time>2022-01-02T11:37:07.000Z</time>
      </trkpt>
      <trkpt lat="45.45184" lon="6.0623">
        <ele>441.20001220703</ele>
        <time>2022-01-02T11:37:10.000Z</time>
      </trkpt>
      <trkpt lat="45.45165" lon="6.06233">
        <ele>442</ele>
        <time>2022-01-02T11:37:15.000Z</time>
      </trkpt>
      <trkpt lat="45.45151" lon="6.06236">
        <ele>442.79998779297</ele>
        <time>2022-01-02T11:37:19.000Z</time>
      </trkpt>
      <trkpt lat="45.45144" lon="6.06238">
        <ele>443.20001220703</ele>
        <time>2022-01-02T11:37:21.000Z</time>
      </trkpt>
      <trkpt lat="45.45124" lon="6.06243">
        <ele>443.60000610352</ele>
        <time>2022-01-02T11:37:26.000Z</time>
      </trkpt>
      <trkpt lat="45.45106" lon="6.0625">
        <ele>444.20001220703</ele>
        <time>2022-01-02T11:37:31.000Z</time>
      </trkpt>
      <trkpt lat="45.45092" lon="6.06257">
        <ele>445.20001220703</ele>
        <time>2022-01-02T11:37:35.000Z</time>
      </trkpt>
      <trkpt lat="45.45088" lon="6.06259">
        <ele>445.20001220703</ele>
        <time>2022-01-02T11:37:36.000Z</time>
      </trkpt>
      <trkpt lat="45.45072" lon="6.06272">
        <ele>446.20001220703</ele>
        <time>2022-01-02T11:37:41.000Z</time>
      </trkpt>
      <trkpt lat="45.45069" lon="6.06275">
        <ele>446.60000610352</ele>
        <time>2022-01-02T11:37:42.000Z</time>
      </trkpt>
      <trkpt lat="45.45057" lon="6.0629">
        <ele>447.60000610352</ele>
        <time>2022-01-02T11:37:46.000Z</time>
      </trkpt>
      <trkpt lat="45.45044" lon="6.06309">
        <ele>448.79998779297</ele>
        <time>2022-01-02T11:37:51.000Z</time>
      </trkpt>
      <trkpt lat="45.45034" lon="6.06325">
        <ele>449.79998779297</ele>
        <time>2022-01-02T11:37:55.000Z</time>
      </trkpt>
      <trkpt lat="45.45022" lon="6.06344">
        <ele>451</ele>
        <time>2022-01-02T11:38:00.000Z</time>
      </trkpt>
      <trkpt lat="45.45011" lon="6.06364">
        <ele>452</ele>
        <time>2022-01-02T11:38:05.000Z</time>
      </trkpt>
      <trkpt lat="45.45001" lon="6.06381">
        <ele>453</ele>
        <time>2022-01-02T11:38:09.000Z</time>
      </trkpt>
      <trkpt lat="45.44994" lon="6.06394">
        <ele>453.79998779297</ele>
        <time>2022-01-02T11:38:12.000Z</time>
      </trkpt>
      <trkpt lat="45.44987" lon="6.06406">
        <ele>454</ele>
        <time>2022-01-02T11:38:15.000Z</time>
      </trkpt>
      <trkpt lat="45.44973" lon="6.0643">
        <ele>455</ele>
        <time>2022-01-02T11:38:21.000Z</time>
      </trkpt>
      <trkpt lat="45.4497" lon="6.06434">
        <ele>455.39999389648</ele>
        <time>2022-01-02T11:38:22.000Z</time>
      </trkpt>
      <trkpt lat="45.44966" lon="6.06443">
        <ele>455.60000610352</ele>
        <time>2022-01-02T11:38:24.000Z</time>
      </trkpt>
      <trkpt lat="45.44957" lon="6.06459">
        <ele>456.39999389648</ele>
        <time>2022-01-02T11:38:28.000Z</time>
      </trkpt>
      <trkpt lat="45.44948" lon="6.06473">
        <ele>457.20001220703</ele>
        <time>2022-01-02T11:38:32.000Z</time>
      </trkpt>
      <trkpt lat="45.44946" lon="6.06476">
        <ele>457.39999389648</ele>
        <time>2022-01-02T11:38:33.000Z</time>
      </trkpt>
      <trkpt lat="45.44936" lon="6.06493">
        <ele>458.39999389648</ele>
        <time>2022-01-02T11:38:37.000Z</time>
      </trkpt>
      <trkpt lat="45.44926" lon="6.0651">
        <ele>459.20001220703</ele>
        <time>2022-01-02T11:38:41.000Z</time>
      </trkpt>
      <trkpt lat="45.44922" lon="6.06517">
        <ele>460</ele>
        <time>2022-01-02T11:38:43.000Z</time>
      </trkpt>
      <trkpt lat="45.44911" lon="6.06539">
        <ele>461.20001220703</ele>
        <time>2022-01-02T11:38:48.000Z</time>
      </trkpt>
      <trkpt lat="45.44907" lon="6.06549">
        <ele>461.20001220703</ele>
        <time>2022-01-02T11:38:50.000Z</time>
      </trkpt>
      <trkpt lat="45.449" lon="6.06576">
        <ele>462.20001220703</ele>
        <time>2022-01-02T11:38:55.000Z</time>
      </trkpt>
      <trkpt lat="45.44896" lon="6.06588">
        <ele>462.39999389648</ele>
        <time>2022-01-02T11:38:57.000Z</time>
      </trkpt>
      <trkpt lat="45.44881" lon="6.06635">
        <ele>463.20001220703</ele>
        <time>2022-01-02T11:39:06.000Z</time>
      </trkpt>
      <trkpt lat="45.44868" lon="6.06676">
        <ele>464.60000610352</ele>
        <time>2022-01-02T11:39:14.000Z</time>
      </trkpt>
      <trkpt lat="45.44867" lon="6.0668">
        <ele>464.60000610352</ele>
        <time>2022-01-02T11:39:15.000Z</time>
      </trkpt>
      <trkpt lat="45.44854" lon="6.0672">
        <ele>465.60000610352</ele>
        <time>2022-01-02T11:39:23.000Z</time>
      </trkpt>
      <trkpt lat="45.44852" lon="6.06724">
        <ele>465.79998779297</ele>
        <time>2022-01-02T11:39:24.000Z</time>
      </trkpt>
      <trkpt lat="45.44843" lon="6.06753">
        <ele>467</ele>
        <time>2022-01-02T11:39:30.000Z</time>
      </trkpt>
      <trkpt lat="45.4484" lon="6.06761">
        <ele>467.39999389648</ele>
        <time>2022-01-02T11:39:32.000Z</time>
      </trkpt>
      <trkpt lat="45.44835" lon="6.06775">
        <ele>468</ele>
        <time>2022-01-02T11:39:35.000Z</time>
      </trkpt>
      <trkpt lat="45.44826" lon="6.06799">
        <ele>468.79998779297</ele>
        <time>2022-01-02T11:39:40.000Z</time>
      </trkpt>
      <trkpt lat="45.44825" lon="6.06804">
        <ele>469</ele>
        <time>2022-01-02T11:39:41.000Z</time>
      </trkpt>
      <trkpt lat="45.44815" lon="6.06834">
        <ele>470.20001220703</ele>
        <time>2022-01-02T11:39:47.000Z</time>
      </trkpt>
      <trkpt lat="45.44814" lon="6.0684">
        <ele>470.20001220703</ele>
        <time>2022-01-02T11:39:48.000Z</time>
      </trkpt>
      <trkpt lat="45.44803" lon="6.06877">
        <ele>470.79998779297</ele>
        <time>2022-01-02T11:39:55.000Z</time>
      </trkpt>
      <trkpt lat="45.44798" lon="6.06898">
        <ele>471.20001220703</ele>
        <time>2022-01-02T11:39:59.000Z</time>
      </trkpt>
      <trkpt lat="45.44795" lon="6.0691">
        <ele>471.39999389648</ele>
        <time>2022-01-02T11:40:01.000Z</time>
      </trkpt>
      <trkpt lat="45.44788" lon="6.06945">
        <ele>471.79998779297</ele>
        <time>2022-01-02T11:40:07.000Z</time>
      </trkpt>
      <trkpt lat="45.44777" lon="6.06988">
        <ele>472.60000610352</ele>
        <time>2022-01-02T11:40:15.000Z</time>
      </trkpt>
      <trkpt lat="45.44776" lon="6.06994">
        <ele>472.60000610352</ele>
        <time>2022-01-02T11:40:16.000Z</time>
      </trkpt>
      <trkpt lat="45.44769" lon="6.07027">
        <ele>473.60000610352</ele>
        <time>2022-01-02T11:40:22.000Z</time>
      </trkpt>
      <trkpt lat="45.44765" lon="6.07042">
        <ele>473.79998779297</ele>
        <time>2022-01-02T11:40:25.000Z</time>
      </trkpt>
      <trkpt lat="45.44758" lon="6.0707">
        <ele>474.60000610352</ele>
        <time>2022-01-02T11:40:30.000Z</time>
      </trkpt>
      <trkpt lat="45.44754" lon="6.07085">
        <ele>475</ele>
        <time>2022-01-02T11:40:33.000Z</time>
      </trkpt>
      <trkpt lat="45.44752" lon="6.07094">
        <ele>475.79998779297</ele>
        <time>2022-01-02T11:40:35.000Z</time>
      </trkpt>
      <trkpt lat="45.44744" lon="6.07125">
        <ele>476.79998779297</ele>
        <time>2022-01-02T11:40:41.000Z</time>
      </trkpt>
      <trkpt lat="45.44743" lon="6.07131">
        <ele>477</ele>
        <time>2022-01-02T11:40:42.000Z</time>
      </trkpt>
      <trkpt lat="45.44738" lon="6.0715">
        <ele>477.39999389648</ele>
        <time>2022-01-02T11:40:45.000Z</time>
      </trkpt>
      <trkpt lat="45.44734" lon="6.07162">
        <ele>477.39999389648</ele>
        <time>2022-01-02T11:40:47.000Z</time>
      </trkpt>
      <trkpt lat="45.44729" lon="6.07176">
        <ele>477.39999389648</ele>
        <time>2022-01-02T11:40:49.000Z</time>
      </trkpt>
      <trkpt lat="45.44721" lon="6.07194">
        <ele>477.39999389648</ele>
        <time>2022-01-02T11:40:52.000Z</time>
      </trkpt>
      <trkpt lat="45.44702" lon="6.07249">
        <ele>477.79998779297</ele>
        <time>2022-01-02T11:41:01.000Z</time>
      </trkpt>
      <trkpt lat="45.44699" lon="6.07254">
        <ele>477.79998779297</ele>
        <time>2022-01-02T11:41:02.000Z</time>
      </trkpt>
      <trkpt lat="45.44696" lon="6.07263">
        <ele>478.20001220703</ele>
        <time>2022-01-02T11:41:04.000Z</time>
      </trkpt>
      <trkpt lat="45.44683" lon="6.07294">
        <ele>478.79998779297</ele>
        <time>2022-01-02T11:41:10.000Z</time>
      </trkpt>
      <trkpt lat="45.4468" lon="6.07299">
        <ele>479.20001220703</ele>
        <time>2022-01-02T11:41:11.000Z</time>
      </trkpt>
      <trkpt lat="45.44664" lon="6.0734">
        <ele>480</ele>
        <time>2022-01-02T11:41:19.000Z</time>
      </trkpt>
      <trkpt lat="45.44655" lon="6.07365">
        <ele>480.20001220703</ele>
        <time>2022-01-02T11:41:23.000Z</time>
      </trkpt>
      <trkpt lat="45.44653" lon="6.07369">
        <ele>480.20001220703</ele>
        <time>2022-01-02T11:41:24.000Z</time>
      </trkpt>
      <trkpt lat="45.44644" lon="6.07396">
        <ele>480.39999389648</ele>
        <time>2022-01-02T11:41:28.000Z</time>
      </trkpt>
      <trkpt lat="45.44621" lon="6.07461">
        <ele>480.20001220703</ele>
        <time>2022-01-02T11:41:38.000Z</time>
      </trkpt>
      <trkpt lat="45.44608" lon="6.07511">
        <ele>481.20001220703</ele>
        <time>2022-01-02T11:41:46.000Z</time>
      </trkpt>
      <trkpt lat="45.44597" lon="6.07571">
        <ele>481.20001220703</ele>
        <time>2022-01-02T11:41:54.000Z</time>
      </trkpt>
      <trkpt lat="45.44592" lon="6.07629">
        <ele>480.60000610352</ele>
        <time>2022-01-02T11:42:02.000Z</time>
      </trkpt>
      <trkpt lat="45.44585" lon="6.07697">
        <ele>480.60000610352</ele>
        <time>2022-01-02T11:42:11.000Z</time>
      </trkpt>
      <trkpt lat="45.44585" lon="6.07738">
        <ele>480.60000610352</ele>
        <time>2022-01-02T11:42:17.000Z</time>
      </trkpt>
      <trkpt lat="45.44588" lon="6.07795">
        <ele>480.39999389648</ele>
        <time>2022-01-02T11:42:25.000Z</time>
      </trkpt>
      <trkpt lat="45.44592" lon="6.07848">
        <ele>479.60000610352</ele>
        <time>2022-01-02T11:42:32.000Z</time>
      </trkpt>
      <trkpt lat="45.44593" lon="6.07862">
        <ele>479.79998779297</ele>
        <time>2022-01-02T11:42:34.000Z</time>
      </trkpt>
      <trkpt lat="45.44599" lon="6.07924">
        <ele>479.39999389648</ele>
        <time>2022-01-02T11:42:42.000Z</time>
      </trkpt>
      <trkpt lat="45.44609" lon="6.07988">
        <ele>479.39999389648</ele>
        <time>2022-01-02T11:42:51.000Z</time>
      </trkpt>
      <trkpt lat="45.44619" lon="6.08053">
        <ele>478.79998779297</ele>
        <time>2022-01-02T11:42:59.000Z</time>
      </trkpt>
      <trkpt lat="45.4462" lon="6.08059">
        <ele>478.79998779297</ele>
        <time>2022-01-02T11:43:00.000Z</time>
      </trkpt>
      <trkpt lat="45.4463" lon="6.08123">
        <ele>478</ele>
        <time>2022-01-02T11:43:08.000Z</time>
      </trkpt>
      <trkpt lat="45.44632" lon="6.08132">
        <ele>477.79998779297</ele>
        <time>2022-01-02T11:43:09.000Z</time>
      </trkpt>
      <trkpt lat="45.44639" lon="6.08177">
        <ele>477</ele>
        <time>2022-01-02T11:43:14.000Z</time>
      </trkpt>
      <trkpt lat="45.4464" lon="6.08187">
        <ele>476.79998779297</ele>
        <time>2022-01-02T11:43:15.000Z</time>
      </trkpt>
      <trkpt lat="45.44645" lon="6.08218">
        <ele>475.60000610352</ele>
        <time>2022-01-02T11:43:18.000Z</time>
      </trkpt>
      <trkpt lat="45.44649" lon="6.08246">
        <ele>474.79998779297</ele>
        <time>2022-01-02T11:43:21.000Z</time>
      </trkpt>
      <trkpt lat="45.44651" lon="6.08254">
        <ele>474.39999389648</ele>
        <time>2022-01-02T11:43:22.000Z</time>
      </trkpt>
      <trkpt lat="45.44659" lon="6.0831">
        <ele>473.60000610352</ele>
        <time>2022-01-02T11:43:28.000Z</time>
      </trkpt>
      <trkpt lat="45.44661" lon="6.08317">
        <ele>473</ele>
        <time>2022-01-02T11:43:29.000Z</time>
      </trkpt>
      <trkpt lat="45.4467" lon="6.08364">
        <ele>472.60000610352</ele>
        <time>2022-01-02T11:43:34.000Z</time>
      </trkpt>
      <trkpt lat="45.4468" lon="6.08417">
        <ele>471.39999389648</ele>
        <time>2022-01-02T11:43:39.000Z</time>
      </trkpt>
      <trkpt lat="45.44684" lon="6.08454">
        <ele>470.39999389648</ele>
        <time>2022-01-02T11:43:42.000Z</time>
      </trkpt>
      <trkpt lat="45.44687" lon="6.08481">
        <ele>469.20001220703</ele>
        <time>2022-01-02T11:43:44.000Z</time>
      </trkpt>
      <trkpt lat="45.44688" lon="6.08491">
        <ele>468.60000610352</ele>
        <time>2022-01-02T11:43:45.000Z</time>
      </trkpt>
      <trkpt lat="45.44689" lon="6.08505">
        <ele>468</ele>
        <time>2022-01-02T11:43:46.000Z</time>
      </trkpt>
      <trkpt lat="45.44692" lon="6.08535">
        <ele>466.60000610352</ele>
        <time>2022-01-02T11:43:48.000Z</time>
      </trkpt>
      <trkpt lat="45.44696" lon="6.08574">
        <ele>464.79998779297</ele>
        <time>2022-01-02T11:43:51.000Z</time>
      </trkpt>
      <trkpt lat="45.44698" lon="6.08602">
        <ele>463.60000610352</ele>
        <time>2022-01-02T11:43:53.000Z</time>
      </trkpt>
      <trkpt lat="45.44701" lon="6.08644">
        <ele>462</ele>
        <time>2022-01-02T11:43:56.000Z</time>
      </trkpt>
      <trkpt lat="45.44701" lon="6.08671">
        <ele>460.39999389648</ele>
        <time>2022-01-02T11:43:58.000Z</time>
      </trkpt>
      <trkpt lat="45.44702" lon="6.08698">
        <ele>459.39999389648</ele>
        <time>2022-01-02T11:44:00.000Z</time>
      </trkpt>
      <trkpt lat="45.44704" lon="6.08725">
        <ele>458.39999389648</ele>
        <time>2022-01-02T11:44:02.000Z</time>
      </trkpt>
      <trkpt lat="45.44707" lon="6.08738">
        <ele>457.60000610352</ele>
        <time>2022-01-02T11:44:03.000Z</time>
      </trkpt>
      <trkpt lat="45.44711" lon="6.08753">
        <ele>457</ele>
        <time>2022-01-02T11:44:04.000Z</time>
      </trkpt>
      <trkpt lat="45.44723" lon="6.08776">
        <ele>456</ele>
        <time>2022-01-02T11:44:06.000Z</time>
      </trkpt>
      <trkpt lat="45.44737" lon="6.08798">
        <ele>454.79998779297</ele>
        <time>2022-01-02T11:44:08.000Z</time>
      </trkpt>
      <trkpt lat="45.44751" lon="6.08819">
        <ele>453.79998779297</ele>
        <time>2022-01-02T11:44:10.000Z</time>
      </trkpt>
      <trkpt lat="45.44765" lon="6.08835">
        <ele>452.60000610352</ele>
        <time>2022-01-02T11:44:12.000Z</time>
      </trkpt>
      <trkpt lat="45.44773" lon="6.08843">
        <ele>451.79998779297</ele>
        <time>2022-01-02T11:44:13.000Z</time>
      </trkpt>
      <trkpt lat="45.44781" lon="6.08854">
        <ele>451.39999389648</ele>
        <time>2022-01-02T11:44:14.000Z</time>
      </trkpt>
      <trkpt lat="45.44788" lon="6.08863">
        <ele>450.20001220703</ele>
        <time>2022-01-02T11:44:15.000Z</time>
      </trkpt>
      <trkpt lat="45.44793" lon="6.08873">
        <ele>449</ele>
        <time>2022-01-02T11:44:16.000Z</time>
      </trkpt>
      <trkpt lat="45.44796" lon="6.08886">
        <ele>448.20001220703</ele>
        <time>2022-01-02T11:44:17.000Z</time>
      </trkpt>
      <trkpt lat="45.44796" lon="6.08896">
        <ele>447.20001220703</ele>
        <time>2022-01-02T11:44:18.000Z</time>
      </trkpt>
      <trkpt lat="45.44795" lon="6.08913">
        <ele>446.60000610352</ele>
        <time>2022-01-02T11:44:19.000Z</time>
      </trkpt>
      <trkpt lat="45.44794" lon="6.08926">
        <ele>445.60000610352</ele>
        <time>2022-01-02T11:44:20.000Z</time>
      </trkpt>
      <trkpt lat="45.44793" lon="6.0894">
        <ele>444.39999389648</ele>
        <time>2022-01-02T11:44:21.000Z</time>
      </trkpt>
      <trkpt lat="45.44792" lon="6.08954">
        <ele>444</ele>
        <time>2022-01-02T11:44:22.000Z</time>
      </trkpt>
      <trkpt lat="45.44793" lon="6.08968">
        <ele>443</ele>
        <time>2022-01-02T11:44:23.000Z</time>
      </trkpt>
      <trkpt lat="45.44795" lon="6.08983">
        <ele>442.39999389648</ele>
        <time>2022-01-02T11:44:24.000Z</time>
      </trkpt>
      <trkpt lat="45.44799" lon="6.08996">
        <ele>440.79998779297</ele>
        <time>2022-01-02T11:44:25.000Z</time>
      </trkpt>
      <trkpt lat="45.44802" lon="6.09007">
        <ele>439.20001220703</ele>
        <time>2022-01-02T11:44:26.000Z</time>
      </trkpt>
      <trkpt lat="45.44813" lon="6.09035">
        <ele>437.20001220703</ele>
        <time>2022-01-02T11:44:28.000Z</time>
      </trkpt>
      <trkpt lat="45.44818" lon="6.09048">
        <ele>436.39999389648</ele>
        <time>2022-01-02T11:44:29.000Z</time>
      </trkpt>
      <trkpt lat="45.44824" lon="6.09061">
        <ele>434.79998779297</ele>
        <time>2022-01-02T11:44:30.000Z</time>
      </trkpt>
      <trkpt lat="45.4483" lon="6.09075">
        <ele>433.20001220703</ele>
        <time>2022-01-02T11:44:31.000Z</time>
      </trkpt>
      <trkpt lat="45.44843" lon="6.09101">
        <ele>430.79998779297</ele>
        <time>2022-01-02T11:44:33.000Z</time>
      </trkpt>
      <trkpt lat="45.44858" lon="6.09128">
        <ele>428.79998779297</ele>
        <time>2022-01-02T11:44:35.000Z</time>
      </trkpt>
      <trkpt lat="45.44865" lon="6.0914">
        <ele>427.20001220703</ele>
        <time>2022-01-02T11:44:36.000Z</time>
      </trkpt>
      <trkpt lat="45.44883" lon="6.09167">
        <ele>425.60000610352</ele>
        <time>2022-01-02T11:44:38.000Z</time>
      </trkpt>
      <trkpt lat="45.449" lon="6.0919">
        <ele>423.39999389648</ele>
        <time>2022-01-02T11:44:40.000Z</time>
      </trkpt>
      <trkpt lat="45.44909" lon="6.09201">
        <ele>422.20001220703</ele>
        <time>2022-01-02T11:44:41.000Z</time>
      </trkpt>
      <trkpt lat="45.44925" lon="6.09222">
        <ele>420.39999389648</ele>
        <time>2022-01-02T11:44:43.000Z</time>
      </trkpt>
      <trkpt lat="45.44942" lon="6.09243">
        <ele>419</ele>
        <time>2022-01-02T11:44:45.000Z</time>
      </trkpt>
      <trkpt lat="45.44959" lon="6.09263">
        <ele>417.60000610352</ele>
        <time>2022-01-02T11:44:47.000Z</time>
      </trkpt>
      <trkpt lat="45.44968" lon="6.09273">
        <ele>416.60000610352</ele>
        <time>2022-01-02T11:44:48.000Z</time>
      </trkpt>
      <trkpt lat="45.44976" lon="6.09283">
        <ele>416.20001220703</ele>
        <time>2022-01-02T11:44:49.000Z</time>
      </trkpt>
      <trkpt lat="45.44985" lon="6.09292">
        <ele>415.20001220703</ele>
        <time>2022-01-02T11:44:50.000Z</time>
      </trkpt>
      <trkpt lat="45.45001" lon="6.09309">
        <ele>414</ele>
        <time>2022-01-02T11:44:52.000Z</time>
      </trkpt>
      <trkpt lat="45.45018" lon="6.09328">
        <ele>413</ele>
        <time>2022-01-02T11:44:54.000Z</time>
      </trkpt>
      <trkpt lat="45.45026" lon="6.09337">
        <ele>411.79998779297</ele>
        <time>2022-01-02T11:44:55.000Z</time>
      </trkpt>
      <trkpt lat="45.45045" lon="6.09357">
        <ele>410.79998779297</ele>
        <time>2022-01-02T11:44:57.000Z</time>
      </trkpt>
      <trkpt lat="45.45054" lon="6.09366">
        <ele>410</ele>
        <time>2022-01-02T11:44:58.000Z</time>
      </trkpt>
      <trkpt lat="45.45062" lon="6.09374">
        <ele>409.60000610352</ele>
        <time>2022-01-02T11:44:59.000Z</time>
      </trkpt>
      <trkpt lat="45.45079" lon="6.09388">
        <ele>408.60000610352</ele>
        <time>2022-01-02T11:45:01.000Z</time>
      </trkpt>
      <trkpt lat="45.45088" lon="6.09395">
        <ele>407.39999389648</ele>
        <time>2022-01-02T11:45:02.000Z</time>
      </trkpt>
      <trkpt lat="45.45109" lon="6.09408">
        <ele>406</ele>
        <time>2022-01-02T11:45:04.000Z</time>
      </trkpt>
      <trkpt lat="45.45128" lon="6.0942">
        <ele>404.79998779297</ele>
        <time>2022-01-02T11:45:06.000Z</time>
      </trkpt>
      <trkpt lat="45.45145" lon="6.09434">
        <ele>403.60000610352</ele>
        <time>2022-01-02T11:45:08.000Z</time>
      </trkpt>
      <trkpt lat="45.45165" lon="6.09462">
        <ele>402.60000610352</ele>
        <time>2022-01-02T11:45:11.000Z</time>
      </trkpt>
      <trkpt lat="45.45173" lon="6.09475">
        <ele>402</ele>
        <time>2022-01-02T11:45:12.000Z</time>
      </trkpt>
      <trkpt lat="45.45187" lon="6.09496">
        <ele>401.20001220703</ele>
        <time>2022-01-02T11:45:14.000Z</time>
      </trkpt>
      <trkpt lat="45.452" lon="6.0952">
        <ele>400</ele>
        <time>2022-01-02T11:45:16.000Z</time>
      </trkpt>
      <trkpt lat="45.45214" lon="6.09544">
        <ele>399</ele>
        <time>2022-01-02T11:45:18.000Z</time>
      </trkpt>
      <trkpt lat="45.45226" lon="6.09569">
        <ele>397.60000610352</ele>
        <time>2022-01-02T11:45:20.000Z</time>
      </trkpt>
      <trkpt lat="45.45238" lon="6.09592">
        <ele>396</ele>
        <time>2022-01-02T11:45:22.000Z</time>
      </trkpt>
      <trkpt lat="45.45245" lon="6.09602">
        <ele>395.39999389648</ele>
        <time>2022-01-02T11:45:23.000Z</time>
      </trkpt>
      <trkpt lat="45.45252" lon="6.09612">
        <ele>394.39999389648</ele>
        <time>2022-01-02T11:45:24.000Z</time>
      </trkpt>
      <trkpt lat="45.45259" lon="6.09623">
        <ele>393.39999389648</ele>
        <time>2022-01-02T11:45:25.000Z</time>
      </trkpt>
      <trkpt lat="45.45268" lon="6.0965">
        <ele>391.79998779297</ele>
        <time>2022-01-02T11:45:27.000Z</time>
      </trkpt>
      <trkpt lat="45.45275" lon="6.0968">
        <ele>390.39999389648</ele>
        <time>2022-01-02T11:45:29.000Z</time>
      </trkpt>
      <trkpt lat="45.45279" lon="6.09695">
        <ele>389</ele>
        <time>2022-01-02T11:45:30.000Z</time>
      </trkpt>
      <trkpt lat="45.45286" lon="6.09724">
        <ele>387.60000610352</ele>
        <time>2022-01-02T11:45:32.000Z</time>
      </trkpt>
      <trkpt lat="45.45296" lon="6.09752">
        <ele>385.60000610352</ele>
        <time>2022-01-02T11:45:34.000Z</time>
      </trkpt>
      <trkpt lat="45.45302" lon="6.09765">
        <ele>384.39999389648</ele>
        <time>2022-01-02T11:45:35.000Z</time>
      </trkpt>
      <trkpt lat="45.45309" lon="6.09778">
        <ele>383.79998779297</ele>
        <time>2022-01-02T11:45:36.000Z</time>
      </trkpt>
      <trkpt lat="45.45315" lon="6.09791">
        <ele>382.39999389648</ele>
        <time>2022-01-02T11:45:37.000Z</time>
      </trkpt>
      <trkpt lat="45.45327" lon="6.09816">
        <ele>380.79998779297</ele>
        <time>2022-01-02T11:45:39.000Z</time>
      </trkpt>
      <trkpt lat="45.45338" lon="6.0984">
        <ele>378.79998779297</ele>
        <time>2022-01-02T11:45:41.000Z</time>
      </trkpt>
      <trkpt lat="45.45344" lon="6.09852">
        <ele>377.39999389648</ele>
        <time>2022-01-02T11:45:42.000Z</time>
      </trkpt>
      <trkpt lat="45.45356" lon="6.09875">
        <ele>375.39999389648</ele>
        <time>2022-01-02T11:45:44.000Z</time>
      </trkpt>
      <trkpt lat="45.45367" lon="6.09898">
        <ele>373.60000610352</ele>
        <time>2022-01-02T11:45:46.000Z</time>
      </trkpt>
      <trkpt lat="45.45377" lon="6.09921">
        <ele>372</ele>
        <time>2022-01-02T11:45:48.000Z</time>
      </trkpt>
      <trkpt lat="45.45382" lon="6.09931">
        <ele>370.39999389648</ele>
        <time>2022-01-02T11:45:49.000Z</time>
      </trkpt>
      <trkpt lat="45.45391" lon="6.09952">
        <ele>368.20001220703</ele>
        <time>2022-01-02T11:45:51.000Z</time>
      </trkpt>
      <trkpt lat="45.45396" lon="6.09962">
        <ele>367</ele>
        <time>2022-01-02T11:45:52.000Z</time>
      </trkpt>
      <trkpt lat="45.45403" lon="6.09982">
        <ele>365.20001220703</ele>
        <time>2022-01-02T11:45:54.000Z</time>
      </trkpt>
      <trkpt lat="45.45407" lon="6.09992">
        <ele>364.60000610352</ele>
        <time>2022-01-02T11:45:55.000Z</time>
      </trkpt>
      <trkpt lat="45.4541" lon="6.10003">
        <ele>363.60000610352</ele>
        <time>2022-01-02T11:45:56.000Z</time>
      </trkpt>
      <trkpt lat="45.45416" lon="6.10023">
        <ele>362.79998779297</ele>
        <time>2022-01-02T11:45:58.000Z</time>
      </trkpt>
      <trkpt lat="45.4542" lon="6.10033">
        <ele>361.79998779297</ele>
        <time>2022-01-02T11:45:59.000Z</time>
      </trkpt>
      <trkpt lat="45.45425" lon="6.10042">
        <ele>361.39999389648</ele>
        <time>2022-01-02T11:46:00.000Z</time>
      </trkpt>
      <trkpt lat="45.45431" lon="6.10051">
        <ele>360.20001220703</ele>
        <time>2022-01-02T11:46:01.000Z</time>
      </trkpt>
      <trkpt lat="45.45441" lon="6.10069">
        <ele>359</ele>
        <time>2022-01-02T11:46:03.000Z</time>
      </trkpt>
      <trkpt lat="45.4545" lon="6.10086">
        <ele>357.60000610352</ele>
        <time>2022-01-02T11:46:05.000Z</time>
      </trkpt>
      <trkpt lat="45.45454" lon="6.10094">
        <ele>357</ele>
        <time>2022-01-02T11:46:06.000Z</time>
      </trkpt>
      <trkpt lat="45.45461" lon="6.10112">
        <ele>356.60000610352</ele>
        <time>2022-01-02T11:46:08.000Z</time>
      </trkpt>
      <trkpt lat="45.45475" lon="6.10147">
        <ele>355.79998779297</ele>
        <time>2022-01-02T11:46:12.000Z</time>
      </trkpt>
      <trkpt lat="45.45491" lon="6.10176">
        <ele>355.39999389648</ele>
        <time>2022-01-02T11:46:16.000Z</time>
      </trkpt>
      <trkpt lat="45.45503" lon="6.10198">
        <ele>355.20001220703</ele>
        <time>2022-01-02T11:46:19.000Z</time>
      </trkpt>
      <trkpt lat="45.4553" lon="6.10249">
        <ele>355.20001220703</ele>
        <time>2022-01-02T11:46:26.000Z</time>
      </trkpt>
      <trkpt lat="45.45555" lon="6.10285">
        <ele>354.20001220703</ele>
        <time>2022-01-02T11:46:31.000Z</time>
      </trkpt>
      <trkpt lat="45.45566" lon="6.103">
        <ele>353.79998779297</ele>
        <time>2022-01-02T11:46:33.000Z</time>
      </trkpt>
      <trkpt lat="45.45577" lon="6.10314">
        <ele>353.39999389648</ele>
        <time>2022-01-02T11:46:35.000Z</time>
      </trkpt>
      <trkpt lat="45.45582" lon="6.10323">
        <ele>353</ele>
        <time>2022-01-02T11:46:36.000Z</time>
      </trkpt>
      <trkpt lat="45.45586" lon="6.1033">
        <ele>353</ele>
        <time>2022-01-02T11:46:37.000Z</time>
      </trkpt>
      <trkpt lat="45.45591" lon="6.10337">
        <ele>352.39999389648</ele>
        <time>2022-01-02T11:46:38.000Z</time>
      </trkpt>
      <trkpt lat="45.45597" lon="6.10343">
        <ele>352</ele>
        <time>2022-01-02T11:46:39.000Z</time>
      </trkpt>
      <trkpt lat="45.45616" lon="6.10362">
        <ele>351.39999389648</ele>
        <time>2022-01-02T11:46:43.000Z</time>
      </trkpt>
      <trkpt lat="45.45647" lon="6.10395">
        <ele>351.60000610352</ele>
        <time>2022-01-02T11:46:50.000Z</time>
      </trkpt>
      <trkpt lat="45.45683" lon="6.10425">
        <ele>352.39999389648</ele>
        <time>2022-01-02T11:46:58.000Z</time>
      </trkpt>
      <trkpt lat="45.45715" lon="6.10449">
        <ele>353</ele>
        <time>2022-01-02T11:47:05.000Z</time>
      </trkpt>
      <trkpt lat="45.4572" lon="6.10452">
        <ele>353</ele>
        <time>2022-01-02T11:47:06.000Z</time>
      </trkpt>
      <trkpt lat="45.45725" lon="6.10456">
        <ele>353.20001220703</ele>
        <time>2022-01-02T11:47:07.000Z</time>
      </trkpt>
      <trkpt lat="45.45738" lon="6.10468">
        <ele>353.39999389648</ele>
        <time>2022-01-02T11:47:10.000Z</time>
      </trkpt>
      <trkpt lat="45.45767" lon="6.10495">
        <ele>354.20001220703</ele>
        <time>2022-01-02T11:47:17.000Z</time>
      </trkpt>
      <trkpt lat="45.45772" lon="6.10499">
        <ele>354.39999389648</ele>
        <time>2022-01-02T11:47:18.000Z</time>
      </trkpt>
      <trkpt lat="45.4579" lon="6.10521">
        <ele>355.39999389648</ele>
        <time>2022-01-02T11:47:23.000Z</time>
      </trkpt>
      <trkpt lat="45.45802" lon="6.10531">
        <ele>355.79998779297</ele>
        <time>2022-01-02T11:47:26.000Z</time>
      </trkpt>
      <trkpt lat="45.45809" lon="6.10538">
        <ele>356.79998779297</ele>
        <time>2022-01-02T11:47:28.000Z</time>
      </trkpt>
      <trkpt lat="45.45823" lon="6.10555">
        <ele>358</ele>
        <time>2022-01-02T11:47:32.000Z</time>
      </trkpt>
      <trkpt lat="45.45827" lon="6.1056">
        <ele>358.20001220703</ele>
        <time>2022-01-02T11:47:33.000Z</time>
      </trkpt>
      <trkpt lat="45.4584" lon="6.10577">
        <ele>359.39999389648</ele>
        <time>2022-01-02T11:47:37.000Z</time>
      </trkpt>
      <trkpt lat="45.45852" lon="6.10588">
        <ele>360</ele>
        <time>2022-01-02T11:47:40.000Z</time>
      </trkpt>
      <trkpt lat="45.45855" lon="6.10592">
        <ele>360.20001220703</ele>
        <time>2022-01-02T11:47:41.000Z</time>
      </trkpt>
      <trkpt lat="45.45859" lon="6.10596">
        <ele>360.39999389648</ele>
        <time>2022-01-02T11:47:42.000Z</time>
      </trkpt>
      <trkpt lat="45.45878" lon="6.10618">
        <ele>360.79998779297</ele>
        <time>2022-01-02T11:47:47.000Z</time>
      </trkpt>
      <trkpt lat="45.45911" lon="6.10654">
        <ele>361.20001220703</ele>
        <time>2022-01-02T11:47:55.000Z</time>
      </trkpt>
      <trkpt lat="45.45922" lon="6.10666">
        <ele>361.20001220703</ele>
        <time>2022-01-02T11:47:58.000Z</time>
      </trkpt>
      <trkpt lat="45.45931" lon="6.10673">
        <ele>361.39999389648</ele>
        <time>2022-01-02T11:48:00.000Z</time>
      </trkpt>
      <trkpt lat="45.45935" lon="6.10677">
        <ele>361.60000610352</ele>
        <time>2022-01-02T11:48:01.000Z</time>
      </trkpt>
      <trkpt lat="45.45942" lon="6.10685">
        <ele>361.60000610352</ele>
        <time>2022-01-02T11:48:03.000Z</time>
      </trkpt>
      <trkpt lat="45.45955" lon="6.10703">
        <ele>362.60000610352</ele>
        <time>2022-01-02T11:48:07.000Z</time>
      </trkpt>
      <trkpt lat="45.45959" lon="6.10707">
        <ele>362.60000610352</ele>
        <time>2022-01-02T11:48:08.000Z</time>
      </trkpt>
      <trkpt lat="45.45963" lon="6.10711">
        <ele>363</ele>
        <time>2022-01-02T11:48:09.000Z</time>
      </trkpt>
      <trkpt lat="45.45972" lon="6.10726">
        <ele>363.60000610352</ele>
        <time>2022-01-02T11:48:12.000Z</time>
      </trkpt>
      <trkpt lat="45.45981" lon="6.1074">
        <ele>364</ele>
        <time>2022-01-02T11:48:15.000Z</time>
      </trkpt>
      <trkpt lat="45.45987" lon="6.10751">
        <ele>364.79998779297</ele>
        <time>2022-01-02T11:48:17.000Z</time>
      </trkpt>
      <trkpt lat="45.45998" lon="6.10772">
        <ele>365.39999389648</ele>
        <time>2022-01-02T11:48:21.000Z</time>
      </trkpt>
      <trkpt lat="45.46008" lon="6.10788">
        <ele>365.79998779297</ele>
        <time>2022-01-02T11:48:24.000Z</time>
      </trkpt>
      <trkpt lat="45.46021" lon="6.10815">
        <ele>366.39999389648</ele>
        <time>2022-01-02T11:48:29.000Z</time>
      </trkpt>
      <trkpt lat="45.46029" lon="6.10828">
        <ele>367</ele>
        <time>2022-01-02T11:48:32.000Z</time>
      </trkpt>
      <trkpt lat="45.46039" lon="6.10842">
        <ele>367.79998779297</ele>
        <time>2022-01-02T11:48:35.000Z</time>
      </trkpt>
      <trkpt lat="45.46042" lon="6.10846">
        <ele>368.20001220703</ele>
        <time>2022-01-02T11:48:36.000Z</time>
      </trkpt>
      <trkpt lat="45.46046" lon="6.1085">
        <ele>368.20001220703</ele>
        <time>2022-01-02T11:48:37.000Z</time>
      </trkpt>
      <trkpt lat="45.4605" lon="6.10855">
        <ele>368.39999389648</ele>
        <time>2022-01-02T11:48:38.000Z</time>
      </trkpt>
      <trkpt lat="45.46061" lon="6.10867">
        <ele>369.20001220703</ele>
        <time>2022-01-02T11:48:41.000Z</time>
      </trkpt>
      <trkpt lat="45.46065" lon="6.1087">
        <ele>369.39999389648</ele>
        <time>2022-01-02T11:48:42.000Z</time>
      </trkpt>
      <trkpt lat="45.46069" lon="6.10875">
        <ele>369.60000610352</ele>
        <time>2022-01-02T11:48:43.000Z</time>
      </trkpt>
      <trkpt lat="45.46073" lon="6.10879">
        <ele>369.79998779297</ele>
        <time>2022-01-02T11:48:44.000Z</time>
      </trkpt>
      <trkpt lat="45.46082" lon="6.10886">
        <ele>369.79998779297</ele>
        <time>2022-01-02T11:48:46.000Z</time>
      </trkpt>
      <trkpt lat="45.46095" lon="6.10897">
        <ele>370</ele>
        <time>2022-01-02T11:48:49.000Z</time>
      </trkpt>
      <trkpt lat="45.46127" lon="6.10919">
        <ele>370</ele>
        <time>2022-01-02T11:48:56.000Z</time>
      </trkpt>
      <trkpt lat="45.46155" lon="6.10936">
        <ele>369.60000610352</ele>
        <time>2022-01-02T11:49:01.000Z</time>
      </trkpt>
      <trkpt lat="45.46184" lon="6.1095">
        <ele>368.39999389648</ele>
        <time>2022-01-02T11:49:06.000Z</time>
      </trkpt>
      <trkpt lat="45.46197" lon="6.10955">
        <ele>368.20001220703</ele>
        <time>2022-01-02T11:49:08.000Z</time>
      </trkpt>
      <trkpt lat="45.46235" lon="6.10971">
        <ele>367.20001220703</ele>
        <time>2022-01-02T11:49:14.000Z</time>
      </trkpt>
      <trkpt lat="45.46242" lon="6.10976">
        <ele>367</ele>
        <time>2022-01-02T11:49:15.000Z</time>
      </trkpt>
      <trkpt lat="45.46274" lon="6.11004">
        <ele>366.20001220703</ele>
        <time>2022-01-02T11:49:21.000Z</time>
      </trkpt>
      <trkpt lat="45.46281" lon="6.11009">
        <ele>366.20001220703</ele>
        <time>2022-01-02T11:49:22.000Z</time>
      </trkpt>
      <trkpt lat="45.46313" lon="6.11032">
        <ele>365.20001220703</ele>
        <time>2022-01-02T11:49:28.000Z</time>
      </trkpt>
      <trkpt lat="45.46342" lon="6.11054">
        <ele>365</ele>
        <time>2022-01-02T11:49:34.000Z</time>
      </trkpt>
      <trkpt lat="45.46345" lon="6.11058">
        <ele>365</ele>
        <time>2022-01-02T11:49:35.000Z</time>
      </trkpt>
      <trkpt lat="45.46374" lon="6.11086">
        <ele>365.39999389648</ele>
        <time>2022-01-02T11:49:42.000Z</time>
      </trkpt>
      <trkpt lat="45.46379" lon="6.11091">
        <ele>365.60000610352</ele>
        <time>2022-01-02T11:49:43.000Z</time>
      </trkpt>
      <trkpt lat="45.46393" lon="6.11112">
        <ele>365.60000610352</ele>
        <time>2022-01-02T11:49:47.000Z</time>
      </trkpt>
      <trkpt lat="45.46421" lon="6.11153">
        <ele>365</ele>
        <time>2022-01-02T11:49:53.000Z</time>
      </trkpt>
      <trkpt lat="45.46435" lon="6.11169">
        <ele>364.20001220703</ele>
        <time>2022-01-02T11:49:56.000Z</time>
      </trkpt>
      <trkpt lat="45.46441" lon="6.11173">
        <ele>363.60000610352</ele>
        <time>2022-01-02T11:49:57.000Z</time>
      </trkpt>
      <trkpt lat="45.46445" lon="6.11176">
        <ele>363.20001220703</ele>
        <time>2022-01-02T11:49:58.000Z</time>
      </trkpt>
      <trkpt lat="45.46459" lon="6.11189">
        <ele>362.60000610352</ele>
        <time>2022-01-02T11:50:01.000Z</time>
      </trkpt>
      <trkpt lat="45.46468" lon="6.11199">
        <ele>362</ele>
        <time>2022-01-02T11:50:03.000Z</time>
      </trkpt>
      <trkpt lat="45.46471" lon="6.11206">
        <ele>361.79998779297</ele>
        <time>2022-01-02T11:50:04.000Z</time>
      </trkpt>
      <trkpt lat="45.46471" lon="6.11214">
        <ele>361.60000610352</ele>
        <time>2022-01-02T11:50:05.000Z</time>
      </trkpt>
      <trkpt lat="45.4647" lon="6.11223">
        <ele>361.39999389648</ele>
        <time>2022-01-02T11:50:06.000Z</time>
      </trkpt>
      <trkpt lat="45.46466" lon="6.11242">
        <ele>360.39999389648</ele>
        <time>2022-01-02T11:50:08.000Z</time>
      </trkpt>
      <trkpt lat="45.46462" lon="6.11274">
        <ele>359.20001220703</ele>
        <time>2022-01-02T11:50:11.000Z</time>
      </trkpt>
      <trkpt lat="45.46463" lon="6.11297">
        <ele>357.79998779297</ele>
        <time>2022-01-02T11:50:13.000Z</time>
      </trkpt>
      <trkpt lat="45.46468" lon="6.11321">
        <ele>356.79998779297</ele>
        <time>2022-01-02T11:50:15.000Z</time>
      </trkpt>
      <trkpt lat="45.46472" lon="6.11346">
        <ele>355.60000610352</ele>
        <time>2022-01-02T11:50:17.000Z</time>
      </trkpt>
      <trkpt lat="45.46473" lon="6.11358">
        <ele>355</ele>
        <time>2022-01-02T11:50:18.000Z</time>
      </trkpt>
      <trkpt lat="45.46473" lon="6.11369">
        <ele>354</ele>
        <time>2022-01-02T11:50:19.000Z</time>
      </trkpt>
      <trkpt lat="45.46474" lon="6.11378">
        <ele>353.39999389648</ele>
        <time>2022-01-02T11:50:20.000Z</time>
      </trkpt>
      <trkpt lat="45.46475" lon="6.11389">
        <ele>352.79998779297</ele>
        <time>2022-01-02T11:50:21.000Z</time>
      </trkpt>
      <trkpt lat="45.46478" lon="6.11402">
        <ele>351.60000610352</ele>
        <time>2022-01-02T11:50:22.000Z</time>
      </trkpt>
      <trkpt lat="45.46481" lon="6.1141">
        <ele>351.20001220703</ele>
        <time>2022-01-02T11:50:23.000Z</time>
      </trkpt>
      <trkpt lat="45.46487" lon="6.11421">
        <ele>350.20001220703</ele>
        <time>2022-01-02T11:50:24.000Z</time>
      </trkpt>
      <trkpt lat="45.46493" lon="6.11429">
        <ele>349.20001220703</ele>
        <time>2022-01-02T11:50:25.000Z</time>
      </trkpt>
      <trkpt lat="45.46498" lon="6.11434">
        <ele>348.60000610352</ele>
        <time>2022-01-02T11:50:26.000Z</time>
      </trkpt>
      <trkpt lat="45.46504" lon="6.11444">
        <ele>347.60000610352</ele>
        <time>2022-01-02T11:50:27.000Z</time>
      </trkpt>
      <trkpt lat="45.46509" lon="6.1146">
        <ele>346.20001220703</ele>
        <time>2022-01-02T11:50:29.000Z</time>
      </trkpt>
      <trkpt lat="45.46507" lon="6.11468">
        <ele>345.20001220703</ele>
        <time>2022-01-02T11:50:30.000Z</time>
      </trkpt>
      <trkpt lat="45.46502" lon="6.11476">
        <ele>344.79998779297</ele>
        <time>2022-01-02T11:50:31.000Z</time>
      </trkpt>
      <trkpt lat="45.46496" lon="6.11484">
        <ele>344</ele>
        <time>2022-01-02T11:50:32.000Z</time>
      </trkpt>
      <trkpt lat="45.46477" lon="6.11509">
        <ele>343</ele>
        <time>2022-01-02T11:50:35.000Z</time>
      </trkpt>
      <trkpt lat="45.46464" lon="6.11526">
        <ele>341.39999389648</ele>
        <time>2022-01-02T11:50:37.000Z</time>
      </trkpt>
      <trkpt lat="45.46455" lon="6.1154">
        <ele>340.39999389648</ele>
        <time>2022-01-02T11:50:39.000Z</time>
      </trkpt>
      <trkpt lat="45.46444" lon="6.11556">
        <ele>339.39999389648</ele>
        <time>2022-01-02T11:50:41.000Z</time>
      </trkpt>
      <trkpt lat="45.4644" lon="6.11563">
        <ele>338.39999389648</ele>
        <time>2022-01-02T11:50:42.000Z</time>
      </trkpt>
      <trkpt lat="45.46436" lon="6.11569">
        <ele>338.20001220703</ele>
        <time>2022-01-02T11:50:43.000Z</time>
      </trkpt>
      <trkpt lat="45.46435" lon="6.11573">
        <ele>337.20001220703</ele>
        <time>2022-01-02T11:50:44.000Z</time>
      </trkpt>
      <trkpt lat="45.46433" lon="6.11579">
        <ele>336.39999389648</ele>
        <time>2022-01-02T11:50:45.000Z</time>
      </trkpt>
      <trkpt lat="45.46435" lon="6.11586">
        <ele>335.20001220703</ele>
        <time>2022-01-02T11:50:46.000Z</time>
      </trkpt>
      <trkpt lat="45.46438" lon="6.1159">
        <ele>334.20001220703</ele>
        <time>2022-01-02T11:50:47.000Z</time>
      </trkpt>
      <trkpt lat="45.46457" lon="6.11614">
        <ele>332.79998779297</ele>
        <time>2022-01-02T11:50:51.000Z</time>
      </trkpt>
      <trkpt lat="45.46479" lon="6.11639">
        <ele>331.60000610352</ele>
        <time>2022-01-02T11:50:55.000Z</time>
      </trkpt>
      <trkpt lat="45.4649" lon="6.11653">
        <ele>330.79998779297</ele>
        <time>2022-01-02T11:50:57.000Z</time>
      </trkpt>
      <trkpt lat="45.46495" lon="6.1166">
        <ele>330.60000610352</ele>
        <time>2022-01-02T11:50:58.000Z</time>
      </trkpt>
      <trkpt lat="45.46515" lon="6.11682">
        <ele>329.60000610352</ele>
        <time>2022-01-02T11:51:02.000Z</time>
      </trkpt>
      <trkpt lat="45.4652" lon="6.11688">
        <ele>329.39999389648</ele>
        <time>2022-01-02T11:51:03.000Z</time>
      </trkpt>
      <trkpt lat="45.46548" lon="6.11723">
        <ele>328.79998779297</ele>
        <time>2022-01-02T11:51:09.000Z</time>
      </trkpt>
      <trkpt lat="45.46564" lon="6.11746">
        <ele>328.60000610352</ele>
        <time>2022-01-02T11:51:13.000Z</time>
      </trkpt>
      <trkpt lat="45.46567" lon="6.11752">
        <ele>328.39999389648</ele>
        <time>2022-01-02T11:51:14.000Z</time>
      </trkpt>
      <trkpt lat="45.46567" lon="6.11758">
        <ele>328.20001220703</ele>
        <time>2022-01-02T11:51:15.000Z</time>
      </trkpt>
      <trkpt lat="45.46567" lon="6.11769">
        <ele>327.79998779297</ele>
        <time>2022-01-02T11:51:17.000Z</time>
      </trkpt>
      <trkpt lat="45.4657" lon="6.11778">
        <ele>327.39999389648</ele>
        <time>2022-01-02T11:51:20.000Z</time>
      </trkpt>
      <trkpt lat="45.46573" lon="6.11781">
        <ele>327.39999389648</ele>
        <time>2022-01-02T11:51:21.000Z</time>
      </trkpt>
      <trkpt lat="45.46585" lon="6.11786">
        <ele>327.60000610352</ele>
        <time>2022-01-02T11:51:24.000Z</time>
      </trkpt>
      <trkpt lat="45.46597" lon="6.1179">
        <ele>327.20001220703</ele>
        <time>2022-01-02T11:51:26.000Z</time>
      </trkpt>
      <trkpt lat="45.46629" lon="6.11803">
        <ele>327</ele>
        <time>2022-01-02T11:51:32.000Z</time>
      </trkpt>
      <trkpt lat="45.46636" lon="6.11806">
        <ele>327</ele>
        <time>2022-01-02T11:51:33.000Z</time>
      </trkpt>
      <trkpt lat="45.46686" lon="6.11826">
        <ele>326.79998779297</ele>
        <time>2022-01-02T11:51:42.000Z</time>
      </trkpt>
      <trkpt lat="45.46713" lon="6.11837">
        <ele>326.60000610352</ele>
        <time>2022-01-02T11:51:48.000Z</time>
      </trkpt>
      <trkpt lat="45.46737" lon="6.11844">
        <ele>326.39999389648</ele>
        <time>2022-01-02T11:51:53.000Z</time>
      </trkpt>
      <trkpt lat="45.46771" lon="6.11856">
        <ele>326.20001220703</ele>
        <time>2022-01-02T11:51:59.000Z</time>
      </trkpt>
      <trkpt lat="45.46795" lon="6.11865">
        <ele>326.20001220703</ele>
        <time>2022-01-02T11:52:03.000Z</time>
      </trkpt>
      <trkpt lat="45.46806" lon="6.11867">
        <ele>326.20001220703</ele>
        <time>2022-01-02T11:52:05.000Z</time>
      </trkpt>
      <trkpt lat="45.4685" lon="6.11868">
        <ele>326.79998779297</ele>
        <time>2022-01-02T11:52:13.000Z</time>
      </trkpt>
      <trkpt lat="45.46874" lon="6.11864">
        <ele>327.39999389648</ele>
        <time>2022-01-02T11:52:18.000Z</time>
      </trkpt>
      <trkpt lat="45.46878" lon="6.11862">
        <ele>327.60000610352</ele>
        <time>2022-01-02T11:52:19.000Z</time>
      </trkpt>
      <trkpt lat="45.46888" lon="6.11858">
        <ele>327.79998779297</ele>
        <time>2022-01-02T11:52:21.000Z</time>
      </trkpt>
      <trkpt lat="45.46898" lon="6.11859">
        <ele>328.39999389648</ele>
        <time>2022-01-02T11:52:23.000Z</time>
      </trkpt>
      <trkpt lat="45.46902" lon="6.11861">
        <ele>328.60000610352</ele>
        <time>2022-01-02T11:52:24.000Z</time>
      </trkpt>
      <trkpt lat="45.46911" lon="6.1187">
        <ele>329.39999389648</ele>
        <time>2022-01-02T11:52:26.000Z</time>
      </trkpt>
      <trkpt lat="45.46915" lon="6.11874">
        <ele>329.60000610352</ele>
        <time>2022-01-02T11:52:27.000Z</time>
      </trkpt>
      <trkpt lat="45.46931" lon="6.11888">
        <ele>330</ele>
        <time>2022-01-02T11:52:30.000Z</time>
      </trkpt>
      <trkpt lat="45.46941" lon="6.11895">
        <ele>330</ele>
        <time>2022-01-02T11:52:32.000Z</time>
      </trkpt>
      <trkpt lat="45.46983" lon="6.11913">
        <ele>329.20001220703</ele>
        <time>2022-01-02T11:52:38.000Z</time>
      </trkpt>
      <trkpt lat="45.46997" lon="6.11918">
        <ele>328.39999389648</ele>
        <time>2022-01-02T11:52:40.000Z</time>
      </trkpt>
      <trkpt lat="45.47004" lon="6.1192">
        <ele>328.20001220703</ele>
        <time>2022-01-02T11:52:41.000Z</time>
      </trkpt>
      <trkpt lat="45.47024" lon="6.11932">
        <ele>327.60000610352</ele>
        <time>2022-01-02T11:52:44.000Z</time>
      </trkpt>
      <trkpt lat="45.47039" lon="6.11943">
        <ele>327.39999389648</ele>
        <time>2022-01-02T11:52:46.000Z</time>
      </trkpt>
      <trkpt lat="45.47056" lon="6.1196">
        <ele>326.79998779297</ele>
        <time>2022-01-02T11:52:49.000Z</time>
      </trkpt>
      <trkpt lat="45.47061" lon="6.11967">
        <ele>326.39999389648</ele>
        <time>2022-01-02T11:52:50.000Z</time>
      </trkpt>
      <trkpt lat="45.47067" lon="6.11976">
        <ele>326.39999389648</ele>
        <time>2022-01-02T11:52:51.000Z</time>
      </trkpt>
      <trkpt lat="45.47077" lon="6.12003">
        <ele>325.79998779297</ele>
        <time>2022-01-02T11:52:54.000Z</time>
      </trkpt>
      <trkpt lat="45.4708" lon="6.12014">
        <ele>325.60000610352</ele>
        <time>2022-01-02T11:52:55.000Z</time>
      </trkpt>
      <trkpt lat="45.47085" lon="6.12036">
        <ele>325.20001220703</ele>
        <time>2022-01-02T11:52:57.000Z</time>
      </trkpt>
      <trkpt lat="45.47091" lon="6.12058">
        <ele>324.60000610352</ele>
        <time>2022-01-02T11:52:59.000Z</time>
      </trkpt>
      <trkpt lat="45.47094" lon="6.12069">
        <ele>324.20001220703</ele>
        <time>2022-01-02T11:53:00.000Z</time>
      </trkpt>
      <trkpt lat="45.47099" lon="6.12081">
        <ele>323.79998779297</ele>
        <time>2022-01-02T11:53:01.000Z</time>
      </trkpt>
      <trkpt lat="45.47109" lon="6.12097">
        <ele>323</ele>
        <time>2022-01-02T11:53:03.000Z</time>
      </trkpt>
      <trkpt lat="45.47128" lon="6.12118">
        <ele>321.79998779297</ele>
        <time>2022-01-02T11:53:06.000Z</time>
      </trkpt>
      <trkpt lat="45.47139" lon="6.12128">
        <ele>321.60000610352</ele>
        <time>2022-01-02T11:53:08.000Z</time>
      </trkpt>
      <trkpt lat="45.4718" lon="6.12172">
        <ele>321</ele>
        <time>2022-01-02T11:53:15.000Z</time>
      </trkpt>
      <trkpt lat="45.47204" lon="6.12203">
        <ele>321</ele>
        <time>2022-01-02T11:53:20.000Z</time>
      </trkpt>
      <trkpt lat="45.47213" lon="6.12212">
        <ele>320.79998779297</ele>
        <time>2022-01-02T11:53:22.000Z</time>
      </trkpt>
      <trkpt lat="45.47257" lon="6.12257">
        <ele>320.20001220703</ele>
        <time>2022-01-02T11:53:30.000Z</time>
      </trkpt>
      <trkpt lat="45.47267" lon="6.1227">
        <ele>320</ele>
        <time>2022-01-02T11:53:32.000Z</time>
      </trkpt>
      <trkpt lat="45.47289" lon="6.123">
        <ele>319.79998779297</ele>
        <time>2022-01-02T11:53:37.000Z</time>
      </trkpt>
      <trkpt lat="45.47323" lon="6.12331">
        <ele>319.79998779297</ele>
        <time>2022-01-02T11:53:43.000Z</time>
      </trkpt>
      <trkpt lat="45.47343" lon="6.12347">
        <ele>319.39999389648</ele>
        <time>2022-01-02T11:53:46.000Z</time>
      </trkpt>
      <trkpt lat="45.47355" lon="6.12355">
        <ele>319</ele>
        <time>2022-01-02T11:53:48.000Z</time>
      </trkpt>
      <trkpt lat="45.47361" lon="6.1236">
        <ele>318.60000610352</ele>
        <time>2022-01-02T11:53:49.000Z</time>
      </trkpt>
      <trkpt lat="45.47385" lon="6.12379">
        <ele>317.79998779297</ele>
        <time>2022-01-02T11:53:53.000Z</time>
      </trkpt>
      <trkpt lat="45.47403" lon="6.12396">
        <ele>317.39999389648</ele>
        <time>2022-01-02T11:53:56.000Z</time>
      </trkpt>
      <trkpt lat="45.47449" lon="6.1244">
        <ele>317.20001220703</ele>
        <time>2022-01-02T11:54:05.000Z</time>
      </trkpt>
      <trkpt lat="45.47473" lon="6.12467">
        <ele>317.79998779297</ele>
        <time>2022-01-02T11:54:11.000Z</time>
      </trkpt>
      <trkpt lat="45.47483" lon="6.12484">
        <ele>318.39999389648</ele>
        <time>2022-01-02T11:54:14.000Z</time>
      </trkpt>
      <trkpt lat="45.47491" lon="6.125">
        <ele>318.60000610352</ele>
        <time>2022-01-02T11:54:16.000Z</time>
      </trkpt>
      <trkpt lat="45.47508" lon="6.12526">
        <ele>318.39999389648</ele>
        <time>2022-01-02T11:54:20.000Z</time>
      </trkpt>
      <trkpt lat="45.4753" lon="6.12551">
        <ele>317.60000610352</ele>
        <time>2022-01-02T11:54:24.000Z</time>
      </trkpt>
      <trkpt lat="45.47541" lon="6.12562">
        <ele>317.20001220703</ele>
        <time>2022-01-02T11:54:26.000Z</time>
      </trkpt>
      <trkpt lat="45.47557" lon="6.12576">
        <ele>317</ele>
        <time>2022-01-02T11:54:29.000Z</time>
      </trkpt>
      <trkpt lat="45.47574" lon="6.12591">
        <ele>316.39999389648</ele>
        <time>2022-01-02T11:54:32.000Z</time>
      </trkpt>
      <trkpt lat="45.4758" lon="6.12594">
        <ele>316.20001220703</ele>
        <time>2022-01-02T11:54:33.000Z</time>
      </trkpt>
      <trkpt lat="45.47592" lon="6.126">
        <ele>316</ele>
        <time>2022-01-02T11:54:35.000Z</time>
      </trkpt>
      <trkpt lat="45.47623" lon="6.12611">
        <ele>316</ele>
        <time>2022-01-02T11:54:40.000Z</time>
      </trkpt>
      <trkpt lat="45.47654" lon="6.12613">
        <ele>316</ele>
        <time>2022-01-02T11:54:46.000Z</time>
      </trkpt>
      <trkpt lat="45.47686" lon="6.12618">
        <ele>317</ele>
        <time>2022-01-02T11:54:53.000Z</time>
      </trkpt>
      <trkpt lat="45.47694" lon="6.12623">
        <ele>317.39999389648</ele>
        <time>2022-01-02T11:54:56.000Z</time>
      </trkpt>
      <trkpt lat="45.47694" lon="6.12626">
        <ele>317.79998779297</ele>
        <time>2022-01-02T11:54:57.000Z</time>
      </trkpt>
      <trkpt lat="45.47694" lon="6.12627">
        <ele>318.20001220703</ele>
        <time>2022-01-02T11:55:00.000Z</time>
      </trkpt>
      <trkpt lat="45.47694" lon="6.12627">
        <ele>318.20001220703</ele>
        <time>2022-01-02T11:55:01.000Z</time>
      </trkpt>
      <trkpt lat="45.47695" lon="6.12628">
        <ele>318.20001220703</ele>
        <time>2022-01-02T11:55:09.000Z</time>
      </trkpt>
      <trkpt lat="45.47695" lon="6.12628">
        <ele>318.20001220703</ele>
        <time>2022-01-02T11:55:27.000Z</time>
      </trkpt>
      <trkpt lat="45.47695" lon="6.12628">
        <ele>318</ele>
        <time>2022-01-02T11:56:24.000Z</time>
      </trkpt>
      <trkpt lat="45.47695" lon="6.12628">
        <ele>318.39999389648</ele>
        <time>2022-01-02T11:57:47.000Z</time>
      </trkpt>
      <trkpt lat="45.47695" lon="6.12628">
        <ele>320</ele>
        <time>2022-01-02T12:00:48.000Z</time>
      </trkpt>
      <trkpt lat="45.47695" lon="6.12628">
        <ele>320.20001220703</ele>
        <time>2022-01-02T12:01:20.000Z</time>
      </trkpt>
      <trkpt lat="45.47695" lon="6.12628">
        <ele>320</ele>
        <time>2022-01-02T12:03:48.000Z</time>
      </trkpt>
      <trkpt lat="45.47695" lon="6.12627">
        <ele>322.20001220703</ele>
        <time>2022-01-02T12:13:58.000Z</time>
      </trkpt>
      <trkpt lat="45.47695" lon="6.12627">
        <ele>322.39999389648</ele>
        <time>2022-01-02T12:14:06.000Z</time>
      </trkpt>
      <trkpt lat="45.47696" lon="6.12624">
        <ele>323.20001220703</ele>
        <time>2022-01-02T12:16:21.000Z</time>
      </trkpt>
      <trkpt lat="45.47699" lon="6.12627">
        <ele>323.20001220703</ele>
        <time>2022-01-02T12:16:23.000Z</time>
      </trkpt>
      <trkpt lat="45.47712" lon="6.12639">
        <ele>323.20001220703</ele>
        <time>2022-01-02T12:16:28.000Z</time>
      </trkpt>
      <trkpt lat="45.47731" lon="6.12662">
        <ele>323</ele>
        <time>2022-01-02T12:16:33.000Z</time>
      </trkpt>
      <trkpt lat="45.47755" lon="6.12693">
        <ele>321.79998779297</ele>
        <time>2022-01-02T12:16:38.000Z</time>
      </trkpt>
      <trkpt lat="45.4776" lon="6.12699">
        <ele>321.60000610352</ele>
        <time>2022-01-02T12:16:39.000Z</time>
      </trkpt>
      <trkpt lat="45.47771" lon="6.12713">
        <ele>320.60000610352</ele>
        <time>2022-01-02T12:16:41.000Z</time>
      </trkpt>
      <trkpt lat="45.47793" lon="6.12739">
        <ele>319.60000610352</ele>
        <time>2022-01-02T12:16:45.000Z</time>
      </trkpt>
      <trkpt lat="45.47799" lon="6.12745">
        <ele>319.39999389648</ele>
        <time>2022-01-02T12:16:46.000Z</time>
      </trkpt>
      <trkpt lat="45.47833" lon="6.12781">
        <ele>318.60000610352</ele>
        <time>2022-01-02T12:16:52.000Z</time>
      </trkpt>
      <trkpt lat="45.47849" lon="6.12799">
        <ele>318.39999389648</ele>
        <time>2022-01-02T12:16:55.000Z</time>
      </trkpt>
      <trkpt lat="45.47878" lon="6.12848">
        <ele>318.20001220703</ele>
        <time>2022-01-02T12:17:02.000Z</time>
      </trkpt>
      <trkpt lat="45.47883" lon="6.12866">
        <ele>318.20001220703</ele>
        <time>2022-01-02T12:17:04.000Z</time>
      </trkpt>
      <trkpt lat="45.47887" lon="6.12893">
        <ele>318.39999389648</ele>
        <time>2022-01-02T12:17:07.000Z</time>
      </trkpt>
      <trkpt lat="45.47902" lon="6.12944">
        <ele>318.39999389648</ele>
        <time>2022-01-02T12:17:13.000Z</time>
      </trkpt>
      <trkpt lat="45.47923" lon="6.12989">
        <ele>317.79998779297</ele>
        <time>2022-01-02T12:17:18.000Z</time>
      </trkpt>
      <trkpt lat="45.47927" lon="6.12997">
        <ele>317.20001220703</ele>
        <time>2022-01-02T12:17:19.000Z</time>
      </trkpt>
      <trkpt lat="45.47959" lon="6.13043">
        <ele>316.20001220703</ele>
        <time>2022-01-02T12:17:25.000Z</time>
      </trkpt>
      <trkpt lat="45.47971" lon="6.13058">
        <ele>316</ele>
        <time>2022-01-02T12:17:27.000Z</time>
      </trkpt>
      <trkpt lat="45.48005" lon="6.131">
        <ele>315.20001220703</ele>
        <time>2022-01-02T12:17:33.000Z</time>
      </trkpt>
      <trkpt lat="45.48016" lon="6.13114">
        <ele>315</ele>
        <time>2022-01-02T12:17:35.000Z</time>
      </trkpt>
      <trkpt lat="45.48056" lon="6.13166">
        <ele>314</ele>
        <time>2022-01-02T12:17:42.000Z</time>
      </trkpt>
      <trkpt lat="45.48062" lon="6.13175">
        <ele>314</ele>
        <time>2022-01-02T12:17:43.000Z</time>
      </trkpt>
      <trkpt lat="45.48084" lon="6.13204">
        <ele>313</ele>
        <time>2022-01-02T12:17:47.000Z</time>
      </trkpt>
      <trkpt lat="45.48096" lon="6.13218">
        <ele>312.60000610352</ele>
        <time>2022-01-02T12:17:49.000Z</time>
      </trkpt>
      <trkpt lat="45.48114" lon="6.13236">
        <ele>312.39999389648</ele>
        <time>2022-01-02T12:17:52.000Z</time>
      </trkpt>
      <trkpt lat="45.48153" lon="6.13264">
        <ele>311.79998779297</ele>
        <time>2022-01-02T12:17:58.000Z</time>
      </trkpt>
      <trkpt lat="45.48198" lon="6.13291">
        <ele>311.79998779297</ele>
        <time>2022-01-02T12:18:05.000Z</time>
      </trkpt>
      <trkpt lat="45.48208" lon="6.13301">
        <ele>311.79998779297</ele>
        <time>2022-01-02T12:18:07.000Z</time>
      </trkpt>
      <trkpt lat="45.48217" lon="6.13313">
        <ele>311.79998779297</ele>
        <time>2022-01-02T12:18:09.000Z</time>
      </trkpt>
      <trkpt lat="45.48251" lon="6.13371">
        <ele>312.20001220703</ele>
        <time>2022-01-02T12:18:17.000Z</time>
      </trkpt>
      <trkpt lat="45.4828" lon="6.13446">
        <ele>312</ele>
        <time>2022-01-02T12:18:26.000Z</time>
      </trkpt>
      <trkpt lat="45.48283" lon="6.13455">
        <ele>311.79998779297</ele>
        <time>2022-01-02T12:18:27.000Z</time>
      </trkpt>
      <trkpt lat="45.48288" lon="6.13485">
        <ele>311.39999389648</ele>
        <time>2022-01-02T12:18:30.000Z</time>
      </trkpt>
      <trkpt lat="45.4829" lon="6.13496">
        <ele>311.20001220703</ele>
        <time>2022-01-02T12:18:31.000Z</time>
      </trkpt>
      <trkpt lat="45.48292" lon="6.13507">
        <ele>311</ele>
        <time>2022-01-02T12:18:32.000Z</time>
      </trkpt>
      <trkpt lat="45.48298" lon="6.13526">
        <ele>310.39999389648</ele>
        <time>2022-01-02T12:18:34.000Z</time>
      </trkpt>
      <trkpt lat="45.48301" lon="6.13535">
        <ele>310.20001220703</ele>
        <time>2022-01-02T12:18:35.000Z</time>
      </trkpt>
      <trkpt lat="45.48318" lon="6.13566">
        <ele>309.60000610352</ele>
        <time>2022-01-02T12:18:39.000Z</time>
      </trkpt>
      <trkpt lat="45.48328" lon="6.1358">
        <ele>309.20001220703</ele>
        <time>2022-01-02T12:18:41.000Z</time>
      </trkpt>
      <trkpt lat="45.4836" lon="6.13616">
        <ele>308.60000610352</ele>
        <time>2022-01-02T12:18:47.000Z</time>
      </trkpt>
      <trkpt lat="45.4837" lon="6.13628">
        <ele>308.39999389648</ele>
        <time>2022-01-02T12:18:49.000Z</time>
      </trkpt>
      <trkpt lat="45.48379" lon="6.1364">
        <ele>308.60000610352</ele>
        <time>2022-01-02T12:18:51.000Z</time>
      </trkpt>
      <trkpt lat="45.48392" lon="6.13665">
        <ele>308.60000610352</ele>
        <time>2022-01-02T12:18:55.000Z</time>
      </trkpt>
      <trkpt lat="45.48408" lon="6.13694">
        <ele>309.20001220703</ele>
        <time>2022-01-02T12:19:00.000Z</time>
      </trkpt>
      <trkpt lat="45.48414" lon="6.13705">
        <ele>309.60000610352</ele>
        <time>2022-01-02T12:19:02.000Z</time>
      </trkpt>
      <trkpt lat="45.48425" lon="6.13727">
        <ele>310</ele>
        <time>2022-01-02T12:19:06.000Z</time>
      </trkpt>
      <trkpt lat="45.48428" lon="6.13739">
        <ele>309.79998779297</ele>
        <time>2022-01-02T12:19:08.000Z</time>
      </trkpt>
      <trkpt lat="45.48435" lon="6.13746">
        <ele>309.20001220703</ele>
        <time>2022-01-02T12:19:10.000Z</time>
      </trkpt>
      <trkpt lat="45.48448" lon="6.13751">
        <ele>308.79998779297</ele>
        <time>2022-01-02T12:19:14.000Z</time>
      </trkpt>
      <trkpt lat="45.48452" lon="6.13753">
        <ele>308.39999389648</ele>
        <time>2022-01-02T12:19:15.000Z</time>
      </trkpt>
      <trkpt lat="45.48456" lon="6.13757">
        <ele>308.20001220703</ele>
        <time>2022-01-02T12:19:16.000Z</time>
      </trkpt>
      <trkpt lat="45.48478" lon="6.13775">
        <ele>307.79998779297</ele>
        <time>2022-01-02T12:19:21.000Z</time>
      </trkpt>
      <trkpt lat="45.48486" lon="6.13783">
        <ele>307.60000610352</ele>
        <time>2022-01-02T12:19:23.000Z</time>
      </trkpt>
      <trkpt lat="45.48495" lon="6.13792">
        <ele>307.60000610352</ele>
        <time>2022-01-02T12:19:25.000Z</time>
      </trkpt>
      <trkpt lat="45.485" lon="6.13797">
        <ele>307.60000610352</ele>
        <time>2022-01-02T12:19:26.000Z</time>
      </trkpt>
      <trkpt lat="45.48531" lon="6.1384">
        <ele>308.20001220703</ele>
        <time>2022-01-02T12:19:34.000Z</time>
      </trkpt>
      <trkpt lat="45.48542" lon="6.13857">
        <ele>308.60000610352</ele>
        <time>2022-01-02T12:19:37.000Z</time>
      </trkpt>
      <trkpt lat="45.48551" lon="6.13868">
        <ele>308.60000610352</ele>
        <time>2022-01-02T12:19:39.000Z</time>
      </trkpt>
      <trkpt lat="45.48588" lon="6.139">
        <ele>307.60000610352</ele>
        <time>2022-01-02T12:19:46.000Z</time>
      </trkpt>
      <trkpt lat="45.48593" lon="6.13905">
        <ele>307.39999389648</ele>
        <time>2022-01-02T12:19:47.000Z</time>
      </trkpt>
      <trkpt lat="45.48621" lon="6.13924">
        <ele>307</ele>
        <time>2022-01-02T12:19:52.000Z</time>
      </trkpt>
      <trkpt lat="45.48632" lon="6.13929">
        <ele>307</ele>
        <time>2022-01-02T12:19:54.000Z</time>
      </trkpt>
      <trkpt lat="45.48643" lon="6.13929">
        <ele>307</ele>
        <time>2022-01-02T12:19:56.000Z</time>
      </trkpt>
      <trkpt lat="45.48652" lon="6.13927">
        <ele>307.20001220703</ele>
        <time>2022-01-02T12:19:58.000Z</time>
      </trkpt>
      <trkpt lat="45.48666" lon="6.13927">
        <ele>307.20001220703</ele>
        <time>2022-01-02T12:20:01.000Z</time>
      </trkpt>
      <trkpt lat="45.4867" lon="6.13928">
        <ele>307.39999389648</ele>
        <time>2022-01-02T12:20:02.000Z</time>
      </trkpt>
      <trkpt lat="45.48678" lon="6.13933">
        <ele>307.79998779297</ele>
        <time>2022-01-02T12:20:04.000Z</time>
      </trkpt>
      <trkpt lat="45.48682" lon="6.13938">
        <ele>308</ele>
        <time>2022-01-02T12:20:05.000Z</time>
      </trkpt>
      <trkpt lat="45.48685" lon="6.13942">
        <ele>308</ele>
        <time>2022-01-02T12:20:06.000Z</time>
      </trkpt>
      <trkpt lat="45.48701" lon="6.13962">
        <ele>308.60000610352</ele>
        <time>2022-01-02T12:20:10.000Z</time>
      </trkpt>
      <trkpt lat="45.4872" lon="6.13992">
        <ele>308.39999389648</ele>
        <time>2022-01-02T12:20:15.000Z</time>
      </trkpt>
      <trkpt lat="45.48724" lon="6.13999">
        <ele>308.39999389648</ele>
        <time>2022-01-02T12:20:16.000Z</time>
      </trkpt>
      <trkpt lat="45.48732" lon="6.14023">
        <ele>307.60000610352</ele>
        <time>2022-01-02T12:20:19.000Z</time>
      </trkpt>
      <trkpt lat="45.48733" lon="6.14032">
        <ele>307.39999389648</ele>
        <time>2022-01-02T12:20:20.000Z</time>
      </trkpt>
      <trkpt lat="45.48736" lon="6.14048">
        <ele>307.20001220703</ele>
        <time>2022-01-02T12:20:22.000Z</time>
      </trkpt>
      <trkpt lat="45.48742" lon="6.14073">
        <ele>307</ele>
        <time>2022-01-02T12:20:25.000Z</time>
      </trkpt>
      <trkpt lat="45.48754" lon="6.14095">
        <ele>307</ele>
        <time>2022-01-02T12:20:28.000Z</time>
      </trkpt>
      <trkpt lat="45.48765" lon="6.14107">
        <ele>306.79998779297</ele>
        <time>2022-01-02T12:20:30.000Z</time>
      </trkpt>
      <trkpt lat="45.48796" lon="6.14145">
        <ele>306.60000610352</ele>
        <time>2022-01-02T12:20:37.000Z</time>
      </trkpt>
      <trkpt lat="45.48819" lon="6.14179">
        <ele>307.60000610352</ele>
        <time>2022-01-02T12:20:44.000Z</time>
      </trkpt>
      <trkpt lat="45.48823" lon="6.14184">
        <ele>307.60000610352</ele>
        <time>2022-01-02T12:20:45.000Z</time>
      </trkpt>
      <trkpt lat="45.48838" lon="6.14199">
        <ele>308</ele>
        <time>2022-01-02T12:20:48.000Z</time>
      </trkpt>
      <trkpt lat="45.48854" lon="6.14211">
        <ele>307.79998779297</ele>
        <time>2022-01-02T12:20:51.000Z</time>
      </trkpt>
      <trkpt lat="45.48864" lon="6.14221">
        <ele>307.20001220703</ele>
        <time>2022-01-02T12:20:53.000Z</time>
      </trkpt>
      <trkpt lat="45.48881" lon="6.1425">
        <ele>306.20001220703</ele>
        <time>2022-01-02T12:20:57.000Z</time>
      </trkpt>
      <trkpt lat="45.4889" lon="6.14265">
        <ele>305.79998779297</ele>
        <time>2022-01-02T12:20:59.000Z</time>
      </trkpt>
      <trkpt lat="45.48906" lon="6.14285">
        <ele>305.20001220703</ele>
        <time>2022-01-02T12:21:02.000Z</time>
      </trkpt>
      <trkpt lat="45.48923" lon="6.14302">
        <ele>304.60000610352</ele>
        <time>2022-01-02T12:21:05.000Z</time>
      </trkpt>
      <trkpt lat="45.48929" lon="6.14308">
        <ele>304.20001220703</ele>
        <time>2022-01-02T12:21:06.000Z</time>
      </trkpt>
      <trkpt lat="45.48934" lon="6.14315">
        <ele>304</ele>
        <time>2022-01-02T12:21:07.000Z</time>
      </trkpt>
      <trkpt lat="45.48943" lon="6.14331">
        <ele>303.60000610352</ele>
        <time>2022-01-02T12:21:09.000Z</time>
      </trkpt>
      <trkpt lat="45.4895" lon="6.1435">
        <ele>303</ele>
        <time>2022-01-02T12:21:11.000Z</time>
      </trkpt>
      <trkpt lat="45.48959" lon="6.14379">
        <ele>302.79998779297</ele>
        <time>2022-01-02T12:21:14.000Z</time>
      </trkpt>
      <trkpt lat="45.48979" lon="6.14422">
        <ele>302.39999389648</ele>
        <time>2022-01-02T12:21:19.000Z</time>
      </trkpt>
      <trkpt lat="45.48984" lon="6.14429">
        <ele>302.20001220703</ele>
        <time>2022-01-02T12:21:20.000Z</time>
      </trkpt>
      <trkpt lat="45.49007" lon="6.14455">
        <ele>302</ele>
        <time>2022-01-02T12:21:24.000Z</time>
      </trkpt>
      <trkpt lat="45.49049" lon="6.14506">
        <ele>301.60000610352</ele>
        <time>2022-01-02T12:21:32.000Z</time>
      </trkpt>
      <trkpt lat="45.49084" lon="6.14552">
        <ele>301.39999389648</ele>
        <time>2022-01-02T12:21:39.000Z</time>
      </trkpt>
      <trkpt lat="45.49089" lon="6.14557">
        <ele>301.60000610352</ele>
        <time>2022-01-02T12:21:40.000Z</time>
      </trkpt>
      <trkpt lat="45.49126" lon="6.14577">
        <ele>301.79998779297</ele>
        <time>2022-01-02T12:21:46.000Z</time>
      </trkpt>
      <trkpt lat="45.49177" lon="6.14598">
        <ele>301.79998779297</ele>
        <time>2022-01-02T12:21:54.000Z</time>
      </trkpt>
      <trkpt lat="45.4921" lon="6.14612">
        <ele>301.20001220703</ele>
        <time>2022-01-02T12:21:59.000Z</time>
      </trkpt>
      <trkpt lat="45.49222" lon="6.14621">
        <ele>301</ele>
        <time>2022-01-02T12:22:01.000Z</time>
      </trkpt>
      <trkpt lat="45.49262" lon="6.1466">
        <ele>300.39999389648</ele>
        <time>2022-01-02T12:22:08.000Z</time>
      </trkpt>
      <trkpt lat="45.49284" lon="6.14682">
        <ele>300.20001220703</ele>
        <time>2022-01-02T12:22:12.000Z</time>
      </trkpt>
      <trkpt lat="45.49314" lon="6.14713">
        <ele>300</ele>
        <time>2022-01-02T12:22:18.000Z</time>
      </trkpt>
      <trkpt lat="45.49326" lon="6.14725">
        <ele>300.20001220703</ele>
        <time>2022-01-02T12:22:21.000Z</time>
      </trkpt>
      <trkpt lat="45.49334" lon="6.14733">
        <ele>300.39999389648</ele>
        <time>2022-01-02T12:22:23.000Z</time>
      </trkpt>
      <trkpt lat="45.49348" lon="6.14745">
        <ele>300.60000610352</ele>
        <time>2022-01-02T12:22:27.000Z</time>
      </trkpt>
      <trkpt lat="45.49351" lon="6.14745">
        <ele>300.79998779297</ele>
        <time>2022-01-02T12:22:28.000Z</time>
      </trkpt>
      <trkpt lat="45.49355" lon="6.14743">
        <ele>301.20001220703</ele>
        <time>2022-01-02T12:22:29.000Z</time>
      </trkpt>
      <trkpt lat="45.49358" lon="6.1474">
        <ele>301.39999389648</ele>
        <time>2022-01-02T12:22:30.000Z</time>
      </trkpt>
      <trkpt lat="45.4936" lon="6.14736">
        <ele>301.60000610352</ele>
        <time>2022-01-02T12:22:31.000Z</time>
      </trkpt>
      <trkpt lat="45.49368" lon="6.14715">
        <ele>302.60000610352</ele>
        <time>2022-01-02T12:22:35.000Z</time>
      </trkpt>
      <trkpt lat="45.49378" lon="6.14692">
        <ele>303.60000610352</ele>
        <time>2022-01-02T12:22:40.000Z</time>
      </trkpt>
      <trkpt lat="45.4938" lon="6.14688">
        <ele>303.60000610352</ele>
        <time>2022-01-02T12:22:41.000Z</time>
      </trkpt>
      <trkpt lat="45.49385" lon="6.14674">
        <ele>304.79998779297</ele>
        <time>2022-01-02T12:22:44.000Z</time>
      </trkpt>
      <trkpt lat="45.49392" lon="6.14658">
        <ele>305.79998779297</ele>
        <time>2022-01-02T12:22:48.000Z</time>
      </trkpt>
      <trkpt lat="45.494" lon="6.14644">
        <ele>307</ele>
        <time>2022-01-02T12:22:52.000Z</time>
      </trkpt>
      <trkpt lat="45.49407" lon="6.14634">
        <ele>307.60000610352</ele>
        <time>2022-01-02T12:22:55.000Z</time>
      </trkpt>
      <trkpt lat="45.49413" lon="6.14631">
        <ele>308.60000610352</ele>
        <time>2022-01-02T12:22:57.000Z</time>
      </trkpt>
      <trkpt lat="45.49422" lon="6.14628">
        <ele>309.79998779297</ele>
        <time>2022-01-02T12:23:00.000Z</time>
      </trkpt>
      <trkpt lat="45.49425" lon="6.14627">
        <ele>310.20001220703</ele>
        <time>2022-01-02T12:23:01.000Z</time>
      </trkpt>
      <trkpt lat="45.49434" lon="6.14629">
        <ele>311</ele>
        <time>2022-01-02T12:23:04.000Z</time>
      </trkpt>
      <trkpt lat="45.49447" lon="6.14632">
        <ele>312.60000610352</ele>
        <time>2022-01-02T12:23:08.000Z</time>
      </trkpt>
      <trkpt lat="45.49463" lon="6.14637">
        <ele>313.79998779297</ele>
        <time>2022-01-02T12:23:13.000Z</time>
      </trkpt>
      <trkpt lat="45.49473" lon="6.14639">
        <ele>314.79998779297</ele>
        <time>2022-01-02T12:23:16.000Z</time>
      </trkpt>
      <trkpt lat="45.4948" lon="6.1464">
        <ele>315.39999389648</ele>
        <time>2022-01-02T12:23:18.000Z</time>
      </trkpt>
      <trkpt lat="45.49486" lon="6.14641">
        <ele>316</ele>
        <time>2022-01-02T12:23:20.000Z</time>
      </trkpt>
      <trkpt lat="45.49498" lon="6.14644">
        <ele>317.39999389648</ele>
        <time>2022-01-02T12:23:24.000Z</time>
      </trkpt>
      <trkpt lat="45.49511" lon="6.14648">
        <ele>318.39999389648</ele>
        <time>2022-01-02T12:23:28.000Z</time>
      </trkpt>
      <trkpt lat="45.49523" lon="6.14651">
        <ele>319.39999389648</ele>
        <time>2022-01-02T12:23:32.000Z</time>
      </trkpt>
      <trkpt lat="45.49536" lon="6.14653">
        <ele>320.39999389648</ele>
        <time>2022-01-02T12:23:36.000Z</time>
      </trkpt>
      <trkpt lat="45.49539" lon="6.14654">
        <ele>320.60000610352</ele>
        <time>2022-01-02T12:23:37.000Z</time>
      </trkpt>
      <trkpt lat="45.49552" lon="6.14656">
        <ele>321.79998779297</ele>
        <time>2022-01-02T12:23:41.000Z</time>
      </trkpt>
      <trkpt lat="45.49565" lon="6.14654">
        <ele>322.79998779297</ele>
        <time>2022-01-02T12:23:45.000Z</time>
      </trkpt>
      <trkpt lat="45.49578" lon="6.14648">
        <ele>324</ele>
        <time>2022-01-02T12:23:49.000Z</time>
      </trkpt>
      <trkpt lat="45.49587" lon="6.1464">
        <ele>324.79998779297</ele>
        <time>2022-01-02T12:23:52.000Z</time>
      </trkpt>
      <trkpt lat="45.4959" lon="6.14637">
        <ele>325.20001220703</ele>
        <time>2022-01-02T12:23:53.000Z</time>
      </trkpt>
      <trkpt lat="45.496" lon="6.14625">
        <ele>326.20001220703</ele>
        <time>2022-01-02T12:23:57.000Z</time>
      </trkpt>
      <trkpt lat="45.49609" lon="6.14611">
        <ele>327</ele>
        <time>2022-01-02T12:24:01.000Z</time>
      </trkpt>
      <trkpt lat="45.49612" lon="6.14608">
        <ele>327.39999389648</ele>
        <time>2022-01-02T12:24:02.000Z</time>
      </trkpt>
      <trkpt lat="45.49625" lon="6.14599">
        <ele>328.79998779297</ele>
        <time>2022-01-02T12:24:07.000Z</time>
      </trkpt>
      <trkpt lat="45.49628" lon="6.14598">
        <ele>329.20001220703</ele>
        <time>2022-01-02T12:24:08.000Z</time>
      </trkpt>
      <trkpt lat="45.49637" lon="6.14596">
        <ele>330</ele>
        <time>2022-01-02T12:24:11.000Z</time>
      </trkpt>
      <trkpt lat="45.49643" lon="6.14596">
        <ele>330.79998779297</ele>
        <time>2022-01-02T12:24:13.000Z</time>
      </trkpt>
      <trkpt lat="45.49648" lon="6.14599">
        <ele>331</ele>
        <time>2022-01-02T12:24:15.000Z</time>
      </trkpt>
      <trkpt lat="45.49657" lon="6.14608">
        <ele>332</ele>
        <time>2022-01-02T12:24:18.000Z</time>
      </trkpt>
      <trkpt lat="45.49659" lon="6.14612">
        <ele>332.20001220703</ele>
        <time>2022-01-02T12:24:19.000Z</time>
      </trkpt>
      <trkpt lat="45.49672" lon="6.14629">
        <ele>333.20001220703</ele>
        <time>2022-01-02T12:24:24.000Z</time>
      </trkpt>
      <trkpt lat="45.49674" lon="6.14632">
        <ele>333.60000610352</ele>
        <time>2022-01-02T12:24:25.000Z</time>
      </trkpt>
      <trkpt lat="45.49686" lon="6.14648">
        <ele>334.39999389648</ele>
        <time>2022-01-02T12:24:29.000Z</time>
      </trkpt>
      <trkpt lat="45.49699" lon="6.14667">
        <ele>335</ele>
        <time>2022-01-02T12:24:34.000Z</time>
      </trkpt>
      <trkpt lat="45.49714" lon="6.14685">
        <ele>335.20001220703</ele>
        <time>2022-01-02T12:24:39.000Z</time>
      </trkpt>
      <trkpt lat="45.49721" lon="6.14707">
        <ele>335.20001220703</ele>
        <time>2022-01-02T12:24:43.000Z</time>
      </trkpt>
      <trkpt lat="45.49723" lon="6.14714">
        <ele>335</ele>
        <time>2022-01-02T12:24:44.000Z</time>
      </trkpt>
      <trkpt lat="45.49725" lon="6.14721">
        <ele>335</ele>
        <time>2022-01-02T12:24:45.000Z</time>
      </trkpt>
      <trkpt lat="45.49732" lon="6.14733">
        <ele>334.79998779297</ele>
        <time>2022-01-02T12:24:47.000Z</time>
      </trkpt>
      <trkpt lat="45.49737" lon="6.1474">
        <ele>334.79998779297</ele>
        <time>2022-01-02T12:24:48.000Z</time>
      </trkpt>
      <trkpt lat="45.49764" lon="6.14771">
        <ele>333.60000610352</ele>
        <time>2022-01-02T12:24:53.000Z</time>
      </trkpt>
      <trkpt lat="45.49771" lon="6.14777">
        <ele>333</ele>
        <time>2022-01-02T12:24:54.000Z</time>
      </trkpt>
      <trkpt lat="45.4979" lon="6.14796">
        <ele>332</ele>
        <time>2022-01-02T12:24:57.000Z</time>
      </trkpt>
      <trkpt lat="45.49803" lon="6.14809">
        <ele>330.79998779297</ele>
        <time>2022-01-02T12:24:59.000Z</time>
      </trkpt>
      <trkpt lat="45.49827" lon="6.14827">
        <ele>329.20001220703</ele>
        <time>2022-01-02T12:25:02.000Z</time>
      </trkpt>
      <trkpt lat="45.49845" lon="6.14838">
        <ele>328.20001220703</ele>
        <time>2022-01-02T12:25:04.000Z</time>
      </trkpt>
      <trkpt lat="45.49854" lon="6.14844">
        <ele>327.79998779297</ele>
        <time>2022-01-02T12:25:05.000Z</time>
      </trkpt>
      <trkpt lat="45.49872" lon="6.14857">
        <ele>326.60000610352</ele>
        <time>2022-01-02T12:25:07.000Z</time>
      </trkpt>
      <trkpt lat="45.49889" lon="6.14873">
        <ele>325.20001220703</ele>
        <time>2022-01-02T12:25:09.000Z</time>
      </trkpt>
      <trkpt lat="45.49896" lon="6.14882">
        <ele>324.79998779297</ele>
        <time>2022-01-02T12:25:10.000Z</time>
      </trkpt>
      <trkpt lat="45.49903" lon="6.14891">
        <ele>323.79998779297</ele>
        <time>2022-01-02T12:25:11.000Z</time>
      </trkpt>
      <trkpt lat="45.49916" lon="6.14909">
        <ele>322.79998779297</ele>
        <time>2022-01-02T12:25:13.000Z</time>
      </trkpt>
      <trkpt lat="45.49935" lon="6.14935">
        <ele>321.39999389648</ele>
        <time>2022-01-02T12:25:16.000Z</time>
      </trkpt>
      <trkpt lat="45.49942" lon="6.14943">
        <ele>321.20001220703</ele>
        <time>2022-01-02T12:25:17.000Z</time>
      </trkpt>
      <trkpt lat="45.49964" lon="6.14976">
        <ele>320.39999389648</ele>
        <time>2022-01-02T12:25:21.000Z</time>
      </trkpt>
      <trkpt lat="45.49969" lon="6.14983">
        <ele>320.20001220703</ele>
        <time>2022-01-02T12:25:22.000Z</time>
      </trkpt>
      <trkpt lat="45.5" lon="6.15014">
        <ele>320.60000610352</ele>
        <time>2022-01-02T12:25:28.000Z</time>
      </trkpt>
      <trkpt lat="45.50038" lon="6.15053">
        <ele>320.79998779297</ele>
        <time>2022-01-02T12:25:35.000Z</time>
      </trkpt>
      <trkpt lat="45.50044" lon="6.1506">
        <ele>320.60000610352</ele>
        <time>2022-01-02T12:25:36.000Z</time>
      </trkpt>
      <trkpt lat="45.50053" lon="6.15076">
        <ele>320.39999389648</ele>
        <time>2022-01-02T12:25:38.000Z</time>
      </trkpt>
      <trkpt lat="45.50057" lon="6.15085">
        <ele>320.20001220703</ele>
        <time>2022-01-02T12:25:39.000Z</time>
      </trkpt>
      <trkpt lat="45.50073" lon="6.15126">
        <ele>319</ele>
        <time>2022-01-02T12:25:43.000Z</time>
      </trkpt>
      <trkpt lat="45.50076" lon="6.15138">
        <ele>318.60000610352</ele>
        <time>2022-01-02T12:25:44.000Z</time>
      </trkpt>
      <trkpt lat="45.50084" lon="6.15161">
        <ele>317.79998779297</ele>
        <time>2022-01-02T12:25:46.000Z</time>
      </trkpt>
      <trkpt lat="45.50094" lon="6.15183">
        <ele>316.60000610352</ele>
        <time>2022-01-02T12:25:48.000Z</time>
      </trkpt>
      <trkpt lat="45.501" lon="6.15193">
        <ele>316.39999389648</ele>
        <time>2022-01-02T12:25:49.000Z</time>
      </trkpt>
      <trkpt lat="45.50114" lon="6.15213">
        <ele>315.20001220703</ele>
        <time>2022-01-02T12:25:51.000Z</time>
      </trkpt>
      <trkpt lat="45.50128" lon="6.15234">
        <ele>314</ele>
        <time>2022-01-02T12:25:53.000Z</time>
      </trkpt>
      <trkpt lat="45.50135" lon="6.15244">
        <ele>313.79998779297</ele>
        <time>2022-01-02T12:25:54.000Z</time>
      </trkpt>
      <trkpt lat="45.50142" lon="6.15254">
        <ele>312.79998779297</ele>
        <time>2022-01-02T12:25:55.000Z</time>
      </trkpt>
      <trkpt lat="45.50162" lon="6.15285">
        <ele>311.39999389648</ele>
        <time>2022-01-02T12:25:58.000Z</time>
      </trkpt>
      <trkpt lat="45.50175" lon="6.15303">
        <ele>309.79998779297</ele>
        <time>2022-01-02T12:26:00.000Z</time>
      </trkpt>
      <trkpt lat="45.50181" lon="6.15312">
        <ele>309.60000610352</ele>
        <time>2022-01-02T12:26:01.000Z</time>
      </trkpt>
      <trkpt lat="45.50193" lon="6.15329">
        <ele>308.79998779297</ele>
        <time>2022-01-02T12:26:03.000Z</time>
      </trkpt>
      <trkpt lat="45.5022" lon="6.15372">
        <ele>307.79998779297</ele>
        <time>2022-01-02T12:26:08.000Z</time>
      </trkpt>
      <trkpt lat="45.50226" lon="6.1538">
        <ele>307.60000610352</ele>
        <time>2022-01-02T12:26:09.000Z</time>
      </trkpt>
      <trkpt lat="45.50247" lon="6.15417">
        <ele>307.60000610352</ele>
        <time>2022-01-02T12:26:14.000Z</time>
      </trkpt>
      <trkpt lat="45.50278" lon="6.15464">
        <ele>308</ele>
        <time>2022-01-02T12:26:21.000Z</time>
      </trkpt>
      <trkpt lat="45.50305" lon="6.15497">
        <ele>307.79998779297</ele>
        <time>2022-01-02T12:26:26.000Z</time>
      </trkpt>
      <trkpt lat="45.50341" lon="6.15525">
        <ele>307.39999389648</ele>
        <time>2022-01-02T12:26:32.000Z</time>
      </trkpt>
      <trkpt lat="45.50352" lon="6.15527">
        <ele>307.39999389648</ele>
        <time>2022-01-02T12:26:34.000Z</time>
      </trkpt>
      <trkpt lat="45.50357" lon="6.15527">
        <ele>307.60000610352</ele>
        <time>2022-01-02T12:26:35.000Z</time>
      </trkpt>
      <trkpt lat="45.50384" lon="6.15526">
        <ele>309</ele>
        <time>2022-01-02T12:26:40.000Z</time>
      </trkpt>
      <trkpt lat="45.5039" lon="6.15525">
        <ele>309.20001220703</ele>
        <time>2022-01-02T12:26:41.000Z</time>
      </trkpt>
      <trkpt lat="45.50394" lon="6.15526">
        <ele>309.39999389648</ele>
        <time>2022-01-02T12:26:42.000Z</time>
      </trkpt>
      <trkpt lat="45.50399" lon="6.15528">
        <ele>309.60000610352</ele>
        <time>2022-01-02T12:26:43.000Z</time>
      </trkpt>
      <trkpt lat="45.50408" lon="6.15534">
        <ele>310.20001220703</ele>
        <time>2022-01-02T12:26:45.000Z</time>
      </trkpt>
      <trkpt lat="45.50418" lon="6.1554">
        <ele>310.39999389648</ele>
        <time>2022-01-02T12:26:47.000Z</time>
      </trkpt>
      <trkpt lat="45.50438" lon="6.15555">
        <ele>310.60000610352</ele>
        <time>2022-01-02T12:26:51.000Z</time>
      </trkpt>
      <trkpt lat="45.50454" lon="6.15571">
        <ele>310.39999389648</ele>
        <time>2022-01-02T12:26:54.000Z</time>
      </trkpt>
      <trkpt lat="45.5046" lon="6.15576">
        <ele>310.39999389648</ele>
        <time>2022-01-02T12:26:55.000Z</time>
      </trkpt>
      <trkpt lat="45.50476" lon="6.15587">
        <ele>310.20001220703</ele>
        <time>2022-01-02T12:26:58.000Z</time>
      </trkpt>
      <trkpt lat="45.50495" lon="6.15602">
        <ele>310</ele>
        <time>2022-01-02T12:27:03.000Z</time>
      </trkpt>
      <trkpt lat="45.50508" lon="6.15618">
        <ele>311.20001220703</ele>
        <time>2022-01-02T12:27:06.000Z</time>
      </trkpt>
      <trkpt lat="45.50515" lon="6.1563">
        <ele>311.60000610352</ele>
        <time>2022-01-02T12:27:08.000Z</time>
      </trkpt>
      <trkpt lat="45.50548" lon="6.1567">
        <ele>311.60000610352</ele>
        <time>2022-01-02T12:27:15.000Z</time>
      </trkpt>
      <trkpt lat="45.50584" lon="6.15703">
        <ele>311.60000610352</ele>
        <time>2022-01-02T12:27:23.000Z</time>
      </trkpt>
      <trkpt lat="45.50607" lon="6.15723">
        <ele>312.20001220703</ele>
        <time>2022-01-02T12:27:28.000Z</time>
      </trkpt>
      <trkpt lat="45.50612" lon="6.15728">
        <ele>312.20001220703</ele>
        <time>2022-01-02T12:27:29.000Z</time>
      </trkpt>
      <trkpt lat="45.50636" lon="6.15755">
        <ele>312.39999389648</ele>
        <time>2022-01-02T12:27:34.000Z</time>
      </trkpt>
      <trkpt lat="45.50657" lon="6.15783">
        <ele>311.79998779297</ele>
        <time>2022-01-02T12:27:38.000Z</time>
      </trkpt>
      <trkpt lat="45.50666" lon="6.15801">
        <ele>311.20001220703</ele>
        <time>2022-01-02T12:27:40.000Z</time>
      </trkpt>
      <trkpt lat="45.50671" lon="6.15809">
        <ele>310.60000610352</ele>
        <time>2022-01-02T12:27:41.000Z</time>
      </trkpt>
      <trkpt lat="45.50682" lon="6.15826">
        <ele>309.79998779297</ele>
        <time>2022-01-02T12:27:43.000Z</time>
      </trkpt>
      <trkpt lat="45.50687" lon="6.15833">
        <ele>309.20001220703</ele>
        <time>2022-01-02T12:27:44.000Z</time>
      </trkpt>
      <trkpt lat="45.50694" lon="6.1584">
        <ele>309</ele>
        <time>2022-01-02T12:27:45.000Z</time>
      </trkpt>
      <trkpt lat="45.50721" lon="6.15861">
        <ele>308</ele>
        <time>2022-01-02T12:27:49.000Z</time>
      </trkpt>
      <trkpt lat="45.50727" lon="6.15867">
        <ele>308</ele>
        <time>2022-01-02T12:27:50.000Z</time>
      </trkpt>
      <trkpt lat="45.50769" lon="6.15911">
        <ele>307.39999389648</ele>
        <time>2022-01-02T12:27:57.000Z</time>
      </trkpt>
      <trkpt lat="45.50788" lon="6.15934">
        <ele>306.60000610352</ele>
        <time>2022-01-02T12:28:00.000Z</time>
      </trkpt>
      <trkpt lat="45.50808" lon="6.15958">
        <ele>305.79998779297</ele>
        <time>2022-01-02T12:28:03.000Z</time>
      </trkpt>
      <trkpt lat="45.50815" lon="6.15967">
        <ele>305.60000610352</ele>
        <time>2022-01-02T12:28:04.000Z</time>
      </trkpt>
      <trkpt lat="45.50839" lon="6.15998">
        <ele>304.39999389648</ele>
        <time>2022-01-02T12:28:08.000Z</time>
      </trkpt>
      <trkpt lat="45.50848" lon="6.16012">
        <ele>304</ele>
        <time>2022-01-02T12:28:10.000Z</time>
      </trkpt>
      <trkpt lat="45.50879" lon="6.16054">
        <ele>303.39999389648</ele>
        <time>2022-01-02T12:28:16.000Z</time>
      </trkpt>
      <trkpt lat="45.50885" lon="6.16062">
        <ele>303.20001220703</ele>
        <time>2022-01-02T12:28:17.000Z</time>
      </trkpt>
      <trkpt lat="45.50928" lon="6.16118">
        <ele>302.60000610352</ele>
        <time>2022-01-02T12:28:25.000Z</time>
      </trkpt>
      <trkpt lat="45.50939" lon="6.16136">
        <ele>302.20001220703</ele>
        <time>2022-01-02T12:28:27.000Z</time>
      </trkpt>
      <trkpt lat="45.50959" lon="6.16165">
        <ele>302</ele>
        <time>2022-01-02T12:28:31.000Z</time>
      </trkpt>
      <trkpt lat="45.50996" lon="6.16221">
        <ele>301.39999389648</ele>
        <time>2022-01-02T12:28:39.000Z</time>
      </trkpt>
      <trkpt lat="45.51" lon="6.16228">
        <ele>301.39999389648</ele>
        <time>2022-01-02T12:28:40.000Z</time>
      </trkpt>
      <trkpt lat="45.51004" lon="6.16235">
        <ele>301.39999389648</ele>
        <time>2022-01-02T12:28:41.000Z</time>
      </trkpt>
      <trkpt lat="45.51018" lon="6.16283">
        <ele>301.60000610352</ele>
        <time>2022-01-02T12:28:46.000Z</time>
      </trkpt>
      <trkpt lat="45.51039" lon="6.16334">
        <ele>301</ele>
        <time>2022-01-02T12:28:51.000Z</time>
      </trkpt>
      <trkpt lat="45.51043" lon="6.16345">
        <ele>300.60000610352</ele>
        <time>2022-01-02T12:28:52.000Z</time>
      </trkpt>
      <trkpt lat="45.51052" lon="6.16366">
        <ele>299.79998779297</ele>
        <time>2022-01-02T12:28:54.000Z</time>
      </trkpt>
      <trkpt lat="45.51057" lon="6.16377">
        <ele>299.20001220703</ele>
        <time>2022-01-02T12:28:55.000Z</time>
      </trkpt>
      <trkpt lat="45.51068" lon="6.16395">
        <ele>298.60000610352</ele>
        <time>2022-01-02T12:28:57.000Z</time>
      </trkpt>
      <trkpt lat="45.51088" lon="6.16416">
        <ele>297.20001220703</ele>
        <time>2022-01-02T12:29:00.000Z</time>
      </trkpt>
      <trkpt lat="45.51103" lon="6.16429">
        <ele>296.39999389648</ele>
        <time>2022-01-02T12:29:02.000Z</time>
      </trkpt>
      <trkpt lat="45.51117" lon="6.1644">
        <ele>296</ele>
        <time>2022-01-02T12:29:04.000Z</time>
      </trkpt>
      <trkpt lat="45.51161" lon="6.16481">
        <ele>295</ele>
        <time>2022-01-02T12:29:11.000Z</time>
      </trkpt>
      <trkpt lat="45.51166" lon="6.16488">
        <ele>295</ele>
        <time>2022-01-02T12:29:12.000Z</time>
      </trkpt>
      <trkpt lat="45.51181" lon="6.16512">
        <ele>295</ele>
        <time>2022-01-02T12:29:15.000Z</time>
      </trkpt>
      <trkpt lat="45.51207" lon="6.16574">
        <ele>294.60000610352</ele>
        <time>2022-01-02T12:29:22.000Z</time>
      </trkpt>
      <trkpt lat="45.51215" lon="6.1659">
        <ele>294.39999389648</ele>
        <time>2022-01-02T12:29:24.000Z</time>
      </trkpt>
      <trkpt lat="45.51225" lon="6.166">
        <ele>294.39999389648</ele>
        <time>2022-01-02T12:29:26.000Z</time>
      </trkpt>
      <trkpt lat="45.51241" lon="6.166">
        <ele>294.60000610352</ele>
        <time>2022-01-02T12:29:29.000Z</time>
      </trkpt>
      <trkpt lat="45.51251" lon="6.16596">
        <ele>294.60000610352</ele>
        <time>2022-01-02T12:29:31.000Z</time>
      </trkpt>
      <trkpt lat="45.51267" lon="6.16596">
        <ele>295.20001220703</ele>
        <time>2022-01-02T12:29:34.000Z</time>
      </trkpt>
      <trkpt lat="45.51277" lon="6.16597">
        <ele>295.79998779297</ele>
        <time>2022-01-02T12:29:36.000Z</time>
      </trkpt>
      <trkpt lat="45.51282" lon="6.16598">
        <ele>296.79998779297</ele>
        <time>2022-01-02T12:29:37.000Z</time>
      </trkpt>
      <trkpt lat="45.51292" lon="6.16601">
        <ele>297.60000610352</ele>
        <time>2022-01-02T12:29:39.000Z</time>
      </trkpt>
      <trkpt lat="45.51297" lon="6.16604">
        <ele>297.79998779297</ele>
        <time>2022-01-02T12:29:40.000Z</time>
      </trkpt>
      <trkpt lat="45.51311" lon="6.16612">
        <ele>298.60000610352</ele>
        <time>2022-01-02T12:29:43.000Z</time>
      </trkpt>
      <trkpt lat="45.51315" lon="6.16616">
        <ele>298.79998779297</ele>
        <time>2022-01-02T12:29:44.000Z</time>
      </trkpt>
      <trkpt lat="45.51323" lon="6.16625">
        <ele>299.20001220703</ele>
        <time>2022-01-02T12:29:46.000Z</time>
      </trkpt>
      <trkpt lat="45.51356" lon="6.16658">
        <ele>299.79998779297</ele>
        <time>2022-01-02T12:29:54.000Z</time>
      </trkpt>
      <trkpt lat="45.5136" lon="6.16662">
        <ele>300</ele>
        <time>2022-01-02T12:29:55.000Z</time>
      </trkpt>
      <trkpt lat="45.51369" lon="6.1667">
        <ele>300</ele>
        <time>2022-01-02T12:29:57.000Z</time>
      </trkpt>
      <trkpt lat="45.51377" lon="6.16676">
        <ele>300.39999389648</ele>
        <time>2022-01-02T12:29:59.000Z</time>
      </trkpt>
      <trkpt lat="45.51386" lon="6.16683">
        <ele>300.60000610352</ele>
        <time>2022-01-02T12:30:01.000Z</time>
      </trkpt>
      <trkpt lat="45.51395" lon="6.16688">
        <ele>300.79998779297</ele>
        <time>2022-01-02T12:30:03.000Z</time>
      </trkpt>
      <trkpt lat="45.51407" lon="6.16701">
        <ele>301.20001220703</ele>
        <time>2022-01-02T12:30:06.000Z</time>
      </trkpt>
      <trkpt lat="45.51415" lon="6.1671">
        <ele>301.60000610352</ele>
        <time>2022-01-02T12:30:08.000Z</time>
      </trkpt>
      <trkpt lat="45.51438" lon="6.16744">
        <ele>301.79998779297</ele>
        <time>2022-01-02T12:30:14.000Z</time>
      </trkpt>
      <trkpt lat="45.51446" lon="6.16758">
        <ele>301.79998779297</ele>
        <time>2022-01-02T12:30:16.000Z</time>
      </trkpt>
      <trkpt lat="45.5146" lon="6.16782">
        <ele>301.20001220703</ele>
        <time>2022-01-02T12:30:19.000Z</time>
      </trkpt>
      <trkpt lat="45.51484" lon="6.16814">
        <ele>299.39999389648</ele>
        <time>2022-01-02T12:30:23.000Z</time>
      </trkpt>
      <trkpt lat="45.51494" lon="6.1683">
        <ele>298.39999389648</ele>
        <time>2022-01-02T12:30:25.000Z</time>
      </trkpt>
      <trkpt lat="45.51498" lon="6.16838">
        <ele>298</ele>
        <time>2022-01-02T12:30:26.000Z</time>
      </trkpt>
      <trkpt lat="45.51523" lon="6.16881">
        <ele>297.39999389648</ele>
        <time>2022-01-02T12:30:32.000Z</time>
      </trkpt>
      <trkpt lat="45.51531" lon="6.16893">
        <ele>297.39999389648</ele>
        <time>2022-01-02T12:30:34.000Z</time>
      </trkpt>
      <trkpt lat="45.51546" lon="6.16916">
        <ele>297.79998779297</ele>
        <time>2022-01-02T12:30:38.000Z</time>
      </trkpt>
      <trkpt lat="45.51576" lon="6.16959">
        <ele>299</ele>
        <time>2022-01-02T12:30:46.000Z</time>
      </trkpt>
      <trkpt lat="45.51579" lon="6.16965">
        <ele>299.20001220703</ele>
        <time>2022-01-02T12:30:47.000Z</time>
      </trkpt>
      <trkpt lat="45.51596" lon="6.16988">
        <ele>300.20001220703</ele>
        <time>2022-01-02T12:30:52.000Z</time>
      </trkpt>
      <trkpt lat="45.51599" lon="6.16993">
        <ele>300.39999389648</ele>
        <time>2022-01-02T12:30:53.000Z</time>
      </trkpt>
      <trkpt lat="45.51614" lon="6.17021">
        <ele>301.39999389648</ele>
        <time>2022-01-02T12:30:58.000Z</time>
      </trkpt>
      <trkpt lat="45.51623" lon="6.1704">
        <ele>302</ele>
        <time>2022-01-02T12:31:01.000Z</time>
      </trkpt>
      <trkpt lat="45.51632" lon="6.1706">
        <ele>302.39999389648</ele>
        <time>2022-01-02T12:31:04.000Z</time>
      </trkpt>
      <trkpt lat="45.51643" lon="6.17085">
        <ele>302.79998779297</ele>
        <time>2022-01-02T12:31:08.000Z</time>
      </trkpt>
      <trkpt lat="45.51646" lon="6.17091">
        <ele>303</ele>
        <time>2022-01-02T12:31:09.000Z</time>
      </trkpt>
      <trkpt lat="45.51659" lon="6.17119">
        <ele>303.60000610352</ele>
        <time>2022-01-02T12:31:14.000Z</time>
      </trkpt>
      <trkpt lat="45.51667" lon="6.17143">
        <ele>304.39999389648</ele>
        <time>2022-01-02T12:31:18.000Z</time>
      </trkpt>
      <trkpt lat="45.51669" lon="6.17148">
        <ele>304.60000610352</ele>
        <time>2022-01-02T12:31:19.000Z</time>
      </trkpt>
      <trkpt lat="45.51675" lon="6.17158">
        <ele>304.79998779297</ele>
        <time>2022-01-02T12:31:21.000Z</time>
      </trkpt>
      <trkpt lat="45.51685" lon="6.17172">
        <ele>306</ele>
        <time>2022-01-02T12:31:24.000Z</time>
      </trkpt>
      <trkpt lat="45.51688" lon="6.17177">
        <ele>306.20001220703</ele>
        <time>2022-01-02T12:31:25.000Z</time>
      </trkpt>
      <trkpt lat="45.51699" lon="6.17192">
        <ele>307</ele>
        <time>2022-01-02T12:31:28.000Z</time>
      </trkpt>
      <trkpt lat="45.51713" lon="6.17213">
        <ele>307.39999389648</ele>
        <time>2022-01-02T12:31:32.000Z</time>
      </trkpt>
      <trkpt lat="45.51729" lon="6.17234">
        <ele>307.39999389648</ele>
        <time>2022-01-02T12:31:36.000Z</time>
      </trkpt>
      <trkpt lat="45.51733" lon="6.1724">
        <ele>307.20001220703</ele>
        <time>2022-01-02T12:31:37.000Z</time>
      </trkpt>
      <trkpt lat="45.51742" lon="6.17252">
        <ele>307</ele>
        <time>2022-01-02T12:31:39.000Z</time>
      </trkpt>
      <trkpt lat="45.51765" lon="6.17283">
        <ele>306.39999389648</ele>
        <time>2022-01-02T12:31:44.000Z</time>
      </trkpt>
      <trkpt lat="45.51789" lon="6.17316">
        <ele>305.79998779297</ele>
        <time>2022-01-02T12:31:49.000Z</time>
      </trkpt>
      <trkpt lat="45.51797" lon="6.17329">
        <ele>305.60000610352</ele>
        <time>2022-01-02T12:31:51.000Z</time>
      </trkpt>
      <trkpt lat="45.51811" lon="6.17365">
        <ele>305.39999389648</ele>
        <time>2022-01-02T12:31:56.000Z</time>
      </trkpt>
      <trkpt lat="45.51821" lon="6.17398">
        <ele>305.60000610352</ele>
        <time>2022-01-02T12:32:01.000Z</time>
      </trkpt>
      <trkpt lat="45.51824" lon="6.17411">
        <ele>306</ele>
        <time>2022-01-02T12:32:03.000Z</time>
      </trkpt>
      <trkpt lat="45.51831" lon="6.17427">
        <ele>307</ele>
        <time>2022-01-02T12:32:06.000Z</time>
      </trkpt>
      <trkpt lat="45.51837" lon="6.17438">
        <ele>307.60000610352</ele>
        <time>2022-01-02T12:32:08.000Z</time>
      </trkpt>
      <trkpt lat="45.51843" lon="6.17447">
        <ele>308</ele>
        <time>2022-01-02T12:32:10.000Z</time>
      </trkpt>
      <trkpt lat="45.51861" lon="6.17478">
        <ele>309.20001220703</ele>
        <time>2022-01-02T12:32:16.000Z</time>
      </trkpt>
      <trkpt lat="45.51864" lon="6.17483">
        <ele>309.39999389648</ele>
        <time>2022-01-02T12:32:17.000Z</time>
      </trkpt>
      <trkpt lat="45.51878" lon="6.17508">
        <ele>310.39999389648</ele>
        <time>2022-01-02T12:32:21.000Z</time>
      </trkpt>
      <trkpt lat="45.51881" lon="6.17515">
        <ele>310.39999389648</ele>
        <time>2022-01-02T12:32:22.000Z</time>
      </trkpt>
      <trkpt lat="45.51909" lon="6.17575">
        <ele>309.79998779297</ele>
        <time>2022-01-02T12:32:30.000Z</time>
      </trkpt>
      <trkpt lat="45.51931" lon="6.17627">
        <ele>309.20001220703</ele>
        <time>2022-01-02T12:32:37.000Z</time>
      </trkpt>
      <trkpt lat="45.51934" lon="6.17635">
        <ele>309.20001220703</ele>
        <time>2022-01-02T12:32:38.000Z</time>
      </trkpt>
      <trkpt lat="45.51948" lon="6.17678">
        <ele>308.20001220703</ele>
        <time>2022-01-02T12:32:43.000Z</time>
      </trkpt>
      <trkpt lat="45.51954" lon="6.17697">
        <ele>307.79998779297</ele>
        <time>2022-01-02T12:32:45.000Z</time>
      </trkpt>
      <trkpt lat="45.51959" lon="6.17717">
        <ele>307</ele>
        <time>2022-01-02T12:32:47.000Z</time>
      </trkpt>
      <trkpt lat="45.51968" lon="6.17747">
        <ele>306</ele>
        <time>2022-01-02T12:32:50.000Z</time>
      </trkpt>
      <trkpt lat="45.51974" lon="6.17767">
        <ele>305.39999389648</ele>
        <time>2022-01-02T12:32:52.000Z</time>
      </trkpt>
      <trkpt lat="45.51979" lon="6.17786">
        <ele>304.79998779297</ele>
        <time>2022-01-02T12:32:54.000Z</time>
      </trkpt>
      <trkpt lat="45.51984" lon="6.17803">
        <ele>304.20001220703</ele>
        <time>2022-01-02T12:32:56.000Z</time>
      </trkpt>
      <trkpt lat="45.51988" lon="6.17811">
        <ele>303.79998779297</ele>
        <time>2022-01-02T12:32:57.000Z</time>
      </trkpt>
      <trkpt lat="45.51993" lon="6.17817">
        <ele>303.79998779297</ele>
        <time>2022-01-02T12:32:58.000Z</time>
      </trkpt>
      <trkpt lat="45.52007" lon="6.17833">
        <ele>303.60000610352</ele>
        <time>2022-01-02T12:33:01.000Z</time>
      </trkpt>
      <trkpt lat="45.52013" lon="6.17843">
        <ele>303.60000610352</ele>
        <time>2022-01-02T12:33:03.000Z</time>
      </trkpt>
      <trkpt lat="45.5202" lon="6.17849">
        <ele>303.79998779297</ele>
        <time>2022-01-02T12:33:05.000Z</time>
      </trkpt>
      <trkpt lat="45.52033" lon="6.17861">
        <ele>305</ele>
        <time>2022-01-02T12:33:09.000Z</time>
      </trkpt>
      <trkpt lat="45.52042" lon="6.17871">
        <ele>305.79998779297</ele>
        <time>2022-01-02T12:33:12.000Z</time>
      </trkpt>
      <trkpt lat="45.52045" lon="6.17874">
        <ele>306</ele>
        <time>2022-01-02T12:33:13.000Z</time>
      </trkpt>
      <trkpt lat="45.52055" lon="6.17886">
        <ele>307.20001220703</ele>
        <time>2022-01-02T12:33:17.000Z</time>
      </trkpt>
      <trkpt lat="45.52068" lon="6.17899">
        <ele>308.20001220703</ele>
        <time>2022-01-02T12:33:22.000Z</time>
      </trkpt>
      <trkpt lat="45.52075" lon="6.17907">
        <ele>309.20001220703</ele>
        <time>2022-01-02T12:33:25.000Z</time>
      </trkpt>
      <trkpt lat="45.52078" lon="6.1791">
        <ele>309.60000610352</ele>
        <time>2022-01-02T12:33:26.000Z</time>
      </trkpt>
      <trkpt lat="45.52088" lon="6.17921">
        <ele>310.60000610352</ele>
        <time>2022-01-02T12:33:30.000Z</time>
      </trkpt>
      <trkpt lat="45.52094" lon="6.17926">
        <ele>311.20001220703</ele>
        <time>2022-01-02T12:33:32.000Z</time>
      </trkpt>
      <trkpt lat="45.52102" lon="6.17935">
        <ele>311.79998779297</ele>
        <time>2022-01-02T12:33:35.000Z</time>
      </trkpt>
      <trkpt lat="45.52113" lon="6.17947">
        <ele>313</ele>
        <time>2022-01-02T12:33:39.000Z</time>
      </trkpt>
      <trkpt lat="45.52127" lon="6.1796">
        <ele>314</ele>
        <time>2022-01-02T12:33:44.000Z</time>
      </trkpt>
      <trkpt lat="45.52132" lon="6.17967">
        <ele>314.79998779297</ele>
        <time>2022-01-02T12:33:46.000Z</time>
      </trkpt>
      <trkpt lat="45.52137" lon="6.17973">
        <ele>315.20001220703</ele>
        <time>2022-01-02T12:33:48.000Z</time>
      </trkpt>
      <trkpt lat="45.52149" lon="6.17989">
        <ele>316.60000610352</ele>
        <time>2022-01-02T12:33:53.000Z</time>
      </trkpt>
      <trkpt lat="45.52151" lon="6.17991">
        <ele>316.79998779297</ele>
        <time>2022-01-02T12:33:54.000Z</time>
      </trkpt>
      <trkpt lat="45.52161" lon="6.18004">
        <ele>317.60000610352</ele>
        <time>2022-01-02T12:33:58.000Z</time>
      </trkpt>
      <trkpt lat="45.52168" lon="6.18013">
        <ele>318.39999389648</ele>
        <time>2022-01-02T12:34:01.000Z</time>
      </trkpt>
      <trkpt lat="45.52173" lon="6.18019">
        <ele>319</ele>
        <time>2022-01-02T12:34:03.000Z</time>
      </trkpt>
      <trkpt lat="45.52185" lon="6.18034">
        <ele>320.39999389648</ele>
        <time>2022-01-02T12:34:08.000Z</time>
      </trkpt>
      <trkpt lat="45.52189" lon="6.1804">
        <ele>320.79998779297</ele>
        <time>2022-01-02T12:34:10.000Z</time>
      </trkpt>
      <trkpt lat="45.522" lon="6.18057">
        <ele>321.60000610352</ele>
        <time>2022-01-02T12:34:15.000Z</time>
      </trkpt>
      <trkpt lat="45.52204" lon="6.18064">
        <ele>321.79998779297</ele>
        <time>2022-01-02T12:34:17.000Z</time>
      </trkpt>
      <trkpt lat="45.52217" lon="6.18086">
        <ele>322.60000610352</ele>
        <time>2022-01-02T12:34:23.000Z</time>
      </trkpt>
      <trkpt lat="45.52222" lon="6.18097">
        <ele>323.39999389648</ele>
        <time>2022-01-02T12:34:26.000Z</time>
      </trkpt>
      <trkpt lat="45.52227" lon="6.18104">
        <ele>323.79998779297</ele>
        <time>2022-01-02T12:34:28.000Z</time>
      </trkpt>
      <trkpt lat="45.52239" lon="6.18125">
        <ele>324.79998779297</ele>
        <time>2022-01-02T12:34:34.000Z</time>
      </trkpt>
      <trkpt lat="45.52241" lon="6.18129">
        <ele>325</ele>
        <time>2022-01-02T12:34:35.000Z</time>
      </trkpt>
      <trkpt lat="45.52247" lon="6.18139">
        <ele>325.79998779297</ele>
        <time>2022-01-02T12:34:38.000Z</time>
      </trkpt>
      <trkpt lat="45.52258" lon="6.18151">
        <ele>326.39999389648</ele>
        <time>2022-01-02T12:34:42.000Z</time>
      </trkpt>
      <trkpt lat="45.52266" lon="6.1816">
        <ele>327</ele>
        <time>2022-01-02T12:34:45.000Z</time>
      </trkpt>
      <trkpt lat="45.52282" lon="6.18177">
        <ele>327.79998779297</ele>
        <time>2022-01-02T12:34:51.000Z</time>
      </trkpt>
      <trkpt lat="45.52289" lon="6.18182">
        <ele>328</ele>
        <time>2022-01-02T12:34:53.000Z</time>
      </trkpt>
      <trkpt lat="45.52305" lon="6.18192">
        <ele>328.60000610352</ele>
        <time>2022-01-02T12:34:58.000Z</time>
      </trkpt>
      <trkpt lat="45.52312" lon="6.18194">
        <ele>329</ele>
        <time>2022-01-02T12:35:00.000Z</time>
      </trkpt>
      <trkpt lat="45.52328" lon="6.18194">
        <ele>329.79998779297</ele>
        <time>2022-01-02T12:35:05.000Z</time>
      </trkpt>
      <trkpt lat="45.52341" lon="6.18191">
        <ele>330.39999389648</ele>
        <time>2022-01-02T12:35:09.000Z</time>
      </trkpt>
      <trkpt lat="45.52358" lon="6.18188">
        <ele>331</ele>
        <time>2022-01-02T12:35:14.000Z</time>
      </trkpt>
      <trkpt lat="45.52368" lon="6.18189">
        <ele>331.60000610352</ele>
        <time>2022-01-02T12:35:17.000Z</time>
      </trkpt>
      <trkpt lat="45.52381" lon="6.18193">
        <ele>332.39999389648</ele>
        <time>2022-01-02T12:35:21.000Z</time>
      </trkpt>
      <trkpt lat="45.52387" lon="6.18197">
        <ele>332.79998779297</ele>
        <time>2022-01-02T12:35:23.000Z</time>
      </trkpt>
      <trkpt lat="45.524" lon="6.18205">
        <ele>333.79998779297</ele>
        <time>2022-01-02T12:35:27.000Z</time>
      </trkpt>
      <trkpt lat="45.52406" lon="6.18209">
        <ele>334.20001220703</ele>
        <time>2022-01-02T12:35:29.000Z</time>
      </trkpt>
      <trkpt lat="45.52421" lon="6.1822">
        <ele>334.79998779297</ele>
        <time>2022-01-02T12:35:34.000Z</time>
      </trkpt>
      <trkpt lat="45.52436" lon="6.18234">
        <ele>335.39999389648</ele>
        <time>2022-01-02T12:35:39.000Z</time>
      </trkpt>
      <trkpt lat="45.52449" lon="6.18244">
        <ele>335.79998779297</ele>
        <time>2022-01-02T12:35:43.000Z</time>
      </trkpt>
      <trkpt lat="45.52467" lon="6.18259">
        <ele>336.60000610352</ele>
        <time>2022-01-02T12:35:49.000Z</time>
      </trkpt>
      <trkpt lat="45.52479" lon="6.18269">
        <ele>337</ele>
        <time>2022-01-02T12:35:53.000Z</time>
      </trkpt>
      <trkpt lat="45.52488" lon="6.18276">
        <ele>337.60000610352</ele>
        <time>2022-01-02T12:35:56.000Z</time>
      </trkpt>
      <trkpt lat="45.52494" lon="6.18282">
        <ele>338</ele>
        <time>2022-01-02T12:35:58.000Z</time>
      </trkpt>
      <trkpt lat="45.52512" lon="6.18296">
        <ele>339.20001220703</ele>
        <time>2022-01-02T12:36:04.000Z</time>
      </trkpt>
      <trkpt lat="45.52517" lon="6.18301">
        <ele>339.60000610352</ele>
        <time>2022-01-02T12:36:06.000Z</time>
      </trkpt>
      <trkpt lat="45.52526" lon="6.18307">
        <ele>340.20001220703</ele>
        <time>2022-01-02T12:36:09.000Z</time>
      </trkpt>
      <trkpt lat="45.52536" lon="6.1831">
        <ele>341</ele>
        <time>2022-01-02T12:36:12.000Z</time>
      </trkpt>
      <trkpt lat="45.52539" lon="6.18311">
        <ele>341.39999389648</ele>
        <time>2022-01-02T12:36:13.000Z</time>
      </trkpt>
      <trkpt lat="45.52548" lon="6.18313">
        <ele>342.39999389648</ele>
        <time>2022-01-02T12:36:16.000Z</time>
      </trkpt>
      <trkpt lat="45.5256" lon="6.18319">
        <ele>343.60000610352</ele>
        <time>2022-01-02T12:36:20.000Z</time>
      </trkpt>
      <trkpt lat="45.52575" lon="6.1833">
        <ele>344.79998779297</ele>
        <time>2022-01-02T12:36:25.000Z</time>
      </trkpt>
      <trkpt lat="45.52584" lon="6.18337">
        <ele>345.39999389648</ele>
        <time>2022-01-02T12:36:28.000Z</time>
      </trkpt>
      <trkpt lat="45.5259" lon="6.18341">
        <ele>345.79998779297</ele>
        <time>2022-01-02T12:36:30.000Z</time>
      </trkpt>
      <trkpt lat="45.52606" lon="6.18354">
        <ele>347</ele>
        <time>2022-01-02T12:36:35.000Z</time>
      </trkpt>
      <trkpt lat="45.5261" lon="6.18358">
        <ele>347.20001220703</ele>
        <time>2022-01-02T12:36:36.000Z</time>
      </trkpt>
      <trkpt lat="45.52642" lon="6.18384">
        <ele>347.79998779297</ele>
        <time>2022-01-02T12:36:45.000Z</time>
      </trkpt>
      <trkpt lat="45.5265" lon="6.18388">
        <ele>347.79998779297</ele>
        <time>2022-01-02T12:36:47.000Z</time>
      </trkpt>
      <trkpt lat="45.5266" lon="6.18397">
        <ele>348.20001220703</ele>
        <time>2022-01-02T12:36:50.000Z</time>
      </trkpt>
      <trkpt lat="45.52662" lon="6.184">
        <ele>348.39999389648</ele>
        <time>2022-01-02T12:36:51.000Z</time>
      </trkpt>
      <trkpt lat="45.52673" lon="6.18417">
        <ele>349.39999389648</ele>
        <time>2022-01-02T12:36:56.000Z</time>
      </trkpt>
      <trkpt lat="45.52674" lon="6.18418">
        <ele>349.60000610352</ele>
        <time>2022-01-02T12:36:57.000Z</time>
      </trkpt>
      <trkpt lat="45.52685" lon="6.1843">
        <ele>350.20001220703</ele>
        <time>2022-01-02T12:37:01.000Z</time>
      </trkpt>
      <trkpt lat="45.52688" lon="6.18434">
        <ele>350.39999389648</ele>
        <time>2022-01-02T12:37:02.000Z</time>
      </trkpt>
      <trkpt lat="45.5271" lon="6.1846">
        <ele>350.79998779297</ele>
        <time>2022-01-02T12:37:08.000Z</time>
      </trkpt>
      <trkpt lat="45.52714" lon="6.18464">
        <ele>351</ele>
        <time>2022-01-02T12:37:09.000Z</time>
      </trkpt>
      <trkpt lat="45.52732" lon="6.18485">
        <ele>351.39999389648</ele>
        <time>2022-01-02T12:37:14.000Z</time>
      </trkpt>
      <trkpt lat="45.52736" lon="6.18489">
        <ele>351.60000610352</ele>
        <time>2022-01-02T12:37:15.000Z</time>
      </trkpt>
      <trkpt lat="45.52743" lon="6.18498">
        <ele>351.79998779297</ele>
        <time>2022-01-02T12:37:17.000Z</time>
      </trkpt>
      <trkpt lat="45.52751" lon="6.18508">
        <ele>352</ele>
        <time>2022-01-02T12:37:20.000Z</time>
      </trkpt>
      <trkpt lat="45.52759" lon="6.1852">
        <ele>352.39999389648</ele>
        <time>2022-01-02T12:37:23.000Z</time>
      </trkpt>
      <trkpt lat="45.52774" lon="6.18536">
        <ele>353.60000610352</ele>
        <time>2022-01-02T12:37:28.000Z</time>
      </trkpt>
      <trkpt lat="45.5279" lon="6.18549">
        <ele>354.60000610352</ele>
        <time>2022-01-02T12:37:33.000Z</time>
      </trkpt>
      <trkpt lat="45.52807" lon="6.18562">
        <ele>355.20001220703</ele>
        <time>2022-01-02T12:37:38.000Z</time>
      </trkpt>
      <trkpt lat="45.52837" lon="6.18586">
        <ele>355.60000610352</ele>
        <time>2022-01-02T12:37:46.000Z</time>
      </trkpt>
      <trkpt lat="45.52874" lon="6.18614">
        <ele>355.79998779297</ele>
        <time>2022-01-02T12:37:55.000Z</time>
      </trkpt>
      <trkpt lat="45.52905" lon="6.18632">
        <ele>356.39999389648</ele>
        <time>2022-01-02T12:38:03.000Z</time>
      </trkpt>
      <trkpt lat="45.52912" lon="6.18637">
        <ele>356.60000610352</ele>
        <time>2022-01-02T12:38:05.000Z</time>
      </trkpt>
      <trkpt lat="45.5293" lon="6.18648">
        <ele>357.79998779297</ele>
        <time>2022-01-02T12:38:10.000Z</time>
      </trkpt>
      <trkpt lat="45.52934" lon="6.1865">
        <ele>358.20001220703</ele>
        <time>2022-01-02T12:38:11.000Z</time>
      </trkpt>
      <trkpt lat="45.52948" lon="6.18659">
        <ele>359.20001220703</ele>
        <time>2022-01-02T12:38:15.000Z</time>
      </trkpt>
      <trkpt lat="45.52968" lon="6.18673">
        <ele>359.79998779297</ele>
        <time>2022-01-02T12:38:20.000Z</time>
      </trkpt>
      <trkpt lat="45.52972" lon="6.18676">
        <ele>359.79998779297</ele>
        <time>2022-01-02T12:38:21.000Z</time>
      </trkpt>
      <trkpt lat="45.5298" lon="6.18681">
        <ele>359.79998779297</ele>
        <time>2022-01-02T12:38:23.000Z</time>
      </trkpt>
      <trkpt lat="45.52988" lon="6.18685">
        <ele>359.79998779297</ele>
        <time>2022-01-02T12:38:25.000Z</time>
      </trkpt>
      <trkpt lat="45.52993" lon="6.18687">
        <ele>359.79998779297</ele>
        <time>2022-01-02T12:38:26.000Z</time>
      </trkpt>
      <trkpt lat="45.52999" lon="6.18694">
        <ele>359.79998779297</ele>
        <time>2022-01-02T12:38:28.000Z</time>
      </trkpt>
      <trkpt lat="45.53001" lon="6.18699">
        <ele>359.79998779297</ele>
        <time>2022-01-02T12:38:29.000Z</time>
      </trkpt>
      <trkpt lat="45.53003" lon="6.18705">
        <ele>359.79998779297</ele>
        <time>2022-01-02T12:38:30.000Z</time>
      </trkpt>
      <trkpt lat="45.53017" lon="6.18735">
        <ele>359.60000610352</ele>
        <time>2022-01-02T12:38:36.000Z</time>
      </trkpt>
      <trkpt lat="45.53038" lon="6.18779">
        <ele>359.79998779297</ele>
        <time>2022-01-02T12:38:44.000Z</time>
      </trkpt>
      <trkpt lat="45.53056" lon="6.18814">
        <ele>359.60000610352</ele>
        <time>2022-01-02T12:38:49.000Z</time>
      </trkpt>
      <trkpt lat="45.53067" lon="6.18828">
        <ele>359.39999389648</ele>
        <time>2022-01-02T12:38:51.000Z</time>
      </trkpt>
      <trkpt lat="45.53085" lon="6.18849">
        <ele>358.39999389648</ele>
        <time>2022-01-02T12:38:54.000Z</time>
      </trkpt>
      <trkpt lat="45.53092" lon="6.18857">
        <ele>357.79998779297</ele>
        <time>2022-01-02T12:38:55.000Z</time>
      </trkpt>
      <trkpt lat="45.53106" lon="6.18873">
        <ele>356.39999389648</ele>
        <time>2022-01-02T12:38:57.000Z</time>
      </trkpt>
      <trkpt lat="45.5312" lon="6.18891">
        <ele>355.20001220703</ele>
        <time>2022-01-02T12:38:59.000Z</time>
      </trkpt>
      <trkpt lat="45.53129" lon="6.18902">
        <ele>354.79998779297</ele>
        <time>2022-01-02T12:39:00.000Z</time>
      </trkpt>
      <trkpt lat="45.53135" lon="6.1891">
        <ele>353.60000610352</ele>
        <time>2022-01-02T12:39:01.000Z</time>
      </trkpt>
      <trkpt lat="45.53142" lon="6.18919">
        <ele>352.60000610352</ele>
        <time>2022-01-02T12:39:02.000Z</time>
      </trkpt>
      <trkpt lat="45.53155" lon="6.18937">
        <ele>351.20001220703</ele>
        <time>2022-01-02T12:39:04.000Z</time>
      </trkpt>
      <trkpt lat="45.5317" lon="6.18956">
        <ele>349</ele>
        <time>2022-01-02T12:39:06.000Z</time>
      </trkpt>
      <trkpt lat="45.53178" lon="6.18966">
        <ele>347.79998779297</ele>
        <time>2022-01-02T12:39:07.000Z</time>
      </trkpt>
      <trkpt lat="45.53194" lon="6.18985">
        <ele>345.60000610352</ele>
        <time>2022-01-02T12:39:09.000Z</time>
      </trkpt>
      <trkpt lat="45.53211" lon="6.19005">
        <ele>344</ele>
        <time>2022-01-02T12:39:11.000Z</time>
      </trkpt>
      <trkpt lat="45.53219" lon="6.19015">
        <ele>342.79998779297</ele>
        <time>2022-01-02T12:39:12.000Z</time>
      </trkpt>
      <trkpt lat="45.53235" lon="6.19034">
        <ele>341.39999389648</ele>
        <time>2022-01-02T12:39:14.000Z</time>
      </trkpt>
      <trkpt lat="45.53243" lon="6.19043">
        <ele>341.20001220703</ele>
        <time>2022-01-02T12:39:15.000Z</time>
      </trkpt>
      <trkpt lat="45.53258" lon="6.19062">
        <ele>340.20001220703</ele>
        <time>2022-01-02T12:39:17.000Z</time>
      </trkpt>
      <trkpt lat="45.53271" lon="6.19081">
        <ele>339</ele>
        <time>2022-01-02T12:39:19.000Z</time>
      </trkpt>
      <trkpt lat="45.53278" lon="6.19091">
        <ele>338.60000610352</ele>
        <time>2022-01-02T12:39:20.000Z</time>
      </trkpt>
      <trkpt lat="45.53284" lon="6.191">
        <ele>337.79998779297</ele>
        <time>2022-01-02T12:39:21.000Z</time>
      </trkpt>
      <trkpt lat="45.53296" lon="6.19119">
        <ele>336.60000610352</ele>
        <time>2022-01-02T12:39:23.000Z</time>
      </trkpt>
      <trkpt lat="45.53315" lon="6.19145">
        <ele>335.60000610352</ele>
        <time>2022-01-02T12:39:26.000Z</time>
      </trkpt>
      <trkpt lat="45.53339" lon="6.19177">
        <ele>334.39999389648</ele>
        <time>2022-01-02T12:39:30.000Z</time>
      </trkpt>
      <trkpt lat="45.53346" lon="6.19184">
        <ele>334</ele>
        <time>2022-01-02T12:39:31.000Z</time>
      </trkpt>
      <trkpt lat="45.53367" lon="6.19203">
        <ele>333.39999389648</ele>
        <time>2022-01-02T12:39:34.000Z</time>
      </trkpt>
      <trkpt lat="45.53391" lon="6.19222">
        <ele>332.20001220703</ele>
        <time>2022-01-02T12:39:37.000Z</time>
      </trkpt>
      <trkpt lat="45.53425" lon="6.19251">
        <ele>330.60000610352</ele>
        <time>2022-01-02T12:39:41.000Z</time>
      </trkpt>
      <trkpt lat="45.53433" lon="6.1926">
        <ele>330.20001220703</ele>
        <time>2022-01-02T12:39:42.000Z</time>
      </trkpt>
      <trkpt lat="45.53442" lon="6.19269">
        <ele>329.39999389648</ele>
        <time>2022-01-02T12:39:43.000Z</time>
      </trkpt>
      <trkpt lat="45.53462" lon="6.1929">
        <ele>328</ele>
        <time>2022-01-02T12:39:45.000Z</time>
      </trkpt>
      <trkpt lat="45.53469" lon="6.19297">
        <ele>327.20001220703</ele>
        <time>2022-01-02T12:39:46.000Z</time>
      </trkpt>
      <trkpt lat="45.53486" lon="6.19315">
        <ele>325.79998779297</ele>
        <time>2022-01-02T12:39:48.000Z</time>
      </trkpt>
      <trkpt lat="45.53495" lon="6.19323">
        <ele>325.20001220703</ele>
        <time>2022-01-02T12:39:49.000Z</time>
      </trkpt>
      <trkpt lat="45.53504" lon="6.19329">
        <ele>323.60000610352</ele>
        <time>2022-01-02T12:39:50.000Z</time>
      </trkpt>
      <trkpt lat="45.53513" lon="6.19335">
        <ele>322.60000610352</ele>
        <time>2022-01-02T12:39:51.000Z</time>
      </trkpt>
      <trkpt lat="45.53532" lon="6.19341">
        <ele>321.39999389648</ele>
        <time>2022-01-02T12:39:53.000Z</time>
      </trkpt>
      <trkpt lat="45.53551" lon="6.19345">
        <ele>319.79998779297</ele>
        <time>2022-01-02T12:39:55.000Z</time>
      </trkpt>
      <trkpt lat="45.5356" lon="6.19343">
        <ele>318.60000610352</ele>
        <time>2022-01-02T12:39:56.000Z</time>
      </trkpt>
      <trkpt lat="45.53569" lon="6.1934">
        <ele>317.79998779297</ele>
        <time>2022-01-02T12:39:57.000Z</time>
      </trkpt>
      <trkpt lat="45.53576" lon="6.19335">
        <ele>317</ele>
        <time>2022-01-02T12:39:58.000Z</time>
      </trkpt>
      <trkpt lat="45.53591" lon="6.1933">
        <ele>315.20001220703</ele>
        <time>2022-01-02T12:40:00.000Z</time>
      </trkpt>
      <trkpt lat="45.53597" lon="6.19332">
        <ele>314.20001220703</ele>
        <time>2022-01-02T12:40:01.000Z</time>
      </trkpt>
      <trkpt lat="45.53602" lon="6.19338">
        <ele>313.60000610352</ele>
        <time>2022-01-02T12:40:02.000Z</time>
      </trkpt>
      <trkpt lat="45.53607" lon="6.19346">
        <ele>312.39999389648</ele>
        <time>2022-01-02T12:40:03.000Z</time>
      </trkpt>
      <trkpt lat="45.53621" lon="6.19376">
        <ele>311</ele>
        <time>2022-01-02T12:40:06.000Z</time>
      </trkpt>
      <trkpt lat="45.53628" lon="6.19396">
        <ele>309.20001220703</ele>
        <time>2022-01-02T12:40:08.000Z</time>
      </trkpt>
      <trkpt lat="45.53624" lon="6.19415">
        <ele>307.60000610352</ele>
        <time>2022-01-02T12:40:10.000Z</time>
      </trkpt>
      <trkpt lat="45.53612" lon="6.19429">
        <ele>306.20001220703</ele>
        <time>2022-01-02T12:40:12.000Z</time>
      </trkpt>
      <trkpt lat="45.53604" lon="6.19435">
        <ele>305.20001220703</ele>
        <time>2022-01-02T12:40:13.000Z</time>
      </trkpt>
      <trkpt lat="45.5359" lon="6.19446">
        <ele>303.79998779297</ele>
        <time>2022-01-02T12:40:15.000Z</time>
      </trkpt>
      <trkpt lat="45.53584" lon="6.19452">
        <ele>303.39999389648</ele>
        <time>2022-01-02T12:40:16.000Z</time>
      </trkpt>
      <trkpt lat="45.5358" lon="6.1946">
        <ele>302.79998779297</ele>
        <time>2022-01-02T12:40:17.000Z</time>
      </trkpt>
      <trkpt lat="45.53577" lon="6.1947">
        <ele>301.79998779297</ele>
        <time>2022-01-02T12:40:18.000Z</time>
      </trkpt>
      <trkpt lat="45.53577" lon="6.1948">
        <ele>301.60000610352</ele>
        <time>2022-01-02T12:40:19.000Z</time>
      </trkpt>
      <trkpt lat="45.5358" lon="6.1949">
        <ele>300.60000610352</ele>
        <time>2022-01-02T12:40:20.000Z</time>
      </trkpt>
      <trkpt lat="45.53584" lon="6.19499">
        <ele>300.20001220703</ele>
        <time>2022-01-02T12:40:21.000Z</time>
      </trkpt>
      <trkpt lat="45.53593" lon="6.19514">
        <ele>298.79998779297</ele>
        <time>2022-01-02T12:40:23.000Z</time>
      </trkpt>
      <trkpt lat="45.53597" lon="6.19522">
        <ele>298.20001220703</ele>
        <time>2022-01-02T12:40:24.000Z</time>
      </trkpt>
      <trkpt lat="45.53601" lon="6.19529">
        <ele>297</ele>
        <time>2022-01-02T12:40:25.000Z</time>
      </trkpt>
      <trkpt lat="45.53604" lon="6.19535">
        <ele>296.60000610352</ele>
        <time>2022-01-02T12:40:26.000Z</time>
      </trkpt>
      <trkpt lat="45.53607" lon="6.19542">
        <ele>296</ele>
        <time>2022-01-02T12:40:27.000Z</time>
      </trkpt>
      <trkpt lat="45.5361" lon="6.19547">
        <ele>295.39999389648</ele>
        <time>2022-01-02T12:40:28.000Z</time>
      </trkpt>
      <trkpt lat="45.53619" lon="6.19548">
        <ele>294.60000610352</ele>
        <time>2022-01-02T12:40:30.000Z</time>
      </trkpt>
      <trkpt lat="45.53625" lon="6.19546">
        <ele>294.39999389648</ele>
        <time>2022-01-02T12:40:31.000Z</time>
      </trkpt>
      <trkpt lat="45.53637" lon="6.19542">
        <ele>293.60000610352</ele>
        <time>2022-01-02T12:40:33.000Z</time>
      </trkpt>
      <trkpt lat="45.53643" lon="6.19542">
        <ele>293.39999389648</ele>
        <time>2022-01-02T12:40:34.000Z</time>
      </trkpt>
      <trkpt lat="45.5365" lon="6.19544">
        <ele>293.20001220703</ele>
        <time>2022-01-02T12:40:35.000Z</time>
      </trkpt>
      <trkpt lat="45.53656" lon="6.19549">
        <ele>293</ele>
        <time>2022-01-02T12:40:36.000Z</time>
      </trkpt>
      <trkpt lat="45.5366" lon="6.19555">
        <ele>292.79998779297</ele>
        <time>2022-01-02T12:40:37.000Z</time>
      </trkpt>
      <trkpt lat="45.53672" lon="6.19577">
        <ele>292.20001220703</ele>
        <time>2022-01-02T12:40:40.000Z</time>
      </trkpt>
      <trkpt lat="45.53678" lon="6.19585">
        <ele>292.20001220703</ele>
        <time>2022-01-02T12:40:41.000Z</time>
      </trkpt>
      <trkpt lat="45.53707" lon="6.19623">
        <ele>292.20001220703</ele>
        <time>2022-01-02T12:40:47.000Z</time>
      </trkpt>
      <trkpt lat="45.53716" lon="6.19633">
        <ele>292</ele>
        <time>2022-01-02T12:40:49.000Z</time>
      </trkpt>
      <trkpt lat="45.53747" lon="6.19665">
        <ele>291.20001220703</ele>
        <time>2022-01-02T12:40:55.000Z</time>
      </trkpt>
      <trkpt lat="45.53757" lon="6.19677">
        <ele>291</ele>
        <time>2022-01-02T12:40:57.000Z</time>
      </trkpt>
      <trkpt lat="45.53801" lon="6.1973">
        <ele>290.20001220703</ele>
        <time>2022-01-02T12:41:06.000Z</time>
      </trkpt>
      <trkpt lat="45.53806" lon="6.19735">
        <ele>290.20001220703</ele>
        <time>2022-01-02T12:41:07.000Z</time>
      </trkpt>
      <trkpt lat="45.53816" lon="6.19744">
        <ele>290.20001220703</ele>
        <time>2022-01-02T12:41:09.000Z</time>
      </trkpt>
      <trkpt lat="45.5384" lon="6.19757">
        <ele>290.20001220703</ele>
        <time>2022-01-02T12:41:13.000Z</time>
      </trkpt>
      <trkpt lat="45.53893" lon="6.19775">
        <ele>290.20001220703</ele>
        <time>2022-01-02T12:41:22.000Z</time>
      </trkpt>
      <trkpt lat="45.53938" lon="6.19789">
        <ele>289.79998779297</ele>
        <time>2022-01-02T12:41:29.000Z</time>
      </trkpt>
      <trkpt lat="45.53979" lon="6.19802">
        <ele>290.39999389648</ele>
        <time>2022-01-02T12:41:36.000Z</time>
      </trkpt>
      <trkpt lat="45.54018" lon="6.19805">
        <ele>290.60000610352</ele>
        <time>2022-01-02T12:41:43.000Z</time>
      </trkpt>
      <trkpt lat="45.5404" lon="6.19803">
        <ele>291.20001220703</ele>
        <time>2022-01-02T12:41:47.000Z</time>
      </trkpt>
      <trkpt lat="45.54051" lon="6.19804">
        <ele>291.39999389648</ele>
        <time>2022-01-02T12:41:49.000Z</time>
      </trkpt>
      <trkpt lat="45.54056" lon="6.19806">
        <ele>291.39999389648</ele>
        <time>2022-01-02T12:41:50.000Z</time>
      </trkpt>
      <trkpt lat="45.54069" lon="6.19815">
        <ele>292</ele>
        <time>2022-01-02T12:41:53.000Z</time>
      </trkpt>
      <trkpt lat="45.54081" lon="6.19828">
        <ele>292.39999389648</ele>
        <time>2022-01-02T12:41:56.000Z</time>
      </trkpt>
      <trkpt lat="45.54107" lon="6.19854">
        <ele>292.79998779297</ele>
        <time>2022-01-02T12:42:02.000Z</time>
      </trkpt>
      <trkpt lat="45.54153" lon="6.19893">
        <ele>293</ele>
        <time>2022-01-02T12:42:11.000Z</time>
      </trkpt>
      <trkpt lat="45.54201" lon="6.19937">
        <ele>291.60000610352</ele>
        <time>2022-01-02T12:42:20.000Z</time>
      </trkpt>
      <trkpt lat="45.54206" lon="6.19943">
        <ele>291.39999389648</ele>
        <time>2022-01-02T12:42:21.000Z</time>
      </trkpt>
      <trkpt lat="45.54246" lon="6.19989">
        <ele>290.60000610352</ele>
        <time>2022-01-02T12:42:29.000Z</time>
      </trkpt>
      <trkpt lat="45.54251" lon="6.19995">
        <ele>290.39999389648</ele>
        <time>2022-01-02T12:42:30.000Z</time>
      </trkpt>
      <trkpt lat="45.54282" lon="6.2004">
        <ele>290.20001220703</ele>
        <time>2022-01-02T12:42:37.000Z</time>
      </trkpt>
      <trkpt lat="45.54287" lon="6.20045">
        <ele>290.20001220703</ele>
        <time>2022-01-02T12:42:38.000Z</time>
      </trkpt>
      <trkpt lat="45.54298" lon="6.20053">
        <ele>290.20001220703</ele>
        <time>2022-01-02T12:42:40.000Z</time>
      </trkpt>
      <trkpt lat="45.54303" lon="6.20056">
        <ele>290.20001220703</ele>
        <time>2022-01-02T12:42:41.000Z</time>
      </trkpt>
      <trkpt lat="45.54321" lon="6.20059">
        <ele>290.20001220703</ele>
        <time>2022-01-02T12:42:44.000Z</time>
      </trkpt>
      <trkpt lat="45.54333" lon="6.20064">
        <ele>290.20001220703</ele>
        <time>2022-01-02T12:42:46.000Z</time>
      </trkpt>
      <trkpt lat="45.54353" lon="6.20082">
        <ele>290.39999389648</ele>
        <time>2022-01-02T12:42:50.000Z</time>
      </trkpt>
      <trkpt lat="45.54357" lon="6.20088">
        <ele>290.39999389648</ele>
        <time>2022-01-02T12:42:51.000Z</time>
      </trkpt>
      <trkpt lat="45.5438" lon="6.20126">
        <ele>291</ele>
        <time>2022-01-02T12:42:57.000Z</time>
      </trkpt>
      <trkpt lat="45.54382" lon="6.20131">
        <ele>291</ele>
        <time>2022-01-02T12:42:58.000Z</time>
      </trkpt>
      <trkpt lat="45.54388" lon="6.20153">
        <ele>291.20001220703</ele>
        <time>2022-01-02T12:43:01.000Z</time>
      </trkpt>
      <trkpt lat="45.54389" lon="6.20169">
        <ele>291.39999389648</ele>
        <time>2022-01-02T12:43:03.000Z</time>
      </trkpt>
      <trkpt lat="45.5439" lon="6.20177">
        <ele>291.60000610352</ele>
        <time>2022-01-02T12:43:04.000Z</time>
      </trkpt>
      <trkpt lat="45.54392" lon="6.20195">
        <ele>291.60000610352</ele>
        <time>2022-01-02T12:43:06.000Z</time>
      </trkpt>
      <trkpt lat="45.54398" lon="6.20218">
        <ele>291.60000610352</ele>
        <time>2022-01-02T12:43:09.000Z</time>
      </trkpt>
      <trkpt lat="45.54418" lon="6.20276">
        <ele>291</ele>
        <time>2022-01-02T12:43:16.000Z</time>
      </trkpt>
      <trkpt lat="45.54428" lon="6.20301">
        <ele>290.39999389648</ele>
        <time>2022-01-02T12:43:19.000Z</time>
      </trkpt>
      <trkpt lat="45.5444" lon="6.20334">
        <ele>289.79998779297</ele>
        <time>2022-01-02T12:43:23.000Z</time>
      </trkpt>
      <trkpt lat="45.54469" lon="6.20383">
        <ele>289.39999389648</ele>
        <time>2022-01-02T12:43:30.000Z</time>
      </trkpt>
      <trkpt lat="45.54503" lon="6.20427">
        <ele>289.39999389648</ele>
        <time>2022-01-02T12:43:38.000Z</time>
      </trkpt>
      <trkpt lat="45.54542" lon="6.20485">
        <ele>289</ele>
        <time>2022-01-02T12:43:47.000Z</time>
      </trkpt>
      <trkpt lat="45.54551" lon="6.20498">
        <ele>289</ele>
        <time>2022-01-02T12:43:49.000Z</time>
      </trkpt>
      <trkpt lat="45.54592" lon="6.20558">
        <ele>288.79998779297</ele>
        <time>2022-01-02T12:43:58.000Z</time>
      </trkpt>
      <trkpt lat="45.54604" lon="6.2058">
        <ele>288.79998779297</ele>
        <time>2022-01-02T12:44:01.000Z</time>
      </trkpt>
      <trkpt lat="45.54619" lon="6.20625">
        <ele>288.39999389648</ele>
        <time>2022-01-02T12:44:06.000Z</time>
      </trkpt>
      <trkpt lat="45.54621" lon="6.20634">
        <ele>288.39999389648</ele>
        <time>2022-01-02T12:44:07.000Z</time>
      </trkpt>
      <trkpt lat="45.54624" lon="6.20644">
        <ele>288.20001220703</ele>
        <time>2022-01-02T12:44:08.000Z</time>
      </trkpt>
      <trkpt lat="45.54631" lon="6.2066">
        <ele>287.60000610352</ele>
        <time>2022-01-02T12:44:10.000Z</time>
      </trkpt>
      <trkpt lat="45.54635" lon="6.20668">
        <ele>287.60000610352</ele>
        <time>2022-01-02T12:44:11.000Z</time>
      </trkpt>
      <trkpt lat="45.5466" lon="6.20698">
        <ele>287.39999389648</ele>
        <time>2022-01-02T12:44:16.000Z</time>
      </trkpt>
      <trkpt lat="45.54665" lon="6.20703">
        <ele>287.39999389648</ele>
        <time>2022-01-02T12:44:17.000Z</time>
      </trkpt>
      <trkpt lat="45.547" lon="6.20736">
        <ele>287.60000610352</ele>
        <time>2022-01-02T12:44:24.000Z</time>
      </trkpt>
      <trkpt lat="45.54739" lon="6.20772">
        <ele>288.20001220703</ele>
        <time>2022-01-02T12:44:32.000Z</time>
      </trkpt>
      <trkpt lat="45.54782" lon="6.20806">
        <ele>288.20001220703</ele>
        <time>2022-01-02T12:44:40.000Z</time>
      </trkpt>
      <trkpt lat="45.54831" lon="6.20818">
        <ele>287.79998779297</ele>
        <time>2022-01-02T12:44:48.000Z</time>
      </trkpt>
      <trkpt lat="45.54876" lon="6.20832">
        <ele>287.79998779297</ele>
        <time>2022-01-02T12:44:55.000Z</time>
      </trkpt>
      <trkpt lat="45.54889" lon="6.20835">
        <ele>287.60000610352</ele>
        <time>2022-01-02T12:44:57.000Z</time>
      </trkpt>
      <trkpt lat="45.54913" lon="6.20841">
        <ele>287.39999389648</ele>
        <time>2022-01-02T12:45:01.000Z</time>
      </trkpt>
      <trkpt lat="45.54959" lon="6.20854">
        <ele>287.60000610352</ele>
        <time>2022-01-02T12:45:09.000Z</time>
      </trkpt>
      <trkpt lat="45.55005" lon="6.20866">
        <ele>287.79998779297</ele>
        <time>2022-01-02T12:45:17.000Z</time>
      </trkpt>
      <trkpt lat="45.55022" lon="6.20869">
        <ele>288</ele>
        <time>2022-01-02T12:45:20.000Z</time>
      </trkpt>
      <trkpt lat="45.55039" lon="6.20873">
        <ele>287.79998779297</ele>
        <time>2022-01-02T12:45:23.000Z</time>
      </trkpt>
      <trkpt lat="45.55067" lon="6.20882">
        <ele>287.60000610352</ele>
        <time>2022-01-02T12:45:28.000Z</time>
      </trkpt>
      <trkpt lat="45.55079" lon="6.20882">
        <ele>287.60000610352</ele>
        <time>2022-01-02T12:45:30.000Z</time>
      </trkpt>
      <trkpt lat="45.55088" lon="6.2088">
        <ele>287.39999389648</ele>
        <time>2022-01-02T12:45:32.000Z</time>
      </trkpt>
      <trkpt lat="45.55105" lon="6.20869">
        <ele>287.20001220703</ele>
        <time>2022-01-02T12:45:35.000Z</time>
      </trkpt>
      <trkpt lat="45.5512" lon="6.20859">
        <ele>287.20001220703</ele>
        <time>2022-01-02T12:45:38.000Z</time>
      </trkpt>
      <trkpt lat="45.55129" lon="6.20861">
        <ele>287.20001220703</ele>
        <time>2022-01-02T12:45:40.000Z</time>
      </trkpt>
      <trkpt lat="45.55141" lon="6.2087">
        <ele>287.39999389648</ele>
        <time>2022-01-02T12:45:43.000Z</time>
      </trkpt>
      <trkpt lat="45.55146" lon="6.2087">
        <ele>287.60000610352</ele>
        <time>2022-01-02T12:45:44.000Z</time>
      </trkpt>
      <trkpt lat="45.5515" lon="6.20869">
        <ele>287.60000610352</ele>
        <time>2022-01-02T12:45:45.000Z</time>
      </trkpt>
      <trkpt lat="45.55172" lon="6.20863">
        <ele>288.20001220703</ele>
        <time>2022-01-02T12:45:49.000Z</time>
      </trkpt>
      <trkpt lat="45.55178" lon="6.20862">
        <ele>288.60000610352</ele>
        <time>2022-01-02T12:45:50.000Z</time>
      </trkpt>
      <trkpt lat="45.5519" lon="6.20856">
        <ele>288.60000610352</ele>
        <time>2022-01-02T12:45:52.000Z</time>
      </trkpt>
      <trkpt lat="45.55194" lon="6.20853">
        <ele>288.79998779297</ele>
        <time>2022-01-02T12:45:53.000Z</time>
      </trkpt>
      <trkpt lat="45.55243" lon="6.20823">
        <ele>288.60000610352</ele>
        <time>2022-01-02T12:46:02.000Z</time>
      </trkpt>
      <trkpt lat="45.55297" lon="6.2079">
        <ele>288.79998779297</ele>
        <time>2022-01-02T12:46:12.000Z</time>
      </trkpt>
      <trkpt lat="45.55307" lon="6.20783">
        <ele>289</ele>
        <time>2022-01-02T12:46:14.000Z</time>
      </trkpt>
      <trkpt lat="45.55342" lon="6.20769">
        <ele>289</ele>
        <time>2022-01-02T12:46:20.000Z</time>
      </trkpt>
      <trkpt lat="45.55354" lon="6.20763">
        <ele>288.79998779297</ele>
        <time>2022-01-02T12:46:22.000Z</time>
      </trkpt>
      <trkpt lat="45.5537" lon="6.20751">
        <ele>288.60000610352</ele>
        <time>2022-01-02T12:46:25.000Z</time>
      </trkpt>
      <trkpt lat="45.55386" lon="6.20736">
        <ele>288.60000610352</ele>
        <time>2022-01-02T12:46:28.000Z</time>
      </trkpt>
      <trkpt lat="45.55409" lon="6.20722">
        <ele>288.60000610352</ele>
        <time>2022-01-02T12:46:32.000Z</time>
      </trkpt>
      <trkpt lat="45.55449" lon="6.20698">
        <ele>288.60000610352</ele>
        <time>2022-01-02T12:46:39.000Z</time>
      </trkpt>
      <trkpt lat="45.55488" lon="6.20676">
        <ele>288.39999389648</ele>
        <time>2022-01-02T12:46:46.000Z</time>
      </trkpt>
      <trkpt lat="45.55522" lon="6.20653">
        <ele>288.20001220703</ele>
        <time>2022-01-02T12:46:52.000Z</time>
      </trkpt>
      <trkpt lat="45.55526" lon="6.20651">
        <ele>288.20001220703</ele>
        <time>2022-01-02T12:46:53.000Z</time>
      </trkpt>
      <trkpt lat="45.55545" lon="6.20642">
        <ele>288.20001220703</ele>
        <time>2022-01-02T12:46:56.000Z</time>
      </trkpt>
      <trkpt lat="45.5555" lon="6.20638">
        <ele>288.20001220703</ele>
        <time>2022-01-02T12:46:57.000Z</time>
      </trkpt>
      <trkpt lat="45.55561" lon="6.20632">
        <ele>288.20001220703</ele>
        <time>2022-01-02T12:46:59.000Z</time>
      </trkpt>
      <trkpt lat="45.55571" lon="6.20626">
        <ele>288.20001220703</ele>
        <time>2022-01-02T12:47:01.000Z</time>
      </trkpt>
      <trkpt lat="45.55609" lon="6.20603">
        <ele>288</ele>
        <time>2022-01-02T12:47:08.000Z</time>
      </trkpt>
      <trkpt lat="45.5566" lon="6.20574">
        <ele>288</ele>
        <time>2022-01-02T12:47:17.000Z</time>
      </trkpt>
      <trkpt lat="45.55704" lon="6.20548">
        <ele>288</ele>
        <time>2022-01-02T12:47:25.000Z</time>
      </trkpt>
      <trkpt lat="45.5572" lon="6.20537">
        <ele>288</ele>
        <time>2022-01-02T12:47:28.000Z</time>
      </trkpt>
      <trkpt lat="45.55731" lon="6.20529">
        <ele>288.20001220703</ele>
        <time>2022-01-02T12:47:30.000Z</time>
      </trkpt>
      <trkpt lat="45.55737" lon="6.20525">
        <ele>288.20001220703</ele>
        <time>2022-01-02T12:47:31.000Z</time>
      </trkpt>
      <trkpt lat="45.55763" lon="6.20508">
        <ele>288.39999389648</ele>
        <time>2022-01-02T12:47:36.000Z</time>
      </trkpt>
      <trkpt lat="45.55801" lon="6.20486">
        <ele>287.79998779297</ele>
        <time>2022-01-02T12:47:43.000Z</time>
      </trkpt>
      <trkpt lat="45.55843" lon="6.20463">
        <ele>287.79998779297</ele>
        <time>2022-01-02T12:47:51.000Z</time>
      </trkpt>
      <trkpt lat="45.55854" lon="6.20461">
        <ele>287.79998779297</ele>
        <time>2022-01-02T12:47:53.000Z</time>
      </trkpt>
      <trkpt lat="45.55867" lon="6.20465">
        <ele>287.79998779297</ele>
        <time>2022-01-02T12:47:55.000Z</time>
      </trkpt>
      <trkpt lat="45.55919" lon="6.20484">
        <ele>288</ele>
        <time>2022-01-02T12:48:04.000Z</time>
      </trkpt>
      <trkpt lat="45.55925" lon="6.20487">
        <ele>288</ele>
        <time>2022-01-02T12:48:05.000Z</time>
      </trkpt>
      <trkpt lat="45.5597" lon="6.20507">
        <ele>288</ele>
        <time>2022-01-02T12:48:13.000Z</time>
      </trkpt>
      <trkpt lat="45.56004" lon="6.20521">
        <ele>288</ele>
        <time>2022-01-02T12:48:19.000Z</time>
      </trkpt>
      <trkpt lat="45.56035" lon="6.20536">
        <ele>288.20001220703</ele>
        <time>2022-01-02T12:48:25.000Z</time>
      </trkpt>
      <trkpt lat="45.56065" lon="6.20548">
        <ele>288.39999389648</ele>
        <time>2022-01-02T12:48:30.000Z</time>
      </trkpt>
      <trkpt lat="45.56115" lon="6.20568">
        <ele>288.60000610352</ele>
        <time>2022-01-02T12:48:38.000Z</time>
      </trkpt>
      <trkpt lat="45.56156" lon="6.20586">
        <ele>288.79998779297</ele>
        <time>2022-01-02T12:48:46.000Z</time>
      </trkpt>
      <trkpt lat="45.56167" lon="6.2059">
        <ele>289</ele>
        <time>2022-01-02T12:48:48.000Z</time>
      </trkpt>
      <trkpt lat="45.56186" lon="6.20602">
        <ele>289.39999389648</ele>
        <time>2022-01-02T12:48:52.000Z</time>
      </trkpt>
      <trkpt lat="45.5619" lon="6.20605">
        <ele>289.60000610352</ele>
        <time>2022-01-02T12:48:53.000Z</time>
      </trkpt>
      <trkpt lat="45.56198" lon="6.20609">
        <ele>289.79998779297</ele>
        <time>2022-01-02T12:48:57.000Z</time>
      </trkpt>
      <trkpt lat="45.562" lon="6.20611">
        <ele>290</ele>
        <time>2022-01-02T12:49:00.000Z</time>
      </trkpt>
      <trkpt lat="45.56201" lon="6.20612">
        <ele>290</ele>
        <time>2022-01-02T12:49:02.000Z</time>
      </trkpt>
      <trkpt lat="45.56207" lon="6.20616">
        <ele>290</ele>
        <time>2022-01-02T12:49:08.000Z</time>
      </trkpt>
      <trkpt lat="45.56217" lon="6.20611">
        <ele>290.20001220703</ele>
        <time>2022-01-02T12:49:12.000Z</time>
      </trkpt>
      <trkpt lat="45.56224" lon="6.20607">
        <ele>290.39999389648</ele>
        <time>2022-01-02T12:49:15.000Z</time>
      </trkpt>
      <trkpt lat="45.56228" lon="6.20607">
        <ele>290.39999389648</ele>
        <time>2022-01-02T12:49:16.000Z</time>
      </trkpt>
      <trkpt lat="45.56251" lon="6.20616">
        <ele>290.39999389648</ele>
        <time>2022-01-02T12:49:21.000Z</time>
      </trkpt>
      <trkpt lat="45.56283" lon="6.2063">
        <ele>290.60000610352</ele>
        <time>2022-01-02T12:49:28.000Z</time>
      </trkpt>
      <trkpt lat="45.56285" lon="6.20635">
        <ele>290.60000610352</ele>
        <time>2022-01-02T12:49:29.000Z</time>
      </trkpt>
      <trkpt lat="45.56283" lon="6.20646">
        <ele>290.60000610352</ele>
        <time>2022-01-02T12:49:31.000Z</time>
      </trkpt>
      <trkpt lat="45.5628" lon="6.20661">
        <ele>290.39999389648</ele>
        <time>2022-01-02T12:49:33.000Z</time>
      </trkpt>
      <trkpt lat="45.56272" lon="6.20698">
        <ele>290</ele>
        <time>2022-01-02T12:49:38.000Z</time>
      </trkpt>
      <trkpt lat="45.5627" lon="6.20706">
        <ele>290</ele>
        <time>2022-01-02T12:49:39.000Z</time>
      </trkpt>
      <trkpt lat="45.56263" lon="6.20744">
        <ele>289.79998779297</ele>
        <time>2022-01-02T12:49:44.000Z</time>
      </trkpt>
      <trkpt lat="45.56249" lon="6.20817">
        <ele>290</ele>
        <time>2022-01-02T12:49:53.000Z</time>
      </trkpt>
      <trkpt lat="45.56238" lon="6.20876">
        <ele>290</ele>
        <time>2022-01-02T12:50:01.000Z</time>
      </trkpt>
      <trkpt lat="45.56227" lon="6.20939">
        <ele>290.39999389648</ele>
        <time>2022-01-02T12:50:09.000Z</time>
      </trkpt>
      <trkpt lat="45.56211" lon="6.21018">
        <ele>290.60000610352</ele>
        <time>2022-01-02T12:50:19.000Z</time>
      </trkpt>
      <trkpt lat="45.56197" lon="6.21093">
        <ele>290.39999389648</ele>
        <time>2022-01-02T12:50:28.000Z</time>
      </trkpt>
      <trkpt lat="45.56194" lon="6.21107">
        <ele>290.60000610352</ele>
        <time>2022-01-02T12:50:30.000Z</time>
      </trkpt>
      <trkpt lat="45.56179" lon="6.21186">
        <ele>291.20001220703</ele>
        <time>2022-01-02T12:50:40.000Z</time>
      </trkpt>
      <trkpt lat="45.56177" lon="6.21195">
        <ele>291.20001220703</ele>
        <time>2022-01-02T12:50:41.000Z</time>
      </trkpt>
      <trkpt lat="45.56166" lon="6.2125">
        <ele>291.20001220703</ele>
        <time>2022-01-02T12:50:48.000Z</time>
      </trkpt>
      <trkpt lat="45.56152" lon="6.21332">
        <ele>291.79998779297</ele>
        <time>2022-01-02T12:50:58.000Z</time>
      </trkpt>
      <trkpt lat="45.56147" lon="6.21357">
        <ele>291.60000610352</ele>
        <time>2022-01-02T12:51:01.000Z</time>
      </trkpt>
      <trkpt lat="45.56132" lon="6.21437">
        <ele>291.60000610352</ele>
        <time>2022-01-02T12:51:11.000Z</time>
      </trkpt>
      <trkpt lat="45.56131" lon="6.21443">
        <ele>291.60000610352</ele>
        <time>2022-01-02T12:51:12.000Z</time>
      </trkpt>
      <trkpt lat="45.56125" lon="6.21471">
        <ele>291.79998779297</ele>
        <time>2022-01-02T12:51:17.000Z</time>
      </trkpt>
      <trkpt lat="45.56124" lon="6.21479">
        <ele>291.79998779297</ele>
        <time>2022-01-02T12:51:18.000Z</time>
      </trkpt>
      <trkpt lat="45.56118" lon="6.21508">
        <ele>291.79998779297</ele>
        <time>2022-01-02T12:51:22.000Z</time>
      </trkpt>
      <trkpt lat="45.56107" lon="6.21562">
        <ele>292</ele>
        <time>2022-01-02T12:51:29.000Z</time>
      </trkpt>
      <trkpt lat="45.56102" lon="6.21586">
        <ele>292.20001220703</ele>
        <time>2022-01-02T12:51:32.000Z</time>
      </trkpt>
      <trkpt lat="45.56096" lon="6.21623">
        <ele>292.39999389648</ele>
        <time>2022-01-02T12:51:37.000Z</time>
      </trkpt>
      <trkpt lat="45.56082" lon="6.21691">
        <ele>292.39999389648</ele>
        <time>2022-01-02T12:51:46.000Z</time>
      </trkpt>
      <trkpt lat="45.56067" lon="6.2177">
        <ele>292.79998779297</ele>
        <time>2022-01-02T12:51:56.000Z</time>
      </trkpt>
      <trkpt lat="45.56065" lon="6.21785">
        <ele>292.79998779297</ele>
        <time>2022-01-02T12:51:58.000Z</time>
      </trkpt>
      <trkpt lat="45.56051" lon="6.21862">
        <ele>293</ele>
        <time>2022-01-02T12:52:08.000Z</time>
      </trkpt>
      <trkpt lat="45.56043" lon="6.21902">
        <ele>293.20001220703</ele>
        <time>2022-01-02T12:52:13.000Z</time>
      </trkpt>
      <trkpt lat="45.56033" lon="6.21958">
        <ele>293.39999389648</ele>
        <time>2022-01-02T12:52:20.000Z</time>
      </trkpt>
      <trkpt lat="45.56018" lon="6.22038">
        <ele>293.39999389648</ele>
        <time>2022-01-02T12:52:30.000Z</time>
      </trkpt>
      <trkpt lat="45.56016" lon="6.22046">
        <ele>293.39999389648</ele>
        <time>2022-01-02T12:52:31.000Z</time>
      </trkpt>
      <trkpt lat="45.56002" lon="6.22122">
        <ele>293.39999389648</ele>
        <time>2022-01-02T12:52:41.000Z</time>
      </trkpt>
      <trkpt lat="45.56001" lon="6.2213">
        <ele>293.39999389648</ele>
        <time>2022-01-02T12:52:42.000Z</time>
      </trkpt>
      <trkpt lat="45.55987" lon="6.22209">
        <ele>293.39999389648</ele>
        <time>2022-01-02T12:52:52.000Z</time>
      </trkpt>
      <trkpt lat="45.55984" lon="6.22223">
        <ele>293.39999389648</ele>
        <time>2022-01-02T12:52:54.000Z</time>
      </trkpt>
      <trkpt lat="45.55982" lon="6.22232">
        <ele>293.39999389648</ele>
        <time>2022-01-02T12:52:55.000Z</time>
      </trkpt>
      <trkpt lat="45.55979" lon="6.22247">
        <ele>293.60000610352</ele>
        <time>2022-01-02T12:52:57.000Z</time>
      </trkpt>
      <trkpt lat="45.55975" lon="6.22274">
        <ele>293.60000610352</ele>
        <time>2022-01-02T12:53:00.000Z</time>
      </trkpt>
      <trkpt lat="45.5596" lon="6.22352">
        <ele>294</ele>
        <time>2022-01-02T12:53:10.000Z</time>
      </trkpt>
      <trkpt lat="45.55945" lon="6.22429">
        <ele>294.39999389648</ele>
        <time>2022-01-02T12:53:20.000Z</time>
      </trkpt>
      <trkpt lat="45.55942" lon="6.22445">
        <ele>294.39999389648</ele>
        <time>2022-01-02T12:53:22.000Z</time>
      </trkpt>
      <trkpt lat="45.5593" lon="6.22511">
        <ele>294.60000610352</ele>
        <time>2022-01-02T12:53:30.000Z</time>
      </trkpt>
      <trkpt lat="45.55915" lon="6.22588">
        <ele>295</ele>
        <time>2022-01-02T12:53:40.000Z</time>
      </trkpt>
      <trkpt lat="45.55914" lon="6.22596">
        <ele>295</ele>
        <time>2022-01-02T12:53:41.000Z</time>
      </trkpt>
      <trkpt lat="45.55902" lon="6.22655">
        <ele>295</ele>
        <time>2022-01-02T12:53:49.000Z</time>
      </trkpt>
      <trkpt lat="45.55889" lon="6.22721">
        <ele>295</ele>
        <time>2022-01-02T12:53:57.000Z</time>
      </trkpt>
      <trkpt lat="45.55878" lon="6.22778">
        <ele>295.20001220703</ele>
        <time>2022-01-02T12:54:04.000Z</time>
      </trkpt>
      <trkpt lat="45.55862" lon="6.22858">
        <ele>295.20001220703</ele>
        <time>2022-01-02T12:54:14.000Z</time>
      </trkpt>
      <trkpt lat="45.55861" lon="6.22865">
        <ele>295.20001220703</ele>
        <time>2022-01-02T12:54:15.000Z</time>
      </trkpt>
      <trkpt lat="45.55848" lon="6.22937">
        <ele>295.60000610352</ele>
        <time>2022-01-02T12:54:24.000Z</time>
      </trkpt>
      <trkpt lat="45.55843" lon="6.22961">
        <ele>295.60000610352</ele>
        <time>2022-01-02T12:54:27.000Z</time>
      </trkpt>
      <trkpt lat="45.55837" lon="6.22996">
        <ele>295.79998779297</ele>
        <time>2022-01-02T12:54:31.000Z</time>
      </trkpt>
      <trkpt lat="45.55822" lon="6.23077">
        <ele>295.79998779297</ele>
        <time>2022-01-02T12:54:41.000Z</time>
      </trkpt>
      <trkpt lat="45.55818" lon="6.231">
        <ele>295.79998779297</ele>
        <time>2022-01-02T12:54:44.000Z</time>
      </trkpt>
      <trkpt lat="45.55807" lon="6.2315">
        <ele>296</ele>
        <time>2022-01-02T12:54:50.000Z</time>
      </trkpt>
      <trkpt lat="45.55806" lon="6.23159">
        <ele>296</ele>
        <time>2022-01-02T12:54:51.000Z</time>
      </trkpt>
      <trkpt lat="45.55791" lon="6.23241">
        <ele>296</ele>
        <time>2022-01-02T12:55:01.000Z</time>
      </trkpt>
      <trkpt lat="45.55789" lon="6.23249">
        <ele>295.79998779297</ele>
        <time>2022-01-02T12:55:02.000Z</time>
      </trkpt>
      <trkpt lat="45.55776" lon="6.23321">
        <ele>296</ele>
        <time>2022-01-02T12:55:11.000Z</time>
      </trkpt>
      <trkpt lat="45.55763" lon="6.23393">
        <ele>296.60000610352</ele>
        <time>2022-01-02T12:55:20.000Z</time>
      </trkpt>
      <trkpt lat="45.55749" lon="6.23463">
        <ele>296.60000610352</ele>
        <time>2022-01-02T12:55:29.000Z</time>
      </trkpt>
      <trkpt lat="45.55735" lon="6.23539">
        <ele>296.79998779297</ele>
        <time>2022-01-02T12:55:39.000Z</time>
      </trkpt>
      <trkpt lat="45.55733" lon="6.23547">
        <ele>296.79998779297</ele>
        <time>2022-01-02T12:55:40.000Z</time>
      </trkpt>
      <trkpt lat="45.55725" lon="6.23587">
        <ele>297</ele>
        <time>2022-01-02T12:55:45.000Z</time>
      </trkpt>
      <trkpt lat="45.55721" lon="6.23611">
        <ele>297</ele>
        <time>2022-01-02T12:55:48.000Z</time>
      </trkpt>
      <trkpt lat="45.55706" lon="6.23691">
        <ele>297.79998779297</ele>
        <time>2022-01-02T12:55:58.000Z</time>
      </trkpt>
      <trkpt lat="45.55693" lon="6.23763">
        <ele>297.60000610352</ele>
        <time>2022-01-02T12:56:07.000Z</time>
      </trkpt>
      <trkpt lat="45.55688" lon="6.23804">
        <ele>297.39999389648</ele>
        <time>2022-01-02T12:56:12.000Z</time>
      </trkpt>
      <trkpt lat="45.55688" lon="6.23814">
        <ele>297.39999389648</ele>
        <time>2022-01-02T12:56:13.000Z</time>
      </trkpt>
      <trkpt lat="45.5569" lon="6.23831">
        <ele>297.39999389648</ele>
        <time>2022-01-02T12:56:15.000Z</time>
      </trkpt>
      <trkpt lat="45.55698" lon="6.23864">
        <ele>297.60000610352</ele>
        <time>2022-01-02T12:56:19.000Z</time>
      </trkpt>
      <trkpt lat="45.55701" lon="6.23871">
        <ele>297.60000610352</ele>
        <time>2022-01-02T12:56:20.000Z</time>
      </trkpt>
      <trkpt lat="45.55715" lon="6.23897">
        <ele>297.79998779297</ele>
        <time>2022-01-02T12:56:24.000Z</time>
      </trkpt>
      <trkpt lat="45.55728" lon="6.23912">
        <ele>298</ele>
        <time>2022-01-02T12:56:27.000Z</time>
      </trkpt>
      <trkpt lat="45.55739" lon="6.23922">
        <ele>298.20001220703</ele>
        <time>2022-01-02T12:56:29.000Z</time>
      </trkpt>
      <trkpt lat="45.55761" lon="6.23933">
        <ele>298.39999389648</ele>
        <time>2022-01-02T12:56:33.000Z</time>
      </trkpt>
      <trkpt lat="45.55776" lon="6.23938">
        <ele>298.60000610352</ele>
        <time>2022-01-02T12:56:36.000Z</time>
      </trkpt>
      <trkpt lat="45.55803" lon="6.23946">
        <ele>299.20001220703</ele>
        <time>2022-01-02T12:56:41.000Z</time>
      </trkpt>
      <trkpt lat="45.55818" lon="6.2395">
        <ele>300</ele>
        <time>2022-01-02T12:56:44.000Z</time>
      </trkpt>
      <trkpt lat="45.55827" lon="6.23953">
        <ele>300.60000610352</ele>
        <time>2022-01-02T12:56:46.000Z</time>
      </trkpt>
      <trkpt lat="45.55847" lon="6.2396">
        <ele>301.60000610352</ele>
        <time>2022-01-02T12:56:50.000Z</time>
      </trkpt>
      <trkpt lat="45.55852" lon="6.23962">
        <ele>302</ele>
        <time>2022-01-02T12:56:51.000Z</time>
      </trkpt>
      <trkpt lat="45.55867" lon="6.23971">
        <ele>303</ele>
        <time>2022-01-02T12:56:54.000Z</time>
      </trkpt>
      <trkpt lat="45.55877" lon="6.23976">
        <ele>303.39999389648</ele>
        <time>2022-01-02T12:56:56.000Z</time>
      </trkpt>
      <trkpt lat="45.559" lon="6.23992">
        <ele>304.20001220703</ele>
        <time>2022-01-02T12:57:01.000Z</time>
      </trkpt>
      <trkpt lat="45.55918" lon="6.24004">
        <ele>304.39999389648</ele>
        <time>2022-01-02T12:57:05.000Z</time>
      </trkpt>
      <trkpt lat="45.55969" lon="6.24036">
        <ele>304.39999389648</ele>
        <time>2022-01-02T12:57:14.000Z</time>
      </trkpt>
      <trkpt lat="45.55995" lon="6.24049">
        <ele>304</ele>
        <time>2022-01-02T12:57:18.000Z</time>
      </trkpt>
      <trkpt lat="45.5601" lon="6.24053">
        <ele>303.60000610352</ele>
        <time>2022-01-02T12:57:20.000Z</time>
      </trkpt>
      <trkpt lat="45.56026" lon="6.24055">
        <ele>303</ele>
        <time>2022-01-02T12:57:22.000Z</time>
      </trkpt>
      <trkpt lat="45.56049" lon="6.24057">
        <ele>302</ele>
        <time>2022-01-02T12:57:25.000Z</time>
      </trkpt>
      <trkpt lat="45.56059" lon="6.24058">
        <ele>301.39999389648</ele>
        <time>2022-01-02T12:57:26.000Z</time>
      </trkpt>
      <trkpt lat="45.56077" lon="6.24061">
        <ele>300.79998779297</ele>
        <time>2022-01-02T12:57:28.000Z</time>
      </trkpt>
      <trkpt lat="45.56101" lon="6.24071">
        <ele>299.20001220703</ele>
        <time>2022-01-02T12:57:31.000Z</time>
      </trkpt>
      <trkpt lat="45.56129" lon="6.24087">
        <ele>298</ele>
        <time>2022-01-02T12:57:35.000Z</time>
      </trkpt>
      <trkpt lat="45.56134" lon="6.2409">
        <ele>298</ele>
        <time>2022-01-02T12:57:36.000Z</time>
      </trkpt>
      <trkpt lat="45.56175" lon="6.24123">
        <ele>297.60000610352</ele>
        <time>2022-01-02T12:57:43.000Z</time>
      </trkpt>
      <trkpt lat="45.562" lon="6.24146">
        <ele>297.60000610352</ele>
        <time>2022-01-02T12:57:48.000Z</time>
      </trkpt>
      <trkpt lat="45.56205" lon="6.24152">
        <ele>297.60000610352</ele>
        <time>2022-01-02T12:57:49.000Z</time>
      </trkpt>
      <trkpt lat="45.56209" lon="6.24159">
        <ele>297.60000610352</ele>
        <time>2022-01-02T12:57:50.000Z</time>
      </trkpt>
      <trkpt lat="45.56215" lon="6.24174">
        <ele>297.60000610352</ele>
        <time>2022-01-02T12:57:52.000Z</time>
      </trkpt>
      <trkpt lat="45.56217" lon="6.24182">
        <ele>297.39999389648</ele>
        <time>2022-01-02T12:57:53.000Z</time>
      </trkpt>
      <trkpt lat="45.56219" lon="6.24191">
        <ele>297.39999389648</ele>
        <time>2022-01-02T12:57:54.000Z</time>
      </trkpt>
      <trkpt lat="45.56223" lon="6.24224">
        <ele>297.39999389648</ele>
        <time>2022-01-02T12:57:58.000Z</time>
      </trkpt>
      <trkpt lat="45.56226" lon="6.24285">
        <ele>297.60000610352</ele>
        <time>2022-01-02T12:58:05.000Z</time>
      </trkpt>
      <trkpt lat="45.5623" lon="6.24365">
        <ele>297.79998779297</ele>
        <time>2022-01-02T12:58:14.000Z</time>
      </trkpt>
      <trkpt lat="45.56235" lon="6.24449">
        <ele>297.79998779297</ele>
        <time>2022-01-02T12:58:24.000Z</time>
      </trkpt>
      <trkpt lat="45.56235" lon="6.24457">
        <ele>297.79998779297</ele>
        <time>2022-01-02T12:58:25.000Z</time>
      </trkpt>
      <trkpt lat="45.56235" lon="6.24482">
        <ele>297.79998779297</ele>
        <time>2022-01-02T12:58:28.000Z</time>
      </trkpt>
      <trkpt lat="45.56237" lon="6.24506">
        <ele>297.79998779297</ele>
        <time>2022-01-02T12:58:31.000Z</time>
      </trkpt>
      <trkpt lat="45.56241" lon="6.24583">
        <ele>297.79998779297</ele>
        <time>2022-01-02T12:58:40.000Z</time>
      </trkpt>
      <trkpt lat="45.56242" lon="6.24664">
        <ele>297.60000610352</ele>
        <time>2022-01-02T12:58:49.000Z</time>
      </trkpt>
      <trkpt lat="45.56245" lon="6.24714">
        <ele>297.79998779297</ele>
        <time>2022-01-02T12:58:55.000Z</time>
      </trkpt>
      <trkpt lat="45.56249" lon="6.2473">
        <ele>297.79998779297</ele>
        <time>2022-01-02T12:58:57.000Z</time>
      </trkpt>
      <trkpt lat="45.56257" lon="6.24743">
        <ele>298</ele>
        <time>2022-01-02T12:58:59.000Z</time>
      </trkpt>
      <trkpt lat="45.56266" lon="6.24754">
        <ele>298</ele>
        <time>2022-01-02T12:59:01.000Z</time>
      </trkpt>
      <trkpt lat="45.56308" lon="6.24791">
        <ele>298</ele>
        <time>2022-01-02T12:59:09.000Z</time>
      </trkpt>
      <trkpt lat="45.56314" lon="6.24806">
        <ele>297.79998779297</ele>
        <time>2022-01-02T12:59:11.000Z</time>
      </trkpt>
      <trkpt lat="45.56316" lon="6.24814">
        <ele>297.79998779297</ele>
        <time>2022-01-02T12:59:12.000Z</time>
      </trkpt>
      <trkpt lat="45.56316" lon="6.24823">
        <ele>297.79998779297</ele>
        <time>2022-01-02T12:59:13.000Z</time>
      </trkpt>
      <trkpt lat="45.56314" lon="6.2484">
        <ele>297.60000610352</ele>
        <time>2022-01-02T12:59:15.000Z</time>
      </trkpt>
      <trkpt lat="45.56312" lon="6.24848">
        <ele>297.60000610352</ele>
        <time>2022-01-02T12:59:16.000Z</time>
      </trkpt>
      <trkpt lat="45.56295" lon="6.24921">
        <ele>297.79998779297</ele>
        <time>2022-01-02T12:59:25.000Z</time>
      </trkpt>
      <trkpt lat="45.56287" lon="6.24981">
        <ele>298</ele>
        <time>2022-01-02T12:59:32.000Z</time>
      </trkpt>
      <trkpt lat="45.56282" lon="6.24994">
        <ele>298</ele>
        <time>2022-01-02T12:59:34.000Z</time>
      </trkpt>
      <trkpt lat="45.56272" lon="6.25017">
        <ele>298.20001220703</ele>
        <time>2022-01-02T12:59:37.000Z</time>
      </trkpt>
      <trkpt lat="45.56248" lon="6.25069">
        <ele>298.60000610352</ele>
        <time>2022-01-02T12:59:45.000Z</time>
      </trkpt>
      <trkpt lat="45.56239" lon="6.25091">
        <ele>299</ele>
        <time>2022-01-02T12:59:49.000Z</time>
      </trkpt>
      <trkpt lat="45.56237" lon="6.25099">
        <ele>299.39999389648</ele>
        <time>2022-01-02T12:59:52.000Z</time>
      </trkpt>
      <trkpt lat="45.56237" lon="6.25101">
        <ele>299.60000610352</ele>
        <time>2022-01-02T12:59:53.000Z</time>
      </trkpt>
      <trkpt lat="45.56243" lon="6.25112">
        <ele>300</ele>
        <time>2022-01-02T12:59:58.000Z</time>
      </trkpt>
      <trkpt lat="45.56258" lon="6.25118">
        <ele>300</ele>
        <time>2022-01-02T13:00:02.000Z</time>
      </trkpt>
      <trkpt lat="45.56289" lon="6.2513">
        <ele>300</ele>
        <time>2022-01-02T13:00:08.000Z</time>
      </trkpt>
      <trkpt lat="45.56343" lon="6.25157">
        <ele>299.79998779297</ele>
        <time>2022-01-02T13:00:18.000Z</time>
      </trkpt>
      <trkpt lat="45.56397" lon="6.25186">
        <ele>299.39999389648</ele>
        <time>2022-01-02T13:00:27.000Z</time>
      </trkpt>
      <trkpt lat="45.56432" lon="6.25206">
        <ele>299.20001220703</ele>
        <time>2022-01-02T13:00:33.000Z</time>
      </trkpt>
      <trkpt lat="45.56479" lon="6.25231">
        <ele>298.79998779297</ele>
        <time>2022-01-02T13:00:41.000Z</time>
      </trkpt>
      <trkpt lat="45.56526" lon="6.25261">
        <ele>298.60000610352</ele>
        <time>2022-01-02T13:00:49.000Z</time>
      </trkpt>
      <trkpt lat="45.56537" lon="6.2527">
        <ele>298.60000610352</ele>
        <time>2022-01-02T13:00:51.000Z</time>
      </trkpt>
      <trkpt lat="45.56553" lon="6.25285">
        <ele>298.39999389648</ele>
        <time>2022-01-02T13:00:54.000Z</time>
      </trkpt>
      <trkpt lat="45.56558" lon="6.2529">
        <ele>298.39999389648</ele>
        <time>2022-01-02T13:00:55.000Z</time>
      </trkpt>
      <trkpt lat="45.56575" lon="6.25307">
        <ele>298.39999389648</ele>
        <time>2022-01-02T13:00:58.000Z</time>
      </trkpt>
      <trkpt lat="45.56588" lon="6.25322">
        <ele>298.60000610352</ele>
        <time>2022-01-02T13:01:01.000Z</time>
      </trkpt>
      <trkpt lat="45.56633" lon="6.25372">
        <ele>298.20001220703</ele>
        <time>2022-01-02T13:01:10.000Z</time>
      </trkpt>
      <trkpt lat="45.56643" lon="6.25382">
        <ele>298.20001220703</ele>
        <time>2022-01-02T13:01:12.000Z</time>
      </trkpt>
      <trkpt lat="45.5668" lon="6.25427">
        <ele>298</ele>
        <time>2022-01-02T13:01:20.000Z</time>
      </trkpt>
      <trkpt lat="45.56685" lon="6.25434">
        <ele>297.79998779297</ele>
        <time>2022-01-02T13:01:21.000Z</time>
      </trkpt>
      <trkpt lat="45.56689" lon="6.2544">
        <ele>297.79998779297</ele>
        <time>2022-01-02T13:01:22.000Z</time>
      </trkpt>
      <trkpt lat="45.567" lon="6.2545">
        <ele>297.79998779297</ele>
        <time>2022-01-02T13:01:24.000Z</time>
      </trkpt>
      <trkpt lat="45.56705" lon="6.25454">
        <ele>297.79998779297</ele>
        <time>2022-01-02T13:01:25.000Z</time>
      </trkpt>
      <trkpt lat="45.56721" lon="6.25468">
        <ele>297.60000610352</ele>
        <time>2022-01-02T13:01:28.000Z</time>
      </trkpt>
      <trkpt lat="45.56726" lon="6.25473">
        <ele>297.60000610352</ele>
        <time>2022-01-02T13:01:29.000Z</time>
      </trkpt>
      <trkpt lat="45.56737" lon="6.25487">
        <ele>297.60000610352</ele>
        <time>2022-01-02T13:01:31.000Z</time>
      </trkpt>
      <trkpt lat="45.56784" lon="6.25536">
        <ele>297.20001220703</ele>
        <time>2022-01-02T13:01:40.000Z</time>
      </trkpt>
      <trkpt lat="45.56789" lon="6.25542">
        <ele>297</ele>
        <time>2022-01-02T13:01:41.000Z</time>
      </trkpt>
      <trkpt lat="45.56832" lon="6.25588">
        <ele>296.79998779297</ele>
        <time>2022-01-02T13:01:49.000Z</time>
      </trkpt>
      <trkpt lat="45.56837" lon="6.25593">
        <ele>296.79998779297</ele>
        <time>2022-01-02T13:01:50.000Z</time>
      </trkpt>
      <trkpt lat="45.56883" lon="6.25641">
        <ele>296.39999389648</ele>
        <time>2022-01-02T13:01:59.000Z</time>
      </trkpt>
      <trkpt lat="45.56888" lon="6.25646">
        <ele>296.39999389648</ele>
        <time>2022-01-02T13:02:00.000Z</time>
      </trkpt>
      <trkpt lat="45.56929" lon="6.25693">
        <ele>296.20001220703</ele>
        <time>2022-01-02T13:02:08.000Z</time>
      </trkpt>
      <trkpt lat="45.56956" lon="6.25736">
        <ele>295.79998779297</ele>
        <time>2022-01-02T13:02:14.000Z</time>
      </trkpt>
      <trkpt lat="45.56983" lon="6.258">
        <ele>295.39999389648</ele>
        <time>2022-01-02T13:02:22.000Z</time>
      </trkpt>
      <trkpt lat="45.56987" lon="6.25808">
        <ele>295.20001220703</ele>
        <time>2022-01-02T13:02:23.000Z</time>
      </trkpt>
      <trkpt lat="45.57014" lon="6.25876">
        <ele>295.39999389648</ele>
        <time>2022-01-02T13:02:32.000Z</time>
      </trkpt>
      <trkpt lat="45.57021" lon="6.25893">
        <ele>295.39999389648</ele>
        <time>2022-01-02T13:02:34.000Z</time>
      </trkpt>
      <trkpt lat="45.57047" lon="6.25954">
        <ele>295.60000610352</ele>
        <time>2022-01-02T13:02:42.000Z</time>
      </trkpt>
      <trkpt lat="45.57073" lon="6.26013">
        <ele>295.60000610352</ele>
        <time>2022-01-02T13:02:50.000Z</time>
      </trkpt>
      <trkpt lat="45.57086" lon="6.26042">
        <ele>295.79998779297</ele>
        <time>2022-01-02T13:02:54.000Z</time>
      </trkpt>
      <trkpt lat="45.57092" lon="6.26055">
        <ele>295.79998779297</ele>
        <time>2022-01-02T13:02:56.000Z</time>
      </trkpt>
      <trkpt lat="45.57119" lon="6.26114">
        <ele>296</ele>
        <time>2022-01-02T13:03:04.000Z</time>
      </trkpt>
      <trkpt lat="45.57146" lon="6.26187">
        <ele>296</ele>
        <time>2022-01-02T13:03:13.000Z</time>
      </trkpt>
      <trkpt lat="45.57175" lon="6.26259">
        <ele>296</ele>
        <time>2022-01-02T13:03:22.000Z</time>
      </trkpt>
      <trkpt lat="45.572" lon="6.26318">
        <ele>296</ele>
        <time>2022-01-02T13:03:30.000Z</time>
      </trkpt>
      <trkpt lat="45.57224" lon="6.26379">
        <ele>296</ele>
        <time>2022-01-02T13:03:38.000Z</time>
      </trkpt>
      <trkpt lat="45.57253" lon="6.26451">
        <ele>296</ele>
        <time>2022-01-02T13:03:47.000Z</time>
      </trkpt>
      <trkpt lat="45.57257" lon="6.26459">
        <ele>296</ele>
        <time>2022-01-02T13:03:48.000Z</time>
      </trkpt>
      <trkpt lat="45.57288" lon="6.26515">
        <ele>296.39999389648</ele>
        <time>2022-01-02T13:03:56.000Z</time>
      </trkpt>
      <trkpt lat="45.573" lon="6.26534">
        <ele>296.60000610352</ele>
        <time>2022-01-02T13:03:59.000Z</time>
      </trkpt>
      <trkpt lat="45.57324" lon="6.26559">
        <ele>296.60000610352</ele>
        <time>2022-01-02T13:04:04.000Z</time>
      </trkpt>
      <trkpt lat="45.57363" lon="6.26599">
        <ele>296.39999389648</ele>
        <time>2022-01-02T13:04:12.000Z</time>
      </trkpt>
      <trkpt lat="45.57411" lon="6.26645">
        <ele>296.39999389648</ele>
        <time>2022-01-02T13:04:21.000Z</time>
      </trkpt>
      <trkpt lat="45.57417" lon="6.2665">
        <ele>296.39999389648</ele>
        <time>2022-01-02T13:04:22.000Z</time>
      </trkpt>
      <trkpt lat="45.57464" lon="6.26694">
        <ele>296.39999389648</ele>
        <time>2022-01-02T13:04:31.000Z</time>
      </trkpt>
      <trkpt lat="45.57476" lon="6.26706">
        <ele>296.39999389648</ele>
        <time>2022-01-02T13:04:33.000Z</time>
      </trkpt>
      <trkpt lat="45.57523" lon="6.2675">
        <ele>296.39999389648</ele>
        <time>2022-01-02T13:04:42.000Z</time>
      </trkpt>
      <trkpt lat="45.57527" lon="6.26755">
        <ele>296.39999389648</ele>
        <time>2022-01-02T13:04:43.000Z</time>
      </trkpt>
      <trkpt lat="45.57561" lon="6.2679">
        <ele>296.39999389648</ele>
        <time>2022-01-02T13:04:50.000Z</time>
      </trkpt>
      <trkpt lat="45.57594" lon="6.26821">
        <ele>296.39999389648</ele>
        <time>2022-01-02T13:04:56.000Z</time>
      </trkpt>
      <trkpt lat="45.57641" lon="6.26867">
        <ele>296.39999389648</ele>
        <time>2022-01-02T13:05:05.000Z</time>
      </trkpt>
      <trkpt lat="45.57689" lon="6.26913">
        <ele>296.60000610352</ele>
        <time>2022-01-02T13:05:14.000Z</time>
      </trkpt>
      <trkpt lat="45.57736" lon="6.2696">
        <ele>296.39999389648</ele>
        <time>2022-01-02T13:05:23.000Z</time>
      </trkpt>
      <trkpt lat="45.57783" lon="6.27005">
        <ele>296.39999389648</ele>
        <time>2022-01-02T13:05:32.000Z</time>
      </trkpt>
      <trkpt lat="45.57798" lon="6.2702">
        <ele>296.39999389648</ele>
        <time>2022-01-02T13:05:35.000Z</time>
      </trkpt>
      <trkpt lat="45.57845" lon="6.27066">
        <ele>296.79998779297</ele>
        <time>2022-01-02T13:05:44.000Z</time>
      </trkpt>
      <trkpt lat="45.5786" lon="6.27081">
        <ele>296.79998779297</ele>
        <time>2022-01-02T13:05:47.000Z</time>
      </trkpt>
      <trkpt lat="45.57907" lon="6.27127">
        <ele>296.79998779297</ele>
        <time>2022-01-02T13:05:56.000Z</time>
      </trkpt>
      <trkpt lat="45.57912" lon="6.27132">
        <ele>296.79998779297</ele>
        <time>2022-01-02T13:05:57.000Z</time>
      </trkpt>
      <trkpt lat="45.5793" lon="6.27155">
        <ele>297</ele>
        <time>2022-01-02T13:06:02.000Z</time>
      </trkpt>
      <trkpt lat="45.57955" lon="6.27177">
        <ele>297</ele>
        <time>2022-01-02T13:06:07.000Z</time>
      </trkpt>
      <trkpt lat="45.58" lon="6.2722">
        <ele>297</ele>
        <time>2022-01-02T13:06:15.000Z</time>
      </trkpt>
      <trkpt lat="45.58038" lon="6.27255">
        <ele>297.20001220703</ele>
        <time>2022-01-02T13:06:22.000Z</time>
      </trkpt>
      <trkpt lat="45.58083" lon="6.273">
        <ele>297.39999389648</ele>
        <time>2022-01-02T13:06:31.000Z</time>
      </trkpt>
      <trkpt lat="45.581" lon="6.27315">
        <ele>297.39999389648</ele>
        <time>2022-01-02T13:06:34.000Z</time>
      </trkpt>
      <trkpt lat="45.58145" lon="6.27361">
        <ele>297.39999389648</ele>
        <time>2022-01-02T13:06:43.000Z</time>
      </trkpt>
      <trkpt lat="45.58155" lon="6.27372">
        <ele>297.39999389648</ele>
        <time>2022-01-02T13:06:45.000Z</time>
      </trkpt>
      <trkpt lat="45.58202" lon="6.27419">
        <ele>297.39999389648</ele>
        <time>2022-01-02T13:06:54.000Z</time>
      </trkpt>
      <trkpt lat="45.58207" lon="6.27425">
        <ele>297.39999389648</ele>
        <time>2022-01-02T13:06:55.000Z</time>
      </trkpt>
      <trkpt lat="45.58228" lon="6.27446">
        <ele>297.60000610352</ele>
        <time>2022-01-02T13:06:59.000Z</time>
      </trkpt>
      <trkpt lat="45.58264" lon="6.27482">
        <ele>297.60000610352</ele>
        <time>2022-01-02T13:07:06.000Z</time>
      </trkpt>
      <trkpt lat="45.58309" lon="6.27527">
        <ele>298</ele>
        <time>2022-01-02T13:07:15.000Z</time>
      </trkpt>
      <trkpt lat="45.58329" lon="6.27548">
        <ele>298</ele>
        <time>2022-01-02T13:07:19.000Z</time>
      </trkpt>
      <trkpt lat="45.58375" lon="6.27594">
        <ele>298.20001220703</ele>
        <time>2022-01-02T13:07:28.000Z</time>
      </trkpt>
      <trkpt lat="45.58385" lon="6.27605">
        <ele>298.20001220703</ele>
        <time>2022-01-02T13:07:30.000Z</time>
      </trkpt>
      <trkpt lat="45.5843" lon="6.27651">
        <ele>298.39999389648</ele>
        <time>2022-01-02T13:07:39.000Z</time>
      </trkpt>
      <trkpt lat="45.5844" lon="6.27661">
        <ele>298.39999389648</ele>
        <time>2022-01-02T13:07:41.000Z</time>
      </trkpt>
      <trkpt lat="45.5848" lon="6.27702">
        <ele>298.60000610352</ele>
        <time>2022-01-02T13:07:49.000Z</time>
      </trkpt>
      <trkpt lat="45.585" lon="6.27723">
        <ele>298.60000610352</ele>
        <time>2022-01-02T13:07:53.000Z</time>
      </trkpt>
      <trkpt lat="45.58546" lon="6.27769">
        <ele>298.79998779297</ele>
        <time>2022-01-02T13:08:02.000Z</time>
      </trkpt>
      <trkpt lat="45.58556" lon="6.2778">
        <ele>298.79998779297</ele>
        <time>2022-01-02T13:08:04.000Z</time>
      </trkpt>
      <trkpt lat="45.58602" lon="6.27826">
        <ele>299</ele>
        <time>2022-01-02T13:08:13.000Z</time>
      </trkpt>
      <trkpt lat="45.58617" lon="6.27841">
        <ele>299.20001220703</ele>
        <time>2022-01-02T13:08:16.000Z</time>
      </trkpt>
      <trkpt lat="45.58663" lon="6.27888">
        <ele>299.20001220703</ele>
        <time>2022-01-02T13:08:25.000Z</time>
      </trkpt>
      <trkpt lat="45.58673" lon="6.27898">
        <ele>299.20001220703</ele>
        <time>2022-01-02T13:08:27.000Z</time>
      </trkpt>
      <trkpt lat="45.58719" lon="6.27945">
        <ele>299.39999389648</ele>
        <time>2022-01-02T13:08:36.000Z</time>
      </trkpt>
      <trkpt lat="45.58729" lon="6.27955">
        <ele>299.39999389648</ele>
        <time>2022-01-02T13:08:38.000Z</time>
      </trkpt>
      <trkpt lat="45.58775" lon="6.28001">
        <ele>299.60000610352</ele>
        <time>2022-01-02T13:08:47.000Z</time>
      </trkpt>
      <trkpt lat="45.5878" lon="6.28006">
        <ele>299.60000610352</ele>
        <time>2022-01-02T13:08:48.000Z</time>
      </trkpt>
      <trkpt lat="45.58824" lon="6.28052">
        <ele>299.79998779297</ele>
        <time>2022-01-02T13:08:57.000Z</time>
      </trkpt>
      <trkpt lat="45.58829" lon="6.28057">
        <ele>299.79998779297</ele>
        <time>2022-01-02T13:08:58.000Z</time>
      </trkpt>
      <trkpt lat="45.58834" lon="6.28062">
        <ele>299.79998779297</ele>
        <time>2022-01-02T13:08:59.000Z</time>
      </trkpt>
      <trkpt lat="45.58882" lon="6.28113">
        <ele>300.60000610352</ele>
        <time>2022-01-02T13:09:09.000Z</time>
      </trkpt>
      <trkpt lat="45.58892" lon="6.28124">
        <ele>300.79998779297</ele>
        <time>2022-01-02T13:09:11.000Z</time>
      </trkpt>
      <trkpt lat="45.58937" lon="6.28175">
        <ele>301</ele>
        <time>2022-01-02T13:09:20.000Z</time>
      </trkpt>
      <trkpt lat="45.58952" lon="6.28192">
        <ele>300.79998779297</ele>
        <time>2022-01-02T13:09:23.000Z</time>
      </trkpt>
      <trkpt lat="45.58995" lon="6.28245">
        <ele>300.39999389648</ele>
        <time>2022-01-02T13:09:32.000Z</time>
      </trkpt>
      <trkpt lat="45.59004" lon="6.28257">
        <ele>300.39999389648</ele>
        <time>2022-01-02T13:09:34.000Z</time>
      </trkpt>
      <trkpt lat="45.59047" lon="6.28306">
        <ele>300.60000610352</ele>
        <time>2022-01-02T13:09:43.000Z</time>
      </trkpt>
      <trkpt lat="45.5906" lon="6.28321">
        <ele>300.79998779297</ele>
        <time>2022-01-02T13:09:46.000Z</time>
      </trkpt>
      <trkpt lat="45.59101" lon="6.28372">
        <ele>301</ele>
        <time>2022-01-02T13:09:55.000Z</time>
      </trkpt>
      <trkpt lat="45.59107" lon="6.28379">
        <ele>301</ele>
        <time>2022-01-02T13:09:56.000Z</time>
      </trkpt>
      <trkpt lat="45.5912" lon="6.28397">
        <ele>301</ele>
        <time>2022-01-02T13:09:59.000Z</time>
      </trkpt>
      <trkpt lat="45.59155" lon="6.28445">
        <ele>301.20001220703</ele>
        <time>2022-01-02T13:10:07.000Z</time>
      </trkpt>
      <trkpt lat="45.59195" lon="6.28497">
        <ele>301.39999389648</ele>
        <time>2022-01-02T13:10:16.000Z</time>
      </trkpt>
      <trkpt lat="45.59204" lon="6.28509">
        <ele>301.39999389648</ele>
        <time>2022-01-02T13:10:18.000Z</time>
      </trkpt>
      <trkpt lat="45.59244" lon="6.28563">
        <ele>301.60000610352</ele>
        <time>2022-01-02T13:10:27.000Z</time>
      </trkpt>
      <trkpt lat="45.59285" lon="6.28617">
        <ele>302</ele>
        <time>2022-01-02T13:10:36.000Z</time>
      </trkpt>
      <trkpt lat="45.5929" lon="6.28623">
        <ele>302</ele>
        <time>2022-01-02T13:10:37.000Z</time>
      </trkpt>
      <trkpt lat="45.59317" lon="6.28659">
        <ele>302.39999389648</ele>
        <time>2022-01-02T13:10:43.000Z</time>
      </trkpt>
      <trkpt lat="45.59339" lon="6.28688">
        <ele>302.39999389648</ele>
        <time>2022-01-02T13:10:48.000Z</time>
      </trkpt>
      <trkpt lat="45.59379" lon="6.28742">
        <ele>302.60000610352</ele>
        <time>2022-01-02T13:10:57.000Z</time>
      </trkpt>
      <trkpt lat="45.59384" lon="6.28748">
        <ele>302.60000610352</ele>
        <time>2022-01-02T13:10:58.000Z</time>
      </trkpt>
      <trkpt lat="45.59411" lon="6.28783">
        <ele>303</ele>
        <time>2022-01-02T13:11:04.000Z</time>
      </trkpt>
      <trkpt lat="45.59423" lon="6.28803">
        <ele>303</ele>
        <time>2022-01-02T13:11:07.000Z</time>
      </trkpt>
      <trkpt lat="45.59458" lon="6.28864">
        <ele>302.79998779297</ele>
        <time>2022-01-02T13:11:16.000Z</time>
      </trkpt>
      <trkpt lat="45.59477" lon="6.28897">
        <ele>303</ele>
        <time>2022-01-02T13:11:21.000Z</time>
      </trkpt>
      <trkpt lat="45.59497" lon="6.28932">
        <ele>303</ele>
        <time>2022-01-02T13:11:26.000Z</time>
      </trkpt>
      <trkpt lat="45.59527" lon="6.28985">
        <ele>303.39999389648</ele>
        <time>2022-01-02T13:11:34.000Z</time>
      </trkpt>
      <trkpt lat="45.59551" lon="6.29027">
        <ele>303.60000610352</ele>
        <time>2022-01-02T13:11:40.000Z</time>
      </trkpt>
      <trkpt lat="45.59562" lon="6.29048">
        <ele>303.39999389648</ele>
        <time>2022-01-02T13:11:43.000Z</time>
      </trkpt>
      <trkpt lat="45.59597" lon="6.29109">
        <ele>303.79998779297</ele>
        <time>2022-01-02T13:11:52.000Z</time>
      </trkpt>
      <trkpt lat="45.59601" lon="6.29116">
        <ele>303.79998779297</ele>
        <time>2022-01-02T13:11:53.000Z</time>
      </trkpt>
      <trkpt lat="45.59636" lon="6.29176">
        <ele>304</ele>
        <time>2022-01-02T13:12:02.000Z</time>
      </trkpt>
      <trkpt lat="45.59644" lon="6.29189">
        <ele>304</ele>
        <time>2022-01-02T13:12:04.000Z</time>
      </trkpt>
      <trkpt lat="45.59678" lon="6.2925">
        <ele>303.79998779297</ele>
        <time>2022-01-02T13:12:13.000Z</time>
      </trkpt>
      <trkpt lat="45.59685" lon="6.29264">
        <ele>304</ele>
        <time>2022-01-02T13:12:15.000Z</time>
      </trkpt>
      <trkpt lat="45.59721" lon="6.29324">
        <ele>304.20001220703</ele>
        <time>2022-01-02T13:12:24.000Z</time>
      </trkpt>
      <trkpt lat="45.59732" lon="6.29345">
        <ele>304.20001220703</ele>
        <time>2022-01-02T13:12:27.000Z</time>
      </trkpt>
      <trkpt lat="45.59768" lon="6.29407">
        <ele>304.60000610352</ele>
        <time>2022-01-02T13:12:36.000Z</time>
      </trkpt>
      <trkpt lat="45.59779" lon="6.29426">
        <ele>304.60000610352</ele>
        <time>2022-01-02T13:12:39.000Z</time>
      </trkpt>
      <trkpt lat="45.59814" lon="6.29488">
        <ele>304.60000610352</ele>
        <time>2022-01-02T13:12:48.000Z</time>
      </trkpt>
      <trkpt lat="45.59826" lon="6.29509">
        <ele>304.60000610352</ele>
        <time>2022-01-02T13:12:51.000Z</time>
      </trkpt>
      <trkpt lat="45.5986" lon="6.29571">
        <ele>304.60000610352</ele>
        <time>2022-01-02T13:13:00.000Z</time>
      </trkpt>
      <trkpt lat="45.59868" lon="6.29586">
        <ele>304.60000610352</ele>
        <time>2022-01-02T13:13:02.000Z</time>
      </trkpt>
      <trkpt lat="45.59901" lon="6.2965">
        <ele>305</ele>
        <time>2022-01-02T13:13:11.000Z</time>
      </trkpt>
      <trkpt lat="45.59905" lon="6.29657">
        <ele>305</ele>
        <time>2022-01-02T13:13:12.000Z</time>
      </trkpt>
      <trkpt lat="45.59938" lon="6.2972">
        <ele>305.20001220703</ele>
        <time>2022-01-02T13:13:21.000Z</time>
      </trkpt>
      <trkpt lat="45.59949" lon="6.29741">
        <ele>305.20001220703</ele>
        <time>2022-01-02T13:13:24.000Z</time>
      </trkpt>
      <trkpt lat="45.59983" lon="6.29805">
        <ele>305.20001220703</ele>
        <time>2022-01-02T13:13:33.000Z</time>
      </trkpt>
      <trkpt lat="45.60015" lon="6.29871">
        <ele>305.39999389648</ele>
        <time>2022-01-02T13:13:42.000Z</time>
      </trkpt>
      <trkpt lat="45.60018" lon="6.29878">
        <ele>305.39999389648</ele>
        <time>2022-01-02T13:13:43.000Z</time>
      </trkpt>
      <trkpt lat="45.60041" lon="6.29941">
        <ele>305.60000610352</ele>
        <time>2022-01-02T13:13:51.000Z</time>
      </trkpt>
      <trkpt lat="45.60061" lon="6.30014">
        <ele>305.60000610352</ele>
        <time>2022-01-02T13:14:00.000Z</time>
      </trkpt>
      <trkpt lat="45.60065" lon="6.30031">
        <ele>305.60000610352</ele>
        <time>2022-01-02T13:14:02.000Z</time>
      </trkpt>
      <trkpt lat="45.60086" lon="6.30104">
        <ele>305.60000610352</ele>
        <time>2022-01-02T13:14:11.000Z</time>
      </trkpt>
      <trkpt lat="45.6009" lon="6.3012">
        <ele>305.60000610352</ele>
        <time>2022-01-02T13:14:13.000Z</time>
      </trkpt>
      <trkpt lat="45.60111" lon="6.30198">
        <ele>306</ele>
        <time>2022-01-02T13:14:23.000Z</time>
      </trkpt>
      <trkpt lat="45.60113" lon="6.30206">
        <ele>306.20001220703</ele>
        <time>2022-01-02T13:14:24.000Z</time>
      </trkpt>
      <trkpt lat="45.60135" lon="6.30281">
        <ele>306.79998779297</ele>
        <time>2022-01-02T13:14:34.000Z</time>
      </trkpt>
      <trkpt lat="45.60137" lon="6.30289">
        <ele>306.79998779297</ele>
        <time>2022-01-02T13:14:35.000Z</time>
      </trkpt>
      <trkpt lat="45.60148" lon="6.30323">
        <ele>307.20001220703</ele>
        <time>2022-01-02T13:14:40.000Z</time>
      </trkpt>
      <trkpt lat="45.60153" lon="6.30336">
        <ele>307.60000610352</ele>
        <time>2022-01-02T13:14:42.000Z</time>
      </trkpt>
      <trkpt lat="45.60156" lon="6.30343">
        <ele>307.60000610352</ele>
        <time>2022-01-02T13:14:43.000Z</time>
      </trkpt>
      <trkpt lat="45.60166" lon="6.30362">
        <ele>308</ele>
        <time>2022-01-02T13:14:46.000Z</time>
      </trkpt>
      <trkpt lat="45.6017" lon="6.30367">
        <ele>308.39999389648</ele>
        <time>2022-01-02T13:14:47.000Z</time>
      </trkpt>
      <trkpt lat="45.60178" lon="6.30377">
        <ele>308.60000610352</ele>
        <time>2022-01-02T13:14:49.000Z</time>
      </trkpt>
      <trkpt lat="45.60194" lon="6.30395">
        <ele>309.60000610352</ele>
        <time>2022-01-02T13:14:53.000Z</time>
      </trkpt>
      <trkpt lat="45.60207" lon="6.30404">
        <ele>310.20001220703</ele>
        <time>2022-01-02T13:14:56.000Z</time>
      </trkpt>
      <trkpt lat="45.60216" lon="6.30408">
        <ele>310.60000610352</ele>
        <time>2022-01-02T13:14:58.000Z</time>
      </trkpt>
      <trkpt lat="45.60248" lon="6.30425">
        <ele>311.60000610352</ele>
        <time>2022-01-02T13:15:05.000Z</time>
      </trkpt>
      <trkpt lat="45.60257" lon="6.30429">
        <ele>312.20001220703</ele>
        <time>2022-01-02T13:15:07.000Z</time>
      </trkpt>
      <trkpt lat="45.60286" lon="6.30443">
        <ele>313</ele>
        <time>2022-01-02T13:15:13.000Z</time>
      </trkpt>
      <trkpt lat="45.60304" lon="6.30451">
        <ele>313.60000610352</ele>
        <time>2022-01-02T13:15:17.000Z</time>
      </trkpt>
      <trkpt lat="45.60309" lon="6.30454">
        <ele>314</ele>
        <time>2022-01-02T13:15:18.000Z</time>
      </trkpt>
      <trkpt lat="45.60334" lon="6.30473">
        <ele>314.79998779297</ele>
        <time>2022-01-02T13:15:24.000Z</time>
      </trkpt>
      <trkpt lat="45.60341" lon="6.30482">
        <ele>315</ele>
        <time>2022-01-02T13:15:26.000Z</time>
      </trkpt>
      <trkpt lat="45.60352" lon="6.30505">
        <ele>315.60000610352</ele>
        <time>2022-01-02T13:15:30.000Z</time>
      </trkpt>
      <trkpt lat="45.60364" lon="6.30549">
        <ele>315.79998779297</ele>
        <time>2022-01-02T13:15:36.000Z</time>
      </trkpt>
      <trkpt lat="45.60378" lon="6.30606">
        <ele>315.39999389648</ele>
        <time>2022-01-02T13:15:43.000Z</time>
      </trkpt>
      <trkpt lat="45.60398" lon="6.30684">
        <ele>314.79998779297</ele>
        <time>2022-01-02T13:15:52.000Z</time>
      </trkpt>
      <trkpt lat="45.60401" lon="6.30693">
        <ele>314.60000610352</ele>
        <time>2022-01-02T13:15:53.000Z</time>
      </trkpt>
      <trkpt lat="45.60409" lon="6.30726">
        <ele>313.79998779297</ele>
        <time>2022-01-02T13:15:57.000Z</time>
      </trkpt>
      <trkpt lat="45.60415" lon="6.30756">
        <ele>313.39999389648</ele>
        <time>2022-01-02T13:16:00.000Z</time>
      </trkpt>
      <trkpt lat="45.60425" lon="6.30795">
        <ele>312.79998779297</ele>
        <time>2022-01-02T13:16:04.000Z</time>
      </trkpt>
      <trkpt lat="45.60433" lon="6.30833">
        <ele>312.20001220703</ele>
        <time>2022-01-02T13:16:08.000Z</time>
      </trkpt>
      <trkpt lat="45.60438" lon="6.30854">
        <ele>311.79998779297</ele>
        <time>2022-01-02T13:16:10.000Z</time>
      </trkpt>
      <trkpt lat="45.60444" lon="6.30871">
        <ele>311.39999389648</ele>
        <time>2022-01-02T13:16:12.000Z</time>
      </trkpt>
      <trkpt lat="45.60448" lon="6.30881">
        <ele>311.20001220703</ele>
        <time>2022-01-02T13:16:13.000Z</time>
      </trkpt>
      <trkpt lat="45.60472" lon="6.30917">
        <ele>310.79998779297</ele>
        <time>2022-01-02T13:16:18.000Z</time>
      </trkpt>
      <trkpt lat="45.60482" lon="6.30928">
        <ele>310.79998779297</ele>
        <time>2022-01-02T13:16:20.000Z</time>
      </trkpt>
      <trkpt lat="45.60526" lon="6.30976">
        <ele>310</ele>
        <time>2022-01-02T13:16:28.000Z</time>
      </trkpt>
      <trkpt lat="45.60543" lon="6.30994">
        <ele>309.79998779297</ele>
        <time>2022-01-02T13:16:31.000Z</time>
      </trkpt>
      <trkpt lat="45.60579" lon="6.31034">
        <ele>309.60000610352</ele>
        <time>2022-01-02T13:16:38.000Z</time>
      </trkpt>
      <trkpt lat="45.60626" lon="6.31084">
        <ele>309.39999389648</ele>
        <time>2022-01-02T13:16:47.000Z</time>
      </trkpt>
      <trkpt lat="45.60641" lon="6.311">
        <ele>309.39999389648</ele>
        <time>2022-01-02T13:16:50.000Z</time>
      </trkpt>
      <trkpt lat="45.60687" lon="6.31147">
        <ele>309.60000610352</ele>
        <time>2022-01-02T13:16:59.000Z</time>
      </trkpt>
      <trkpt lat="45.60698" lon="6.31158">
        <ele>309.79998779297</ele>
        <time>2022-01-02T13:17:01.000Z</time>
      </trkpt>
      <trkpt lat="45.60734" lon="6.31195">
        <ele>309.79998779297</ele>
        <time>2022-01-02T13:17:08.000Z</time>
      </trkpt>
      <trkpt lat="45.60774" lon="6.31235">
        <ele>310</ele>
        <time>2022-01-02T13:17:16.000Z</time>
      </trkpt>
      <trkpt lat="45.60812" lon="6.31272">
        <ele>310</ele>
        <time>2022-01-02T13:17:23.000Z</time>
      </trkpt>
      <trkpt lat="45.60861" lon="6.31322">
        <ele>310.39999389648</ele>
        <time>2022-01-02T13:17:32.000Z</time>
      </trkpt>
      <trkpt lat="45.60894" lon="6.31352">
        <ele>310.39999389648</ele>
        <time>2022-01-02T13:17:38.000Z</time>
      </trkpt>
      <trkpt lat="45.60899" lon="6.31357">
        <ele>310.60000610352</ele>
        <time>2022-01-02T13:17:39.000Z</time>
      </trkpt>
      <trkpt lat="45.60944" lon="6.31401">
        <ele>311.20001220703</ele>
        <time>2022-01-02T13:17:47.000Z</time>
      </trkpt>
      <trkpt lat="45.60949" lon="6.31406">
        <ele>311.39999389648</ele>
        <time>2022-01-02T13:17:48.000Z</time>
      </trkpt>
      <trkpt lat="45.60953" lon="6.31411">
        <ele>311.60000610352</ele>
        <time>2022-01-02T13:17:49.000Z</time>
      </trkpt>
      <trkpt lat="45.60976" lon="6.31436">
        <ele>312.20001220703</ele>
        <time>2022-01-02T13:17:54.000Z</time>
      </trkpt>
      <trkpt lat="45.60992" lon="6.31455">
        <ele>312.79998779297</ele>
        <time>2022-01-02T13:17:58.000Z</time>
      </trkpt>
      <trkpt lat="45.61004" lon="6.3147">
        <ele>313.20001220703</ele>
        <time>2022-01-02T13:18:01.000Z</time>
      </trkpt>
      <trkpt lat="45.61011" lon="6.31479">
        <ele>313.79998779297</ele>
        <time>2022-01-02T13:18:03.000Z</time>
      </trkpt>
      <trkpt lat="45.61015" lon="6.31484">
        <ele>314</ele>
        <time>2022-01-02T13:18:04.000Z</time>
      </trkpt>
      <trkpt lat="45.61028" lon="6.31499">
        <ele>314.60000610352</ele>
        <time>2022-01-02T13:18:07.000Z</time>
      </trkpt>
      <trkpt lat="45.61032" lon="6.31504">
        <ele>314.79998779297</ele>
        <time>2022-01-02T13:18:08.000Z</time>
      </trkpt>
      <trkpt lat="45.6104" lon="6.31513">
        <ele>315.20001220703</ele>
        <time>2022-01-02T13:18:10.000Z</time>
      </trkpt>
      <trkpt lat="45.61051" lon="6.31527">
        <ele>315.60000610352</ele>
        <time>2022-01-02T13:18:13.000Z</time>
      </trkpt>
      <trkpt lat="45.61059" lon="6.31536">
        <ele>316</ele>
        <time>2022-01-02T13:18:15.000Z</time>
      </trkpt>
      <trkpt lat="45.61074" lon="6.31555">
        <ele>317.20001220703</ele>
        <time>2022-01-02T13:18:19.000Z</time>
      </trkpt>
      <trkpt lat="45.61078" lon="6.3156">
        <ele>317.39999389648</ele>
        <time>2022-01-02T13:18:20.000Z</time>
      </trkpt>
      <trkpt lat="45.61099" lon="6.31581">
        <ele>318.20001220703</ele>
        <time>2022-01-02T13:18:25.000Z</time>
      </trkpt>
      <trkpt lat="45.61103" lon="6.31585">
        <ele>318.60000610352</ele>
        <time>2022-01-02T13:18:26.000Z</time>
      </trkpt>
      <trkpt lat="45.6111" lon="6.31594">
        <ele>319.20001220703</ele>
        <time>2022-01-02T13:18:28.000Z</time>
      </trkpt>
      <trkpt lat="45.61142" lon="6.31629">
        <ele>320</ele>
        <time>2022-01-02T13:18:36.000Z</time>
      </trkpt>
      <trkpt lat="45.61149" lon="6.31639">
        <ele>320.20001220703</ele>
        <time>2022-01-02T13:18:38.000Z</time>
      </trkpt>
      <trkpt lat="45.6117" lon="6.31662">
        <ele>320.79998779297</ele>
        <time>2022-01-02T13:18:43.000Z</time>
      </trkpt>
      <trkpt lat="45.61173" lon="6.31666">
        <ele>320.79998779297</ele>
        <time>2022-01-02T13:18:44.000Z</time>
      </trkpt>
      <trkpt lat="45.61176" lon="6.31671">
        <ele>321</ele>
        <time>2022-01-02T13:18:45.000Z</time>
      </trkpt>
      <trkpt lat="45.61185" lon="6.31679">
        <ele>321.39999389648</ele>
        <time>2022-01-02T13:18:47.000Z</time>
      </trkpt>
      <trkpt lat="45.6119" lon="6.31682">
        <ele>321.60000610352</ele>
        <time>2022-01-02T13:18:48.000Z</time>
      </trkpt>
      <trkpt lat="45.61194" lon="6.31684">
        <ele>321.79998779297</ele>
        <time>2022-01-02T13:18:49.000Z</time>
      </trkpt>
      <trkpt lat="45.61213" lon="6.31694">
        <ele>322.39999389648</ele>
        <time>2022-01-02T13:18:53.000Z</time>
      </trkpt>
      <trkpt lat="45.61224" lon="6.31698">
        <ele>322.39999389648</ele>
        <time>2022-01-02T13:18:55.000Z</time>
      </trkpt>
      <trkpt lat="45.6125" lon="6.31703">
        <ele>322.79998779297</ele>
        <time>2022-01-02T13:19:00.000Z</time>
      </trkpt>
      <trkpt lat="45.61291" lon="6.31709">
        <ele>323.60000610352</ele>
        <time>2022-01-02T13:19:08.000Z</time>
      </trkpt>
      <trkpt lat="45.61302" lon="6.3171">
        <ele>323.79998779297</ele>
        <time>2022-01-02T13:19:10.000Z</time>
      </trkpt>
      <trkpt lat="45.61339" lon="6.31717">
        <ele>324.20001220703</ele>
        <time>2022-01-02T13:19:17.000Z</time>
      </trkpt>
      <trkpt lat="45.61348" lon="6.31718">
        <ele>324.39999389648</ele>
        <time>2022-01-02T13:19:19.000Z</time>
      </trkpt>
      <trkpt lat="45.61353" lon="6.31718">
        <ele>324.60000610352</ele>
        <time>2022-01-02T13:19:20.000Z</time>
      </trkpt>
      <trkpt lat="45.61376" lon="6.31722">
        <ele>325</ele>
        <time>2022-01-02T13:19:24.000Z</time>
      </trkpt>
      <trkpt lat="45.61408" lon="6.31725">
        <ele>325.60000610352</ele>
        <time>2022-01-02T13:19:30.000Z</time>
      </trkpt>
      <trkpt lat="45.61419" lon="6.31728">
        <ele>325.79998779297</ele>
        <time>2022-01-02T13:19:32.000Z</time>
      </trkpt>
      <trkpt lat="45.61451" lon="6.31741">
        <ele>326</ele>
        <time>2022-01-02T13:19:38.000Z</time>
      </trkpt>
      <trkpt lat="45.61454" lon="6.31744">
        <ele>326.39999389648</ele>
        <time>2022-01-02T13:19:39.000Z</time>
      </trkpt>
      <trkpt lat="45.61467" lon="6.3176">
        <ele>326.79998779297</ele>
        <time>2022-01-02T13:19:42.000Z</time>
      </trkpt>
      <trkpt lat="45.61474" lon="6.31772">
        <ele>327</ele>
        <time>2022-01-02T13:19:44.000Z</time>
      </trkpt>
      <trkpt lat="45.61476" lon="6.31779">
        <ele>327</ele>
        <time>2022-01-02T13:19:45.000Z</time>
      </trkpt>
      <trkpt lat="45.6148" lon="6.31794">
        <ele>327.20001220703</ele>
        <time>2022-01-02T13:19:47.000Z</time>
      </trkpt>
      <trkpt lat="45.61481" lon="6.318">
        <ele>327.39999389648</ele>
        <time>2022-01-02T13:19:48.000Z</time>
      </trkpt>
      <trkpt lat="45.61483" lon="6.31815">
        <ele>327.79998779297</ele>
        <time>2022-01-02T13:19:50.000Z</time>
      </trkpt>
      <trkpt lat="45.61485" lon="6.31831">
        <ele>328.20001220703</ele>
        <time>2022-01-02T13:19:52.000Z</time>
      </trkpt>
      <trkpt lat="45.61486" lon="6.31837">
        <ele>328.20001220703</ele>
        <time>2022-01-02T13:19:53.000Z</time>
      </trkpt>
      <trkpt lat="45.6149" lon="6.31862">
        <ele>329</ele>
        <time>2022-01-02T13:19:56.000Z</time>
      </trkpt>
      <trkpt lat="45.61493" lon="6.31881">
        <ele>329.60000610352</ele>
        <time>2022-01-02T13:19:59.000Z</time>
      </trkpt>
      <trkpt lat="45.61499" lon="6.31902">
        <ele>330.20001220703</ele>
        <time>2022-01-02T13:20:02.000Z</time>
      </trkpt>
      <trkpt lat="45.61506" lon="6.31923">
        <ele>330.60000610352</ele>
        <time>2022-01-02T13:20:05.000Z</time>
      </trkpt>
      <trkpt lat="45.61515" lon="6.31951">
        <ele>331.20001220703</ele>
        <time>2022-01-02T13:20:09.000Z</time>
      </trkpt>
      <trkpt lat="45.61529" lon="6.31993">
        <ele>331.60000610352</ele>
        <time>2022-01-02T13:20:15.000Z</time>
      </trkpt>
      <trkpt lat="45.61545" lon="6.32053">
        <ele>332</ele>
        <time>2022-01-02T13:20:23.000Z</time>
      </trkpt>
      <trkpt lat="45.61548" lon="6.32069">
        <ele>332.39999389648</ele>
        <time>2022-01-02T13:20:25.000Z</time>
      </trkpt>
      <trkpt lat="45.61551" lon="6.32086">
        <ele>332.60000610352</ele>
        <time>2022-01-02T13:20:27.000Z</time>
      </trkpt>
      <trkpt lat="45.61553" lon="6.32111">
        <ele>333</ele>
        <time>2022-01-02T13:20:30.000Z</time>
      </trkpt>
      <trkpt lat="45.61555" lon="6.32135">
        <ele>333.39999389648</ele>
        <time>2022-01-02T13:20:33.000Z</time>
      </trkpt>
      <trkpt lat="45.61557" lon="6.32166">
        <ele>334.60000610352</ele>
        <time>2022-01-02T13:20:37.000Z</time>
      </trkpt>
      <trkpt lat="45.61558" lon="6.32187">
        <ele>335.39999389648</ele>
        <time>2022-01-02T13:20:40.000Z</time>
      </trkpt>
      <trkpt lat="45.61558" lon="6.32195">
        <ele>335.79998779297</ele>
        <time>2022-01-02T13:20:41.000Z</time>
      </trkpt>
      <trkpt lat="45.6156" lon="6.3223">
        <ele>337.39999389648</ele>
        <time>2022-01-02T13:20:46.000Z</time>
      </trkpt>
      <trkpt lat="45.61561" lon="6.32236">
        <ele>337.60000610352</ele>
        <time>2022-01-02T13:20:47.000Z</time>
      </trkpt>
      <trkpt lat="45.61561" lon="6.32243">
        <ele>338</ele>
        <time>2022-01-02T13:20:48.000Z</time>
      </trkpt>
      <trkpt lat="45.61564" lon="6.32265">
        <ele>338.60000610352</ele>
        <time>2022-01-02T13:20:51.000Z</time>
      </trkpt>
      <trkpt lat="45.61564" lon="6.32279">
        <ele>339</ele>
        <time>2022-01-02T13:20:53.000Z</time>
      </trkpt>
      <trkpt lat="45.61565" lon="6.32301">
        <ele>339.79998779297</ele>
        <time>2022-01-02T13:20:56.000Z</time>
      </trkpt>
      <trkpt lat="45.61568" lon="6.32332">
        <ele>341</ele>
        <time>2022-01-02T13:21:01.000Z</time>
      </trkpt>
      <trkpt lat="45.6157" lon="6.32373">
        <ele>341.79998779297</ele>
        <time>2022-01-02T13:21:07.000Z</time>
      </trkpt>
      <trkpt lat="45.61573" lon="6.32414">
        <ele>341.39999389648</ele>
        <time>2022-01-02T13:21:12.000Z</time>
      </trkpt>
      <trkpt lat="45.61578" lon="6.32475">
        <ele>340.60000610352</ele>
        <time>2022-01-02T13:21:19.000Z</time>
      </trkpt>
      <trkpt lat="45.61581" lon="6.32502">
        <ele>340</ele>
        <time>2022-01-02T13:21:22.000Z</time>
      </trkpt>
      <trkpt lat="45.61581" lon="6.32511">
        <ele>339.79998779297</ele>
        <time>2022-01-02T13:21:23.000Z</time>
      </trkpt>
      <trkpt lat="45.61583" lon="6.3253">
        <ele>339.60000610352</ele>
        <time>2022-01-02T13:21:25.000Z</time>
      </trkpt>
      <trkpt lat="45.61585" lon="6.3257">
        <ele>338.79998779297</ele>
        <time>2022-01-02T13:21:29.000Z</time>
      </trkpt>
      <trkpt lat="45.61588" lon="6.32613">
        <ele>337.79998779297</ele>
        <time>2022-01-02T13:21:33.000Z</time>
      </trkpt>
      <trkpt lat="45.61592" lon="6.32667">
        <ele>336.39999389648</ele>
        <time>2022-01-02T13:21:38.000Z</time>
      </trkpt>
      <trkpt lat="45.61598" lon="6.32714">
        <ele>335.39999389648</ele>
        <time>2022-01-02T13:21:42.000Z</time>
      </trkpt>
      <trkpt lat="45.61601" lon="6.32725">
        <ele>335</ele>
        <time>2022-01-02T13:21:43.000Z</time>
      </trkpt>
      <trkpt lat="45.61609" lon="6.32746">
        <ele>334.20001220703</ele>
        <time>2022-01-02T13:21:45.000Z</time>
      </trkpt>
      <trkpt lat="45.61614" lon="6.32757">
        <ele>334</ele>
        <time>2022-01-02T13:21:46.000Z</time>
      </trkpt>
      <trkpt lat="45.61625" lon="6.32779">
        <ele>333</ele>
        <time>2022-01-02T13:21:48.000Z</time>
      </trkpt>
      <trkpt lat="45.61648" lon="6.3282">
        <ele>331.79998779297</ele>
        <time>2022-01-02T13:21:52.000Z</time>
      </trkpt>
      <trkpt lat="45.61665" lon="6.32849">
        <ele>330.60000610352</ele>
        <time>2022-01-02T13:21:55.000Z</time>
      </trkpt>
      <trkpt lat="45.61685" lon="6.32881">
        <ele>329.39999389648</ele>
        <time>2022-01-02T13:21:58.000Z</time>
      </trkpt>
      <trkpt lat="45.61709" lon="6.32922">
        <ele>328</ele>
        <time>2022-01-02T13:22:02.000Z</time>
      </trkpt>
      <trkpt lat="45.61721" lon="6.32943">
        <ele>327.20001220703</ele>
        <time>2022-01-02T13:22:04.000Z</time>
      </trkpt>
      <trkpt lat="45.61726" lon="6.32954">
        <ele>326.79998779297</ele>
        <time>2022-01-02T13:22:05.000Z</time>
      </trkpt>
      <trkpt lat="45.61731" lon="6.32965">
        <ele>326.60000610352</ele>
        <time>2022-01-02T13:22:06.000Z</time>
      </trkpt>
      <trkpt lat="45.6174" lon="6.32988">
        <ele>325.79998779297</ele>
        <time>2022-01-02T13:22:08.000Z</time>
      </trkpt>
      <trkpt lat="45.61747" lon="6.33012">
        <ele>324.60000610352</ele>
        <time>2022-01-02T13:22:10.000Z</time>
      </trkpt>
      <trkpt lat="45.61758" lon="6.33045">
        <ele>323.79998779297</ele>
        <time>2022-01-02T13:22:13.000Z</time>
      </trkpt>
      <trkpt lat="45.61764" lon="6.33067">
        <ele>323.39999389648</ele>
        <time>2022-01-02T13:22:15.000Z</time>
      </trkpt>
      <trkpt lat="45.61781" lon="6.3312">
        <ele>322.39999389648</ele>
        <time>2022-01-02T13:22:20.000Z</time>
      </trkpt>
      <trkpt lat="45.61785" lon="6.3313">
        <ele>322.39999389648</ele>
        <time>2022-01-02T13:22:21.000Z</time>
      </trkpt>
      <trkpt lat="45.61807" lon="6.33186">
        <ele>322</ele>
        <time>2022-01-02T13:22:27.000Z</time>
      </trkpt>
      <trkpt lat="45.6183" lon="6.3323">
        <ele>322</ele>
        <time>2022-01-02T13:22:33.000Z</time>
      </trkpt>
      <trkpt lat="45.61855" lon="6.33266">
        <ele>322.20001220703</ele>
        <time>2022-01-02T13:22:39.000Z</time>
      </trkpt>
      <trkpt lat="45.6186" lon="6.33271">
        <ele>322.39999389648</ele>
        <time>2022-01-02T13:22:40.000Z</time>
      </trkpt>
      <trkpt lat="45.61884" lon="6.33295">
        <ele>322.79998779297</ele>
        <time>2022-01-02T13:22:45.000Z</time>
      </trkpt>
      <trkpt lat="45.61926" lon="6.33328">
        <ele>323.39999389648</ele>
        <time>2022-01-02T13:22:53.000Z</time>
      </trkpt>
      <trkpt lat="45.61971" lon="6.33361">
        <ele>324.60000610352</ele>
        <time>2022-01-02T13:23:02.000Z</time>
      </trkpt>
      <trkpt lat="45.62002" lon="6.33388">
        <ele>326</ele>
        <time>2022-01-02T13:23:09.000Z</time>
      </trkpt>
      <trkpt lat="45.62015" lon="6.33398">
        <ele>326.60000610352</ele>
        <time>2022-01-02T13:23:12.000Z</time>
      </trkpt>
      <trkpt lat="45.62032" lon="6.33412">
        <ele>327</ele>
        <time>2022-01-02T13:23:16.000Z</time>
      </trkpt>
      <trkpt lat="45.62053" lon="6.33428">
        <ele>328</ele>
        <time>2022-01-02T13:23:21.000Z</time>
      </trkpt>
      <trkpt lat="45.62057" lon="6.33431">
        <ele>328.20001220703</ele>
        <time>2022-01-02T13:23:22.000Z</time>
      </trkpt>
      <trkpt lat="45.62082" lon="6.33453">
        <ele>329.39999389648</ele>
        <time>2022-01-02T13:23:28.000Z</time>
      </trkpt>
      <trkpt lat="45.62086" lon="6.33456">
        <ele>329.60000610352</ele>
        <time>2022-01-02T13:23:29.000Z</time>
      </trkpt>
      <trkpt lat="45.62091" lon="6.33459">
        <ele>329.79998779297</ele>
        <time>2022-01-02T13:23:30.000Z</time>
      </trkpt>
      <trkpt lat="45.62103" lon="6.33467">
        <ele>330.60000610352</ele>
        <time>2022-01-02T13:23:33.000Z</time>
      </trkpt>
      <trkpt lat="45.62123" lon="6.33484">
        <ele>331.79998779297</ele>
        <time>2022-01-02T13:23:38.000Z</time>
      </trkpt>
      <trkpt lat="45.62128" lon="6.33487">
        <ele>332</ele>
        <time>2022-01-02T13:23:39.000Z</time>
      </trkpt>
      <trkpt lat="45.62132" lon="6.3349">
        <ele>332.20001220703</ele>
        <time>2022-01-02T13:23:40.000Z</time>
      </trkpt>
      <trkpt lat="45.62148" lon="6.33502">
        <ele>333</ele>
        <time>2022-01-02T13:23:44.000Z</time>
      </trkpt>
      <trkpt lat="45.62164" lon="6.33516">
        <ele>333.60000610352</ele>
        <time>2022-01-02T13:23:48.000Z</time>
      </trkpt>
      <trkpt lat="45.62189" lon="6.33544">
        <ele>333.79998779297</ele>
        <time>2022-01-02T13:23:54.000Z</time>
      </trkpt>
      <trkpt lat="45.62193" lon="6.3355">
        <ele>333.79998779297</ele>
        <time>2022-01-02T13:23:55.000Z</time>
      </trkpt>
      <trkpt lat="45.62197" lon="6.33556">
        <ele>333.79998779297</ele>
        <time>2022-01-02T13:23:56.000Z</time>
      </trkpt>
      <trkpt lat="45.62213" lon="6.33591">
        <ele>333.20001220703</ele>
        <time>2022-01-02T13:24:01.000Z</time>
      </trkpt>
      <trkpt lat="45.62239" lon="6.33652">
        <ele>332.79998779297</ele>
        <time>2022-01-02T13:24:09.000Z</time>
      </trkpt>
      <trkpt lat="45.62255" lon="6.33693">
        <ele>332</ele>
        <time>2022-01-02T13:24:14.000Z</time>
      </trkpt>
      <trkpt lat="45.62262" lon="6.3371">
        <ele>331.60000610352</ele>
        <time>2022-01-02T13:24:16.000Z</time>
      </trkpt>
      <trkpt lat="45.62277" lon="6.33744">
        <ele>331</ele>
        <time>2022-01-02T13:24:20.000Z</time>
      </trkpt>
      <trkpt lat="45.623" lon="6.33798">
        <ele>330</ele>
        <time>2022-01-02T13:24:26.000Z</time>
      </trkpt>
      <trkpt lat="45.62304" lon="6.33806">
        <ele>329.79998779297</ele>
        <time>2022-01-02T13:24:27.000Z</time>
      </trkpt>
      <trkpt lat="45.62331" lon="6.33869">
        <ele>328.60000610352</ele>
        <time>2022-01-02T13:24:34.000Z</time>
      </trkpt>
      <trkpt lat="45.62359" lon="6.33937">
        <ele>328.39999389648</ele>
        <time>2022-01-02T13:24:42.000Z</time>
      </trkpt>
      <trkpt lat="45.62377" lon="6.33976">
        <ele>329</ele>
        <time>2022-01-02T13:24:48.000Z</time>
      </trkpt>
      <trkpt lat="45.62387" lon="6.33993">
        <ele>329.39999389648</ele>
        <time>2022-01-02T13:24:51.000Z</time>
      </trkpt>
      <trkpt lat="45.62395" lon="6.34003">
        <ele>329.60000610352</ele>
        <time>2022-01-02T13:24:53.000Z</time>
      </trkpt>
      <trkpt lat="45.62399" lon="6.34007">
        <ele>329.79998779297</ele>
        <time>2022-01-02T13:24:54.000Z</time>
      </trkpt>
      <trkpt lat="45.62411" lon="6.34022">
        <ele>330.60000610352</ele>
        <time>2022-01-02T13:24:57.000Z</time>
      </trkpt>
      <trkpt lat="45.62414" lon="6.34026">
        <ele>330.79998779297</ele>
        <time>2022-01-02T13:24:58.000Z</time>
      </trkpt>
      <trkpt lat="45.62427" lon="6.34037">
        <ele>332</ele>
        <time>2022-01-02T13:25:01.000Z</time>
      </trkpt>
      <trkpt lat="45.62434" lon="6.34046">
        <ele>332.39999389648</ele>
        <time>2022-01-02T13:25:03.000Z</time>
      </trkpt>
      <trkpt lat="45.62447" lon="6.34057">
        <ele>333</ele>
        <time>2022-01-02T13:25:06.000Z</time>
      </trkpt>
      <trkpt lat="45.6246" lon="6.34067">
        <ele>333.60000610352</ele>
        <time>2022-01-02T13:25:09.000Z</time>
      </trkpt>
      <trkpt lat="45.62468" lon="6.34075">
        <ele>334</ele>
        <time>2022-01-02T13:25:11.000Z</time>
      </trkpt>
      <trkpt lat="45.62472" lon="6.34078">
        <ele>334.39999389648</ele>
        <time>2022-01-02T13:25:12.000Z</time>
      </trkpt>
      <trkpt lat="45.62488" lon="6.34091">
        <ele>335.60000610352</ele>
        <time>2022-01-02T13:25:16.000Z</time>
      </trkpt>
      <trkpt lat="45.62501" lon="6.34104">
        <ele>336</ele>
        <time>2022-01-02T13:25:19.000Z</time>
      </trkpt>
      <trkpt lat="45.6251" lon="6.34111">
        <ele>336.39999389648</ele>
        <time>2022-01-02T13:25:21.000Z</time>
      </trkpt>
      <trkpt lat="45.62519" lon="6.34119">
        <ele>336.60000610352</ele>
        <time>2022-01-02T13:25:23.000Z</time>
      </trkpt>
      <trkpt lat="45.62552" lon="6.34141">
        <ele>336.79998779297</ele>
        <time>2022-01-02T13:25:29.000Z</time>
      </trkpt>
      <trkpt lat="45.62581" lon="6.34155">
        <ele>335.79998779297</ele>
        <time>2022-01-02T13:25:34.000Z</time>
      </trkpt>
      <trkpt lat="45.62589" lon="6.34158">
        <ele>335.60000610352</ele>
        <time>2022-01-02T13:25:35.000Z</time>
      </trkpt>
      <trkpt lat="45.62615" lon="6.34171">
        <ele>334.39999389648</ele>
        <time>2022-01-02T13:25:39.000Z</time>
      </trkpt>
      <trkpt lat="45.62629" lon="6.34178">
        <ele>334.20001220703</ele>
        <time>2022-01-02T13:25:41.000Z</time>
      </trkpt>
      <trkpt lat="45.6265" lon="6.34189">
        <ele>333.39999389648</ele>
        <time>2022-01-02T13:25:44.000Z</time>
      </trkpt>
      <trkpt lat="45.62677" lon="6.34201">
        <ele>332.20001220703</ele>
        <time>2022-01-02T13:25:48.000Z</time>
      </trkpt>
      <trkpt lat="45.62683" lon="6.34204">
        <ele>332</ele>
        <time>2022-01-02T13:25:49.000Z</time>
      </trkpt>
      <trkpt lat="45.62716" lon="6.3422">
        <ele>331.20001220703</ele>
        <time>2022-01-02T13:25:54.000Z</time>
      </trkpt>
      <trkpt lat="45.62741" lon="6.34232">
        <ele>331</ele>
        <time>2022-01-02T13:25:58.000Z</time>
      </trkpt>
      <trkpt lat="45.62792" lon="6.34257">
        <ele>330.60000610352</ele>
        <time>2022-01-02T13:26:06.000Z</time>
      </trkpt>
      <trkpt lat="45.62822" lon="6.34272">
        <ele>330.20001220703</ele>
        <time>2022-01-02T13:26:11.000Z</time>
      </trkpt>
      <trkpt lat="45.62858" lon="6.34289">
        <ele>329.79998779297</ele>
        <time>2022-01-02T13:26:17.000Z</time>
      </trkpt>
      <trkpt lat="45.6291" lon="6.34314">
        <ele>329.20001220703</ele>
        <time>2022-01-02T13:26:25.000Z</time>
      </trkpt>
      <trkpt lat="45.62928" lon="6.34323">
        <ele>329</ele>
        <time>2022-01-02T13:26:28.000Z</time>
      </trkpt>
      <trkpt lat="45.62962" lon="6.34341">
        <ele>328</ele>
        <time>2022-01-02T13:26:33.000Z</time>
      </trkpt>
      <trkpt lat="45.62975" lon="6.34351">
        <ele>327.79998779297</ele>
        <time>2022-01-02T13:26:35.000Z</time>
      </trkpt>
      <trkpt lat="45.63005" lon="6.34391">
        <ele>327</ele>
        <time>2022-01-02T13:26:41.000Z</time>
      </trkpt>
      <trkpt lat="45.63009" lon="6.34397">
        <ele>327</ele>
        <time>2022-01-02T13:26:42.000Z</time>
      </trkpt>
      <trkpt lat="45.63035" lon="6.34444">
        <ele>326.20001220703</ele>
        <time>2022-01-02T13:26:48.000Z</time>
      </trkpt>
      <trkpt lat="45.6307" lon="6.34508">
        <ele>325.79998779297</ele>
        <time>2022-01-02T13:26:57.000Z</time>
      </trkpt>
      <trkpt lat="45.63089" lon="6.34534">
        <ele>326</ele>
        <time>2022-01-02T13:27:01.000Z</time>
      </trkpt>
      <trkpt lat="45.63099" lon="6.34543">
        <ele>326.20001220703</ele>
        <time>2022-01-02T13:27:03.000Z</time>
      </trkpt>
      <trkpt lat="45.63136" lon="6.34563">
        <ele>326</ele>
        <time>2022-01-02T13:27:09.000Z</time>
      </trkpt>
      <trkpt lat="45.63191" lon="6.34584">
        <ele>325.79998779297</ele>
        <time>2022-01-02T13:27:18.000Z</time>
      </trkpt>
      <trkpt lat="45.63225" lon="6.34606">
        <ele>325.79998779297</ele>
        <time>2022-01-02T13:27:24.000Z</time>
      </trkpt>
      <trkpt lat="45.6324" lon="6.34622">
        <ele>325.79998779297</ele>
        <time>2022-01-02T13:27:27.000Z</time>
      </trkpt>
      <trkpt lat="45.63254" lon="6.34641">
        <ele>325.79998779297</ele>
        <time>2022-01-02T13:27:30.000Z</time>
      </trkpt>
      <trkpt lat="45.63266" lon="6.34663">
        <ele>325.79998779297</ele>
        <time>2022-01-02T13:27:33.000Z</time>
      </trkpt>
      <trkpt lat="45.63275" lon="6.34688">
        <ele>325.79998779297</ele>
        <time>2022-01-02T13:27:36.000Z</time>
      </trkpt>
      <trkpt lat="45.63277" lon="6.34697">
        <ele>325.79998779297</ele>
        <time>2022-01-02T13:27:37.000Z</time>
      </trkpt>
      <trkpt lat="45.63283" lon="6.34733">
        <ele>325.79998779297</ele>
        <time>2022-01-02T13:27:41.000Z</time>
      </trkpt>
      <trkpt lat="45.63293" lon="6.34817">
        <ele>325.60000610352</ele>
        <time>2022-01-02T13:27:50.000Z</time>
      </trkpt>
      <trkpt lat="45.63303" lon="6.34898">
        <ele>325.39999389648</ele>
        <time>2022-01-02T13:27:59.000Z</time>
      </trkpt>
      <trkpt lat="45.63304" lon="6.34907">
        <ele>325.39999389648</ele>
        <time>2022-01-02T13:28:00.000Z</time>
      </trkpt>
      <trkpt lat="45.63314" lon="6.34991">
        <ele>325.39999389648</ele>
        <time>2022-01-02T13:28:09.000Z</time>
      </trkpt>
      <trkpt lat="45.63317" lon="6.3502">
        <ele>325.39999389648</ele>
        <time>2022-01-02T13:28:12.000Z</time>
      </trkpt>
      <trkpt lat="45.63327" lon="6.35085">
        <ele>325.20001220703</ele>
        <time>2022-01-02T13:28:19.000Z</time>
      </trkpt>
      <trkpt lat="45.63334" lon="6.35113">
        <ele>325.20001220703</ele>
        <time>2022-01-02T13:28:22.000Z</time>
      </trkpt>
      <trkpt lat="45.63356" lon="6.35164">
        <ele>325</ele>
        <time>2022-01-02T13:28:28.000Z</time>
      </trkpt>
      <trkpt lat="45.6339" lon="6.35215">
        <ele>324.39999389648</ele>
        <time>2022-01-02T13:28:35.000Z</time>
      </trkpt>
      <trkpt lat="45.63404" lon="6.35236">
        <ele>324.20001220703</ele>
        <time>2022-01-02T13:28:38.000Z</time>
      </trkpt>
      <trkpt lat="45.63443" lon="6.3529">
        <ele>324</ele>
        <time>2022-01-02T13:28:46.000Z</time>
      </trkpt>
      <trkpt lat="45.63448" lon="6.35296">
        <ele>324</ele>
        <time>2022-01-02T13:28:47.000Z</time>
      </trkpt>
      <trkpt lat="45.63462" lon="6.35316">
        <ele>323.79998779297</ele>
        <time>2022-01-02T13:28:50.000Z</time>
      </trkpt>
      <trkpt lat="45.63476" lon="6.35335">
        <ele>323.79998779297</ele>
        <time>2022-01-02T13:28:53.000Z</time>
      </trkpt>
      <trkpt lat="45.63516" lon="6.35391">
        <ele>323.79998779297</ele>
        <time>2022-01-02T13:29:02.000Z</time>
      </trkpt>
      <trkpt lat="45.63526" lon="6.35405">
        <ele>323.79998779297</ele>
        <time>2022-01-02T13:29:04.000Z</time>
      </trkpt>
      <trkpt lat="45.63538" lon="6.35427">
        <ele>324</ele>
        <time>2022-01-02T13:29:07.000Z</time>
      </trkpt>
      <trkpt lat="45.63546" lon="6.35438">
        <ele>324</ele>
        <time>2022-01-02T13:29:09.000Z</time>
      </trkpt>
      <trkpt lat="45.63576" lon="6.35474">
        <ele>324</ele>
        <time>2022-01-02T13:29:15.000Z</time>
      </trkpt>
      <trkpt lat="45.63616" lon="6.35532">
        <ele>324.20001220703</ele>
        <time>2022-01-02T13:29:24.000Z</time>
      </trkpt>
      <trkpt lat="45.63621" lon="6.35538">
        <ele>324.20001220703</ele>
        <time>2022-01-02T13:29:25.000Z</time>
      </trkpt>
      <trkpt lat="45.63661" lon="6.35595">
        <ele>324.20001220703</ele>
        <time>2022-01-02T13:29:34.000Z</time>
      </trkpt>
      <trkpt lat="45.63664" lon="6.356">
        <ele>324.20001220703</ele>
        <time>2022-01-02T13:29:35.000Z</time>
      </trkpt>
      <trkpt lat="45.63704" lon="6.35658">
        <ele>324.39999389648</ele>
        <time>2022-01-02T13:29:44.000Z</time>
      </trkpt>
      <trkpt lat="45.63739" lon="6.35707">
        <ele>324.60000610352</ele>
        <time>2022-01-02T13:29:52.000Z</time>
      </trkpt>
      <trkpt lat="45.6377" lon="6.3575">
        <ele>325</ele>
        <time>2022-01-02T13:29:59.000Z</time>
      </trkpt>
      <trkpt lat="45.63809" lon="6.35806">
        <ele>325.20001220703</ele>
        <time>2022-01-02T13:30:08.000Z</time>
      </trkpt>
      <trkpt lat="45.63817" lon="6.35817">
        <ele>325.39999389648</ele>
        <time>2022-01-02T13:30:10.000Z</time>
      </trkpt>
      <trkpt lat="45.63834" lon="6.35843">
        <ele>325.39999389648</ele>
        <time>2022-01-02T13:30:14.000Z</time>
      </trkpt>
      <trkpt lat="45.63858" lon="6.35878">
        <ele>325.39999389648</ele>
        <time>2022-01-02T13:30:20.000Z</time>
      </trkpt>
      <trkpt lat="45.63897" lon="6.35933">
        <ele>325.60000610352</ele>
        <time>2022-01-02T13:30:29.000Z</time>
      </trkpt>
      <trkpt lat="45.63934" lon="6.35986">
        <ele>326</ele>
        <time>2022-01-02T13:30:38.000Z</time>
      </trkpt>
      <trkpt lat="45.63962" lon="6.36028">
        <ele>326.20001220703</ele>
        <time>2022-01-02T13:30:45.000Z</time>
      </trkpt>
      <trkpt lat="45.63995" lon="6.36075">
        <ele>326.20001220703</ele>
        <time>2022-01-02T13:30:53.000Z</time>
      </trkpt>
      <trkpt lat="45.64024" lon="6.36119">
        <ele>326.20001220703</ele>
        <time>2022-01-02T13:31:00.000Z</time>
      </trkpt>
      <trkpt lat="45.64053" lon="6.36161">
        <ele>326.39999389648</ele>
        <time>2022-01-02T13:31:07.000Z</time>
      </trkpt>
      <trkpt lat="45.64093" lon="6.36222">
        <ele>326.39999389648</ele>
        <time>2022-01-02T13:31:17.000Z</time>
      </trkpt>
      <trkpt lat="45.64132" lon="6.36284">
        <ele>326.60000610352</ele>
        <time>2022-01-02T13:31:27.000Z</time>
      </trkpt>
      <trkpt lat="45.64144" lon="6.36303">
        <ele>326.60000610352</ele>
        <time>2022-01-02T13:31:30.000Z</time>
      </trkpt>
      <trkpt lat="45.64183" lon="6.36366">
        <ele>326.79998779297</ele>
        <time>2022-01-02T13:31:40.000Z</time>
      </trkpt>
      <trkpt lat="45.64222" lon="6.36429">
        <ele>326.79998779297</ele>
        <time>2022-01-02T13:31:50.000Z</time>
      </trkpt>
      <trkpt lat="45.64237" lon="6.36453">
        <ele>327</ele>
        <time>2022-01-02T13:31:54.000Z</time>
      </trkpt>
      <trkpt lat="45.64241" lon="6.36468">
        <ele>327.39999389648</ele>
        <time>2022-01-02T13:31:56.000Z</time>
      </trkpt>
      <trkpt lat="45.64244" lon="6.36474">
        <ele>327.39999389648</ele>
        <time>2022-01-02T13:31:57.000Z</time>
      </trkpt>
      <trkpt lat="45.64252" lon="6.36487">
        <ele>327.60000610352</ele>
        <time>2022-01-02T13:31:59.000Z</time>
      </trkpt>
      <trkpt lat="45.64256" lon="6.36491">
        <ele>327.60000610352</ele>
        <time>2022-01-02T13:32:00.000Z</time>
      </trkpt>
      <trkpt lat="45.64261" lon="6.36496">
        <ele>327.60000610352</ele>
        <time>2022-01-02T13:32:01.000Z</time>
      </trkpt>
      <trkpt lat="45.64275" lon="6.36521">
        <ele>327.60000610352</ele>
        <time>2022-01-02T13:32:05.000Z</time>
      </trkpt>
      <trkpt lat="45.64311" lon="6.36582">
        <ele>327.60000610352</ele>
        <time>2022-01-02T13:32:15.000Z</time>
      </trkpt>
      <trkpt lat="45.6434" lon="6.36634">
        <ele>327.79998779297</ele>
        <time>2022-01-02T13:32:23.000Z</time>
      </trkpt>
      <trkpt lat="45.64347" lon="6.36646">
        <ele>327.79998779297</ele>
        <time>2022-01-02T13:32:25.000Z</time>
      </trkpt>
      <trkpt lat="45.6438" lon="6.36707">
        <ele>328.20001220703</ele>
        <time>2022-01-02T13:32:34.000Z</time>
      </trkpt>
      <trkpt lat="45.64406" lon="6.36754">
        <ele>328.60000610352</ele>
        <time>2022-01-02T13:32:41.000Z</time>
      </trkpt>
      <trkpt lat="45.64442" lon="6.36819">
        <ele>329</ele>
        <time>2022-01-02T13:32:51.000Z</time>
      </trkpt>
      <trkpt lat="45.64445" lon="6.36824">
        <ele>329</ele>
        <time>2022-01-02T13:32:52.000Z</time>
      </trkpt>
      <trkpt lat="45.6447" lon="6.36871">
        <ele>329</ele>
        <time>2022-01-02T13:32:59.000Z</time>
      </trkpt>
      <trkpt lat="45.64474" lon="6.36877">
        <ele>329.20001220703</ele>
        <time>2022-01-02T13:33:00.000Z</time>
      </trkpt>
      <trkpt lat="45.64512" lon="6.36939">
        <ele>329.39999389648</ele>
        <time>2022-01-02T13:33:10.000Z</time>
      </trkpt>
      <trkpt lat="45.6455" lon="6.37001">
        <ele>329.79998779297</ele>
        <time>2022-01-02T13:33:20.000Z</time>
      </trkpt>
      <trkpt lat="45.64558" lon="6.37014">
        <ele>329.79998779297</ele>
        <time>2022-01-02T13:33:22.000Z</time>
      </trkpt>
      <trkpt lat="45.64596" lon="6.37075">
        <ele>330</ele>
        <time>2022-01-02T13:33:32.000Z</time>
      </trkpt>
      <trkpt lat="45.64608" lon="6.37093">
        <ele>330</ele>
        <time>2022-01-02T13:33:35.000Z</time>
      </trkpt>
      <trkpt lat="45.64615" lon="6.37106">
        <ele>330.20001220703</ele>
        <time>2022-01-02T13:33:37.000Z</time>
      </trkpt>
      <trkpt lat="45.64654" lon="6.37168">
        <ele>330.39999389648</ele>
        <time>2022-01-02T13:33:47.000Z</time>
      </trkpt>
      <trkpt lat="45.64661" lon="6.3718">
        <ele>330.39999389648</ele>
        <time>2022-01-02T13:33:49.000Z</time>
      </trkpt>
      <trkpt lat="45.6469" lon="6.37221">
        <ele>330.60000610352</ele>
        <time>2022-01-02T13:33:56.000Z</time>
      </trkpt>
      <trkpt lat="45.64698" lon="6.37232">
        <ele>330.79998779297</ele>
        <time>2022-01-02T13:33:58.000Z</time>
      </trkpt>
      <trkpt lat="45.64737" lon="6.37281">
        <ele>331</ele>
        <time>2022-01-02T13:34:07.000Z</time>
      </trkpt>
      <trkpt lat="45.64771" lon="6.37325">
        <ele>331.39999389648</ele>
        <time>2022-01-02T13:34:15.000Z</time>
      </trkpt>
      <trkpt lat="45.64784" lon="6.37342">
        <ele>331.60000610352</ele>
        <time>2022-01-02T13:34:18.000Z</time>
      </trkpt>
      <trkpt lat="45.64824" lon="6.37402">
        <ele>331.79998779297</ele>
        <time>2022-01-02T13:34:28.000Z</time>
      </trkpt>
      <trkpt lat="45.64828" lon="6.37408">
        <ele>331.79998779297</ele>
        <time>2022-01-02T13:34:29.000Z</time>
      </trkpt>
      <trkpt lat="45.64872" lon="6.37465">
        <ele>332</ele>
        <time>2022-01-02T13:34:39.000Z</time>
      </trkpt>
      <trkpt lat="45.64913" lon="6.3752">
        <ele>332.39999389648</ele>
        <time>2022-01-02T13:34:49.000Z</time>
      </trkpt>
      <trkpt lat="45.64947" lon="6.37562">
        <ele>332.39999389648</ele>
        <time>2022-01-02T13:34:57.000Z</time>
      </trkpt>
      <trkpt lat="45.64958" lon="6.37567">
        <ele>332.60000610352</ele>
        <time>2022-01-02T13:34:59.000Z</time>
      </trkpt>
      <trkpt lat="45.64968" lon="6.3757">
        <ele>332.60000610352</ele>
        <time>2022-01-02T13:35:01.000Z</time>
      </trkpt>
      <trkpt lat="45.64978" lon="6.37578">
        <ele>332.60000610352</ele>
        <time>2022-01-02T13:35:03.000Z</time>
      </trkpt>
      <trkpt lat="45.64982" lon="6.37583">
        <ele>332.60000610352</ele>
        <time>2022-01-02T13:35:04.000Z</time>
      </trkpt>
      <trkpt lat="45.64985" lon="6.3759">
        <ele>332.60000610352</ele>
        <time>2022-01-02T13:35:05.000Z</time>
      </trkpt>
      <trkpt lat="45.64989" lon="6.37604">
        <ele>332.60000610352</ele>
        <time>2022-01-02T13:35:07.000Z</time>
      </trkpt>
      <trkpt lat="45.64991" lon="6.37612">
        <ele>332.79998779297</ele>
        <time>2022-01-02T13:35:08.000Z</time>
      </trkpt>
      <trkpt lat="45.64993" lon="6.3762">
        <ele>332.79998779297</ele>
        <time>2022-01-02T13:35:09.000Z</time>
      </trkpt>
      <trkpt lat="45.64999" lon="6.37634">
        <ele>332.79998779297</ele>
        <time>2022-01-02T13:35:11.000Z</time>
      </trkpt>
      <trkpt lat="45.65003" lon="6.3764">
        <ele>332.79998779297</ele>
        <time>2022-01-02T13:35:12.000Z</time>
      </trkpt>
      <trkpt lat="45.65019" lon="6.37663">
        <ele>332.79998779297</ele>
        <time>2022-01-02T13:35:16.000Z</time>
      </trkpt>
      <trkpt lat="45.65024" lon="6.37668">
        <ele>332.79998779297</ele>
        <time>2022-01-02T13:35:17.000Z</time>
      </trkpt>
      <trkpt lat="45.65056" lon="6.37711">
        <ele>333.20001220703</ele>
        <time>2022-01-02T13:35:25.000Z</time>
      </trkpt>
      <trkpt lat="45.65096" lon="6.37765">
        <ele>333.39999389648</ele>
        <time>2022-01-02T13:35:35.000Z</time>
      </trkpt>
      <trkpt lat="45.651" lon="6.37771">
        <ele>333.60000610352</ele>
        <time>2022-01-02T13:35:36.000Z</time>
      </trkpt>
      <trkpt lat="45.65134" lon="6.37815">
        <ele>333.60000610352</ele>
        <time>2022-01-02T13:35:44.000Z</time>
      </trkpt>
      <trkpt lat="45.65158" lon="6.37848">
        <ele>333.60000610352</ele>
        <time>2022-01-02T13:35:50.000Z</time>
      </trkpt>
      <trkpt lat="45.65166" lon="6.37859">
        <ele>333.79998779297</ele>
        <time>2022-01-02T13:35:52.000Z</time>
      </trkpt>
      <trkpt lat="45.65206" lon="6.37913">
        <ele>334.20001220703</ele>
        <time>2022-01-02T13:36:02.000Z</time>
      </trkpt>
      <trkpt lat="45.65219" lon="6.37929">
        <ele>334.39999389648</ele>
        <time>2022-01-02T13:36:05.000Z</time>
      </trkpt>
      <trkpt lat="45.65251" lon="6.37973">
        <ele>334.60000610352</ele>
        <time>2022-01-02T13:36:13.000Z</time>
      </trkpt>
      <trkpt lat="45.65267" lon="6.37995">
        <ele>334.60000610352</ele>
        <time>2022-01-02T13:36:17.000Z</time>
      </trkpt>
      <trkpt lat="45.65291" lon="6.38027">
        <ele>334.79998779297</ele>
        <time>2022-01-02T13:36:23.000Z</time>
      </trkpt>
      <trkpt lat="45.65323" lon="6.38071">
        <ele>335</ele>
        <time>2022-01-02T13:36:31.000Z</time>
      </trkpt>
      <trkpt lat="45.6534" lon="6.38092">
        <ele>335</ele>
        <time>2022-01-02T13:36:35.000Z</time>
      </trkpt>
      <trkpt lat="45.65352" lon="6.38109">
        <ele>335.20001220703</ele>
        <time>2022-01-02T13:36:38.000Z</time>
      </trkpt>
      <trkpt lat="45.65389" lon="6.38157">
        <ele>335.39999389648</ele>
        <time>2022-01-02T13:36:47.000Z</time>
      </trkpt>
      <trkpt lat="45.65423" lon="6.38203">
        <ele>335.60000610352</ele>
        <time>2022-01-02T13:36:55.000Z</time>
      </trkpt>
      <trkpt lat="45.6544" lon="6.38225">
        <ele>335.79998779297</ele>
        <time>2022-01-02T13:36:59.000Z</time>
      </trkpt>
      <trkpt lat="45.65464" lon="6.38259">
        <ele>336</ele>
        <time>2022-01-02T13:37:05.000Z</time>
      </trkpt>
      <trkpt lat="45.65488" lon="6.38291">
        <ele>336.20001220703</ele>
        <time>2022-01-02T13:37:11.000Z</time>
      </trkpt>
      <trkpt lat="45.65496" lon="6.383">
        <ele>336.20001220703</ele>
        <time>2022-01-02T13:37:13.000Z</time>
      </trkpt>
      <trkpt lat="45.65509" lon="6.38314">
        <ele>336.39999389648</ele>
        <time>2022-01-02T13:37:16.000Z</time>
      </trkpt>
      <trkpt lat="45.65517" lon="6.38323">
        <ele>336.39999389648</ele>
        <time>2022-01-02T13:37:18.000Z</time>
      </trkpt>
      <trkpt lat="45.65529" lon="6.38338">
        <ele>336.60000610352</ele>
        <time>2022-01-02T13:37:21.000Z</time>
      </trkpt>
      <trkpt lat="45.65541" lon="6.38353">
        <ele>336.79998779297</ele>
        <time>2022-01-02T13:37:24.000Z</time>
      </trkpt>
      <trkpt lat="45.65568" lon="6.38383">
        <ele>337.20001220703</ele>
        <time>2022-01-02T13:37:30.000Z</time>
      </trkpt>
      <trkpt lat="45.65574" lon="6.38388">
        <ele>337.20001220703</ele>
        <time>2022-01-02T13:37:31.000Z</time>
      </trkpt>
      <trkpt lat="45.65579" lon="6.38393">
        <ele>337.20001220703</ele>
        <time>2022-01-02T13:37:32.000Z</time>
      </trkpt>
      <trkpt lat="45.65586" lon="6.38403">
        <ele>337.39999389648</ele>
        <time>2022-01-02T13:37:34.000Z</time>
      </trkpt>
      <trkpt lat="45.65591" lon="6.38408">
        <ele>337.39999389648</ele>
        <time>2022-01-02T13:37:35.000Z</time>
      </trkpt>
      <trkpt lat="45.65613" lon="6.38433">
        <ele>337.60000610352</ele>
        <time>2022-01-02T13:37:40.000Z</time>
      </trkpt>
      <trkpt lat="45.65622" lon="6.38447">
        <ele>337.60000610352</ele>
        <time>2022-01-02T13:37:43.000Z</time>
      </trkpt>
      <trkpt lat="45.65633" lon="6.38461">
        <ele>337.79998779297</ele>
        <time>2022-01-02T13:37:46.000Z</time>
      </trkpt>
      <trkpt lat="45.6564" lon="6.3847">
        <ele>337.79998779297</ele>
        <time>2022-01-02T13:37:48.000Z</time>
      </trkpt>
      <trkpt lat="45.65648" lon="6.38477">
        <ele>338</ele>
        <time>2022-01-02T13:37:50.000Z</time>
      </trkpt>
      <trkpt lat="45.65672" lon="6.38499">
        <ele>338.39999389648</ele>
        <time>2022-01-02T13:37:56.000Z</time>
      </trkpt>
      <trkpt lat="45.65675" lon="6.385">
        <ele>338.39999389648</ele>
        <time>2022-01-02T13:37:57.000Z</time>
      </trkpt>
      <trkpt lat="45.65681" lon="6.38497">
        <ele>338.60000610352</ele>
        <time>2022-01-02T13:37:59.000Z</time>
      </trkpt>
      <trkpt lat="45.65684" lon="6.38492">
        <ele>338.60000610352</ele>
        <time>2022-01-02T13:38:00.000Z</time>
      </trkpt>
      <trkpt lat="45.65685" lon="6.38488">
        <ele>338.60000610352</ele>
        <time>2022-01-02T13:38:01.000Z</time>
      </trkpt>
      <trkpt lat="45.65685" lon="6.38479">
        <ele>338.60000610352</ele>
        <time>2022-01-02T13:38:03.000Z</time>
      </trkpt>
      <trkpt lat="45.65684" lon="6.38469">
        <ele>338.20001220703</ele>
        <time>2022-01-02T13:38:07.000Z</time>
      </trkpt>
      <trkpt lat="45.65684" lon="6.38469">
        <ele>337.60000610352</ele>
        <time>2022-01-02T13:38:12.000Z</time>
      </trkpt>
      <trkpt lat="45.65684" lon="6.38469">
        <ele>337.39999389648</ele>
        <time>2022-01-02T13:38:53.000Z</time>
      </trkpt>
      <trkpt lat="45.65682" lon="6.38458">
        <ele>337</ele>
        <time>2022-01-02T13:40:35.000Z</time>
      </trkpt>
      <trkpt lat="45.65677" lon="6.38429">
        <ele>336.79998779297</ele>
        <time>2022-01-02T13:40:40.000Z</time>
      </trkpt>
      <trkpt lat="45.65671" lon="6.38405">
        <ele>336.79998779297</ele>
        <time>2022-01-02T13:40:44.000Z</time>
      </trkpt>
      <trkpt lat="45.65667" lon="6.38387">
        <ele>336.79998779297</ele>
        <time>2022-01-02T13:40:46.000Z</time>
      </trkpt>
      <trkpt lat="45.65662" lon="6.38354">
        <ele>336.60000610352</ele>
        <time>2022-01-02T13:40:50.000Z</time>
      </trkpt>
      <trkpt lat="45.65658" lon="6.38329">
        <ele>336.60000610352</ele>
        <time>2022-01-02T13:40:54.000Z</time>
      </trkpt>
      <trkpt lat="45.65645" lon="6.3825">
        <ele>336.39999389648</ele>
        <time>2022-01-02T13:41:03.000Z</time>
      </trkpt>
      <trkpt lat="45.65642" lon="6.38232">
        <ele>336.39999389648</ele>
        <time>2022-01-02T13:41:05.000Z</time>
      </trkpt>
      <trkpt lat="45.65635" lon="6.38177">
        <ele>336.39999389648</ele>
        <time>2022-01-02T13:41:12.000Z</time>
      </trkpt>
      <trkpt lat="45.65626" lon="6.3812">
        <ele>336.20001220703</ele>
        <time>2022-01-02T13:41:19.000Z</time>
      </trkpt>
      <trkpt lat="45.65622" lon="6.38098">
        <ele>336</ele>
        <time>2022-01-02T13:41:22.000Z</time>
      </trkpt>
      <trkpt lat="45.65617" lon="6.38067">
        <ele>336</ele>
        <time>2022-01-02T13:41:26.000Z</time>
      </trkpt>
      <trkpt lat="45.65607" lon="6.38002">
        <ele>335.79998779297</ele>
        <time>2022-01-02T13:41:34.000Z</time>
      </trkpt>
      <trkpt lat="45.65606" lon="6.37994">
        <ele>335.60000610352</ele>
        <time>2022-01-02T13:41:35.000Z</time>
      </trkpt>
      <trkpt lat="45.65593" lon="6.37913">
        <ele>335.60000610352</ele>
        <time>2022-01-02T13:41:45.000Z</time>
      </trkpt>
      <trkpt lat="45.6559" lon="6.37897">
        <ele>335.39999389648</ele>
        <time>2022-01-02T13:41:47.000Z</time>
      </trkpt>
      <trkpt lat="45.65579" lon="6.37823">
        <ele>335.20001220703</ele>
        <time>2022-01-02T13:41:56.000Z</time>
      </trkpt>
      <trkpt lat="45.65567" lon="6.37748">
        <ele>335</ele>
        <time>2022-01-02T13:42:05.000Z</time>
      </trkpt>
      <trkpt lat="45.65554" lon="6.37674">
        <ele>334.79998779297</ele>
        <time>2022-01-02T13:42:14.000Z</time>
      </trkpt>
      <trkpt lat="45.6555" lon="6.3765">
        <ele>334.79998779297</ele>
        <time>2022-01-02T13:42:17.000Z</time>
      </trkpt>
      <trkpt lat="45.65542" lon="6.376">
        <ele>334.60000610352</ele>
        <time>2022-01-02T13:42:23.000Z</time>
      </trkpt>
      <trkpt lat="45.65533" lon="6.37543">
        <ele>334.39999389648</ele>
        <time>2022-01-02T13:42:30.000Z</time>
      </trkpt>
      <trkpt lat="45.65523" lon="6.37468">
        <ele>334.39999389648</ele>
        <time>2022-01-02T13:42:39.000Z</time>
      </trkpt>
      <trkpt lat="45.65514" lon="6.37411">
        <ele>334.20001220703</ele>
        <time>2022-01-02T13:42:46.000Z</time>
      </trkpt>
      <trkpt lat="45.65506" lon="6.37361">
        <ele>334</ele>
        <time>2022-01-02T13:42:52.000Z</time>
      </trkpt>
      <trkpt lat="45.65505" lon="6.37353">
        <ele>334</ele>
        <time>2022-01-02T13:42:53.000Z</time>
      </trkpt>
      <trkpt lat="45.65495" lon="6.37294">
        <ele>333.60000610352</ele>
        <time>2022-01-02T13:43:00.000Z</time>
      </trkpt>
      <trkpt lat="45.65494" lon="6.37277">
        <ele>333.60000610352</ele>
        <time>2022-01-02T13:43:02.000Z</time>
      </trkpt>
      <trkpt lat="45.65491" lon="6.37251">
        <ele>333.39999389648</ele>
        <time>2022-01-02T13:43:05.000Z</time>
      </trkpt>
      <trkpt lat="45.65478" lon="6.37175">
        <ele>333.39999389648</ele>
        <time>2022-01-02T13:43:14.000Z</time>
      </trkpt>
      <trkpt lat="45.65477" lon="6.37167">
        <ele>333.39999389648</ele>
        <time>2022-01-02T13:43:15.000Z</time>
      </trkpt>
      <trkpt lat="45.65464" lon="6.37089">
        <ele>333.60000610352</ele>
        <time>2022-01-02T13:43:24.000Z</time>
      </trkpt>
      <trkpt lat="45.65454" lon="6.37028">
        <ele>333</ele>
        <time>2022-01-02T13:43:31.000Z</time>
      </trkpt>
      <trkpt lat="45.65442" lon="6.3695">
        <ele>333</ele>
        <time>2022-01-02T13:43:40.000Z</time>
      </trkpt>
      <trkpt lat="45.65442" lon="6.3695">
        <ele>333</ele>
        <time>2022-01-02T13:43:41.000Z</time>
      </trkpt>
      <trkpt lat="45.65429" lon="6.36873">
        <ele>332.79998779297</ele>
        <time>2022-01-02T13:43:49.000Z</time>
      </trkpt>
      <trkpt lat="45.65428" lon="6.36865">
        <ele>332.79998779297</ele>
        <time>2022-01-02T13:43:50.000Z</time>
      </trkpt>
      <trkpt lat="45.65416" lon="6.36789">
        <ele>332.39999389648</ele>
        <time>2022-01-02T13:43:59.000Z</time>
      </trkpt>
      <trkpt lat="45.65406" lon="6.36722">
        <ele>332.20001220703</ele>
        <time>2022-01-02T13:44:07.000Z</time>
      </trkpt>
      <trkpt lat="45.65394" lon="6.36645">
        <ele>332</ele>
        <time>2022-01-02T13:44:16.000Z</time>
      </trkpt>
      <trkpt lat="45.65392" lon="6.36636">
        <ele>332</ele>
        <time>2022-01-02T13:44:17.000Z</time>
      </trkpt>
      <trkpt lat="45.6538" lon="6.36559">
        <ele>332</ele>
        <time>2022-01-02T13:44:26.000Z</time>
      </trkpt>
      <trkpt lat="45.65378" lon="6.36544">
        <ele>331.79998779297</ele>
        <time>2022-01-02T13:44:28.000Z</time>
      </trkpt>
      <trkpt lat="45.65368" lon="6.36483">
        <ele>331.79998779297</ele>
        <time>2022-01-02T13:44:35.000Z</time>
      </trkpt>
      <trkpt lat="45.65355" lon="6.36408">
        <ele>331.39999389648</ele>
        <time>2022-01-02T13:44:44.000Z</time>
      </trkpt>
      <trkpt lat="45.65353" lon="6.364">
        <ele>331.39999389648</ele>
        <time>2022-01-02T13:44:45.000Z</time>
      </trkpt>
      <trkpt lat="45.65343" lon="6.36343">
        <ele>331.39999389648</ele>
        <time>2022-01-02T13:44:52.000Z</time>
      </trkpt>
      <trkpt lat="45.6533" lon="6.36268">
        <ele>331.20001220703</ele>
        <time>2022-01-02T13:45:01.000Z</time>
      </trkpt>
      <trkpt lat="45.65329" lon="6.36261">
        <ele>331.20001220703</ele>
        <time>2022-01-02T13:45:02.000Z</time>
      </trkpt>
      <trkpt lat="45.65328" lon="6.36253">
        <ele>331.20001220703</ele>
        <time>2022-01-02T13:45:03.000Z</time>
      </trkpt>
      <trkpt lat="45.65311" lon="6.36177">
        <ele>331</ele>
        <time>2022-01-02T13:45:12.000Z</time>
      </trkpt>
      <trkpt lat="45.65305" lon="6.36153">
        <ele>330.79998779297</ele>
        <time>2022-01-02T13:45:15.000Z</time>
      </trkpt>
      <trkpt lat="45.65285" lon="6.36073">
        <ele>330.79998779297</ele>
        <time>2022-01-02T13:45:25.000Z</time>
      </trkpt>
      <trkpt lat="45.6528" lon="6.3605">
        <ele>330.79998779297</ele>
        <time>2022-01-02T13:45:28.000Z</time>
      </trkpt>
      <trkpt lat="45.6527" lon="6.36012">
        <ele>330.60000610352</ele>
        <time>2022-01-02T13:45:33.000Z</time>
      </trkpt>
      <trkpt lat="45.65267" lon="6.36005">
        <ele>330.60000610352</ele>
        <time>2022-01-02T13:45:34.000Z</time>
      </trkpt>
      <trkpt lat="45.65262" lon="6.35984">
        <ele>330.60000610352</ele>
        <time>2022-01-02T13:45:37.000Z</time>
      </trkpt>
      <trkpt lat="45.65251" lon="6.35937">
        <ele>330.39999389648</ele>
        <time>2022-01-02T13:45:43.000Z</time>
      </trkpt>
      <trkpt lat="45.65248" lon="6.3593">
        <ele>330.39999389648</ele>
        <time>2022-01-02T13:45:44.000Z</time>
      </trkpt>
      <trkpt lat="45.65246" lon="6.35922">
        <ele>330.39999389648</ele>
        <time>2022-01-02T13:45:45.000Z</time>
      </trkpt>
      <trkpt lat="45.65239" lon="6.35899">
        <ele>330.20001220703</ele>
        <time>2022-01-02T13:45:48.000Z</time>
      </trkpt>
      <trkpt lat="45.65229" lon="6.35861">
        <ele>330</ele>
        <time>2022-01-02T13:45:53.000Z</time>
      </trkpt>
      <trkpt lat="45.65213" lon="6.358">
        <ele>329.79998779297</ele>
        <time>2022-01-02T13:46:01.000Z</time>
      </trkpt>
      <trkpt lat="45.65211" lon="6.35794">
        <ele>329.79998779297</ele>
        <time>2022-01-02T13:46:02.000Z</time>
      </trkpt>
      <trkpt lat="45.65208" lon="6.35781">
        <ele>329.79998779297</ele>
        <time>2022-01-02T13:46:05.000Z</time>
      </trkpt>
      <trkpt lat="45.65206" lon="6.35768">
        <ele>329.79998779297</ele>
        <time>2022-01-02T13:46:06.000Z</time>
      </trkpt>
      <trkpt lat="45.65204" lon="6.35744">
        <ele>330</ele>
        <time>2022-01-02T13:46:09.000Z</time>
      </trkpt>
      <trkpt lat="45.65201" lon="6.35729">
        <ele>329.79998779297</ele>
        <time>2022-01-02T13:46:11.000Z</time>
      </trkpt>
      <trkpt lat="45.65194" lon="6.35708">
        <ele>329.39999389648</ele>
        <time>2022-01-02T13:46:14.000Z</time>
      </trkpt>
      <trkpt lat="45.65192" lon="6.35702">
        <ele>329.39999389648</ele>
        <time>2022-01-02T13:46:15.000Z</time>
      </trkpt>
      <trkpt lat="45.65182" lon="6.35684">
        <ele>329.20001220703</ele>
        <time>2022-01-02T13:46:19.000Z</time>
      </trkpt>
      <trkpt lat="45.65175" lon="6.3566">
        <ele>330.20001220703</ele>
        <time>2022-01-02T13:46:23.000Z</time>
      </trkpt>
      <trkpt lat="45.65175" lon="6.3566">
        <ele>330.60000610352</ele>
        <time>2022-01-02T13:46:24.000Z</time>
      </trkpt>
      <trkpt lat="45.65171" lon="6.35645">
        <ele>330.79998779297</ele>
        <time>2022-01-02T13:46:25.000Z</time>
      </trkpt>
      <trkpt lat="45.65161" lon="6.35605">
        <ele>330.79998779297</ele>
        <time>2022-01-02T13:46:30.000Z</time>
      </trkpt>
      <trkpt lat="45.65141" lon="6.35531">
        <ele>329.79998779297</ele>
        <time>2022-01-02T13:46:39.000Z</time>
      </trkpt>
      <trkpt lat="45.65137" lon="6.35515">
        <ele>329.60000610352</ele>
        <time>2022-01-02T13:46:41.000Z</time>
      </trkpt>
      <trkpt lat="45.65124" lon="6.35468">
        <ele>329.60000610352</ele>
        <time>2022-01-02T13:46:47.000Z</time>
      </trkpt>
      <trkpt lat="45.65104" lon="6.35389">
        <ele>329.20001220703</ele>
        <time>2022-01-02T13:46:57.000Z</time>
      </trkpt>
      <trkpt lat="45.65084" lon="6.35318">
        <ele>329.20001220703</ele>
        <time>2022-01-02T13:47:06.000Z</time>
      </trkpt>
      <trkpt lat="45.65064" lon="6.35247">
        <ele>329</ele>
        <time>2022-01-02T13:47:15.000Z</time>
      </trkpt>
      <trkpt lat="45.65046" lon="6.35174">
        <ele>328.60000610352</ele>
        <time>2022-01-02T13:47:24.000Z</time>
      </trkpt>
      <trkpt lat="45.65044" lon="6.35166">
        <ele>328.60000610352</ele>
        <time>2022-01-02T13:47:25.000Z</time>
      </trkpt>
      <trkpt lat="45.65029" lon="6.35111">
        <ele>328.20001220703</ele>
        <time>2022-01-02T13:47:32.000Z</time>
      </trkpt>
      <trkpt lat="45.65015" lon="6.35063">
        <ele>328.20001220703</ele>
        <time>2022-01-02T13:47:38.000Z</time>
      </trkpt>
      <trkpt lat="45.64999" lon="6.34997">
        <ele>328</ele>
        <time>2022-01-02T13:47:46.000Z</time>
      </trkpt>
      <trkpt lat="45.64979" lon="6.34917">
        <ele>327.79998779297</ele>
        <time>2022-01-02T13:47:56.000Z</time>
      </trkpt>
      <trkpt lat="45.64977" lon="6.34909">
        <ele>327.79998779297</ele>
        <time>2022-01-02T13:47:57.000Z</time>
      </trkpt>
      <trkpt lat="45.6496" lon="6.34845">
        <ele>327.60000610352</ele>
        <time>2022-01-02T13:48:05.000Z</time>
      </trkpt>
      <trkpt lat="45.64954" lon="6.34821">
        <ele>327.60000610352</ele>
        <time>2022-01-02T13:48:08.000Z</time>
      </trkpt>
      <trkpt lat="45.64933" lon="6.34751">
        <ele>327.60000610352</ele>
        <time>2022-01-02T13:48:17.000Z</time>
      </trkpt>
      <trkpt lat="45.64913" lon="6.34672">
        <ele>327.39999389648</ele>
        <time>2022-01-02T13:48:27.000Z</time>
      </trkpt>
      <trkpt lat="45.64911" lon="6.34664">
        <ele>327.20001220703</ele>
        <time>2022-01-02T13:48:28.000Z</time>
      </trkpt>
      <trkpt lat="45.6489" lon="6.34585">
        <ele>327</ele>
        <time>2022-01-02T13:48:38.000Z</time>
      </trkpt>
      <trkpt lat="45.64874" lon="6.34522">
        <ele>327</ele>
        <time>2022-01-02T13:48:46.000Z</time>
      </trkpt>
      <trkpt lat="45.64856" lon="6.34457">
        <ele>327</ele>
        <time>2022-01-02T13:48:54.000Z</time>
      </trkpt>
      <trkpt lat="45.64835" lon="6.34376">
        <ele>326.60000610352</ele>
        <time>2022-01-02T13:49:04.000Z</time>
      </trkpt>
      <trkpt lat="45.64817" lon="6.34302">
        <ele>326.39999389648</ele>
        <time>2022-01-02T13:49:13.000Z</time>
      </trkpt>
      <trkpt lat="45.64815" lon="6.34294">
        <ele>326.39999389648</ele>
        <time>2022-01-02T13:49:14.000Z</time>
      </trkpt>
      <trkpt lat="45.64798" lon="6.34229">
        <ele>326.39999389648</ele>
        <time>2022-01-02T13:49:22.000Z</time>
      </trkpt>
      <trkpt lat="45.64778" lon="6.34156">
        <ele>326</ele>
        <time>2022-01-02T13:49:31.000Z</time>
      </trkpt>
      <trkpt lat="45.64773" lon="6.34142">
        <ele>326</ele>
        <time>2022-01-02T13:49:33.000Z</time>
      </trkpt>
      <trkpt lat="45.64747" lon="6.34068">
        <ele>326</ele>
        <time>2022-01-02T13:49:43.000Z</time>
      </trkpt>
      <trkpt lat="45.64744" lon="6.34061">
        <ele>325.79998779297</ele>
        <time>2022-01-02T13:49:44.000Z</time>
      </trkpt>
      <trkpt lat="45.64716" lon="6.33993">
        <ele>325.39999389648</ele>
        <time>2022-01-02T13:49:53.000Z</time>
      </trkpt>
      <trkpt lat="45.64705" lon="6.33969">
        <ele>325.20001220703</ele>
        <time>2022-01-02T13:49:56.000Z</time>
      </trkpt>
      <trkpt lat="45.64675" lon="6.33904">
        <ele>324.79998779297</ele>
        <time>2022-01-02T13:50:05.000Z</time>
      </trkpt>
      <trkpt lat="45.64672" lon="6.33897">
        <ele>324.79998779297</ele>
        <time>2022-01-02T13:50:06.000Z</time>
      </trkpt>
      <trkpt lat="45.64668" lon="6.3389">
        <ele>324.79998779297</ele>
        <time>2022-01-02T13:50:07.000Z</time>
      </trkpt>
      <trkpt lat="45.64643" lon="6.3384">
        <ele>325</ele>
        <time>2022-01-02T13:50:14.000Z</time>
      </trkpt>
      <trkpt lat="45.64606" lon="6.33773">
        <ele>325.20001220703</ele>
        <time>2022-01-02T13:50:24.000Z</time>
      </trkpt>
      <trkpt lat="45.6457" lon="6.33716">
        <ele>325.20001220703</ele>
        <time>2022-01-02T13:50:33.000Z</time>
      </trkpt>
      <trkpt lat="45.64565" lon="6.33709">
        <ele>325.20001220703</ele>
        <time>2022-01-02T13:50:34.000Z</time>
      </trkpt>
      <trkpt lat="45.64526" lon="6.33654">
        <ele>325.20001220703</ele>
        <time>2022-01-02T13:50:43.000Z</time>
      </trkpt>
      <trkpt lat="45.64522" lon="6.33648">
        <ele>325</ele>
        <time>2022-01-02T13:50:44.000Z</time>
      </trkpt>
      <trkpt lat="45.64481" lon="6.33594">
        <ele>324.60000610352</ele>
        <time>2022-01-02T13:50:53.000Z</time>
      </trkpt>
      <trkpt lat="45.64446" lon="6.33548">
        <ele>324.39999389648</ele>
        <time>2022-01-02T13:51:01.000Z</time>
      </trkpt>
      <trkpt lat="45.64415" lon="6.3351">
        <ele>324.20001220703</ele>
        <time>2022-01-02T13:51:08.000Z</time>
      </trkpt>
      <trkpt lat="45.64391" lon="6.33482">
        <ele>324</ele>
        <time>2022-01-02T13:51:13.000Z</time>
      </trkpt>
      <trkpt lat="45.64359" lon="6.33444">
        <ele>323.79998779297</ele>
        <time>2022-01-02T13:51:20.000Z</time>
      </trkpt>
      <trkpt lat="45.64355" lon="6.33439">
        <ele>323.79998779297</ele>
        <time>2022-01-02T13:51:21.000Z</time>
      </trkpt>
      <trkpt lat="45.64342" lon="6.3343">
        <ele>323.79998779297</ele>
        <time>2022-01-02T13:51:24.000Z</time>
      </trkpt>
      <trkpt lat="45.64332" lon="6.3343">
        <ele>323.79998779297</ele>
        <time>2022-01-02T13:51:26.000Z</time>
      </trkpt>
      <trkpt lat="45.64326" lon="6.33432">
        <ele>323.79998779297</ele>
        <time>2022-01-02T13:51:27.000Z</time>
      </trkpt>
      <trkpt lat="45.64314" lon="6.33435">
        <ele>323.79998779297</ele>
        <time>2022-01-02T13:51:29.000Z</time>
      </trkpt>
      <trkpt lat="45.64301" lon="6.33434">
        <ele>323.60000610352</ele>
        <time>2022-01-02T13:51:31.000Z</time>
      </trkpt>
      <trkpt lat="45.64271" lon="6.33429">
        <ele>322.79998779297</ele>
        <time>2022-01-02T13:51:36.000Z</time>
      </trkpt>
      <trkpt lat="45.64255" lon="6.33426">
        <ele>322.79998779297</ele>
        <time>2022-01-02T13:51:39.000Z</time>
      </trkpt>
      <trkpt lat="45.64203" lon="6.33417">
        <ele>322.39999389648</ele>
        <time>2022-01-02T13:51:48.000Z</time>
      </trkpt>
      <trkpt lat="45.64161" lon="6.33408">
        <ele>322.20001220703</ele>
        <time>2022-01-02T13:51:55.000Z</time>
      </trkpt>
      <trkpt lat="45.64131" lon="6.33401">
        <ele>321.79998779297</ele>
        <time>2022-01-02T13:52:00.000Z</time>
      </trkpt>
      <trkpt lat="45.64093" lon="6.33394">
        <ele>321.39999389648</ele>
        <time>2022-01-02T13:52:06.000Z</time>
      </trkpt>
      <trkpt lat="45.64034" lon="6.33383">
        <ele>321.20001220703</ele>
        <time>2022-01-02T13:52:16.000Z</time>
      </trkpt>
      <trkpt lat="45.63988" lon="6.33373">
        <ele>321.39999389648</ele>
        <time>2022-01-02T13:52:24.000Z</time>
      </trkpt>
      <trkpt lat="45.63929" lon="6.3336">
        <ele>321.20001220703</ele>
        <time>2022-01-02T13:52:34.000Z</time>
      </trkpt>
      <trkpt lat="45.63871" lon="6.33349">
        <ele>321.20001220703</ele>
        <time>2022-01-02T13:52:44.000Z</time>
      </trkpt>
      <trkpt lat="45.6386" lon="6.33347">
        <ele>321</ele>
        <time>2022-01-02T13:52:46.000Z</time>
      </trkpt>
      <trkpt lat="45.63823" lon="6.33341">
        <ele>320.79998779297</ele>
        <time>2022-01-02T13:52:52.000Z</time>
      </trkpt>
      <trkpt lat="45.63806" lon="6.33338">
        <ele>320.39999389648</ele>
        <time>2022-01-02T13:52:55.000Z</time>
      </trkpt>
      <trkpt lat="45.6375" lon="6.33328">
        <ele>320</ele>
        <time>2022-01-02T13:53:04.000Z</time>
      </trkpt>
      <trkpt lat="45.63695" lon="6.33319">
        <ele>319.79998779297</ele>
        <time>2022-01-02T13:53:13.000Z</time>
      </trkpt>
      <trkpt lat="45.63678" lon="6.33315">
        <ele>319.79998779297</ele>
        <time>2022-01-02T13:53:16.000Z</time>
      </trkpt>
      <trkpt lat="45.63645" lon="6.33307">
        <ele>319.60000610352</ele>
        <time>2022-01-02T13:53:22.000Z</time>
      </trkpt>
      <trkpt lat="45.63587" lon="6.33294">
        <ele>319.79998779297</ele>
        <time>2022-01-02T13:53:32.000Z</time>
      </trkpt>
      <trkpt lat="45.63541" lon="6.33282">
        <ele>319.79998779297</ele>
        <time>2022-01-02T13:53:40.000Z</time>
      </trkpt>
      <trkpt lat="45.63488" lon="6.33264">
        <ele>319.60000610352</ele>
        <time>2022-01-02T13:53:49.000Z</time>
      </trkpt>
      <trkpt lat="45.63482" lon="6.33262">
        <ele>319.60000610352</ele>
        <time>2022-01-02T13:53:50.000Z</time>
      </trkpt>
      <trkpt lat="45.63432" lon="6.33241">
        <ele>319.39999389648</ele>
        <time>2022-01-02T13:53:59.000Z</time>
      </trkpt>
      <trkpt lat="45.63397" lon="6.33226">
        <ele>319.39999389648</ele>
        <time>2022-01-02T13:54:05.000Z</time>
      </trkpt>
      <trkpt lat="45.63347" lon="6.33202">
        <ele>319.39999389648</ele>
        <time>2022-01-02T13:54:14.000Z</time>
      </trkpt>
      <trkpt lat="45.63294" lon="6.33174">
        <ele>319.20001220703</ele>
        <time>2022-01-02T13:54:24.000Z</time>
      </trkpt>
      <trkpt lat="45.63289" lon="6.3317">
        <ele>319.20001220703</ele>
        <time>2022-01-02T13:54:25.000Z</time>
      </trkpt>
      <trkpt lat="45.63251" lon="6.33149">
        <ele>319.20001220703</ele>
        <time>2022-01-02T13:54:32.000Z</time>
      </trkpt>
      <trkpt lat="45.63198" lon="6.33116">
        <ele>319.39999389648</ele>
        <time>2022-01-02T13:54:42.000Z</time>
      </trkpt>
      <trkpt lat="45.63184" lon="6.33106">
        <ele>319.39999389648</ele>
        <time>2022-01-02T13:54:45.000Z</time>
      </trkpt>
      <trkpt lat="45.63136" lon="6.33075">
        <ele>319.20001220703</ele>
        <time>2022-01-02T13:54:54.000Z</time>
      </trkpt>
      <trkpt lat="45.6309" lon="6.33039">
        <ele>319.20001220703</ele>
        <time>2022-01-02T13:55:03.000Z</time>
      </trkpt>
      <trkpt lat="45.63039" lon="6.32995">
        <ele>319.20001220703</ele>
        <time>2022-01-02T13:55:13.000Z</time>
      </trkpt>
      <trkpt lat="45.63035" lon="6.32991">
        <ele>319.20001220703</ele>
        <time>2022-01-02T13:55:14.000Z</time>
      </trkpt>
      <trkpt lat="45.63016" lon="6.32976">
        <ele>319.60000610352</ele>
        <time>2022-01-02T13:55:18.000Z</time>
      </trkpt>
      <trkpt lat="45.6299" lon="6.32951">
        <ele>319.60000610352</ele>
        <time>2022-01-02T13:55:23.000Z</time>
      </trkpt>
      <trkpt lat="45.62948" lon="6.32911">
        <ele>318.79998779297</ele>
        <time>2022-01-02T13:55:31.000Z</time>
      </trkpt>
      <trkpt lat="45.62936" lon="6.329">
        <ele>318.79998779297</ele>
        <time>2022-01-02T13:55:33.000Z</time>
      </trkpt>
      <trkpt lat="45.62902" lon="6.32867">
        <ele>318.39999389648</ele>
        <time>2022-01-02T13:55:40.000Z</time>
      </trkpt>
      <trkpt lat="45.6288" lon="6.32857">
        <ele>318.39999389648</ele>
        <time>2022-01-02T13:55:44.000Z</time>
      </trkpt>
      <trkpt lat="45.62875" lon="6.32855">
        <ele>318.39999389648</ele>
        <time>2022-01-02T13:55:45.000Z</time>
      </trkpt>
      <trkpt lat="45.62858" lon="6.32846">
        <ele>318.39999389648</ele>
        <time>2022-01-02T13:55:48.000Z</time>
      </trkpt>
      <trkpt lat="45.62849" lon="6.32834">
        <ele>318.39999389648</ele>
        <time>2022-01-02T13:55:50.000Z</time>
      </trkpt>
      <trkpt lat="45.6282" lon="6.32775">
        <ele>318.20001220703</ele>
        <time>2022-01-02T13:55:59.000Z</time>
      </trkpt>
      <trkpt lat="45.62798" lon="6.32738">
        <ele>317.79998779297</ele>
        <time>2022-01-02T13:56:05.000Z</time>
      </trkpt>
      <trkpt lat="45.62778" lon="6.3271">
        <ele>317.60000610352</ele>
        <time>2022-01-02T13:56:10.000Z</time>
      </trkpt>
      <trkpt lat="45.62765" lon="6.32695">
        <ele>317.60000610352</ele>
        <time>2022-01-02T13:56:13.000Z</time>
      </trkpt>
      <trkpt lat="45.62726" lon="6.32648">
        <ele>317.39999389648</ele>
        <time>2022-01-02T13:56:22.000Z</time>
      </trkpt>
      <trkpt lat="45.62684" lon="6.32593">
        <ele>317.79998779297</ele>
        <time>2022-01-02T13:56:32.000Z</time>
      </trkpt>
      <trkpt lat="45.62677" lon="6.32583">
        <ele>317.79998779297</ele>
        <time>2022-01-02T13:56:34.000Z</time>
      </trkpt>
      <trkpt lat="45.62638" lon="6.32528">
        <ele>317.60000610352</ele>
        <time>2022-01-02T13:56:43.000Z</time>
      </trkpt>
      <trkpt lat="45.626" lon="6.32472">
        <ele>317.60000610352</ele>
        <time>2022-01-02T13:56:52.000Z</time>
      </trkpt>
      <trkpt lat="45.62597" lon="6.32467">
        <ele>317.60000610352</ele>
        <time>2022-01-02T13:56:53.000Z</time>
      </trkpt>
      <trkpt lat="45.62569" lon="6.3243">
        <ele>317.60000610352</ele>
        <time>2022-01-02T13:56:59.000Z</time>
      </trkpt>
      <trkpt lat="45.62558" lon="6.32412">
        <ele>317.39999389648</ele>
        <time>2022-01-02T13:57:02.000Z</time>
      </trkpt>
      <trkpt lat="45.62519" lon="6.32357">
        <ele>317.39999389648</ele>
        <time>2022-01-02T13:57:11.000Z</time>
      </trkpt>
      <trkpt lat="45.62514" lon="6.32351">
        <ele>317.39999389648</ele>
        <time>2022-01-02T13:57:12.000Z</time>
      </trkpt>
      <trkpt lat="45.62485" lon="6.32316">
        <ele>316.79998779297</ele>
        <time>2022-01-02T13:57:18.000Z</time>
      </trkpt>
      <trkpt lat="45.62476" lon="6.32307">
        <ele>316.79998779297</ele>
        <time>2022-01-02T13:57:20.000Z</time>
      </trkpt>
      <trkpt lat="45.62435" lon="6.32258">
        <ele>316.79998779297</ele>
        <time>2022-01-02T13:57:29.000Z</time>
      </trkpt>
      <trkpt lat="45.62432" lon="6.32244">
        <ele>316.79998779297</ele>
        <time>2022-01-02T13:57:31.000Z</time>
      </trkpt>
      <trkpt lat="45.62432" lon="6.32237">
        <ele>316.79998779297</ele>
        <time>2022-01-02T13:57:32.000Z</time>
      </trkpt>
      <trkpt lat="45.62434" lon="6.3223">
        <ele>316.79998779297</ele>
        <time>2022-01-02T13:57:33.000Z</time>
      </trkpt>
      <trkpt lat="45.62442" lon="6.32219">
        <ele>317</ele>
        <time>2022-01-02T13:57:35.000Z</time>
      </trkpt>
      <trkpt lat="45.62468" lon="6.32193">
        <ele>317.39999389648</ele>
        <time>2022-01-02T13:57:41.000Z</time>
      </trkpt>
      <trkpt lat="45.62477" lon="6.32187">
        <ele>317.39999389648</ele>
        <time>2022-01-02T13:57:43.000Z</time>
      </trkpt>
      <trkpt lat="45.62496" lon="6.32168">
        <ele>318</ele>
        <time>2022-01-02T13:57:47.000Z</time>
      </trkpt>
      <trkpt lat="45.62521" lon="6.32141">
        <ele>318.79998779297</ele>
        <time>2022-01-02T13:57:53.000Z</time>
      </trkpt>
      <trkpt lat="45.62524" lon="6.32138">
        <ele>319</ele>
        <time>2022-01-02T13:57:54.000Z</time>
      </trkpt>
      <trkpt lat="45.62547" lon="6.32111">
        <ele>320</ele>
        <time>2022-01-02T13:58:00.000Z</time>
      </trkpt>
      <trkpt lat="45.62555" lon="6.32104">
        <ele>320.39999389648</ele>
        <time>2022-01-02T13:58:02.000Z</time>
      </trkpt>
      <trkpt lat="45.62587" lon="6.32072">
        <ele>321.20001220703</ele>
        <time>2022-01-02T13:58:10.000Z</time>
      </trkpt>
      <trkpt lat="45.62596" lon="6.32064">
        <ele>321.60000610352</ele>
        <time>2022-01-02T13:58:12.000Z</time>
      </trkpt>
      <trkpt lat="45.62629" lon="6.32032">
        <ele>321.79998779297</ele>
        <time>2022-01-02T13:58:19.000Z</time>
      </trkpt>
      <trkpt lat="45.62638" lon="6.32028">
        <ele>321.60000610352</ele>
        <time>2022-01-02T13:58:21.000Z</time>
      </trkpt>
      <trkpt lat="45.62645" lon="6.32027">
        <ele>321.60000610352</ele>
        <time>2022-01-02T13:58:22.000Z</time>
      </trkpt>
      <trkpt lat="45.6265" lon="6.32025">
        <ele>321.60000610352</ele>
        <time>2022-01-02T13:58:23.000Z</time>
      </trkpt>
      <trkpt lat="45.62659" lon="6.32014">
        <ele>321.20001220703</ele>
        <time>2022-01-02T13:58:25.000Z</time>
      </trkpt>
      <trkpt lat="45.6267" lon="6.31992">
        <ele>321</ele>
        <time>2022-01-02T13:58:28.000Z</time>
      </trkpt>
      <trkpt lat="45.62678" lon="6.3198">
        <ele>320.79998779297</ele>
        <time>2022-01-02T13:58:30.000Z</time>
      </trkpt>
      <trkpt lat="45.62696" lon="6.31961">
        <ele>320.39999389648</ele>
        <time>2022-01-02T13:58:33.000Z</time>
      </trkpt>
      <trkpt lat="45.62718" lon="6.31938">
        <ele>319.79998779297</ele>
        <time>2022-01-02T13:58:37.000Z</time>
      </trkpt>
      <trkpt lat="45.62743" lon="6.31912">
        <ele>319.39999389648</ele>
        <time>2022-01-02T13:58:42.000Z</time>
      </trkpt>
      <trkpt lat="45.62746" lon="6.31906">
        <ele>319.20001220703</ele>
        <time>2022-01-02T13:58:43.000Z</time>
      </trkpt>
      <trkpt lat="45.62748" lon="6.31893">
        <ele>319.20001220703</ele>
        <time>2022-01-02T13:58:45.000Z</time>
      </trkpt>
      <trkpt lat="45.62746" lon="6.31884">
        <ele>319.20001220703</ele>
        <time>2022-01-02T13:58:46.000Z</time>
      </trkpt>
      <trkpt lat="45.62742" lon="6.31877">
        <ele>319.20001220703</ele>
        <time>2022-01-02T13:58:47.000Z</time>
      </trkpt>
      <trkpt lat="45.62724" lon="6.3184">
        <ele>318.60000610352</ele>
        <time>2022-01-02T13:58:52.000Z</time>
      </trkpt>
      <trkpt lat="45.62717" lon="6.31827">
        <ele>318.20001220703</ele>
        <time>2022-01-02T13:58:54.000Z</time>
      </trkpt>
      <trkpt lat="45.62697" lon="6.31784">
        <ele>317.20001220703</ele>
        <time>2022-01-02T13:59:00.000Z</time>
      </trkpt>
      <trkpt lat="45.6269" lon="6.3177">
        <ele>317.20001220703</ele>
        <time>2022-01-02T13:59:02.000Z</time>
      </trkpt>
      <trkpt lat="45.62665" lon="6.31714">
        <ele>316.79998779297</ele>
        <time>2022-01-02T13:59:09.000Z</time>
      </trkpt>
      <trkpt lat="45.62639" lon="6.31656">
        <ele>316.39999389648</ele>
        <time>2022-01-02T13:59:17.000Z</time>
      </trkpt>
      <trkpt lat="45.62617" lon="6.31614">
        <ele>316.20001220703</ele>
        <time>2022-01-02T13:59:23.000Z</time>
      </trkpt>
      <trkpt lat="45.62614" lon="6.31607">
        <ele>316.20001220703</ele>
        <time>2022-01-02T13:59:24.000Z</time>
      </trkpt>
      <trkpt lat="45.62592" lon="6.3156">
        <ele>316.20001220703</ele>
        <time>2022-01-02T13:59:31.000Z</time>
      </trkpt>
      <trkpt lat="45.62572" lon="6.31518">
        <ele>316.39999389648</ele>
        <time>2022-01-02T13:59:37.000Z</time>
      </trkpt>
      <trkpt lat="45.62566" lon="6.31507">
        <ele>316.39999389648</ele>
        <time>2022-01-02T13:59:39.000Z</time>
      </trkpt>
      <trkpt lat="45.62559" lon="6.31499">
        <ele>316.39999389648</ele>
        <time>2022-01-02T13:59:41.000Z</time>
      </trkpt>
      <trkpt lat="45.62549" lon="6.31498">
        <ele>316.60000610352</ele>
        <time>2022-01-02T13:59:43.000Z</time>
      </trkpt>
      <trkpt lat="45.62546" lon="6.315">
        <ele>316.60000610352</ele>
        <time>2022-01-02T13:59:44.000Z</time>
      </trkpt>
      <trkpt lat="45.62542" lon="6.31503">
        <ele>316.60000610352</ele>
        <time>2022-01-02T13:59:45.000Z</time>
      </trkpt>
      <trkpt lat="45.62525" lon="6.31519">
        <ele>316.39999389648</ele>
        <time>2022-01-02T13:59:49.000Z</time>
      </trkpt>
      <trkpt lat="45.62516" lon="6.31528">
        <ele>316.20001220703</ele>
        <time>2022-01-02T13:59:51.000Z</time>
      </trkpt>
      <trkpt lat="45.62508" lon="6.31534">
        <ele>316.39999389648</ele>
        <time>2022-01-02T13:59:53.000Z</time>
      </trkpt>
      <trkpt lat="45.62497" lon="6.31537">
        <ele>316.39999389648</ele>
        <time>2022-01-02T13:59:55.000Z</time>
      </trkpt>
      <trkpt lat="45.62484" lon="6.31536">
        <ele>316</ele>
        <time>2022-01-02T13:59:57.000Z</time>
      </trkpt>
      <trkpt lat="45.62474" lon="6.31535">
        <ele>316</ele>
        <time>2022-01-02T13:59:59.000Z</time>
      </trkpt>
      <trkpt lat="45.62462" lon="6.31534">
        <ele>315.79998779297</ele>
        <time>2022-01-02T14:00:01.000Z</time>
      </trkpt>
      <trkpt lat="45.62446" lon="6.31528">
        <ele>315.60000610352</ele>
        <time>2022-01-02T14:00:04.000Z</time>
      </trkpt>
      <trkpt lat="45.62435" lon="6.31526">
        <ele>315.60000610352</ele>
        <time>2022-01-02T14:00:06.000Z</time>
      </trkpt>
      <trkpt lat="45.62419" lon="6.3152">
        <ele>315.60000610352</ele>
        <time>2022-01-02T14:00:09.000Z</time>
      </trkpt>
      <trkpt lat="45.62411" lon="6.3151">
        <ele>315.60000610352</ele>
        <time>2022-01-02T14:00:11.000Z</time>
      </trkpt>
      <trkpt lat="45.62404" lon="6.315">
        <ele>315.60000610352</ele>
        <time>2022-01-02T14:00:13.000Z</time>
      </trkpt>
      <trkpt lat="45.62388" lon="6.31469">
        <ele>315.79998779297</ele>
        <time>2022-01-02T14:00:18.000Z</time>
      </trkpt>
      <trkpt lat="45.62382" lon="6.31455">
        <ele>315.79998779297</ele>
        <time>2022-01-02T14:00:20.000Z</time>
      </trkpt>
      <trkpt lat="45.62372" lon="6.31434">
        <ele>316</ele>
        <time>2022-01-02T14:00:23.000Z</time>
      </trkpt>
      <trkpt lat="45.62368" lon="6.31428">
        <ele>316</ele>
        <time>2022-01-02T14:00:24.000Z</time>
      </trkpt>
      <trkpt lat="45.62337" lon="6.31365">
        <ele>315.79998779297</ele>
        <time>2022-01-02T14:00:34.000Z</time>
      </trkpt>
      <trkpt lat="45.62335" lon="6.3136">
        <ele>315.79998779297</ele>
        <time>2022-01-02T14:00:35.000Z</time>
      </trkpt>
      <trkpt lat="45.62301" lon="6.31295">
        <ele>315.60000610352</ele>
        <time>2022-01-02T14:00:45.000Z</time>
      </trkpt>
      <trkpt lat="45.62272" lon="6.31238">
        <ele>315.79998779297</ele>
        <time>2022-01-02T14:00:54.000Z</time>
      </trkpt>
      <trkpt lat="45.62246" lon="6.31185">
        <ele>315.79998779297</ele>
        <time>2022-01-02T14:01:02.000Z</time>
      </trkpt>
      <trkpt lat="45.62212" lon="6.31115">
        <ele>315.39999389648</ele>
        <time>2022-01-02T14:01:12.000Z</time>
      </trkpt>
      <trkpt lat="45.62201" lon="6.31094">
        <ele>315.20001220703</ele>
        <time>2022-01-02T14:01:15.000Z</time>
      </trkpt>
      <trkpt lat="45.62177" lon="6.31047">
        <ele>315.20001220703</ele>
        <time>2022-01-02T14:01:22.000Z</time>
      </trkpt>
      <trkpt lat="45.62163" lon="6.31019">
        <ele>315.20001220703</ele>
        <time>2022-01-02T14:01:27.000Z</time>
      </trkpt>
      <trkpt lat="45.6215" lon="6.30989">
        <ele>315</ele>
        <time>2022-01-02T14:01:33.000Z</time>
      </trkpt>
      <trkpt lat="45.62151" lon="6.30984">
        <ele>315</ele>
        <time>2022-01-02T14:01:34.000Z</time>
      </trkpt>
      <trkpt lat="45.62155" lon="6.30979">
        <ele>315</ele>
        <time>2022-01-02T14:01:35.000Z</time>
      </trkpt>
      <trkpt lat="45.62174" lon="6.30959">
        <ele>314.79998779297</ele>
        <time>2022-01-02T14:01:40.000Z</time>
      </trkpt>
      <trkpt lat="45.62204" lon="6.30927">
        <ele>314.60000610352</ele>
        <time>2022-01-02T14:01:47.000Z</time>
      </trkpt>
      <trkpt lat="45.62241" lon="6.30887">
        <ele>314.60000610352</ele>
        <time>2022-01-02T14:01:55.000Z</time>
      </trkpt>
      <trkpt lat="45.62246" lon="6.30881">
        <ele>314.60000610352</ele>
        <time>2022-01-02T14:01:56.000Z</time>
      </trkpt>
      <trkpt lat="45.62262" lon="6.3086">
        <ele>314.79998779297</ele>
        <time>2022-01-02T14:02:00.000Z</time>
      </trkpt>
      <trkpt lat="45.62293" lon="6.30824">
        <ele>314.79998779297</ele>
        <time>2022-01-02T14:02:07.000Z</time>
      </trkpt>
      <trkpt lat="45.62333" lon="6.30776">
        <ele>314.39999389648</ele>
        <time>2022-01-02T14:02:16.000Z</time>
      </trkpt>
      <trkpt lat="45.62348" lon="6.30761">
        <ele>314.20001220703</ele>
        <time>2022-01-02T14:02:19.000Z</time>
      </trkpt>
      <trkpt lat="45.62376" lon="6.30727">
        <ele>314</ele>
        <time>2022-01-02T14:02:25.000Z</time>
      </trkpt>
      <trkpt lat="45.62411" lon="6.30682">
        <ele>314.20001220703</ele>
        <time>2022-01-02T14:02:33.000Z</time>
      </trkpt>
      <trkpt lat="45.62448" lon="6.30638">
        <ele>314.20001220703</ele>
        <time>2022-01-02T14:02:41.000Z</time>
      </trkpt>
      <trkpt lat="45.62477" lon="6.30596">
        <ele>314.39999389648</ele>
        <time>2022-01-02T14:02:48.000Z</time>
      </trkpt>
      <trkpt lat="45.62512" lon="6.30553">
        <ele>314.39999389648</ele>
        <time>2022-01-02T14:02:56.000Z</time>
      </trkpt>
      <trkpt lat="45.62532" lon="6.30534">
        <ele>314.79998779297</ele>
        <time>2022-01-02T14:03:01.000Z</time>
      </trkpt>
      <trkpt lat="45.62543" lon="6.30523">
        <ele>315.20001220703</ele>
        <time>2022-01-02T14:03:04.000Z</time>
      </trkpt>
      <trkpt lat="45.62557" lon="6.30508">
        <ele>316.20001220703</ele>
        <time>2022-01-02T14:03:08.000Z</time>
      </trkpt>
      <trkpt lat="45.6256" lon="6.30506">
        <ele>316.39999389648</ele>
        <time>2022-01-02T14:03:09.000Z</time>
      </trkpt>
      <trkpt lat="45.62563" lon="6.30503">
        <ele>316.60000610352</ele>
        <time>2022-01-02T14:03:10.000Z</time>
      </trkpt>
      <trkpt lat="45.62577" lon="6.3049">
        <ele>317</ele>
        <time>2022-01-02T14:03:14.000Z</time>
      </trkpt>
      <trkpt lat="45.62588" lon="6.3048">
        <ele>317.39999389648</ele>
        <time>2022-01-02T14:03:17.000Z</time>
      </trkpt>
      <trkpt lat="45.6261" lon="6.30459">
        <ele>318</ele>
        <time>2022-01-02T14:03:23.000Z</time>
      </trkpt>
      <trkpt lat="45.62624" lon="6.30443">
        <ele>318.60000610352</ele>
        <time>2022-01-02T14:03:27.000Z</time>
      </trkpt>
      <trkpt lat="45.62641" lon="6.30418">
        <ele>319.20001220703</ele>
        <time>2022-01-02T14:03:33.000Z</time>
      </trkpt>
      <trkpt lat="45.62661" lon="6.30387">
        <ele>319.60000610352</ele>
        <time>2022-01-02T14:03:40.000Z</time>
      </trkpt>
      <trkpt lat="45.62671" lon="6.30373">
        <ele>319.79998779297</ele>
        <time>2022-01-02T14:03:43.000Z</time>
      </trkpt>
      <trkpt lat="45.6269" lon="6.30349">
        <ele>320.20001220703</ele>
        <time>2022-01-02T14:03:49.000Z</time>
      </trkpt>
      <trkpt lat="45.62699" lon="6.30341">
        <ele>320.20001220703</ele>
        <time>2022-01-02T14:03:51.000Z</time>
      </trkpt>
      <trkpt lat="45.62708" lon="6.30338">
        <ele>320.20001220703</ele>
        <time>2022-01-02T14:03:53.000Z</time>
      </trkpt>
      <trkpt lat="45.62717" lon="6.30336">
        <ele>320.20001220703</ele>
        <time>2022-01-02T14:03:55.000Z</time>
      </trkpt>
      <trkpt lat="45.62722" lon="6.30333">
        <ele>320.20001220703</ele>
        <time>2022-01-02T14:03:56.000Z</time>
      </trkpt>
      <trkpt lat="45.62726" lon="6.30329">
        <ele>320</ele>
        <time>2022-01-02T14:03:57.000Z</time>
      </trkpt>
      <trkpt lat="45.6274" lon="6.30311">
        <ele>319.79998779297</ele>
        <time>2022-01-02T14:04:01.000Z</time>
      </trkpt>
      <trkpt lat="45.62758" lon="6.30283">
        <ele>319.79998779297</ele>
        <time>2022-01-02T14:04:07.000Z</time>
      </trkpt>
      <trkpt lat="45.62761" lon="6.30279">
        <ele>320</ele>
        <time>2022-01-02T14:04:08.000Z</time>
      </trkpt>
      <trkpt lat="45.62778" lon="6.30256">
        <ele>320.39999389648</ele>
        <time>2022-01-02T14:04:14.000Z</time>
      </trkpt>
      <trkpt lat="45.62784" lon="6.3025">
        <ele>320.60000610352</ele>
        <time>2022-01-02T14:04:16.000Z</time>
      </trkpt>
      <trkpt lat="45.6279" lon="6.30245">
        <ele>321</ele>
        <time>2022-01-02T14:04:19.000Z</time>
      </trkpt>
      <trkpt lat="45.62792" lon="6.3024">
        <ele>321.39999389648</ele>
        <time>2022-01-02T14:04:21.000Z</time>
      </trkpt>
      <trkpt lat="45.62791" lon="6.30233">
        <ele>321.60000610352</ele>
        <time>2022-01-02T14:04:23.000Z</time>
      </trkpt>
      <trkpt lat="45.6278" lon="6.30212">
        <ele>322.39999389648</ele>
        <time>2022-01-02T14:04:28.000Z</time>
      </trkpt>
      <trkpt lat="45.62775" lon="6.30198">
        <ele>323</ele>
        <time>2022-01-02T14:04:31.000Z</time>
      </trkpt>
      <trkpt lat="45.62768" lon="6.30178">
        <ele>323.39999389648</ele>
        <time>2022-01-02T14:04:35.000Z</time>
      </trkpt>
      <trkpt lat="45.6276" lon="6.3016">
        <ele>324</ele>
        <time>2022-01-02T14:04:39.000Z</time>
      </trkpt>
      <trkpt lat="45.62755" lon="6.30144">
        <ele>324.79998779297</ele>
        <time>2022-01-02T14:04:42.000Z</time>
      </trkpt>
      <trkpt lat="45.62754" lon="6.30139">
        <ele>325.20001220703</ele>
        <time>2022-01-02T14:04:43.000Z</time>
      </trkpt>
      <trkpt lat="45.62747" lon="6.30113">
        <ele>326.20001220703</ele>
        <time>2022-01-02T14:04:48.000Z</time>
      </trkpt>
      <trkpt lat="45.62741" lon="6.30092">
        <ele>326.79998779297</ele>
        <time>2022-01-02T14:04:52.000Z</time>
      </trkpt>
      <trkpt lat="45.62733" lon="6.30066">
        <ele>327.39999389648</ele>
        <time>2022-01-02T14:04:57.000Z</time>
      </trkpt>
      <trkpt lat="45.62723" lon="6.30033">
        <ele>328.20001220703</ele>
        <time>2022-01-02T14:05:03.000Z</time>
      </trkpt>
      <trkpt lat="45.62707" lon="6.29981">
        <ele>328.39999389648</ele>
        <time>2022-01-02T14:05:12.000Z</time>
      </trkpt>
      <trkpt lat="45.62705" lon="6.29975">
        <ele>328.39999389648</ele>
        <time>2022-01-02T14:05:13.000Z</time>
      </trkpt>
      <trkpt lat="45.62693" lon="6.29935">
        <ele>328.60000610352</ele>
        <time>2022-01-02T14:05:20.000Z</time>
      </trkpt>
      <trkpt lat="45.62677" lon="6.29882">
        <ele>328.79998779297</ele>
        <time>2022-01-02T14:05:29.000Z</time>
      </trkpt>
      <trkpt lat="45.62676" lon="6.29876">
        <ele>328.79998779297</ele>
        <time>2022-01-02T14:05:30.000Z</time>
      </trkpt>
      <trkpt lat="45.62675" lon="6.29871">
        <ele>328.79998779297</ele>
        <time>2022-01-02T14:05:31.000Z</time>
      </trkpt>
      <trkpt lat="45.62673" lon="6.29857">
        <ele>328.79998779297</ele>
        <time>2022-01-02T14:05:33.000Z</time>
      </trkpt>
      <trkpt lat="45.62671" lon="6.2985">
        <ele>328.79998779297</ele>
        <time>2022-01-02T14:05:34.000Z</time>
      </trkpt>
      <trkpt lat="45.6267" lon="6.29845">
        <ele>328.79998779297</ele>
        <time>2022-01-02T14:05:35.000Z</time>
      </trkpt>
      <trkpt lat="45.62672" lon="6.29836">
        <ele>328.79998779297</ele>
        <time>2022-01-02T14:05:37.000Z</time>
      </trkpt>
      <trkpt lat="45.62686" lon="6.2983">
        <ele>328.79998779297</ele>
        <time>2022-01-02T14:05:40.000Z</time>
      </trkpt>
      <trkpt lat="45.62691" lon="6.29829">
        <ele>328.79998779297</ele>
        <time>2022-01-02T14:05:41.000Z</time>
      </trkpt>
      <trkpt lat="45.62699" lon="6.29823">
        <ele>328.60000610352</ele>
        <time>2022-01-02T14:05:43.000Z</time>
      </trkpt>
      <trkpt lat="45.62703" lon="6.29819">
        <ele>328.60000610352</ele>
        <time>2022-01-02T14:05:44.000Z</time>
      </trkpt>
      <trkpt lat="45.62707" lon="6.29814">
        <ele>328.39999389648</ele>
        <time>2022-01-02T14:05:45.000Z</time>
      </trkpt>
      <trkpt lat="45.62717" lon="6.29793">
        <ele>328.20001220703</ele>
        <time>2022-01-02T14:05:49.000Z</time>
      </trkpt>
      <trkpt lat="45.62729" lon="6.29764">
        <ele>328.60000610352</ele>
        <time>2022-01-02T14:05:55.000Z</time>
      </trkpt>
      <trkpt lat="45.62743" lon="6.29734">
        <ele>329.39999389648</ele>
        <time>2022-01-02T14:06:01.000Z</time>
      </trkpt>
      <trkpt lat="45.62747" lon="6.29725">
        <ele>329.60000610352</ele>
        <time>2022-01-02T14:06:03.000Z</time>
      </trkpt>
      <trkpt lat="45.62753" lon="6.29714">
        <ele>329.79998779297</ele>
        <time>2022-01-02T14:06:05.000Z</time>
      </trkpt>
      <trkpt lat="45.6276" lon="6.29694">
        <ele>330.20001220703</ele>
        <time>2022-01-02T14:06:09.000Z</time>
      </trkpt>
      <trkpt lat="45.62763" lon="6.29674">
        <ele>330.60000610352</ele>
        <time>2022-01-02T14:06:12.000Z</time>
      </trkpt>
      <trkpt lat="45.62763" lon="6.29657">
        <ele>331</ele>
        <time>2022-01-02T14:06:15.000Z</time>
      </trkpt>
      <trkpt lat="45.62762" lon="6.2961">
        <ele>331.39999389648</ele>
        <time>2022-01-02T14:06:23.000Z</time>
      </trkpt>
      <trkpt lat="45.62763" lon="6.29598">
        <ele>331.60000610352</ele>
        <time>2022-01-02T14:06:25.000Z</time>
      </trkpt>
      <trkpt lat="45.62764" lon="6.29593">
        <ele>331.60000610352</ele>
        <time>2022-01-02T14:06:26.000Z</time>
      </trkpt>
      <trkpt lat="45.62767" lon="6.29572">
        <ele>332.20001220703</ele>
        <time>2022-01-02T14:06:30.000Z</time>
      </trkpt>
      <trkpt lat="45.62765" lon="6.29563">
        <ele>332.79998779297</ele>
        <time>2022-01-02T14:06:32.000Z</time>
      </trkpt>
      <trkpt lat="45.62762" lon="6.2956">
        <ele>333</ele>
        <time>2022-01-02T14:06:33.000Z</time>
      </trkpt>
      <trkpt lat="45.62747" lon="6.29541">
        <ele>333.79998779297</ele>
        <time>2022-01-02T14:06:38.000Z</time>
      </trkpt>
      <trkpt lat="45.62743" lon="6.29537">
        <ele>334</ele>
        <time>2022-01-02T14:06:39.000Z</time>
      </trkpt>
      <trkpt lat="45.62725" lon="6.29505">
        <ele>334.79998779297</ele>
        <time>2022-01-02T14:06:46.000Z</time>
      </trkpt>
      <trkpt lat="45.6272" lon="6.29496">
        <ele>335</ele>
        <time>2022-01-02T14:06:48.000Z</time>
      </trkpt>
      <trkpt lat="45.62703" lon="6.29461">
        <ele>336</ele>
        <time>2022-01-02T14:06:55.000Z</time>
      </trkpt>
      <trkpt lat="45.62701" lon="6.29456">
        <ele>336.20001220703</ele>
        <time>2022-01-02T14:06:56.000Z</time>
      </trkpt>
      <trkpt lat="45.62696" lon="6.29445">
        <ele>336.39999389648</ele>
        <time>2022-01-02T14:06:58.000Z</time>
      </trkpt>
      <trkpt lat="45.62685" lon="6.29425">
        <ele>337</ele>
        <time>2022-01-02T14:07:02.000Z</time>
      </trkpt>
      <trkpt lat="45.62682" lon="6.29414">
        <ele>337.20001220703</ele>
        <time>2022-01-02T14:07:04.000Z</time>
      </trkpt>
      <trkpt lat="45.62671" lon="6.29386">
        <ele>338.20001220703</ele>
        <time>2022-01-02T14:07:09.000Z</time>
      </trkpt>
      <trkpt lat="45.62669" lon="6.29382">
        <ele>338.20001220703</ele>
        <time>2022-01-02T14:07:10.000Z</time>
      </trkpt>
      <trkpt lat="45.6266" lon="6.29362">
        <ele>338.79998779297</ele>
        <time>2022-01-02T14:07:14.000Z</time>
      </trkpt>
      <trkpt lat="45.62658" lon="6.29358">
        <ele>339.39999389648</ele>
        <time>2022-01-02T14:07:15.000Z</time>
      </trkpt>
      <trkpt lat="45.62653" lon="6.29349">
        <ele>340</ele>
        <time>2022-01-02T14:07:17.000Z</time>
      </trkpt>
      <trkpt lat="45.62646" lon="6.29337">
        <ele>340.60000610352</ele>
        <time>2022-01-02T14:07:20.000Z</time>
      </trkpt>
      <trkpt lat="45.62633" lon="6.29317">
        <ele>341.39999389648</ele>
        <time>2022-01-02T14:07:25.000Z</time>
      </trkpt>
      <trkpt lat="45.62628" lon="6.2931">
        <ele>341.79998779297</ele>
        <time>2022-01-02T14:07:27.000Z</time>
      </trkpt>
      <trkpt lat="45.62613" lon="6.2929">
        <ele>342.79998779297</ele>
        <time>2022-01-02T14:07:33.000Z</time>
      </trkpt>
      <trkpt lat="45.62611" lon="6.29286">
        <ele>343</ele>
        <time>2022-01-02T14:07:34.000Z</time>
      </trkpt>
      <trkpt lat="45.62599" lon="6.29261">
        <ele>344</ele>
        <time>2022-01-02T14:07:40.000Z</time>
      </trkpt>
      <trkpt lat="45.62591" lon="6.29239">
        <ele>345.20001220703</ele>
        <time>2022-01-02T14:07:45.000Z</time>
      </trkpt>
      <trkpt lat="45.62583" lon="6.29218">
        <ele>346.20001220703</ele>
        <time>2022-01-02T14:07:50.000Z</time>
      </trkpt>
      <trkpt lat="45.62574" lon="6.29197">
        <ele>347.20001220703</ele>
        <time>2022-01-02T14:07:55.000Z</time>
      </trkpt>
      <trkpt lat="45.62569" lon="6.29184">
        <ele>347.79998779297</ele>
        <time>2022-01-02T14:07:58.000Z</time>
      </trkpt>
      <trkpt lat="45.62563" lon="6.29172">
        <ele>348.20001220703</ele>
        <time>2022-01-02T14:08:01.000Z</time>
      </trkpt>
      <trkpt lat="45.62552" lon="6.29153">
        <ele>349</ele>
        <time>2022-01-02T14:08:06.000Z</time>
      </trkpt>
      <trkpt lat="45.6255" lon="6.2915">
        <ele>349.39999389648</ele>
        <time>2022-01-02T14:08:07.000Z</time>
      </trkpt>
      <trkpt lat="45.62538" lon="6.29133">
        <ele>350.60000610352</ele>
        <time>2022-01-02T14:08:12.000Z</time>
      </trkpt>
      <trkpt lat="45.62532" lon="6.29123">
        <ele>351</ele>
        <time>2022-01-02T14:08:15.000Z</time>
      </trkpt>
      <trkpt lat="45.62524" lon="6.2911">
        <ele>351.79998779297</ele>
        <time>2022-01-02T14:08:19.000Z</time>
      </trkpt>
      <trkpt lat="45.62514" lon="6.29092">
        <ele>352.60000610352</ele>
        <time>2022-01-02T14:08:24.000Z</time>
      </trkpt>
      <trkpt lat="45.62509" lon="6.29085">
        <ele>352.79998779297</ele>
        <time>2022-01-02T14:08:26.000Z</time>
      </trkpt>
      <trkpt lat="45.62499" lon="6.29071">
        <ele>353.60000610352</ele>
        <time>2022-01-02T14:08:30.000Z</time>
      </trkpt>
      <trkpt lat="45.62493" lon="6.29061">
        <ele>354</ele>
        <time>2022-01-02T14:08:33.000Z</time>
      </trkpt>
      <trkpt lat="45.62486" lon="6.29051">
        <ele>354.60000610352</ele>
        <time>2022-01-02T14:08:36.000Z</time>
      </trkpt>
      <trkpt lat="45.6248" lon="6.29042">
        <ele>355.20001220703</ele>
        <time>2022-01-02T14:08:39.000Z</time>
      </trkpt>
      <trkpt lat="45.6247" lon="6.29025">
        <ele>356.20001220703</ele>
        <time>2022-01-02T14:08:44.000Z</time>
      </trkpt>
      <trkpt lat="45.62466" lon="6.29019">
        <ele>356.39999389648</ele>
        <time>2022-01-02T14:08:46.000Z</time>
      </trkpt>
      <trkpt lat="45.62456" lon="6.29003">
        <ele>357</ele>
        <time>2022-01-02T14:08:50.000Z</time>
      </trkpt>
      <trkpt lat="45.6245" lon="6.28995">
        <ele>357.39999389648</ele>
        <time>2022-01-02T14:08:52.000Z</time>
      </trkpt>
      <trkpt lat="45.62438" lon="6.28979">
        <ele>357.79998779297</ele>
        <time>2022-01-02T14:08:56.000Z</time>
      </trkpt>
      <trkpt lat="45.62422" lon="6.2896">
        <ele>358.39999389648</ele>
        <time>2022-01-02T14:09:01.000Z</time>
      </trkpt>
      <trkpt lat="45.62412" lon="6.28947">
        <ele>358.79998779297</ele>
        <time>2022-01-02T14:09:05.000Z</time>
      </trkpt>
      <trkpt lat="45.62397" lon="6.28931">
        <ele>359.79998779297</ele>
        <time>2022-01-02T14:09:10.000Z</time>
      </trkpt>
      <trkpt lat="45.62393" lon="6.28927">
        <ele>360</ele>
        <time>2022-01-02T14:09:11.000Z</time>
      </trkpt>
      <trkpt lat="45.62379" lon="6.28906">
        <ele>360.20001220703</ele>
        <time>2022-01-02T14:09:16.000Z</time>
      </trkpt>
      <trkpt lat="45.62366" lon="6.28865">
        <ele>360.60000610352</ele>
        <time>2022-01-02T14:09:24.000Z</time>
      </trkpt>
      <trkpt lat="45.62363" lon="6.28856">
        <ele>360.79998779297</ele>
        <time>2022-01-02T14:09:26.000Z</time>
      </trkpt>
      <trkpt lat="45.6235" lon="6.28835">
        <ele>361.79998779297</ele>
        <time>2022-01-02T14:09:31.000Z</time>
      </trkpt>
      <trkpt lat="45.62344" lon="6.28828">
        <ele>361.79998779297</ele>
        <time>2022-01-02T14:09:33.000Z</time>
      </trkpt>
      <trkpt lat="45.62318" lon="6.28798">
        <ele>362.39999389648</ele>
        <time>2022-01-02T14:09:41.000Z</time>
      </trkpt>
      <trkpt lat="45.62315" lon="6.28793">
        <ele>362.39999389648</ele>
        <time>2022-01-02T14:09:42.000Z</time>
      </trkpt>
      <trkpt lat="45.62299" lon="6.28769">
        <ele>362.79998779297</ele>
        <time>2022-01-02T14:09:48.000Z</time>
      </trkpt>
      <trkpt lat="45.62306" lon="6.28758">
        <ele>362.79998779297</ele>
        <time>2022-01-02T14:09:51.000Z</time>
      </trkpt>
      <trkpt lat="45.62309" lon="6.28756">
        <ele>363</ele>
        <time>2022-01-02T14:09:52.000Z</time>
      </trkpt>
      <trkpt lat="45.62324" lon="6.28744">
        <ele>363.39999389648</ele>
        <time>2022-01-02T14:09:57.000Z</time>
      </trkpt>
      <trkpt lat="45.62332" lon="6.28737">
        <ele>364</ele>
        <time>2022-01-02T14:10:00.000Z</time>
      </trkpt>
      <trkpt lat="45.62344" lon="6.28729">
        <ele>365</ele>
        <time>2022-01-02T14:10:04.000Z</time>
      </trkpt>
      <trkpt lat="45.62347" lon="6.28727">
        <ele>365.20001220703</ele>
        <time>2022-01-02T14:10:05.000Z</time>
      </trkpt>
      <trkpt lat="45.62359" lon="6.28717">
        <ele>366.39999389648</ele>
        <time>2022-01-02T14:10:09.000Z</time>
      </trkpt>
      <trkpt lat="45.62371" lon="6.28709">
        <ele>367.20001220703</ele>
        <time>2022-01-02T14:10:13.000Z</time>
      </trkpt>
      <trkpt lat="45.62373" lon="6.28708">
        <ele>367.60000610352</ele>
        <time>2022-01-02T14:10:14.000Z</time>
      </trkpt>
      <trkpt lat="45.62382" lon="6.28704">
        <ele>368.39999389648</ele>
        <time>2022-01-02T14:10:18.000Z</time>
      </trkpt>
      <trkpt lat="45.62385" lon="6.28703">
        <ele>368.79998779297</ele>
        <time>2022-01-02T14:10:19.000Z</time>
      </trkpt>
      <trkpt lat="45.624" lon="6.287">
        <ele>369.60000610352</ele>
        <time>2022-01-02T14:10:25.000Z</time>
      </trkpt>
      <trkpt lat="45.62402" lon="6.28698">
        <ele>369.79998779297</ele>
        <time>2022-01-02T14:10:26.000Z</time>
      </trkpt>
      <trkpt lat="45.62407" lon="6.28691">
        <ele>370.60000610352</ele>
        <time>2022-01-02T14:10:29.000Z</time>
      </trkpt>
      <trkpt lat="45.6241" lon="6.28686">
        <ele>371.20001220703</ele>
        <time>2022-01-02T14:10:31.000Z</time>
      </trkpt>
      <trkpt lat="45.62416" lon="6.28671">
        <ele>371.79998779297</ele>
        <time>2022-01-02T14:10:35.000Z</time>
      </trkpt>
      <trkpt lat="45.62418" lon="6.28663">
        <ele>372.20001220703</ele>
        <time>2022-01-02T14:10:37.000Z</time>
      </trkpt>
      <trkpt lat="45.62421" lon="6.28645">
        <ele>373.39999389648</ele>
        <time>2022-01-02T14:10:41.000Z</time>
      </trkpt>
      <trkpt lat="45.62422" lon="6.2864">
        <ele>373.60000610352</ele>
        <time>2022-01-02T14:10:42.000Z</time>
      </trkpt>
      <trkpt lat="45.62424" lon="6.28632">
        <ele>374.39999389648</ele>
        <time>2022-01-02T14:10:44.000Z</time>
      </trkpt>
      <trkpt lat="45.62427" lon="6.2862">
        <ele>375.20001220703</ele>
        <time>2022-01-02T14:10:47.000Z</time>
      </trkpt>
      <trkpt lat="45.62428" lon="6.28617">
        <ele>375.60000610352</ele>
        <time>2022-01-02T14:10:48.000Z</time>
      </trkpt>
      <trkpt lat="45.62431" lon="6.28608">
        <ele>376.39999389648</ele>
        <time>2022-01-02T14:10:51.000Z</time>
      </trkpt>
      <trkpt lat="45.62432" lon="6.28604">
        <ele>376.79998779297</ele>
        <time>2022-01-02T14:10:52.000Z</time>
      </trkpt>
      <trkpt lat="45.6243" lon="6.28589">
        <ele>377.60000610352</ele>
        <time>2022-01-02T14:10:55.000Z</time>
      </trkpt>
      <trkpt lat="45.62427" lon="6.28585">
        <ele>378.20001220703</ele>
        <time>2022-01-02T14:10:56.000Z</time>
      </trkpt>
      <trkpt lat="45.62422" lon="6.28573">
        <ele>379.20001220703</ele>
        <time>2022-01-02T14:10:59.000Z</time>
      </trkpt>
      <trkpt lat="45.62418" lon="6.28565">
        <ele>380</ele>
        <time>2022-01-02T14:11:02.000Z</time>
      </trkpt>
      <trkpt lat="45.62416" lon="6.28562">
        <ele>380.39999389648</ele>
        <time>2022-01-02T14:11:03.000Z</time>
      </trkpt>
      <trkpt lat="45.62412" lon="6.28554">
        <ele>381.60000610352</ele>
        <time>2022-01-02T14:11:06.000Z</time>
      </trkpt>
      <trkpt lat="45.6241" lon="6.2855">
        <ele>381.79998779297</ele>
        <time>2022-01-02T14:11:07.000Z</time>
      </trkpt>
      <trkpt lat="45.62402" lon="6.2854">
        <ele>382.60000610352</ele>
        <time>2022-01-02T14:11:11.000Z</time>
      </trkpt>
      <trkpt lat="45.62397" lon="6.28532">
        <ele>383.39999389648</ele>
        <time>2022-01-02T14:11:14.000Z</time>
      </trkpt>
      <trkpt lat="45.62394" lon="6.28526">
        <ele>383.79998779297</ele>
        <time>2022-01-02T14:11:16.000Z</time>
      </trkpt>
      <trkpt lat="45.62394" lon="6.28523">
        <ele>384</ele>
        <time>2022-01-02T14:11:17.000Z</time>
      </trkpt>
      <trkpt lat="45.62394" lon="6.28516">
        <ele>384.20001220703</ele>
        <time>2022-01-02T14:11:19.000Z</time>
      </trkpt>
      <trkpt lat="45.62394" lon="6.28504">
        <ele>384.79998779297</ele>
        <time>2022-01-02T14:11:22.000Z</time>
      </trkpt>
      <trkpt lat="45.62394" lon="6.2848">
        <ele>386</ele>
        <time>2022-01-02T14:11:28.000Z</time>
      </trkpt>
      <trkpt lat="45.62393" lon="6.28476">
        <ele>386</ele>
        <time>2022-01-02T14:11:29.000Z</time>
      </trkpt>
      <trkpt lat="45.62389" lon="6.2846">
        <ele>387</ele>
        <time>2022-01-02T14:11:33.000Z</time>
      </trkpt>
      <trkpt lat="45.62385" lon="6.28453">
        <ele>387.79998779297</ele>
        <time>2022-01-02T14:11:35.000Z</time>
      </trkpt>
      <trkpt lat="45.6238" lon="6.28446">
        <ele>388</ele>
        <time>2022-01-02T14:11:37.000Z</time>
      </trkpt>
      <trkpt lat="45.62368" lon="6.28412">
        <ele>389</ele>
        <time>2022-01-02T14:11:45.000Z</time>
      </trkpt>
      <trkpt lat="45.62363" lon="6.28393">
        <ele>389.20001220703</ele>
        <time>2022-01-02T14:11:49.000Z</time>
      </trkpt>
      <trkpt lat="45.62358" lon="6.28372">
        <ele>389.60000610352</ele>
        <time>2022-01-02T14:11:54.000Z</time>
      </trkpt>
      <trkpt lat="45.62351" lon="6.28354">
        <ele>390.20001220703</ele>
        <time>2022-01-02T14:11:59.000Z</time>
      </trkpt>
      <trkpt lat="45.62348" lon="6.28346">
        <ele>390.60000610352</ele>
        <time>2022-01-02T14:12:01.000Z</time>
      </trkpt>
      <trkpt lat="45.62344" lon="6.28331">
        <ele>391.20001220703</ele>
        <time>2022-01-02T14:12:05.000Z</time>
      </trkpt>
      <trkpt lat="45.62342" lon="6.28323">
        <ele>392</ele>
        <time>2022-01-02T14:12:07.000Z</time>
      </trkpt>
      <trkpt lat="45.6234" lon="6.28315">
        <ele>392.60000610352</ele>
        <time>2022-01-02T14:12:09.000Z</time>
      </trkpt>
      <trkpt lat="45.62335" lon="6.28302">
        <ele>393.79998779297</ele>
        <time>2022-01-02T14:12:13.000Z</time>
      </trkpt>
      <trkpt lat="45.62332" lon="6.28298">
        <ele>394.60000610352</ele>
        <time>2022-01-02T14:12:15.000Z</time>
      </trkpt>
      <trkpt lat="45.6233" lon="6.28295">
        <ele>395</ele>
        <time>2022-01-02T14:12:16.000Z</time>
      </trkpt>
      <trkpt lat="45.62326" lon="6.28287">
        <ele>395.79998779297</ele>
        <time>2022-01-02T14:12:19.000Z</time>
      </trkpt>
      <trkpt lat="45.62325" lon="6.28283">
        <ele>396</ele>
        <time>2022-01-02T14:12:20.000Z</time>
      </trkpt>
      <trkpt lat="45.62325" lon="6.28279">
        <ele>396.39999389648</ele>
        <time>2022-01-02T14:12:21.000Z</time>
      </trkpt>
      <trkpt lat="45.62329" lon="6.28273">
        <ele>397.60000610352</ele>
        <time>2022-01-02T14:12:24.000Z</time>
      </trkpt>
      <trkpt lat="45.62331" lon="6.28271">
        <ele>397.79998779297</ele>
        <time>2022-01-02T14:12:25.000Z</time>
      </trkpt>
      <trkpt lat="45.62336" lon="6.28271">
        <ele>398.79998779297</ele>
        <time>2022-01-02T14:12:27.000Z</time>
      </trkpt>
      <trkpt lat="45.6234" lon="6.28272">
        <ele>399.60000610352</ele>
        <time>2022-01-02T14:12:29.000Z</time>
      </trkpt>
      <trkpt lat="45.62344" lon="6.28272">
        <ele>399.79998779297</ele>
        <time>2022-01-02T14:12:31.000Z</time>
      </trkpt>
      <trkpt lat="45.62347" lon="6.28266">
        <ele>400.39999389648</ele>
        <time>2022-01-02T14:12:33.000Z</time>
      </trkpt>
      <trkpt lat="45.62347" lon="6.2826">
        <ele>401.20001220703</ele>
        <time>2022-01-02T14:12:35.000Z</time>
      </trkpt>
      <trkpt lat="45.62346" lon="6.28257">
        <ele>401.60000610352</ele>
        <time>2022-01-02T14:12:36.000Z</time>
      </trkpt>
      <trkpt lat="45.62344" lon="6.28254">
        <ele>401.79998779297</ele>
        <time>2022-01-02T14:12:37.000Z</time>
      </trkpt>
      <trkpt lat="45.62344" lon="6.28251">
        <ele>402</ele>
        <time>2022-01-02T14:12:38.000Z</time>
      </trkpt>
      <trkpt lat="45.6234" lon="6.28249">
        <ele>402.60000610352</ele>
        <time>2022-01-02T14:12:40.000Z</time>
      </trkpt>
      <trkpt lat="45.62332" lon="6.2825">
        <ele>403</ele>
        <time>2022-01-02T14:12:42.000Z</time>
      </trkpt>
      <trkpt lat="45.62326" lon="6.28252">
        <ele>403.39999389648</ele>
        <time>2022-01-02T14:12:44.000Z</time>
      </trkpt>
      <trkpt lat="45.62319" lon="6.28257">
        <ele>403.79998779297</ele>
        <time>2022-01-02T14:12:47.000Z</time>
      </trkpt>
      <trkpt lat="45.62316" lon="6.28257">
        <ele>404.20001220703</ele>
        <time>2022-01-02T14:12:48.000Z</time>
      </trkpt>
      <trkpt lat="45.62309" lon="6.28258">
        <ele>405.39999389648</ele>
        <time>2022-01-02T14:12:51.000Z</time>
      </trkpt>
      <trkpt lat="45.62301" lon="6.28256">
        <ele>406</ele>
        <time>2022-01-02T14:12:54.000Z</time>
      </trkpt>
      <trkpt lat="45.62299" lon="6.28255">
        <ele>406.60000610352</ele>
        <time>2022-01-02T14:12:55.000Z</time>
      </trkpt>
      <trkpt lat="45.62289" lon="6.28248">
        <ele>407.60000610352</ele>
        <time>2022-01-02T14:12:59.000Z</time>
      </trkpt>
      <trkpt lat="45.62285" lon="6.28242">
        <ele>408.39999389648</ele>
        <time>2022-01-02T14:13:01.000Z</time>
      </trkpt>
      <trkpt lat="45.62282" lon="6.28239">
        <ele>408.60000610352</ele>
        <time>2022-01-02T14:13:02.000Z</time>
      </trkpt>
      <trkpt lat="45.6227" lon="6.28224">
        <ele>409.60000610352</ele>
        <time>2022-01-02T14:13:07.000Z</time>
      </trkpt>
      <trkpt lat="45.62267" lon="6.28222">
        <ele>409.79998779297</ele>
        <time>2022-01-02T14:13:08.000Z</time>
      </trkpt>
      <trkpt lat="45.62257" lon="6.28212">
        <ele>410</ele>
        <time>2022-01-02T14:13:11.000Z</time>
      </trkpt>
      <trkpt lat="45.62254" lon="6.28206">
        <ele>410.20001220703</ele>
        <time>2022-01-02T14:13:12.000Z</time>
      </trkpt>
      <trkpt lat="45.62253" lon="6.282">
        <ele>410</ele>
        <time>2022-01-02T14:13:13.000Z</time>
      </trkpt>
      <trkpt lat="45.62254" lon="6.28191">
        <ele>410</ele>
        <time>2022-01-02T14:13:14.000Z</time>
      </trkpt>
      <trkpt lat="45.62257" lon="6.28171">
        <ele>410</ele>
        <time>2022-01-02T14:13:16.000Z</time>
      </trkpt>
      <trkpt lat="45.62253" lon="6.28147">
        <ele>409.60000610352</ele>
        <time>2022-01-02T14:13:18.000Z</time>
      </trkpt>
      <trkpt lat="45.62246" lon="6.28137">
        <ele>409.20001220703</ele>
        <time>2022-01-02T14:13:19.000Z</time>
      </trkpt>
      <trkpt lat="45.62238" lon="6.28129">
        <ele>409</ele>
        <time>2022-01-02T14:13:20.000Z</time>
      </trkpt>
      <trkpt lat="45.62229" lon="6.28122">
        <ele>408.60000610352</ele>
        <time>2022-01-02T14:13:21.000Z</time>
      </trkpt>
      <trkpt lat="45.6222" lon="6.28117">
        <ele>407.79998779297</ele>
        <time>2022-01-02T14:13:22.000Z</time>
      </trkpt>
      <trkpt lat="45.6221" lon="6.28113">
        <ele>407.39999389648</ele>
        <time>2022-01-02T14:13:23.000Z</time>
      </trkpt>
      <trkpt lat="45.62202" lon="6.28109">
        <ele>406.60000610352</ele>
        <time>2022-01-02T14:13:24.000Z</time>
      </trkpt>
      <trkpt lat="45.62193" lon="6.28107">
        <ele>405.60000610352</ele>
        <time>2022-01-02T14:13:25.000Z</time>
      </trkpt>
      <trkpt lat="45.62185" lon="6.28105">
        <ele>405.20001220703</ele>
        <time>2022-01-02T14:13:26.000Z</time>
      </trkpt>
      <trkpt lat="45.62177" lon="6.28104">
        <ele>404.39999389648</ele>
        <time>2022-01-02T14:13:27.000Z</time>
      </trkpt>
      <trkpt lat="45.62171" lon="6.28105">
        <ele>404.20001220703</ele>
        <time>2022-01-02T14:13:28.000Z</time>
      </trkpt>
      <trkpt lat="45.62166" lon="6.28106">
        <ele>404.20001220703</ele>
        <time>2022-01-02T14:13:29.000Z</time>
      </trkpt>
      <trkpt lat="45.62156" lon="6.28108">
        <ele>404</ele>
        <time>2022-01-02T14:13:31.000Z</time>
      </trkpt>
      <trkpt lat="45.62141" lon="6.28109">
        <ele>406</ele>
        <time>2022-01-02T14:13:35.000Z</time>
      </trkpt>
      <trkpt lat="45.62138" lon="6.2811">
        <ele>406.20001220703</ele>
        <time>2022-01-02T14:13:36.000Z</time>
      </trkpt>
      <trkpt lat="45.62131" lon="6.28112">
        <ele>407</ele>
        <time>2022-01-02T14:13:38.000Z</time>
      </trkpt>
      <trkpt lat="45.62125" lon="6.28109">
        <ele>408.39999389648</ele>
        <time>2022-01-02T14:13:40.000Z</time>
      </trkpt>
      <trkpt lat="45.62114" lon="6.28098">
        <ele>410</ele>
        <time>2022-01-02T14:13:44.000Z</time>
      </trkpt>
      <trkpt lat="45.62106" lon="6.28085">
        <ele>411.20001220703</ele>
        <time>2022-01-02T14:13:47.000Z</time>
      </trkpt>
      <trkpt lat="45.62097" lon="6.28071">
        <ele>412.39999389648</ele>
        <time>2022-01-02T14:13:51.000Z</time>
      </trkpt>
      <trkpt lat="45.6208" lon="6.28051">
        <ele>413.60000610352</ele>
        <time>2022-01-02T14:13:57.000Z</time>
      </trkpt>
      <trkpt lat="45.62077" lon="6.28047">
        <ele>413.79998779297</ele>
        <time>2022-01-02T14:13:58.000Z</time>
      </trkpt>
      <trkpt lat="45.62057" lon="6.28026">
        <ele>414.79998779297</ele>
        <time>2022-01-02T14:14:04.000Z</time>
      </trkpt>
      <trkpt lat="45.62054" lon="6.28023">
        <ele>414.79998779297</ele>
        <time>2022-01-02T14:14:05.000Z</time>
      </trkpt>
      <trkpt lat="45.62024" lon="6.27993">
        <ele>415.79998779297</ele>
        <time>2022-01-02T14:14:15.000Z</time>
      </trkpt>
      <trkpt lat="45.62021" lon="6.27991">
        <ele>416</ele>
        <time>2022-01-02T14:14:16.000Z</time>
      </trkpt>
      <trkpt lat="45.61998" lon="6.27979">
        <ele>416.20001220703</ele>
        <time>2022-01-02T14:14:21.000Z</time>
      </trkpt>
      <trkpt lat="45.61968" lon="6.27958">
        <ele>415.60000610352</ele>
        <time>2022-01-02T14:14:26.000Z</time>
      </trkpt>
      <trkpt lat="45.61946" lon="6.27937">
        <ele>414.60000610352</ele>
        <time>2022-01-02T14:14:30.000Z</time>
      </trkpt>
      <trkpt lat="45.61932" lon="6.27922">
        <ele>413.39999389648</ele>
        <time>2022-01-02T14:14:33.000Z</time>
      </trkpt>
      <trkpt lat="45.61928" lon="6.27916">
        <ele>413.39999389648</ele>
        <time>2022-01-02T14:14:34.000Z</time>
      </trkpt>
      <trkpt lat="45.61917" lon="6.279">
        <ele>413.20001220703</ele>
        <time>2022-01-02T14:14:37.000Z</time>
      </trkpt>
      <trkpt lat="45.61906" lon="6.27879">
        <ele>413</ele>
        <time>2022-01-02T14:14:40.000Z</time>
      </trkpt>
      <trkpt lat="45.61888" lon="6.27854">
        <ele>413</ele>
        <time>2022-01-02T14:14:45.000Z</time>
      </trkpt>
      <trkpt lat="45.61885" lon="6.27851">
        <ele>413.20001220703</ele>
        <time>2022-01-02T14:14:46.000Z</time>
      </trkpt>
      <trkpt lat="45.6187" lon="6.27832">
        <ele>414</ele>
        <time>2022-01-02T14:14:52.000Z</time>
      </trkpt>
      <trkpt lat="45.61868" lon="6.27829">
        <ele>414.60000610352</ele>
        <time>2022-01-02T14:14:53.000Z</time>
      </trkpt>
      <trkpt lat="45.61862" lon="6.27821">
        <ele>415.60000610352</ele>
        <time>2022-01-02T14:14:56.000Z</time>
      </trkpt>
      <trkpt lat="45.61855" lon="6.27814">
        <ele>416.39999389648</ele>
        <time>2022-01-02T14:14:59.000Z</time>
      </trkpt>
      <trkpt lat="45.61853" lon="6.27811">
        <ele>416.79998779297</ele>
        <time>2022-01-02T14:15:00.000Z</time>
      </trkpt>
      <trkpt lat="45.61845" lon="6.27801">
        <ele>418</ele>
        <time>2022-01-02T14:15:04.000Z</time>
      </trkpt>
      <trkpt lat="45.61839" lon="6.27798">
        <ele>418.60000610352</ele>
        <time>2022-01-02T14:15:06.000Z</time>
      </trkpt>
      <trkpt lat="45.61837" lon="6.27798">
        <ele>419</ele>
        <time>2022-01-02T14:15:07.000Z</time>
      </trkpt>
      <trkpt lat="45.61828" lon="6.27803">
        <ele>420</ele>
        <time>2022-01-02T14:15:10.000Z</time>
      </trkpt>
      <trkpt lat="45.61826" lon="6.27807">
        <ele>420.20001220703</ele>
        <time>2022-01-02T14:15:11.000Z</time>
      </trkpt>
      <trkpt lat="45.61821" lon="6.27818">
        <ele>421.20001220703</ele>
        <time>2022-01-02T14:15:14.000Z</time>
      </trkpt>
      <trkpt lat="45.61819" lon="6.27821">
        <ele>421.60000610352</ele>
        <time>2022-01-02T14:15:15.000Z</time>
      </trkpt>
      <trkpt lat="45.61812" lon="6.27832">
        <ele>422.39999389648</ele>
        <time>2022-01-02T14:15:18.000Z</time>
      </trkpt>
      <trkpt lat="45.61808" lon="6.2784">
        <ele>422.79998779297</ele>
        <time>2022-01-02T14:15:20.000Z</time>
      </trkpt>
      <trkpt lat="45.61799" lon="6.27851">
        <ele>423.39999389648</ele>
        <time>2022-01-02T14:15:24.000Z</time>
      </trkpt>
      <trkpt lat="45.61796" lon="6.27851">
        <ele>423.60000610352</ele>
        <time>2022-01-02T14:15:25.000Z</time>
      </trkpt>
      <trkpt lat="45.61793" lon="6.27849">
        <ele>423.79998779297</ele>
        <time>2022-01-02T14:15:26.000Z</time>
      </trkpt>
      <trkpt lat="45.61787" lon="6.27837">
        <ele>424.20001220703</ele>
        <time>2022-01-02T14:15:29.000Z</time>
      </trkpt>
      <trkpt lat="45.61781" lon="6.27831">
        <ele>424.60000610352</ele>
        <time>2022-01-02T14:15:31.000Z</time>
      </trkpt>
      <trkpt lat="45.61775" lon="6.27827">
        <ele>424.79998779297</ele>
        <time>2022-01-02T14:15:33.000Z</time>
      </trkpt>
      <trkpt lat="45.61756" lon="6.27815">
        <ele>425.60000610352</ele>
        <time>2022-01-02T14:15:39.000Z</time>
      </trkpt>
      <trkpt lat="45.6175" lon="6.27809">
        <ele>425.60000610352</ele>
        <time>2022-01-02T14:15:41.000Z</time>
      </trkpt>
      <trkpt lat="45.61749" lon="6.27805">
        <ele>425.79998779297</ele>
        <time>2022-01-02T14:15:42.000Z</time>
      </trkpt>
      <trkpt lat="45.61749" lon="6.27796">
        <ele>426</ele>
        <time>2022-01-02T14:15:44.000Z</time>
      </trkpt>
      <trkpt lat="45.61758" lon="6.27772">
        <ele>426.60000610352</ele>
        <time>2022-01-02T14:15:50.000Z</time>
      </trkpt>
      <trkpt lat="45.61763" lon="6.27755">
        <ele>427.79998779297</ele>
        <time>2022-01-02T14:15:54.000Z</time>
      </trkpt>
      <trkpt lat="45.61765" lon="6.27746">
        <ele>428.39999389648</ele>
        <time>2022-01-02T14:15:56.000Z</time>
      </trkpt>
      <trkpt lat="45.61766" lon="6.27739">
        <ele>428.79998779297</ele>
        <time>2022-01-02T14:15:58.000Z</time>
      </trkpt>
      <trkpt lat="45.61769" lon="6.27726">
        <ele>429.79998779297</ele>
        <time>2022-01-02T14:16:01.000Z</time>
      </trkpt>
      <trkpt lat="45.61771" lon="6.27723">
        <ele>430.39999389648</ele>
        <time>2022-01-02T14:16:02.000Z</time>
      </trkpt>
      <trkpt lat="45.61773" lon="6.2772">
        <ele>430.60000610352</ele>
        <time>2022-01-02T14:16:03.000Z</time>
      </trkpt>
      <trkpt lat="45.61775" lon="6.27718">
        <ele>431</ele>
        <time>2022-01-02T14:16:04.000Z</time>
      </trkpt>
      <trkpt lat="45.61781" lon="6.27714">
        <ele>431.60000610352</ele>
        <time>2022-01-02T14:16:06.000Z</time>
      </trkpt>
      <trkpt lat="45.61785" lon="6.27712">
        <ele>432</ele>
        <time>2022-01-02T14:16:07.000Z</time>
      </trkpt>
      <trkpt lat="45.61797" lon="6.27706">
        <ele>433.60000610352</ele>
        <time>2022-01-02T14:16:11.000Z</time>
      </trkpt>
      <trkpt lat="45.618" lon="6.27705">
        <ele>434</ele>
        <time>2022-01-02T14:16:12.000Z</time>
      </trkpt>
      <trkpt lat="45.6181" lon="6.27702">
        <ele>434.60000610352</ele>
        <time>2022-01-02T14:16:15.000Z</time>
      </trkpt>
      <trkpt lat="45.61826" lon="6.27693">
        <ele>435.60000610352</ele>
        <time>2022-01-02T14:16:20.000Z</time>
      </trkpt>
      <trkpt lat="45.61834" lon="6.27689">
        <ele>437.20001220703</ele>
        <time>2022-01-02T14:16:23.000Z</time>
      </trkpt>
      <trkpt lat="45.61843" lon="6.27684">
        <ele>438.20001220703</ele>
        <time>2022-01-02T14:16:26.000Z</time>
      </trkpt>
      <trkpt lat="45.61844" lon="6.27684">
        <ele>438.39999389648</ele>
        <time>2022-01-02T14:16:27.000Z</time>
      </trkpt>
      <trkpt lat="45.6185" lon="6.27686">
        <ele>439.39999389648</ele>
        <time>2022-01-02T14:16:30.000Z</time>
      </trkpt>
      <trkpt lat="45.61855" lon="6.27687">
        <ele>439.60000610352</ele>
        <time>2022-01-02T14:16:32.000Z</time>
      </trkpt>
      <trkpt lat="45.6186" lon="6.27688">
        <ele>439.60000610352</ele>
        <time>2022-01-02T14:16:34.000Z</time>
      </trkpt>
      <trkpt lat="45.61863" lon="6.27692">
        <ele>439.60000610352</ele>
        <time>2022-01-02T14:16:36.000Z</time>
      </trkpt>
      <trkpt lat="45.61861" lon="6.27697">
        <ele>438.39999389648</ele>
        <time>2022-01-02T14:16:41.000Z</time>
      </trkpt>
      <trkpt lat="45.61861" lon="6.27697">
        <ele>437.39999389648</ele>
        <time>2022-01-02T14:16:47.000Z</time>
      </trkpt>
      <trkpt lat="45.61861" lon="6.27697">
        <ele>437.20001220703</ele>
        <time>2022-01-02T14:16:48.000Z</time>
      </trkpt>
      <trkpt lat="45.61861" lon="6.27697">
        <ele>437</ele>
        <time>2022-01-02T14:16:52.000Z</time>
      </trkpt>
      <trkpt lat="45.61861" lon="6.27697">
        <ele>437</ele>
        <time>2022-01-02T14:17:00.000Z</time>
      </trkpt>
    </trkseg>
  </trk>
</gpx>